<?xml version="1.0" encoding="UTF-8" standalone="no" ?>
<gpx xmlns="http://www.topografix.com/GPX/1/1" xmlns:xsi="http://www.w3.org/2001/XMLSchema-instance" xsi:schemaLocation="http://www.topografix.com/GPX/1/1 http://www.topografix.com/GPX/1/1/gpx.xsd" version="1.1" creator="VisuGPX - https://www.visugpx.com">
  <metadata>
    <name>Lac Besson, Lac de la Fare</name>
  </metadata>
  <trk>
    <name><![CDATA[Lac Besson, Lac de la Fare_1]]></name>
    <trkseg>
      <trkpt lat="45.11601" lon="6.08704">
        <ele>2076.4</ele>
        <time>2024-07-08T07:29:58Z</time>
      </trkpt>
      <trkpt lat="45.11607" lon="6.08713">
        <ele>2076.3</ele>
        <time>2024-07-08T07:29:59Z</time>
      </trkpt>
      <trkpt lat="45.11608" lon="6.08715">
        <ele>2076.2</ele>
        <time>2024-07-08T07:30:00Z</time>
      </trkpt>
      <trkpt lat="45.11608" lon="6.08716">
        <ele>2076.2</ele>
        <time>2024-07-08T07:30:01Z</time>
      </trkpt>
      <trkpt lat="45.11609" lon="6.08716">
        <ele>2076.2</ele>
        <time>2024-07-08T07:30:02Z</time>
      </trkpt>
      <trkpt lat="45.11609" lon="6.08716">
        <ele>2076.2</ele>
        <time>2024-07-08T07:30:03Z</time>
      </trkpt>
      <trkpt lat="45.1161" lon="6.08717">
        <ele>2076.1</ele>
        <time>2024-07-08T07:30:04Z</time>
      </trkpt>
      <trkpt lat="45.11612" lon="6.08719">
        <ele>2076</ele>
        <time>2024-07-08T07:30:06Z</time>
      </trkpt>
      <trkpt lat="45.11614" lon="6.0872">
        <ele>2075.9</ele>
        <time>2024-07-08T07:30:08Z</time>
      </trkpt>
      <trkpt lat="45.11614" lon="6.08721">
        <ele>2075.9</ele>
        <time>2024-07-08T07:30:10Z</time>
      </trkpt>
      <trkpt lat="45.11616" lon="6.08723">
        <ele>2075.8</ele>
        <time>2024-07-08T07:30:11Z</time>
      </trkpt>
      <trkpt lat="45.11616" lon="6.08724">
        <ele>2075.7</ele>
        <time>2024-07-08T07:30:12Z</time>
      </trkpt>
      <trkpt lat="45.11617" lon="6.08724">
        <ele>2075.6</ele>
        <time>2024-07-08T07:30:13Z</time>
      </trkpt>
      <trkpt lat="45.11618" lon="6.08725">
        <ele>2075.6</ele>
        <time>2024-07-08T07:30:14Z</time>
      </trkpt>
      <trkpt lat="45.11618" lon="6.08726">
        <ele>2075.5</ele>
        <time>2024-07-08T07:30:15Z</time>
      </trkpt>
      <trkpt lat="45.11619" lon="6.08727">
        <ele>2075.5</ele>
        <time>2024-07-08T07:30:16Z</time>
      </trkpt>
      <trkpt lat="45.11619" lon="6.08728">
        <ele>2075.4</ele>
        <time>2024-07-08T07:30:17Z</time>
      </trkpt>
      <trkpt lat="45.1162" lon="6.08728">
        <ele>2075.4</ele>
        <time>2024-07-08T07:30:18Z</time>
      </trkpt>
      <trkpt lat="45.11621" lon="6.08729">
        <ele>2075.3</ele>
        <time>2024-07-08T07:30:19Z</time>
      </trkpt>
      <trkpt lat="45.11621" lon="6.08729">
        <ele>2075.3</ele>
        <time>2024-07-08T07:30:20Z</time>
      </trkpt>
      <trkpt lat="45.11622" lon="6.0873">
        <ele>2075.2</ele>
        <time>2024-07-08T07:30:21Z</time>
      </trkpt>
      <trkpt lat="45.11623" lon="6.0873">
        <ele>2075.2</ele>
        <time>2024-07-08T07:30:22Z</time>
      </trkpt>
      <trkpt lat="45.11623" lon="6.08731">
        <ele>2075.1</ele>
        <time>2024-07-08T07:30:23Z</time>
      </trkpt>
      <trkpt lat="45.11624" lon="6.08731">
        <ele>2075.1</ele>
        <time>2024-07-08T07:30:24Z</time>
      </trkpt>
      <trkpt lat="45.11623" lon="6.08731">
        <ele>2075.1</ele>
        <time>2024-07-08T07:30:25Z</time>
      </trkpt>
      <trkpt lat="45.11623" lon="6.0873">
        <ele>2075.1</ele>
        <time>2024-07-08T07:30:27Z</time>
      </trkpt>
      <trkpt lat="45.11622" lon="6.0873">
        <ele>2075</ele>
        <time>2024-07-08T07:30:28Z</time>
      </trkpt>
      <trkpt lat="45.11622" lon="6.0873">
        <ele>2075</ele>
        <time>2024-07-08T07:30:29Z</time>
      </trkpt>
      <trkpt lat="45.11622" lon="6.0873">
        <ele>2075</ele>
        <time>2024-07-08T07:30:31Z</time>
      </trkpt>
      <trkpt lat="45.11623" lon="6.0873">
        <ele>2075</ele>
        <time>2024-07-08T07:30:32Z</time>
      </trkpt>
      <trkpt lat="45.11626" lon="6.08733">
        <ele>2074.9</ele>
        <time>2024-07-08T07:30:33Z</time>
      </trkpt>
      <trkpt lat="45.11629" lon="6.08734">
        <ele>2075</ele>
        <time>2024-07-08T07:30:34Z</time>
      </trkpt>
      <trkpt lat="45.1163" lon="6.08733">
        <ele>2075</ele>
        <time>2024-07-08T07:30:35Z</time>
      </trkpt>
      <trkpt lat="45.11631" lon="6.08733">
        <ele>2075</ele>
        <time>2024-07-08T07:30:36Z</time>
      </trkpt>
      <trkpt lat="45.11633" lon="6.08734">
        <ele>2075</ele>
        <time>2024-07-08T07:30:37Z</time>
      </trkpt>
      <trkpt lat="45.11634" lon="6.08734">
        <ele>2075.1</ele>
        <time>2024-07-08T07:30:38Z</time>
      </trkpt>
      <trkpt lat="45.11635" lon="6.08734">
        <ele>2075.2</ele>
        <time>2024-07-08T07:30:39Z</time>
      </trkpt>
      <trkpt lat="45.11636" lon="6.08734">
        <ele>2075.2</ele>
        <time>2024-07-08T07:30:40Z</time>
      </trkpt>
      <trkpt lat="45.11637" lon="6.08735">
        <ele>2075.3</ele>
        <time>2024-07-08T07:30:41Z</time>
      </trkpt>
      <trkpt lat="45.11638" lon="6.08735">
        <ele>2075.4</ele>
        <time>2024-07-08T07:30:42Z</time>
      </trkpt>
      <trkpt lat="45.11642" lon="6.08736">
        <ele>2075.6</ele>
        <time>2024-07-08T07:30:44Z</time>
      </trkpt>
      <trkpt lat="45.11643" lon="6.08736">
        <ele>2075.7</ele>
        <time>2024-07-08T07:30:45Z</time>
      </trkpt>
      <trkpt lat="45.11644" lon="6.08737">
        <ele>2075.8</ele>
        <time>2024-07-08T07:30:46Z</time>
      </trkpt>
      <trkpt lat="45.11645" lon="6.08737">
        <ele>2075.8</ele>
        <time>2024-07-08T07:30:47Z</time>
      </trkpt>
      <trkpt lat="45.11646" lon="6.08737">
        <ele>2075.9</ele>
        <time>2024-07-08T07:30:48Z</time>
      </trkpt>
      <trkpt lat="45.11647" lon="6.08737">
        <ele>2075.9</ele>
        <time>2024-07-08T07:30:50Z</time>
      </trkpt>
      <trkpt lat="45.11649" lon="6.08737">
        <ele>2075.9</ele>
        <time>2024-07-08T07:30:51Z</time>
      </trkpt>
      <trkpt lat="45.1165" lon="6.08737">
        <ele>2075.8</ele>
        <time>2024-07-08T07:30:52Z</time>
      </trkpt>
      <trkpt lat="45.11651" lon="6.08737">
        <ele>2075.8</ele>
        <time>2024-07-08T07:30:53Z</time>
      </trkpt>
      <trkpt lat="45.11652" lon="6.08737">
        <ele>2075.8</ele>
        <time>2024-07-08T07:30:54Z</time>
      </trkpt>
      <trkpt lat="45.11653" lon="6.08738">
        <ele>2075.7</ele>
        <time>2024-07-08T07:30:55Z</time>
      </trkpt>
      <trkpt lat="45.11654" lon="6.08738">
        <ele>2075.7</ele>
        <time>2024-07-08T07:30:56Z</time>
      </trkpt>
      <trkpt lat="45.11655" lon="6.08739">
        <ele>2075.7</ele>
        <time>2024-07-08T07:30:57Z</time>
      </trkpt>
      <trkpt lat="45.11656" lon="6.08739">
        <ele>2075.6</ele>
        <time>2024-07-08T07:30:58Z</time>
      </trkpt>
      <trkpt lat="45.11657" lon="6.08737">
        <ele>2075.6</ele>
        <time>2024-07-08T07:30:59Z</time>
      </trkpt>
      <trkpt lat="45.11657" lon="6.08735">
        <ele>2075.5</ele>
        <time>2024-07-08T07:31:00Z</time>
      </trkpt>
      <trkpt lat="45.11658" lon="6.08733">
        <ele>2075.5</ele>
        <time>2024-07-08T07:31:01Z</time>
      </trkpt>
      <trkpt lat="45.11658" lon="6.08732">
        <ele>2075.4</ele>
        <time>2024-07-08T07:31:02Z</time>
      </trkpt>
      <trkpt lat="45.11659" lon="6.08729">
        <ele>2075.4</ele>
        <time>2024-07-08T07:31:03Z</time>
      </trkpt>
      <trkpt lat="45.11659" lon="6.08728">
        <ele>2075.3</ele>
        <time>2024-07-08T07:31:04Z</time>
      </trkpt>
      <trkpt lat="45.1166" lon="6.08725">
        <ele>2075.3</ele>
        <time>2024-07-08T07:31:05Z</time>
      </trkpt>
      <trkpt lat="45.1166" lon="6.08724">
        <ele>2075.2</ele>
        <time>2024-07-08T07:31:06Z</time>
      </trkpt>
      <trkpt lat="45.1166" lon="6.08723">
        <ele>2075.2</ele>
        <time>2024-07-08T07:31:07Z</time>
      </trkpt>
      <trkpt lat="45.11661" lon="6.08723">
        <ele>2075.2</ele>
        <time>2024-07-08T07:31:08Z</time>
      </trkpt>
      <trkpt lat="45.11664" lon="6.08722">
        <ele>2075.1</ele>
        <time>2024-07-08T07:31:10Z</time>
      </trkpt>
      <trkpt lat="45.11665" lon="6.08721">
        <ele>2075.1</ele>
        <time>2024-07-08T07:31:11Z</time>
      </trkpt>
      <trkpt lat="45.11666" lon="6.08722">
        <ele>2075.1</ele>
        <time>2024-07-08T07:31:12Z</time>
      </trkpt>
      <trkpt lat="45.11666" lon="6.08723">
        <ele>2075</ele>
        <time>2024-07-08T07:31:13Z</time>
      </trkpt>
      <trkpt lat="45.11667" lon="6.08723">
        <ele>2075</ele>
        <time>2024-07-08T07:31:14Z</time>
      </trkpt>
      <trkpt lat="45.11668" lon="6.08723">
        <ele>2075</ele>
        <time>2024-07-08T07:31:15Z</time>
      </trkpt>
      <trkpt lat="45.11668" lon="6.08723">
        <ele>2075</ele>
        <time>2024-07-08T07:31:16Z</time>
      </trkpt>
      <trkpt lat="45.11669" lon="6.08723">
        <ele>2075</ele>
        <time>2024-07-08T07:31:17Z</time>
      </trkpt>
      <trkpt lat="45.11669" lon="6.08723">
        <ele>2074.9</ele>
        <time>2024-07-08T07:31:18Z</time>
      </trkpt>
      <trkpt lat="45.1167" lon="6.08722">
        <ele>2074.9</ele>
        <time>2024-07-08T07:31:19Z</time>
      </trkpt>
      <trkpt lat="45.11671" lon="6.08722">
        <ele>2074.8</ele>
        <time>2024-07-08T07:31:20Z</time>
      </trkpt>
      <trkpt lat="45.11671" lon="6.0872">
        <ele>2074.7</ele>
        <time>2024-07-08T07:31:21Z</time>
      </trkpt>
      <trkpt lat="45.11672" lon="6.08719">
        <ele>2074.7</ele>
        <time>2024-07-08T07:31:22Z</time>
      </trkpt>
      <trkpt lat="45.11672" lon="6.08718">
        <ele>2074.6</ele>
        <time>2024-07-08T07:31:23Z</time>
      </trkpt>
      <trkpt lat="45.11671" lon="6.08715">
        <ele>2074.5</ele>
        <time>2024-07-08T07:31:24Z</time>
      </trkpt>
      <trkpt lat="45.11671" lon="6.08714">
        <ele>2074.4</ele>
        <time>2024-07-08T07:31:25Z</time>
      </trkpt>
      <trkpt lat="45.1167" lon="6.08712">
        <ele>2074.3</ele>
        <time>2024-07-08T07:31:26Z</time>
      </trkpt>
      <trkpt lat="45.11671" lon="6.08712">
        <ele>2074.2</ele>
        <time>2024-07-08T07:31:27Z</time>
      </trkpt>
      <trkpt lat="45.11672" lon="6.08711">
        <ele>2074</ele>
        <time>2024-07-08T07:31:28Z</time>
      </trkpt>
      <trkpt lat="45.11673" lon="6.0871">
        <ele>2073.9</ele>
        <time>2024-07-08T07:31:29Z</time>
      </trkpt>
      <trkpt lat="45.11674" lon="6.0871">
        <ele>2073.8</ele>
        <time>2024-07-08T07:31:30Z</time>
      </trkpt>
      <trkpt lat="45.11675" lon="6.0871">
        <ele>2073.7</ele>
        <time>2024-07-08T07:31:31Z</time>
      </trkpt>
      <trkpt lat="45.11676" lon="6.08711">
        <ele>2073.6</ele>
        <time>2024-07-08T07:31:32Z</time>
      </trkpt>
      <trkpt lat="45.11676" lon="6.08711">
        <ele>2073.5</ele>
        <time>2024-07-08T07:31:33Z</time>
      </trkpt>
      <trkpt lat="45.11677" lon="6.08712">
        <ele>2073.3</ele>
        <time>2024-07-08T07:31:34Z</time>
      </trkpt>
      <trkpt lat="45.11679" lon="6.08712">
        <ele>2073.2</ele>
        <time>2024-07-08T07:31:35Z</time>
      </trkpt>
      <trkpt lat="45.1168" lon="6.08711">
        <ele>2073.1</ele>
        <time>2024-07-08T07:31:36Z</time>
      </trkpt>
      <trkpt lat="45.11681" lon="6.08709">
        <ele>2073.1</ele>
        <time>2024-07-08T07:31:37Z</time>
      </trkpt>
      <trkpt lat="45.11682" lon="6.08708">
        <ele>2073.2</ele>
        <time>2024-07-08T07:31:38Z</time>
      </trkpt>
      <trkpt lat="45.11685" lon="6.08705">
        <ele>2073.4</ele>
        <time>2024-07-08T07:31:40Z</time>
      </trkpt>
      <trkpt lat="45.11685" lon="6.08704">
        <ele>2073.4</ele>
        <time>2024-07-08T07:31:41Z</time>
      </trkpt>
      <trkpt lat="45.11685" lon="6.08702">
        <ele>2073.5</ele>
        <time>2024-07-08T07:31:42Z</time>
      </trkpt>
      <trkpt lat="45.11686" lon="6.08701">
        <ele>2073.6</ele>
        <time>2024-07-08T07:31:44Z</time>
      </trkpt>
      <trkpt lat="45.11686" lon="6.087">
        <ele>2073.6</ele>
        <time>2024-07-08T07:31:45Z</time>
      </trkpt>
      <trkpt lat="45.11687" lon="6.08699">
        <ele>2073.7</ele>
        <time>2024-07-08T07:31:46Z</time>
      </trkpt>
      <trkpt lat="45.11687" lon="6.08698">
        <ele>2073.7</ele>
        <time>2024-07-08T07:31:47Z</time>
      </trkpt>
      <trkpt lat="45.11687" lon="6.08696">
        <ele>2073.8</ele>
        <time>2024-07-08T07:31:48Z</time>
      </trkpt>
      <trkpt lat="45.11687" lon="6.08696">
        <ele>2073.9</ele>
        <time>2024-07-08T07:31:49Z</time>
      </trkpt>
      <trkpt lat="45.11688" lon="6.08694">
        <ele>2073.9</ele>
        <time>2024-07-08T07:31:51Z</time>
      </trkpt>
      <trkpt lat="45.11688" lon="6.08693">
        <ele>2074</ele>
        <time>2024-07-08T07:31:52Z</time>
      </trkpt>
      <trkpt lat="45.11689" lon="6.08692">
        <ele>2074.1</ele>
        <time>2024-07-08T07:31:53Z</time>
      </trkpt>
      <trkpt lat="45.1169" lon="6.08691">
        <ele>2074.1</ele>
        <time>2024-07-08T07:31:54Z</time>
      </trkpt>
      <trkpt lat="45.11691" lon="6.08691">
        <ele>2074.2</ele>
        <time>2024-07-08T07:31:55Z</time>
      </trkpt>
      <trkpt lat="45.11692" lon="6.0869">
        <ele>2074.2</ele>
        <time>2024-07-08T07:31:56Z</time>
      </trkpt>
      <trkpt lat="45.11693" lon="6.08689">
        <ele>2074.3</ele>
        <time>2024-07-08T07:31:57Z</time>
      </trkpt>
      <trkpt lat="45.11694" lon="6.08689">
        <ele>2074.4</ele>
        <time>2024-07-08T07:31:58Z</time>
      </trkpt>
      <trkpt lat="45.11695" lon="6.0869">
        <ele>2074.4</ele>
        <time>2024-07-08T07:31:59Z</time>
      </trkpt>
      <trkpt lat="45.11695" lon="6.08692">
        <ele>2074.4</ele>
        <time>2024-07-08T07:32:00Z</time>
      </trkpt>
      <trkpt lat="45.11695" lon="6.08693">
        <ele>2074.5</ele>
        <time>2024-07-08T07:32:01Z</time>
      </trkpt>
      <trkpt lat="45.11696" lon="6.08694">
        <ele>2074.5</ele>
        <time>2024-07-08T07:32:02Z</time>
      </trkpt>
      <trkpt lat="45.11697" lon="6.08695">
        <ele>2074.5</ele>
        <time>2024-07-08T07:32:03Z</time>
      </trkpt>
      <trkpt lat="45.11698" lon="6.08694">
        <ele>2074.5</ele>
        <time>2024-07-08T07:32:04Z</time>
      </trkpt>
      <trkpt lat="45.117" lon="6.08691">
        <ele>2074.5</ele>
        <time>2024-07-08T07:32:06Z</time>
      </trkpt>
      <trkpt lat="45.117" lon="6.08689">
        <ele>2074.5</ele>
        <time>2024-07-08T07:32:07Z</time>
      </trkpt>
      <trkpt lat="45.117" lon="6.08688">
        <ele>2074.4</ele>
        <time>2024-07-08T07:32:09Z</time>
      </trkpt>
      <trkpt lat="45.117" lon="6.08687">
        <ele>2074.4</ele>
        <time>2024-07-08T07:32:10Z</time>
      </trkpt>
      <trkpt lat="45.117" lon="6.08687">
        <ele>2074.4</ele>
        <time>2024-07-08T07:32:11Z</time>
      </trkpt>
      <trkpt lat="45.11699" lon="6.08687">
        <ele>2074.4</ele>
        <time>2024-07-08T07:32:13Z</time>
      </trkpt>
      <trkpt lat="45.11699" lon="6.08686">
        <ele>2074.4</ele>
        <time>2024-07-08T07:32:14Z</time>
      </trkpt>
      <trkpt lat="45.11699" lon="6.08686">
        <ele>2074.4</ele>
        <time>2024-07-08T07:32:15Z</time>
      </trkpt>
      <trkpt lat="45.11699" lon="6.08686">
        <ele>2074.3</ele>
        <time>2024-07-08T07:32:16Z</time>
      </trkpt>
      <trkpt lat="45.11699" lon="6.08686">
        <ele>2074.3</ele>
        <time>2024-07-08T07:32:17Z</time>
      </trkpt>
      <trkpt lat="45.11699" lon="6.08686">
        <ele>2074.3</ele>
        <time>2024-07-08T07:32:19Z</time>
      </trkpt>
      <trkpt lat="45.11699" lon="6.08686">
        <ele>2074.3</ele>
        <time>2024-07-08T07:32:20Z</time>
      </trkpt>
      <trkpt lat="45.11699" lon="6.08686">
        <ele>2074.3</ele>
        <time>2024-07-08T07:32:21Z</time>
      </trkpt>
      <trkpt lat="45.11699" lon="6.08686">
        <ele>2074.3</ele>
        <time>2024-07-08T07:32:22Z</time>
      </trkpt>
      <trkpt lat="45.11698" lon="6.08686">
        <ele>2074.3</ele>
        <time>2024-07-08T07:32:23Z</time>
      </trkpt>
      <trkpt lat="45.11698" lon="6.08686">
        <ele>2074.3</ele>
        <time>2024-07-08T07:32:24Z</time>
      </trkpt>
      <trkpt lat="45.11698" lon="6.08686">
        <ele>2074.3</ele>
        <time>2024-07-08T07:32:25Z</time>
      </trkpt>
      <trkpt lat="45.11699" lon="6.08686">
        <ele>2074.3</ele>
        <time>2024-07-08T07:32:26Z</time>
      </trkpt>
      <trkpt lat="45.11699" lon="6.08686">
        <ele>2074.3</ele>
        <time>2024-07-08T07:32:27Z</time>
      </trkpt>
      <trkpt lat="45.11699" lon="6.08686">
        <ele>2074.2</ele>
        <time>2024-07-08T07:32:28Z</time>
      </trkpt>
      <trkpt lat="45.117" lon="6.08686">
        <ele>2074.2</ele>
        <time>2024-07-08T07:32:29Z</time>
      </trkpt>
      <trkpt lat="45.11702" lon="6.08684">
        <ele>2073.9</ele>
        <time>2024-07-08T07:32:31Z</time>
      </trkpt>
      <trkpt lat="45.11703" lon="6.08684">
        <ele>2073.8</ele>
        <time>2024-07-08T07:32:32Z</time>
      </trkpt>
      <trkpt lat="45.11704" lon="6.08683">
        <ele>2073.7</ele>
        <time>2024-07-08T07:32:33Z</time>
      </trkpt>
      <trkpt lat="45.11705" lon="6.08683">
        <ele>2073.5</ele>
        <time>2024-07-08T07:32:34Z</time>
      </trkpt>
      <trkpt lat="45.11706" lon="6.08683">
        <ele>2073.4</ele>
        <time>2024-07-08T07:32:35Z</time>
      </trkpt>
      <trkpt lat="45.11707" lon="6.08682">
        <ele>2073.2</ele>
        <time>2024-07-08T07:32:37Z</time>
      </trkpt>
      <trkpt lat="45.11709" lon="6.08681">
        <ele>2072.9</ele>
        <time>2024-07-08T07:32:39Z</time>
      </trkpt>
      <trkpt lat="45.1171" lon="6.0868">
        <ele>2072.9</ele>
        <time>2024-07-08T07:32:40Z</time>
      </trkpt>
      <trkpt lat="45.1171" lon="6.08681">
        <ele>2072.8</ele>
        <time>2024-07-08T07:32:41Z</time>
      </trkpt>
      <trkpt lat="45.11711" lon="6.08681">
        <ele>2072.7</ele>
        <time>2024-07-08T07:32:42Z</time>
      </trkpt>
      <trkpt lat="45.11712" lon="6.08681">
        <ele>2072.4</ele>
        <time>2024-07-08T07:32:43Z</time>
      </trkpt>
      <trkpt lat="45.11712" lon="6.08681">
        <ele>2072.4</ele>
        <time>2024-07-08T07:32:44Z</time>
      </trkpt>
      <trkpt lat="45.11713" lon="6.08682">
        <ele>2072.2</ele>
        <time>2024-07-08T07:32:45Z</time>
      </trkpt>
      <trkpt lat="45.11714" lon="6.08683">
        <ele>2072.1</ele>
        <time>2024-07-08T07:32:46Z</time>
      </trkpt>
      <trkpt lat="45.11714" lon="6.08684">
        <ele>2072</ele>
        <time>2024-07-08T07:32:47Z</time>
      </trkpt>
      <trkpt lat="45.11715" lon="6.08684">
        <ele>2071.9</ele>
        <time>2024-07-08T07:32:48Z</time>
      </trkpt>
      <trkpt lat="45.11715" lon="6.08684">
        <ele>2071.8</ele>
        <time>2024-07-08T07:32:50Z</time>
      </trkpt>
      <trkpt lat="45.11716" lon="6.08685">
        <ele>2071.7</ele>
        <time>2024-07-08T07:32:51Z</time>
      </trkpt>
      <trkpt lat="45.11716" lon="6.08685">
        <ele>2071.6</ele>
        <time>2024-07-08T07:32:52Z</time>
      </trkpt>
      <trkpt lat="45.11718" lon="6.08685">
        <ele>2071.5</ele>
        <time>2024-07-08T07:32:53Z</time>
      </trkpt>
      <trkpt lat="45.11718" lon="6.08685">
        <ele>2071.4</ele>
        <time>2024-07-08T07:32:54Z</time>
      </trkpt>
      <trkpt lat="45.1172" lon="6.08685">
        <ele>2071.2</ele>
        <time>2024-07-08T07:32:55Z</time>
      </trkpt>
      <trkpt lat="45.1172" lon="6.08684">
        <ele>2071.1</ele>
        <time>2024-07-08T07:32:56Z</time>
      </trkpt>
      <trkpt lat="45.11721" lon="6.08684">
        <ele>2071</ele>
        <time>2024-07-08T07:32:57Z</time>
      </trkpt>
      <trkpt lat="45.11722" lon="6.08683">
        <ele>2070.9</ele>
        <time>2024-07-08T07:32:58Z</time>
      </trkpt>
      <trkpt lat="45.11723" lon="6.08683">
        <ele>2070.8</ele>
        <time>2024-07-08T07:32:59Z</time>
      </trkpt>
      <trkpt lat="45.11724" lon="6.08682">
        <ele>2070.7</ele>
        <time>2024-07-08T07:33:00Z</time>
      </trkpt>
      <trkpt lat="45.11724" lon="6.08682">
        <ele>2070.7</ele>
        <time>2024-07-08T07:33:01Z</time>
      </trkpt>
      <trkpt lat="45.11725" lon="6.08681">
        <ele>2070.6</ele>
        <time>2024-07-08T07:33:02Z</time>
      </trkpt>
      <trkpt lat="45.11727" lon="6.08679">
        <ele>2070.4</ele>
        <time>2024-07-08T07:33:04Z</time>
      </trkpt>
      <trkpt lat="45.11728" lon="6.08679">
        <ele>2070.4</ele>
        <time>2024-07-08T07:33:05Z</time>
      </trkpt>
      <trkpt lat="45.11728" lon="6.08678">
        <ele>2070.3</ele>
        <time>2024-07-08T07:33:06Z</time>
      </trkpt>
      <trkpt lat="45.11729" lon="6.08677">
        <ele>2070.3</ele>
        <time>2024-07-08T07:33:07Z</time>
      </trkpt>
      <trkpt lat="45.11731" lon="6.08676">
        <ele>2070.2</ele>
        <time>2024-07-08T07:33:08Z</time>
      </trkpt>
      <trkpt lat="45.11731" lon="6.08676">
        <ele>2070.2</ele>
        <time>2024-07-08T07:33:10Z</time>
      </trkpt>
      <trkpt lat="45.11732" lon="6.08676">
        <ele>2070.2</ele>
        <time>2024-07-08T07:33:11Z</time>
      </trkpt>
      <trkpt lat="45.11733" lon="6.08675">
        <ele>2070.2</ele>
        <time>2024-07-08T07:33:12Z</time>
      </trkpt>
      <trkpt lat="45.11734" lon="6.08675">
        <ele>2070.2</ele>
        <time>2024-07-08T07:33:13Z</time>
      </trkpt>
      <trkpt lat="45.11734" lon="6.08675">
        <ele>2070.2</ele>
        <time>2024-07-08T07:33:14Z</time>
      </trkpt>
      <trkpt lat="45.11735" lon="6.08675">
        <ele>2070.2</ele>
        <time>2024-07-08T07:33:15Z</time>
      </trkpt>
      <trkpt lat="45.11736" lon="6.08675">
        <ele>2070.2</ele>
        <time>2024-07-08T07:33:16Z</time>
      </trkpt>
      <trkpt lat="45.11736" lon="6.08674">
        <ele>2070.2</ele>
        <time>2024-07-08T07:33:17Z</time>
      </trkpt>
      <trkpt lat="45.11737" lon="6.08672">
        <ele>2070.1</ele>
        <time>2024-07-08T07:33:18Z</time>
      </trkpt>
      <trkpt lat="45.11737" lon="6.08671">
        <ele>2070.1</ele>
        <time>2024-07-08T07:33:19Z</time>
      </trkpt>
      <trkpt lat="45.11738" lon="6.0867">
        <ele>2070.1</ele>
        <time>2024-07-08T07:33:20Z</time>
      </trkpt>
      <trkpt lat="45.11739" lon="6.0867">
        <ele>2070.1</ele>
        <time>2024-07-08T07:33:21Z</time>
      </trkpt>
      <trkpt lat="45.1174" lon="6.0867">
        <ele>2070.1</ele>
        <time>2024-07-08T07:33:22Z</time>
      </trkpt>
      <trkpt lat="45.11741" lon="6.08669">
        <ele>2070.1</ele>
        <time>2024-07-08T07:33:23Z</time>
      </trkpt>
      <trkpt lat="45.11742" lon="6.08669">
        <ele>2070.1</ele>
        <time>2024-07-08T07:33:24Z</time>
      </trkpt>
      <trkpt lat="45.11743" lon="6.08668">
        <ele>2070</ele>
        <time>2024-07-08T07:33:25Z</time>
      </trkpt>
      <trkpt lat="45.11744" lon="6.08667">
        <ele>2070</ele>
        <time>2024-07-08T07:33:26Z</time>
      </trkpt>
      <trkpt lat="45.11745" lon="6.08667">
        <ele>2070.1</ele>
        <time>2024-07-08T07:33:27Z</time>
      </trkpt>
      <trkpt lat="45.11747" lon="6.08665">
        <ele>2070.1</ele>
        <time>2024-07-08T07:33:28Z</time>
      </trkpt>
      <trkpt lat="45.11747" lon="6.08663">
        <ele>2070.1</ele>
        <time>2024-07-08T07:33:30Z</time>
      </trkpt>
      <trkpt lat="45.11748" lon="6.08662">
        <ele>2070.2</ele>
        <time>2024-07-08T07:33:31Z</time>
      </trkpt>
      <trkpt lat="45.11748" lon="6.0866">
        <ele>2070.2</ele>
        <time>2024-07-08T07:33:32Z</time>
      </trkpt>
      <trkpt lat="45.11749" lon="6.08659">
        <ele>2070.2</ele>
        <time>2024-07-08T07:33:33Z</time>
      </trkpt>
      <trkpt lat="45.11751" lon="6.08657">
        <ele>2070.2</ele>
        <time>2024-07-08T07:33:34Z</time>
      </trkpt>
      <trkpt lat="45.11751" lon="6.08656">
        <ele>2070.2</ele>
        <time>2024-07-08T07:33:35Z</time>
      </trkpt>
      <trkpt lat="45.11752" lon="6.08656">
        <ele>2070.3</ele>
        <time>2024-07-08T07:33:36Z</time>
      </trkpt>
      <trkpt lat="45.11754" lon="6.08657">
        <ele>2070.3</ele>
        <time>2024-07-08T07:33:37Z</time>
      </trkpt>
      <trkpt lat="45.11755" lon="6.08657">
        <ele>2070.2</ele>
        <time>2024-07-08T07:33:38Z</time>
      </trkpt>
      <trkpt lat="45.11755" lon="6.08658">
        <ele>2070.2</ele>
        <time>2024-07-08T07:33:39Z</time>
      </trkpt>
      <trkpt lat="45.11756" lon="6.08658">
        <ele>2070.2</ele>
        <time>2024-07-08T07:33:40Z</time>
      </trkpt>
      <trkpt lat="45.11757" lon="6.08658">
        <ele>2070.2</ele>
        <time>2024-07-08T07:33:41Z</time>
      </trkpt>
      <trkpt lat="45.11758" lon="6.08657">
        <ele>2070.2</ele>
        <time>2024-07-08T07:33:42Z</time>
      </trkpt>
      <trkpt lat="45.11758" lon="6.08656">
        <ele>2070.1</ele>
        <time>2024-07-08T07:33:43Z</time>
      </trkpt>
      <trkpt lat="45.11759" lon="6.08654">
        <ele>2070.1</ele>
        <time>2024-07-08T07:33:44Z</time>
      </trkpt>
      <trkpt lat="45.11761" lon="6.08653">
        <ele>2070</ele>
        <time>2024-07-08T07:33:46Z</time>
      </trkpt>
      <trkpt lat="45.11761" lon="6.08652">
        <ele>2069.9</ele>
        <time>2024-07-08T07:33:47Z</time>
      </trkpt>
      <trkpt lat="45.11761" lon="6.08651">
        <ele>2069.8</ele>
        <time>2024-07-08T07:33:48Z</time>
      </trkpt>
      <trkpt lat="45.11762" lon="6.0865">
        <ele>2069.7</ele>
        <time>2024-07-08T07:33:49Z</time>
      </trkpt>
      <trkpt lat="45.11762" lon="6.08649">
        <ele>2069.6</ele>
        <time>2024-07-08T07:33:50Z</time>
      </trkpt>
      <trkpt lat="45.11763" lon="6.08647">
        <ele>2069.5</ele>
        <time>2024-07-08T07:33:51Z</time>
      </trkpt>
      <trkpt lat="45.11763" lon="6.08647">
        <ele>2069.5</ele>
        <time>2024-07-08T07:33:52Z</time>
      </trkpt>
      <trkpt lat="45.11764" lon="6.08646">
        <ele>2069.4</ele>
        <time>2024-07-08T07:33:53Z</time>
      </trkpt>
      <trkpt lat="45.11765" lon="6.08644">
        <ele>2069.2</ele>
        <time>2024-07-08T07:33:54Z</time>
      </trkpt>
      <trkpt lat="45.11766" lon="6.08643">
        <ele>2069.2</ele>
        <time>2024-07-08T07:33:55Z</time>
      </trkpt>
      <trkpt lat="45.11766" lon="6.08642">
        <ele>2069</ele>
        <time>2024-07-08T07:33:56Z</time>
      </trkpt>
      <trkpt lat="45.11767" lon="6.08642">
        <ele>2069</ele>
        <time>2024-07-08T07:33:57Z</time>
      </trkpt>
      <trkpt lat="45.11768" lon="6.08642">
        <ele>2068.8</ele>
        <time>2024-07-08T07:33:58Z</time>
      </trkpt>
      <trkpt lat="45.1177" lon="6.08644">
        <ele>2068.6</ele>
        <time>2024-07-08T07:33:59Z</time>
      </trkpt>
      <trkpt lat="45.11771" lon="6.08644">
        <ele>2068.5</ele>
        <time>2024-07-08T07:34:00Z</time>
      </trkpt>
      <trkpt lat="45.11771" lon="6.08645">
        <ele>2068.5</ele>
        <time>2024-07-08T07:34:01Z</time>
      </trkpt>
      <trkpt lat="45.11772" lon="6.08646">
        <ele>2068.4</ele>
        <time>2024-07-08T07:34:02Z</time>
      </trkpt>
      <trkpt lat="45.11773" lon="6.08646">
        <ele>2068.3</ele>
        <time>2024-07-08T07:34:03Z</time>
      </trkpt>
      <trkpt lat="45.11774" lon="6.08646">
        <ele>2068.2</ele>
        <time>2024-07-08T07:34:04Z</time>
      </trkpt>
      <trkpt lat="45.11775" lon="6.08646">
        <ele>2068.2</ele>
        <time>2024-07-08T07:34:05Z</time>
      </trkpt>
      <trkpt lat="45.11775" lon="6.08646">
        <ele>2068.1</ele>
        <time>2024-07-08T07:34:06Z</time>
      </trkpt>
      <trkpt lat="45.11777" lon="6.08646">
        <ele>2068.1</ele>
        <time>2024-07-08T07:34:07Z</time>
      </trkpt>
      <trkpt lat="45.11778" lon="6.08646">
        <ele>2068</ele>
        <time>2024-07-08T07:34:08Z</time>
      </trkpt>
      <trkpt lat="45.11779" lon="6.08646">
        <ele>2067.9</ele>
        <time>2024-07-08T07:34:09Z</time>
      </trkpt>
      <trkpt lat="45.1178" lon="6.08646">
        <ele>2067.9</ele>
        <time>2024-07-08T07:34:10Z</time>
      </trkpt>
      <trkpt lat="45.11781" lon="6.08646">
        <ele>2067.8</ele>
        <time>2024-07-08T07:34:11Z</time>
      </trkpt>
      <trkpt lat="45.11782" lon="6.08647">
        <ele>2067.8</ele>
        <time>2024-07-08T07:34:12Z</time>
      </trkpt>
      <trkpt lat="45.11783" lon="6.08648">
        <ele>2067.8</ele>
        <time>2024-07-08T07:34:13Z</time>
      </trkpt>
      <trkpt lat="45.11784" lon="6.08651">
        <ele>2067.7</ele>
        <time>2024-07-08T07:34:14Z</time>
      </trkpt>
      <trkpt lat="45.11785" lon="6.08651">
        <ele>2067.7</ele>
        <time>2024-07-08T07:34:15Z</time>
      </trkpt>
      <trkpt lat="45.11785" lon="6.08652">
        <ele>2067.6</ele>
        <time>2024-07-08T07:34:16Z</time>
      </trkpt>
      <trkpt lat="45.11786" lon="6.08653">
        <ele>2067.6</ele>
        <time>2024-07-08T07:34:17Z</time>
      </trkpt>
      <trkpt lat="45.11786" lon="6.08654">
        <ele>2067.6</ele>
        <time>2024-07-08T07:34:18Z</time>
      </trkpt>
      <trkpt lat="45.11787" lon="6.08655">
        <ele>2067.5</ele>
        <time>2024-07-08T07:34:19Z</time>
      </trkpt>
      <trkpt lat="45.11787" lon="6.08654">
        <ele>2067.5</ele>
        <time>2024-07-08T07:34:20Z</time>
      </trkpt>
      <trkpt lat="45.11787" lon="6.08654">
        <ele>2067.5</ele>
        <time>2024-07-08T07:34:21Z</time>
      </trkpt>
      <trkpt lat="45.11787" lon="6.08654">
        <ele>2067.5</ele>
        <time>2024-07-08T07:34:22Z</time>
      </trkpt>
      <trkpt lat="45.11787" lon="6.08653">
        <ele>2067.5</ele>
        <time>2024-07-08T07:34:23Z</time>
      </trkpt>
      <trkpt lat="45.11787" lon="6.08653">
        <ele>2067.5</ele>
        <time>2024-07-08T07:34:24Z</time>
      </trkpt>
      <trkpt lat="45.1179" lon="6.08652">
        <ele>2067.4</ele>
        <time>2024-07-08T07:34:26Z</time>
      </trkpt>
      <trkpt lat="45.11791" lon="6.08652">
        <ele>2067.4</ele>
        <time>2024-07-08T07:34:27Z</time>
      </trkpt>
      <trkpt lat="45.11793" lon="6.08652">
        <ele>2067.3</ele>
        <time>2024-07-08T07:34:28Z</time>
      </trkpt>
      <trkpt lat="45.11794" lon="6.08654">
        <ele>2067.2</ele>
        <time>2024-07-08T07:34:29Z</time>
      </trkpt>
      <trkpt lat="45.11795" lon="6.08655">
        <ele>2067.2</ele>
        <time>2024-07-08T07:34:30Z</time>
      </trkpt>
      <trkpt lat="45.11795" lon="6.08656">
        <ele>2067.2</ele>
        <time>2024-07-08T07:34:31Z</time>
      </trkpt>
      <trkpt lat="45.11796" lon="6.08657">
        <ele>2067.2</ele>
        <time>2024-07-08T07:34:32Z</time>
      </trkpt>
      <trkpt lat="45.11796" lon="6.08659">
        <ele>2067.2</ele>
        <time>2024-07-08T07:34:33Z</time>
      </trkpt>
      <trkpt lat="45.11797" lon="6.0866">
        <ele>2067.1</ele>
        <time>2024-07-08T07:34:34Z</time>
      </trkpt>
      <trkpt lat="45.11798" lon="6.08661">
        <ele>2067.1</ele>
        <time>2024-07-08T07:34:35Z</time>
      </trkpt>
      <trkpt lat="45.11799" lon="6.08661">
        <ele>2067.1</ele>
        <time>2024-07-08T07:34:36Z</time>
      </trkpt>
      <trkpt lat="45.118" lon="6.08662">
        <ele>2067.1</ele>
        <time>2024-07-08T07:34:37Z</time>
      </trkpt>
      <trkpt lat="45.11801" lon="6.08662">
        <ele>2067.2</ele>
        <time>2024-07-08T07:34:38Z</time>
      </trkpt>
      <trkpt lat="45.11802" lon="6.08663">
        <ele>2067.2</ele>
        <time>2024-07-08T07:34:39Z</time>
      </trkpt>
      <trkpt lat="45.11804" lon="6.08665">
        <ele>2067.2</ele>
        <time>2024-07-08T07:34:41Z</time>
      </trkpt>
      <trkpt lat="45.11805" lon="6.08667">
        <ele>2067.3</ele>
        <time>2024-07-08T07:34:42Z</time>
      </trkpt>
      <trkpt lat="45.11806" lon="6.08668">
        <ele>2067.3</ele>
        <time>2024-07-08T07:34:43Z</time>
      </trkpt>
      <trkpt lat="45.11806" lon="6.08669">
        <ele>2067.3</ele>
        <time>2024-07-08T07:34:44Z</time>
      </trkpt>
      <trkpt lat="45.11807" lon="6.08671">
        <ele>2067.4</ele>
        <time>2024-07-08T07:34:45Z</time>
      </trkpt>
      <trkpt lat="45.11807" lon="6.08672">
        <ele>2067.4</ele>
        <time>2024-07-08T07:34:46Z</time>
      </trkpt>
      <trkpt lat="45.11808" lon="6.08673">
        <ele>2067.4</ele>
        <time>2024-07-08T07:34:47Z</time>
      </trkpt>
      <trkpt lat="45.11809" lon="6.08674">
        <ele>2067.4</ele>
        <time>2024-07-08T07:34:48Z</time>
      </trkpt>
      <trkpt lat="45.1181" lon="6.08674">
        <ele>2067.5</ele>
        <time>2024-07-08T07:34:49Z</time>
      </trkpt>
      <trkpt lat="45.11811" lon="6.08673">
        <ele>2067.5</ele>
        <time>2024-07-08T07:34:50Z</time>
      </trkpt>
      <trkpt lat="45.11812" lon="6.08673">
        <ele>2067.5</ele>
        <time>2024-07-08T07:34:51Z</time>
      </trkpt>
      <trkpt lat="45.11813" lon="6.08672">
        <ele>2067.5</ele>
        <time>2024-07-08T07:34:52Z</time>
      </trkpt>
      <trkpt lat="45.11814" lon="6.08671">
        <ele>2067.5</ele>
        <time>2024-07-08T07:34:53Z</time>
      </trkpt>
      <trkpt lat="45.11815" lon="6.08671">
        <ele>2067.6</ele>
        <time>2024-07-08T07:34:54Z</time>
      </trkpt>
      <trkpt lat="45.11816" lon="6.08671">
        <ele>2067.6</ele>
        <time>2024-07-08T07:34:55Z</time>
      </trkpt>
      <trkpt lat="45.11816" lon="6.08671">
        <ele>2067.6</ele>
        <time>2024-07-08T07:34:56Z</time>
      </trkpt>
      <trkpt lat="45.11817" lon="6.08671">
        <ele>2067.6</ele>
        <time>2024-07-08T07:34:57Z</time>
      </trkpt>
      <trkpt lat="45.11818" lon="6.08671">
        <ele>2067.6</ele>
        <time>2024-07-08T07:34:58Z</time>
      </trkpt>
      <trkpt lat="45.11818" lon="6.08672">
        <ele>2067.6</ele>
        <time>2024-07-08T07:34:59Z</time>
      </trkpt>
      <trkpt lat="45.1182" lon="6.08672">
        <ele>2067.6</ele>
        <time>2024-07-08T07:35:01Z</time>
      </trkpt>
      <trkpt lat="45.11821" lon="6.08672">
        <ele>2067.6</ele>
        <time>2024-07-08T07:35:02Z</time>
      </trkpt>
      <trkpt lat="45.11822" lon="6.08673">
        <ele>2067.7</ele>
        <time>2024-07-08T07:35:03Z</time>
      </trkpt>
      <trkpt lat="45.11823" lon="6.08673">
        <ele>2067.7</ele>
        <time>2024-07-08T07:35:04Z</time>
      </trkpt>
      <trkpt lat="45.11824" lon="6.08672">
        <ele>2067.7</ele>
        <time>2024-07-08T07:35:05Z</time>
      </trkpt>
      <trkpt lat="45.11825" lon="6.08672">
        <ele>2067.7</ele>
        <time>2024-07-08T07:35:06Z</time>
      </trkpt>
      <trkpt lat="45.11825" lon="6.08671">
        <ele>2067.7</ele>
        <time>2024-07-08T07:35:07Z</time>
      </trkpt>
      <trkpt lat="45.11826" lon="6.0867">
        <ele>2067.7</ele>
        <time>2024-07-08T07:35:08Z</time>
      </trkpt>
      <trkpt lat="45.11827" lon="6.0867">
        <ele>2067.8</ele>
        <time>2024-07-08T07:35:09Z</time>
      </trkpt>
      <trkpt lat="45.11828" lon="6.08669">
        <ele>2067.8</ele>
        <time>2024-07-08T07:35:10Z</time>
      </trkpt>
      <trkpt lat="45.11829" lon="6.08668">
        <ele>2067.8</ele>
        <time>2024-07-08T07:35:11Z</time>
      </trkpt>
      <trkpt lat="45.1183" lon="6.08668">
        <ele>2067.8</ele>
        <time>2024-07-08T07:35:12Z</time>
      </trkpt>
      <trkpt lat="45.11831" lon="6.08668">
        <ele>2067.9</ele>
        <time>2024-07-08T07:35:13Z</time>
      </trkpt>
      <trkpt lat="45.11832" lon="6.08669">
        <ele>2067.9</ele>
        <time>2024-07-08T07:35:14Z</time>
      </trkpt>
      <trkpt lat="45.11833" lon="6.08669">
        <ele>2067.9</ele>
        <time>2024-07-08T07:35:15Z</time>
      </trkpt>
      <trkpt lat="45.11834" lon="6.0867">
        <ele>2068</ele>
        <time>2024-07-08T07:35:16Z</time>
      </trkpt>
      <trkpt lat="45.11835" lon="6.08671">
        <ele>2068</ele>
        <time>2024-07-08T07:35:17Z</time>
      </trkpt>
      <trkpt lat="45.11836" lon="6.08671">
        <ele>2068</ele>
        <time>2024-07-08T07:35:18Z</time>
      </trkpt>
      <trkpt lat="45.11837" lon="6.08672">
        <ele>2068.1</ele>
        <time>2024-07-08T07:35:19Z</time>
      </trkpt>
      <trkpt lat="45.11839" lon="6.08672">
        <ele>2068.1</ele>
        <time>2024-07-08T07:35:20Z</time>
      </trkpt>
      <trkpt lat="45.11839" lon="6.08672">
        <ele>2068.2</ele>
        <time>2024-07-08T07:35:21Z</time>
      </trkpt>
      <trkpt lat="45.1184" lon="6.08672">
        <ele>2068.2</ele>
        <time>2024-07-08T07:35:22Z</time>
      </trkpt>
      <trkpt lat="45.11841" lon="6.08673">
        <ele>2068.2</ele>
        <time>2024-07-08T07:35:23Z</time>
      </trkpt>
      <trkpt lat="45.11842" lon="6.08673">
        <ele>2068.3</ele>
        <time>2024-07-08T07:35:24Z</time>
      </trkpt>
      <trkpt lat="45.11844" lon="6.08672">
        <ele>2068.3</ele>
        <time>2024-07-08T07:35:25Z</time>
      </trkpt>
      <trkpt lat="45.11844" lon="6.08672">
        <ele>2068.4</ele>
        <time>2024-07-08T07:35:26Z</time>
      </trkpt>
      <trkpt lat="45.11845" lon="6.08672">
        <ele>2068.4</ele>
        <time>2024-07-08T07:35:27Z</time>
      </trkpt>
      <trkpt lat="45.11846" lon="6.08671">
        <ele>2068.4</ele>
        <time>2024-07-08T07:35:28Z</time>
      </trkpt>
      <trkpt lat="45.11847" lon="6.08671">
        <ele>2068.5</ele>
        <time>2024-07-08T07:35:29Z</time>
      </trkpt>
      <trkpt lat="45.11848" lon="6.08672">
        <ele>2068.5</ele>
        <time>2024-07-08T07:35:30Z</time>
      </trkpt>
      <trkpt lat="45.1185" lon="6.08674">
        <ele>2068.6</ele>
        <time>2024-07-08T07:35:32Z</time>
      </trkpt>
      <trkpt lat="45.11852" lon="6.08676">
        <ele>2068.7</ele>
        <time>2024-07-08T07:35:33Z</time>
      </trkpt>
      <trkpt lat="45.11853" lon="6.08676">
        <ele>2068.7</ele>
        <time>2024-07-08T07:35:34Z</time>
      </trkpt>
      <trkpt lat="45.11854" lon="6.08676">
        <ele>2068.8</ele>
        <time>2024-07-08T07:35:35Z</time>
      </trkpt>
      <trkpt lat="45.11854" lon="6.08678">
        <ele>2068.8</ele>
        <time>2024-07-08T07:35:36Z</time>
      </trkpt>
      <trkpt lat="45.11855" lon="6.08679">
        <ele>2068.9</ele>
        <time>2024-07-08T07:35:37Z</time>
      </trkpt>
      <trkpt lat="45.11855" lon="6.0868">
        <ele>2068.9</ele>
        <time>2024-07-08T07:35:38Z</time>
      </trkpt>
      <trkpt lat="45.11855" lon="6.08681">
        <ele>2068.9</ele>
        <time>2024-07-08T07:35:39Z</time>
      </trkpt>
      <trkpt lat="45.11856" lon="6.08683">
        <ele>2069</ele>
        <time>2024-07-08T07:35:40Z</time>
      </trkpt>
      <trkpt lat="45.11856" lon="6.08684">
        <ele>2069</ele>
        <time>2024-07-08T07:35:41Z</time>
      </trkpt>
      <trkpt lat="45.11857" lon="6.08684">
        <ele>2069</ele>
        <time>2024-07-08T07:35:42Z</time>
      </trkpt>
      <trkpt lat="45.11858" lon="6.08685">
        <ele>2069.1</ele>
        <time>2024-07-08T07:35:44Z</time>
      </trkpt>
      <trkpt lat="45.11859" lon="6.08687">
        <ele>2069.1</ele>
        <time>2024-07-08T07:35:46Z</time>
      </trkpt>
      <trkpt lat="45.1186" lon="6.08689">
        <ele>2069.1</ele>
        <time>2024-07-08T07:35:48Z</time>
      </trkpt>
      <trkpt lat="45.1186" lon="6.0869">
        <ele>2069.2</ele>
        <time>2024-07-08T07:35:49Z</time>
      </trkpt>
      <trkpt lat="45.11862" lon="6.0869">
        <ele>2069.2</ele>
        <time>2024-07-08T07:35:50Z</time>
      </trkpt>
      <trkpt lat="45.11864" lon="6.08691">
        <ele>2069.2</ele>
        <time>2024-07-08T07:35:52Z</time>
      </trkpt>
      <trkpt lat="45.11865" lon="6.08692">
        <ele>2069.2</ele>
        <time>2024-07-08T07:35:53Z</time>
      </trkpt>
      <trkpt lat="45.11866" lon="6.08692">
        <ele>2069.3</ele>
        <time>2024-07-08T07:35:54Z</time>
      </trkpt>
      <trkpt lat="45.11868" lon="6.08689">
        <ele>2069.3</ele>
        <time>2024-07-08T07:35:55Z</time>
      </trkpt>
      <trkpt lat="45.11868" lon="6.08687">
        <ele>2069.3</ele>
        <time>2024-07-08T07:35:57Z</time>
      </trkpt>
      <trkpt lat="45.11868" lon="6.08685">
        <ele>2069.3</ele>
        <time>2024-07-08T07:35:58Z</time>
      </trkpt>
      <trkpt lat="45.11868" lon="6.08683">
        <ele>2069.4</ele>
        <time>2024-07-08T07:35:59Z</time>
      </trkpt>
      <trkpt lat="45.11869" lon="6.0868">
        <ele>2069.4</ele>
        <time>2024-07-08T07:36:00Z</time>
      </trkpt>
      <trkpt lat="45.1187" lon="6.08679">
        <ele>2069.4</ele>
        <time>2024-07-08T07:36:02Z</time>
      </trkpt>
      <trkpt lat="45.1187" lon="6.08677">
        <ele>2069.4</ele>
        <time>2024-07-08T07:36:03Z</time>
      </trkpt>
      <trkpt lat="45.11871" lon="6.08676">
        <ele>2069.4</ele>
        <time>2024-07-08T07:36:04Z</time>
      </trkpt>
      <trkpt lat="45.11872" lon="6.08674">
        <ele>2069.4</ele>
        <time>2024-07-08T07:36:06Z</time>
      </trkpt>
      <trkpt lat="45.11874" lon="6.08672">
        <ele>2069.5</ele>
        <time>2024-07-08T07:36:07Z</time>
      </trkpt>
      <trkpt lat="45.11875" lon="6.0867">
        <ele>2069.5</ele>
        <time>2024-07-08T07:36:09Z</time>
      </trkpt>
      <trkpt lat="45.11876" lon="6.08669">
        <ele>2069.5</ele>
        <time>2024-07-08T07:36:11Z</time>
      </trkpt>
      <trkpt lat="45.11878" lon="6.08669">
        <ele>2069.5</ele>
        <time>2024-07-08T07:36:12Z</time>
      </trkpt>
      <trkpt lat="45.1188" lon="6.08668">
        <ele>2069.5</ele>
        <time>2024-07-08T07:36:13Z</time>
      </trkpt>
      <trkpt lat="45.11881" lon="6.08668">
        <ele>2069.6</ele>
        <time>2024-07-08T07:36:14Z</time>
      </trkpt>
      <trkpt lat="45.11882" lon="6.08668">
        <ele>2069.6</ele>
        <time>2024-07-08T07:36:16Z</time>
      </trkpt>
      <trkpt lat="45.11883" lon="6.08667">
        <ele>2069.6</ele>
        <time>2024-07-08T07:36:17Z</time>
      </trkpt>
      <trkpt lat="45.11883" lon="6.08666">
        <ele>2069.6</ele>
        <time>2024-07-08T07:36:18Z</time>
      </trkpt>
      <trkpt lat="45.11884" lon="6.08665">
        <ele>2069.6</ele>
        <time>2024-07-08T07:36:19Z</time>
      </trkpt>
      <trkpt lat="45.11884" lon="6.08662">
        <ele>2069.6</ele>
        <time>2024-07-08T07:36:20Z</time>
      </trkpt>
      <trkpt lat="45.11883" lon="6.08659">
        <ele>2069.6</ele>
        <time>2024-07-08T07:36:22Z</time>
      </trkpt>
      <trkpt lat="45.11883" lon="6.08658">
        <ele>2069.6</ele>
        <time>2024-07-08T07:36:24Z</time>
      </trkpt>
      <trkpt lat="45.11883" lon="6.08657">
        <ele>2069.6</ele>
        <time>2024-07-08T07:36:25Z</time>
      </trkpt>
      <trkpt lat="45.11884" lon="6.08656">
        <ele>2069.6</ele>
        <time>2024-07-08T07:36:26Z</time>
      </trkpt>
      <trkpt lat="45.11886" lon="6.08655">
        <ele>2069.6</ele>
        <time>2024-07-08T07:36:27Z</time>
      </trkpt>
      <trkpt lat="45.11887" lon="6.08655">
        <ele>2069.6</ele>
        <time>2024-07-08T07:36:28Z</time>
      </trkpt>
      <trkpt lat="45.11889" lon="6.08655">
        <ele>2069.6</ele>
        <time>2024-07-08T07:36:29Z</time>
      </trkpt>
      <trkpt lat="45.1189" lon="6.08656">
        <ele>2069.6</ele>
        <time>2024-07-08T07:36:31Z</time>
      </trkpt>
      <trkpt lat="45.11891" lon="6.08656">
        <ele>2069.6</ele>
        <time>2024-07-08T07:36:32Z</time>
      </trkpt>
      <trkpt lat="45.11893" lon="6.08659">
        <ele>2069.6</ele>
        <time>2024-07-08T07:36:33Z</time>
      </trkpt>
      <trkpt lat="45.11893" lon="6.0866">
        <ele>2069.6</ele>
        <time>2024-07-08T07:36:35Z</time>
      </trkpt>
      <trkpt lat="45.11893" lon="6.08662">
        <ele>2069.6</ele>
        <time>2024-07-08T07:36:36Z</time>
      </trkpt>
      <trkpt lat="45.11894" lon="6.08664">
        <ele>2069.6</ele>
        <time>2024-07-08T07:36:37Z</time>
      </trkpt>
      <trkpt lat="45.11895" lon="6.08665">
        <ele>2069.6</ele>
        <time>2024-07-08T07:36:38Z</time>
      </trkpt>
      <trkpt lat="45.11896" lon="6.08666">
        <ele>2069.7</ele>
        <time>2024-07-08T07:36:40Z</time>
      </trkpt>
      <trkpt lat="45.11897" lon="6.08669">
        <ele>2069.7</ele>
        <time>2024-07-08T07:36:41Z</time>
      </trkpt>
      <trkpt lat="45.11898" lon="6.0867">
        <ele>2069.7</ele>
        <time>2024-07-08T07:36:42Z</time>
      </trkpt>
      <trkpt lat="45.119" lon="6.08672">
        <ele>2069.7</ele>
        <time>2024-07-08T07:36:43Z</time>
      </trkpt>
      <trkpt lat="45.11901" lon="6.08674">
        <ele>2069.7</ele>
        <time>2024-07-08T07:36:45Z</time>
      </trkpt>
      <trkpt lat="45.11901" lon="6.08675">
        <ele>2069.7</ele>
        <time>2024-07-08T07:36:46Z</time>
      </trkpt>
      <trkpt lat="45.11902" lon="6.08676">
        <ele>2069.7</ele>
        <time>2024-07-08T07:36:47Z</time>
      </trkpt>
      <trkpt lat="45.11903" lon="6.08678">
        <ele>2069.8</ele>
        <time>2024-07-08T07:36:49Z</time>
      </trkpt>
      <trkpt lat="45.11905" lon="6.08679">
        <ele>2069.8</ele>
        <time>2024-07-08T07:36:51Z</time>
      </trkpt>
      <trkpt lat="45.11906" lon="6.08679">
        <ele>2069.8</ele>
        <time>2024-07-08T07:36:52Z</time>
      </trkpt>
      <trkpt lat="45.11907" lon="6.0868">
        <ele>2069.8</ele>
        <time>2024-07-08T07:36:53Z</time>
      </trkpt>
      <trkpt lat="45.11908" lon="6.0868">
        <ele>2069.8</ele>
        <time>2024-07-08T07:36:54Z</time>
      </trkpt>
      <trkpt lat="45.11909" lon="6.08681">
        <ele>2069.8</ele>
        <time>2024-07-08T07:36:55Z</time>
      </trkpt>
      <trkpt lat="45.1191" lon="6.0868">
        <ele>2069.8</ele>
        <time>2024-07-08T07:36:56Z</time>
      </trkpt>
      <trkpt lat="45.11911" lon="6.0868">
        <ele>2069.8</ele>
        <time>2024-07-08T07:36:57Z</time>
      </trkpt>
      <trkpt lat="45.11912" lon="6.0868">
        <ele>2069.8</ele>
        <time>2024-07-08T07:36:58Z</time>
      </trkpt>
      <trkpt lat="45.11913" lon="6.08679">
        <ele>2069.9</ele>
        <time>2024-07-08T07:37:00Z</time>
      </trkpt>
      <trkpt lat="45.11915" lon="6.08679">
        <ele>2069.9</ele>
        <time>2024-07-08T07:37:01Z</time>
      </trkpt>
      <trkpt lat="45.11916" lon="6.08679">
        <ele>2069.9</ele>
        <time>2024-07-08T07:37:02Z</time>
      </trkpt>
      <trkpt lat="45.11917" lon="6.0868">
        <ele>2069.9</ele>
        <time>2024-07-08T07:37:03Z</time>
      </trkpt>
      <trkpt lat="45.11918" lon="6.0868">
        <ele>2069.9</ele>
        <time>2024-07-08T07:37:05Z</time>
      </trkpt>
      <trkpt lat="45.11919" lon="6.08681">
        <ele>2069.9</ele>
        <time>2024-07-08T07:37:06Z</time>
      </trkpt>
      <trkpt lat="45.11919" lon="6.08682">
        <ele>2069.9</ele>
        <time>2024-07-08T07:37:07Z</time>
      </trkpt>
      <trkpt lat="45.11919" lon="6.08682">
        <ele>2069.9</ele>
        <time>2024-07-08T07:37:08Z</time>
      </trkpt>
      <trkpt lat="45.1192" lon="6.08683">
        <ele>2069.9</ele>
        <time>2024-07-08T07:37:10Z</time>
      </trkpt>
      <trkpt lat="45.11921" lon="6.08683">
        <ele>2069.9</ele>
        <time>2024-07-08T07:37:11Z</time>
      </trkpt>
      <trkpt lat="45.11922" lon="6.08682">
        <ele>2069.9</ele>
        <time>2024-07-08T07:37:12Z</time>
      </trkpt>
      <trkpt lat="45.11923" lon="6.08682">
        <ele>2070</ele>
        <time>2024-07-08T07:37:13Z</time>
      </trkpt>
      <trkpt lat="45.11925" lon="6.08681">
        <ele>2070</ele>
        <time>2024-07-08T07:37:15Z</time>
      </trkpt>
      <trkpt lat="45.11926" lon="6.08679">
        <ele>2070</ele>
        <time>2024-07-08T07:37:16Z</time>
      </trkpt>
      <trkpt lat="45.11926" lon="6.08678">
        <ele>2070</ele>
        <time>2024-07-08T07:37:17Z</time>
      </trkpt>
      <trkpt lat="45.11927" lon="6.08678">
        <ele>2070</ele>
        <time>2024-07-08T07:37:18Z</time>
      </trkpt>
      <trkpt lat="45.11928" lon="6.08678">
        <ele>2070</ele>
        <time>2024-07-08T07:37:20Z</time>
      </trkpt>
      <trkpt lat="45.1193" lon="6.08678">
        <ele>2070</ele>
        <time>2024-07-08T07:37:21Z</time>
      </trkpt>
      <trkpt lat="45.11931" lon="6.08678">
        <ele>2070</ele>
        <time>2024-07-08T07:37:22Z</time>
      </trkpt>
      <trkpt lat="45.11932" lon="6.08679">
        <ele>2070</ele>
        <time>2024-07-08T07:37:23Z</time>
      </trkpt>
      <trkpt lat="45.11933" lon="6.0868">
        <ele>2070.1</ele>
        <time>2024-07-08T07:37:24Z</time>
      </trkpt>
      <trkpt lat="45.11934" lon="6.08681">
        <ele>2070.1</ele>
        <time>2024-07-08T07:37:26Z</time>
      </trkpt>
      <trkpt lat="45.11934" lon="6.08682">
        <ele>2070.1</ele>
        <time>2024-07-08T07:37:27Z</time>
      </trkpt>
      <trkpt lat="45.11934" lon="6.08683">
        <ele>2070.1</ele>
        <time>2024-07-08T07:37:29Z</time>
      </trkpt>
      <trkpt lat="45.11933" lon="6.08685">
        <ele>2070.1</ele>
        <time>2024-07-08T07:37:30Z</time>
      </trkpt>
      <trkpt lat="45.11933" lon="6.08685">
        <ele>2070.1</ele>
        <time>2024-07-08T07:37:31Z</time>
      </trkpt>
      <trkpt lat="45.11933" lon="6.08685">
        <ele>2070.1</ele>
        <time>2024-07-08T07:37:32Z</time>
      </trkpt>
      <trkpt lat="45.11933" lon="6.08685">
        <ele>2070.1</ele>
        <time>2024-07-08T07:37:33Z</time>
      </trkpt>
      <trkpt lat="45.11933" lon="6.08685">
        <ele>2070.1</ele>
        <time>2024-07-08T07:37:35Z</time>
      </trkpt>
      <trkpt lat="45.11933" lon="6.08685">
        <ele>2070.1</ele>
        <time>2024-07-08T07:37:36Z</time>
      </trkpt>
      <trkpt lat="45.11933" lon="6.08685">
        <ele>2070.1</ele>
        <time>2024-07-08T07:37:37Z</time>
      </trkpt>
      <trkpt lat="45.11933" lon="6.08685">
        <ele>2070.1</ele>
        <time>2024-07-08T07:37:38Z</time>
      </trkpt>
      <trkpt lat="45.11933" lon="6.08685">
        <ele>2070.1</ele>
        <time>2024-07-08T07:37:39Z</time>
      </trkpt>
      <trkpt lat="45.11932" lon="6.08685">
        <ele>2070.1</ele>
        <time>2024-07-08T07:37:41Z</time>
      </trkpt>
      <trkpt lat="45.11932" lon="6.08685">
        <ele>2070.1</ele>
        <time>2024-07-08T07:37:42Z</time>
      </trkpt>
      <trkpt lat="45.11932" lon="6.08686">
        <ele>2070.1</ele>
        <time>2024-07-08T07:37:44Z</time>
      </trkpt>
      <trkpt lat="45.11932" lon="6.08686">
        <ele>2070.1</ele>
        <time>2024-07-08T07:37:45Z</time>
      </trkpt>
      <trkpt lat="45.11932" lon="6.08686">
        <ele>2070.1</ele>
        <time>2024-07-08T07:37:46Z</time>
      </trkpt>
      <trkpt lat="45.11932" lon="6.08687">
        <ele>2070.1</ele>
        <time>2024-07-08T07:37:47Z</time>
      </trkpt>
      <trkpt lat="45.11933" lon="6.08687">
        <ele>2070.1</ele>
        <time>2024-07-08T07:37:48Z</time>
      </trkpt>
      <trkpt lat="45.11934" lon="6.08687">
        <ele>2070.1</ele>
        <time>2024-07-08T07:37:49Z</time>
      </trkpt>
      <trkpt lat="45.11933" lon="6.08687">
        <ele>2070.1</ele>
        <time>2024-07-08T07:37:50Z</time>
      </trkpt>
      <trkpt lat="45.11934" lon="6.08688">
        <ele>2070.1</ele>
        <time>2024-07-08T07:37:51Z</time>
      </trkpt>
      <trkpt lat="45.11936" lon="6.08688">
        <ele>2070.1</ele>
        <time>2024-07-08T07:37:52Z</time>
      </trkpt>
      <trkpt lat="45.11937" lon="6.08689">
        <ele>2070.1</ele>
        <time>2024-07-08T07:37:53Z</time>
      </trkpt>
      <trkpt lat="45.11938" lon="6.08689">
        <ele>2070.1</ele>
        <time>2024-07-08T07:37:54Z</time>
      </trkpt>
      <trkpt lat="45.1194" lon="6.08689">
        <ele>2070.2</ele>
        <time>2024-07-08T07:37:56Z</time>
      </trkpt>
      <trkpt lat="45.11941" lon="6.08689">
        <ele>2070.2</ele>
        <time>2024-07-08T07:37:57Z</time>
      </trkpt>
      <trkpt lat="45.11942" lon="6.08689">
        <ele>2070.2</ele>
        <time>2024-07-08T07:37:58Z</time>
      </trkpt>
      <trkpt lat="45.11943" lon="6.0869">
        <ele>2070.2</ele>
        <time>2024-07-08T07:37:59Z</time>
      </trkpt>
      <trkpt lat="45.11944" lon="6.08689">
        <ele>2070.2</ele>
        <time>2024-07-08T07:38:01Z</time>
      </trkpt>
      <trkpt lat="45.11945" lon="6.08689">
        <ele>2070.2</ele>
        <time>2024-07-08T07:38:02Z</time>
      </trkpt>
      <trkpt lat="45.11947" lon="6.08689">
        <ele>2070.2</ele>
        <time>2024-07-08T07:38:04Z</time>
      </trkpt>
      <trkpt lat="45.11948" lon="6.0869">
        <ele>2070.2</ele>
        <time>2024-07-08T07:38:05Z</time>
      </trkpt>
      <trkpt lat="45.1195" lon="6.0869">
        <ele>2070.2</ele>
        <time>2024-07-08T07:38:06Z</time>
      </trkpt>
      <trkpt lat="45.11951" lon="6.0869">
        <ele>2070.2</ele>
        <time>2024-07-08T07:38:07Z</time>
      </trkpt>
      <trkpt lat="45.11952" lon="6.08691">
        <ele>2070.3</ele>
        <time>2024-07-08T07:38:08Z</time>
      </trkpt>
      <trkpt lat="45.11953" lon="6.08691">
        <ele>2070.3</ele>
        <time>2024-07-08T07:38:09Z</time>
      </trkpt>
      <trkpt lat="45.11954" lon="6.08692">
        <ele>2070.3</ele>
        <time>2024-07-08T07:38:10Z</time>
      </trkpt>
      <trkpt lat="45.11955" lon="6.08692">
        <ele>2070.3</ele>
        <time>2024-07-08T07:38:11Z</time>
      </trkpt>
      <trkpt lat="45.11956" lon="6.08693">
        <ele>2070.3</ele>
        <time>2024-07-08T07:38:12Z</time>
      </trkpt>
      <trkpt lat="45.11957" lon="6.08694">
        <ele>2070.3</ele>
        <time>2024-07-08T07:38:13Z</time>
      </trkpt>
      <trkpt lat="45.11958" lon="6.08695">
        <ele>2070.3</ele>
        <time>2024-07-08T07:38:14Z</time>
      </trkpt>
      <trkpt lat="45.11957" lon="6.08697">
        <ele>2070.4</ele>
        <time>2024-07-08T07:38:16Z</time>
      </trkpt>
      <trkpt lat="45.11957" lon="6.08698">
        <ele>2070.4</ele>
        <time>2024-07-08T07:38:17Z</time>
      </trkpt>
      <trkpt lat="45.11957" lon="6.08699">
        <ele>2070.4</ele>
        <time>2024-07-08T07:38:18Z</time>
      </trkpt>
      <trkpt lat="45.11958" lon="6.08699">
        <ele>2070.4</ele>
        <time>2024-07-08T07:38:19Z</time>
      </trkpt>
      <trkpt lat="45.11959" lon="6.087">
        <ele>2070.4</ele>
        <time>2024-07-08T07:38:20Z</time>
      </trkpt>
      <trkpt lat="45.11961" lon="6.08701">
        <ele>2070.5</ele>
        <time>2024-07-08T07:38:21Z</time>
      </trkpt>
      <trkpt lat="45.11962" lon="6.08701">
        <ele>2070.5</ele>
        <time>2024-07-08T07:38:22Z</time>
      </trkpt>
      <trkpt lat="45.11963" lon="6.08701">
        <ele>2070.5</ele>
        <time>2024-07-08T07:38:23Z</time>
      </trkpt>
      <trkpt lat="45.11964" lon="6.08701">
        <ele>2070.5</ele>
        <time>2024-07-08T07:38:24Z</time>
      </trkpt>
      <trkpt lat="45.11966" lon="6.08702">
        <ele>2070.5</ele>
        <time>2024-07-08T07:38:25Z</time>
      </trkpt>
      <trkpt lat="45.11967" lon="6.08702">
        <ele>2070.6</ele>
        <time>2024-07-08T07:38:26Z</time>
      </trkpt>
      <trkpt lat="45.11968" lon="6.08702">
        <ele>2070.6</ele>
        <time>2024-07-08T07:38:27Z</time>
      </trkpt>
      <trkpt lat="45.11969" lon="6.08702">
        <ele>2070.6</ele>
        <time>2024-07-08T07:38:28Z</time>
      </trkpt>
      <trkpt lat="45.1197" lon="6.08702">
        <ele>2070.6</ele>
        <time>2024-07-08T07:38:29Z</time>
      </trkpt>
      <trkpt lat="45.11972" lon="6.08703">
        <ele>2070.7</ele>
        <time>2024-07-08T07:38:31Z</time>
      </trkpt>
      <trkpt lat="45.11973" lon="6.08704">
        <ele>2070.7</ele>
        <time>2024-07-08T07:38:32Z</time>
      </trkpt>
      <trkpt lat="45.11974" lon="6.08705">
        <ele>2070.8</ele>
        <time>2024-07-08T07:38:33Z</time>
      </trkpt>
      <trkpt lat="45.11975" lon="6.08705">
        <ele>2070.8</ele>
        <time>2024-07-08T07:38:34Z</time>
      </trkpt>
      <trkpt lat="45.11977" lon="6.08707">
        <ele>2070.8</ele>
        <time>2024-07-08T07:38:36Z</time>
      </trkpt>
      <trkpt lat="45.11978" lon="6.08708">
        <ele>2070.9</ele>
        <time>2024-07-08T07:38:37Z</time>
      </trkpt>
      <trkpt lat="45.11978" lon="6.08709">
        <ele>2070.9</ele>
        <time>2024-07-08T07:38:38Z</time>
      </trkpt>
      <trkpt lat="45.11979" lon="6.0871">
        <ele>2070.9</ele>
        <time>2024-07-08T07:38:39Z</time>
      </trkpt>
      <trkpt lat="45.11981" lon="6.08711">
        <ele>2070.9</ele>
        <time>2024-07-08T07:38:41Z</time>
      </trkpt>
      <trkpt lat="45.11983" lon="6.08712">
        <ele>2071</ele>
        <time>2024-07-08T07:38:42Z</time>
      </trkpt>
      <trkpt lat="45.11985" lon="6.08714">
        <ele>2071</ele>
        <time>2024-07-08T07:38:43Z</time>
      </trkpt>
      <trkpt lat="45.11985" lon="6.08714">
        <ele>2071</ele>
        <time>2024-07-08T07:38:44Z</time>
      </trkpt>
      <trkpt lat="45.11986" lon="6.08715">
        <ele>2071.1</ele>
        <time>2024-07-08T07:38:45Z</time>
      </trkpt>
      <trkpt lat="45.11988" lon="6.08718">
        <ele>2071.1</ele>
        <time>2024-07-08T07:38:47Z</time>
      </trkpt>
      <trkpt lat="45.11988" lon="6.08719">
        <ele>2071.1</ele>
        <time>2024-07-08T07:38:48Z</time>
      </trkpt>
      <trkpt lat="45.11988" lon="6.08721">
        <ele>2071.2</ele>
        <time>2024-07-08T07:38:49Z</time>
      </trkpt>
      <trkpt lat="45.11987" lon="6.08722">
        <ele>2071.2</ele>
        <time>2024-07-08T07:38:50Z</time>
      </trkpt>
      <trkpt lat="45.11987" lon="6.08721">
        <ele>2071.2</ele>
        <time>2024-07-08T07:38:51Z</time>
      </trkpt>
      <trkpt lat="45.11987" lon="6.08722">
        <ele>2071.2</ele>
        <time>2024-07-08T07:38:52Z</time>
      </trkpt>
      <trkpt lat="45.11987" lon="6.08722">
        <ele>2071.2</ele>
        <time>2024-07-08T07:38:53Z</time>
      </trkpt>
      <trkpt lat="45.11987" lon="6.08722">
        <ele>2071.2</ele>
        <time>2024-07-08T07:38:54Z</time>
      </trkpt>
      <trkpt lat="45.11987" lon="6.08722">
        <ele>2071.2</ele>
        <time>2024-07-08T07:38:55Z</time>
      </trkpt>
      <trkpt lat="45.11987" lon="6.08722">
        <ele>2071.2</ele>
        <time>2024-07-08T07:38:57Z</time>
      </trkpt>
      <trkpt lat="45.11987" lon="6.08722">
        <ele>2071.2</ele>
        <time>2024-07-08T07:38:58Z</time>
      </trkpt>
      <trkpt lat="45.11986" lon="6.08722">
        <ele>2071.2</ele>
        <time>2024-07-08T07:39:00Z</time>
      </trkpt>
      <trkpt lat="45.11984" lon="6.08724">
        <ele>2071.3</ele>
        <time>2024-07-08T07:39:01Z</time>
      </trkpt>
      <trkpt lat="45.11984" lon="6.08725">
        <ele>2071.3</ele>
        <time>2024-07-08T07:39:02Z</time>
      </trkpt>
      <trkpt lat="45.11985" lon="6.08727">
        <ele>2071.3</ele>
        <time>2024-07-08T07:39:03Z</time>
      </trkpt>
      <trkpt lat="45.11986" lon="6.08729">
        <ele>2071.3</ele>
        <time>2024-07-08T07:39:05Z</time>
      </trkpt>
      <trkpt lat="45.11988" lon="6.08731">
        <ele>2071.4</ele>
        <time>2024-07-08T07:39:06Z</time>
      </trkpt>
      <trkpt lat="45.11989" lon="6.08733">
        <ele>2071.4</ele>
        <time>2024-07-08T07:39:07Z</time>
      </trkpt>
      <trkpt lat="45.11991" lon="6.08735">
        <ele>2071.4</ele>
        <time>2024-07-08T07:39:08Z</time>
      </trkpt>
      <trkpt lat="45.11991" lon="6.08736">
        <ele>2071.4</ele>
        <time>2024-07-08T07:39:09Z</time>
      </trkpt>
      <trkpt lat="45.11992" lon="6.08737">
        <ele>2071.4</ele>
        <time>2024-07-08T07:39:10Z</time>
      </trkpt>
      <trkpt lat="45.11992" lon="6.08738">
        <ele>2071.4</ele>
        <time>2024-07-08T07:39:11Z</time>
      </trkpt>
      <trkpt lat="45.11993" lon="6.08739">
        <ele>2071.4</ele>
        <time>2024-07-08T07:39:12Z</time>
      </trkpt>
      <trkpt lat="45.11994" lon="6.0874">
        <ele>2071.4</ele>
        <time>2024-07-08T07:39:13Z</time>
      </trkpt>
      <trkpt lat="45.11995" lon="6.08741">
        <ele>2071.4</ele>
        <time>2024-07-08T07:39:14Z</time>
      </trkpt>
      <trkpt lat="45.11996" lon="6.08742">
        <ele>2071.4</ele>
        <time>2024-07-08T07:39:15Z</time>
      </trkpt>
      <trkpt lat="45.11998" lon="6.08743">
        <ele>2071.3</ele>
        <time>2024-07-08T07:39:17Z</time>
      </trkpt>
      <trkpt lat="45.11999" lon="6.08744">
        <ele>2071.3</ele>
        <time>2024-07-08T07:39:18Z</time>
      </trkpt>
      <trkpt lat="45.12" lon="6.08745">
        <ele>2071.2</ele>
        <time>2024-07-08T07:39:19Z</time>
      </trkpt>
      <trkpt lat="45.12001" lon="6.08746">
        <ele>2071.2</ele>
        <time>2024-07-08T07:39:20Z</time>
      </trkpt>
      <trkpt lat="45.12001" lon="6.08748">
        <ele>2071.2</ele>
        <time>2024-07-08T07:39:22Z</time>
      </trkpt>
      <trkpt lat="45.12003" lon="6.0875">
        <ele>2071.1</ele>
        <time>2024-07-08T07:39:23Z</time>
      </trkpt>
      <trkpt lat="45.12003" lon="6.08752">
        <ele>2071.1</ele>
        <time>2024-07-08T07:39:24Z</time>
      </trkpt>
      <trkpt lat="45.12004" lon="6.08753">
        <ele>2071</ele>
        <time>2024-07-08T07:39:25Z</time>
      </trkpt>
      <trkpt lat="45.12005" lon="6.08754">
        <ele>2071</ele>
        <time>2024-07-08T07:39:26Z</time>
      </trkpt>
      <trkpt lat="45.12006" lon="6.08755">
        <ele>2070.9</ele>
        <time>2024-07-08T07:39:27Z</time>
      </trkpt>
      <trkpt lat="45.12006" lon="6.08757">
        <ele>2070.9</ele>
        <time>2024-07-08T07:39:28Z</time>
      </trkpt>
      <trkpt lat="45.12007" lon="6.08758">
        <ele>2070.8</ele>
        <time>2024-07-08T07:39:29Z</time>
      </trkpt>
      <trkpt lat="45.12007" lon="6.08759">
        <ele>2070.8</ele>
        <time>2024-07-08T07:39:30Z</time>
      </trkpt>
      <trkpt lat="45.12008" lon="6.08762">
        <ele>2070.7</ele>
        <time>2024-07-08T07:39:32Z</time>
      </trkpt>
      <trkpt lat="45.12009" lon="6.08766">
        <ele>2070.6</ele>
        <time>2024-07-08T07:39:33Z</time>
      </trkpt>
      <trkpt lat="45.12009" lon="6.08767">
        <ele>2070.6</ele>
        <time>2024-07-08T07:39:34Z</time>
      </trkpt>
      <trkpt lat="45.12009" lon="6.08768">
        <ele>2070.6</ele>
        <time>2024-07-08T07:39:35Z</time>
      </trkpt>
      <trkpt lat="45.1201" lon="6.0877">
        <ele>2070.5</ele>
        <time>2024-07-08T07:39:36Z</time>
      </trkpt>
      <trkpt lat="45.12011" lon="6.08772">
        <ele>2070.5</ele>
        <time>2024-07-08T07:39:38Z</time>
      </trkpt>
      <trkpt lat="45.12011" lon="6.08774">
        <ele>2070.5</ele>
        <time>2024-07-08T07:39:39Z</time>
      </trkpt>
      <trkpt lat="45.12012" lon="6.08775">
        <ele>2070.5</ele>
        <time>2024-07-08T07:39:40Z</time>
      </trkpt>
      <trkpt lat="45.12013" lon="6.08777">
        <ele>2070.4</ele>
        <time>2024-07-08T07:39:41Z</time>
      </trkpt>
      <trkpt lat="45.12014" lon="6.08779">
        <ele>2070.4</ele>
        <time>2024-07-08T07:39:43Z</time>
      </trkpt>
      <trkpt lat="45.12015" lon="6.0878">
        <ele>2070.4</ele>
        <time>2024-07-08T07:39:44Z</time>
      </trkpt>
      <trkpt lat="45.12016" lon="6.08781">
        <ele>2070.4</ele>
        <time>2024-07-08T07:39:45Z</time>
      </trkpt>
      <trkpt lat="45.12018" lon="6.08784">
        <ele>2070.4</ele>
        <time>2024-07-08T07:39:47Z</time>
      </trkpt>
      <trkpt lat="45.12019" lon="6.08785">
        <ele>2070.4</ele>
        <time>2024-07-08T07:39:48Z</time>
      </trkpt>
      <trkpt lat="45.12019" lon="6.08786">
        <ele>2070.4</ele>
        <time>2024-07-08T07:39:49Z</time>
      </trkpt>
      <trkpt lat="45.1202" lon="6.08787">
        <ele>2070.5</ele>
        <time>2024-07-08T07:39:50Z</time>
      </trkpt>
      <trkpt lat="45.1202" lon="6.08789">
        <ele>2070.5</ele>
        <time>2024-07-08T07:39:51Z</time>
      </trkpt>
      <trkpt lat="45.12021" lon="6.0879">
        <ele>2070.5</ele>
        <time>2024-07-08T07:39:52Z</time>
      </trkpt>
      <trkpt lat="45.12022" lon="6.08791">
        <ele>2070.5</ele>
        <time>2024-07-08T07:39:53Z</time>
      </trkpt>
      <trkpt lat="45.12022" lon="6.08792">
        <ele>2070.5</ele>
        <time>2024-07-08T07:39:54Z</time>
      </trkpt>
      <trkpt lat="45.12023" lon="6.08793">
        <ele>2070.5</ele>
        <time>2024-07-08T07:39:55Z</time>
      </trkpt>
      <trkpt lat="45.12026" lon="6.08795">
        <ele>2070.6</ele>
        <time>2024-07-08T07:39:57Z</time>
      </trkpt>
      <trkpt lat="45.12026" lon="6.08796">
        <ele>2070.7</ele>
        <time>2024-07-08T07:39:58Z</time>
      </trkpt>
      <trkpt lat="45.12028" lon="6.08796">
        <ele>2070.7</ele>
        <time>2024-07-08T07:39:59Z</time>
      </trkpt>
      <trkpt lat="45.12028" lon="6.08796">
        <ele>2070.8</ele>
        <time>2024-07-08T07:40:00Z</time>
      </trkpt>
      <trkpt lat="45.12029" lon="6.08796">
        <ele>2070.9</ele>
        <time>2024-07-08T07:40:02Z</time>
      </trkpt>
      <trkpt lat="45.12031" lon="6.08795">
        <ele>2071</ele>
        <time>2024-07-08T07:40:03Z</time>
      </trkpt>
      <trkpt lat="45.12032" lon="6.08795">
        <ele>2071.1</ele>
        <time>2024-07-08T07:40:04Z</time>
      </trkpt>
      <trkpt lat="45.12034" lon="6.08796">
        <ele>2071.2</ele>
        <time>2024-07-08T07:40:05Z</time>
      </trkpt>
      <trkpt lat="45.12035" lon="6.08797">
        <ele>2071.3</ele>
        <time>2024-07-08T07:40:07Z</time>
      </trkpt>
      <trkpt lat="45.12036" lon="6.08798">
        <ele>2071.4</ele>
        <time>2024-07-08T07:40:08Z</time>
      </trkpt>
      <trkpt lat="45.12037" lon="6.08798">
        <ele>2071.5</ele>
        <time>2024-07-08T07:40:09Z</time>
      </trkpt>
      <trkpt lat="45.12038" lon="6.08799">
        <ele>2071.6</ele>
        <time>2024-07-08T07:40:10Z</time>
      </trkpt>
      <trkpt lat="45.12039" lon="6.088">
        <ele>2071.6</ele>
        <time>2024-07-08T07:40:12Z</time>
      </trkpt>
      <trkpt lat="45.1204" lon="6.088">
        <ele>2071.8</ele>
        <time>2024-07-08T07:40:13Z</time>
      </trkpt>
      <trkpt lat="45.12041" lon="6.088">
        <ele>2071.8</ele>
        <time>2024-07-08T07:40:14Z</time>
      </trkpt>
      <trkpt lat="45.12042" lon="6.088">
        <ele>2071.9</ele>
        <time>2024-07-08T07:40:15Z</time>
      </trkpt>
      <trkpt lat="45.12043" lon="6.08801">
        <ele>2072</ele>
        <time>2024-07-08T07:40:16Z</time>
      </trkpt>
      <trkpt lat="45.12044" lon="6.08801">
        <ele>2072.1</ele>
        <time>2024-07-08T07:40:17Z</time>
      </trkpt>
      <trkpt lat="45.12045" lon="6.08801">
        <ele>2072.2</ele>
        <time>2024-07-08T07:40:18Z</time>
      </trkpt>
      <trkpt lat="45.12046" lon="6.08801">
        <ele>2072.2</ele>
        <time>2024-07-08T07:40:19Z</time>
      </trkpt>
      <trkpt lat="45.12047" lon="6.08801">
        <ele>2072.3</ele>
        <time>2024-07-08T07:40:20Z</time>
      </trkpt>
      <trkpt lat="45.12047" lon="6.08801">
        <ele>2072.3</ele>
        <time>2024-07-08T07:40:21Z</time>
      </trkpt>
      <trkpt lat="45.12049" lon="6.08802">
        <ele>2072.4</ele>
        <time>2024-07-08T07:40:23Z</time>
      </trkpt>
      <trkpt lat="45.1205" lon="6.08803">
        <ele>2072.5</ele>
        <time>2024-07-08T07:40:24Z</time>
      </trkpt>
      <trkpt lat="45.12051" lon="6.08803">
        <ele>2072.5</ele>
        <time>2024-07-08T07:40:25Z</time>
      </trkpt>
      <trkpt lat="45.12052" lon="6.08805">
        <ele>2072.5</ele>
        <time>2024-07-08T07:40:26Z</time>
      </trkpt>
      <trkpt lat="45.12054" lon="6.08805">
        <ele>2072.6</ele>
        <time>2024-07-08T07:40:28Z</time>
      </trkpt>
      <trkpt lat="45.12055" lon="6.08805">
        <ele>2072.6</ele>
        <time>2024-07-08T07:40:29Z</time>
      </trkpt>
      <trkpt lat="45.12056" lon="6.08806">
        <ele>2072.6</ele>
        <time>2024-07-08T07:40:30Z</time>
      </trkpt>
      <trkpt lat="45.12057" lon="6.08807">
        <ele>2072.7</ele>
        <time>2024-07-08T07:40:31Z</time>
      </trkpt>
      <trkpt lat="45.12058" lon="6.08807">
        <ele>2072.7</ele>
        <time>2024-07-08T07:40:32Z</time>
      </trkpt>
      <trkpt lat="45.12058" lon="6.08809">
        <ele>2072.6</ele>
        <time>2024-07-08T07:40:33Z</time>
      </trkpt>
      <trkpt lat="45.12059" lon="6.0881">
        <ele>2072.6</ele>
        <time>2024-07-08T07:40:34Z</time>
      </trkpt>
      <trkpt lat="45.12059" lon="6.08812">
        <ele>2072.6</ele>
        <time>2024-07-08T07:40:35Z</time>
      </trkpt>
      <trkpt lat="45.1206" lon="6.08814">
        <ele>2072.6</ele>
        <time>2024-07-08T07:40:36Z</time>
      </trkpt>
      <trkpt lat="45.12062" lon="6.08815">
        <ele>2072.5</ele>
        <time>2024-07-08T07:40:38Z</time>
      </trkpt>
      <trkpt lat="45.12063" lon="6.08816">
        <ele>2072.5</ele>
        <time>2024-07-08T07:40:39Z</time>
      </trkpt>
      <trkpt lat="45.12064" lon="6.08818">
        <ele>2072.4</ele>
        <time>2024-07-08T07:40:40Z</time>
      </trkpt>
      <trkpt lat="45.12066" lon="6.0882">
        <ele>2072.4</ele>
        <time>2024-07-08T07:40:41Z</time>
      </trkpt>
      <trkpt lat="45.12066" lon="6.08821">
        <ele>2072.3</ele>
        <time>2024-07-08T07:40:42Z</time>
      </trkpt>
      <trkpt lat="45.12067" lon="6.08822">
        <ele>2072.3</ele>
        <time>2024-07-08T07:40:43Z</time>
      </trkpt>
      <trkpt lat="45.12068" lon="6.08823">
        <ele>2072.3</ele>
        <time>2024-07-08T07:40:44Z</time>
      </trkpt>
      <trkpt lat="45.12069" lon="6.08824">
        <ele>2072.2</ele>
        <time>2024-07-08T07:40:45Z</time>
      </trkpt>
      <trkpt lat="45.1207" lon="6.08825">
        <ele>2072.2</ele>
        <time>2024-07-08T07:40:46Z</time>
      </trkpt>
      <trkpt lat="45.12071" lon="6.08826">
        <ele>2072.1</ele>
        <time>2024-07-08T07:40:47Z</time>
      </trkpt>
      <trkpt lat="45.12073" lon="6.08827">
        <ele>2072.1</ele>
        <time>2024-07-08T07:40:48Z</time>
      </trkpt>
      <trkpt lat="45.12073" lon="6.08828">
        <ele>2072.1</ele>
        <time>2024-07-08T07:40:49Z</time>
      </trkpt>
      <trkpt lat="45.12074" lon="6.08829">
        <ele>2072</ele>
        <time>2024-07-08T07:40:50Z</time>
      </trkpt>
      <trkpt lat="45.12075" lon="6.08829">
        <ele>2072</ele>
        <time>2024-07-08T07:40:51Z</time>
      </trkpt>
      <trkpt lat="45.12076" lon="6.0883">
        <ele>2072</ele>
        <time>2024-07-08T07:40:52Z</time>
      </trkpt>
      <trkpt lat="45.12077" lon="6.08831">
        <ele>2072</ele>
        <time>2024-07-08T07:40:53Z</time>
      </trkpt>
      <trkpt lat="45.12078" lon="6.08831">
        <ele>2072</ele>
        <time>2024-07-08T07:40:54Z</time>
      </trkpt>
      <trkpt lat="45.12079" lon="6.08832">
        <ele>2072</ele>
        <time>2024-07-08T07:40:55Z</time>
      </trkpt>
      <trkpt lat="45.12081" lon="6.08832">
        <ele>2072</ele>
        <time>2024-07-08T07:40:57Z</time>
      </trkpt>
      <trkpt lat="45.12082" lon="6.08833">
        <ele>2072</ele>
        <time>2024-07-08T07:40:58Z</time>
      </trkpt>
      <trkpt lat="45.12083" lon="6.08834">
        <ele>2072</ele>
        <time>2024-07-08T07:40:59Z</time>
      </trkpt>
      <trkpt lat="45.12084" lon="6.08835">
        <ele>2072</ele>
        <time>2024-07-08T07:41:00Z</time>
      </trkpt>
      <trkpt lat="45.12086" lon="6.08835">
        <ele>2072</ele>
        <time>2024-07-08T07:41:01Z</time>
      </trkpt>
      <trkpt lat="45.12087" lon="6.08836">
        <ele>2072</ele>
        <time>2024-07-08T07:41:03Z</time>
      </trkpt>
      <trkpt lat="45.12089" lon="6.08838">
        <ele>2072.1</ele>
        <time>2024-07-08T07:41:04Z</time>
      </trkpt>
      <trkpt lat="45.1209" lon="6.08839">
        <ele>2072.1</ele>
        <time>2024-07-08T07:41:05Z</time>
      </trkpt>
      <trkpt lat="45.12092" lon="6.0884">
        <ele>2072.2</ele>
        <time>2024-07-08T07:41:06Z</time>
      </trkpt>
      <trkpt lat="45.12093" lon="6.0884">
        <ele>2072.2</ele>
        <time>2024-07-08T07:41:07Z</time>
      </trkpt>
      <trkpt lat="45.12095" lon="6.08841">
        <ele>2072.3</ele>
        <time>2024-07-08T07:41:09Z</time>
      </trkpt>
      <trkpt lat="45.12096" lon="6.08841">
        <ele>2072.3</ele>
        <time>2024-07-08T07:41:10Z</time>
      </trkpt>
      <trkpt lat="45.12097" lon="6.08842">
        <ele>2072.4</ele>
        <time>2024-07-08T07:41:11Z</time>
      </trkpt>
      <trkpt lat="45.12099" lon="6.08842">
        <ele>2072.5</ele>
        <time>2024-07-08T07:41:13Z</time>
      </trkpt>
      <trkpt lat="45.12101" lon="6.08843">
        <ele>2072.6</ele>
        <time>2024-07-08T07:41:14Z</time>
      </trkpt>
      <trkpt lat="45.12102" lon="6.08844">
        <ele>2072.7</ele>
        <time>2024-07-08T07:41:15Z</time>
      </trkpt>
      <trkpt lat="45.12103" lon="6.08845">
        <ele>2072.8</ele>
        <time>2024-07-08T07:41:16Z</time>
      </trkpt>
      <trkpt lat="45.12104" lon="6.08845">
        <ele>2072.9</ele>
        <time>2024-07-08T07:41:18Z</time>
      </trkpt>
      <trkpt lat="45.12107" lon="6.08846">
        <ele>2073.2</ele>
        <time>2024-07-08T07:41:19Z</time>
      </trkpt>
      <trkpt lat="45.12108" lon="6.08847">
        <ele>2073.3</ele>
        <time>2024-07-08T07:41:20Z</time>
      </trkpt>
      <trkpt lat="45.12109" lon="6.08847">
        <ele>2073.4</ele>
        <time>2024-07-08T07:41:21Z</time>
      </trkpt>
      <trkpt lat="45.12111" lon="6.08848">
        <ele>2073.6</ele>
        <time>2024-07-08T07:41:23Z</time>
      </trkpt>
      <trkpt lat="45.12112" lon="6.08848">
        <ele>2073.8</ele>
        <time>2024-07-08T07:41:24Z</time>
      </trkpt>
      <trkpt lat="45.12113" lon="6.08849">
        <ele>2073.9</ele>
        <time>2024-07-08T07:41:25Z</time>
      </trkpt>
      <trkpt lat="45.12114" lon="6.08849">
        <ele>2074</ele>
        <time>2024-07-08T07:41:26Z</time>
      </trkpt>
      <trkpt lat="45.12116" lon="6.08849">
        <ele>2074.3</ele>
        <time>2024-07-08T07:41:28Z</time>
      </trkpt>
      <trkpt lat="45.12117" lon="6.08849">
        <ele>2074.4</ele>
        <time>2024-07-08T07:41:29Z</time>
      </trkpt>
      <trkpt lat="45.12118" lon="6.0885">
        <ele>2074.5</ele>
        <time>2024-07-08T07:41:30Z</time>
      </trkpt>
      <trkpt lat="45.12118" lon="6.0885">
        <ele>2074.6</ele>
        <time>2024-07-08T07:41:31Z</time>
      </trkpt>
      <trkpt lat="45.12119" lon="6.08851">
        <ele>2074.7</ele>
        <time>2024-07-08T07:41:33Z</time>
      </trkpt>
      <trkpt lat="45.1212" lon="6.08853">
        <ele>2074.9</ele>
        <time>2024-07-08T07:41:34Z</time>
      </trkpt>
      <trkpt lat="45.12121" lon="6.08854">
        <ele>2075.2</ele>
        <time>2024-07-08T07:41:35Z</time>
      </trkpt>
      <trkpt lat="45.12122" lon="6.08855">
        <ele>2075.3</ele>
        <time>2024-07-08T07:41:36Z</time>
      </trkpt>
      <trkpt lat="45.12123" lon="6.08855">
        <ele>2075.4</ele>
        <time>2024-07-08T07:41:37Z</time>
      </trkpt>
      <trkpt lat="45.12125" lon="6.08855">
        <ele>2075.7</ele>
        <time>2024-07-08T07:41:39Z</time>
      </trkpt>
      <trkpt lat="45.12126" lon="6.08855">
        <ele>2075.9</ele>
        <time>2024-07-08T07:41:40Z</time>
      </trkpt>
      <trkpt lat="45.12127" lon="6.08855">
        <ele>2076</ele>
        <time>2024-07-08T07:41:41Z</time>
      </trkpt>
      <trkpt lat="45.12129" lon="6.08855">
        <ele>2076.2</ele>
        <time>2024-07-08T07:41:42Z</time>
      </trkpt>
      <trkpt lat="45.1213" lon="6.08855">
        <ele>2076.2</ele>
        <time>2024-07-08T07:41:43Z</time>
      </trkpt>
      <trkpt lat="45.12131" lon="6.08856">
        <ele>2076.3</ele>
        <time>2024-07-08T07:41:44Z</time>
      </trkpt>
      <trkpt lat="45.12132" lon="6.08856">
        <ele>2076.4</ele>
        <time>2024-07-08T07:41:45Z</time>
      </trkpt>
      <trkpt lat="45.12132" lon="6.08856">
        <ele>2076.4</ele>
        <time>2024-07-08T07:41:46Z</time>
      </trkpt>
      <trkpt lat="45.12134" lon="6.08857">
        <ele>2076.5</ele>
        <time>2024-07-08T07:41:48Z</time>
      </trkpt>
      <trkpt lat="45.12136" lon="6.08857">
        <ele>2076.6</ele>
        <time>2024-07-08T07:41:49Z</time>
      </trkpt>
      <trkpt lat="45.12138" lon="6.08858">
        <ele>2076.7</ele>
        <time>2024-07-08T07:41:50Z</time>
      </trkpt>
      <trkpt lat="45.12138" lon="6.08858">
        <ele>2076.7</ele>
        <time>2024-07-08T07:41:51Z</time>
      </trkpt>
      <trkpt lat="45.12139" lon="6.08858">
        <ele>2076.8</ele>
        <time>2024-07-08T07:41:52Z</time>
      </trkpt>
      <trkpt lat="45.1214" lon="6.08858">
        <ele>2076.8</ele>
        <time>2024-07-08T07:41:53Z</time>
      </trkpt>
      <trkpt lat="45.12141" lon="6.08858">
        <ele>2076.9</ele>
        <time>2024-07-08T07:41:54Z</time>
      </trkpt>
      <trkpt lat="45.12142" lon="6.08858">
        <ele>2076.9</ele>
        <time>2024-07-08T07:41:55Z</time>
      </trkpt>
      <trkpt lat="45.12143" lon="6.08859">
        <ele>2077</ele>
        <time>2024-07-08T07:41:56Z</time>
      </trkpt>
      <trkpt lat="45.12145" lon="6.08859">
        <ele>2077</ele>
        <time>2024-07-08T07:41:57Z</time>
      </trkpt>
      <trkpt lat="45.12146" lon="6.08859">
        <ele>2077.1</ele>
        <time>2024-07-08T07:41:58Z</time>
      </trkpt>
      <trkpt lat="45.12147" lon="6.0886">
        <ele>2077.1</ele>
        <time>2024-07-08T07:41:59Z</time>
      </trkpt>
      <trkpt lat="45.12148" lon="6.0886">
        <ele>2077.1</ele>
        <time>2024-07-08T07:42:00Z</time>
      </trkpt>
      <trkpt lat="45.12149" lon="6.0886">
        <ele>2077.2</ele>
        <time>2024-07-08T07:42:01Z</time>
      </trkpt>
      <trkpt lat="45.1215" lon="6.08861">
        <ele>2077.2</ele>
        <time>2024-07-08T07:42:03Z</time>
      </trkpt>
      <trkpt lat="45.12152" lon="6.08861">
        <ele>2077.3</ele>
        <time>2024-07-08T07:42:04Z</time>
      </trkpt>
      <trkpt lat="45.12154" lon="6.08862">
        <ele>2077.3</ele>
        <time>2024-07-08T07:42:05Z</time>
      </trkpt>
      <trkpt lat="45.12155" lon="6.08862">
        <ele>2077.3</ele>
        <time>2024-07-08T07:42:06Z</time>
      </trkpt>
      <trkpt lat="45.12157" lon="6.08862">
        <ele>2077.4</ele>
        <time>2024-07-08T07:42:07Z</time>
      </trkpt>
      <trkpt lat="45.12158" lon="6.08862">
        <ele>2077.4</ele>
        <time>2024-07-08T07:42:08Z</time>
      </trkpt>
      <trkpt lat="45.12158" lon="6.08862">
        <ele>2077.4</ele>
        <time>2024-07-08T07:42:09Z</time>
      </trkpt>
      <trkpt lat="45.12161" lon="6.08862">
        <ele>2077.5</ele>
        <time>2024-07-08T07:42:10Z</time>
      </trkpt>
      <trkpt lat="45.12162" lon="6.08862">
        <ele>2077.5</ele>
        <time>2024-07-08T07:42:11Z</time>
      </trkpt>
      <trkpt lat="45.12163" lon="6.08862">
        <ele>2077.5</ele>
        <time>2024-07-08T07:42:12Z</time>
      </trkpt>
      <trkpt lat="45.12163" lon="6.08862">
        <ele>2077.5</ele>
        <time>2024-07-08T07:42:13Z</time>
      </trkpt>
      <trkpt lat="45.12165" lon="6.08862">
        <ele>2077.5</ele>
        <time>2024-07-08T07:42:14Z</time>
      </trkpt>
      <trkpt lat="45.12166" lon="6.08863">
        <ele>2077.6</ele>
        <time>2024-07-08T07:42:15Z</time>
      </trkpt>
      <trkpt lat="45.12167" lon="6.08863">
        <ele>2077.6</ele>
        <time>2024-07-08T07:42:16Z</time>
      </trkpt>
      <trkpt lat="45.12169" lon="6.08863">
        <ele>2077.6</ele>
        <time>2024-07-08T07:42:17Z</time>
      </trkpt>
      <trkpt lat="45.12171" lon="6.08863">
        <ele>2077.6</ele>
        <time>2024-07-08T07:42:18Z</time>
      </trkpt>
      <trkpt lat="45.12171" lon="6.08863">
        <ele>2077.6</ele>
        <time>2024-07-08T07:42:19Z</time>
      </trkpt>
      <trkpt lat="45.12172" lon="6.08863">
        <ele>2077.6</ele>
        <time>2024-07-08T07:42:20Z</time>
      </trkpt>
      <trkpt lat="45.12174" lon="6.08863">
        <ele>2077.6</ele>
        <time>2024-07-08T07:42:21Z</time>
      </trkpt>
      <trkpt lat="45.12176" lon="6.08862">
        <ele>2077.6</ele>
        <time>2024-07-08T07:42:22Z</time>
      </trkpt>
      <trkpt lat="45.12176" lon="6.08862">
        <ele>2077.6</ele>
        <time>2024-07-08T07:42:23Z</time>
      </trkpt>
      <trkpt lat="45.12177" lon="6.08863">
        <ele>2077.6</ele>
        <time>2024-07-08T07:42:24Z</time>
      </trkpt>
      <trkpt lat="45.12179" lon="6.08863">
        <ele>2077.6</ele>
        <time>2024-07-08T07:42:25Z</time>
      </trkpt>
      <trkpt lat="45.12181" lon="6.08863">
        <ele>2077.6</ele>
        <time>2024-07-08T07:42:26Z</time>
      </trkpt>
      <trkpt lat="45.12182" lon="6.08863">
        <ele>2077.6</ele>
        <time>2024-07-08T07:42:27Z</time>
      </trkpt>
      <trkpt lat="45.12182" lon="6.08863">
        <ele>2077.6</ele>
        <time>2024-07-08T07:42:28Z</time>
      </trkpt>
      <trkpt lat="45.12184" lon="6.08863">
        <ele>2077.5</ele>
        <time>2024-07-08T07:42:29Z</time>
      </trkpt>
      <trkpt lat="45.12185" lon="6.08863">
        <ele>2077.5</ele>
        <time>2024-07-08T07:42:30Z</time>
      </trkpt>
      <trkpt lat="45.12186" lon="6.08863">
        <ele>2077.5</ele>
        <time>2024-07-08T07:42:31Z</time>
      </trkpt>
      <trkpt lat="45.12187" lon="6.08862">
        <ele>2077.5</ele>
        <time>2024-07-08T07:42:32Z</time>
      </trkpt>
      <trkpt lat="45.12188" lon="6.08862">
        <ele>2077.5</ele>
        <time>2024-07-08T07:42:33Z</time>
      </trkpt>
      <trkpt lat="45.12189" lon="6.08862">
        <ele>2077.5</ele>
        <time>2024-07-08T07:42:34Z</time>
      </trkpt>
      <trkpt lat="45.12191" lon="6.08862">
        <ele>2077.4</ele>
        <time>2024-07-08T07:42:35Z</time>
      </trkpt>
      <trkpt lat="45.12193" lon="6.08862">
        <ele>2077.4</ele>
        <time>2024-07-08T07:42:36Z</time>
      </trkpt>
      <trkpt lat="45.12194" lon="6.08862">
        <ele>2077.4</ele>
        <time>2024-07-08T07:42:37Z</time>
      </trkpt>
      <trkpt lat="45.12195" lon="6.08862">
        <ele>2077.4</ele>
        <time>2024-07-08T07:42:38Z</time>
      </trkpt>
      <trkpt lat="45.12196" lon="6.08862">
        <ele>2077.4</ele>
        <time>2024-07-08T07:42:39Z</time>
      </trkpt>
      <trkpt lat="45.12197" lon="6.08862">
        <ele>2077.3</ele>
        <time>2024-07-08T07:42:40Z</time>
      </trkpt>
      <trkpt lat="45.12197" lon="6.08862">
        <ele>2077.3</ele>
        <time>2024-07-08T07:42:41Z</time>
      </trkpt>
      <trkpt lat="45.12199" lon="6.08862">
        <ele>2077.3</ele>
        <time>2024-07-08T07:42:43Z</time>
      </trkpt>
      <trkpt lat="45.12201" lon="6.08862">
        <ele>2077.3</ele>
        <time>2024-07-08T07:42:44Z</time>
      </trkpt>
      <trkpt lat="45.12203" lon="6.08862">
        <ele>2077.2</ele>
        <time>2024-07-08T07:42:45Z</time>
      </trkpt>
      <trkpt lat="45.12204" lon="6.08862">
        <ele>2077.2</ele>
        <time>2024-07-08T07:42:46Z</time>
      </trkpt>
      <trkpt lat="45.12205" lon="6.08862">
        <ele>2077.2</ele>
        <time>2024-07-08T07:42:47Z</time>
      </trkpt>
      <trkpt lat="45.12206" lon="6.08862">
        <ele>2077.1</ele>
        <time>2024-07-08T07:42:48Z</time>
      </trkpt>
      <trkpt lat="45.12207" lon="6.08862">
        <ele>2077.1</ele>
        <time>2024-07-08T07:42:49Z</time>
      </trkpt>
      <trkpt lat="45.12208" lon="6.08861">
        <ele>2077.1</ele>
        <time>2024-07-08T07:42:50Z</time>
      </trkpt>
      <trkpt lat="45.12209" lon="6.0886">
        <ele>2077</ele>
        <time>2024-07-08T07:42:51Z</time>
      </trkpt>
      <trkpt lat="45.12211" lon="6.08858">
        <ele>2077</ele>
        <time>2024-07-08T07:42:53Z</time>
      </trkpt>
      <trkpt lat="45.12212" lon="6.08858">
        <ele>2076.9</ele>
        <time>2024-07-08T07:42:54Z</time>
      </trkpt>
      <trkpt lat="45.12213" lon="6.08858">
        <ele>2076.9</ele>
        <time>2024-07-08T07:42:55Z</time>
      </trkpt>
      <trkpt lat="45.12214" lon="6.08857">
        <ele>2076.9</ele>
        <time>2024-07-08T07:42:56Z</time>
      </trkpt>
      <trkpt lat="45.12215" lon="6.08857">
        <ele>2076.9</ele>
        <time>2024-07-08T07:42:57Z</time>
      </trkpt>
      <trkpt lat="45.12216" lon="6.08857">
        <ele>2076.8</ele>
        <time>2024-07-08T07:42:58Z</time>
      </trkpt>
      <trkpt lat="45.12217" lon="6.08857">
        <ele>2076.8</ele>
        <time>2024-07-08T07:42:59Z</time>
      </trkpt>
      <trkpt lat="45.12218" lon="6.08857">
        <ele>2076.8</ele>
        <time>2024-07-08T07:43:00Z</time>
      </trkpt>
      <trkpt lat="45.1222" lon="6.08857">
        <ele>2076.8</ele>
        <time>2024-07-08T07:43:01Z</time>
      </trkpt>
      <trkpt lat="45.12221" lon="6.08857">
        <ele>2076.7</ele>
        <time>2024-07-08T07:43:02Z</time>
      </trkpt>
      <trkpt lat="45.12222" lon="6.08857">
        <ele>2076.7</ele>
        <time>2024-07-08T07:43:03Z</time>
      </trkpt>
      <trkpt lat="45.12223" lon="6.08857">
        <ele>2076.7</ele>
        <time>2024-07-08T07:43:04Z</time>
      </trkpt>
      <trkpt lat="45.12224" lon="6.08858">
        <ele>2076.7</ele>
        <time>2024-07-08T07:43:05Z</time>
      </trkpt>
      <trkpt lat="45.12225" lon="6.08858">
        <ele>2076.6</ele>
        <time>2024-07-08T07:43:06Z</time>
      </trkpt>
      <trkpt lat="45.12226" lon="6.08858">
        <ele>2076.6</ele>
        <time>2024-07-08T07:43:07Z</time>
      </trkpt>
      <trkpt lat="45.12227" lon="6.08857">
        <ele>2076.6</ele>
        <time>2024-07-08T07:43:08Z</time>
      </trkpt>
      <trkpt lat="45.12228" lon="6.08857">
        <ele>2076.5</ele>
        <time>2024-07-08T07:43:09Z</time>
      </trkpt>
      <trkpt lat="45.1223" lon="6.08857">
        <ele>2076.5</ele>
        <time>2024-07-08T07:43:10Z</time>
      </trkpt>
      <trkpt lat="45.12231" lon="6.08857">
        <ele>2076.5</ele>
        <time>2024-07-08T07:43:11Z</time>
      </trkpt>
      <trkpt lat="45.12232" lon="6.08857">
        <ele>2076.4</ele>
        <time>2024-07-08T07:43:12Z</time>
      </trkpt>
      <trkpt lat="45.12234" lon="6.08858">
        <ele>2076.4</ele>
        <time>2024-07-08T07:43:13Z</time>
      </trkpt>
      <trkpt lat="45.12235" lon="6.08859">
        <ele>2076.4</ele>
        <time>2024-07-08T07:43:14Z</time>
      </trkpt>
      <trkpt lat="45.12236" lon="6.08861">
        <ele>2076.3</ele>
        <time>2024-07-08T07:43:15Z</time>
      </trkpt>
      <trkpt lat="45.12236" lon="6.08861">
        <ele>2076.3</ele>
        <time>2024-07-08T07:43:16Z</time>
      </trkpt>
      <trkpt lat="45.12237" lon="6.08862">
        <ele>2076.3</ele>
        <time>2024-07-08T07:43:17Z</time>
      </trkpt>
      <trkpt lat="45.12238" lon="6.08863">
        <ele>2076.2</ele>
        <time>2024-07-08T07:43:18Z</time>
      </trkpt>
      <trkpt lat="45.1224" lon="6.08864">
        <ele>2076.2</ele>
        <time>2024-07-08T07:43:19Z</time>
      </trkpt>
      <trkpt lat="45.12241" lon="6.08864">
        <ele>2076.2</ele>
        <time>2024-07-08T07:43:20Z</time>
      </trkpt>
      <trkpt lat="45.12243" lon="6.08865">
        <ele>2076.1</ele>
        <time>2024-07-08T07:43:21Z</time>
      </trkpt>
      <trkpt lat="45.12243" lon="6.08865">
        <ele>2076.1</ele>
        <time>2024-07-08T07:43:22Z</time>
      </trkpt>
      <trkpt lat="45.12244" lon="6.08865">
        <ele>2076.1</ele>
        <time>2024-07-08T07:43:23Z</time>
      </trkpt>
      <trkpt lat="45.12245" lon="6.08866">
        <ele>2076</ele>
        <time>2024-07-08T07:43:24Z</time>
      </trkpt>
      <trkpt lat="45.12247" lon="6.08865">
        <ele>2076</ele>
        <time>2024-07-08T07:43:25Z</time>
      </trkpt>
      <trkpt lat="45.12248" lon="6.08865">
        <ele>2076</ele>
        <time>2024-07-08T07:43:26Z</time>
      </trkpt>
      <trkpt lat="45.1225" lon="6.08864">
        <ele>2075.9</ele>
        <time>2024-07-08T07:43:27Z</time>
      </trkpt>
      <trkpt lat="45.12251" lon="6.08864">
        <ele>2075.9</ele>
        <time>2024-07-08T07:43:28Z</time>
      </trkpt>
      <trkpt lat="45.12252" lon="6.08864">
        <ele>2075.9</ele>
        <time>2024-07-08T07:43:29Z</time>
      </trkpt>
      <trkpt lat="45.12253" lon="6.08864">
        <ele>2075.8</ele>
        <time>2024-07-08T07:43:30Z</time>
      </trkpt>
      <trkpt lat="45.12254" lon="6.08864">
        <ele>2075.8</ele>
        <time>2024-07-08T07:43:31Z</time>
      </trkpt>
      <trkpt lat="45.12255" lon="6.08863">
        <ele>2075.7</ele>
        <time>2024-07-08T07:43:32Z</time>
      </trkpt>
      <trkpt lat="45.12257" lon="6.08863">
        <ele>2075.6</ele>
        <time>2024-07-08T07:43:34Z</time>
      </trkpt>
      <trkpt lat="45.12259" lon="6.08863">
        <ele>2075.5</ele>
        <time>2024-07-08T07:43:36Z</time>
      </trkpt>
      <trkpt lat="45.12261" lon="6.08863">
        <ele>2075.4</ele>
        <time>2024-07-08T07:43:37Z</time>
      </trkpt>
      <trkpt lat="45.12262" lon="6.08864">
        <ele>2075.3</ele>
        <time>2024-07-08T07:43:39Z</time>
      </trkpt>
      <trkpt lat="45.12263" lon="6.08864">
        <ele>2075.2</ele>
        <time>2024-07-08T07:43:40Z</time>
      </trkpt>
      <trkpt lat="45.12265" lon="6.08864">
        <ele>2075.2</ele>
        <time>2024-07-08T07:43:41Z</time>
      </trkpt>
      <trkpt lat="45.12266" lon="6.08864">
        <ele>2075.1</ele>
        <time>2024-07-08T07:43:42Z</time>
      </trkpt>
      <trkpt lat="45.12268" lon="6.08863">
        <ele>2075</ele>
        <time>2024-07-08T07:43:44Z</time>
      </trkpt>
      <trkpt lat="45.12269" lon="6.08864">
        <ele>2074.9</ele>
        <time>2024-07-08T07:43:45Z</time>
      </trkpt>
      <trkpt lat="45.1227" lon="6.08864">
        <ele>2074.8</ele>
        <time>2024-07-08T07:43:46Z</time>
      </trkpt>
      <trkpt lat="45.12271" lon="6.08864">
        <ele>2074.8</ele>
        <time>2024-07-08T07:43:47Z</time>
      </trkpt>
      <trkpt lat="45.12272" lon="6.08864">
        <ele>2074.7</ele>
        <time>2024-07-08T07:43:48Z</time>
      </trkpt>
      <trkpt lat="45.12273" lon="6.08865">
        <ele>2074.7</ele>
        <time>2024-07-08T07:43:49Z</time>
      </trkpt>
      <trkpt lat="45.12274" lon="6.08866">
        <ele>2074.6</ele>
        <time>2024-07-08T07:43:50Z</time>
      </trkpt>
      <trkpt lat="45.12275" lon="6.08866">
        <ele>2074.6</ele>
        <time>2024-07-08T07:43:51Z</time>
      </trkpt>
      <trkpt lat="45.12276" lon="6.08866">
        <ele>2074.5</ele>
        <time>2024-07-08T07:43:52Z</time>
      </trkpt>
      <trkpt lat="45.12278" lon="6.08866">
        <ele>2074.4</ele>
        <time>2024-07-08T07:43:54Z</time>
      </trkpt>
      <trkpt lat="45.1228" lon="6.08866">
        <ele>2074.4</ele>
        <time>2024-07-08T07:43:55Z</time>
      </trkpt>
      <trkpt lat="45.12281" lon="6.08866">
        <ele>2074.3</ele>
        <time>2024-07-08T07:43:56Z</time>
      </trkpt>
      <trkpt lat="45.12281" lon="6.08866">
        <ele>2074.3</ele>
        <time>2024-07-08T07:43:57Z</time>
      </trkpt>
      <trkpt lat="45.12283" lon="6.08866">
        <ele>2074.3</ele>
        <time>2024-07-08T07:43:58Z</time>
      </trkpt>
      <trkpt lat="45.12284" lon="6.08866">
        <ele>2074.2</ele>
        <time>2024-07-08T07:43:59Z</time>
      </trkpt>
      <trkpt lat="45.12286" lon="6.08866">
        <ele>2074.2</ele>
        <time>2024-07-08T07:44:00Z</time>
      </trkpt>
      <trkpt lat="45.12287" lon="6.08866">
        <ele>2074.2</ele>
        <time>2024-07-08T07:44:01Z</time>
      </trkpt>
      <trkpt lat="45.12288" lon="6.08866">
        <ele>2074.2</ele>
        <time>2024-07-08T07:44:02Z</time>
      </trkpt>
      <trkpt lat="45.12291" lon="6.08866">
        <ele>2074.2</ele>
        <time>2024-07-08T07:44:04Z</time>
      </trkpt>
      <trkpt lat="45.12291" lon="6.08867">
        <ele>2074.2</ele>
        <time>2024-07-08T07:44:05Z</time>
      </trkpt>
      <trkpt lat="45.12293" lon="6.08867">
        <ele>2074.1</ele>
        <time>2024-07-08T07:44:06Z</time>
      </trkpt>
      <trkpt lat="45.12294" lon="6.08866">
        <ele>2074.1</ele>
        <time>2024-07-08T07:44:07Z</time>
      </trkpt>
      <trkpt lat="45.12295" lon="6.08866">
        <ele>2074.1</ele>
        <time>2024-07-08T07:44:08Z</time>
      </trkpt>
      <trkpt lat="45.12296" lon="6.08866">
        <ele>2074.1</ele>
        <time>2024-07-08T07:44:09Z</time>
      </trkpt>
      <trkpt lat="45.12297" lon="6.08866">
        <ele>2074.1</ele>
        <time>2024-07-08T07:44:10Z</time>
      </trkpt>
      <trkpt lat="45.12298" lon="6.08866">
        <ele>2074.1</ele>
        <time>2024-07-08T07:44:11Z</time>
      </trkpt>
      <trkpt lat="45.12299" lon="6.08865">
        <ele>2074.1</ele>
        <time>2024-07-08T07:44:12Z</time>
      </trkpt>
      <trkpt lat="45.12301" lon="6.08865">
        <ele>2074.1</ele>
        <time>2024-07-08T07:44:13Z</time>
      </trkpt>
      <trkpt lat="45.12302" lon="6.08865">
        <ele>2074.1</ele>
        <time>2024-07-08T07:44:14Z</time>
      </trkpt>
      <trkpt lat="45.12303" lon="6.08865">
        <ele>2074.1</ele>
        <time>2024-07-08T07:44:15Z</time>
      </trkpt>
      <trkpt lat="45.12305" lon="6.08864">
        <ele>2074.1</ele>
        <time>2024-07-08T07:44:16Z</time>
      </trkpt>
      <trkpt lat="45.12306" lon="6.08864">
        <ele>2074.1</ele>
        <time>2024-07-08T07:44:17Z</time>
      </trkpt>
      <trkpt lat="45.12307" lon="6.08864">
        <ele>2074</ele>
        <time>2024-07-08T07:44:18Z</time>
      </trkpt>
      <trkpt lat="45.12308" lon="6.08865">
        <ele>2073.9</ele>
        <time>2024-07-08T07:44:20Z</time>
      </trkpt>
      <trkpt lat="45.12309" lon="6.08866">
        <ele>2073.8</ele>
        <time>2024-07-08T07:44:21Z</time>
      </trkpt>
      <trkpt lat="45.1231" lon="6.08866">
        <ele>2073.7</ele>
        <time>2024-07-08T07:44:22Z</time>
      </trkpt>
      <trkpt lat="45.12311" lon="6.08867">
        <ele>2073.7</ele>
        <time>2024-07-08T07:44:23Z</time>
      </trkpt>
      <trkpt lat="45.12311" lon="6.08867">
        <ele>2073.6</ele>
        <time>2024-07-08T07:44:24Z</time>
      </trkpt>
      <trkpt lat="45.12312" lon="6.08868">
        <ele>2073.5</ele>
        <time>2024-07-08T07:44:25Z</time>
      </trkpt>
      <trkpt lat="45.12313" lon="6.08868">
        <ele>2073.4</ele>
        <time>2024-07-08T07:44:26Z</time>
      </trkpt>
      <trkpt lat="45.12315" lon="6.08867">
        <ele>2073.3</ele>
        <time>2024-07-08T07:44:27Z</time>
      </trkpt>
      <trkpt lat="45.12316" lon="6.08867">
        <ele>2073.2</ele>
        <time>2024-07-08T07:44:28Z</time>
      </trkpt>
      <trkpt lat="45.12317" lon="6.08866">
        <ele>2073.1</ele>
        <time>2024-07-08T07:44:29Z</time>
      </trkpt>
      <trkpt lat="45.12318" lon="6.08866">
        <ele>2073.1</ele>
        <time>2024-07-08T07:44:30Z</time>
      </trkpt>
      <trkpt lat="45.12319" lon="6.08866">
        <ele>2072.9</ele>
        <time>2024-07-08T07:44:31Z</time>
      </trkpt>
      <trkpt lat="45.1232" lon="6.08867">
        <ele>2072.8</ele>
        <time>2024-07-08T07:44:32Z</time>
      </trkpt>
      <trkpt lat="45.12321" lon="6.08868">
        <ele>2072.7</ele>
        <time>2024-07-08T07:44:33Z</time>
      </trkpt>
      <trkpt lat="45.12322" lon="6.08869">
        <ele>2072.6</ele>
        <time>2024-07-08T07:44:35Z</time>
      </trkpt>
      <trkpt lat="45.12323" lon="6.0887">
        <ele>2072.5</ele>
        <time>2024-07-08T07:44:36Z</time>
      </trkpt>
      <trkpt lat="45.12324" lon="6.08871">
        <ele>2072.4</ele>
        <time>2024-07-08T07:44:37Z</time>
      </trkpt>
      <trkpt lat="45.12325" lon="6.08872">
        <ele>2072.4</ele>
        <time>2024-07-08T07:44:38Z</time>
      </trkpt>
      <trkpt lat="45.12325" lon="6.08874">
        <ele>2072.3</ele>
        <time>2024-07-08T07:44:39Z</time>
      </trkpt>
      <trkpt lat="45.12325" lon="6.08875">
        <ele>2072.2</ele>
        <time>2024-07-08T07:44:40Z</time>
      </trkpt>
      <trkpt lat="45.12326" lon="6.08877">
        <ele>2072.1</ele>
        <time>2024-07-08T07:44:41Z</time>
      </trkpt>
      <trkpt lat="45.12327" lon="6.08878">
        <ele>2071.9</ele>
        <time>2024-07-08T07:44:42Z</time>
      </trkpt>
      <trkpt lat="45.12328" lon="6.08879">
        <ele>2071.9</ele>
        <time>2024-07-08T07:44:43Z</time>
      </trkpt>
      <trkpt lat="45.12329" lon="6.08879">
        <ele>2071.8</ele>
        <time>2024-07-08T07:44:44Z</time>
      </trkpt>
      <trkpt lat="45.12331" lon="6.0888">
        <ele>2071.7</ele>
        <time>2024-07-08T07:44:45Z</time>
      </trkpt>
      <trkpt lat="45.12332" lon="6.0888">
        <ele>2071.7</ele>
        <time>2024-07-08T07:44:46Z</time>
      </trkpt>
      <trkpt lat="45.12333" lon="6.0888">
        <ele>2071.7</ele>
        <time>2024-07-08T07:44:47Z</time>
      </trkpt>
      <trkpt lat="45.12335" lon="6.08879">
        <ele>2071.7</ele>
        <time>2024-07-08T07:44:48Z</time>
      </trkpt>
      <trkpt lat="45.12336" lon="6.08878">
        <ele>2071.6</ele>
        <time>2024-07-08T07:44:49Z</time>
      </trkpt>
      <trkpt lat="45.12337" lon="6.08878">
        <ele>2071.6</ele>
        <time>2024-07-08T07:44:50Z</time>
      </trkpt>
      <trkpt lat="45.12338" lon="6.08878">
        <ele>2071.6</ele>
        <time>2024-07-08T07:44:51Z</time>
      </trkpt>
      <trkpt lat="45.12339" lon="6.08878">
        <ele>2071.5</ele>
        <time>2024-07-08T07:44:52Z</time>
      </trkpt>
      <trkpt lat="45.1234" lon="6.08878">
        <ele>2071.5</ele>
        <time>2024-07-08T07:44:53Z</time>
      </trkpt>
      <trkpt lat="45.12341" lon="6.08878">
        <ele>2071.5</ele>
        <time>2024-07-08T07:44:54Z</time>
      </trkpt>
      <trkpt lat="45.12342" lon="6.08879">
        <ele>2071.5</ele>
        <time>2024-07-08T07:44:55Z</time>
      </trkpt>
      <trkpt lat="45.12344" lon="6.0888">
        <ele>2071.4</ele>
        <time>2024-07-08T07:44:56Z</time>
      </trkpt>
      <trkpt lat="45.12345" lon="6.08881">
        <ele>2071.4</ele>
        <time>2024-07-08T07:44:57Z</time>
      </trkpt>
      <trkpt lat="45.12347" lon="6.08882">
        <ele>2071.4</ele>
        <time>2024-07-08T07:44:58Z</time>
      </trkpt>
      <trkpt lat="45.12348" lon="6.08882">
        <ele>2071.4</ele>
        <time>2024-07-08T07:44:59Z</time>
      </trkpt>
      <trkpt lat="45.12348" lon="6.08883">
        <ele>2071.3</ele>
        <time>2024-07-08T07:45:00Z</time>
      </trkpt>
      <trkpt lat="45.1235" lon="6.08884">
        <ele>2071.3</ele>
        <time>2024-07-08T07:45:01Z</time>
      </trkpt>
      <trkpt lat="45.12351" lon="6.08884">
        <ele>2071.3</ele>
        <time>2024-07-08T07:45:02Z</time>
      </trkpt>
      <trkpt lat="45.12352" lon="6.08884">
        <ele>2071.3</ele>
        <time>2024-07-08T07:45:03Z</time>
      </trkpt>
      <trkpt lat="45.12353" lon="6.08885">
        <ele>2071.2</ele>
        <time>2024-07-08T07:45:04Z</time>
      </trkpt>
      <trkpt lat="45.12354" lon="6.08886">
        <ele>2071.2</ele>
        <time>2024-07-08T07:45:05Z</time>
      </trkpt>
      <trkpt lat="45.12354" lon="6.08887">
        <ele>2071.2</ele>
        <time>2024-07-08T07:45:06Z</time>
      </trkpt>
      <trkpt lat="45.12355" lon="6.08887">
        <ele>2071.2</ele>
        <time>2024-07-08T07:45:07Z</time>
      </trkpt>
      <trkpt lat="45.12356" lon="6.08887">
        <ele>2071.2</ele>
        <time>2024-07-08T07:45:08Z</time>
      </trkpt>
      <trkpt lat="45.12357" lon="6.08888">
        <ele>2071.1</ele>
        <time>2024-07-08T07:45:09Z</time>
      </trkpt>
      <trkpt lat="45.12358" lon="6.08888">
        <ele>2071.1</ele>
        <time>2024-07-08T07:45:10Z</time>
      </trkpt>
      <trkpt lat="45.12359" lon="6.08889">
        <ele>2071.1</ele>
        <time>2024-07-08T07:45:11Z</time>
      </trkpt>
      <trkpt lat="45.1236" lon="6.0889">
        <ele>2071</ele>
        <time>2024-07-08T07:45:12Z</time>
      </trkpt>
      <trkpt lat="45.12362" lon="6.0889">
        <ele>2070.9</ele>
        <time>2024-07-08T07:45:13Z</time>
      </trkpt>
      <trkpt lat="45.12363" lon="6.08891">
        <ele>2070.8</ele>
        <time>2024-07-08T07:45:14Z</time>
      </trkpt>
      <trkpt lat="45.12364" lon="6.08891">
        <ele>2070.7</ele>
        <time>2024-07-08T07:45:15Z</time>
      </trkpt>
      <trkpt lat="45.12364" lon="6.08892">
        <ele>2070.6</ele>
        <time>2024-07-08T07:45:16Z</time>
      </trkpt>
      <trkpt lat="45.12365" lon="6.08892">
        <ele>2070.6</ele>
        <time>2024-07-08T07:45:17Z</time>
      </trkpt>
      <trkpt lat="45.12368" lon="6.08894">
        <ele>2070.3</ele>
        <time>2024-07-08T07:45:19Z</time>
      </trkpt>
      <trkpt lat="45.12369" lon="6.08894">
        <ele>2070.2</ele>
        <time>2024-07-08T07:45:20Z</time>
      </trkpt>
      <trkpt lat="45.12371" lon="6.08895">
        <ele>2070</ele>
        <time>2024-07-08T07:45:21Z</time>
      </trkpt>
      <trkpt lat="45.12371" lon="6.08895">
        <ele>2069.9</ele>
        <time>2024-07-08T07:45:22Z</time>
      </trkpt>
      <trkpt lat="45.12372" lon="6.08895">
        <ele>2069.8</ele>
        <time>2024-07-08T07:45:23Z</time>
      </trkpt>
      <trkpt lat="45.12373" lon="6.08895">
        <ele>2069.6</ele>
        <time>2024-07-08T07:45:24Z</time>
      </trkpt>
      <trkpt lat="45.12375" lon="6.08895">
        <ele>2069.4</ele>
        <time>2024-07-08T07:45:25Z</time>
      </trkpt>
      <trkpt lat="45.12376" lon="6.08895">
        <ele>2069.3</ele>
        <time>2024-07-08T07:45:26Z</time>
      </trkpt>
      <trkpt lat="45.12377" lon="6.08895">
        <ele>2069.1</ele>
        <time>2024-07-08T07:45:27Z</time>
      </trkpt>
      <trkpt lat="45.12379" lon="6.08893">
        <ele>2068.7</ele>
        <time>2024-07-08T07:45:28Z</time>
      </trkpt>
      <trkpt lat="45.12379" lon="6.08893">
        <ele>2068.6</ele>
        <time>2024-07-08T07:45:29Z</time>
      </trkpt>
      <trkpt lat="45.1238" lon="6.08892">
        <ele>2068.5</ele>
        <time>2024-07-08T07:45:30Z</time>
      </trkpt>
      <trkpt lat="45.12381" lon="6.08892">
        <ele>2068.3</ele>
        <time>2024-07-08T07:45:31Z</time>
      </trkpt>
      <trkpt lat="45.12383" lon="6.08891">
        <ele>2067.9</ele>
        <time>2024-07-08T07:45:32Z</time>
      </trkpt>
      <trkpt lat="45.12384" lon="6.08891">
        <ele>2067.8</ele>
        <time>2024-07-08T07:45:33Z</time>
      </trkpt>
      <trkpt lat="45.12385" lon="6.0889">
        <ele>2067.7</ele>
        <time>2024-07-08T07:45:35Z</time>
      </trkpt>
      <trkpt lat="45.12385" lon="6.0889">
        <ele>2067.5</ele>
        <time>2024-07-08T07:45:36Z</time>
      </trkpt>
      <trkpt lat="45.12386" lon="6.0889">
        <ele>2067.4</ele>
        <time>2024-07-08T07:45:38Z</time>
      </trkpt>
      <trkpt lat="45.12387" lon="6.08889">
        <ele>2067.2</ele>
        <time>2024-07-08T07:45:40Z</time>
      </trkpt>
      <trkpt lat="45.12388" lon="6.08889">
        <ele>2067.1</ele>
        <time>2024-07-08T07:45:41Z</time>
      </trkpt>
      <trkpt lat="45.12389" lon="6.08889">
        <ele>2067</ele>
        <time>2024-07-08T07:45:42Z</time>
      </trkpt>
      <trkpt lat="45.12389" lon="6.08889">
        <ele>2066.8</ele>
        <time>2024-07-08T07:45:43Z</time>
      </trkpt>
      <trkpt lat="45.1239" lon="6.08888">
        <ele>2066.7</ele>
        <time>2024-07-08T07:45:45Z</time>
      </trkpt>
      <trkpt lat="45.12391" lon="6.08888">
        <ele>2066.6</ele>
        <time>2024-07-08T07:45:46Z</time>
      </trkpt>
      <trkpt lat="45.12392" lon="6.08889">
        <ele>2066.3</ele>
        <time>2024-07-08T07:45:47Z</time>
      </trkpt>
      <trkpt lat="45.12394" lon="6.0889">
        <ele>2066</ele>
        <time>2024-07-08T07:45:48Z</time>
      </trkpt>
      <trkpt lat="45.12395" lon="6.0889">
        <ele>2065.9</ele>
        <time>2024-07-08T07:45:49Z</time>
      </trkpt>
      <trkpt lat="45.12396" lon="6.0889">
        <ele>2065.7</ele>
        <time>2024-07-08T07:45:50Z</time>
      </trkpt>
      <trkpt lat="45.12397" lon="6.08889">
        <ele>2065.5</ele>
        <time>2024-07-08T07:45:51Z</time>
      </trkpt>
      <trkpt lat="45.12398" lon="6.08888">
        <ele>2065.4</ele>
        <time>2024-07-08T07:45:52Z</time>
      </trkpt>
      <trkpt lat="45.124" lon="6.08888">
        <ele>2065.1</ele>
        <time>2024-07-08T07:45:53Z</time>
      </trkpt>
      <trkpt lat="45.12401" lon="6.08887">
        <ele>2065.1</ele>
        <time>2024-07-08T07:45:54Z</time>
      </trkpt>
      <trkpt lat="45.12402" lon="6.08887">
        <ele>2064.9</ele>
        <time>2024-07-08T07:45:55Z</time>
      </trkpt>
      <trkpt lat="45.12403" lon="6.08887">
        <ele>2064.8</ele>
        <time>2024-07-08T07:45:56Z</time>
      </trkpt>
      <trkpt lat="45.12404" lon="6.08885">
        <ele>2064.7</ele>
        <time>2024-07-08T07:45:57Z</time>
      </trkpt>
      <trkpt lat="45.12406" lon="6.08884">
        <ele>2064.5</ele>
        <time>2024-07-08T07:45:58Z</time>
      </trkpt>
      <trkpt lat="45.12406" lon="6.08882">
        <ele>2064.5</ele>
        <time>2024-07-08T07:45:59Z</time>
      </trkpt>
      <trkpt lat="45.12406" lon="6.08881">
        <ele>2064.4</ele>
        <time>2024-07-08T07:46:00Z</time>
      </trkpt>
      <trkpt lat="45.12407" lon="6.08879">
        <ele>2064.3</ele>
        <time>2024-07-08T07:46:01Z</time>
      </trkpt>
      <trkpt lat="45.12407" lon="6.08878">
        <ele>2064.3</ele>
        <time>2024-07-08T07:46:02Z</time>
      </trkpt>
      <trkpt lat="45.12409" lon="6.08876">
        <ele>2064.1</ele>
        <time>2024-07-08T07:46:03Z</time>
      </trkpt>
      <trkpt lat="45.1241" lon="6.08875">
        <ele>2064.1</ele>
        <time>2024-07-08T07:46:04Z</time>
      </trkpt>
      <trkpt lat="45.12411" lon="6.08875">
        <ele>2064.1</ele>
        <time>2024-07-08T07:46:05Z</time>
      </trkpt>
      <trkpt lat="45.12412" lon="6.08875">
        <ele>2064</ele>
        <time>2024-07-08T07:46:06Z</time>
      </trkpt>
      <trkpt lat="45.12413" lon="6.08875">
        <ele>2064</ele>
        <time>2024-07-08T07:46:07Z</time>
      </trkpt>
      <trkpt lat="45.12414" lon="6.08875">
        <ele>2063.9</ele>
        <time>2024-07-08T07:46:08Z</time>
      </trkpt>
      <trkpt lat="45.12416" lon="6.08874">
        <ele>2063.9</ele>
        <time>2024-07-08T07:46:09Z</time>
      </trkpt>
      <trkpt lat="45.12417" lon="6.08873">
        <ele>2063.9</ele>
        <time>2024-07-08T07:46:10Z</time>
      </trkpt>
      <trkpt lat="45.12419" lon="6.08873">
        <ele>2063.8</ele>
        <time>2024-07-08T07:46:11Z</time>
      </trkpt>
      <trkpt lat="45.1242" lon="6.08873">
        <ele>2063.8</ele>
        <time>2024-07-08T07:46:12Z</time>
      </trkpt>
      <trkpt lat="45.12421" lon="6.08873">
        <ele>2063.8</ele>
        <time>2024-07-08T07:46:13Z</time>
      </trkpt>
      <trkpt lat="45.12422" lon="6.08874">
        <ele>2063.7</ele>
        <time>2024-07-08T07:46:14Z</time>
      </trkpt>
      <trkpt lat="45.12423" lon="6.08874">
        <ele>2063.7</ele>
        <time>2024-07-08T07:46:15Z</time>
      </trkpt>
      <trkpt lat="45.12425" lon="6.08874">
        <ele>2063.7</ele>
        <time>2024-07-08T07:46:16Z</time>
      </trkpt>
      <trkpt lat="45.12426" lon="6.08874">
        <ele>2063.6</ele>
        <time>2024-07-08T07:46:17Z</time>
      </trkpt>
      <trkpt lat="45.12427" lon="6.08874">
        <ele>2063.6</ele>
        <time>2024-07-08T07:46:18Z</time>
      </trkpt>
      <trkpt lat="45.12428" lon="6.08873">
        <ele>2063.6</ele>
        <time>2024-07-08T07:46:19Z</time>
      </trkpt>
      <trkpt lat="45.1243" lon="6.08873">
        <ele>2063.6</ele>
        <time>2024-07-08T07:46:20Z</time>
      </trkpt>
      <trkpt lat="45.12431" lon="6.08872">
        <ele>2063.5</ele>
        <time>2024-07-08T07:46:21Z</time>
      </trkpt>
      <trkpt lat="45.12433" lon="6.08872">
        <ele>2063.5</ele>
        <time>2024-07-08T07:46:22Z</time>
      </trkpt>
      <trkpt lat="45.12434" lon="6.08872">
        <ele>2063.5</ele>
        <time>2024-07-08T07:46:23Z</time>
      </trkpt>
      <trkpt lat="45.12435" lon="6.08872">
        <ele>2063.5</ele>
        <time>2024-07-08T07:46:24Z</time>
      </trkpt>
      <trkpt lat="45.12436" lon="6.08871">
        <ele>2063.5</ele>
        <time>2024-07-08T07:46:25Z</time>
      </trkpt>
      <trkpt lat="45.12437" lon="6.08871">
        <ele>2063.5</ele>
        <time>2024-07-08T07:46:26Z</time>
      </trkpt>
      <trkpt lat="45.12438" lon="6.08871">
        <ele>2063.5</ele>
        <time>2024-07-08T07:46:27Z</time>
      </trkpt>
      <trkpt lat="45.1244" lon="6.08871">
        <ele>2063.5</ele>
        <time>2024-07-08T07:46:28Z</time>
      </trkpt>
      <trkpt lat="45.12441" lon="6.08871">
        <ele>2063.5</ele>
        <time>2024-07-08T07:46:29Z</time>
      </trkpt>
      <trkpt lat="45.12442" lon="6.08871">
        <ele>2063.5</ele>
        <time>2024-07-08T07:46:30Z</time>
      </trkpt>
      <trkpt lat="45.12444" lon="6.0887">
        <ele>2063.6</ele>
        <time>2024-07-08T07:46:31Z</time>
      </trkpt>
      <trkpt lat="45.12444" lon="6.0887">
        <ele>2063.6</ele>
        <time>2024-07-08T07:46:32Z</time>
      </trkpt>
      <trkpt lat="45.12445" lon="6.0887">
        <ele>2063.6</ele>
        <time>2024-07-08T07:46:33Z</time>
      </trkpt>
      <trkpt lat="45.12447" lon="6.0887">
        <ele>2063.6</ele>
        <time>2024-07-08T07:46:34Z</time>
      </trkpt>
      <trkpt lat="45.12448" lon="6.08869">
        <ele>2063.6</ele>
        <time>2024-07-08T07:46:35Z</time>
      </trkpt>
      <trkpt lat="45.12449" lon="6.08868">
        <ele>2063.7</ele>
        <time>2024-07-08T07:46:36Z</time>
      </trkpt>
      <trkpt lat="45.1245" lon="6.08868">
        <ele>2063.7</ele>
        <time>2024-07-08T07:46:37Z</time>
      </trkpt>
      <trkpt lat="45.12451" lon="6.08867">
        <ele>2063.7</ele>
        <time>2024-07-08T07:46:38Z</time>
      </trkpt>
      <trkpt lat="45.12451" lon="6.08866">
        <ele>2063.7</ele>
        <time>2024-07-08T07:46:39Z</time>
      </trkpt>
      <trkpt lat="45.12452" lon="6.08864">
        <ele>2063.7</ele>
        <time>2024-07-08T07:46:40Z</time>
      </trkpt>
      <trkpt lat="45.12452" lon="6.08862">
        <ele>2063.7</ele>
        <time>2024-07-08T07:46:41Z</time>
      </trkpt>
      <trkpt lat="45.12453" lon="6.08861">
        <ele>2063.7</ele>
        <time>2024-07-08T07:46:42Z</time>
      </trkpt>
      <trkpt lat="45.12453" lon="6.0886">
        <ele>2063.7</ele>
        <time>2024-07-08T07:46:43Z</time>
      </trkpt>
      <trkpt lat="45.12454" lon="6.08857">
        <ele>2063.6</ele>
        <time>2024-07-08T07:46:44Z</time>
      </trkpt>
      <trkpt lat="45.12455" lon="6.08856">
        <ele>2063.6</ele>
        <time>2024-07-08T07:46:45Z</time>
      </trkpt>
      <trkpt lat="45.12455" lon="6.08856">
        <ele>2063.6</ele>
        <time>2024-07-08T07:46:46Z</time>
      </trkpt>
      <trkpt lat="45.12456" lon="6.08855">
        <ele>2063.6</ele>
        <time>2024-07-08T07:46:47Z</time>
      </trkpt>
      <trkpt lat="45.12457" lon="6.08854">
        <ele>2063.5</ele>
        <time>2024-07-08T07:46:48Z</time>
      </trkpt>
      <trkpt lat="45.12458" lon="6.08853">
        <ele>2063.4</ele>
        <time>2024-07-08T07:46:49Z</time>
      </trkpt>
      <trkpt lat="45.12459" lon="6.08852">
        <ele>2063.4</ele>
        <time>2024-07-08T07:46:50Z</time>
      </trkpt>
      <trkpt lat="45.1246" lon="6.0885">
        <ele>2063.3</ele>
        <time>2024-07-08T07:46:51Z</time>
      </trkpt>
      <trkpt lat="45.1246" lon="6.08848">
        <ele>2063.2</ele>
        <time>2024-07-08T07:46:52Z</time>
      </trkpt>
      <trkpt lat="45.1246" lon="6.08847">
        <ele>2063.2</ele>
        <time>2024-07-08T07:46:53Z</time>
      </trkpt>
      <trkpt lat="45.12461" lon="6.08846">
        <ele>2063.1</ele>
        <time>2024-07-08T07:46:54Z</time>
      </trkpt>
      <trkpt lat="45.12462" lon="6.08845">
        <ele>2063</ele>
        <time>2024-07-08T07:46:55Z</time>
      </trkpt>
      <trkpt lat="45.12463" lon="6.08845">
        <ele>2063</ele>
        <time>2024-07-08T07:46:56Z</time>
      </trkpt>
      <trkpt lat="45.12464" lon="6.08844">
        <ele>2062.9</ele>
        <time>2024-07-08T07:46:57Z</time>
      </trkpt>
      <trkpt lat="45.12465" lon="6.08843">
        <ele>2062.9</ele>
        <time>2024-07-08T07:46:58Z</time>
      </trkpt>
      <trkpt lat="45.12466" lon="6.08842">
        <ele>2062.9</ele>
        <time>2024-07-08T07:46:59Z</time>
      </trkpt>
      <trkpt lat="45.12466" lon="6.08841">
        <ele>2062.9</ele>
        <time>2024-07-08T07:47:00Z</time>
      </trkpt>
      <trkpt lat="45.12468" lon="6.0884">
        <ele>2062.9</ele>
        <time>2024-07-08T07:47:01Z</time>
      </trkpt>
      <trkpt lat="45.12468" lon="6.0884">
        <ele>2062.9</ele>
        <time>2024-07-08T07:47:02Z</time>
      </trkpt>
      <trkpt lat="45.12469" lon="6.08839">
        <ele>2062.9</ele>
        <time>2024-07-08T07:47:03Z</time>
      </trkpt>
      <trkpt lat="45.1247" lon="6.08838">
        <ele>2062.9</ele>
        <time>2024-07-08T07:47:04Z</time>
      </trkpt>
      <trkpt lat="45.12471" lon="6.08838">
        <ele>2062.9</ele>
        <time>2024-07-08T07:47:05Z</time>
      </trkpt>
      <trkpt lat="45.12472" lon="6.08837">
        <ele>2062.8</ele>
        <time>2024-07-08T07:47:06Z</time>
      </trkpt>
      <trkpt lat="45.12473" lon="6.08837">
        <ele>2062.8</ele>
        <time>2024-07-08T07:47:07Z</time>
      </trkpt>
      <trkpt lat="45.12474" lon="6.08838">
        <ele>2062.8</ele>
        <time>2024-07-08T07:47:08Z</time>
      </trkpt>
      <trkpt lat="45.12475" lon="6.08838">
        <ele>2062.8</ele>
        <time>2024-07-08T07:47:09Z</time>
      </trkpt>
      <trkpt lat="45.12476" lon="6.08838">
        <ele>2062.8</ele>
        <time>2024-07-08T07:47:11Z</time>
      </trkpt>
      <trkpt lat="45.12476" lon="6.08838">
        <ele>2062.8</ele>
        <time>2024-07-08T07:47:12Z</time>
      </trkpt>
      <trkpt lat="45.12477" lon="6.08839">
        <ele>2062.8</ele>
        <time>2024-07-08T07:47:13Z</time>
      </trkpt>
      <trkpt lat="45.12478" lon="6.08839">
        <ele>2062.8</ele>
        <time>2024-07-08T07:47:14Z</time>
      </trkpt>
      <trkpt lat="45.12479" lon="6.08839">
        <ele>2062.8</ele>
        <time>2024-07-08T07:47:15Z</time>
      </trkpt>
      <trkpt lat="45.1248" lon="6.08839">
        <ele>2062.8</ele>
        <time>2024-07-08T07:47:16Z</time>
      </trkpt>
      <trkpt lat="45.12481" lon="6.08839">
        <ele>2062.9</ele>
        <time>2024-07-08T07:47:17Z</time>
      </trkpt>
      <trkpt lat="45.12482" lon="6.0884">
        <ele>2062.9</ele>
        <time>2024-07-08T07:47:18Z</time>
      </trkpt>
      <trkpt lat="45.12483" lon="6.0884">
        <ele>2062.9</ele>
        <time>2024-07-08T07:47:19Z</time>
      </trkpt>
      <trkpt lat="45.12483" lon="6.08841">
        <ele>2062.9</ele>
        <time>2024-07-08T07:47:20Z</time>
      </trkpt>
      <trkpt lat="45.12484" lon="6.08842">
        <ele>2062.9</ele>
        <time>2024-07-08T07:47:21Z</time>
      </trkpt>
      <trkpt lat="45.12485" lon="6.08843">
        <ele>2062.9</ele>
        <time>2024-07-08T07:47:22Z</time>
      </trkpt>
      <trkpt lat="45.12485" lon="6.08844">
        <ele>2062.9</ele>
        <time>2024-07-08T07:47:23Z</time>
      </trkpt>
      <trkpt lat="45.12486" lon="6.08845">
        <ele>2062.9</ele>
        <time>2024-07-08T07:47:24Z</time>
      </trkpt>
      <trkpt lat="45.12486" lon="6.08845">
        <ele>2063</ele>
        <time>2024-07-08T07:47:25Z</time>
      </trkpt>
      <trkpt lat="45.12487" lon="6.08846">
        <ele>2063</ele>
        <time>2024-07-08T07:47:26Z</time>
      </trkpt>
      <trkpt lat="45.12488" lon="6.08846">
        <ele>2063</ele>
        <time>2024-07-08T07:47:27Z</time>
      </trkpt>
      <trkpt lat="45.12488" lon="6.08847">
        <ele>2063</ele>
        <time>2024-07-08T07:47:28Z</time>
      </trkpt>
      <trkpt lat="45.12488" lon="6.08848">
        <ele>2063</ele>
        <time>2024-07-08T07:47:29Z</time>
      </trkpt>
      <trkpt lat="45.12489" lon="6.08849">
        <ele>2063</ele>
        <time>2024-07-08T07:47:30Z</time>
      </trkpt>
      <trkpt lat="45.12491" lon="6.0885">
        <ele>2063.1</ele>
        <time>2024-07-08T07:47:31Z</time>
      </trkpt>
      <trkpt lat="45.12492" lon="6.0885">
        <ele>2063.1</ele>
        <time>2024-07-08T07:47:32Z</time>
      </trkpt>
      <trkpt lat="45.12493" lon="6.08851">
        <ele>2063.1</ele>
        <time>2024-07-08T07:47:33Z</time>
      </trkpt>
      <trkpt lat="45.12494" lon="6.0885">
        <ele>2063.2</ele>
        <time>2024-07-08T07:47:34Z</time>
      </trkpt>
      <trkpt lat="45.12495" lon="6.08849">
        <ele>2063.2</ele>
        <time>2024-07-08T07:47:35Z</time>
      </trkpt>
      <trkpt lat="45.12496" lon="6.08847">
        <ele>2063.3</ele>
        <time>2024-07-08T07:47:36Z</time>
      </trkpt>
      <trkpt lat="45.12497" lon="6.08846">
        <ele>2063.3</ele>
        <time>2024-07-08T07:47:37Z</time>
      </trkpt>
      <trkpt lat="45.12498" lon="6.08845">
        <ele>2063.3</ele>
        <time>2024-07-08T07:47:38Z</time>
      </trkpt>
      <trkpt lat="45.12499" lon="6.08845">
        <ele>2063.3</ele>
        <time>2024-07-08T07:47:39Z</time>
      </trkpt>
      <trkpt lat="45.125" lon="6.08845">
        <ele>2063.3</ele>
        <time>2024-07-08T07:47:40Z</time>
      </trkpt>
      <trkpt lat="45.12501" lon="6.08845">
        <ele>2063.3</ele>
        <time>2024-07-08T07:47:41Z</time>
      </trkpt>
      <trkpt lat="45.12502" lon="6.08844">
        <ele>2063.3</ele>
        <time>2024-07-08T07:47:42Z</time>
      </trkpt>
      <trkpt lat="45.12503" lon="6.08844">
        <ele>2063.4</ele>
        <time>2024-07-08T07:47:43Z</time>
      </trkpt>
      <trkpt lat="45.12504" lon="6.08843">
        <ele>2063.4</ele>
        <time>2024-07-08T07:47:44Z</time>
      </trkpt>
      <trkpt lat="45.12505" lon="6.08844">
        <ele>2063.4</ele>
        <time>2024-07-08T07:47:45Z</time>
      </trkpt>
      <trkpt lat="45.12506" lon="6.08844">
        <ele>2063.3</ele>
        <time>2024-07-08T07:47:46Z</time>
      </trkpt>
      <trkpt lat="45.12507" lon="6.08844">
        <ele>2063.3</ele>
        <time>2024-07-08T07:47:47Z</time>
      </trkpt>
      <trkpt lat="45.12508" lon="6.08844">
        <ele>2063.3</ele>
        <time>2024-07-08T07:47:48Z</time>
      </trkpt>
      <trkpt lat="45.1251" lon="6.08845">
        <ele>2063.3</ele>
        <time>2024-07-08T07:47:49Z</time>
      </trkpt>
      <trkpt lat="45.12511" lon="6.08845">
        <ele>2063.3</ele>
        <time>2024-07-08T07:47:50Z</time>
      </trkpt>
      <trkpt lat="45.12512" lon="6.08845">
        <ele>2063.3</ele>
        <time>2024-07-08T07:47:51Z</time>
      </trkpt>
      <trkpt lat="45.12513" lon="6.08845">
        <ele>2063.2</ele>
        <time>2024-07-08T07:47:53Z</time>
      </trkpt>
      <trkpt lat="45.12515" lon="6.08845">
        <ele>2063.2</ele>
        <time>2024-07-08T07:47:54Z</time>
      </trkpt>
      <trkpt lat="45.12517" lon="6.08844">
        <ele>2063.1</ele>
        <time>2024-07-08T07:47:55Z</time>
      </trkpt>
      <trkpt lat="45.12518" lon="6.08844">
        <ele>2063.1</ele>
        <time>2024-07-08T07:47:57Z</time>
      </trkpt>
      <trkpt lat="45.12519" lon="6.08844">
        <ele>2063.1</ele>
        <time>2024-07-08T07:47:58Z</time>
      </trkpt>
      <trkpt lat="45.1252" lon="6.08844">
        <ele>2063</ele>
        <time>2024-07-08T07:47:59Z</time>
      </trkpt>
      <trkpt lat="45.12521" lon="6.08844">
        <ele>2063</ele>
        <time>2024-07-08T07:48:00Z</time>
      </trkpt>
      <trkpt lat="45.12523" lon="6.08843">
        <ele>2062.9</ele>
        <time>2024-07-08T07:48:01Z</time>
      </trkpt>
      <trkpt lat="45.12523" lon="6.08842">
        <ele>2062.9</ele>
        <time>2024-07-08T07:48:02Z</time>
      </trkpt>
      <trkpt lat="45.12524" lon="6.08842">
        <ele>2062.8</ele>
        <time>2024-07-08T07:48:03Z</time>
      </trkpt>
      <trkpt lat="45.12526" lon="6.08843">
        <ele>2062.7</ele>
        <time>2024-07-08T07:48:04Z</time>
      </trkpt>
      <trkpt lat="45.12526" lon="6.08843">
        <ele>2062.7</ele>
        <time>2024-07-08T07:48:05Z</time>
      </trkpt>
      <trkpt lat="45.12527" lon="6.08845">
        <ele>2062.6</ele>
        <time>2024-07-08T07:48:06Z</time>
      </trkpt>
      <trkpt lat="45.12528" lon="6.08845">
        <ele>2062.5</ele>
        <time>2024-07-08T07:48:07Z</time>
      </trkpt>
      <trkpt lat="45.12529" lon="6.08845">
        <ele>2062.5</ele>
        <time>2024-07-08T07:48:08Z</time>
      </trkpt>
      <trkpt lat="45.1253" lon="6.08846">
        <ele>2062.4</ele>
        <time>2024-07-08T07:48:09Z</time>
      </trkpt>
      <trkpt lat="45.12531" lon="6.08846">
        <ele>2062.3</ele>
        <time>2024-07-08T07:48:10Z</time>
      </trkpt>
      <trkpt lat="45.12532" lon="6.08848">
        <ele>2062.2</ele>
        <time>2024-07-08T07:48:11Z</time>
      </trkpt>
      <trkpt lat="45.12532" lon="6.08849">
        <ele>2062.2</ele>
        <time>2024-07-08T07:48:12Z</time>
      </trkpt>
      <trkpt lat="45.12533" lon="6.08848">
        <ele>2062.1</ele>
        <time>2024-07-08T07:48:13Z</time>
      </trkpt>
      <trkpt lat="45.12534" lon="6.08847">
        <ele>2062.1</ele>
        <time>2024-07-08T07:48:14Z</time>
      </trkpt>
      <trkpt lat="45.12535" lon="6.08847">
        <ele>2062.1</ele>
        <time>2024-07-08T07:48:15Z</time>
      </trkpt>
      <trkpt lat="45.12536" lon="6.08846">
        <ele>2062</ele>
        <time>2024-07-08T07:48:16Z</time>
      </trkpt>
      <trkpt lat="45.12537" lon="6.08846">
        <ele>2062</ele>
        <time>2024-07-08T07:48:17Z</time>
      </trkpt>
      <trkpt lat="45.12538" lon="6.08846">
        <ele>2061.9</ele>
        <time>2024-07-08T07:48:18Z</time>
      </trkpt>
      <trkpt lat="45.12539" lon="6.08845">
        <ele>2061.9</ele>
        <time>2024-07-08T07:48:19Z</time>
      </trkpt>
      <trkpt lat="45.12539" lon="6.08845">
        <ele>2061.9</ele>
        <time>2024-07-08T07:48:20Z</time>
      </trkpt>
      <trkpt lat="45.12541" lon="6.08845">
        <ele>2061.9</ele>
        <time>2024-07-08T07:48:21Z</time>
      </trkpt>
      <trkpt lat="45.12542" lon="6.08845">
        <ele>2061.8</ele>
        <time>2024-07-08T07:48:22Z</time>
      </trkpt>
      <trkpt lat="45.12542" lon="6.08845">
        <ele>2061.8</ele>
        <time>2024-07-08T07:48:23Z</time>
      </trkpt>
      <trkpt lat="45.12543" lon="6.08844">
        <ele>2061.8</ele>
        <time>2024-07-08T07:48:24Z</time>
      </trkpt>
      <trkpt lat="45.12544" lon="6.08844">
        <ele>2061.8</ele>
        <time>2024-07-08T07:48:25Z</time>
      </trkpt>
      <trkpt lat="45.12546" lon="6.08844">
        <ele>2061.9</ele>
        <time>2024-07-08T07:48:26Z</time>
      </trkpt>
      <trkpt lat="45.12546" lon="6.08844">
        <ele>2061.9</ele>
        <time>2024-07-08T07:48:27Z</time>
      </trkpt>
      <trkpt lat="45.12547" lon="6.08845">
        <ele>2061.9</ele>
        <time>2024-07-08T07:48:28Z</time>
      </trkpt>
      <trkpt lat="45.12549" lon="6.08844">
        <ele>2061.9</ele>
        <time>2024-07-08T07:48:29Z</time>
      </trkpt>
      <trkpt lat="45.1255" lon="6.08843">
        <ele>2062</ele>
        <time>2024-07-08T07:48:30Z</time>
      </trkpt>
      <trkpt lat="45.12551" lon="6.08843">
        <ele>2062</ele>
        <time>2024-07-08T07:48:31Z</time>
      </trkpt>
      <trkpt lat="45.12552" lon="6.08843">
        <ele>2062.1</ele>
        <time>2024-07-08T07:48:32Z</time>
      </trkpt>
      <trkpt lat="45.12554" lon="6.08844">
        <ele>2062.2</ele>
        <time>2024-07-08T07:48:34Z</time>
      </trkpt>
      <trkpt lat="45.12555" lon="6.08844">
        <ele>2062.2</ele>
        <time>2024-07-08T07:48:35Z</time>
      </trkpt>
      <trkpt lat="45.12556" lon="6.08844">
        <ele>2062.3</ele>
        <time>2024-07-08T07:48:36Z</time>
      </trkpt>
      <trkpt lat="45.12557" lon="6.08845">
        <ele>2062.4</ele>
        <time>2024-07-08T07:48:37Z</time>
      </trkpt>
      <trkpt lat="45.12557" lon="6.08846">
        <ele>2062.5</ele>
        <time>2024-07-08T07:48:38Z</time>
      </trkpt>
      <trkpt lat="45.12558" lon="6.08847">
        <ele>2062.6</ele>
        <time>2024-07-08T07:48:39Z</time>
      </trkpt>
      <trkpt lat="45.12559" lon="6.08848">
        <ele>2062.7</ele>
        <time>2024-07-08T07:48:40Z</time>
      </trkpt>
      <trkpt lat="45.12559" lon="6.08849">
        <ele>2062.9</ele>
        <time>2024-07-08T07:48:41Z</time>
      </trkpt>
      <trkpt lat="45.1256" lon="6.0885">
        <ele>2063</ele>
        <time>2024-07-08T07:48:42Z</time>
      </trkpt>
      <trkpt lat="45.12561" lon="6.0885">
        <ele>2063.1</ele>
        <time>2024-07-08T07:48:43Z</time>
      </trkpt>
      <trkpt lat="45.12563" lon="6.08851">
        <ele>2063.3</ele>
        <time>2024-07-08T07:48:44Z</time>
      </trkpt>
      <trkpt lat="45.12564" lon="6.08851">
        <ele>2063.4</ele>
        <time>2024-07-08T07:48:45Z</time>
      </trkpt>
      <trkpt lat="45.12565" lon="6.08852">
        <ele>2063.4</ele>
        <time>2024-07-08T07:48:47Z</time>
      </trkpt>
      <trkpt lat="45.12565" lon="6.08852">
        <ele>2063.5</ele>
        <time>2024-07-08T07:48:48Z</time>
      </trkpt>
      <trkpt lat="45.12566" lon="6.08852">
        <ele>2063.5</ele>
        <time>2024-07-08T07:48:49Z</time>
      </trkpt>
      <trkpt lat="45.12567" lon="6.08853">
        <ele>2063.6</ele>
        <time>2024-07-08T07:48:50Z</time>
      </trkpt>
      <trkpt lat="45.12569" lon="6.08853">
        <ele>2063.6</ele>
        <time>2024-07-08T07:48:51Z</time>
      </trkpt>
      <trkpt lat="45.1257" lon="6.08853">
        <ele>2063.7</ele>
        <time>2024-07-08T07:48:53Z</time>
      </trkpt>
      <trkpt lat="45.12571" lon="6.08853">
        <ele>2063.7</ele>
        <time>2024-07-08T07:48:54Z</time>
      </trkpt>
      <trkpt lat="45.12572" lon="6.08853">
        <ele>2063.8</ele>
        <time>2024-07-08T07:48:55Z</time>
      </trkpt>
      <trkpt lat="45.12573" lon="6.08853">
        <ele>2063.8</ele>
        <time>2024-07-08T07:48:56Z</time>
      </trkpt>
      <trkpt lat="45.12574" lon="6.08853">
        <ele>2063.8</ele>
        <time>2024-07-08T07:48:57Z</time>
      </trkpt>
      <trkpt lat="45.12575" lon="6.08852">
        <ele>2063.9</ele>
        <time>2024-07-08T07:48:58Z</time>
      </trkpt>
      <trkpt lat="45.12575" lon="6.08852">
        <ele>2063.9</ele>
        <time>2024-07-08T07:48:59Z</time>
      </trkpt>
      <trkpt lat="45.12576" lon="6.08852">
        <ele>2063.9</ele>
        <time>2024-07-08T07:49:00Z</time>
      </trkpt>
      <trkpt lat="45.12577" lon="6.08852">
        <ele>2064</ele>
        <time>2024-07-08T07:49:01Z</time>
      </trkpt>
      <trkpt lat="45.12579" lon="6.08851">
        <ele>2064</ele>
        <time>2024-07-08T07:49:03Z</time>
      </trkpt>
      <trkpt lat="45.12581" lon="6.0885">
        <ele>2064.1</ele>
        <time>2024-07-08T07:49:04Z</time>
      </trkpt>
      <trkpt lat="45.12582" lon="6.0885">
        <ele>2064.2</ele>
        <time>2024-07-08T07:49:05Z</time>
      </trkpt>
      <trkpt lat="45.12583" lon="6.08849">
        <ele>2064.3</ele>
        <time>2024-07-08T07:49:07Z</time>
      </trkpt>
      <trkpt lat="45.12585" lon="6.08848">
        <ele>2064.4</ele>
        <time>2024-07-08T07:49:08Z</time>
      </trkpt>
      <trkpt lat="45.12586" lon="6.08848">
        <ele>2064.5</ele>
        <time>2024-07-08T07:49:09Z</time>
      </trkpt>
      <trkpt lat="45.12587" lon="6.08847">
        <ele>2064.6</ele>
        <time>2024-07-08T07:49:10Z</time>
      </trkpt>
      <trkpt lat="45.12588" lon="6.08847">
        <ele>2064.7</ele>
        <time>2024-07-08T07:49:11Z</time>
      </trkpt>
      <trkpt lat="45.1259" lon="6.08847">
        <ele>2064.8</ele>
        <time>2024-07-08T07:49:13Z</time>
      </trkpt>
      <trkpt lat="45.1259" lon="6.08849">
        <ele>2065</ele>
        <time>2024-07-08T07:49:14Z</time>
      </trkpt>
      <trkpt lat="45.12591" lon="6.0885">
        <ele>2065.1</ele>
        <time>2024-07-08T07:49:15Z</time>
      </trkpt>
      <trkpt lat="45.12592" lon="6.08851">
        <ele>2065.2</ele>
        <time>2024-07-08T07:49:16Z</time>
      </trkpt>
      <trkpt lat="45.12593" lon="6.08852">
        <ele>2065.3</ele>
        <time>2024-07-08T07:49:17Z</time>
      </trkpt>
      <trkpt lat="45.12594" lon="6.08852">
        <ele>2065.5</ele>
        <time>2024-07-08T07:49:18Z</time>
      </trkpt>
      <trkpt lat="45.12595" lon="6.08852">
        <ele>2065.6</ele>
        <time>2024-07-08T07:49:19Z</time>
      </trkpt>
      <trkpt lat="45.12596" lon="6.08853">
        <ele>2065.8</ele>
        <time>2024-07-08T07:49:20Z</time>
      </trkpt>
      <trkpt lat="45.12597" lon="6.08854">
        <ele>2065.9</ele>
        <time>2024-07-08T07:49:21Z</time>
      </trkpt>
      <trkpt lat="45.12599" lon="6.08853">
        <ele>2066.3</ele>
        <time>2024-07-08T07:49:23Z</time>
      </trkpt>
      <trkpt lat="45.126" lon="6.08853">
        <ele>2066.4</ele>
        <time>2024-07-08T07:49:24Z</time>
      </trkpt>
      <trkpt lat="45.12601" lon="6.08853">
        <ele>2066.6</ele>
        <time>2024-07-08T07:49:25Z</time>
      </trkpt>
      <trkpt lat="45.12604" lon="6.08852">
        <ele>2066.9</ele>
        <time>2024-07-08T07:49:26Z</time>
      </trkpt>
      <trkpt lat="45.12605" lon="6.08852">
        <ele>2067.1</ele>
        <time>2024-07-08T07:49:28Z</time>
      </trkpt>
      <trkpt lat="45.12606" lon="6.08851">
        <ele>2067.3</ele>
        <time>2024-07-08T07:49:29Z</time>
      </trkpt>
      <trkpt lat="45.12607" lon="6.08851">
        <ele>2067.4</ele>
        <time>2024-07-08T07:49:31Z</time>
      </trkpt>
      <trkpt lat="45.12608" lon="6.0885">
        <ele>2067.6</ele>
        <time>2024-07-08T07:49:32Z</time>
      </trkpt>
      <trkpt lat="45.12609" lon="6.0885">
        <ele>2067.7</ele>
        <time>2024-07-08T07:49:33Z</time>
      </trkpt>
      <trkpt lat="45.1261" lon="6.0885">
        <ele>2067.8</ele>
        <time>2024-07-08T07:49:34Z</time>
      </trkpt>
      <trkpt lat="45.12611" lon="6.08849">
        <ele>2067.9</ele>
        <time>2024-07-08T07:49:35Z</time>
      </trkpt>
      <trkpt lat="45.12611" lon="6.08848">
        <ele>2068</ele>
        <time>2024-07-08T07:49:36Z</time>
      </trkpt>
      <trkpt lat="45.12611" lon="6.08843">
        <ele>2068.3</ele>
        <time>2024-07-08T07:49:38Z</time>
      </trkpt>
      <trkpt lat="45.12611" lon="6.08841">
        <ele>2068.3</ele>
        <time>2024-07-08T07:49:39Z</time>
      </trkpt>
      <trkpt lat="45.12611" lon="6.08841">
        <ele>2068.3</ele>
        <time>2024-07-08T07:49:40Z</time>
      </trkpt>
      <trkpt lat="45.12611" lon="6.0884">
        <ele>2068.4</ele>
        <time>2024-07-08T07:49:41Z</time>
      </trkpt>
      <trkpt lat="45.12612" lon="6.08841">
        <ele>2068.4</ele>
        <time>2024-07-08T07:49:42Z</time>
      </trkpt>
      <trkpt lat="45.12613" lon="6.08841">
        <ele>2068.5</ele>
        <time>2024-07-08T07:49:43Z</time>
      </trkpt>
      <trkpt lat="45.12613" lon="6.08839">
        <ele>2068.4</ele>
        <time>2024-07-08T07:49:44Z</time>
      </trkpt>
      <trkpt lat="45.12614" lon="6.0884">
        <ele>2068.4</ele>
        <time>2024-07-08T07:49:45Z</time>
      </trkpt>
      <trkpt lat="45.12614" lon="6.08839">
        <ele>2068.4</ele>
        <time>2024-07-08T07:49:46Z</time>
      </trkpt>
      <trkpt lat="45.12615" lon="6.0884">
        <ele>2068.4</ele>
        <time>2024-07-08T07:49:47Z</time>
      </trkpt>
      <trkpt lat="45.12616" lon="6.0884">
        <ele>2068.4</ele>
        <time>2024-07-08T07:49:48Z</time>
      </trkpt>
      <trkpt lat="45.12616" lon="6.08839">
        <ele>2068.4</ele>
        <time>2024-07-08T07:49:49Z</time>
      </trkpt>
      <trkpt lat="45.12617" lon="6.08837">
        <ele>2068.3</ele>
        <time>2024-07-08T07:49:50Z</time>
      </trkpt>
      <trkpt lat="45.12618" lon="6.08836">
        <ele>2068.3</ele>
        <time>2024-07-08T07:49:51Z</time>
      </trkpt>
      <trkpt lat="45.12618" lon="6.08835">
        <ele>2068.2</ele>
        <time>2024-07-08T07:49:52Z</time>
      </trkpt>
      <trkpt lat="45.12619" lon="6.08833">
        <ele>2068.2</ele>
        <time>2024-07-08T07:49:53Z</time>
      </trkpt>
      <trkpt lat="45.1262" lon="6.08831">
        <ele>2068.1</ele>
        <time>2024-07-08T07:49:54Z</time>
      </trkpt>
      <trkpt lat="45.12625" lon="6.08854">
        <ele>2066</ele>
        <time>2024-07-08T07:49:55Z</time>
      </trkpt>
      <trkpt lat="45.12626" lon="6.08857">
        <ele>2065.7</ele>
        <time>2024-07-08T07:49:56Z</time>
      </trkpt>
      <trkpt lat="45.12628" lon="6.0886">
        <ele>2065.4</ele>
        <time>2024-07-08T07:49:57Z</time>
      </trkpt>
      <trkpt lat="45.12628" lon="6.08861">
        <ele>2065.4</ele>
        <time>2024-07-08T07:49:58Z</time>
      </trkpt>
      <trkpt lat="45.1263" lon="6.08863">
        <ele>2065.2</ele>
        <time>2024-07-08T07:49:59Z</time>
      </trkpt>
      <trkpt lat="45.12631" lon="6.08864">
        <ele>2065.1</ele>
        <time>2024-07-08T07:50:00Z</time>
      </trkpt>
      <trkpt lat="45.12632" lon="6.08865">
        <ele>2065</ele>
        <time>2024-07-08T07:50:01Z</time>
      </trkpt>
      <trkpt lat="45.12633" lon="6.08866">
        <ele>2064.9</ele>
        <time>2024-07-08T07:50:02Z</time>
      </trkpt>
      <trkpt lat="45.12634" lon="6.08866">
        <ele>2064.9</ele>
        <time>2024-07-08T07:50:03Z</time>
      </trkpt>
      <trkpt lat="45.12636" lon="6.08867">
        <ele>2064.8</ele>
        <time>2024-07-08T07:50:05Z</time>
      </trkpt>
      <trkpt lat="45.12638" lon="6.08867">
        <ele>2064.7</ele>
        <time>2024-07-08T07:50:06Z</time>
      </trkpt>
      <trkpt lat="45.1264" lon="6.08868">
        <ele>2064.6</ele>
        <time>2024-07-08T07:50:07Z</time>
      </trkpt>
      <trkpt lat="45.12641" lon="6.08868">
        <ele>2064.5</ele>
        <time>2024-07-08T07:50:08Z</time>
      </trkpt>
      <trkpt lat="45.12642" lon="6.08868">
        <ele>2064.5</ele>
        <time>2024-07-08T07:50:09Z</time>
      </trkpt>
      <trkpt lat="45.12642" lon="6.08869">
        <ele>2064.5</ele>
        <time>2024-07-08T07:50:10Z</time>
      </trkpt>
      <trkpt lat="45.12643" lon="6.0887">
        <ele>2064.4</ele>
        <time>2024-07-08T07:50:11Z</time>
      </trkpt>
      <trkpt lat="45.12644" lon="6.08871">
        <ele>2064.4</ele>
        <time>2024-07-08T07:50:12Z</time>
      </trkpt>
      <trkpt lat="45.12645" lon="6.08872">
        <ele>2064.3</ele>
        <time>2024-07-08T07:50:13Z</time>
      </trkpt>
      <trkpt lat="45.12646" lon="6.08874">
        <ele>2064.3</ele>
        <time>2024-07-08T07:50:14Z</time>
      </trkpt>
      <trkpt lat="45.12646" lon="6.08875">
        <ele>2064.3</ele>
        <time>2024-07-08T07:50:15Z</time>
      </trkpt>
      <trkpt lat="45.12646" lon="6.08877">
        <ele>2064.3</ele>
        <time>2024-07-08T07:50:16Z</time>
      </trkpt>
      <trkpt lat="45.12647" lon="6.08879">
        <ele>2064.3</ele>
        <time>2024-07-08T07:50:17Z</time>
      </trkpt>
      <trkpt lat="45.12647" lon="6.08881">
        <ele>2064.3</ele>
        <time>2024-07-08T07:50:18Z</time>
      </trkpt>
      <trkpt lat="45.12648" lon="6.08883">
        <ele>2064.3</ele>
        <time>2024-07-08T07:50:19Z</time>
      </trkpt>
      <trkpt lat="45.12647" lon="6.08884">
        <ele>2064.3</ele>
        <time>2024-07-08T07:50:20Z</time>
      </trkpt>
      <trkpt lat="45.12647" lon="6.08886">
        <ele>2064.3</ele>
        <time>2024-07-08T07:50:21Z</time>
      </trkpt>
      <trkpt lat="45.12648" lon="6.08887">
        <ele>2064.4</ele>
        <time>2024-07-08T07:50:22Z</time>
      </trkpt>
      <trkpt lat="45.12648" lon="6.0889">
        <ele>2064.4</ele>
        <time>2024-07-08T07:50:23Z</time>
      </trkpt>
      <trkpt lat="45.12649" lon="6.08891">
        <ele>2064.5</ele>
        <time>2024-07-08T07:50:24Z</time>
      </trkpt>
      <trkpt lat="45.1265" lon="6.08891">
        <ele>2064.5</ele>
        <time>2024-07-08T07:50:25Z</time>
      </trkpt>
      <trkpt lat="45.12651" lon="6.08892">
        <ele>2064.6</ele>
        <time>2024-07-08T07:50:26Z</time>
      </trkpt>
      <trkpt lat="45.12652" lon="6.08893">
        <ele>2064.7</ele>
        <time>2024-07-08T07:50:27Z</time>
      </trkpt>
      <trkpt lat="45.12652" lon="6.08895">
        <ele>2064.8</ele>
        <time>2024-07-08T07:50:28Z</time>
      </trkpt>
      <trkpt lat="45.12654" lon="6.08897">
        <ele>2065</ele>
        <time>2024-07-08T07:50:29Z</time>
      </trkpt>
      <trkpt lat="45.12654" lon="6.08898">
        <ele>2065</ele>
        <time>2024-07-08T07:50:30Z</time>
      </trkpt>
      <trkpt lat="45.12655" lon="6.08898">
        <ele>2065.1</ele>
        <time>2024-07-08T07:50:31Z</time>
      </trkpt>
      <trkpt lat="45.12657" lon="6.089">
        <ele>2065.3</ele>
        <time>2024-07-08T07:50:32Z</time>
      </trkpt>
      <trkpt lat="45.12657" lon="6.08901">
        <ele>2065.4</ele>
        <time>2024-07-08T07:50:33Z</time>
      </trkpt>
      <trkpt lat="45.12658" lon="6.08902">
        <ele>2065.5</ele>
        <time>2024-07-08T07:50:34Z</time>
      </trkpt>
      <trkpt lat="45.1266" lon="6.08904">
        <ele>2065.8</ele>
        <time>2024-07-08T07:50:36Z</time>
      </trkpt>
      <trkpt lat="45.12661" lon="6.08905">
        <ele>2065.9</ele>
        <time>2024-07-08T07:50:37Z</time>
      </trkpt>
      <trkpt lat="45.12661" lon="6.08906">
        <ele>2066</ele>
        <time>2024-07-08T07:50:38Z</time>
      </trkpt>
      <trkpt lat="45.12662" lon="6.08907">
        <ele>2066.2</ele>
        <time>2024-07-08T07:50:39Z</time>
      </trkpt>
      <trkpt lat="45.12663" lon="6.08908">
        <ele>2066.3</ele>
        <time>2024-07-08T07:50:40Z</time>
      </trkpt>
      <trkpt lat="45.12664" lon="6.08909">
        <ele>2066.4</ele>
        <time>2024-07-08T07:50:41Z</time>
      </trkpt>
      <trkpt lat="45.12664" lon="6.0891">
        <ele>2066.5</ele>
        <time>2024-07-08T07:50:42Z</time>
      </trkpt>
      <trkpt lat="45.12665" lon="6.08911">
        <ele>2066.7</ele>
        <time>2024-07-08T07:50:43Z</time>
      </trkpt>
      <trkpt lat="45.12667" lon="6.08913">
        <ele>2066.9</ele>
        <time>2024-07-08T07:50:45Z</time>
      </trkpt>
      <trkpt lat="45.12668" lon="6.08914">
        <ele>2067</ele>
        <time>2024-07-08T07:50:46Z</time>
      </trkpt>
      <trkpt lat="45.12669" lon="6.08916">
        <ele>2067.2</ele>
        <time>2024-07-08T07:50:47Z</time>
      </trkpt>
      <trkpt lat="45.1267" lon="6.08916">
        <ele>2067.3</ele>
        <time>2024-07-08T07:50:48Z</time>
      </trkpt>
      <trkpt lat="45.12671" lon="6.08917">
        <ele>2067.3</ele>
        <time>2024-07-08T07:50:49Z</time>
      </trkpt>
      <trkpt lat="45.12672" lon="6.08918">
        <ele>2067.5</ele>
        <time>2024-07-08T07:50:50Z</time>
      </trkpt>
      <trkpt lat="45.12673" lon="6.08918">
        <ele>2067.5</ele>
        <time>2024-07-08T07:50:51Z</time>
      </trkpt>
      <trkpt lat="45.12674" lon="6.08918">
        <ele>2067.6</ele>
        <time>2024-07-08T07:50:52Z</time>
      </trkpt>
      <trkpt lat="45.12675" lon="6.08919">
        <ele>2067.6</ele>
        <time>2024-07-08T07:50:53Z</time>
      </trkpt>
      <trkpt lat="45.12676" lon="6.08918">
        <ele>2067.7</ele>
        <time>2024-07-08T07:50:54Z</time>
      </trkpt>
      <trkpt lat="45.12677" lon="6.08918">
        <ele>2067.7</ele>
        <time>2024-07-08T07:50:55Z</time>
      </trkpt>
      <trkpt lat="45.12677" lon="6.08919">
        <ele>2067.8</ele>
        <time>2024-07-08T07:50:56Z</time>
      </trkpt>
      <trkpt lat="45.12678" lon="6.0892">
        <ele>2067.8</ele>
        <time>2024-07-08T07:50:57Z</time>
      </trkpt>
      <trkpt lat="45.12679" lon="6.0892">
        <ele>2067.9</ele>
        <time>2024-07-08T07:50:58Z</time>
      </trkpt>
      <trkpt lat="45.1268" lon="6.0892">
        <ele>2067.9</ele>
        <time>2024-07-08T07:50:59Z</time>
      </trkpt>
      <trkpt lat="45.12681" lon="6.0892">
        <ele>2068</ele>
        <time>2024-07-08T07:51:00Z</time>
      </trkpt>
      <trkpt lat="45.12683" lon="6.0892">
        <ele>2068.1</ele>
        <time>2024-07-08T07:51:01Z</time>
      </trkpt>
      <trkpt lat="45.12684" lon="6.0892">
        <ele>2068.1</ele>
        <time>2024-07-08T07:51:02Z</time>
      </trkpt>
      <trkpt lat="45.12685" lon="6.0892">
        <ele>2068.2</ele>
        <time>2024-07-08T07:51:03Z</time>
      </trkpt>
      <trkpt lat="45.12686" lon="6.0892">
        <ele>2068.2</ele>
        <time>2024-07-08T07:51:04Z</time>
      </trkpt>
      <trkpt lat="45.12688" lon="6.08919">
        <ele>2068.3</ele>
        <time>2024-07-08T07:51:06Z</time>
      </trkpt>
      <trkpt lat="45.12689" lon="6.08919">
        <ele>2068.3</ele>
        <time>2024-07-08T07:51:07Z</time>
      </trkpt>
      <trkpt lat="45.1269" lon="6.08919">
        <ele>2068.4</ele>
        <time>2024-07-08T07:51:08Z</time>
      </trkpt>
      <trkpt lat="45.12691" lon="6.08919">
        <ele>2068.5</ele>
        <time>2024-07-08T07:51:09Z</time>
      </trkpt>
      <trkpt lat="45.12692" lon="6.08919">
        <ele>2068.5</ele>
        <time>2024-07-08T07:51:10Z</time>
      </trkpt>
      <trkpt lat="45.12693" lon="6.08919">
        <ele>2068.6</ele>
        <time>2024-07-08T07:51:11Z</time>
      </trkpt>
      <trkpt lat="45.12694" lon="6.08919">
        <ele>2068.7</ele>
        <time>2024-07-08T07:51:12Z</time>
      </trkpt>
      <trkpt lat="45.12695" lon="6.08919">
        <ele>2068.7</ele>
        <time>2024-07-08T07:51:13Z</time>
      </trkpt>
      <trkpt lat="45.12697" lon="6.08919">
        <ele>2068.9</ele>
        <time>2024-07-08T07:51:15Z</time>
      </trkpt>
      <trkpt lat="45.12699" lon="6.08919">
        <ele>2069</ele>
        <time>2024-07-08T07:51:16Z</time>
      </trkpt>
      <trkpt lat="45.127" lon="6.08919">
        <ele>2069.1</ele>
        <time>2024-07-08T07:51:17Z</time>
      </trkpt>
      <trkpt lat="45.12701" lon="6.0892">
        <ele>2069.2</ele>
        <time>2024-07-08T07:51:18Z</time>
      </trkpt>
      <trkpt lat="45.12702" lon="6.08921">
        <ele>2069.3</ele>
        <time>2024-07-08T07:51:19Z</time>
      </trkpt>
      <trkpt lat="45.12703" lon="6.08922">
        <ele>2069.4</ele>
        <time>2024-07-08T07:51:20Z</time>
      </trkpt>
      <trkpt lat="45.12704" lon="6.08923">
        <ele>2069.5</ele>
        <time>2024-07-08T07:51:21Z</time>
      </trkpt>
      <trkpt lat="45.12705" lon="6.08924">
        <ele>2069.6</ele>
        <time>2024-07-08T07:51:22Z</time>
      </trkpt>
      <trkpt lat="45.12705" lon="6.08925">
        <ele>2069.7</ele>
        <time>2024-07-08T07:51:23Z</time>
      </trkpt>
      <trkpt lat="45.12707" lon="6.08927">
        <ele>2069.9</ele>
        <time>2024-07-08T07:51:24Z</time>
      </trkpt>
      <trkpt lat="45.12708" lon="6.08928">
        <ele>2070.1</ele>
        <time>2024-07-08T07:51:25Z</time>
      </trkpt>
      <trkpt lat="45.12708" lon="6.08929">
        <ele>2070.1</ele>
        <time>2024-07-08T07:51:26Z</time>
      </trkpt>
      <trkpt lat="45.12709" lon="6.08929">
        <ele>2070.2</ele>
        <time>2024-07-08T07:51:27Z</time>
      </trkpt>
      <trkpt lat="45.1271" lon="6.0893">
        <ele>2070.3</ele>
        <time>2024-07-08T07:51:28Z</time>
      </trkpt>
      <trkpt lat="45.12711" lon="6.08931">
        <ele>2070.4</ele>
        <time>2024-07-08T07:51:29Z</time>
      </trkpt>
      <trkpt lat="45.12711" lon="6.08932">
        <ele>2070.5</ele>
        <time>2024-07-08T07:51:30Z</time>
      </trkpt>
      <trkpt lat="45.12712" lon="6.08933">
        <ele>2070.6</ele>
        <time>2024-07-08T07:51:31Z</time>
      </trkpt>
      <trkpt lat="45.12713" lon="6.08935">
        <ele>2070.8</ele>
        <time>2024-07-08T07:51:32Z</time>
      </trkpt>
      <trkpt lat="45.12714" lon="6.08936">
        <ele>2070.9</ele>
        <time>2024-07-08T07:51:33Z</time>
      </trkpt>
      <trkpt lat="45.12715" lon="6.08937">
        <ele>2070.9</ele>
        <time>2024-07-08T07:51:35Z</time>
      </trkpt>
      <trkpt lat="45.12716" lon="6.08937">
        <ele>2071</ele>
        <time>2024-07-08T07:51:36Z</time>
      </trkpt>
      <trkpt lat="45.12716" lon="6.08938">
        <ele>2071.1</ele>
        <time>2024-07-08T07:51:37Z</time>
      </trkpt>
      <trkpt lat="45.12717" lon="6.08939">
        <ele>2071.1</ele>
        <time>2024-07-08T07:51:38Z</time>
      </trkpt>
      <trkpt lat="45.12718" lon="6.0894">
        <ele>2071.2</ele>
        <time>2024-07-08T07:51:39Z</time>
      </trkpt>
      <trkpt lat="45.12719" lon="6.08941">
        <ele>2071.3</ele>
        <time>2024-07-08T07:51:40Z</time>
      </trkpt>
      <trkpt lat="45.1272" lon="6.08942">
        <ele>2071.3</ele>
        <time>2024-07-08T07:51:41Z</time>
      </trkpt>
      <trkpt lat="45.12722" lon="6.08941">
        <ele>2071.4</ele>
        <time>2024-07-08T07:51:42Z</time>
      </trkpt>
      <trkpt lat="45.12723" lon="6.08941">
        <ele>2071.5</ele>
        <time>2024-07-08T07:51:43Z</time>
      </trkpt>
      <trkpt lat="45.12724" lon="6.0894">
        <ele>2071.5</ele>
        <time>2024-07-08T07:51:44Z</time>
      </trkpt>
      <trkpt lat="45.12726" lon="6.08939">
        <ele>2071.6</ele>
        <time>2024-07-08T07:51:45Z</time>
      </trkpt>
      <trkpt lat="45.12727" lon="6.08939">
        <ele>2071.6</ele>
        <time>2024-07-08T07:51:46Z</time>
      </trkpt>
      <trkpt lat="45.12728" lon="6.08939">
        <ele>2071.6</ele>
        <time>2024-07-08T07:51:47Z</time>
      </trkpt>
      <trkpt lat="45.12729" lon="6.08939">
        <ele>2071.7</ele>
        <time>2024-07-08T07:51:48Z</time>
      </trkpt>
      <trkpt lat="45.1273" lon="6.08939">
        <ele>2071.7</ele>
        <time>2024-07-08T07:51:49Z</time>
      </trkpt>
      <trkpt lat="45.12731" lon="6.08939">
        <ele>2071.8</ele>
        <time>2024-07-08T07:51:50Z</time>
      </trkpt>
      <trkpt lat="45.12732" lon="6.08939">
        <ele>2071.8</ele>
        <time>2024-07-08T07:51:51Z</time>
      </trkpt>
      <trkpt lat="45.12733" lon="6.0894">
        <ele>2071.8</ele>
        <time>2024-07-08T07:51:52Z</time>
      </trkpt>
      <trkpt lat="45.12734" lon="6.0894">
        <ele>2071.9</ele>
        <time>2024-07-08T07:51:53Z</time>
      </trkpt>
      <trkpt lat="45.12735" lon="6.08941">
        <ele>2071.9</ele>
        <time>2024-07-08T07:51:54Z</time>
      </trkpt>
      <trkpt lat="45.12737" lon="6.08942">
        <ele>2072</ele>
        <time>2024-07-08T07:51:55Z</time>
      </trkpt>
      <trkpt lat="45.12737" lon="6.08942">
        <ele>2072</ele>
        <time>2024-07-08T07:51:56Z</time>
      </trkpt>
      <trkpt lat="45.12738" lon="6.08943">
        <ele>2072.1</ele>
        <time>2024-07-08T07:51:57Z</time>
      </trkpt>
      <trkpt lat="45.12739" lon="6.08944">
        <ele>2072.1</ele>
        <time>2024-07-08T07:51:58Z</time>
      </trkpt>
      <trkpt lat="45.12741" lon="6.08945">
        <ele>2072.2</ele>
        <time>2024-07-08T07:51:59Z</time>
      </trkpt>
      <trkpt lat="45.12742" lon="6.08945">
        <ele>2072.3</ele>
        <time>2024-07-08T07:52:00Z</time>
      </trkpt>
      <trkpt lat="45.12742" lon="6.08946">
        <ele>2072.4</ele>
        <time>2024-07-08T07:52:01Z</time>
      </trkpt>
      <trkpt lat="45.12744" lon="6.08948">
        <ele>2072.5</ele>
        <time>2024-07-08T07:52:02Z</time>
      </trkpt>
      <trkpt lat="45.12745" lon="6.08949">
        <ele>2072.6</ele>
        <time>2024-07-08T07:52:03Z</time>
      </trkpt>
      <trkpt lat="45.12745" lon="6.0895">
        <ele>2072.7</ele>
        <time>2024-07-08T07:52:04Z</time>
      </trkpt>
      <trkpt lat="45.12747" lon="6.08952">
        <ele>2072.8</ele>
        <time>2024-07-08T07:52:05Z</time>
      </trkpt>
      <trkpt lat="45.12747" lon="6.08953">
        <ele>2072.9</ele>
        <time>2024-07-08T07:52:06Z</time>
      </trkpt>
      <trkpt lat="45.12748" lon="6.08954">
        <ele>2072.9</ele>
        <time>2024-07-08T07:52:07Z</time>
      </trkpt>
      <trkpt lat="45.1275" lon="6.08954">
        <ele>2073.1</ele>
        <time>2024-07-08T07:52:08Z</time>
      </trkpt>
      <trkpt lat="45.12751" lon="6.08955">
        <ele>2073.1</ele>
        <time>2024-07-08T07:52:09Z</time>
      </trkpt>
      <trkpt lat="45.12752" lon="6.08955">
        <ele>2073.2</ele>
        <time>2024-07-08T07:52:10Z</time>
      </trkpt>
      <trkpt lat="45.12753" lon="6.08955">
        <ele>2073.2</ele>
        <time>2024-07-08T07:52:11Z</time>
      </trkpt>
      <trkpt lat="45.12754" lon="6.08955">
        <ele>2073.3</ele>
        <time>2024-07-08T07:52:12Z</time>
      </trkpt>
      <trkpt lat="45.12755" lon="6.08955">
        <ele>2073.4</ele>
        <time>2024-07-08T07:52:13Z</time>
      </trkpt>
      <trkpt lat="45.12756" lon="6.08955">
        <ele>2073.4</ele>
        <time>2024-07-08T07:52:14Z</time>
      </trkpt>
      <trkpt lat="45.12758" lon="6.08956">
        <ele>2073.5</ele>
        <time>2024-07-08T07:52:15Z</time>
      </trkpt>
      <trkpt lat="45.12759" lon="6.08956">
        <ele>2073.6</ele>
        <time>2024-07-08T07:52:16Z</time>
      </trkpt>
      <trkpt lat="45.1276" lon="6.08956">
        <ele>2073.7</ele>
        <time>2024-07-08T07:52:17Z</time>
      </trkpt>
      <trkpt lat="45.12761" lon="6.08957">
        <ele>2073.7</ele>
        <time>2024-07-08T07:52:18Z</time>
      </trkpt>
      <trkpt lat="45.12762" lon="6.08957">
        <ele>2073.8</ele>
        <time>2024-07-08T07:52:19Z</time>
      </trkpt>
      <trkpt lat="45.12764" lon="6.08958">
        <ele>2073.9</ele>
        <time>2024-07-08T07:52:20Z</time>
      </trkpt>
      <trkpt lat="45.12764" lon="6.08958">
        <ele>2073.9</ele>
        <time>2024-07-08T07:52:21Z</time>
      </trkpt>
      <trkpt lat="45.12765" lon="6.08959">
        <ele>2074</ele>
        <time>2024-07-08T07:52:22Z</time>
      </trkpt>
      <trkpt lat="45.12767" lon="6.08959">
        <ele>2074</ele>
        <time>2024-07-08T07:52:23Z</time>
      </trkpt>
      <trkpt lat="45.12768" lon="6.0896">
        <ele>2074.1</ele>
        <time>2024-07-08T07:52:24Z</time>
      </trkpt>
      <trkpt lat="45.12769" lon="6.08961">
        <ele>2074.2</ele>
        <time>2024-07-08T07:52:25Z</time>
      </trkpt>
      <trkpt lat="45.1277" lon="6.08962">
        <ele>2074.3</ele>
        <time>2024-07-08T07:52:26Z</time>
      </trkpt>
      <trkpt lat="45.12771" lon="6.08963">
        <ele>2074.4</ele>
        <time>2024-07-08T07:52:27Z</time>
      </trkpt>
      <trkpt lat="45.12772" lon="6.08964">
        <ele>2074.4</ele>
        <time>2024-07-08T07:52:28Z</time>
      </trkpt>
      <trkpt lat="45.12773" lon="6.08964">
        <ele>2074.5</ele>
        <time>2024-07-08T07:52:29Z</time>
      </trkpt>
      <trkpt lat="45.12774" lon="6.08965">
        <ele>2074.6</ele>
        <time>2024-07-08T07:52:30Z</time>
      </trkpt>
      <trkpt lat="45.12775" lon="6.08966">
        <ele>2074.7</ele>
        <time>2024-07-08T07:52:31Z</time>
      </trkpt>
      <trkpt lat="45.12776" lon="6.08966">
        <ele>2074.8</ele>
        <time>2024-07-08T07:52:32Z</time>
      </trkpt>
      <trkpt lat="45.12777" lon="6.08967">
        <ele>2074.9</ele>
        <time>2024-07-08T07:52:33Z</time>
      </trkpt>
      <trkpt lat="45.12779" lon="6.08967">
        <ele>2074.9</ele>
        <time>2024-07-08T07:52:34Z</time>
      </trkpt>
      <trkpt lat="45.1278" lon="6.08968">
        <ele>2075</ele>
        <time>2024-07-08T07:52:35Z</time>
      </trkpt>
      <trkpt lat="45.12781" lon="6.08969">
        <ele>2075.1</ele>
        <time>2024-07-08T07:52:36Z</time>
      </trkpt>
      <trkpt lat="45.12782" lon="6.0897">
        <ele>2075.1</ele>
        <time>2024-07-08T07:52:37Z</time>
      </trkpt>
      <trkpt lat="45.12783" lon="6.08971">
        <ele>2075.2</ele>
        <time>2024-07-08T07:52:38Z</time>
      </trkpt>
      <trkpt lat="45.12784" lon="6.08971">
        <ele>2075.2</ele>
        <time>2024-07-08T07:52:39Z</time>
      </trkpt>
      <trkpt lat="45.12785" lon="6.08972">
        <ele>2075.3</ele>
        <time>2024-07-08T07:52:40Z</time>
      </trkpt>
      <trkpt lat="45.12786" lon="6.08973">
        <ele>2075.3</ele>
        <time>2024-07-08T07:52:41Z</time>
      </trkpt>
      <trkpt lat="45.12787" lon="6.08974">
        <ele>2075.4</ele>
        <time>2024-07-08T07:52:42Z</time>
      </trkpt>
      <trkpt lat="45.12788" lon="6.08975">
        <ele>2075.4</ele>
        <time>2024-07-08T07:52:43Z</time>
      </trkpt>
      <trkpt lat="45.12789" lon="6.08976">
        <ele>2075.4</ele>
        <time>2024-07-08T07:52:44Z</time>
      </trkpt>
      <trkpt lat="45.12791" lon="6.08977">
        <ele>2075.5</ele>
        <time>2024-07-08T07:52:45Z</time>
      </trkpt>
      <trkpt lat="45.12791" lon="6.08978">
        <ele>2075.5</ele>
        <time>2024-07-08T07:52:46Z</time>
      </trkpt>
      <trkpt lat="45.12792" lon="6.08978">
        <ele>2075.5</ele>
        <time>2024-07-08T07:52:47Z</time>
      </trkpt>
      <trkpt lat="45.12793" lon="6.08979">
        <ele>2075.5</ele>
        <time>2024-07-08T07:52:48Z</time>
      </trkpt>
      <trkpt lat="45.12794" lon="6.0898">
        <ele>2075.6</ele>
        <time>2024-07-08T07:52:49Z</time>
      </trkpt>
      <trkpt lat="45.12796" lon="6.08982">
        <ele>2075.6</ele>
        <time>2024-07-08T07:52:51Z</time>
      </trkpt>
      <trkpt lat="45.12797" lon="6.08983">
        <ele>2075.6</ele>
        <time>2024-07-08T07:52:52Z</time>
      </trkpt>
      <trkpt lat="45.12798" lon="6.08984">
        <ele>2075.6</ele>
        <time>2024-07-08T07:52:53Z</time>
      </trkpt>
      <trkpt lat="45.12799" lon="6.08985">
        <ele>2075.7</ele>
        <time>2024-07-08T07:52:54Z</time>
      </trkpt>
      <trkpt lat="45.12801" lon="6.08985">
        <ele>2075.7</ele>
        <time>2024-07-08T07:52:55Z</time>
      </trkpt>
      <trkpt lat="45.12801" lon="6.08984">
        <ele>2075.7</ele>
        <time>2024-07-08T07:52:56Z</time>
      </trkpt>
      <trkpt lat="45.12802" lon="6.08984">
        <ele>2075.7</ele>
        <time>2024-07-08T07:52:57Z</time>
      </trkpt>
      <trkpt lat="45.12804" lon="6.08984">
        <ele>2075.7</ele>
        <time>2024-07-08T07:52:58Z</time>
      </trkpt>
      <trkpt lat="45.12805" lon="6.08984">
        <ele>2075.8</ele>
        <time>2024-07-08T07:52:59Z</time>
      </trkpt>
      <trkpt lat="45.12807" lon="6.08984">
        <ele>2075.8</ele>
        <time>2024-07-08T07:53:00Z</time>
      </trkpt>
      <trkpt lat="45.12808" lon="6.08984">
        <ele>2075.8</ele>
        <time>2024-07-08T07:53:01Z</time>
      </trkpt>
      <trkpt lat="45.12809" lon="6.08984">
        <ele>2075.8</ele>
        <time>2024-07-08T07:53:02Z</time>
      </trkpt>
      <trkpt lat="45.1281" lon="6.08984">
        <ele>2075.9</ele>
        <time>2024-07-08T07:53:03Z</time>
      </trkpt>
      <trkpt lat="45.12811" lon="6.08985">
        <ele>2075.9</ele>
        <time>2024-07-08T07:53:04Z</time>
      </trkpt>
      <trkpt lat="45.12813" lon="6.08986">
        <ele>2075.9</ele>
        <time>2024-07-08T07:53:06Z</time>
      </trkpt>
      <trkpt lat="45.12814" lon="6.08986">
        <ele>2076</ele>
        <time>2024-07-08T07:53:07Z</time>
      </trkpt>
      <trkpt lat="45.12816" lon="6.08986">
        <ele>2076</ele>
        <time>2024-07-08T07:53:08Z</time>
      </trkpt>
      <trkpt lat="45.12817" lon="6.08987">
        <ele>2076</ele>
        <time>2024-07-08T07:53:09Z</time>
      </trkpt>
      <trkpt lat="45.12819" lon="6.08988">
        <ele>2076.1</ele>
        <time>2024-07-08T07:53:10Z</time>
      </trkpt>
      <trkpt lat="45.1282" lon="6.08989">
        <ele>2076.1</ele>
        <time>2024-07-08T07:53:11Z</time>
      </trkpt>
      <trkpt lat="45.1282" lon="6.0899">
        <ele>2076.2</ele>
        <time>2024-07-08T07:53:12Z</time>
      </trkpt>
      <trkpt lat="45.12822" lon="6.08991">
        <ele>2076.2</ele>
        <time>2024-07-08T07:53:13Z</time>
      </trkpt>
      <trkpt lat="45.12823" lon="6.08992">
        <ele>2076.3</ele>
        <time>2024-07-08T07:53:14Z</time>
      </trkpt>
      <trkpt lat="45.12824" lon="6.08993">
        <ele>2076.3</ele>
        <time>2024-07-08T07:53:15Z</time>
      </trkpt>
      <trkpt lat="45.12825" lon="6.08993">
        <ele>2076.3</ele>
        <time>2024-07-08T07:53:16Z</time>
      </trkpt>
      <trkpt lat="45.12826" lon="6.08993">
        <ele>2076.4</ele>
        <time>2024-07-08T07:53:17Z</time>
      </trkpt>
      <trkpt lat="45.12827" lon="6.08993">
        <ele>2076.4</ele>
        <time>2024-07-08T07:53:18Z</time>
      </trkpt>
      <trkpt lat="45.12829" lon="6.08994">
        <ele>2076.4</ele>
        <time>2024-07-08T07:53:19Z</time>
      </trkpt>
      <trkpt lat="45.1283" lon="6.08994">
        <ele>2076.5</ele>
        <time>2024-07-08T07:53:20Z</time>
      </trkpt>
      <trkpt lat="45.12831" lon="6.08995">
        <ele>2076.5</ele>
        <time>2024-07-08T07:53:21Z</time>
      </trkpt>
      <trkpt lat="45.12832" lon="6.08996">
        <ele>2076.5</ele>
        <time>2024-07-08T07:53:22Z</time>
      </trkpt>
      <trkpt lat="45.12833" lon="6.08997">
        <ele>2076.6</ele>
        <time>2024-07-08T07:53:23Z</time>
      </trkpt>
      <trkpt lat="45.12834" lon="6.08997">
        <ele>2076.6</ele>
        <time>2024-07-08T07:53:24Z</time>
      </trkpt>
      <trkpt lat="45.12835" lon="6.08999">
        <ele>2076.6</ele>
        <time>2024-07-08T07:53:25Z</time>
      </trkpt>
      <trkpt lat="45.12836" lon="6.08999">
        <ele>2076.7</ele>
        <time>2024-07-08T07:53:26Z</time>
      </trkpt>
      <trkpt lat="45.12837" lon="6.09">
        <ele>2076.7</ele>
        <time>2024-07-08T07:53:27Z</time>
      </trkpt>
      <trkpt lat="45.12838" lon="6.09001">
        <ele>2076.7</ele>
        <time>2024-07-08T07:53:28Z</time>
      </trkpt>
      <trkpt lat="45.1284" lon="6.09001">
        <ele>2076.8</ele>
        <time>2024-07-08T07:53:29Z</time>
      </trkpt>
      <trkpt lat="45.12841" lon="6.09002">
        <ele>2076.8</ele>
        <time>2024-07-08T07:53:30Z</time>
      </trkpt>
      <trkpt lat="45.12842" lon="6.09004">
        <ele>2076.9</ele>
        <time>2024-07-08T07:53:31Z</time>
      </trkpt>
      <trkpt lat="45.12843" lon="6.09005">
        <ele>2076.9</ele>
        <time>2024-07-08T07:53:32Z</time>
      </trkpt>
      <trkpt lat="45.12845" lon="6.09006">
        <ele>2077</ele>
        <time>2024-07-08T07:53:33Z</time>
      </trkpt>
      <trkpt lat="45.12846" lon="6.09006">
        <ele>2077</ele>
        <time>2024-07-08T07:53:34Z</time>
      </trkpt>
      <trkpt lat="45.12848" lon="6.09006">
        <ele>2077.1</ele>
        <time>2024-07-08T07:53:35Z</time>
      </trkpt>
      <trkpt lat="45.12848" lon="6.09007">
        <ele>2077.1</ele>
        <time>2024-07-08T07:53:36Z</time>
      </trkpt>
      <trkpt lat="45.12849" lon="6.09007">
        <ele>2077.2</ele>
        <time>2024-07-08T07:53:37Z</time>
      </trkpt>
      <trkpt lat="45.12851" lon="6.09008">
        <ele>2077.2</ele>
        <time>2024-07-08T07:53:38Z</time>
      </trkpt>
      <trkpt lat="45.12853" lon="6.09008">
        <ele>2077.3</ele>
        <time>2024-07-08T07:53:39Z</time>
      </trkpt>
      <trkpt lat="45.12854" lon="6.09008">
        <ele>2077.3</ele>
        <time>2024-07-08T07:53:40Z</time>
      </trkpt>
      <trkpt lat="45.12855" lon="6.09008">
        <ele>2077.4</ele>
        <time>2024-07-08T07:53:41Z</time>
      </trkpt>
      <trkpt lat="45.12856" lon="6.09009">
        <ele>2077.4</ele>
        <time>2024-07-08T07:53:42Z</time>
      </trkpt>
      <trkpt lat="45.12857" lon="6.09009">
        <ele>2077.5</ele>
        <time>2024-07-08T07:53:43Z</time>
      </trkpt>
      <trkpt lat="45.12858" lon="6.0901">
        <ele>2077.6</ele>
        <time>2024-07-08T07:53:44Z</time>
      </trkpt>
      <trkpt lat="45.1286" lon="6.09012">
        <ele>2077.7</ele>
        <time>2024-07-08T07:53:45Z</time>
      </trkpt>
      <trkpt lat="45.12861" lon="6.09013">
        <ele>2077.7</ele>
        <time>2024-07-08T07:53:46Z</time>
      </trkpt>
      <trkpt lat="45.12861" lon="6.09014">
        <ele>2077.8</ele>
        <time>2024-07-08T07:53:47Z</time>
      </trkpt>
      <trkpt lat="45.12862" lon="6.09015">
        <ele>2077.8</ele>
        <time>2024-07-08T07:53:48Z</time>
      </trkpt>
      <trkpt lat="45.12863" lon="6.09016">
        <ele>2077.9</ele>
        <time>2024-07-08T07:53:49Z</time>
      </trkpt>
      <trkpt lat="45.12865" lon="6.09017">
        <ele>2078.1</ele>
        <time>2024-07-08T07:53:51Z</time>
      </trkpt>
      <trkpt lat="45.12866" lon="6.09018">
        <ele>2078.2</ele>
        <time>2024-07-08T07:53:52Z</time>
      </trkpt>
      <trkpt lat="45.12867" lon="6.09018">
        <ele>2078.2</ele>
        <time>2024-07-08T07:53:53Z</time>
      </trkpt>
      <trkpt lat="45.12869" lon="6.09019">
        <ele>2078.4</ele>
        <time>2024-07-08T07:53:54Z</time>
      </trkpt>
      <trkpt lat="45.1287" lon="6.0902">
        <ele>2078.5</ele>
        <time>2024-07-08T07:53:55Z</time>
      </trkpt>
      <trkpt lat="45.12871" lon="6.0902">
        <ele>2078.5</ele>
        <time>2024-07-08T07:53:56Z</time>
      </trkpt>
      <trkpt lat="45.12872" lon="6.09021">
        <ele>2078.6</ele>
        <time>2024-07-08T07:53:57Z</time>
      </trkpt>
      <trkpt lat="45.12872" lon="6.09021">
        <ele>2078.8</ele>
        <time>2024-07-08T07:53:58Z</time>
      </trkpt>
      <trkpt lat="45.12874" lon="6.09022">
        <ele>2078.9</ele>
        <time>2024-07-08T07:53:59Z</time>
      </trkpt>
      <trkpt lat="45.12875" lon="6.09023">
        <ele>2079.1</ele>
        <time>2024-07-08T07:54:00Z</time>
      </trkpt>
      <trkpt lat="45.12875" lon="6.09024">
        <ele>2079.2</ele>
        <time>2024-07-08T07:54:01Z</time>
      </trkpt>
      <trkpt lat="45.12877" lon="6.09024">
        <ele>2079.4</ele>
        <time>2024-07-08T07:54:02Z</time>
      </trkpt>
      <trkpt lat="45.12878" lon="6.09024">
        <ele>2079.5</ele>
        <time>2024-07-08T07:54:03Z</time>
      </trkpt>
      <trkpt lat="45.12879" lon="6.09024">
        <ele>2079.7</ele>
        <time>2024-07-08T07:54:04Z</time>
      </trkpt>
      <trkpt lat="45.1288" lon="6.09024">
        <ele>2079.8</ele>
        <time>2024-07-08T07:54:06Z</time>
      </trkpt>
      <trkpt lat="45.12882" lon="6.09024">
        <ele>2080.1</ele>
        <time>2024-07-08T07:54:07Z</time>
      </trkpt>
      <trkpt lat="45.12883" lon="6.09023">
        <ele>2080.2</ele>
        <time>2024-07-08T07:54:08Z</time>
      </trkpt>
      <trkpt lat="45.12884" lon="6.09023">
        <ele>2080.4</ele>
        <time>2024-07-08T07:54:09Z</time>
      </trkpt>
      <trkpt lat="45.12885" lon="6.09023">
        <ele>2080.6</ele>
        <time>2024-07-08T07:54:10Z</time>
      </trkpt>
      <trkpt lat="45.12887" lon="6.09022">
        <ele>2080.9</ele>
        <time>2024-07-08T07:54:12Z</time>
      </trkpt>
      <trkpt lat="45.12889" lon="6.09021">
        <ele>2081.1</ele>
        <time>2024-07-08T07:54:13Z</time>
      </trkpt>
      <trkpt lat="45.1289" lon="6.09021">
        <ele>2081.2</ele>
        <time>2024-07-08T07:54:14Z</time>
      </trkpt>
      <trkpt lat="45.12891" lon="6.09021">
        <ele>2081.4</ele>
        <time>2024-07-08T07:54:15Z</time>
      </trkpt>
      <trkpt lat="45.12892" lon="6.09021">
        <ele>2081.6</ele>
        <time>2024-07-08T07:54:16Z</time>
      </trkpt>
      <trkpt lat="45.12893" lon="6.09021">
        <ele>2081.8</ele>
        <time>2024-07-08T07:54:17Z</time>
      </trkpt>
      <trkpt lat="45.12894" lon="6.0902">
        <ele>2081.9</ele>
        <time>2024-07-08T07:54:18Z</time>
      </trkpt>
      <trkpt lat="45.12894" lon="6.09019">
        <ele>2082.1</ele>
        <time>2024-07-08T07:54:19Z</time>
      </trkpt>
      <trkpt lat="45.12895" lon="6.09018">
        <ele>2082.2</ele>
        <time>2024-07-08T07:54:21Z</time>
      </trkpt>
      <trkpt lat="45.12896" lon="6.0902">
        <ele>2082.5</ele>
        <time>2024-07-08T07:54:22Z</time>
      </trkpt>
      <trkpt lat="45.12899" lon="6.09022">
        <ele>2082.9</ele>
        <time>2024-07-08T07:54:23Z</time>
      </trkpt>
      <trkpt lat="45.129" lon="6.09024">
        <ele>2083.2</ele>
        <time>2024-07-08T07:54:24Z</time>
      </trkpt>
      <trkpt lat="45.129" lon="6.09024">
        <ele>2083.3</ele>
        <time>2024-07-08T07:54:25Z</time>
      </trkpt>
      <trkpt lat="45.12901" lon="6.09026">
        <ele>2083.6</ele>
        <time>2024-07-08T07:54:26Z</time>
      </trkpt>
      <trkpt lat="45.12901" lon="6.09028">
        <ele>2083.8</ele>
        <time>2024-07-08T07:54:27Z</time>
      </trkpt>
      <trkpt lat="45.12902" lon="6.0903">
        <ele>2084</ele>
        <time>2024-07-08T07:54:28Z</time>
      </trkpt>
      <trkpt lat="45.12903" lon="6.09031">
        <ele>2084.2</ele>
        <time>2024-07-08T07:54:29Z</time>
      </trkpt>
      <trkpt lat="45.12903" lon="6.09032">
        <ele>2084.3</ele>
        <time>2024-07-08T07:54:30Z</time>
      </trkpt>
      <trkpt lat="45.12905" lon="6.09033">
        <ele>2084.5</ele>
        <time>2024-07-08T07:54:31Z</time>
      </trkpt>
      <trkpt lat="45.12905" lon="6.09033">
        <ele>2084.6</ele>
        <time>2024-07-08T07:54:32Z</time>
      </trkpt>
      <trkpt lat="45.12906" lon="6.09034">
        <ele>2084.7</ele>
        <time>2024-07-08T07:54:33Z</time>
      </trkpt>
      <trkpt lat="45.12907" lon="6.09035">
        <ele>2084.8</ele>
        <time>2024-07-08T07:54:34Z</time>
      </trkpt>
      <trkpt lat="45.12908" lon="6.09035">
        <ele>2084.9</ele>
        <time>2024-07-08T07:54:35Z</time>
      </trkpt>
      <trkpt lat="45.12909" lon="6.09036">
        <ele>2085.1</ele>
        <time>2024-07-08T07:54:36Z</time>
      </trkpt>
      <trkpt lat="45.1291" lon="6.09036">
        <ele>2085.2</ele>
        <time>2024-07-08T07:54:37Z</time>
      </trkpt>
      <trkpt lat="45.1291" lon="6.09036">
        <ele>2085.2</ele>
        <time>2024-07-08T07:54:38Z</time>
      </trkpt>
      <trkpt lat="45.12911" lon="6.09037">
        <ele>2085.3</ele>
        <time>2024-07-08T07:54:39Z</time>
      </trkpt>
      <trkpt lat="45.12912" lon="6.09037">
        <ele>2085.4</ele>
        <time>2024-07-08T07:54:40Z</time>
      </trkpt>
      <trkpt lat="45.12914" lon="6.09039">
        <ele>2085.6</ele>
        <time>2024-07-08T07:54:42Z</time>
      </trkpt>
      <trkpt lat="45.12914" lon="6.0904">
        <ele>2085.7</ele>
        <time>2024-07-08T07:54:43Z</time>
      </trkpt>
      <trkpt lat="45.12915" lon="6.0904">
        <ele>2085.7</ele>
        <time>2024-07-08T07:54:44Z</time>
      </trkpt>
      <trkpt lat="45.12916" lon="6.09041">
        <ele>2085.8</ele>
        <time>2024-07-08T07:54:45Z</time>
      </trkpt>
      <trkpt lat="45.12917" lon="6.09042">
        <ele>2085.9</ele>
        <time>2024-07-08T07:54:46Z</time>
      </trkpt>
      <trkpt lat="45.12918" lon="6.09042">
        <ele>2086</ele>
        <time>2024-07-08T07:54:47Z</time>
      </trkpt>
      <trkpt lat="45.1292" lon="6.09043">
        <ele>2086.1</ele>
        <time>2024-07-08T07:54:48Z</time>
      </trkpt>
      <trkpt lat="45.12921" lon="6.09044">
        <ele>2086.2</ele>
        <time>2024-07-08T07:54:49Z</time>
      </trkpt>
      <trkpt lat="45.12922" lon="6.09044">
        <ele>2086.3</ele>
        <time>2024-07-08T07:54:51Z</time>
      </trkpt>
      <trkpt lat="45.12924" lon="6.09045">
        <ele>2086.4</ele>
        <time>2024-07-08T07:54:52Z</time>
      </trkpt>
      <trkpt lat="45.12925" lon="6.09045">
        <ele>2086.5</ele>
        <time>2024-07-08T07:54:53Z</time>
      </trkpt>
      <trkpt lat="45.12926" lon="6.09046">
        <ele>2086.6</ele>
        <time>2024-07-08T07:54:54Z</time>
      </trkpt>
      <trkpt lat="45.12929" lon="6.09047">
        <ele>2086.9</ele>
        <time>2024-07-08T07:54:56Z</time>
      </trkpt>
      <trkpt lat="45.12929" lon="6.09047">
        <ele>2086.9</ele>
        <time>2024-07-08T07:54:57Z</time>
      </trkpt>
      <trkpt lat="45.12931" lon="6.09048">
        <ele>2087.1</ele>
        <time>2024-07-08T07:54:58Z</time>
      </trkpt>
      <trkpt lat="45.12932" lon="6.09048">
        <ele>2087.2</ele>
        <time>2024-07-08T07:54:59Z</time>
      </trkpt>
      <trkpt lat="45.12932" lon="6.09049">
        <ele>2087.2</ele>
        <time>2024-07-08T07:55:00Z</time>
      </trkpt>
      <trkpt lat="45.12934" lon="6.09049">
        <ele>2087.3</ele>
        <time>2024-07-08T07:55:01Z</time>
      </trkpt>
      <trkpt lat="45.12935" lon="6.0905">
        <ele>2087.5</ele>
        <time>2024-07-08T07:55:03Z</time>
      </trkpt>
      <trkpt lat="45.12936" lon="6.0905">
        <ele>2087.6</ele>
        <time>2024-07-08T07:55:04Z</time>
      </trkpt>
      <trkpt lat="45.12937" lon="6.09051">
        <ele>2087.7</ele>
        <time>2024-07-08T07:55:05Z</time>
      </trkpt>
      <trkpt lat="45.12939" lon="6.09051">
        <ele>2087.8</ele>
        <time>2024-07-08T07:55:07Z</time>
      </trkpt>
      <trkpt lat="45.1294" lon="6.0905">
        <ele>2087.9</ele>
        <time>2024-07-08T07:55:08Z</time>
      </trkpt>
      <trkpt lat="45.12943" lon="6.0905">
        <ele>2088.1</ele>
        <time>2024-07-08T07:55:09Z</time>
      </trkpt>
      <trkpt lat="45.12943" lon="6.0905">
        <ele>2088.1</ele>
        <time>2024-07-08T07:55:10Z</time>
      </trkpt>
      <trkpt lat="45.12944" lon="6.0905">
        <ele>2088.2</ele>
        <time>2024-07-08T07:55:11Z</time>
      </trkpt>
      <trkpt lat="45.12946" lon="6.0905">
        <ele>2088.3</ele>
        <time>2024-07-08T07:55:12Z</time>
      </trkpt>
      <trkpt lat="45.12947" lon="6.09049">
        <ele>2088.3</ele>
        <time>2024-07-08T07:55:13Z</time>
      </trkpt>
      <trkpt lat="45.12948" lon="6.09049">
        <ele>2088.4</ele>
        <time>2024-07-08T07:55:14Z</time>
      </trkpt>
      <trkpt lat="45.12949" lon="6.09049">
        <ele>2088.4</ele>
        <time>2024-07-08T07:55:15Z</time>
      </trkpt>
      <trkpt lat="45.12952" lon="6.09048">
        <ele>2088.5</ele>
        <time>2024-07-08T07:55:17Z</time>
      </trkpt>
      <trkpt lat="45.12953" lon="6.09049">
        <ele>2088.5</ele>
        <time>2024-07-08T07:55:18Z</time>
      </trkpt>
      <trkpt lat="45.12954" lon="6.09049">
        <ele>2088.6</ele>
        <time>2024-07-08T07:55:19Z</time>
      </trkpt>
      <trkpt lat="45.12955" lon="6.0905">
        <ele>2088.6</ele>
        <time>2024-07-08T07:55:20Z</time>
      </trkpt>
      <trkpt lat="45.12957" lon="6.09051">
        <ele>2088.7</ele>
        <time>2024-07-08T07:55:21Z</time>
      </trkpt>
      <trkpt lat="45.12958" lon="6.09051">
        <ele>2088.7</ele>
        <time>2024-07-08T07:55:22Z</time>
      </trkpt>
      <trkpt lat="45.12958" lon="6.09051">
        <ele>2088.7</ele>
        <time>2024-07-08T07:55:23Z</time>
      </trkpt>
      <trkpt lat="45.12959" lon="6.09052">
        <ele>2088.7</ele>
        <time>2024-07-08T07:55:24Z</time>
      </trkpt>
      <trkpt lat="45.12961" lon="6.09052">
        <ele>2088.8</ele>
        <time>2024-07-08T07:55:25Z</time>
      </trkpt>
      <trkpt lat="45.12963" lon="6.09053">
        <ele>2088.9</ele>
        <time>2024-07-08T07:55:27Z</time>
      </trkpt>
      <trkpt lat="45.12964" lon="6.09054">
        <ele>2088.9</ele>
        <time>2024-07-08T07:55:28Z</time>
      </trkpt>
      <trkpt lat="45.12965" lon="6.09055">
        <ele>2088.9</ele>
        <time>2024-07-08T07:55:29Z</time>
      </trkpt>
      <trkpt lat="45.12967" lon="6.09056">
        <ele>2089</ele>
        <time>2024-07-08T07:55:30Z</time>
      </trkpt>
      <trkpt lat="45.12967" lon="6.09057">
        <ele>2089.1</ele>
        <time>2024-07-08T07:55:31Z</time>
      </trkpt>
      <trkpt lat="45.12968" lon="6.09058">
        <ele>2089.1</ele>
        <time>2024-07-08T07:55:32Z</time>
      </trkpt>
      <trkpt lat="45.12969" lon="6.09058">
        <ele>2089.1</ele>
        <time>2024-07-08T07:55:33Z</time>
      </trkpt>
      <trkpt lat="45.1297" lon="6.09059">
        <ele>2089.2</ele>
        <time>2024-07-08T07:55:34Z</time>
      </trkpt>
      <trkpt lat="45.12971" lon="6.09059">
        <ele>2089.2</ele>
        <time>2024-07-08T07:55:35Z</time>
      </trkpt>
      <trkpt lat="45.12973" lon="6.09059">
        <ele>2089.2</ele>
        <time>2024-07-08T07:55:36Z</time>
      </trkpt>
      <trkpt lat="45.12973" lon="6.0906">
        <ele>2089.2</ele>
        <time>2024-07-08T07:55:37Z</time>
      </trkpt>
      <trkpt lat="45.12975" lon="6.0906">
        <ele>2089.2</ele>
        <time>2024-07-08T07:55:38Z</time>
      </trkpt>
      <trkpt lat="45.12976" lon="6.0906">
        <ele>2089.2</ele>
        <time>2024-07-08T07:55:39Z</time>
      </trkpt>
      <trkpt lat="45.12977" lon="6.09061">
        <ele>2089.2</ele>
        <time>2024-07-08T07:55:40Z</time>
      </trkpt>
      <trkpt lat="45.12979" lon="6.09062">
        <ele>2089.2</ele>
        <time>2024-07-08T07:55:42Z</time>
      </trkpt>
      <trkpt lat="45.1298" lon="6.09063">
        <ele>2089.1</ele>
        <time>2024-07-08T07:55:43Z</time>
      </trkpt>
      <trkpt lat="45.12982" lon="6.09065">
        <ele>2089</ele>
        <time>2024-07-08T07:55:44Z</time>
      </trkpt>
      <trkpt lat="45.12983" lon="6.09065">
        <ele>2089</ele>
        <time>2024-07-08T07:55:45Z</time>
      </trkpt>
      <trkpt lat="45.12984" lon="6.09066">
        <ele>2088.9</ele>
        <time>2024-07-08T07:55:46Z</time>
      </trkpt>
      <trkpt lat="45.12985" lon="6.09067">
        <ele>2088.9</ele>
        <time>2024-07-08T07:55:47Z</time>
      </trkpt>
      <trkpt lat="45.12986" lon="6.09068">
        <ele>2088.8</ele>
        <time>2024-07-08T07:55:48Z</time>
      </trkpt>
      <trkpt lat="45.12988" lon="6.09068">
        <ele>2088.7</ele>
        <time>2024-07-08T07:55:49Z</time>
      </trkpt>
      <trkpt lat="45.12989" lon="6.09068">
        <ele>2088.6</ele>
        <time>2024-07-08T07:55:50Z</time>
      </trkpt>
      <trkpt lat="45.1299" lon="6.09069">
        <ele>2088.5</ele>
        <time>2024-07-08T07:55:51Z</time>
      </trkpt>
      <trkpt lat="45.12991" lon="6.0907">
        <ele>2088.5</ele>
        <time>2024-07-08T07:55:52Z</time>
      </trkpt>
      <trkpt lat="45.12992" lon="6.09072">
        <ele>2088.4</ele>
        <time>2024-07-08T07:55:53Z</time>
      </trkpt>
      <trkpt lat="45.12993" lon="6.09072">
        <ele>2088.3</ele>
        <time>2024-07-08T07:55:54Z</time>
      </trkpt>
      <trkpt lat="45.12994" lon="6.09073">
        <ele>2088.2</ele>
        <time>2024-07-08T07:55:55Z</time>
      </trkpt>
      <trkpt lat="45.12996" lon="6.09076">
        <ele>2088.1</ele>
        <time>2024-07-08T07:55:56Z</time>
      </trkpt>
      <trkpt lat="45.12996" lon="6.09076">
        <ele>2088</ele>
        <time>2024-07-08T07:55:57Z</time>
      </trkpt>
      <trkpt lat="45.12997" lon="6.09076">
        <ele>2088</ele>
        <time>2024-07-08T07:55:58Z</time>
      </trkpt>
      <trkpt lat="45.12999" lon="6.09076">
        <ele>2087.9</ele>
        <time>2024-07-08T07:55:59Z</time>
      </trkpt>
      <trkpt lat="45.13" lon="6.09077">
        <ele>2087.8</ele>
        <time>2024-07-08T07:56:00Z</time>
      </trkpt>
      <trkpt lat="45.13001" lon="6.09077">
        <ele>2087.8</ele>
        <time>2024-07-08T07:56:01Z</time>
      </trkpt>
      <trkpt lat="45.13001" lon="6.09077">
        <ele>2087.7</ele>
        <time>2024-07-08T07:56:02Z</time>
      </trkpt>
      <trkpt lat="45.13003" lon="6.09077">
        <ele>2087.6</ele>
        <time>2024-07-08T07:56:03Z</time>
      </trkpt>
      <trkpt lat="45.13004" lon="6.09078">
        <ele>2087.6</ele>
        <time>2024-07-08T07:56:04Z</time>
      </trkpt>
      <trkpt lat="45.13005" lon="6.09078">
        <ele>2087.5</ele>
        <time>2024-07-08T07:56:05Z</time>
      </trkpt>
      <trkpt lat="45.13007" lon="6.09079">
        <ele>2087.3</ele>
        <time>2024-07-08T07:56:06Z</time>
      </trkpt>
      <trkpt lat="45.13007" lon="6.09079">
        <ele>2087.3</ele>
        <time>2024-07-08T07:56:07Z</time>
      </trkpt>
      <trkpt lat="45.13008" lon="6.0908">
        <ele>2087.2</ele>
        <time>2024-07-08T07:56:08Z</time>
      </trkpt>
      <trkpt lat="45.13009" lon="6.0908">
        <ele>2087.1</ele>
        <time>2024-07-08T07:56:09Z</time>
      </trkpt>
      <trkpt lat="45.13011" lon="6.09081">
        <ele>2087</ele>
        <time>2024-07-08T07:56:10Z</time>
      </trkpt>
      <trkpt lat="45.13012" lon="6.09082">
        <ele>2086.9</ele>
        <time>2024-07-08T07:56:11Z</time>
      </trkpt>
      <trkpt lat="45.13013" lon="6.09082">
        <ele>2086.8</ele>
        <time>2024-07-08T07:56:12Z</time>
      </trkpt>
      <trkpt lat="45.13014" lon="6.09083">
        <ele>2086.7</ele>
        <time>2024-07-08T07:56:13Z</time>
      </trkpt>
      <trkpt lat="45.13015" lon="6.09083">
        <ele>2086.6</ele>
        <time>2024-07-08T07:56:14Z</time>
      </trkpt>
      <trkpt lat="45.13016" lon="6.09084">
        <ele>2086.5</ele>
        <time>2024-07-08T07:56:15Z</time>
      </trkpt>
      <trkpt lat="45.13018" lon="6.09085">
        <ele>2086.3</ele>
        <time>2024-07-08T07:56:16Z</time>
      </trkpt>
      <trkpt lat="45.13019" lon="6.09085">
        <ele>2086.3</ele>
        <time>2024-07-08T07:56:17Z</time>
      </trkpt>
      <trkpt lat="45.1302" lon="6.09086">
        <ele>2086.1</ele>
        <time>2024-07-08T07:56:18Z</time>
      </trkpt>
      <trkpt lat="45.13021" lon="6.09086">
        <ele>2086</ele>
        <time>2024-07-08T07:56:19Z</time>
      </trkpt>
      <trkpt lat="45.13023" lon="6.09087">
        <ele>2085.9</ele>
        <time>2024-07-08T07:56:20Z</time>
      </trkpt>
      <trkpt lat="45.13024" lon="6.09087">
        <ele>2085.8</ele>
        <time>2024-07-08T07:56:21Z</time>
      </trkpt>
      <trkpt lat="45.13026" lon="6.09089">
        <ele>2085.5</ele>
        <time>2024-07-08T07:56:22Z</time>
      </trkpt>
      <trkpt lat="45.13027" lon="6.09089">
        <ele>2085.5</ele>
        <time>2024-07-08T07:56:23Z</time>
      </trkpt>
      <trkpt lat="45.13027" lon="6.09089">
        <ele>2085.4</ele>
        <time>2024-07-08T07:56:24Z</time>
      </trkpt>
      <trkpt lat="45.13029" lon="6.09091">
        <ele>2085.2</ele>
        <time>2024-07-08T07:56:25Z</time>
      </trkpt>
      <trkpt lat="45.1303" lon="6.09092">
        <ele>2085.2</ele>
        <time>2024-07-08T07:56:26Z</time>
      </trkpt>
      <trkpt lat="45.1303" lon="6.09093">
        <ele>2085.1</ele>
        <time>2024-07-08T07:56:27Z</time>
      </trkpt>
      <trkpt lat="45.13032" lon="6.09094">
        <ele>2085</ele>
        <time>2024-07-08T07:56:28Z</time>
      </trkpt>
      <trkpt lat="45.13033" lon="6.09095">
        <ele>2085</ele>
        <time>2024-07-08T07:56:29Z</time>
      </trkpt>
      <trkpt lat="45.13034" lon="6.09095">
        <ele>2085</ele>
        <time>2024-07-08T07:56:30Z</time>
      </trkpt>
      <trkpt lat="45.13036" lon="6.09096">
        <ele>2084.9</ele>
        <time>2024-07-08T07:56:31Z</time>
      </trkpt>
      <trkpt lat="45.13037" lon="6.09096">
        <ele>2084.8</ele>
        <time>2024-07-08T07:56:32Z</time>
      </trkpt>
      <trkpt lat="45.13037" lon="6.09096">
        <ele>2084.8</ele>
        <time>2024-07-08T07:56:33Z</time>
      </trkpt>
      <trkpt lat="45.13039" lon="6.09096">
        <ele>2084.7</ele>
        <time>2024-07-08T07:56:34Z</time>
      </trkpt>
      <trkpt lat="45.1304" lon="6.09097">
        <ele>2084.6</ele>
        <time>2024-07-08T07:56:35Z</time>
      </trkpt>
      <trkpt lat="45.13042" lon="6.09097">
        <ele>2084.6</ele>
        <time>2024-07-08T07:56:36Z</time>
      </trkpt>
      <trkpt lat="45.13043" lon="6.09097">
        <ele>2084.5</ele>
        <time>2024-07-08T07:56:37Z</time>
      </trkpt>
      <trkpt lat="45.13045" lon="6.09098">
        <ele>2084.4</ele>
        <time>2024-07-08T07:56:38Z</time>
      </trkpt>
      <trkpt lat="45.13046" lon="6.09099">
        <ele>2084.3</ele>
        <time>2024-07-08T07:56:39Z</time>
      </trkpt>
      <trkpt lat="45.13046" lon="6.09099">
        <ele>2084.2</ele>
        <time>2024-07-08T07:56:40Z</time>
      </trkpt>
      <trkpt lat="45.13047" lon="6.091">
        <ele>2084.1</ele>
        <time>2024-07-08T07:56:41Z</time>
      </trkpt>
      <trkpt lat="45.13049" lon="6.09101">
        <ele>2084</ele>
        <time>2024-07-08T07:56:42Z</time>
      </trkpt>
      <trkpt lat="45.1305" lon="6.09104">
        <ele>2083.9</ele>
        <time>2024-07-08T07:56:43Z</time>
      </trkpt>
      <trkpt lat="45.13051" lon="6.09105">
        <ele>2083.8</ele>
        <time>2024-07-08T07:56:44Z</time>
      </trkpt>
      <trkpt lat="45.13051" lon="6.09106">
        <ele>2083.8</ele>
        <time>2024-07-08T07:56:45Z</time>
      </trkpt>
      <trkpt lat="45.13052" lon="6.09107">
        <ele>2083.7</ele>
        <time>2024-07-08T07:56:46Z</time>
      </trkpt>
      <trkpt lat="45.13054" lon="6.09108">
        <ele>2083.6</ele>
        <time>2024-07-08T07:56:48Z</time>
      </trkpt>
      <trkpt lat="45.13056" lon="6.09108">
        <ele>2083.4</ele>
        <time>2024-07-08T07:56:49Z</time>
      </trkpt>
      <trkpt lat="45.13057" lon="6.09109">
        <ele>2083.4</ele>
        <time>2024-07-08T07:56:50Z</time>
      </trkpt>
      <trkpt lat="45.1306" lon="6.09108">
        <ele>2083.2</ele>
        <time>2024-07-08T07:56:51Z</time>
      </trkpt>
      <trkpt lat="45.13061" lon="6.09108">
        <ele>2083.2</ele>
        <time>2024-07-08T07:56:53Z</time>
      </trkpt>
      <trkpt lat="45.13062" lon="6.09108">
        <ele>2083.1</ele>
        <time>2024-07-08T07:56:54Z</time>
      </trkpt>
      <trkpt lat="45.13064" lon="6.09107">
        <ele>2083.1</ele>
        <time>2024-07-08T07:56:55Z</time>
      </trkpt>
      <trkpt lat="45.13065" lon="6.09107">
        <ele>2083</ele>
        <time>2024-07-08T07:56:56Z</time>
      </trkpt>
      <trkpt lat="45.13067" lon="6.09108">
        <ele>2082.9</ele>
        <time>2024-07-08T07:56:58Z</time>
      </trkpt>
      <trkpt lat="45.13068" lon="6.09109">
        <ele>2082.9</ele>
        <time>2024-07-08T07:56:59Z</time>
      </trkpt>
      <trkpt lat="45.1307" lon="6.09109">
        <ele>2082.9</ele>
        <time>2024-07-08T07:57:00Z</time>
      </trkpt>
      <trkpt lat="45.13071" lon="6.09109">
        <ele>2082.8</ele>
        <time>2024-07-08T07:57:01Z</time>
      </trkpt>
      <trkpt lat="45.13072" lon="6.0911">
        <ele>2082.8</ele>
        <time>2024-07-08T07:57:02Z</time>
      </trkpt>
      <trkpt lat="45.13073" lon="6.0911">
        <ele>2082.8</ele>
        <time>2024-07-08T07:57:03Z</time>
      </trkpt>
      <trkpt lat="45.13075" lon="6.0911">
        <ele>2082.7</ele>
        <time>2024-07-08T07:57:04Z</time>
      </trkpt>
      <trkpt lat="45.13076" lon="6.09111">
        <ele>2082.7</ele>
        <time>2024-07-08T07:57:05Z</time>
      </trkpt>
      <trkpt lat="45.13077" lon="6.0911">
        <ele>2082.7</ele>
        <time>2024-07-08T07:57:06Z</time>
      </trkpt>
      <trkpt lat="45.13079" lon="6.0911">
        <ele>2082.7</ele>
        <time>2024-07-08T07:57:07Z</time>
      </trkpt>
      <trkpt lat="45.1308" lon="6.09111">
        <ele>2082.7</ele>
        <time>2024-07-08T07:57:08Z</time>
      </trkpt>
      <trkpt lat="45.13081" lon="6.09111">
        <ele>2082.6</ele>
        <time>2024-07-08T07:57:09Z</time>
      </trkpt>
      <trkpt lat="45.13082" lon="6.09112">
        <ele>2082.6</ele>
        <time>2024-07-08T07:57:10Z</time>
      </trkpt>
      <trkpt lat="45.13083" lon="6.09113">
        <ele>2082.6</ele>
        <time>2024-07-08T07:57:11Z</time>
      </trkpt>
      <trkpt lat="45.13085" lon="6.09114">
        <ele>2082.6</ele>
        <time>2024-07-08T07:57:12Z</time>
      </trkpt>
      <trkpt lat="45.13085" lon="6.09115">
        <ele>2082.6</ele>
        <time>2024-07-08T07:57:13Z</time>
      </trkpt>
      <trkpt lat="45.13086" lon="6.09116">
        <ele>2082.5</ele>
        <time>2024-07-08T07:57:14Z</time>
      </trkpt>
      <trkpt lat="45.13087" lon="6.09117">
        <ele>2082.5</ele>
        <time>2024-07-08T07:57:15Z</time>
      </trkpt>
      <trkpt lat="45.13089" lon="6.09118">
        <ele>2082.5</ele>
        <time>2024-07-08T07:57:16Z</time>
      </trkpt>
      <trkpt lat="45.1309" lon="6.09119">
        <ele>2082.5</ele>
        <time>2024-07-08T07:57:17Z</time>
      </trkpt>
      <trkpt lat="45.13091" lon="6.0912">
        <ele>2082.5</ele>
        <time>2024-07-08T07:57:18Z</time>
      </trkpt>
      <trkpt lat="45.13093" lon="6.09122">
        <ele>2082.5</ele>
        <time>2024-07-08T07:57:20Z</time>
      </trkpt>
      <trkpt lat="45.13095" lon="6.09122">
        <ele>2082.5</ele>
        <time>2024-07-08T07:57:21Z</time>
      </trkpt>
      <trkpt lat="45.13096" lon="6.09123">
        <ele>2082.5</ele>
        <time>2024-07-08T07:57:22Z</time>
      </trkpt>
      <trkpt lat="45.13098" lon="6.09125">
        <ele>2082.5</ele>
        <time>2024-07-08T07:57:23Z</time>
      </trkpt>
      <trkpt lat="45.13098" lon="6.09126">
        <ele>2082.6</ele>
        <time>2024-07-08T07:57:24Z</time>
      </trkpt>
      <trkpt lat="45.13099" lon="6.09126">
        <ele>2082.6</ele>
        <time>2024-07-08T07:57:25Z</time>
      </trkpt>
      <trkpt lat="45.13101" lon="6.09127">
        <ele>2082.6</ele>
        <time>2024-07-08T07:57:26Z</time>
      </trkpt>
      <trkpt lat="45.13102" lon="6.09128">
        <ele>2082.6</ele>
        <time>2024-07-08T07:57:27Z</time>
      </trkpt>
      <trkpt lat="45.13102" lon="6.09128">
        <ele>2082.6</ele>
        <time>2024-07-08T07:57:28Z</time>
      </trkpt>
      <trkpt lat="45.13104" lon="6.0913">
        <ele>2082.7</ele>
        <time>2024-07-08T07:57:29Z</time>
      </trkpt>
      <trkpt lat="45.13105" lon="6.0913">
        <ele>2082.7</ele>
        <time>2024-07-08T07:57:30Z</time>
      </trkpt>
      <trkpt lat="45.13106" lon="6.0913">
        <ele>2082.7</ele>
        <time>2024-07-08T07:57:31Z</time>
      </trkpt>
      <trkpt lat="45.13108" lon="6.09131">
        <ele>2082.7</ele>
        <time>2024-07-08T07:57:32Z</time>
      </trkpt>
      <trkpt lat="45.13109" lon="6.09131">
        <ele>2082.7</ele>
        <time>2024-07-08T07:57:33Z</time>
      </trkpt>
      <trkpt lat="45.1311" lon="6.09132">
        <ele>2082.7</ele>
        <time>2024-07-08T07:57:34Z</time>
      </trkpt>
      <trkpt lat="45.13111" lon="6.09132">
        <ele>2082.7</ele>
        <time>2024-07-08T07:57:35Z</time>
      </trkpt>
      <trkpt lat="45.13112" lon="6.09133">
        <ele>2082.7</ele>
        <time>2024-07-08T07:57:36Z</time>
      </trkpt>
      <trkpt lat="45.13114" lon="6.09134">
        <ele>2082.7</ele>
        <time>2024-07-08T07:57:37Z</time>
      </trkpt>
      <trkpt lat="45.13115" lon="6.09135">
        <ele>2082.6</ele>
        <time>2024-07-08T07:57:38Z</time>
      </trkpt>
      <trkpt lat="45.13116" lon="6.09135">
        <ele>2082.6</ele>
        <time>2024-07-08T07:57:39Z</time>
      </trkpt>
      <trkpt lat="45.13118" lon="6.09136">
        <ele>2082.6</ele>
        <time>2024-07-08T07:57:40Z</time>
      </trkpt>
      <trkpt lat="45.13119" lon="6.09136">
        <ele>2082.5</ele>
        <time>2024-07-08T07:57:41Z</time>
      </trkpt>
      <trkpt lat="45.13121" lon="6.09136">
        <ele>2082.4</ele>
        <time>2024-07-08T07:57:42Z</time>
      </trkpt>
      <trkpt lat="45.13123" lon="6.09136">
        <ele>2082.2</ele>
        <time>2024-07-08T07:57:43Z</time>
      </trkpt>
      <trkpt lat="45.13124" lon="6.09136">
        <ele>2082.2</ele>
        <time>2024-07-08T07:57:44Z</time>
      </trkpt>
      <trkpt lat="45.13125" lon="6.09136">
        <ele>2082.1</ele>
        <time>2024-07-08T07:57:45Z</time>
      </trkpt>
      <trkpt lat="45.13127" lon="6.09136">
        <ele>2081.9</ele>
        <time>2024-07-08T07:57:46Z</time>
      </trkpt>
      <trkpt lat="45.13127" lon="6.09136">
        <ele>2081.8</ele>
        <time>2024-07-08T07:57:47Z</time>
      </trkpt>
      <trkpt lat="45.13128" lon="6.09137">
        <ele>2081.7</ele>
        <time>2024-07-08T07:57:48Z</time>
      </trkpt>
      <trkpt lat="45.13129" lon="6.09137">
        <ele>2081.6</ele>
        <time>2024-07-08T07:57:49Z</time>
      </trkpt>
      <trkpt lat="45.13131" lon="6.09137">
        <ele>2081.5</ele>
        <time>2024-07-08T07:57:50Z</time>
      </trkpt>
      <trkpt lat="45.13132" lon="6.09137">
        <ele>2081.3</ele>
        <time>2024-07-08T07:57:51Z</time>
      </trkpt>
      <trkpt lat="45.13133" lon="6.09138">
        <ele>2081.2</ele>
        <time>2024-07-08T07:57:52Z</time>
      </trkpt>
      <trkpt lat="45.13134" lon="6.09138">
        <ele>2081</ele>
        <time>2024-07-08T07:57:53Z</time>
      </trkpt>
      <trkpt lat="45.13135" lon="6.09139">
        <ele>2080.9</ele>
        <time>2024-07-08T07:57:54Z</time>
      </trkpt>
      <trkpt lat="45.13137" lon="6.09139">
        <ele>2080.6</ele>
        <time>2024-07-08T07:57:55Z</time>
      </trkpt>
      <trkpt lat="45.13138" lon="6.0914">
        <ele>2080.5</ele>
        <time>2024-07-08T07:57:56Z</time>
      </trkpt>
      <trkpt lat="45.13139" lon="6.0914">
        <ele>2080.3</ele>
        <time>2024-07-08T07:57:57Z</time>
      </trkpt>
      <trkpt lat="45.1314" lon="6.09142">
        <ele>2080.1</ele>
        <time>2024-07-08T07:57:58Z</time>
      </trkpt>
      <trkpt lat="45.13141" lon="6.09142">
        <ele>2079.9</ele>
        <time>2024-07-08T07:57:59Z</time>
      </trkpt>
      <trkpt lat="45.13142" lon="6.09143">
        <ele>2079.8</ele>
        <time>2024-07-08T07:58:00Z</time>
      </trkpt>
      <trkpt lat="45.13143" lon="6.09143">
        <ele>2079.6</ele>
        <time>2024-07-08T07:58:01Z</time>
      </trkpt>
      <trkpt lat="45.13145" lon="6.09144">
        <ele>2079.3</ele>
        <time>2024-07-08T07:58:02Z</time>
      </trkpt>
      <trkpt lat="45.13148" lon="6.09147">
        <ele>2078.8</ele>
        <time>2024-07-08T07:58:04Z</time>
      </trkpt>
      <trkpt lat="45.13148" lon="6.09147">
        <ele>2078.7</ele>
        <time>2024-07-08T07:58:05Z</time>
      </trkpt>
      <trkpt lat="45.13149" lon="6.09148">
        <ele>2078.5</ele>
        <time>2024-07-08T07:58:06Z</time>
      </trkpt>
      <trkpt lat="45.13151" lon="6.09149">
        <ele>2078.2</ele>
        <time>2024-07-08T07:58:07Z</time>
      </trkpt>
      <trkpt lat="45.13152" lon="6.0915">
        <ele>2078.1</ele>
        <time>2024-07-08T07:58:08Z</time>
      </trkpt>
      <trkpt lat="45.13153" lon="6.0915">
        <ele>2078</ele>
        <time>2024-07-08T07:58:09Z</time>
      </trkpt>
      <trkpt lat="45.13154" lon="6.09149">
        <ele>2077.8</ele>
        <time>2024-07-08T07:58:10Z</time>
      </trkpt>
      <trkpt lat="45.13155" lon="6.09149">
        <ele>2077.7</ele>
        <time>2024-07-08T07:58:11Z</time>
      </trkpt>
      <trkpt lat="45.13157" lon="6.0915">
        <ele>2077.5</ele>
        <time>2024-07-08T07:58:12Z</time>
      </trkpt>
      <trkpt lat="45.13157" lon="6.0915">
        <ele>2077.4</ele>
        <time>2024-07-08T07:58:13Z</time>
      </trkpt>
      <trkpt lat="45.13159" lon="6.09151">
        <ele>2077.3</ele>
        <time>2024-07-08T07:58:14Z</time>
      </trkpt>
      <trkpt lat="45.1316" lon="6.09151">
        <ele>2077.2</ele>
        <time>2024-07-08T07:58:15Z</time>
      </trkpt>
      <trkpt lat="45.13161" lon="6.09151">
        <ele>2077.1</ele>
        <time>2024-07-08T07:58:16Z</time>
      </trkpt>
      <trkpt lat="45.13162" lon="6.09151">
        <ele>2077</ele>
        <time>2024-07-08T07:58:17Z</time>
      </trkpt>
      <trkpt lat="45.13163" lon="6.09151">
        <ele>2076.9</ele>
        <time>2024-07-08T07:58:18Z</time>
      </trkpt>
      <trkpt lat="45.13165" lon="6.09151">
        <ele>2076.7</ele>
        <time>2024-07-08T07:58:19Z</time>
      </trkpt>
      <trkpt lat="45.13166" lon="6.09151">
        <ele>2076.7</ele>
        <time>2024-07-08T07:58:20Z</time>
      </trkpt>
      <trkpt lat="45.13167" lon="6.09151">
        <ele>2076.6</ele>
        <time>2024-07-08T07:58:21Z</time>
      </trkpt>
      <trkpt lat="45.13168" lon="6.09151">
        <ele>2076.6</ele>
        <time>2024-07-08T07:58:22Z</time>
      </trkpt>
      <trkpt lat="45.13169" lon="6.09151">
        <ele>2076.5</ele>
        <time>2024-07-08T07:58:23Z</time>
      </trkpt>
      <trkpt lat="45.1317" lon="6.09151">
        <ele>2076.4</ele>
        <time>2024-07-08T07:58:24Z</time>
      </trkpt>
      <trkpt lat="45.13172" lon="6.09151">
        <ele>2076.4</ele>
        <time>2024-07-08T07:58:25Z</time>
      </trkpt>
      <trkpt lat="45.13173" lon="6.09151">
        <ele>2076.3</ele>
        <time>2024-07-08T07:58:26Z</time>
      </trkpt>
      <trkpt lat="45.13173" lon="6.09152">
        <ele>2076.3</ele>
        <time>2024-07-08T07:58:27Z</time>
      </trkpt>
      <trkpt lat="45.13174" lon="6.09152">
        <ele>2076.2</ele>
        <time>2024-07-08T07:58:28Z</time>
      </trkpt>
      <trkpt lat="45.13175" lon="6.09152">
        <ele>2076.2</ele>
        <time>2024-07-08T07:58:29Z</time>
      </trkpt>
      <trkpt lat="45.13176" lon="6.09152">
        <ele>2076.1</ele>
        <time>2024-07-08T07:58:30Z</time>
      </trkpt>
      <trkpt lat="45.13177" lon="6.09152">
        <ele>2076</ele>
        <time>2024-07-08T07:58:31Z</time>
      </trkpt>
      <trkpt lat="45.1318" lon="6.09153">
        <ele>2075.9</ele>
        <time>2024-07-08T07:58:33Z</time>
      </trkpt>
      <trkpt lat="45.13181" lon="6.09154">
        <ele>2075.8</ele>
        <time>2024-07-08T07:58:34Z</time>
      </trkpt>
      <trkpt lat="45.13182" lon="6.09155">
        <ele>2075.8</ele>
        <time>2024-07-08T07:58:35Z</time>
      </trkpt>
      <trkpt lat="45.13183" lon="6.09155">
        <ele>2075.7</ele>
        <time>2024-07-08T07:58:36Z</time>
      </trkpt>
      <trkpt lat="45.13184" lon="6.09156">
        <ele>2075.6</ele>
        <time>2024-07-08T07:58:37Z</time>
      </trkpt>
      <trkpt lat="45.13185" lon="6.09157">
        <ele>2075.5</ele>
        <time>2024-07-08T07:58:38Z</time>
      </trkpt>
      <trkpt lat="45.13186" lon="6.09157">
        <ele>2075.5</ele>
        <time>2024-07-08T07:58:39Z</time>
      </trkpt>
      <trkpt lat="45.13187" lon="6.09157">
        <ele>2075.4</ele>
        <time>2024-07-08T07:58:40Z</time>
      </trkpt>
      <trkpt lat="45.13188" lon="6.09156">
        <ele>2075.3</ele>
        <time>2024-07-08T07:58:41Z</time>
      </trkpt>
      <trkpt lat="45.1319" lon="6.09154">
        <ele>2075.2</ele>
        <time>2024-07-08T07:58:42Z</time>
      </trkpt>
      <trkpt lat="45.1319" lon="6.09153">
        <ele>2075.2</ele>
        <time>2024-07-08T07:58:43Z</time>
      </trkpt>
      <trkpt lat="45.13191" lon="6.09153">
        <ele>2075.1</ele>
        <time>2024-07-08T07:58:44Z</time>
      </trkpt>
      <trkpt lat="45.13192" lon="6.09152">
        <ele>2075</ele>
        <time>2024-07-08T07:58:45Z</time>
      </trkpt>
      <trkpt lat="45.13193" lon="6.09152">
        <ele>2074.8</ele>
        <time>2024-07-08T07:58:46Z</time>
      </trkpt>
      <trkpt lat="45.13195" lon="6.09151">
        <ele>2074.5</ele>
        <time>2024-07-08T07:58:47Z</time>
      </trkpt>
      <trkpt lat="45.13196" lon="6.09152">
        <ele>2074.4</ele>
        <time>2024-07-08T07:58:48Z</time>
      </trkpt>
      <trkpt lat="45.13197" lon="6.09152">
        <ele>2074.2</ele>
        <time>2024-07-08T07:58:49Z</time>
      </trkpt>
      <trkpt lat="45.13198" lon="6.09153">
        <ele>2074</ele>
        <time>2024-07-08T07:58:50Z</time>
      </trkpt>
      <trkpt lat="45.13198" lon="6.09153">
        <ele>2073.9</ele>
        <time>2024-07-08T07:58:51Z</time>
      </trkpt>
      <trkpt lat="45.132" lon="6.09152">
        <ele>2073.6</ele>
        <time>2024-07-08T07:58:52Z</time>
      </trkpt>
      <trkpt lat="45.132" lon="6.09151">
        <ele>2073.5</ele>
        <time>2024-07-08T07:58:53Z</time>
      </trkpt>
      <trkpt lat="45.13201" lon="6.09151">
        <ele>2073.3</ele>
        <time>2024-07-08T07:58:54Z</time>
      </trkpt>
      <trkpt lat="45.13202" lon="6.09152">
        <ele>2073.1</ele>
        <time>2024-07-08T07:58:55Z</time>
      </trkpt>
      <trkpt lat="45.13203" lon="6.09153">
        <ele>2072.9</ele>
        <time>2024-07-08T07:58:56Z</time>
      </trkpt>
      <trkpt lat="45.13204" lon="6.09154">
        <ele>2072.7</ele>
        <time>2024-07-08T07:58:57Z</time>
      </trkpt>
      <trkpt lat="45.13204" lon="6.09155">
        <ele>2072.5</ele>
        <time>2024-07-08T07:58:58Z</time>
      </trkpt>
      <trkpt lat="45.13205" lon="6.09157">
        <ele>2072.2</ele>
        <time>2024-07-08T07:58:59Z</time>
      </trkpt>
      <trkpt lat="45.13206" lon="6.09159">
        <ele>2071.9</ele>
        <time>2024-07-08T07:59:00Z</time>
      </trkpt>
      <trkpt lat="45.13206" lon="6.0916">
        <ele>2071.7</ele>
        <time>2024-07-08T07:59:01Z</time>
      </trkpt>
      <trkpt lat="45.13207" lon="6.09159">
        <ele>2071.5</ele>
        <time>2024-07-08T07:59:02Z</time>
      </trkpt>
      <trkpt lat="45.13208" lon="6.09158">
        <ele>2071.1</ele>
        <time>2024-07-08T07:59:03Z</time>
      </trkpt>
      <trkpt lat="45.13209" lon="6.09156">
        <ele>2070.8</ele>
        <time>2024-07-08T07:59:04Z</time>
      </trkpt>
      <trkpt lat="45.13211" lon="6.09155">
        <ele>2070.3</ele>
        <time>2024-07-08T07:59:05Z</time>
      </trkpt>
      <trkpt lat="45.13212" lon="6.09155">
        <ele>2070.1</ele>
        <time>2024-07-08T07:59:06Z</time>
      </trkpt>
      <trkpt lat="45.13213" lon="6.09154">
        <ele>2069.9</ele>
        <time>2024-07-08T07:59:07Z</time>
      </trkpt>
      <trkpt lat="45.13214" lon="6.09154">
        <ele>2069.8</ele>
        <time>2024-07-08T07:59:08Z</time>
      </trkpt>
      <trkpt lat="45.13214" lon="6.09155">
        <ele>2069.6</ele>
        <time>2024-07-08T07:59:09Z</time>
      </trkpt>
      <trkpt lat="45.13215" lon="6.09156">
        <ele>2069.3</ele>
        <time>2024-07-08T07:59:10Z</time>
      </trkpt>
      <trkpt lat="45.13217" lon="6.09157">
        <ele>2068.9</ele>
        <time>2024-07-08T07:59:12Z</time>
      </trkpt>
      <trkpt lat="45.13218" lon="6.09157">
        <ele>2068.7</ele>
        <time>2024-07-08T07:59:13Z</time>
      </trkpt>
      <trkpt lat="45.13218" lon="6.09157">
        <ele>2068.6</ele>
        <time>2024-07-08T07:59:14Z</time>
      </trkpt>
      <trkpt lat="45.13219" lon="6.09156">
        <ele>2068.4</ele>
        <time>2024-07-08T07:59:15Z</time>
      </trkpt>
      <trkpt lat="45.13219" lon="6.09156">
        <ele>2068.4</ele>
        <time>2024-07-08T07:59:16Z</time>
      </trkpt>
      <trkpt lat="45.1322" lon="6.09155">
        <ele>2068.3</ele>
        <time>2024-07-08T07:59:17Z</time>
      </trkpt>
      <trkpt lat="45.1322" lon="6.09155">
        <ele>2068.2</ele>
        <time>2024-07-08T07:59:18Z</time>
      </trkpt>
      <trkpt lat="45.13221" lon="6.09156">
        <ele>2068.1</ele>
        <time>2024-07-08T07:59:19Z</time>
      </trkpt>
      <trkpt lat="45.13222" lon="6.09158">
        <ele>2067.9</ele>
        <time>2024-07-08T07:59:20Z</time>
      </trkpt>
      <trkpt lat="45.13222" lon="6.09159">
        <ele>2067.8</ele>
        <time>2024-07-08T07:59:21Z</time>
      </trkpt>
      <trkpt lat="45.13223" lon="6.09159">
        <ele>2067.6</ele>
        <time>2024-07-08T07:59:22Z</time>
      </trkpt>
      <trkpt lat="45.13224" lon="6.0916">
        <ele>2067.5</ele>
        <time>2024-07-08T07:59:23Z</time>
      </trkpt>
      <trkpt lat="45.13224" lon="6.0916">
        <ele>2067.4</ele>
        <time>2024-07-08T07:59:24Z</time>
      </trkpt>
      <trkpt lat="45.13224" lon="6.0916">
        <ele>2067.4</ele>
        <time>2024-07-08T07:59:25Z</time>
      </trkpt>
      <trkpt lat="45.13224" lon="6.09161">
        <ele>2067.3</ele>
        <time>2024-07-08T07:59:26Z</time>
      </trkpt>
      <trkpt lat="45.13225" lon="6.09162">
        <ele>2067.2</ele>
        <time>2024-07-08T07:59:27Z</time>
      </trkpt>
      <trkpt lat="45.13226" lon="6.09163">
        <ele>2067</ele>
        <time>2024-07-08T07:59:28Z</time>
      </trkpt>
      <trkpt lat="45.13226" lon="6.09163">
        <ele>2066.9</ele>
        <time>2024-07-08T07:59:29Z</time>
      </trkpt>
      <trkpt lat="45.13227" lon="6.09162">
        <ele>2066.8</ele>
        <time>2024-07-08T07:59:30Z</time>
      </trkpt>
      <trkpt lat="45.13228" lon="6.09162">
        <ele>2066.7</ele>
        <time>2024-07-08T07:59:31Z</time>
      </trkpt>
      <trkpt lat="45.13228" lon="6.09162">
        <ele>2066.6</ele>
        <time>2024-07-08T07:59:32Z</time>
      </trkpt>
      <trkpt lat="45.13229" lon="6.09163">
        <ele>2066.5</ele>
        <time>2024-07-08T07:59:33Z</time>
      </trkpt>
      <trkpt lat="45.13229" lon="6.09164">
        <ele>2066.4</ele>
        <time>2024-07-08T07:59:34Z</time>
      </trkpt>
      <trkpt lat="45.13229" lon="6.09164">
        <ele>2066.4</ele>
        <time>2024-07-08T07:59:35Z</time>
      </trkpt>
      <trkpt lat="45.13229" lon="6.09165">
        <ele>2066.3</ele>
        <time>2024-07-08T07:59:36Z</time>
      </trkpt>
      <trkpt lat="45.13228" lon="6.09164">
        <ele>2066.2</ele>
        <time>2024-07-08T07:59:37Z</time>
      </trkpt>
      <trkpt lat="45.13228" lon="6.09164">
        <ele>2066.2</ele>
        <time>2024-07-08T07:59:38Z</time>
      </trkpt>
      <trkpt lat="45.13228" lon="6.09164">
        <ele>2066.1</ele>
        <time>2024-07-08T07:59:39Z</time>
      </trkpt>
      <trkpt lat="45.13227" lon="6.09163">
        <ele>2066.1</ele>
        <time>2024-07-08T07:59:40Z</time>
      </trkpt>
      <trkpt lat="45.13227" lon="6.09163">
        <ele>2066.1</ele>
        <time>2024-07-08T07:59:41Z</time>
      </trkpt>
      <trkpt lat="45.13227" lon="6.09163">
        <ele>2066.1</ele>
        <time>2024-07-08T07:59:42Z</time>
      </trkpt>
      <trkpt lat="45.13227" lon="6.09163">
        <ele>2066</ele>
        <time>2024-07-08T07:59:43Z</time>
      </trkpt>
      <trkpt lat="45.13227" lon="6.09163">
        <ele>2066</ele>
        <time>2024-07-08T07:59:44Z</time>
      </trkpt>
      <trkpt lat="45.13227" lon="6.09163">
        <ele>2066</ele>
        <time>2024-07-08T07:59:45Z</time>
      </trkpt>
      <trkpt lat="45.13227" lon="6.09162">
        <ele>2066</ele>
        <time>2024-07-08T07:59:46Z</time>
      </trkpt>
      <trkpt lat="45.13227" lon="6.09162">
        <ele>2066</ele>
        <time>2024-07-08T07:59:47Z</time>
      </trkpt>
      <trkpt lat="45.13226" lon="6.09162">
        <ele>2065.9</ele>
        <time>2024-07-08T07:59:48Z</time>
      </trkpt>
      <trkpt lat="45.13226" lon="6.09162">
        <ele>2065.9</ele>
        <time>2024-07-08T07:59:49Z</time>
      </trkpt>
      <trkpt lat="45.13225" lon="6.09161">
        <ele>2065.8</ele>
        <time>2024-07-08T07:59:51Z</time>
      </trkpt>
      <trkpt lat="45.13225" lon="6.09161">
        <ele>2065.7</ele>
        <time>2024-07-08T07:59:52Z</time>
      </trkpt>
      <trkpt lat="45.13224" lon="6.0916">
        <ele>2065.6</ele>
        <time>2024-07-08T07:59:53Z</time>
      </trkpt>
      <trkpt lat="45.13223" lon="6.09159">
        <ele>2065.5</ele>
        <time>2024-07-08T07:59:54Z</time>
      </trkpt>
      <trkpt lat="45.13223" lon="6.09159">
        <ele>2065.4</ele>
        <time>2024-07-08T07:59:55Z</time>
      </trkpt>
      <trkpt lat="45.13223" lon="6.09159">
        <ele>2065.4</ele>
        <time>2024-07-08T07:59:56Z</time>
      </trkpt>
      <trkpt lat="45.13223" lon="6.09159">
        <ele>2065.4</ele>
        <time>2024-07-08T07:59:57Z</time>
      </trkpt>
      <trkpt lat="45.13223" lon="6.09159">
        <ele>2065.4</ele>
        <time>2024-07-08T07:59:59Z</time>
      </trkpt>
      <trkpt lat="45.13223" lon="6.09159">
        <ele>2065.4</ele>
        <time>2024-07-08T08:00:00Z</time>
      </trkpt>
      <trkpt lat="45.13222" lon="6.09159">
        <ele>2065.3</ele>
        <time>2024-07-08T08:00:01Z</time>
      </trkpt>
      <trkpt lat="45.13222" lon="6.09159">
        <ele>2065.3</ele>
        <time>2024-07-08T08:00:03Z</time>
      </trkpt>
      <trkpt lat="45.13222" lon="6.09159">
        <ele>2065.3</ele>
        <time>2024-07-08T08:00:04Z</time>
      </trkpt>
      <trkpt lat="45.13222" lon="6.09159">
        <ele>2065.3</ele>
        <time>2024-07-08T08:00:05Z</time>
      </trkpt>
      <trkpt lat="45.13222" lon="6.09159">
        <ele>2065.3</ele>
        <time>2024-07-08T08:00:06Z</time>
      </trkpt>
      <trkpt lat="45.13222" lon="6.09159">
        <ele>2065.3</ele>
        <time>2024-07-08T08:00:07Z</time>
      </trkpt>
      <trkpt lat="45.13222" lon="6.09159">
        <ele>2065.3</ele>
        <time>2024-07-08T08:00:08Z</time>
      </trkpt>
      <trkpt lat="45.13222" lon="6.09159">
        <ele>2065.3</ele>
        <time>2024-07-08T08:00:09Z</time>
      </trkpt>
      <trkpt lat="45.13222" lon="6.09159">
        <ele>2065.2</ele>
        <time>2024-07-08T08:00:10Z</time>
      </trkpt>
      <trkpt lat="45.13222" lon="6.0916">
        <ele>2065.2</ele>
        <time>2024-07-08T08:00:11Z</time>
      </trkpt>
      <trkpt lat="45.13221" lon="6.09159">
        <ele>2065.2</ele>
        <time>2024-07-08T08:00:12Z</time>
      </trkpt>
      <trkpt lat="45.13221" lon="6.09159">
        <ele>2065.1</ele>
        <time>2024-07-08T08:00:13Z</time>
      </trkpt>
      <trkpt lat="45.13221" lon="6.09159">
        <ele>2065</ele>
        <time>2024-07-08T08:00:14Z</time>
      </trkpt>
      <trkpt lat="45.13221" lon="6.09159">
        <ele>2065</ele>
        <time>2024-07-08T08:00:15Z</time>
      </trkpt>
      <trkpt lat="45.13221" lon="6.09158">
        <ele>2065</ele>
        <time>2024-07-08T08:00:16Z</time>
      </trkpt>
      <trkpt lat="45.13221" lon="6.09158">
        <ele>2065</ele>
        <time>2024-07-08T08:00:17Z</time>
      </trkpt>
      <trkpt lat="45.13221" lon="6.09158">
        <ele>2065</ele>
        <time>2024-07-08T08:00:18Z</time>
      </trkpt>
      <trkpt lat="45.13221" lon="6.09158">
        <ele>2065</ele>
        <time>2024-07-08T08:00:19Z</time>
      </trkpt>
      <trkpt lat="45.13221" lon="6.09158">
        <ele>2065</ele>
        <time>2024-07-08T08:00:20Z</time>
      </trkpt>
      <trkpt lat="45.13221" lon="6.09159">
        <ele>2065</ele>
        <time>2024-07-08T08:00:21Z</time>
      </trkpt>
      <trkpt lat="45.13221" lon="6.09158">
        <ele>2065</ele>
        <time>2024-07-08T08:00:22Z</time>
      </trkpt>
      <trkpt lat="45.13221" lon="6.09158">
        <ele>2064.9</ele>
        <time>2024-07-08T08:00:23Z</time>
      </trkpt>
      <trkpt lat="45.13221" lon="6.09158">
        <ele>2064.9</ele>
        <time>2024-07-08T08:00:24Z</time>
      </trkpt>
      <trkpt lat="45.13221" lon="6.09158">
        <ele>2064.9</ele>
        <time>2024-07-08T08:00:25Z</time>
      </trkpt>
      <trkpt lat="45.13221" lon="6.09158">
        <ele>2064.9</ele>
        <time>2024-07-08T08:00:26Z</time>
      </trkpt>
      <trkpt lat="45.1322" lon="6.09158">
        <ele>2064.8</ele>
        <time>2024-07-08T08:00:27Z</time>
      </trkpt>
      <trkpt lat="45.1322" lon="6.09157">
        <ele>2064.8</ele>
        <time>2024-07-08T08:00:28Z</time>
      </trkpt>
      <trkpt lat="45.1322" lon="6.09157">
        <ele>2064.8</ele>
        <time>2024-07-08T08:00:29Z</time>
      </trkpt>
      <trkpt lat="45.1322" lon="6.09158">
        <ele>2064.7</ele>
        <time>2024-07-08T08:00:30Z</time>
      </trkpt>
      <trkpt lat="45.1322" lon="6.09158">
        <ele>2064.7</ele>
        <time>2024-07-08T08:00:32Z</time>
      </trkpt>
      <trkpt lat="45.1322" lon="6.09158">
        <ele>2064.7</ele>
        <time>2024-07-08T08:00:33Z</time>
      </trkpt>
      <trkpt lat="45.13221" lon="6.09158">
        <ele>2064.7</ele>
        <time>2024-07-08T08:00:34Z</time>
      </trkpt>
      <trkpt lat="45.13221" lon="6.09159">
        <ele>2064.6</ele>
        <time>2024-07-08T08:00:35Z</time>
      </trkpt>
      <trkpt lat="45.13222" lon="6.09159">
        <ele>2064.5</ele>
        <time>2024-07-08T08:00:36Z</time>
      </trkpt>
      <trkpt lat="45.13222" lon="6.09159">
        <ele>2064.5</ele>
        <time>2024-07-08T08:00:37Z</time>
      </trkpt>
      <trkpt lat="45.13222" lon="6.09159">
        <ele>2064.5</ele>
        <time>2024-07-08T08:00:38Z</time>
      </trkpt>
      <trkpt lat="45.13222" lon="6.09159">
        <ele>2064.5</ele>
        <time>2024-07-08T08:00:39Z</time>
      </trkpt>
      <trkpt lat="45.13222" lon="6.09159">
        <ele>2064.5</ele>
        <time>2024-07-08T08:00:40Z</time>
      </trkpt>
      <trkpt lat="45.13222" lon="6.09159">
        <ele>2064.5</ele>
        <time>2024-07-08T08:00:41Z</time>
      </trkpt>
      <trkpt lat="45.13222" lon="6.09159">
        <ele>2064.5</ele>
        <time>2024-07-08T08:00:42Z</time>
      </trkpt>
      <trkpt lat="45.13222" lon="6.09159">
        <ele>2064.5</ele>
        <time>2024-07-08T08:00:43Z</time>
      </trkpt>
      <trkpt lat="45.13222" lon="6.0916">
        <ele>2064.4</ele>
        <time>2024-07-08T08:00:44Z</time>
      </trkpt>
      <trkpt lat="45.13222" lon="6.0916">
        <ele>2064.4</ele>
        <time>2024-07-08T08:00:45Z</time>
      </trkpt>
      <trkpt lat="45.13222" lon="6.0916">
        <ele>2064.4</ele>
        <time>2024-07-08T08:00:46Z</time>
      </trkpt>
      <trkpt lat="45.13222" lon="6.0916">
        <ele>2064.4</ele>
        <time>2024-07-08T08:00:47Z</time>
      </trkpt>
      <trkpt lat="45.13222" lon="6.0916">
        <ele>2064.4</ele>
        <time>2024-07-08T08:00:48Z</time>
      </trkpt>
      <trkpt lat="45.13222" lon="6.0916">
        <ele>2064.4</ele>
        <time>2024-07-08T08:00:49Z</time>
      </trkpt>
      <trkpt lat="45.13222" lon="6.0916">
        <ele>2064.4</ele>
        <time>2024-07-08T08:00:50Z</time>
      </trkpt>
      <trkpt lat="45.13222" lon="6.0916">
        <ele>2064.4</ele>
        <time>2024-07-08T08:00:52Z</time>
      </trkpt>
      <trkpt lat="45.13222" lon="6.0916">
        <ele>2064.4</ele>
        <time>2024-07-08T08:00:53Z</time>
      </trkpt>
      <trkpt lat="45.13222" lon="6.0916">
        <ele>2064.4</ele>
        <time>2024-07-08T08:00:54Z</time>
      </trkpt>
      <trkpt lat="45.13222" lon="6.0916">
        <ele>2064.4</ele>
        <time>2024-07-08T08:00:56Z</time>
      </trkpt>
      <trkpt lat="45.13222" lon="6.0916">
        <ele>2064.4</ele>
        <time>2024-07-08T08:00:58Z</time>
      </trkpt>
      <trkpt lat="45.13222" lon="6.0916">
        <ele>2064.4</ele>
        <time>2024-07-08T08:00:59Z</time>
      </trkpt>
      <trkpt lat="45.13222" lon="6.0916">
        <ele>2064.4</ele>
        <time>2024-07-08T08:01:00Z</time>
      </trkpt>
      <trkpt lat="45.13222" lon="6.0916">
        <ele>2064.4</ele>
        <time>2024-07-08T08:01:01Z</time>
      </trkpt>
      <trkpt lat="45.13222" lon="6.0916">
        <ele>2064.4</ele>
        <time>2024-07-08T08:01:02Z</time>
      </trkpt>
      <trkpt lat="45.13222" lon="6.0916">
        <ele>2064.4</ele>
        <time>2024-07-08T08:01:04Z</time>
      </trkpt>
      <trkpt lat="45.13222" lon="6.0916">
        <ele>2064.4</ele>
        <time>2024-07-08T08:01:05Z</time>
      </trkpt>
      <trkpt lat="45.13222" lon="6.0916">
        <ele>2064.4</ele>
        <time>2024-07-08T08:01:06Z</time>
      </trkpt>
      <trkpt lat="45.13222" lon="6.0916">
        <ele>2064.4</ele>
        <time>2024-07-08T08:01:07Z</time>
      </trkpt>
      <trkpt lat="45.13222" lon="6.0916">
        <ele>2064.4</ele>
        <time>2024-07-08T08:01:08Z</time>
      </trkpt>
      <trkpt lat="45.13222" lon="6.0916">
        <ele>2064.4</ele>
        <time>2024-07-08T08:01:09Z</time>
      </trkpt>
      <trkpt lat="45.13222" lon="6.0916">
        <ele>2064.4</ele>
        <time>2024-07-08T08:01:10Z</time>
      </trkpt>
      <trkpt lat="45.13222" lon="6.0916">
        <ele>2064.4</ele>
        <time>2024-07-08T08:01:11Z</time>
      </trkpt>
      <trkpt lat="45.13222" lon="6.0916">
        <ele>2064.4</ele>
        <time>2024-07-08T08:01:13Z</time>
      </trkpt>
      <trkpt lat="45.13222" lon="6.0916">
        <ele>2064.4</ele>
        <time>2024-07-08T08:01:14Z</time>
      </trkpt>
      <trkpt lat="45.13222" lon="6.0916">
        <ele>2064.4</ele>
        <time>2024-07-08T08:01:15Z</time>
      </trkpt>
      <trkpt lat="45.13222" lon="6.0916">
        <ele>2064.4</ele>
        <time>2024-07-08T08:01:17Z</time>
      </trkpt>
      <trkpt lat="45.13222" lon="6.0916">
        <ele>2064.4</ele>
        <time>2024-07-08T08:01:18Z</time>
      </trkpt>
      <trkpt lat="45.13222" lon="6.0916">
        <ele>2064.4</ele>
        <time>2024-07-08T08:01:20Z</time>
      </trkpt>
      <trkpt lat="45.13222" lon="6.0916">
        <ele>2064.4</ele>
        <time>2024-07-08T08:01:21Z</time>
      </trkpt>
      <trkpt lat="45.13222" lon="6.0916">
        <ele>2064.4</ele>
        <time>2024-07-08T08:01:22Z</time>
      </trkpt>
      <trkpt lat="45.13222" lon="6.0916">
        <ele>2064.4</ele>
        <time>2024-07-08T08:01:24Z</time>
      </trkpt>
      <trkpt lat="45.13222" lon="6.0916">
        <ele>2064.4</ele>
        <time>2024-07-08T08:01:25Z</time>
      </trkpt>
      <trkpt lat="45.13222" lon="6.0916">
        <ele>2064.4</ele>
        <time>2024-07-08T08:01:26Z</time>
      </trkpt>
      <trkpt lat="45.13222" lon="6.0916">
        <ele>2064.4</ele>
        <time>2024-07-08T08:01:27Z</time>
      </trkpt>
      <trkpt lat="45.13222" lon="6.0916">
        <ele>2064.4</ele>
        <time>2024-07-08T08:01:28Z</time>
      </trkpt>
      <trkpt lat="45.13222" lon="6.0916">
        <ele>2064.4</ele>
        <time>2024-07-08T08:01:29Z</time>
      </trkpt>
      <trkpt lat="45.13222" lon="6.0916">
        <ele>2064.4</ele>
        <time>2024-07-08T08:01:30Z</time>
      </trkpt>
      <trkpt lat="45.13222" lon="6.0916">
        <ele>2064.4</ele>
        <time>2024-07-08T08:01:31Z</time>
      </trkpt>
      <trkpt lat="45.13222" lon="6.0916">
        <ele>2064.4</ele>
        <time>2024-07-08T08:01:32Z</time>
      </trkpt>
      <trkpt lat="45.13222" lon="6.0916">
        <ele>2064.4</ele>
        <time>2024-07-08T08:01:33Z</time>
      </trkpt>
      <trkpt lat="45.13222" lon="6.0916">
        <ele>2064.4</ele>
        <time>2024-07-08T08:01:34Z</time>
      </trkpt>
      <trkpt lat="45.13222" lon="6.0916">
        <ele>2064.4</ele>
        <time>2024-07-08T08:01:35Z</time>
      </trkpt>
      <trkpt lat="45.13222" lon="6.0916">
        <ele>2064.4</ele>
        <time>2024-07-08T08:01:36Z</time>
      </trkpt>
      <trkpt lat="45.13222" lon="6.0916">
        <ele>2064.4</ele>
        <time>2024-07-08T08:01:37Z</time>
      </trkpt>
      <trkpt lat="45.13222" lon="6.0916">
        <ele>2064.4</ele>
        <time>2024-07-08T08:01:38Z</time>
      </trkpt>
      <trkpt lat="45.13222" lon="6.0916">
        <ele>2064.4</ele>
        <time>2024-07-08T08:01:39Z</time>
      </trkpt>
      <trkpt lat="45.13222" lon="6.0916">
        <ele>2064.4</ele>
        <time>2024-07-08T08:01:40Z</time>
      </trkpt>
      <trkpt lat="45.13222" lon="6.0916">
        <ele>2064.4</ele>
        <time>2024-07-08T08:01:41Z</time>
      </trkpt>
      <trkpt lat="45.13222" lon="6.0916">
        <ele>2064.4</ele>
        <time>2024-07-08T08:01:42Z</time>
      </trkpt>
      <trkpt lat="45.13222" lon="6.0916">
        <ele>2064.4</ele>
        <time>2024-07-08T08:01:43Z</time>
      </trkpt>
      <trkpt lat="45.13222" lon="6.0916">
        <ele>2064.4</ele>
        <time>2024-07-08T08:01:44Z</time>
      </trkpt>
      <trkpt lat="45.13222" lon="6.0916">
        <ele>2064.4</ele>
        <time>2024-07-08T08:01:45Z</time>
      </trkpt>
      <trkpt lat="45.13222" lon="6.0916">
        <ele>2064.4</ele>
        <time>2024-07-08T08:01:46Z</time>
      </trkpt>
      <trkpt lat="45.13222" lon="6.0916">
        <ele>2064.4</ele>
        <time>2024-07-08T08:01:47Z</time>
      </trkpt>
      <trkpt lat="45.13222" lon="6.0916">
        <ele>2064.4</ele>
        <time>2024-07-08T08:01:48Z</time>
      </trkpt>
      <trkpt lat="45.13222" lon="6.0916">
        <ele>2064.4</ele>
        <time>2024-07-08T08:01:49Z</time>
      </trkpt>
      <trkpt lat="45.13222" lon="6.0916">
        <ele>2064.4</ele>
        <time>2024-07-08T08:01:50Z</time>
      </trkpt>
      <trkpt lat="45.13222" lon="6.09161">
        <ele>2064.2</ele>
        <time>2024-07-08T08:01:51Z</time>
      </trkpt>
      <trkpt lat="45.13223" lon="6.09162">
        <ele>2064.1</ele>
        <time>2024-07-08T08:01:52Z</time>
      </trkpt>
      <trkpt lat="45.13223" lon="6.09161">
        <ele>2064.1</ele>
        <time>2024-07-08T08:01:54Z</time>
      </trkpt>
      <trkpt lat="45.13222" lon="6.0916">
        <ele>2063.9</ele>
        <time>2024-07-08T08:01:55Z</time>
      </trkpt>
      <trkpt lat="45.13221" lon="6.09159">
        <ele>2063.9</ele>
        <time>2024-07-08T08:01:57Z</time>
      </trkpt>
      <trkpt lat="45.13222" lon="6.09159">
        <ele>2063.8</ele>
        <time>2024-07-08T08:01:58Z</time>
      </trkpt>
      <trkpt lat="45.13223" lon="6.0916">
        <ele>2063.7</ele>
        <time>2024-07-08T08:01:59Z</time>
      </trkpt>
      <trkpt lat="45.13223" lon="6.0916">
        <ele>2063.6</ele>
        <time>2024-07-08T08:02:00Z</time>
      </trkpt>
      <trkpt lat="45.13224" lon="6.09161">
        <ele>2063.6</ele>
        <time>2024-07-08T08:02:01Z</time>
      </trkpt>
      <trkpt lat="45.13224" lon="6.0916">
        <ele>2063.5</ele>
        <time>2024-07-08T08:02:02Z</time>
      </trkpt>
      <trkpt lat="45.13225" lon="6.09162">
        <ele>2063.3</ele>
        <time>2024-07-08T08:02:03Z</time>
      </trkpt>
      <trkpt lat="45.13226" lon="6.09163">
        <ele>2063.2</ele>
        <time>2024-07-08T08:02:04Z</time>
      </trkpt>
      <trkpt lat="45.13227" lon="6.09164">
        <ele>2063.1</ele>
        <time>2024-07-08T08:02:05Z</time>
      </trkpt>
      <trkpt lat="45.13227" lon="6.09164">
        <ele>2063</ele>
        <time>2024-07-08T08:02:06Z</time>
      </trkpt>
      <trkpt lat="45.13228" lon="6.09164">
        <ele>2062.9</ele>
        <time>2024-07-08T08:02:07Z</time>
      </trkpt>
      <trkpt lat="45.13229" lon="6.09163">
        <ele>2062.8</ele>
        <time>2024-07-08T08:02:08Z</time>
      </trkpt>
      <trkpt lat="45.1323" lon="6.09162">
        <ele>2062.7</ele>
        <time>2024-07-08T08:02:09Z</time>
      </trkpt>
      <trkpt lat="45.13231" lon="6.09161">
        <ele>2062.6</ele>
        <time>2024-07-08T08:02:10Z</time>
      </trkpt>
      <trkpt lat="45.13231" lon="6.0916">
        <ele>2062.5</ele>
        <time>2024-07-08T08:02:11Z</time>
      </trkpt>
      <trkpt lat="45.13233" lon="6.09161">
        <ele>2062.4</ele>
        <time>2024-07-08T08:02:12Z</time>
      </trkpt>
      <trkpt lat="45.13233" lon="6.09162">
        <ele>2062.3</ele>
        <time>2024-07-08T08:02:13Z</time>
      </trkpt>
      <trkpt lat="45.13234" lon="6.09162">
        <ele>2062.2</ele>
        <time>2024-07-08T08:02:14Z</time>
      </trkpt>
      <trkpt lat="45.13235" lon="6.09162">
        <ele>2062.1</ele>
        <time>2024-07-08T08:02:15Z</time>
      </trkpt>
      <trkpt lat="45.13235" lon="6.09162">
        <ele>2062.1</ele>
        <time>2024-07-08T08:02:16Z</time>
      </trkpt>
      <trkpt lat="45.13236" lon="6.09163">
        <ele>2062</ele>
        <time>2024-07-08T08:02:18Z</time>
      </trkpt>
      <trkpt lat="45.13237" lon="6.09164">
        <ele>2061.9</ele>
        <time>2024-07-08T08:02:19Z</time>
      </trkpt>
      <trkpt lat="45.13238" lon="6.09164">
        <ele>2061.8</ele>
        <time>2024-07-08T08:02:20Z</time>
      </trkpt>
      <trkpt lat="45.13238" lon="6.09164">
        <ele>2061.7</ele>
        <time>2024-07-08T08:02:21Z</time>
      </trkpt>
      <trkpt lat="45.1324" lon="6.09164">
        <ele>2061.6</ele>
        <time>2024-07-08T08:02:22Z</time>
      </trkpt>
      <trkpt lat="45.1324" lon="6.09165">
        <ele>2061.5</ele>
        <time>2024-07-08T08:02:23Z</time>
      </trkpt>
      <trkpt lat="45.13241" lon="6.09166">
        <ele>2061.3</ele>
        <time>2024-07-08T08:02:24Z</time>
      </trkpt>
      <trkpt lat="45.13242" lon="6.09167">
        <ele>2061.3</ele>
        <time>2024-07-08T08:02:25Z</time>
      </trkpt>
      <trkpt lat="45.13243" lon="6.09168">
        <ele>2061.2</ele>
        <time>2024-07-08T08:02:26Z</time>
      </trkpt>
      <trkpt lat="45.13243" lon="6.09168">
        <ele>2061.1</ele>
        <time>2024-07-08T08:02:27Z</time>
      </trkpt>
      <trkpt lat="45.13244" lon="6.09168">
        <ele>2061.1</ele>
        <time>2024-07-08T08:02:28Z</time>
      </trkpt>
      <trkpt lat="45.13244" lon="6.09168">
        <ele>2061</ele>
        <time>2024-07-08T08:02:29Z</time>
      </trkpt>
      <trkpt lat="45.13246" lon="6.09169">
        <ele>2060.8</ele>
        <time>2024-07-08T08:02:31Z</time>
      </trkpt>
      <trkpt lat="45.13247" lon="6.0917">
        <ele>2060.7</ele>
        <time>2024-07-08T08:02:32Z</time>
      </trkpt>
      <trkpt lat="45.13247" lon="6.0917">
        <ele>2060.6</ele>
        <time>2024-07-08T08:02:33Z</time>
      </trkpt>
      <trkpt lat="45.13248" lon="6.0917">
        <ele>2060.5</ele>
        <time>2024-07-08T08:02:34Z</time>
      </trkpt>
      <trkpt lat="45.13249" lon="6.09169">
        <ele>2060.4</ele>
        <time>2024-07-08T08:02:35Z</time>
      </trkpt>
      <trkpt lat="45.1325" lon="6.09169">
        <ele>2060.4</ele>
        <time>2024-07-08T08:02:36Z</time>
      </trkpt>
      <trkpt lat="45.13251" lon="6.09168">
        <ele>2060.2</ele>
        <time>2024-07-08T08:02:37Z</time>
      </trkpt>
      <trkpt lat="45.13252" lon="6.09168">
        <ele>2060.2</ele>
        <time>2024-07-08T08:02:38Z</time>
      </trkpt>
      <trkpt lat="45.13253" lon="6.09167">
        <ele>2060.1</ele>
        <time>2024-07-08T08:02:39Z</time>
      </trkpt>
      <trkpt lat="45.13254" lon="6.09167">
        <ele>2060</ele>
        <time>2024-07-08T08:02:40Z</time>
      </trkpt>
      <trkpt lat="45.13254" lon="6.09168">
        <ele>2059.9</ele>
        <time>2024-07-08T08:02:41Z</time>
      </trkpt>
      <trkpt lat="45.13255" lon="6.09169">
        <ele>2059.7</ele>
        <time>2024-07-08T08:02:42Z</time>
      </trkpt>
      <trkpt lat="45.13256" lon="6.0917">
        <ele>2059.6</ele>
        <time>2024-07-08T08:02:43Z</time>
      </trkpt>
      <trkpt lat="45.13257" lon="6.09171">
        <ele>2059.5</ele>
        <time>2024-07-08T08:02:44Z</time>
      </trkpt>
      <trkpt lat="45.13258" lon="6.09172">
        <ele>2059.4</ele>
        <time>2024-07-08T08:02:45Z</time>
      </trkpt>
      <trkpt lat="45.13259" lon="6.09172">
        <ele>2059.2</ele>
        <time>2024-07-08T08:02:46Z</time>
      </trkpt>
      <trkpt lat="45.1326" lon="6.09173">
        <ele>2059.1</ele>
        <time>2024-07-08T08:02:47Z</time>
      </trkpt>
      <trkpt lat="45.13261" lon="6.09174">
        <ele>2059</ele>
        <time>2024-07-08T08:02:48Z</time>
      </trkpt>
      <trkpt lat="45.13261" lon="6.09175">
        <ele>2058.9</ele>
        <time>2024-07-08T08:02:49Z</time>
      </trkpt>
      <trkpt lat="45.13262" lon="6.09179">
        <ele>2058.7</ele>
        <time>2024-07-08T08:02:51Z</time>
      </trkpt>
      <trkpt lat="45.13263" lon="6.09181">
        <ele>2058.4</ele>
        <time>2024-07-08T08:02:53Z</time>
      </trkpt>
      <trkpt lat="45.13264" lon="6.09182">
        <ele>2058.3</ele>
        <time>2024-07-08T08:02:54Z</time>
      </trkpt>
      <trkpt lat="45.13265" lon="6.09183">
        <ele>2058.2</ele>
        <time>2024-07-08T08:02:55Z</time>
      </trkpt>
      <trkpt lat="45.13265" lon="6.09185">
        <ele>2058.1</ele>
        <time>2024-07-08T08:02:56Z</time>
      </trkpt>
      <trkpt lat="45.13267" lon="6.09187">
        <ele>2057.8</ele>
        <time>2024-07-08T08:02:57Z</time>
      </trkpt>
      <trkpt lat="45.13268" lon="6.09187">
        <ele>2057.7</ele>
        <time>2024-07-08T08:02:58Z</time>
      </trkpt>
      <trkpt lat="45.13268" lon="6.09188">
        <ele>2057.6</ele>
        <time>2024-07-08T08:02:59Z</time>
      </trkpt>
      <trkpt lat="45.1327" lon="6.09189">
        <ele>2057.3</ele>
        <time>2024-07-08T08:03:00Z</time>
      </trkpt>
      <trkpt lat="45.13271" lon="6.09189">
        <ele>2057.2</ele>
        <time>2024-07-08T08:03:01Z</time>
      </trkpt>
      <trkpt lat="45.13272" lon="6.09189">
        <ele>2057.1</ele>
        <time>2024-07-08T08:03:02Z</time>
      </trkpt>
      <trkpt lat="45.13274" lon="6.0919">
        <ele>2056.9</ele>
        <time>2024-07-08T08:03:03Z</time>
      </trkpt>
      <trkpt lat="45.13274" lon="6.0919">
        <ele>2056.8</ele>
        <time>2024-07-08T08:03:04Z</time>
      </trkpt>
      <trkpt lat="45.13275" lon="6.09191">
        <ele>2056.7</ele>
        <time>2024-07-08T08:03:05Z</time>
      </trkpt>
      <trkpt lat="45.13276" lon="6.09191">
        <ele>2056.6</ele>
        <time>2024-07-08T08:03:06Z</time>
      </trkpt>
      <trkpt lat="45.13277" lon="6.09191">
        <ele>2056.5</ele>
        <time>2024-07-08T08:03:07Z</time>
      </trkpt>
      <trkpt lat="45.13278" lon="6.09191">
        <ele>2056.4</ele>
        <time>2024-07-08T08:03:08Z</time>
      </trkpt>
      <trkpt lat="45.13279" lon="6.09191">
        <ele>2056.2</ele>
        <time>2024-07-08T08:03:09Z</time>
      </trkpt>
      <trkpt lat="45.1328" lon="6.09191">
        <ele>2056.1</ele>
        <time>2024-07-08T08:03:10Z</time>
      </trkpt>
      <trkpt lat="45.13281" lon="6.0919">
        <ele>2056</ele>
        <time>2024-07-08T08:03:11Z</time>
      </trkpt>
      <trkpt lat="45.13282" lon="6.0919">
        <ele>2055.9</ele>
        <time>2024-07-08T08:03:12Z</time>
      </trkpt>
      <trkpt lat="45.13284" lon="6.09189">
        <ele>2055.7</ele>
        <time>2024-07-08T08:03:13Z</time>
      </trkpt>
      <trkpt lat="45.13284" lon="6.09189">
        <ele>2055.6</ele>
        <time>2024-07-08T08:03:14Z</time>
      </trkpt>
      <trkpt lat="45.13285" lon="6.09189">
        <ele>2055.5</ele>
        <time>2024-07-08T08:03:15Z</time>
      </trkpt>
      <trkpt lat="45.13286" lon="6.09189">
        <ele>2055.3</ele>
        <time>2024-07-08T08:03:16Z</time>
      </trkpt>
      <trkpt lat="45.13288" lon="6.09188">
        <ele>2055.1</ele>
        <time>2024-07-08T08:03:17Z</time>
      </trkpt>
      <trkpt lat="45.13289" lon="6.09189">
        <ele>2055</ele>
        <time>2024-07-08T08:03:18Z</time>
      </trkpt>
      <trkpt lat="45.1329" lon="6.0919">
        <ele>2054.8</ele>
        <time>2024-07-08T08:03:19Z</time>
      </trkpt>
      <trkpt lat="45.13291" lon="6.0919">
        <ele>2054.6</ele>
        <time>2024-07-08T08:03:20Z</time>
      </trkpt>
      <trkpt lat="45.13292" lon="6.0919">
        <ele>2054.5</ele>
        <time>2024-07-08T08:03:21Z</time>
      </trkpt>
      <trkpt lat="45.13294" lon="6.0919">
        <ele>2054.2</ele>
        <time>2024-07-08T08:03:22Z</time>
      </trkpt>
      <trkpt lat="45.13294" lon="6.09191">
        <ele>2054.1</ele>
        <time>2024-07-08T08:03:23Z</time>
      </trkpt>
      <trkpt lat="45.13295" lon="6.09191">
        <ele>2054</ele>
        <time>2024-07-08T08:03:24Z</time>
      </trkpt>
      <trkpt lat="45.13296" lon="6.09192">
        <ele>2053.8</ele>
        <time>2024-07-08T08:03:25Z</time>
      </trkpt>
      <trkpt lat="45.13297" lon="6.09193">
        <ele>2053.7</ele>
        <time>2024-07-08T08:03:26Z</time>
      </trkpt>
      <trkpt lat="45.13298" lon="6.09194">
        <ele>2053.4</ele>
        <time>2024-07-08T08:03:27Z</time>
      </trkpt>
      <trkpt lat="45.13299" lon="6.09195">
        <ele>2053.3</ele>
        <time>2024-07-08T08:03:28Z</time>
      </trkpt>
      <trkpt lat="45.133" lon="6.09196">
        <ele>2053.1</ele>
        <time>2024-07-08T08:03:29Z</time>
      </trkpt>
      <trkpt lat="45.13301" lon="6.09197">
        <ele>2052.8</ele>
        <time>2024-07-08T08:03:30Z</time>
      </trkpt>
      <trkpt lat="45.13302" lon="6.09198">
        <ele>2052.7</ele>
        <time>2024-07-08T08:03:31Z</time>
      </trkpt>
      <trkpt lat="45.13303" lon="6.09198">
        <ele>2052.5</ele>
        <time>2024-07-08T08:03:32Z</time>
      </trkpt>
      <trkpt lat="45.13304" lon="6.09199">
        <ele>2052.4</ele>
        <time>2024-07-08T08:03:33Z</time>
      </trkpt>
      <trkpt lat="45.13306" lon="6.09199">
        <ele>2052.1</ele>
        <time>2024-07-08T08:03:35Z</time>
      </trkpt>
      <trkpt lat="45.13307" lon="6.09199">
        <ele>2051.9</ele>
        <time>2024-07-08T08:03:36Z</time>
      </trkpt>
      <trkpt lat="45.13309" lon="6.09198">
        <ele>2051.7</ele>
        <time>2024-07-08T08:03:37Z</time>
      </trkpt>
      <trkpt lat="45.13309" lon="6.09198">
        <ele>2051.6</ele>
        <time>2024-07-08T08:03:38Z</time>
      </trkpt>
      <trkpt lat="45.1331" lon="6.09198">
        <ele>2051.5</ele>
        <time>2024-07-08T08:03:39Z</time>
      </trkpt>
      <trkpt lat="45.13311" lon="6.09198">
        <ele>2051.4</ele>
        <time>2024-07-08T08:03:40Z</time>
      </trkpt>
      <trkpt lat="45.13312" lon="6.09199">
        <ele>2051.3</ele>
        <time>2024-07-08T08:03:41Z</time>
      </trkpt>
      <trkpt lat="45.13312" lon="6.09201">
        <ele>2051.1</ele>
        <time>2024-07-08T08:03:42Z</time>
      </trkpt>
      <trkpt lat="45.13312" lon="6.09202">
        <ele>2051</ele>
        <time>2024-07-08T08:03:43Z</time>
      </trkpt>
      <trkpt lat="45.13313" lon="6.09203">
        <ele>2050.9</ele>
        <time>2024-07-08T08:03:44Z</time>
      </trkpt>
      <trkpt lat="45.13313" lon="6.09205">
        <ele>2050.8</ele>
        <time>2024-07-08T08:03:45Z</time>
      </trkpt>
      <trkpt lat="45.13314" lon="6.09205">
        <ele>2050.7</ele>
        <time>2024-07-08T08:03:46Z</time>
      </trkpt>
      <trkpt lat="45.13316" lon="6.09205">
        <ele>2050.5</ele>
        <time>2024-07-08T08:03:47Z</time>
      </trkpt>
      <trkpt lat="45.13316" lon="6.09205">
        <ele>2050.5</ele>
        <time>2024-07-08T08:03:48Z</time>
      </trkpt>
      <trkpt lat="45.13317" lon="6.09205">
        <ele>2050.4</ele>
        <time>2024-07-08T08:03:49Z</time>
      </trkpt>
      <trkpt lat="45.13318" lon="6.09205">
        <ele>2050.3</ele>
        <time>2024-07-08T08:03:50Z</time>
      </trkpt>
      <trkpt lat="45.13319" lon="6.09205">
        <ele>2050.2</ele>
        <time>2024-07-08T08:03:51Z</time>
      </trkpt>
      <trkpt lat="45.1332" lon="6.09205">
        <ele>2050.1</ele>
        <time>2024-07-08T08:03:52Z</time>
      </trkpt>
      <trkpt lat="45.13321" lon="6.09205">
        <ele>2050</ele>
        <time>2024-07-08T08:03:53Z</time>
      </trkpt>
      <trkpt lat="45.13322" lon="6.09205">
        <ele>2049.9</ele>
        <time>2024-07-08T08:03:54Z</time>
      </trkpt>
      <trkpt lat="45.13323" lon="6.09206">
        <ele>2049.9</ele>
        <time>2024-07-08T08:03:55Z</time>
      </trkpt>
      <trkpt lat="45.13325" lon="6.09207">
        <ele>2049.7</ele>
        <time>2024-07-08T08:03:57Z</time>
      </trkpt>
      <trkpt lat="45.13326" lon="6.09207">
        <ele>2049.6</ele>
        <time>2024-07-08T08:03:58Z</time>
      </trkpt>
      <trkpt lat="45.13327" lon="6.09207">
        <ele>2049.6</ele>
        <time>2024-07-08T08:03:59Z</time>
      </trkpt>
      <trkpt lat="45.13328" lon="6.09208">
        <ele>2049.5</ele>
        <time>2024-07-08T08:04:00Z</time>
      </trkpt>
      <trkpt lat="45.13329" lon="6.09209">
        <ele>2049.4</ele>
        <time>2024-07-08T08:04:01Z</time>
      </trkpt>
      <trkpt lat="45.1333" lon="6.09209">
        <ele>2049.3</ele>
        <time>2024-07-08T08:04:02Z</time>
      </trkpt>
      <trkpt lat="45.13331" lon="6.0921">
        <ele>2049.3</ele>
        <time>2024-07-08T08:04:03Z</time>
      </trkpt>
      <trkpt lat="45.13332" lon="6.0921">
        <ele>2049.2</ele>
        <time>2024-07-08T08:04:04Z</time>
      </trkpt>
      <trkpt lat="45.13333" lon="6.09211">
        <ele>2049.1</ele>
        <time>2024-07-08T08:04:05Z</time>
      </trkpt>
      <trkpt lat="45.13334" lon="6.09211">
        <ele>2049.1</ele>
        <time>2024-07-08T08:04:06Z</time>
      </trkpt>
      <trkpt lat="45.13336" lon="6.09213">
        <ele>2048.9</ele>
        <time>2024-07-08T08:04:07Z</time>
      </trkpt>
      <trkpt lat="45.13336" lon="6.09214">
        <ele>2048.9</ele>
        <time>2024-07-08T08:04:08Z</time>
      </trkpt>
      <trkpt lat="45.13338" lon="6.09214">
        <ele>2048.7</ele>
        <time>2024-07-08T08:04:09Z</time>
      </trkpt>
      <trkpt lat="45.13339" lon="6.09215">
        <ele>2048.7</ele>
        <time>2024-07-08T08:04:10Z</time>
      </trkpt>
      <trkpt lat="45.1334" lon="6.09215">
        <ele>2048.6</ele>
        <time>2024-07-08T08:04:11Z</time>
      </trkpt>
      <trkpt lat="45.13341" lon="6.09215">
        <ele>2048.5</ele>
        <time>2024-07-08T08:04:12Z</time>
      </trkpt>
      <trkpt lat="45.13343" lon="6.09215">
        <ele>2048.4</ele>
        <time>2024-07-08T08:04:13Z</time>
      </trkpt>
      <trkpt lat="45.13344" lon="6.09215">
        <ele>2048.3</ele>
        <time>2024-07-08T08:04:14Z</time>
      </trkpt>
      <trkpt lat="45.13345" lon="6.09215">
        <ele>2048.2</ele>
        <time>2024-07-08T08:04:15Z</time>
      </trkpt>
      <trkpt lat="45.13346" lon="6.09215">
        <ele>2048.1</ele>
        <time>2024-07-08T08:04:16Z</time>
      </trkpt>
      <trkpt lat="45.13347" lon="6.09217">
        <ele>2048</ele>
        <time>2024-07-08T08:04:17Z</time>
      </trkpt>
      <trkpt lat="45.13348" lon="6.09217">
        <ele>2047.9</ele>
        <time>2024-07-08T08:04:18Z</time>
      </trkpt>
      <trkpt lat="45.13349" lon="6.09218">
        <ele>2047.8</ele>
        <time>2024-07-08T08:04:19Z</time>
      </trkpt>
      <trkpt lat="45.1335" lon="6.09219">
        <ele>2047.7</ele>
        <time>2024-07-08T08:04:20Z</time>
      </trkpt>
      <trkpt lat="45.13351" lon="6.09219">
        <ele>2047.6</ele>
        <time>2024-07-08T08:04:21Z</time>
      </trkpt>
      <trkpt lat="45.13352" lon="6.0922">
        <ele>2047.5</ele>
        <time>2024-07-08T08:04:22Z</time>
      </trkpt>
      <trkpt lat="45.13353" lon="6.0922">
        <ele>2047.4</ele>
        <time>2024-07-08T08:04:23Z</time>
      </trkpt>
      <trkpt lat="45.13354" lon="6.09221">
        <ele>2047.3</ele>
        <time>2024-07-08T08:04:24Z</time>
      </trkpt>
      <trkpt lat="45.13355" lon="6.09222">
        <ele>2047.2</ele>
        <time>2024-07-08T08:04:25Z</time>
      </trkpt>
      <trkpt lat="45.13356" lon="6.09223">
        <ele>2047.1</ele>
        <time>2024-07-08T08:04:26Z</time>
      </trkpt>
      <trkpt lat="45.13357" lon="6.09224">
        <ele>2047</ele>
        <time>2024-07-08T08:04:27Z</time>
      </trkpt>
      <trkpt lat="45.13358" lon="6.09224">
        <ele>2046.9</ele>
        <time>2024-07-08T08:04:28Z</time>
      </trkpt>
      <trkpt lat="45.13359" lon="6.09224">
        <ele>2046.8</ele>
        <time>2024-07-08T08:04:29Z</time>
      </trkpt>
      <trkpt lat="45.1336" lon="6.09223">
        <ele>2046.7</ele>
        <time>2024-07-08T08:04:30Z</time>
      </trkpt>
      <trkpt lat="45.13361" lon="6.09223">
        <ele>2046.5</ele>
        <time>2024-07-08T08:04:31Z</time>
      </trkpt>
      <trkpt lat="45.13362" lon="6.09221">
        <ele>2046.4</ele>
        <time>2024-07-08T08:04:32Z</time>
      </trkpt>
      <trkpt lat="45.13363" lon="6.0922">
        <ele>2046.3</ele>
        <time>2024-07-08T08:04:33Z</time>
      </trkpt>
      <trkpt lat="45.13364" lon="6.09219">
        <ele>2046.1</ele>
        <time>2024-07-08T08:04:34Z</time>
      </trkpt>
      <trkpt lat="45.13364" lon="6.09218">
        <ele>2046</ele>
        <time>2024-07-08T08:04:35Z</time>
      </trkpt>
      <trkpt lat="45.13365" lon="6.09218">
        <ele>2045.9</ele>
        <time>2024-07-08T08:04:36Z</time>
      </trkpt>
      <trkpt lat="45.13367" lon="6.09218">
        <ele>2045.7</ele>
        <time>2024-07-08T08:04:37Z</time>
      </trkpt>
      <trkpt lat="45.13368" lon="6.09217">
        <ele>2045.6</ele>
        <time>2024-07-08T08:04:38Z</time>
      </trkpt>
      <trkpt lat="45.13369" lon="6.09217">
        <ele>2045.4</ele>
        <time>2024-07-08T08:04:39Z</time>
      </trkpt>
      <trkpt lat="45.13371" lon="6.09219">
        <ele>2045.1</ele>
        <time>2024-07-08T08:04:40Z</time>
      </trkpt>
      <trkpt lat="45.13372" lon="6.09219">
        <ele>2045</ele>
        <time>2024-07-08T08:04:41Z</time>
      </trkpt>
      <trkpt lat="45.13372" lon="6.0922">
        <ele>2044.9</ele>
        <time>2024-07-08T08:04:42Z</time>
      </trkpt>
      <trkpt lat="45.13373" lon="6.09221">
        <ele>2044.8</ele>
        <time>2024-07-08T08:04:43Z</time>
      </trkpt>
      <trkpt lat="45.13374" lon="6.09221">
        <ele>2044.7</ele>
        <time>2024-07-08T08:04:44Z</time>
      </trkpt>
      <trkpt lat="45.13375" lon="6.09222">
        <ele>2044.6</ele>
        <time>2024-07-08T08:04:45Z</time>
      </trkpt>
      <trkpt lat="45.13376" lon="6.09223">
        <ele>2044.4</ele>
        <time>2024-07-08T08:04:46Z</time>
      </trkpt>
      <trkpt lat="45.13377" lon="6.09223">
        <ele>2044.3</ele>
        <time>2024-07-08T08:04:47Z</time>
      </trkpt>
      <trkpt lat="45.13377" lon="6.09224">
        <ele>2044.2</ele>
        <time>2024-07-08T08:04:48Z</time>
      </trkpt>
      <trkpt lat="45.13378" lon="6.09224">
        <ele>2044.1</ele>
        <time>2024-07-08T08:04:49Z</time>
      </trkpt>
      <trkpt lat="45.13378" lon="6.09224">
        <ele>2044</ele>
        <time>2024-07-08T08:04:50Z</time>
      </trkpt>
      <trkpt lat="45.13379" lon="6.09222">
        <ele>2043.9</ele>
        <time>2024-07-08T08:04:51Z</time>
      </trkpt>
      <trkpt lat="45.1338" lon="6.09221">
        <ele>2043.7</ele>
        <time>2024-07-08T08:04:52Z</time>
      </trkpt>
      <trkpt lat="45.1338" lon="6.0922">
        <ele>2043.6</ele>
        <time>2024-07-08T08:04:53Z</time>
      </trkpt>
      <trkpt lat="45.13381" lon="6.0922">
        <ele>2043.5</ele>
        <time>2024-07-08T08:04:54Z</time>
      </trkpt>
      <trkpt lat="45.13382" lon="6.09221">
        <ele>2043.3</ele>
        <time>2024-07-08T08:04:55Z</time>
      </trkpt>
      <trkpt lat="45.13383" lon="6.09221">
        <ele>2043.2</ele>
        <time>2024-07-08T08:04:56Z</time>
      </trkpt>
      <trkpt lat="45.13384" lon="6.09222">
        <ele>2043.1</ele>
        <time>2024-07-08T08:04:57Z</time>
      </trkpt>
      <trkpt lat="45.13384" lon="6.09223">
        <ele>2042.9</ele>
        <time>2024-07-08T08:04:58Z</time>
      </trkpt>
      <trkpt lat="45.13385" lon="6.09224">
        <ele>2042.8</ele>
        <time>2024-07-08T08:04:59Z</time>
      </trkpt>
      <trkpt lat="45.13385" lon="6.09227">
        <ele>2042.5</ele>
        <time>2024-07-08T08:05:00Z</time>
      </trkpt>
      <trkpt lat="45.13386" lon="6.09228">
        <ele>2042.3</ele>
        <time>2024-07-08T08:05:01Z</time>
      </trkpt>
      <trkpt lat="45.13386" lon="6.09229">
        <ele>2042.2</ele>
        <time>2024-07-08T08:05:02Z</time>
      </trkpt>
      <trkpt lat="45.13387" lon="6.09229">
        <ele>2042.1</ele>
        <time>2024-07-08T08:05:03Z</time>
      </trkpt>
      <trkpt lat="45.13387" lon="6.0923">
        <ele>2042</ele>
        <time>2024-07-08T08:05:04Z</time>
      </trkpt>
      <trkpt lat="45.13388" lon="6.09231">
        <ele>2041.9</ele>
        <time>2024-07-08T08:05:05Z</time>
      </trkpt>
      <trkpt lat="45.13388" lon="6.09231">
        <ele>2041.8</ele>
        <time>2024-07-08T08:05:06Z</time>
      </trkpt>
      <trkpt lat="45.13389" lon="6.09231">
        <ele>2041.6</ele>
        <time>2024-07-08T08:05:07Z</time>
      </trkpt>
      <trkpt lat="45.1339" lon="6.0923">
        <ele>2041.5</ele>
        <time>2024-07-08T08:05:08Z</time>
      </trkpt>
      <trkpt lat="45.13391" lon="6.09229">
        <ele>2041.3</ele>
        <time>2024-07-08T08:05:09Z</time>
      </trkpt>
      <trkpt lat="45.13392" lon="6.09229">
        <ele>2041.2</ele>
        <time>2024-07-08T08:05:10Z</time>
      </trkpt>
      <trkpt lat="45.13393" lon="6.09229">
        <ele>2041.1</ele>
        <time>2024-07-08T08:05:11Z</time>
      </trkpt>
      <trkpt lat="45.13394" lon="6.0923">
        <ele>2041</ele>
        <time>2024-07-08T08:05:12Z</time>
      </trkpt>
      <trkpt lat="45.13395" lon="6.0923">
        <ele>2040.8</ele>
        <time>2024-07-08T08:05:13Z</time>
      </trkpt>
      <trkpt lat="45.13395" lon="6.09231">
        <ele>2040.8</ele>
        <time>2024-07-08T08:05:14Z</time>
      </trkpt>
      <trkpt lat="45.13396" lon="6.09231">
        <ele>2040.6</ele>
        <time>2024-07-08T08:05:15Z</time>
      </trkpt>
      <trkpt lat="45.13397" lon="6.0923">
        <ele>2040.5</ele>
        <time>2024-07-08T08:05:16Z</time>
      </trkpt>
      <trkpt lat="45.13398" lon="6.09229">
        <ele>2040.4</ele>
        <time>2024-07-08T08:05:17Z</time>
      </trkpt>
      <trkpt lat="45.13399" lon="6.09229">
        <ele>2040.3</ele>
        <time>2024-07-08T08:05:18Z</time>
      </trkpt>
      <trkpt lat="45.13399" lon="6.09229">
        <ele>2040.2</ele>
        <time>2024-07-08T08:05:19Z</time>
      </trkpt>
      <trkpt lat="45.13401" lon="6.09228">
        <ele>2040.1</ele>
        <time>2024-07-08T08:05:20Z</time>
      </trkpt>
      <trkpt lat="45.13401" lon="6.09228">
        <ele>2039.9</ele>
        <time>2024-07-08T08:05:21Z</time>
      </trkpt>
      <trkpt lat="45.13402" lon="6.09227">
        <ele>2039.9</ele>
        <time>2024-07-08T08:05:22Z</time>
      </trkpt>
      <trkpt lat="45.13403" lon="6.09226">
        <ele>2039.7</ele>
        <time>2024-07-08T08:05:23Z</time>
      </trkpt>
      <trkpt lat="45.13404" lon="6.09227">
        <ele>2039.7</ele>
        <time>2024-07-08T08:05:24Z</time>
      </trkpt>
      <trkpt lat="45.13405" lon="6.09228">
        <ele>2039.5</ele>
        <time>2024-07-08T08:05:25Z</time>
      </trkpt>
      <trkpt lat="45.13405" lon="6.09228">
        <ele>2039.5</ele>
        <time>2024-07-08T08:05:26Z</time>
      </trkpt>
      <trkpt lat="45.13406" lon="6.09229">
        <ele>2039.4</ele>
        <time>2024-07-08T08:05:27Z</time>
      </trkpt>
      <trkpt lat="45.13406" lon="6.0923">
        <ele>2039.2</ele>
        <time>2024-07-08T08:05:28Z</time>
      </trkpt>
      <trkpt lat="45.13407" lon="6.09231">
        <ele>2039.2</ele>
        <time>2024-07-08T08:05:29Z</time>
      </trkpt>
      <trkpt lat="45.13408" lon="6.0923">
        <ele>2039.1</ele>
        <time>2024-07-08T08:05:30Z</time>
      </trkpt>
      <trkpt lat="45.13409" lon="6.09229">
        <ele>2038.9</ele>
        <time>2024-07-08T08:05:32Z</time>
      </trkpt>
      <trkpt lat="45.1341" lon="6.0923">
        <ele>2038.8</ele>
        <time>2024-07-08T08:05:33Z</time>
      </trkpt>
      <trkpt lat="45.13411" lon="6.09232">
        <ele>2038.6</ele>
        <time>2024-07-08T08:05:35Z</time>
      </trkpt>
      <trkpt lat="45.13412" lon="6.09235">
        <ele>2038.4</ele>
        <time>2024-07-08T08:05:37Z</time>
      </trkpt>
      <trkpt lat="45.13413" lon="6.09237">
        <ele>2038.3</ele>
        <time>2024-07-08T08:05:39Z</time>
      </trkpt>
      <trkpt lat="45.13412" lon="6.0924">
        <ele>2038.1</ele>
        <time>2024-07-08T08:05:40Z</time>
      </trkpt>
      <trkpt lat="45.13413" lon="6.09241">
        <ele>2038</ele>
        <time>2024-07-08T08:05:41Z</time>
      </trkpt>
      <trkpt lat="45.13412" lon="6.09243">
        <ele>2037.9</ele>
        <time>2024-07-08T08:05:42Z</time>
      </trkpt>
      <trkpt lat="45.13412" lon="6.09245">
        <ele>2037.8</ele>
        <time>2024-07-08T08:05:44Z</time>
      </trkpt>
      <trkpt lat="45.13412" lon="6.09246">
        <ele>2037.8</ele>
        <time>2024-07-08T08:05:45Z</time>
      </trkpt>
      <trkpt lat="45.13414" lon="6.09246">
        <ele>2037.6</ele>
        <time>2024-07-08T08:05:46Z</time>
      </trkpt>
      <trkpt lat="45.13415" lon="6.09246">
        <ele>2037.5</ele>
        <time>2024-07-08T08:05:47Z</time>
      </trkpt>
      <trkpt lat="45.13417" lon="6.09246">
        <ele>2037.4</ele>
        <time>2024-07-08T08:05:48Z</time>
      </trkpt>
      <trkpt lat="45.13417" lon="6.09246">
        <ele>2037.4</ele>
        <time>2024-07-08T08:05:49Z</time>
      </trkpt>
      <trkpt lat="45.13418" lon="6.09246">
        <ele>2037.3</ele>
        <time>2024-07-08T08:05:50Z</time>
      </trkpt>
      <trkpt lat="45.13419" lon="6.09246">
        <ele>2037.2</ele>
        <time>2024-07-08T08:05:51Z</time>
      </trkpt>
      <trkpt lat="45.13419" lon="6.09247">
        <ele>2037.2</ele>
        <time>2024-07-08T08:05:52Z</time>
      </trkpt>
      <trkpt lat="45.1342" lon="6.09247">
        <ele>2037.1</ele>
        <time>2024-07-08T08:05:53Z</time>
      </trkpt>
      <trkpt lat="45.13421" lon="6.09247">
        <ele>2037.1</ele>
        <time>2024-07-08T08:05:54Z</time>
      </trkpt>
      <trkpt lat="45.13422" lon="6.09248">
        <ele>2037</ele>
        <time>2024-07-08T08:05:55Z</time>
      </trkpt>
      <trkpt lat="45.13423" lon="6.09248">
        <ele>2037</ele>
        <time>2024-07-08T08:05:56Z</time>
      </trkpt>
      <trkpt lat="45.13423" lon="6.09249">
        <ele>2036.9</ele>
        <time>2024-07-08T08:05:57Z</time>
      </trkpt>
      <trkpt lat="45.13425" lon="6.09249">
        <ele>2036.9</ele>
        <time>2024-07-08T08:05:58Z</time>
      </trkpt>
      <trkpt lat="45.13425" lon="6.09248">
        <ele>2036.8</ele>
        <time>2024-07-08T08:05:59Z</time>
      </trkpt>
      <trkpt lat="45.13426" lon="6.09249">
        <ele>2036.8</ele>
        <time>2024-07-08T08:06:00Z</time>
      </trkpt>
      <trkpt lat="45.13427" lon="6.09249">
        <ele>2036.8</ele>
        <time>2024-07-08T08:06:01Z</time>
      </trkpt>
      <trkpt lat="45.13428" lon="6.09249">
        <ele>2036.8</ele>
        <time>2024-07-08T08:06:02Z</time>
      </trkpt>
      <trkpt lat="45.13429" lon="6.09251">
        <ele>2036.7</ele>
        <time>2024-07-08T08:06:03Z</time>
      </trkpt>
      <trkpt lat="45.13429" lon="6.09252">
        <ele>2036.7</ele>
        <time>2024-07-08T08:06:04Z</time>
      </trkpt>
      <trkpt lat="45.1343" lon="6.09253">
        <ele>2036.7</ele>
        <time>2024-07-08T08:06:05Z</time>
      </trkpt>
      <trkpt lat="45.13431" lon="6.09254">
        <ele>2036.6</ele>
        <time>2024-07-08T08:06:06Z</time>
      </trkpt>
      <trkpt lat="45.13431" lon="6.09255">
        <ele>2036.6</ele>
        <time>2024-07-08T08:06:07Z</time>
      </trkpt>
      <trkpt lat="45.13431" lon="6.09256">
        <ele>2036.6</ele>
        <time>2024-07-08T08:06:08Z</time>
      </trkpt>
      <trkpt lat="45.13432" lon="6.09257">
        <ele>2036.6</ele>
        <time>2024-07-08T08:06:09Z</time>
      </trkpt>
      <trkpt lat="45.13433" lon="6.09258">
        <ele>2036.6</ele>
        <time>2024-07-08T08:06:10Z</time>
      </trkpt>
      <trkpt lat="45.13433" lon="6.09259">
        <ele>2036.6</ele>
        <time>2024-07-08T08:06:11Z</time>
      </trkpt>
      <trkpt lat="45.13434" lon="6.09259">
        <ele>2036.6</ele>
        <time>2024-07-08T08:06:12Z</time>
      </trkpt>
      <trkpt lat="45.13435" lon="6.0926">
        <ele>2036.6</ele>
        <time>2024-07-08T08:06:13Z</time>
      </trkpt>
      <trkpt lat="45.13436" lon="6.0926">
        <ele>2036.6</ele>
        <time>2024-07-08T08:06:14Z</time>
      </trkpt>
      <trkpt lat="45.13437" lon="6.0926">
        <ele>2036.6</ele>
        <time>2024-07-08T08:06:15Z</time>
      </trkpt>
      <trkpt lat="45.13438" lon="6.0926">
        <ele>2036.6</ele>
        <time>2024-07-08T08:06:16Z</time>
      </trkpt>
      <trkpt lat="45.13439" lon="6.0926">
        <ele>2036.6</ele>
        <time>2024-07-08T08:06:17Z</time>
      </trkpt>
      <trkpt lat="45.1344" lon="6.09259">
        <ele>2036.7</ele>
        <time>2024-07-08T08:06:18Z</time>
      </trkpt>
      <trkpt lat="45.1344" lon="6.09257">
        <ele>2036.7</ele>
        <time>2024-07-08T08:06:19Z</time>
      </trkpt>
      <trkpt lat="45.1344" lon="6.09255">
        <ele>2036.7</ele>
        <time>2024-07-08T08:06:20Z</time>
      </trkpt>
      <trkpt lat="45.1344" lon="6.09253">
        <ele>2036.8</ele>
        <time>2024-07-08T08:06:21Z</time>
      </trkpt>
      <trkpt lat="45.1344" lon="6.09252">
        <ele>2036.8</ele>
        <time>2024-07-08T08:06:22Z</time>
      </trkpt>
      <trkpt lat="45.13441" lon="6.09251">
        <ele>2036.8</ele>
        <time>2024-07-08T08:06:23Z</time>
      </trkpt>
      <trkpt lat="45.13443" lon="6.09251">
        <ele>2036.9</ele>
        <time>2024-07-08T08:06:24Z</time>
      </trkpt>
      <trkpt lat="45.13444" lon="6.09251">
        <ele>2036.9</ele>
        <time>2024-07-08T08:06:25Z</time>
      </trkpt>
      <trkpt lat="45.13444" lon="6.09252">
        <ele>2036.9</ele>
        <time>2024-07-08T08:06:26Z</time>
      </trkpt>
      <trkpt lat="45.13446" lon="6.09252">
        <ele>2037</ele>
        <time>2024-07-08T08:06:27Z</time>
      </trkpt>
      <trkpt lat="45.13447" lon="6.09253">
        <ele>2037.1</ele>
        <time>2024-07-08T08:06:28Z</time>
      </trkpt>
      <trkpt lat="45.13447" lon="6.09253">
        <ele>2037.1</ele>
        <time>2024-07-08T08:06:29Z</time>
      </trkpt>
      <trkpt lat="45.13448" lon="6.09254">
        <ele>2037.1</ele>
        <time>2024-07-08T08:06:30Z</time>
      </trkpt>
      <trkpt lat="45.13449" lon="6.09254">
        <ele>2037.2</ele>
        <time>2024-07-08T08:06:31Z</time>
      </trkpt>
      <trkpt lat="45.1345" lon="6.09256">
        <ele>2037.2</ele>
        <time>2024-07-08T08:06:32Z</time>
      </trkpt>
      <trkpt lat="45.1345" lon="6.09257">
        <ele>2037.3</ele>
        <time>2024-07-08T08:06:33Z</time>
      </trkpt>
      <trkpt lat="45.13451" lon="6.09258">
        <ele>2037.4</ele>
        <time>2024-07-08T08:06:34Z</time>
      </trkpt>
      <trkpt lat="45.13452" lon="6.09257">
        <ele>2037.4</ele>
        <time>2024-07-08T08:06:35Z</time>
      </trkpt>
      <trkpt lat="45.13453" lon="6.09257">
        <ele>2037.5</ele>
        <time>2024-07-08T08:06:36Z</time>
      </trkpt>
      <trkpt lat="45.13453" lon="6.09257">
        <ele>2037.5</ele>
        <time>2024-07-08T08:06:37Z</time>
      </trkpt>
      <trkpt lat="45.13455" lon="6.09256">
        <ele>2037.6</ele>
        <time>2024-07-08T08:06:38Z</time>
      </trkpt>
      <trkpt lat="45.13456" lon="6.09256">
        <ele>2037.6</ele>
        <time>2024-07-08T08:06:39Z</time>
      </trkpt>
      <trkpt lat="45.13457" lon="6.09257">
        <ele>2037.7</ele>
        <time>2024-07-08T08:06:40Z</time>
      </trkpt>
      <trkpt lat="45.13458" lon="6.09258">
        <ele>2037.7</ele>
        <time>2024-07-08T08:06:41Z</time>
      </trkpt>
      <trkpt lat="45.13458" lon="6.09259">
        <ele>2037.8</ele>
        <time>2024-07-08T08:06:42Z</time>
      </trkpt>
      <trkpt lat="45.13459" lon="6.09262">
        <ele>2037.9</ele>
        <time>2024-07-08T08:06:43Z</time>
      </trkpt>
      <trkpt lat="45.13459" lon="6.09263">
        <ele>2037.9</ele>
        <time>2024-07-08T08:06:44Z</time>
      </trkpt>
      <trkpt lat="45.1346" lon="6.09264">
        <ele>2038</ele>
        <time>2024-07-08T08:06:45Z</time>
      </trkpt>
      <trkpt lat="45.1346" lon="6.09265">
        <ele>2038</ele>
        <time>2024-07-08T08:06:46Z</time>
      </trkpt>
      <trkpt lat="45.1346" lon="6.09266">
        <ele>2038</ele>
        <time>2024-07-08T08:06:47Z</time>
      </trkpt>
      <trkpt lat="45.13462" lon="6.09266">
        <ele>2038.1</ele>
        <time>2024-07-08T08:06:48Z</time>
      </trkpt>
      <trkpt lat="45.13462" lon="6.09267">
        <ele>2038.1</ele>
        <time>2024-07-08T08:06:49Z</time>
      </trkpt>
      <trkpt lat="45.13463" lon="6.09267">
        <ele>2038.2</ele>
        <time>2024-07-08T08:06:50Z</time>
      </trkpt>
      <trkpt lat="45.13464" lon="6.09267">
        <ele>2038.2</ele>
        <time>2024-07-08T08:06:51Z</time>
      </trkpt>
      <trkpt lat="45.13464" lon="6.09267">
        <ele>2038.2</ele>
        <time>2024-07-08T08:06:52Z</time>
      </trkpt>
      <trkpt lat="45.13465" lon="6.09267">
        <ele>2038.3</ele>
        <time>2024-07-08T08:06:53Z</time>
      </trkpt>
      <trkpt lat="45.13466" lon="6.09267">
        <ele>2038.3</ele>
        <time>2024-07-08T08:06:54Z</time>
      </trkpt>
      <trkpt lat="45.13467" lon="6.09268">
        <ele>2038.3</ele>
        <time>2024-07-08T08:06:55Z</time>
      </trkpt>
      <trkpt lat="45.13467" lon="6.09269">
        <ele>2038.3</ele>
        <time>2024-07-08T08:06:56Z</time>
      </trkpt>
      <trkpt lat="45.13467" lon="6.09271">
        <ele>2038.4</ele>
        <time>2024-07-08T08:06:57Z</time>
      </trkpt>
      <trkpt lat="45.13468" lon="6.09273">
        <ele>2038.4</ele>
        <time>2024-07-08T08:06:58Z</time>
      </trkpt>
      <trkpt lat="45.13467" lon="6.09273">
        <ele>2038.4</ele>
        <time>2024-07-08T08:06:59Z</time>
      </trkpt>
      <trkpt lat="45.13467" lon="6.09275">
        <ele>2038.5</ele>
        <time>2024-07-08T08:07:00Z</time>
      </trkpt>
      <trkpt lat="45.13469" lon="6.09277">
        <ele>2038.5</ele>
        <time>2024-07-08T08:07:01Z</time>
      </trkpt>
      <trkpt lat="45.13469" lon="6.09278">
        <ele>2038.6</ele>
        <time>2024-07-08T08:07:02Z</time>
      </trkpt>
      <trkpt lat="45.1347" lon="6.09279">
        <ele>2038.6</ele>
        <time>2024-07-08T08:07:03Z</time>
      </trkpt>
      <trkpt lat="45.1347" lon="6.0928">
        <ele>2038.6</ele>
        <time>2024-07-08T08:07:04Z</time>
      </trkpt>
      <trkpt lat="45.13471" lon="6.09281">
        <ele>2038.7</ele>
        <time>2024-07-08T08:07:05Z</time>
      </trkpt>
      <trkpt lat="45.13472" lon="6.09282">
        <ele>2038.7</ele>
        <time>2024-07-08T08:07:06Z</time>
      </trkpt>
      <trkpt lat="45.13472" lon="6.09283">
        <ele>2038.7</ele>
        <time>2024-07-08T08:07:07Z</time>
      </trkpt>
      <trkpt lat="45.13474" lon="6.09284">
        <ele>2038.8</ele>
        <time>2024-07-08T08:07:08Z</time>
      </trkpt>
      <trkpt lat="45.13474" lon="6.09285">
        <ele>2038.8</ele>
        <time>2024-07-08T08:07:09Z</time>
      </trkpt>
      <trkpt lat="45.13475" lon="6.09285">
        <ele>2038.8</ele>
        <time>2024-07-08T08:07:10Z</time>
      </trkpt>
      <trkpt lat="45.13475" lon="6.09286">
        <ele>2038.8</ele>
        <time>2024-07-08T08:07:11Z</time>
      </trkpt>
      <trkpt lat="45.13476" lon="6.09286">
        <ele>2038.8</ele>
        <time>2024-07-08T08:07:12Z</time>
      </trkpt>
      <trkpt lat="45.13477" lon="6.09286">
        <ele>2038.9</ele>
        <time>2024-07-08T08:07:13Z</time>
      </trkpt>
      <trkpt lat="45.13478" lon="6.09286">
        <ele>2038.9</ele>
        <time>2024-07-08T08:07:14Z</time>
      </trkpt>
      <trkpt lat="45.13479" lon="6.09287">
        <ele>2038.9</ele>
        <time>2024-07-08T08:07:15Z</time>
      </trkpt>
      <trkpt lat="45.1348" lon="6.09287">
        <ele>2039</ele>
        <time>2024-07-08T08:07:16Z</time>
      </trkpt>
      <trkpt lat="45.1348" lon="6.09288">
        <ele>2039</ele>
        <time>2024-07-08T08:07:17Z</time>
      </trkpt>
      <trkpt lat="45.13481" lon="6.09288">
        <ele>2039</ele>
        <time>2024-07-08T08:07:18Z</time>
      </trkpt>
      <trkpt lat="45.13482" lon="6.09289">
        <ele>2039</ele>
        <time>2024-07-08T08:07:19Z</time>
      </trkpt>
      <trkpt lat="45.13482" lon="6.0929">
        <ele>2039.1</ele>
        <time>2024-07-08T08:07:20Z</time>
      </trkpt>
      <trkpt lat="45.13483" lon="6.0929">
        <ele>2039.1</ele>
        <time>2024-07-08T08:07:21Z</time>
      </trkpt>
      <trkpt lat="45.13484" lon="6.0929">
        <ele>2039.1</ele>
        <time>2024-07-08T08:07:22Z</time>
      </trkpt>
      <trkpt lat="45.13485" lon="6.0929">
        <ele>2039.1</ele>
        <time>2024-07-08T08:07:23Z</time>
      </trkpt>
      <trkpt lat="45.13486" lon="6.0929">
        <ele>2039.2</ele>
        <time>2024-07-08T08:07:24Z</time>
      </trkpt>
      <trkpt lat="45.13487" lon="6.0929">
        <ele>2039.2</ele>
        <time>2024-07-08T08:07:25Z</time>
      </trkpt>
      <trkpt lat="45.13488" lon="6.09291">
        <ele>2039.2</ele>
        <time>2024-07-08T08:07:26Z</time>
      </trkpt>
      <trkpt lat="45.13489" lon="6.09291">
        <ele>2039.2</ele>
        <time>2024-07-08T08:07:27Z</time>
      </trkpt>
      <trkpt lat="45.1349" lon="6.09292">
        <ele>2039.3</ele>
        <time>2024-07-08T08:07:28Z</time>
      </trkpt>
      <trkpt lat="45.13491" lon="6.09293">
        <ele>2039.3</ele>
        <time>2024-07-08T08:07:29Z</time>
      </trkpt>
      <trkpt lat="45.13491" lon="6.09294">
        <ele>2039.3</ele>
        <time>2024-07-08T08:07:30Z</time>
      </trkpt>
      <trkpt lat="45.13491" lon="6.09296">
        <ele>2039.3</ele>
        <time>2024-07-08T08:07:31Z</time>
      </trkpt>
      <trkpt lat="45.13492" lon="6.09297">
        <ele>2039.3</ele>
        <time>2024-07-08T08:07:32Z</time>
      </trkpt>
      <trkpt lat="45.13493" lon="6.09297">
        <ele>2039.3</ele>
        <time>2024-07-08T08:07:33Z</time>
      </trkpt>
      <trkpt lat="45.13494" lon="6.09298">
        <ele>2039.3</ele>
        <time>2024-07-08T08:07:34Z</time>
      </trkpt>
      <trkpt lat="45.13495" lon="6.09299">
        <ele>2039.3</ele>
        <time>2024-07-08T08:07:35Z</time>
      </trkpt>
      <trkpt lat="45.13496" lon="6.093">
        <ele>2039.3</ele>
        <time>2024-07-08T08:07:36Z</time>
      </trkpt>
      <trkpt lat="45.13497" lon="6.09301">
        <ele>2039.3</ele>
        <time>2024-07-08T08:07:37Z</time>
      </trkpt>
      <trkpt lat="45.13497" lon="6.09301">
        <ele>2039.3</ele>
        <time>2024-07-08T08:07:38Z</time>
      </trkpt>
      <trkpt lat="45.13499" lon="6.09302">
        <ele>2039.3</ele>
        <time>2024-07-08T08:07:39Z</time>
      </trkpt>
      <trkpt lat="45.135" lon="6.09302">
        <ele>2039.3</ele>
        <time>2024-07-08T08:07:40Z</time>
      </trkpt>
      <trkpt lat="45.13501" lon="6.09302">
        <ele>2039.3</ele>
        <time>2024-07-08T08:07:41Z</time>
      </trkpt>
      <trkpt lat="45.13502" lon="6.09302">
        <ele>2039.2</ele>
        <time>2024-07-08T08:07:42Z</time>
      </trkpt>
      <trkpt lat="45.13503" lon="6.09301">
        <ele>2039.2</ele>
        <time>2024-07-08T08:07:43Z</time>
      </trkpt>
      <trkpt lat="45.13504" lon="6.09299">
        <ele>2039.1</ele>
        <time>2024-07-08T08:07:44Z</time>
      </trkpt>
      <trkpt lat="45.13503" lon="6.09298">
        <ele>2039.1</ele>
        <time>2024-07-08T08:07:45Z</time>
      </trkpt>
      <trkpt lat="45.13502" lon="6.09298">
        <ele>2039.1</ele>
        <time>2024-07-08T08:07:46Z</time>
      </trkpt>
      <trkpt lat="45.13502" lon="6.09297">
        <ele>2039.1</ele>
        <time>2024-07-08T08:07:47Z</time>
      </trkpt>
      <trkpt lat="45.13502" lon="6.09297">
        <ele>2039.1</ele>
        <time>2024-07-08T08:07:48Z</time>
      </trkpt>
      <trkpt lat="45.13503" lon="6.09295">
        <ele>2039</ele>
        <time>2024-07-08T08:07:49Z</time>
      </trkpt>
      <trkpt lat="45.13503" lon="6.09296">
        <ele>2039</ele>
        <time>2024-07-08T08:07:50Z</time>
      </trkpt>
      <trkpt lat="45.13504" lon="6.09296">
        <ele>2039</ele>
        <time>2024-07-08T08:07:51Z</time>
      </trkpt>
      <trkpt lat="45.13506" lon="6.09298">
        <ele>2038.9</ele>
        <time>2024-07-08T08:07:52Z</time>
      </trkpt>
      <trkpt lat="45.13507" lon="6.09299">
        <ele>2038.9</ele>
        <time>2024-07-08T08:07:53Z</time>
      </trkpt>
      <trkpt lat="45.13508" lon="6.093">
        <ele>2038.9</ele>
        <time>2024-07-08T08:07:54Z</time>
      </trkpt>
      <trkpt lat="45.1351" lon="6.09301">
        <ele>2038.9</ele>
        <time>2024-07-08T08:07:55Z</time>
      </trkpt>
      <trkpt lat="45.13511" lon="6.09302">
        <ele>2038.9</ele>
        <time>2024-07-08T08:07:56Z</time>
      </trkpt>
      <trkpt lat="45.13512" lon="6.09303">
        <ele>2038.9</ele>
        <time>2024-07-08T08:07:57Z</time>
      </trkpt>
      <trkpt lat="45.13513" lon="6.09303">
        <ele>2038.9</ele>
        <time>2024-07-08T08:07:58Z</time>
      </trkpt>
      <trkpt lat="45.13516" lon="6.09304">
        <ele>2038.9</ele>
        <time>2024-07-08T08:07:59Z</time>
      </trkpt>
      <trkpt lat="45.13516" lon="6.09304">
        <ele>2038.9</ele>
        <time>2024-07-08T08:08:00Z</time>
      </trkpt>
      <trkpt lat="45.13517" lon="6.09305">
        <ele>2038.9</ele>
        <time>2024-07-08T08:08:01Z</time>
      </trkpt>
      <trkpt lat="45.13518" lon="6.09305">
        <ele>2038.9</ele>
        <time>2024-07-08T08:08:02Z</time>
      </trkpt>
      <trkpt lat="45.13519" lon="6.09305">
        <ele>2038.9</ele>
        <time>2024-07-08T08:08:03Z</time>
      </trkpt>
      <trkpt lat="45.1352" lon="6.09306">
        <ele>2038.9</ele>
        <time>2024-07-08T08:08:04Z</time>
      </trkpt>
      <trkpt lat="45.13521" lon="6.09306">
        <ele>2039</ele>
        <time>2024-07-08T08:08:05Z</time>
      </trkpt>
      <trkpt lat="45.13522" lon="6.09307">
        <ele>2039</ele>
        <time>2024-07-08T08:08:06Z</time>
      </trkpt>
      <trkpt lat="45.13523" lon="6.09307">
        <ele>2039</ele>
        <time>2024-07-08T08:08:07Z</time>
      </trkpt>
      <trkpt lat="45.13523" lon="6.09308">
        <ele>2039</ele>
        <time>2024-07-08T08:08:08Z</time>
      </trkpt>
      <trkpt lat="45.13524" lon="6.09309">
        <ele>2039</ele>
        <time>2024-07-08T08:08:09Z</time>
      </trkpt>
      <trkpt lat="45.13525" lon="6.0931">
        <ele>2039</ele>
        <time>2024-07-08T08:08:10Z</time>
      </trkpt>
      <trkpt lat="45.13526" lon="6.0931">
        <ele>2039.1</ele>
        <time>2024-07-08T08:08:11Z</time>
      </trkpt>
      <trkpt lat="45.13526" lon="6.09311">
        <ele>2039.1</ele>
        <time>2024-07-08T08:08:12Z</time>
      </trkpt>
      <trkpt lat="45.13527" lon="6.09311">
        <ele>2039.1</ele>
        <time>2024-07-08T08:08:13Z</time>
      </trkpt>
      <trkpt lat="45.13528" lon="6.09312">
        <ele>2039.1</ele>
        <time>2024-07-08T08:08:14Z</time>
      </trkpt>
      <trkpt lat="45.13529" lon="6.09312">
        <ele>2039.1</ele>
        <time>2024-07-08T08:08:15Z</time>
      </trkpt>
      <trkpt lat="45.1353" lon="6.09312">
        <ele>2039.1</ele>
        <time>2024-07-08T08:08:16Z</time>
      </trkpt>
      <trkpt lat="45.1353" lon="6.09313">
        <ele>2039.2</ele>
        <time>2024-07-08T08:08:17Z</time>
      </trkpt>
      <trkpt lat="45.13531" lon="6.09314">
        <ele>2039.2</ele>
        <time>2024-07-08T08:08:18Z</time>
      </trkpt>
      <trkpt lat="45.13532" lon="6.09315">
        <ele>2039.2</ele>
        <time>2024-07-08T08:08:19Z</time>
      </trkpt>
      <trkpt lat="45.13532" lon="6.09316">
        <ele>2039.2</ele>
        <time>2024-07-08T08:08:20Z</time>
      </trkpt>
      <trkpt lat="45.13533" lon="6.09317">
        <ele>2039.2</ele>
        <time>2024-07-08T08:08:21Z</time>
      </trkpt>
      <trkpt lat="45.13533" lon="6.09318">
        <ele>2039.3</ele>
        <time>2024-07-08T08:08:22Z</time>
      </trkpt>
      <trkpt lat="45.13534" lon="6.0932">
        <ele>2039.3</ele>
        <time>2024-07-08T08:08:23Z</time>
      </trkpt>
      <trkpt lat="45.13534" lon="6.09321">
        <ele>2039.3</ele>
        <time>2024-07-08T08:08:24Z</time>
      </trkpt>
      <trkpt lat="45.13535" lon="6.09322">
        <ele>2039.3</ele>
        <time>2024-07-08T08:08:25Z</time>
      </trkpt>
      <trkpt lat="45.13537" lon="6.09322">
        <ele>2039.3</ele>
        <time>2024-07-08T08:08:27Z</time>
      </trkpt>
      <trkpt lat="45.13538" lon="6.09323">
        <ele>2039.3</ele>
        <time>2024-07-08T08:08:28Z</time>
      </trkpt>
      <trkpt lat="45.1354" lon="6.09323">
        <ele>2039.3</ele>
        <time>2024-07-08T08:08:29Z</time>
      </trkpt>
      <trkpt lat="45.1354" lon="6.09324">
        <ele>2039.3</ele>
        <time>2024-07-08T08:08:30Z</time>
      </trkpt>
      <trkpt lat="45.13541" lon="6.09324">
        <ele>2039.2</ele>
        <time>2024-07-08T08:08:31Z</time>
      </trkpt>
      <trkpt lat="45.13542" lon="6.09325">
        <ele>2039.2</ele>
        <time>2024-07-08T08:08:32Z</time>
      </trkpt>
      <trkpt lat="45.13543" lon="6.09325">
        <ele>2039.2</ele>
        <time>2024-07-08T08:08:33Z</time>
      </trkpt>
      <trkpt lat="45.13544" lon="6.09325">
        <ele>2039.1</ele>
        <time>2024-07-08T08:08:34Z</time>
      </trkpt>
      <trkpt lat="45.13545" lon="6.09325">
        <ele>2039.1</ele>
        <time>2024-07-08T08:08:35Z</time>
      </trkpt>
      <trkpt lat="45.13546" lon="6.09326">
        <ele>2039.1</ele>
        <time>2024-07-08T08:08:36Z</time>
      </trkpt>
      <trkpt lat="45.13547" lon="6.09326">
        <ele>2039</ele>
        <time>2024-07-08T08:08:37Z</time>
      </trkpt>
      <trkpt lat="45.13548" lon="6.09327">
        <ele>2039</ele>
        <time>2024-07-08T08:08:38Z</time>
      </trkpt>
      <trkpt lat="45.13549" lon="6.09328">
        <ele>2039</ele>
        <time>2024-07-08T08:08:39Z</time>
      </trkpt>
      <trkpt lat="45.1355" lon="6.09328">
        <ele>2039</ele>
        <time>2024-07-08T08:08:40Z</time>
      </trkpt>
      <trkpt lat="45.13551" lon="6.09328">
        <ele>2038.9</ele>
        <time>2024-07-08T08:08:41Z</time>
      </trkpt>
      <trkpt lat="45.13552" lon="6.09329">
        <ele>2038.9</ele>
        <time>2024-07-08T08:08:42Z</time>
      </trkpt>
      <trkpt lat="45.13553" lon="6.0933">
        <ele>2038.9</ele>
        <time>2024-07-08T08:08:43Z</time>
      </trkpt>
      <trkpt lat="45.13554" lon="6.0933">
        <ele>2038.9</ele>
        <time>2024-07-08T08:08:44Z</time>
      </trkpt>
      <trkpt lat="45.13555" lon="6.0933">
        <ele>2038.9</ele>
        <time>2024-07-08T08:08:45Z</time>
      </trkpt>
      <trkpt lat="45.13556" lon="6.0933">
        <ele>2038.9</ele>
        <time>2024-07-08T08:08:46Z</time>
      </trkpt>
      <trkpt lat="45.13557" lon="6.0933">
        <ele>2038.9</ele>
        <time>2024-07-08T08:08:47Z</time>
      </trkpt>
      <trkpt lat="45.13558" lon="6.09329">
        <ele>2038.8</ele>
        <time>2024-07-08T08:08:48Z</time>
      </trkpt>
      <trkpt lat="45.1356" lon="6.09328">
        <ele>2038.8</ele>
        <time>2024-07-08T08:08:49Z</time>
      </trkpt>
      <trkpt lat="45.1356" lon="6.09327">
        <ele>2038.8</ele>
        <time>2024-07-08T08:08:50Z</time>
      </trkpt>
      <trkpt lat="45.13562" lon="6.09327">
        <ele>2038.8</ele>
        <time>2024-07-08T08:08:51Z</time>
      </trkpt>
      <trkpt lat="45.13563" lon="6.09328">
        <ele>2038.8</ele>
        <time>2024-07-08T08:08:52Z</time>
      </trkpt>
      <trkpt lat="45.13564" lon="6.09328">
        <ele>2038.8</ele>
        <time>2024-07-08T08:08:53Z</time>
      </trkpt>
      <trkpt lat="45.13565" lon="6.09329">
        <ele>2038.8</ele>
        <time>2024-07-08T08:08:54Z</time>
      </trkpt>
      <trkpt lat="45.13566" lon="6.09329">
        <ele>2038.8</ele>
        <time>2024-07-08T08:08:55Z</time>
      </trkpt>
      <trkpt lat="45.13567" lon="6.09329">
        <ele>2038.8</ele>
        <time>2024-07-08T08:08:56Z</time>
      </trkpt>
      <trkpt lat="45.13568" lon="6.0933">
        <ele>2038.8</ele>
        <time>2024-07-08T08:08:57Z</time>
      </trkpt>
      <trkpt lat="45.13569" lon="6.09329">
        <ele>2038.9</ele>
        <time>2024-07-08T08:08:58Z</time>
      </trkpt>
      <trkpt lat="45.13571" lon="6.09329">
        <ele>2038.9</ele>
        <time>2024-07-08T08:08:59Z</time>
      </trkpt>
      <trkpt lat="45.13571" lon="6.09329">
        <ele>2038.9</ele>
        <time>2024-07-08T08:09:00Z</time>
      </trkpt>
      <trkpt lat="45.13572" lon="6.09329">
        <ele>2038.9</ele>
        <time>2024-07-08T08:09:01Z</time>
      </trkpt>
      <trkpt lat="45.13573" lon="6.09328">
        <ele>2038.9</ele>
        <time>2024-07-08T08:09:02Z</time>
      </trkpt>
      <trkpt lat="45.13573" lon="6.09327">
        <ele>2038.9</ele>
        <time>2024-07-08T08:09:03Z</time>
      </trkpt>
      <trkpt lat="45.13574" lon="6.09324">
        <ele>2039</ele>
        <time>2024-07-08T08:09:04Z</time>
      </trkpt>
      <trkpt lat="45.13574" lon="6.09323">
        <ele>2039</ele>
        <time>2024-07-08T08:09:05Z</time>
      </trkpt>
      <trkpt lat="45.13575" lon="6.09323">
        <ele>2039</ele>
        <time>2024-07-08T08:09:06Z</time>
      </trkpt>
      <trkpt lat="45.13577" lon="6.09324">
        <ele>2039.1</ele>
        <time>2024-07-08T08:09:07Z</time>
      </trkpt>
      <trkpt lat="45.13578" lon="6.09324">
        <ele>2039.1</ele>
        <time>2024-07-08T08:09:08Z</time>
      </trkpt>
      <trkpt lat="45.13579" lon="6.09325">
        <ele>2039.2</ele>
        <time>2024-07-08T08:09:09Z</time>
      </trkpt>
      <trkpt lat="45.13581" lon="6.09326">
        <ele>2039.3</ele>
        <time>2024-07-08T08:09:10Z</time>
      </trkpt>
      <trkpt lat="45.13581" lon="6.09327">
        <ele>2039.3</ele>
        <time>2024-07-08T08:09:11Z</time>
      </trkpt>
      <trkpt lat="45.13582" lon="6.09327">
        <ele>2039.4</ele>
        <time>2024-07-08T08:09:12Z</time>
      </trkpt>
      <trkpt lat="45.13583" lon="6.09328">
        <ele>2039.4</ele>
        <time>2024-07-08T08:09:13Z</time>
      </trkpt>
      <trkpt lat="45.13584" lon="6.09329">
        <ele>2039.5</ele>
        <time>2024-07-08T08:09:14Z</time>
      </trkpt>
      <trkpt lat="45.13585" lon="6.0933">
        <ele>2039.6</ele>
        <time>2024-07-08T08:09:15Z</time>
      </trkpt>
      <trkpt lat="45.13586" lon="6.0933">
        <ele>2039.6</ele>
        <time>2024-07-08T08:09:16Z</time>
      </trkpt>
      <trkpt lat="45.13587" lon="6.09331">
        <ele>2039.7</ele>
        <time>2024-07-08T08:09:17Z</time>
      </trkpt>
      <trkpt lat="45.13589" lon="6.09331">
        <ele>2039.9</ele>
        <time>2024-07-08T08:09:19Z</time>
      </trkpt>
      <trkpt lat="45.1359" lon="6.09331">
        <ele>2040</ele>
        <time>2024-07-08T08:09:20Z</time>
      </trkpt>
      <trkpt lat="45.13591" lon="6.09332">
        <ele>2040</ele>
        <time>2024-07-08T08:09:21Z</time>
      </trkpt>
      <trkpt lat="45.13593" lon="6.09333">
        <ele>2040.2</ele>
        <time>2024-07-08T08:09:22Z</time>
      </trkpt>
      <trkpt lat="45.13593" lon="6.09334">
        <ele>2040.3</ele>
        <time>2024-07-08T08:09:23Z</time>
      </trkpt>
      <trkpt lat="45.13594" lon="6.09334">
        <ele>2040.4</ele>
        <time>2024-07-08T08:09:24Z</time>
      </trkpt>
      <trkpt lat="45.13595" lon="6.09334">
        <ele>2040.5</ele>
        <time>2024-07-08T08:09:25Z</time>
      </trkpt>
      <trkpt lat="45.13596" lon="6.09334">
        <ele>2040.6</ele>
        <time>2024-07-08T08:09:26Z</time>
      </trkpt>
      <trkpt lat="45.13597" lon="6.09334">
        <ele>2040.7</ele>
        <time>2024-07-08T08:09:27Z</time>
      </trkpt>
      <trkpt lat="45.13598" lon="6.09335">
        <ele>2040.9</ele>
        <time>2024-07-08T08:09:28Z</time>
      </trkpt>
      <trkpt lat="45.13599" lon="6.09335">
        <ele>2041</ele>
        <time>2024-07-08T08:09:29Z</time>
      </trkpt>
      <trkpt lat="45.136" lon="6.09335">
        <ele>2041.1</ele>
        <time>2024-07-08T08:09:30Z</time>
      </trkpt>
      <trkpt lat="45.13601" lon="6.09336">
        <ele>2041.2</ele>
        <time>2024-07-08T08:09:31Z</time>
      </trkpt>
      <trkpt lat="45.13602" lon="6.09336">
        <ele>2041.4</ele>
        <time>2024-07-08T08:09:32Z</time>
      </trkpt>
      <trkpt lat="45.13603" lon="6.09337">
        <ele>2041.5</ele>
        <time>2024-07-08T08:09:33Z</time>
      </trkpt>
      <trkpt lat="45.13605" lon="6.09337">
        <ele>2041.8</ele>
        <time>2024-07-08T08:09:34Z</time>
      </trkpt>
      <trkpt lat="45.13605" lon="6.09337">
        <ele>2041.9</ele>
        <time>2024-07-08T08:09:35Z</time>
      </trkpt>
      <trkpt lat="45.13606" lon="6.09337">
        <ele>2042</ele>
        <time>2024-07-08T08:09:36Z</time>
      </trkpt>
      <trkpt lat="45.13608" lon="6.09337">
        <ele>2042.3</ele>
        <time>2024-07-08T08:09:37Z</time>
      </trkpt>
      <trkpt lat="45.13609" lon="6.09337">
        <ele>2042.4</ele>
        <time>2024-07-08T08:09:38Z</time>
      </trkpt>
      <trkpt lat="45.1361" lon="6.09337">
        <ele>2042.5</ele>
        <time>2024-07-08T08:09:39Z</time>
      </trkpt>
      <trkpt lat="45.13611" lon="6.09337">
        <ele>2042.7</ele>
        <time>2024-07-08T08:09:40Z</time>
      </trkpt>
      <trkpt lat="45.13611" lon="6.09337">
        <ele>2042.8</ele>
        <time>2024-07-08T08:09:41Z</time>
      </trkpt>
      <trkpt lat="45.13613" lon="6.09337">
        <ele>2042.9</ele>
        <time>2024-07-08T08:09:42Z</time>
      </trkpt>
      <trkpt lat="45.13613" lon="6.09338">
        <ele>2043</ele>
        <time>2024-07-08T08:09:43Z</time>
      </trkpt>
      <trkpt lat="45.13615" lon="6.09338">
        <ele>2043.2</ele>
        <time>2024-07-08T08:09:44Z</time>
      </trkpt>
      <trkpt lat="45.13615" lon="6.09339">
        <ele>2043.3</ele>
        <time>2024-07-08T08:09:45Z</time>
      </trkpt>
      <trkpt lat="45.13616" lon="6.0934">
        <ele>2043.4</ele>
        <time>2024-07-08T08:09:46Z</time>
      </trkpt>
      <trkpt lat="45.13617" lon="6.0934">
        <ele>2043.5</ele>
        <time>2024-07-08T08:09:47Z</time>
      </trkpt>
      <trkpt lat="45.13618" lon="6.09341">
        <ele>2043.6</ele>
        <time>2024-07-08T08:09:48Z</time>
      </trkpt>
      <trkpt lat="45.13619" lon="6.09341">
        <ele>2043.7</ele>
        <time>2024-07-08T08:09:49Z</time>
      </trkpt>
      <trkpt lat="45.13621" lon="6.09341">
        <ele>2043.8</ele>
        <time>2024-07-08T08:09:50Z</time>
      </trkpt>
      <trkpt lat="45.13621" lon="6.09341">
        <ele>2043.9</ele>
        <time>2024-07-08T08:09:51Z</time>
      </trkpt>
      <trkpt lat="45.13622" lon="6.09341">
        <ele>2043.9</ele>
        <time>2024-07-08T08:09:52Z</time>
      </trkpt>
      <trkpt lat="45.13623" lon="6.09341">
        <ele>2044</ele>
        <time>2024-07-08T08:09:53Z</time>
      </trkpt>
      <trkpt lat="45.13624" lon="6.09341">
        <ele>2044.1</ele>
        <time>2024-07-08T08:09:54Z</time>
      </trkpt>
      <trkpt lat="45.13625" lon="6.09341">
        <ele>2044.1</ele>
        <time>2024-07-08T08:09:55Z</time>
      </trkpt>
      <trkpt lat="45.13625" lon="6.0934">
        <ele>2044.1</ele>
        <time>2024-07-08T08:09:56Z</time>
      </trkpt>
      <trkpt lat="45.13626" lon="6.0934">
        <ele>2044.2</ele>
        <time>2024-07-08T08:09:57Z</time>
      </trkpt>
      <trkpt lat="45.13627" lon="6.09339">
        <ele>2044.2</ele>
        <time>2024-07-08T08:09:58Z</time>
      </trkpt>
      <trkpt lat="45.13629" lon="6.09339">
        <ele>2044.3</ele>
        <time>2024-07-08T08:09:59Z</time>
      </trkpt>
      <trkpt lat="45.1363" lon="6.09338">
        <ele>2044.3</ele>
        <time>2024-07-08T08:10:00Z</time>
      </trkpt>
      <trkpt lat="45.13631" lon="6.09338">
        <ele>2044.3</ele>
        <time>2024-07-08T08:10:01Z</time>
      </trkpt>
      <trkpt lat="45.13632" lon="6.09338">
        <ele>2044.3</ele>
        <time>2024-07-08T08:10:02Z</time>
      </trkpt>
      <trkpt lat="45.13632" lon="6.09338">
        <ele>2044.3</ele>
        <time>2024-07-08T08:10:03Z</time>
      </trkpt>
      <trkpt lat="45.13634" lon="6.09338">
        <ele>2044.4</ele>
        <time>2024-07-08T08:10:04Z</time>
      </trkpt>
      <trkpt lat="45.13634" lon="6.09338">
        <ele>2044.4</ele>
        <time>2024-07-08T08:10:05Z</time>
      </trkpt>
      <trkpt lat="45.13635" lon="6.09339">
        <ele>2044.4</ele>
        <time>2024-07-08T08:10:06Z</time>
      </trkpt>
      <trkpt lat="45.13636" lon="6.09339">
        <ele>2044.4</ele>
        <time>2024-07-08T08:10:07Z</time>
      </trkpt>
      <trkpt lat="45.13637" lon="6.0934">
        <ele>2044.4</ele>
        <time>2024-07-08T08:10:08Z</time>
      </trkpt>
      <trkpt lat="45.13638" lon="6.09341">
        <ele>2044.4</ele>
        <time>2024-07-08T08:10:09Z</time>
      </trkpt>
      <trkpt lat="45.13641" lon="6.09342">
        <ele>2044.3</ele>
        <time>2024-07-08T08:10:11Z</time>
      </trkpt>
      <trkpt lat="45.13641" lon="6.09342">
        <ele>2044.2</ele>
        <time>2024-07-08T08:10:12Z</time>
      </trkpt>
      <trkpt lat="45.13643" lon="6.09342">
        <ele>2044.2</ele>
        <time>2024-07-08T08:10:13Z</time>
      </trkpt>
      <trkpt lat="45.13644" lon="6.09343">
        <ele>2044.1</ele>
        <time>2024-07-08T08:10:14Z</time>
      </trkpt>
      <trkpt lat="45.13646" lon="6.09344">
        <ele>2044</ele>
        <time>2024-07-08T08:10:16Z</time>
      </trkpt>
      <trkpt lat="45.13647" lon="6.09345">
        <ele>2043.9</ele>
        <time>2024-07-08T08:10:17Z</time>
      </trkpt>
      <trkpt lat="45.13648" lon="6.09345">
        <ele>2043.9</ele>
        <time>2024-07-08T08:10:18Z</time>
      </trkpt>
      <trkpt lat="45.1365" lon="6.09346">
        <ele>2043.7</ele>
        <time>2024-07-08T08:10:20Z</time>
      </trkpt>
      <trkpt lat="45.13651" lon="6.09347">
        <ele>2043.6</ele>
        <time>2024-07-08T08:10:21Z</time>
      </trkpt>
      <trkpt lat="45.13652" lon="6.09347">
        <ele>2043.6</ele>
        <time>2024-07-08T08:10:22Z</time>
      </trkpt>
      <trkpt lat="45.13653" lon="6.09348">
        <ele>2043.5</ele>
        <time>2024-07-08T08:10:23Z</time>
      </trkpt>
      <trkpt lat="45.13654" lon="6.09349">
        <ele>2043.4</ele>
        <time>2024-07-08T08:10:24Z</time>
      </trkpt>
      <trkpt lat="45.13656" lon="6.09351">
        <ele>2043.2</ele>
        <time>2024-07-08T08:10:25Z</time>
      </trkpt>
      <trkpt lat="45.13657" lon="6.09351">
        <ele>2043.1</ele>
        <time>2024-07-08T08:10:27Z</time>
      </trkpt>
      <trkpt lat="45.13658" lon="6.09351">
        <ele>2043</ele>
        <time>2024-07-08T08:10:28Z</time>
      </trkpt>
      <trkpt lat="45.13659" lon="6.09351">
        <ele>2042.9</ele>
        <time>2024-07-08T08:10:29Z</time>
      </trkpt>
      <trkpt lat="45.1366" lon="6.09352">
        <ele>2042.8</ele>
        <time>2024-07-08T08:10:30Z</time>
      </trkpt>
      <trkpt lat="45.13662" lon="6.09352">
        <ele>2042.7</ele>
        <time>2024-07-08T08:10:31Z</time>
      </trkpt>
      <trkpt lat="45.13663" lon="6.09352">
        <ele>2042.6</ele>
        <time>2024-07-08T08:10:32Z</time>
      </trkpt>
      <trkpt lat="45.13664" lon="6.09352">
        <ele>2042.5</ele>
        <time>2024-07-08T08:10:33Z</time>
      </trkpt>
      <trkpt lat="45.13666" lon="6.09353">
        <ele>2042.4</ele>
        <time>2024-07-08T08:10:34Z</time>
      </trkpt>
      <trkpt lat="45.13667" lon="6.09353">
        <ele>2042.4</ele>
        <time>2024-07-08T08:10:35Z</time>
      </trkpt>
      <trkpt lat="45.13668" lon="6.09353">
        <ele>2042.3</ele>
        <time>2024-07-08T08:10:36Z</time>
      </trkpt>
      <trkpt lat="45.13669" lon="6.09353">
        <ele>2042.3</ele>
        <time>2024-07-08T08:10:37Z</time>
      </trkpt>
      <trkpt lat="45.1367" lon="6.09354">
        <ele>2042.2</ele>
        <time>2024-07-08T08:10:38Z</time>
      </trkpt>
      <trkpt lat="45.13671" lon="6.09355">
        <ele>2042.2</ele>
        <time>2024-07-08T08:10:39Z</time>
      </trkpt>
      <trkpt lat="45.13673" lon="6.09357">
        <ele>2042.2</ele>
        <time>2024-07-08T08:10:40Z</time>
      </trkpt>
      <trkpt lat="45.13674" lon="6.09357">
        <ele>2042.2</ele>
        <time>2024-07-08T08:10:42Z</time>
      </trkpt>
      <trkpt lat="45.13675" lon="6.09358">
        <ele>2042.2</ele>
        <time>2024-07-08T08:10:43Z</time>
      </trkpt>
      <trkpt lat="45.13676" lon="6.09359">
        <ele>2042.2</ele>
        <time>2024-07-08T08:10:44Z</time>
      </trkpt>
      <trkpt lat="45.13677" lon="6.0936">
        <ele>2042.2</ele>
        <time>2024-07-08T08:10:45Z</time>
      </trkpt>
      <trkpt lat="45.13678" lon="6.0936">
        <ele>2042.2</ele>
        <time>2024-07-08T08:10:46Z</time>
      </trkpt>
      <trkpt lat="45.13679" lon="6.09361">
        <ele>2042.3</ele>
        <time>2024-07-08T08:10:47Z</time>
      </trkpt>
      <trkpt lat="45.1368" lon="6.09362">
        <ele>2042.3</ele>
        <time>2024-07-08T08:10:48Z</time>
      </trkpt>
      <trkpt lat="45.13681" lon="6.09363">
        <ele>2042.4</ele>
        <time>2024-07-08T08:10:49Z</time>
      </trkpt>
      <trkpt lat="45.13682" lon="6.09363">
        <ele>2042.4</ele>
        <time>2024-07-08T08:10:50Z</time>
      </trkpt>
      <trkpt lat="45.13683" lon="6.09364">
        <ele>2042.5</ele>
        <time>2024-07-08T08:10:51Z</time>
      </trkpt>
      <trkpt lat="45.13684" lon="6.09364">
        <ele>2042.6</ele>
        <time>2024-07-08T08:10:52Z</time>
      </trkpt>
      <trkpt lat="45.13686" lon="6.09366">
        <ele>2042.7</ele>
        <time>2024-07-08T08:10:54Z</time>
      </trkpt>
      <trkpt lat="45.13687" lon="6.09366">
        <ele>2042.8</ele>
        <time>2024-07-08T08:10:55Z</time>
      </trkpt>
      <trkpt lat="45.13688" lon="6.09367">
        <ele>2042.9</ele>
        <time>2024-07-08T08:10:56Z</time>
      </trkpt>
      <trkpt lat="45.13689" lon="6.09367">
        <ele>2043</ele>
        <time>2024-07-08T08:10:57Z</time>
      </trkpt>
      <trkpt lat="45.13691" lon="6.09368">
        <ele>2043.1</ele>
        <time>2024-07-08T08:10:58Z</time>
      </trkpt>
      <trkpt lat="45.13692" lon="6.09368">
        <ele>2043.2</ele>
        <time>2024-07-08T08:10:59Z</time>
      </trkpt>
      <trkpt lat="45.13693" lon="6.09368">
        <ele>2043.3</ele>
        <time>2024-07-08T08:11:00Z</time>
      </trkpt>
      <trkpt lat="45.13694" lon="6.09369">
        <ele>2043.4</ele>
        <time>2024-07-08T08:11:01Z</time>
      </trkpt>
      <trkpt lat="45.13695" lon="6.0937">
        <ele>2043.5</ele>
        <time>2024-07-08T08:11:02Z</time>
      </trkpt>
      <trkpt lat="45.13696" lon="6.09371">
        <ele>2043.6</ele>
        <time>2024-07-08T08:11:03Z</time>
      </trkpt>
      <trkpt lat="45.13697" lon="6.09371">
        <ele>2043.7</ele>
        <time>2024-07-08T08:11:04Z</time>
      </trkpt>
      <trkpt lat="45.13698" lon="6.09372">
        <ele>2043.9</ele>
        <time>2024-07-08T08:11:05Z</time>
      </trkpt>
      <trkpt lat="45.13699" lon="6.09373">
        <ele>2044</ele>
        <time>2024-07-08T08:11:06Z</time>
      </trkpt>
      <trkpt lat="45.13701" lon="6.09374">
        <ele>2044.2</ele>
        <time>2024-07-08T08:11:07Z</time>
      </trkpt>
      <trkpt lat="45.13702" lon="6.09374">
        <ele>2044.2</ele>
        <time>2024-07-08T08:11:08Z</time>
      </trkpt>
      <trkpt lat="45.13703" lon="6.09375">
        <ele>2044.2</ele>
        <time>2024-07-08T08:11:09Z</time>
      </trkpt>
      <trkpt lat="45.13704" lon="6.09375">
        <ele>2044.3</ele>
        <time>2024-07-08T08:11:10Z</time>
      </trkpt>
      <trkpt lat="45.13705" lon="6.09375">
        <ele>2044.3</ele>
        <time>2024-07-08T08:11:11Z</time>
      </trkpt>
      <trkpt lat="45.13706" lon="6.09374">
        <ele>2044.3</ele>
        <time>2024-07-08T08:11:12Z</time>
      </trkpt>
      <trkpt lat="45.13707" lon="6.09373">
        <ele>2044.4</ele>
        <time>2024-07-08T08:11:13Z</time>
      </trkpt>
      <trkpt lat="45.13708" lon="6.09372">
        <ele>2044.4</ele>
        <time>2024-07-08T08:11:14Z</time>
      </trkpt>
      <trkpt lat="45.13709" lon="6.09371">
        <ele>2044.5</ele>
        <time>2024-07-08T08:11:15Z</time>
      </trkpt>
      <trkpt lat="45.13709" lon="6.0937">
        <ele>2044.5</ele>
        <time>2024-07-08T08:11:16Z</time>
      </trkpt>
      <trkpt lat="45.1371" lon="6.09369">
        <ele>2044.5</ele>
        <time>2024-07-08T08:11:17Z</time>
      </trkpt>
      <trkpt lat="45.13711" lon="6.09368">
        <ele>2044.6</ele>
        <time>2024-07-08T08:11:18Z</time>
      </trkpt>
      <trkpt lat="45.13712" lon="6.09367">
        <ele>2044.6</ele>
        <time>2024-07-08T08:11:19Z</time>
      </trkpt>
      <trkpt lat="45.13713" lon="6.09367">
        <ele>2044.6</ele>
        <time>2024-07-08T08:11:20Z</time>
      </trkpt>
      <trkpt lat="45.13714" lon="6.09367">
        <ele>2044.7</ele>
        <time>2024-07-08T08:11:21Z</time>
      </trkpt>
      <trkpt lat="45.13715" lon="6.09367">
        <ele>2044.7</ele>
        <time>2024-07-08T08:11:22Z</time>
      </trkpt>
      <trkpt lat="45.13716" lon="6.09368">
        <ele>2044.7</ele>
        <time>2024-07-08T08:11:23Z</time>
      </trkpt>
      <trkpt lat="45.13716" lon="6.0937">
        <ele>2044.8</ele>
        <time>2024-07-08T08:11:24Z</time>
      </trkpt>
      <trkpt lat="45.13716" lon="6.09373">
        <ele>2044.9</ele>
        <time>2024-07-08T08:11:25Z</time>
      </trkpt>
      <trkpt lat="45.13716" lon="6.09373">
        <ele>2044.9</ele>
        <time>2024-07-08T08:11:26Z</time>
      </trkpt>
      <trkpt lat="45.13715" lon="6.09374">
        <ele>2044.9</ele>
        <time>2024-07-08T08:11:27Z</time>
      </trkpt>
      <trkpt lat="45.13715" lon="6.09374">
        <ele>2044.9</ele>
        <time>2024-07-08T08:11:28Z</time>
      </trkpt>
      <trkpt lat="45.13715" lon="6.09376">
        <ele>2045</ele>
        <time>2024-07-08T08:11:29Z</time>
      </trkpt>
      <trkpt lat="45.13715" lon="6.09378">
        <ele>2045</ele>
        <time>2024-07-08T08:11:30Z</time>
      </trkpt>
      <trkpt lat="45.13715" lon="6.0938">
        <ele>2045.1</ele>
        <time>2024-07-08T08:11:31Z</time>
      </trkpt>
      <trkpt lat="45.13715" lon="6.09382">
        <ele>2045.1</ele>
        <time>2024-07-08T08:11:32Z</time>
      </trkpt>
      <trkpt lat="45.13716" lon="6.09384">
        <ele>2045.2</ele>
        <time>2024-07-08T08:11:33Z</time>
      </trkpt>
      <trkpt lat="45.13717" lon="6.09386">
        <ele>2045.2</ele>
        <time>2024-07-08T08:11:34Z</time>
      </trkpt>
      <trkpt lat="45.13718" lon="6.09387">
        <ele>2045.3</ele>
        <time>2024-07-08T08:11:35Z</time>
      </trkpt>
      <trkpt lat="45.13719" lon="6.09388">
        <ele>2045.4</ele>
        <time>2024-07-08T08:11:36Z</time>
      </trkpt>
      <trkpt lat="45.1372" lon="6.09389">
        <ele>2045.4</ele>
        <time>2024-07-08T08:11:37Z</time>
      </trkpt>
      <trkpt lat="45.13722" lon="6.0939">
        <ele>2045.5</ele>
        <time>2024-07-08T08:11:38Z</time>
      </trkpt>
      <trkpt lat="45.13724" lon="6.09391">
        <ele>2045.6</ele>
        <time>2024-07-08T08:11:39Z</time>
      </trkpt>
      <trkpt lat="45.13724" lon="6.09391">
        <ele>2045.6</ele>
        <time>2024-07-08T08:11:40Z</time>
      </trkpt>
      <trkpt lat="45.13725" lon="6.09392">
        <ele>2045.7</ele>
        <time>2024-07-08T08:11:41Z</time>
      </trkpt>
      <trkpt lat="45.13725" lon="6.09393">
        <ele>2045.7</ele>
        <time>2024-07-08T08:11:42Z</time>
      </trkpt>
      <trkpt lat="45.13724" lon="6.09395">
        <ele>2045.8</ele>
        <time>2024-07-08T08:11:43Z</time>
      </trkpt>
      <trkpt lat="45.13725" lon="6.09397">
        <ele>2045.9</ele>
        <time>2024-07-08T08:11:44Z</time>
      </trkpt>
      <trkpt lat="45.13726" lon="6.09398">
        <ele>2045.9</ele>
        <time>2024-07-08T08:11:45Z</time>
      </trkpt>
      <trkpt lat="45.13727" lon="6.09398">
        <ele>2045.9</ele>
        <time>2024-07-08T08:11:46Z</time>
      </trkpt>
      <trkpt lat="45.13729" lon="6.09399">
        <ele>2046</ele>
        <time>2024-07-08T08:11:48Z</time>
      </trkpt>
      <trkpt lat="45.1373" lon="6.09399">
        <ele>2046.1</ele>
        <time>2024-07-08T08:11:49Z</time>
      </trkpt>
      <trkpt lat="45.13731" lon="6.09399">
        <ele>2046.1</ele>
        <time>2024-07-08T08:11:50Z</time>
      </trkpt>
      <trkpt lat="45.13732" lon="6.09398">
        <ele>2046.1</ele>
        <time>2024-07-08T08:11:51Z</time>
      </trkpt>
      <trkpt lat="45.13734" lon="6.09397">
        <ele>2046.2</ele>
        <time>2024-07-08T08:11:53Z</time>
      </trkpt>
      <trkpt lat="45.13735" lon="6.09397">
        <ele>2046.2</ele>
        <time>2024-07-08T08:11:54Z</time>
      </trkpt>
      <trkpt lat="45.13736" lon="6.09397">
        <ele>2046.2</ele>
        <time>2024-07-08T08:11:55Z</time>
      </trkpt>
      <trkpt lat="45.13737" lon="6.09397">
        <ele>2046.2</ele>
        <time>2024-07-08T08:11:56Z</time>
      </trkpt>
      <trkpt lat="45.13738" lon="6.09397">
        <ele>2046.2</ele>
        <time>2024-07-08T08:11:57Z</time>
      </trkpt>
      <trkpt lat="45.13739" lon="6.09397">
        <ele>2046.3</ele>
        <time>2024-07-08T08:11:58Z</time>
      </trkpt>
      <trkpt lat="45.1374" lon="6.09397">
        <ele>2046.3</ele>
        <time>2024-07-08T08:11:59Z</time>
      </trkpt>
      <trkpt lat="45.13741" lon="6.09398">
        <ele>2046.3</ele>
        <time>2024-07-08T08:12:00Z</time>
      </trkpt>
      <trkpt lat="45.13742" lon="6.09398">
        <ele>2046.3</ele>
        <time>2024-07-08T08:12:01Z</time>
      </trkpt>
      <trkpt lat="45.13743" lon="6.09398">
        <ele>2046.3</ele>
        <time>2024-07-08T08:12:02Z</time>
      </trkpt>
      <trkpt lat="45.13743" lon="6.09399">
        <ele>2046.3</ele>
        <time>2024-07-08T08:12:03Z</time>
      </trkpt>
      <trkpt lat="45.13744" lon="6.094">
        <ele>2046.3</ele>
        <time>2024-07-08T08:12:04Z</time>
      </trkpt>
      <trkpt lat="45.13745" lon="6.094">
        <ele>2046.2</ele>
        <time>2024-07-08T08:12:05Z</time>
      </trkpt>
      <trkpt lat="45.13746" lon="6.09401">
        <ele>2046.2</ele>
        <time>2024-07-08T08:12:06Z</time>
      </trkpt>
      <trkpt lat="45.13747" lon="6.09402">
        <ele>2046.2</ele>
        <time>2024-07-08T08:12:07Z</time>
      </trkpt>
      <trkpt lat="45.13748" lon="6.09404">
        <ele>2046.9</ele>
        <time>2024-07-08T08:12:08Z</time>
      </trkpt>
      <trkpt lat="45.13748" lon="6.09406">
        <ele>2046.8</ele>
        <time>2024-07-08T08:12:09Z</time>
      </trkpt>
      <trkpt lat="45.13748" lon="6.09407">
        <ele>2047.5</ele>
        <time>2024-07-08T08:12:10Z</time>
      </trkpt>
      <trkpt lat="45.13748" lon="6.09409">
        <ele>2047.5</ele>
        <time>2024-07-08T08:12:11Z</time>
      </trkpt>
      <trkpt lat="45.13748" lon="6.0941">
        <ele>2047.5</ele>
        <time>2024-07-08T08:12:12Z</time>
      </trkpt>
      <trkpt lat="45.13749" lon="6.09411">
        <ele>2048.1</ele>
        <time>2024-07-08T08:12:13Z</time>
      </trkpt>
      <trkpt lat="45.13749" lon="6.09412">
        <ele>2047.8</ele>
        <time>2024-07-08T08:12:14Z</time>
      </trkpt>
      <trkpt lat="45.1375" lon="6.09413">
        <ele>2047.8</ele>
        <time>2024-07-08T08:12:15Z</time>
      </trkpt>
      <trkpt lat="45.13751" lon="6.09415">
        <ele>2047.8</ele>
        <time>2024-07-08T08:12:16Z</time>
      </trkpt>
      <trkpt lat="45.13752" lon="6.09416">
        <ele>2048.4</ele>
        <time>2024-07-08T08:12:17Z</time>
      </trkpt>
      <trkpt lat="45.13752" lon="6.09417">
        <ele>2048.4</ele>
        <time>2024-07-08T08:12:18Z</time>
      </trkpt>
      <trkpt lat="45.13752" lon="6.09418">
        <ele>2048.4</ele>
        <time>2024-07-08T08:12:19Z</time>
      </trkpt>
      <trkpt lat="45.13753" lon="6.09419">
        <ele>2048.1</ele>
        <time>2024-07-08T08:12:20Z</time>
      </trkpt>
      <trkpt lat="45.13754" lon="6.0942">
        <ele>2048.7</ele>
        <time>2024-07-08T08:12:21Z</time>
      </trkpt>
      <trkpt lat="45.13755" lon="6.09421">
        <ele>2048.7</ele>
        <time>2024-07-08T08:12:22Z</time>
      </trkpt>
      <trkpt lat="45.13755" lon="6.09422">
        <ele>2048.7</ele>
        <time>2024-07-08T08:12:23Z</time>
      </trkpt>
      <trkpt lat="45.13755" lon="6.09423">
        <ele>2048.7</ele>
        <time>2024-07-08T08:12:24Z</time>
      </trkpt>
      <trkpt lat="45.13756" lon="6.09424">
        <ele>2048.9</ele>
        <time>2024-07-08T08:12:25Z</time>
      </trkpt>
      <trkpt lat="45.13757" lon="6.09425">
        <ele>2048.9</ele>
        <time>2024-07-08T08:12:26Z</time>
      </trkpt>
      <trkpt lat="45.13757" lon="6.09426">
        <ele>2048.9</ele>
        <time>2024-07-08T08:12:27Z</time>
      </trkpt>
      <trkpt lat="45.13758" lon="6.09426">
        <ele>2048.9</ele>
        <time>2024-07-08T08:12:28Z</time>
      </trkpt>
      <trkpt lat="45.13759" lon="6.09427">
        <ele>2048.6</ele>
        <time>2024-07-08T08:12:29Z</time>
      </trkpt>
      <trkpt lat="45.13761" lon="6.09427">
        <ele>2048.6</ele>
        <time>2024-07-08T08:12:30Z</time>
      </trkpt>
      <trkpt lat="45.13762" lon="6.09427">
        <ele>2048.3</ele>
        <time>2024-07-08T08:12:31Z</time>
      </trkpt>
      <trkpt lat="45.13763" lon="6.09427">
        <ele>2048.3</ele>
        <time>2024-07-08T08:12:32Z</time>
      </trkpt>
      <trkpt lat="45.13763" lon="6.09426">
        <ele>2048.3</ele>
        <time>2024-07-08T08:12:33Z</time>
      </trkpt>
      <trkpt lat="45.13764" lon="6.09425">
        <ele>2048.3</ele>
        <time>2024-07-08T08:12:34Z</time>
      </trkpt>
      <trkpt lat="45.13765" lon="6.09424">
        <ele>2047.9</ele>
        <time>2024-07-08T08:12:35Z</time>
      </trkpt>
      <trkpt lat="45.13766" lon="6.09424">
        <ele>2047.9</ele>
        <time>2024-07-08T08:12:36Z</time>
      </trkpt>
      <trkpt lat="45.13767" lon="6.09423">
        <ele>2047.4</ele>
        <time>2024-07-08T08:12:37Z</time>
      </trkpt>
      <trkpt lat="45.13768" lon="6.09423">
        <ele>2047.1</ele>
        <time>2024-07-08T08:12:38Z</time>
      </trkpt>
      <trkpt lat="45.13769" lon="6.09422">
        <ele>2047.1</ele>
        <time>2024-07-08T08:12:39Z</time>
      </trkpt>
      <trkpt lat="45.1377" lon="6.09422">
        <ele>2047.1</ele>
        <time>2024-07-08T08:12:40Z</time>
      </trkpt>
      <trkpt lat="45.13771" lon="6.09422">
        <ele>2046.7</ele>
        <time>2024-07-08T08:12:41Z</time>
      </trkpt>
      <trkpt lat="45.13772" lon="6.09422">
        <ele>2046.7</ele>
        <time>2024-07-08T08:12:42Z</time>
      </trkpt>
      <trkpt lat="45.13774" lon="6.09422">
        <ele>2046.3</ele>
        <time>2024-07-08T08:12:43Z</time>
      </trkpt>
      <trkpt lat="45.13774" lon="6.09423">
        <ele>2046.3</ele>
        <time>2024-07-08T08:12:44Z</time>
      </trkpt>
      <trkpt lat="45.13776" lon="6.09423">
        <ele>2046.3</ele>
        <time>2024-07-08T08:12:45Z</time>
      </trkpt>
      <trkpt lat="45.13777" lon="6.09424">
        <ele>2046</ele>
        <time>2024-07-08T08:12:46Z</time>
      </trkpt>
      <trkpt lat="45.13777" lon="6.09424">
        <ele>2046.4</ele>
        <time>2024-07-08T08:12:47Z</time>
      </trkpt>
      <trkpt lat="45.13779" lon="6.09424">
        <ele>2046.4</ele>
        <time>2024-07-08T08:12:48Z</time>
      </trkpt>
      <trkpt lat="45.1378" lon="6.09425">
        <ele>2046.4</ele>
        <time>2024-07-08T08:12:49Z</time>
      </trkpt>
      <trkpt lat="45.13781" lon="6.09426">
        <ele>2046</ele>
        <time>2024-07-08T08:12:50Z</time>
      </trkpt>
      <trkpt lat="45.13782" lon="6.09427">
        <ele>2046</ele>
        <time>2024-07-08T08:12:51Z</time>
      </trkpt>
      <trkpt lat="45.13783" lon="6.09427">
        <ele>2045.6</ele>
        <time>2024-07-08T08:12:52Z</time>
      </trkpt>
      <trkpt lat="45.13784" lon="6.09427">
        <ele>2045.6</ele>
        <time>2024-07-08T08:12:53Z</time>
      </trkpt>
      <trkpt lat="45.13785" lon="6.09428">
        <ele>2045.6</ele>
        <time>2024-07-08T08:12:54Z</time>
      </trkpt>
      <trkpt lat="45.13786" lon="6.09428">
        <ele>2045.7</ele>
        <time>2024-07-08T08:12:55Z</time>
      </trkpt>
      <trkpt lat="45.13787" lon="6.0943">
        <ele>2045.7</ele>
        <time>2024-07-08T08:12:56Z</time>
      </trkpt>
      <trkpt lat="45.13788" lon="6.0943">
        <ele>2045.7</ele>
        <time>2024-07-08T08:12:57Z</time>
      </trkpt>
      <trkpt lat="45.13789" lon="6.09431">
        <ele>2045.7</ele>
        <time>2024-07-08T08:12:58Z</time>
      </trkpt>
      <trkpt lat="45.1379" lon="6.09432">
        <ele>2045.3</ele>
        <time>2024-07-08T08:12:59Z</time>
      </trkpt>
      <trkpt lat="45.13791" lon="6.09432">
        <ele>2045.3</ele>
        <time>2024-07-08T08:13:00Z</time>
      </trkpt>
      <trkpt lat="45.13792" lon="6.09433">
        <ele>2045.3</ele>
        <time>2024-07-08T08:13:01Z</time>
      </trkpt>
      <trkpt lat="45.13792" lon="6.09434">
        <ele>2045.3</ele>
        <time>2024-07-08T08:13:02Z</time>
      </trkpt>
      <trkpt lat="45.13794" lon="6.09435">
        <ele>2045.3</ele>
        <time>2024-07-08T08:13:03Z</time>
      </trkpt>
      <trkpt lat="45.13794" lon="6.09436">
        <ele>2045.3</ele>
        <time>2024-07-08T08:13:04Z</time>
      </trkpt>
      <trkpt lat="45.13795" lon="6.09437">
        <ele>2045.3</ele>
        <time>2024-07-08T08:13:05Z</time>
      </trkpt>
      <trkpt lat="45.13796" lon="6.09438">
        <ele>2045.3</ele>
        <time>2024-07-08T08:13:06Z</time>
      </trkpt>
      <trkpt lat="45.13797" lon="6.09439">
        <ele>2045.3</ele>
        <time>2024-07-08T08:13:07Z</time>
      </trkpt>
      <trkpt lat="45.13797" lon="6.0944">
        <ele>2045.3</ele>
        <time>2024-07-08T08:13:08Z</time>
      </trkpt>
      <trkpt lat="45.13799" lon="6.09442">
        <ele>2045.2</ele>
        <time>2024-07-08T08:13:09Z</time>
      </trkpt>
      <trkpt lat="45.13799" lon="6.09443">
        <ele>2045.2</ele>
        <time>2024-07-08T08:13:10Z</time>
      </trkpt>
      <trkpt lat="45.138" lon="6.09444">
        <ele>2045.2</ele>
        <time>2024-07-08T08:13:11Z</time>
      </trkpt>
      <trkpt lat="45.138" lon="6.09445">
        <ele>2045.4</ele>
        <time>2024-07-08T08:13:12Z</time>
      </trkpt>
      <trkpt lat="45.13801" lon="6.09446">
        <ele>2045.1</ele>
        <time>2024-07-08T08:13:13Z</time>
      </trkpt>
      <trkpt lat="45.13802" lon="6.09447">
        <ele>2045.1</ele>
        <time>2024-07-08T08:13:14Z</time>
      </trkpt>
      <trkpt lat="45.13803" lon="6.09448">
        <ele>2045.1</ele>
        <time>2024-07-08T08:13:15Z</time>
      </trkpt>
      <trkpt lat="45.13803" lon="6.0945">
        <ele>2045.3</ele>
        <time>2024-07-08T08:13:16Z</time>
      </trkpt>
      <trkpt lat="45.13804" lon="6.09451">
        <ele>2044.9</ele>
        <time>2024-07-08T08:13:17Z</time>
      </trkpt>
      <trkpt lat="45.13805" lon="6.09451">
        <ele>2044.9</ele>
        <time>2024-07-08T08:13:18Z</time>
      </trkpt>
      <trkpt lat="45.13806" lon="6.09452">
        <ele>2044.9</ele>
        <time>2024-07-08T08:13:19Z</time>
      </trkpt>
      <trkpt lat="45.13807" lon="6.09453">
        <ele>2044.6</ele>
        <time>2024-07-08T08:13:20Z</time>
      </trkpt>
      <trkpt lat="45.13808" lon="6.09454">
        <ele>2044.8</ele>
        <time>2024-07-08T08:13:21Z</time>
      </trkpt>
      <trkpt lat="45.13809" lon="6.09455">
        <ele>2044.8</ele>
        <time>2024-07-08T08:13:22Z</time>
      </trkpt>
      <trkpt lat="45.13809" lon="6.09456">
        <ele>2044.8</ele>
        <time>2024-07-08T08:13:23Z</time>
      </trkpt>
      <trkpt lat="45.13811" lon="6.09458">
        <ele>2044.7</ele>
        <time>2024-07-08T08:13:24Z</time>
      </trkpt>
      <trkpt lat="45.13812" lon="6.09459">
        <ele>2044.7</ele>
        <time>2024-07-08T08:13:25Z</time>
      </trkpt>
      <trkpt lat="45.13812" lon="6.0946">
        <ele>2044.6</ele>
        <time>2024-07-08T08:13:26Z</time>
      </trkpt>
      <trkpt lat="45.13813" lon="6.09461">
        <ele>2044.4</ele>
        <time>2024-07-08T08:13:27Z</time>
      </trkpt>
      <trkpt lat="45.13814" lon="6.09462">
        <ele>2044.4</ele>
        <time>2024-07-08T08:13:28Z</time>
      </trkpt>
      <trkpt lat="45.13814" lon="6.09463">
        <ele>2044.6</ele>
        <time>2024-07-08T08:13:29Z</time>
      </trkpt>
      <trkpt lat="45.13815" lon="6.09464">
        <ele>2044.5</ele>
        <time>2024-07-08T08:13:30Z</time>
      </trkpt>
      <trkpt lat="45.13816" lon="6.09466">
        <ele>2044.4</ele>
        <time>2024-07-08T08:13:31Z</time>
      </trkpt>
      <trkpt lat="45.13817" lon="6.09467">
        <ele>2044.4</ele>
        <time>2024-07-08T08:13:32Z</time>
      </trkpt>
      <trkpt lat="45.13817" lon="6.09467">
        <ele>2044.5</ele>
        <time>2024-07-08T08:13:33Z</time>
      </trkpt>
      <trkpt lat="45.13818" lon="6.09468">
        <ele>2044.5</ele>
        <time>2024-07-08T08:13:34Z</time>
      </trkpt>
      <trkpt lat="45.13819" lon="6.09469">
        <ele>2044.4</ele>
        <time>2024-07-08T08:13:35Z</time>
      </trkpt>
      <trkpt lat="45.1382" lon="6.0947">
        <ele>2044.4</ele>
        <time>2024-07-08T08:13:36Z</time>
      </trkpt>
      <trkpt lat="45.13821" lon="6.09471">
        <ele>2044.4</ele>
        <time>2024-07-08T08:13:37Z</time>
      </trkpt>
      <trkpt lat="45.13822" lon="6.09471">
        <ele>2044.4</ele>
        <time>2024-07-08T08:13:38Z</time>
      </trkpt>
      <trkpt lat="45.13823" lon="6.09471">
        <ele>2044.4</ele>
        <time>2024-07-08T08:13:39Z</time>
      </trkpt>
      <trkpt lat="45.13824" lon="6.09471">
        <ele>2044.4</ele>
        <time>2024-07-08T08:13:40Z</time>
      </trkpt>
      <trkpt lat="45.13825" lon="6.09471">
        <ele>2044.4</ele>
        <time>2024-07-08T08:13:41Z</time>
      </trkpt>
      <trkpt lat="45.13825" lon="6.09472">
        <ele>2044.3</ele>
        <time>2024-07-08T08:13:42Z</time>
      </trkpt>
      <trkpt lat="45.13826" lon="6.09471">
        <ele>2044.3</ele>
        <time>2024-07-08T08:13:43Z</time>
      </trkpt>
      <trkpt lat="45.13827" lon="6.0947">
        <ele>2044.3</ele>
        <time>2024-07-08T08:13:44Z</time>
      </trkpt>
      <trkpt lat="45.13828" lon="6.09469">
        <ele>2044.3</ele>
        <time>2024-07-08T08:13:45Z</time>
      </trkpt>
      <trkpt lat="45.13829" lon="6.09468">
        <ele>2044.3</ele>
        <time>2024-07-08T08:13:46Z</time>
      </trkpt>
      <trkpt lat="45.1383" lon="6.09467">
        <ele>2044.3</ele>
        <time>2024-07-08T08:13:47Z</time>
      </trkpt>
      <trkpt lat="45.13831" lon="6.09467">
        <ele>2044.3</ele>
        <time>2024-07-08T08:13:48Z</time>
      </trkpt>
      <trkpt lat="45.13832" lon="6.09466">
        <ele>2044.3</ele>
        <time>2024-07-08T08:13:49Z</time>
      </trkpt>
      <trkpt lat="45.13833" lon="6.09465">
        <ele>2044.3</ele>
        <time>2024-07-08T08:13:50Z</time>
      </trkpt>
      <trkpt lat="45.13833" lon="6.09463">
        <ele>2044.3</ele>
        <time>2024-07-08T08:13:51Z</time>
      </trkpt>
      <trkpt lat="45.13834" lon="6.09463">
        <ele>2044.3</ele>
        <time>2024-07-08T08:13:52Z</time>
      </trkpt>
      <trkpt lat="45.13835" lon="6.09462">
        <ele>2044.4</ele>
        <time>2024-07-08T08:13:53Z</time>
      </trkpt>
      <trkpt lat="45.13837" lon="6.09462">
        <ele>2044.4</ele>
        <time>2024-07-08T08:13:54Z</time>
      </trkpt>
      <trkpt lat="45.13838" lon="6.09462">
        <ele>2044.5</ele>
        <time>2024-07-08T08:13:55Z</time>
      </trkpt>
      <trkpt lat="45.13838" lon="6.09462">
        <ele>2044.5</ele>
        <time>2024-07-08T08:13:56Z</time>
      </trkpt>
      <trkpt lat="45.1384" lon="6.09461">
        <ele>2044.5</ele>
        <time>2024-07-08T08:13:57Z</time>
      </trkpt>
      <trkpt lat="45.13841" lon="6.09461">
        <ele>2044.7</ele>
        <time>2024-07-08T08:13:58Z</time>
      </trkpt>
      <trkpt lat="45.13841" lon="6.09461">
        <ele>2044.7</ele>
        <time>2024-07-08T08:13:59Z</time>
      </trkpt>
      <trkpt lat="45.13842" lon="6.09462">
        <ele>2044.7</ele>
        <time>2024-07-08T08:14:00Z</time>
      </trkpt>
      <trkpt lat="45.13843" lon="6.09462">
        <ele>2044.8</ele>
        <time>2024-07-08T08:14:01Z</time>
      </trkpt>
      <trkpt lat="45.13844" lon="6.09462">
        <ele>2044.8</ele>
        <time>2024-07-08T08:14:02Z</time>
      </trkpt>
      <trkpt lat="45.13845" lon="6.09462">
        <ele>2044.8</ele>
        <time>2024-07-08T08:14:03Z</time>
      </trkpt>
      <trkpt lat="45.13846" lon="6.09462">
        <ele>2044.8</ele>
        <time>2024-07-08T08:14:04Z</time>
      </trkpt>
      <trkpt lat="45.13847" lon="6.09461">
        <ele>2045</ele>
        <time>2024-07-08T08:14:05Z</time>
      </trkpt>
      <trkpt lat="45.13848" lon="6.09461">
        <ele>2045</ele>
        <time>2024-07-08T08:14:06Z</time>
      </trkpt>
      <trkpt lat="45.13849" lon="6.09459">
        <ele>2045.1</ele>
        <time>2024-07-08T08:14:07Z</time>
      </trkpt>
      <trkpt lat="45.1385" lon="6.09459">
        <ele>2045.1</ele>
        <time>2024-07-08T08:14:08Z</time>
      </trkpt>
      <trkpt lat="45.13851" lon="6.09458">
        <ele>2045.1</ele>
        <time>2024-07-08T08:14:09Z</time>
      </trkpt>
      <trkpt lat="45.13852" lon="6.09458">
        <ele>2045.2</ele>
        <time>2024-07-08T08:14:10Z</time>
      </trkpt>
      <trkpt lat="45.13853" lon="6.09458">
        <ele>2045.3</ele>
        <time>2024-07-08T08:14:11Z</time>
      </trkpt>
      <trkpt lat="45.13854" lon="6.09458">
        <ele>2045.3</ele>
        <time>2024-07-08T08:14:12Z</time>
      </trkpt>
      <trkpt lat="45.13854" lon="6.09458">
        <ele>2045.3</ele>
        <time>2024-07-08T08:14:13Z</time>
      </trkpt>
      <trkpt lat="45.13856" lon="6.09459">
        <ele>2045.1</ele>
        <time>2024-07-08T08:14:14Z</time>
      </trkpt>
      <trkpt lat="45.13857" lon="6.09459">
        <ele>2045.1</ele>
        <time>2024-07-08T08:14:15Z</time>
      </trkpt>
      <trkpt lat="45.13858" lon="6.09459">
        <ele>2045.1</ele>
        <time>2024-07-08T08:14:16Z</time>
      </trkpt>
      <trkpt lat="45.13859" lon="6.09459">
        <ele>2045.1</ele>
        <time>2024-07-08T08:14:17Z</time>
      </trkpt>
      <trkpt lat="45.1386" lon="6.0946">
        <ele>2045</ele>
        <time>2024-07-08T08:14:18Z</time>
      </trkpt>
      <trkpt lat="45.13861" lon="6.0946">
        <ele>2045</ele>
        <time>2024-07-08T08:14:19Z</time>
      </trkpt>
      <trkpt lat="45.13862" lon="6.09461">
        <ele>2044.9</ele>
        <time>2024-07-08T08:14:20Z</time>
      </trkpt>
      <trkpt lat="45.13863" lon="6.09462">
        <ele>2044.9</ele>
        <time>2024-07-08T08:14:21Z</time>
      </trkpt>
      <trkpt lat="45.13864" lon="6.09462">
        <ele>2044.9</ele>
        <time>2024-07-08T08:14:22Z</time>
      </trkpt>
      <trkpt lat="45.13865" lon="6.09463">
        <ele>2044.5</ele>
        <time>2024-07-08T08:14:23Z</time>
      </trkpt>
      <trkpt lat="45.13866" lon="6.09463">
        <ele>2044.5</ele>
        <time>2024-07-08T08:14:24Z</time>
      </trkpt>
      <trkpt lat="45.13867" lon="6.09464">
        <ele>2044.5</ele>
        <time>2024-07-08T08:14:25Z</time>
      </trkpt>
      <trkpt lat="45.13868" lon="6.09465">
        <ele>2044.2</ele>
        <time>2024-07-08T08:14:26Z</time>
      </trkpt>
      <trkpt lat="45.13869" lon="6.09465">
        <ele>2044.2</ele>
        <time>2024-07-08T08:14:27Z</time>
      </trkpt>
      <trkpt lat="45.1387" lon="6.09466">
        <ele>2044.2</ele>
        <time>2024-07-08T08:14:28Z</time>
      </trkpt>
      <trkpt lat="45.1387" lon="6.09467">
        <ele>2044.2</ele>
        <time>2024-07-08T08:14:29Z</time>
      </trkpt>
      <trkpt lat="45.13871" lon="6.09467">
        <ele>2043.7</ele>
        <time>2024-07-08T08:14:30Z</time>
      </trkpt>
      <trkpt lat="45.13872" lon="6.09468">
        <ele>2043.7</ele>
        <time>2024-07-08T08:14:31Z</time>
      </trkpt>
      <trkpt lat="45.13873" lon="6.09469">
        <ele>2043.7</ele>
        <time>2024-07-08T08:14:32Z</time>
      </trkpt>
      <trkpt lat="45.13874" lon="6.09469">
        <ele>2043.3</ele>
        <time>2024-07-08T08:14:33Z</time>
      </trkpt>
      <trkpt lat="45.13875" lon="6.0947">
        <ele>2043.3</ele>
        <time>2024-07-08T08:14:34Z</time>
      </trkpt>
      <trkpt lat="45.13876" lon="6.0947">
        <ele>2043.3</ele>
        <time>2024-07-08T08:14:35Z</time>
      </trkpt>
      <trkpt lat="45.13877" lon="6.0947">
        <ele>2042.8</ele>
        <time>2024-07-08T08:14:36Z</time>
      </trkpt>
      <trkpt lat="45.13878" lon="6.09471">
        <ele>2042.8</ele>
        <time>2024-07-08T08:14:37Z</time>
      </trkpt>
      <trkpt lat="45.13879" lon="6.09471">
        <ele>2042.6</ele>
        <time>2024-07-08T08:14:38Z</time>
      </trkpt>
      <trkpt lat="45.13881" lon="6.09471">
        <ele>2042.1</ele>
        <time>2024-07-08T08:14:39Z</time>
      </trkpt>
      <trkpt lat="45.13882" lon="6.09471">
        <ele>2042.1</ele>
        <time>2024-07-08T08:14:40Z</time>
      </trkpt>
      <trkpt lat="45.13884" lon="6.09471">
        <ele>2041.5</ele>
        <time>2024-07-08T08:14:41Z</time>
      </trkpt>
      <trkpt lat="45.13885" lon="6.09471">
        <ele>2041.5</ele>
        <time>2024-07-08T08:14:42Z</time>
      </trkpt>
      <trkpt lat="45.13885" lon="6.09472">
        <ele>2041.5</ele>
        <time>2024-07-08T08:14:43Z</time>
      </trkpt>
      <trkpt lat="45.13888" lon="6.09473">
        <ele>2040.9</ele>
        <time>2024-07-08T08:14:44Z</time>
      </trkpt>
      <trkpt lat="45.13888" lon="6.09473">
        <ele>2040.9</ele>
        <time>2024-07-08T08:14:45Z</time>
      </trkpt>
      <trkpt lat="45.13889" lon="6.09474">
        <ele>2040.3</ele>
        <time>2024-07-08T08:14:46Z</time>
      </trkpt>
      <trkpt lat="45.1389" lon="6.09474">
        <ele>2040.3</ele>
        <time>2024-07-08T08:14:47Z</time>
      </trkpt>
      <trkpt lat="45.13891" lon="6.09475">
        <ele>2040.2</ele>
        <time>2024-07-08T08:14:48Z</time>
      </trkpt>
      <trkpt lat="45.13891" lon="6.09477">
        <ele>2040.2</ele>
        <time>2024-07-08T08:14:49Z</time>
      </trkpt>
      <trkpt lat="45.13891" lon="6.09479">
        <ele>2040.1</ele>
        <time>2024-07-08T08:14:50Z</time>
      </trkpt>
      <trkpt lat="45.1389" lon="6.09481">
        <ele>2040.1</ele>
        <time>2024-07-08T08:14:51Z</time>
      </trkpt>
      <trkpt lat="45.1389" lon="6.09482">
        <ele>2040</ele>
        <time>2024-07-08T08:14:52Z</time>
      </trkpt>
      <trkpt lat="45.1389" lon="6.09484">
        <ele>2040</ele>
        <time>2024-07-08T08:14:53Z</time>
      </trkpt>
      <trkpt lat="45.1389" lon="6.09486">
        <ele>2040</ele>
        <time>2024-07-08T08:14:54Z</time>
      </trkpt>
      <trkpt lat="45.1389" lon="6.09487">
        <ele>2039.9</ele>
        <time>2024-07-08T08:14:55Z</time>
      </trkpt>
      <trkpt lat="45.1389" lon="6.09489">
        <ele>2039.9</ele>
        <time>2024-07-08T08:14:56Z</time>
      </trkpt>
      <trkpt lat="45.1389" lon="6.0949">
        <ele>2039.9</ele>
        <time>2024-07-08T08:14:57Z</time>
      </trkpt>
      <trkpt lat="45.1389" lon="6.09491">
        <ele>2039.8</ele>
        <time>2024-07-08T08:14:58Z</time>
      </trkpt>
      <trkpt lat="45.1389" lon="6.09493">
        <ele>2039.8</ele>
        <time>2024-07-08T08:14:59Z</time>
      </trkpt>
      <trkpt lat="45.13889" lon="6.09493">
        <ele>2039.8</ele>
        <time>2024-07-08T08:15:00Z</time>
      </trkpt>
      <trkpt lat="45.13889" lon="6.09494">
        <ele>2039.8</ele>
        <time>2024-07-08T08:15:01Z</time>
      </trkpt>
      <trkpt lat="45.13888" lon="6.09495">
        <ele>2039.7</ele>
        <time>2024-07-08T08:15:02Z</time>
      </trkpt>
      <trkpt lat="45.13888" lon="6.09497">
        <ele>2039.7</ele>
        <time>2024-07-08T08:15:03Z</time>
      </trkpt>
      <trkpt lat="45.13888" lon="6.09498">
        <ele>2039.7</ele>
        <time>2024-07-08T08:15:04Z</time>
      </trkpt>
      <trkpt lat="45.13888" lon="6.09499">
        <ele>2039.7</ele>
        <time>2024-07-08T08:15:05Z</time>
      </trkpt>
      <trkpt lat="45.13887" lon="6.095">
        <ele>2039.6</ele>
        <time>2024-07-08T08:15:06Z</time>
      </trkpt>
      <trkpt lat="45.13887" lon="6.09501">
        <ele>2039.6</ele>
        <time>2024-07-08T08:15:07Z</time>
      </trkpt>
      <trkpt lat="45.13887" lon="6.09502">
        <ele>2039.6</ele>
        <time>2024-07-08T08:15:08Z</time>
      </trkpt>
      <trkpt lat="45.13886" lon="6.09504">
        <ele>2039.6</ele>
        <time>2024-07-08T08:15:09Z</time>
      </trkpt>
      <trkpt lat="45.13886" lon="6.09505">
        <ele>2039.6</ele>
        <time>2024-07-08T08:15:10Z</time>
      </trkpt>
      <trkpt lat="45.13885" lon="6.09506">
        <ele>2039.5</ele>
        <time>2024-07-08T08:15:11Z</time>
      </trkpt>
      <trkpt lat="45.13885" lon="6.09508">
        <ele>2039.5</ele>
        <time>2024-07-08T08:15:12Z</time>
      </trkpt>
      <trkpt lat="45.13885" lon="6.09509">
        <ele>2039.5</ele>
        <time>2024-07-08T08:15:13Z</time>
      </trkpt>
      <trkpt lat="45.13884" lon="6.09511">
        <ele>2039.5</ele>
        <time>2024-07-08T08:15:14Z</time>
      </trkpt>
      <trkpt lat="45.13883" lon="6.09513">
        <ele>2039.4</ele>
        <time>2024-07-08T08:15:15Z</time>
      </trkpt>
      <trkpt lat="45.13883" lon="6.09514">
        <ele>2039.4</ele>
        <time>2024-07-08T08:15:16Z</time>
      </trkpt>
      <trkpt lat="45.13882" lon="6.09515">
        <ele>2039.4</ele>
        <time>2024-07-08T08:15:17Z</time>
      </trkpt>
      <trkpt lat="45.13882" lon="6.09516">
        <ele>2039.4</ele>
        <time>2024-07-08T08:15:18Z</time>
      </trkpt>
      <trkpt lat="45.13881" lon="6.09518">
        <ele>2039.4</ele>
        <time>2024-07-08T08:15:19Z</time>
      </trkpt>
      <trkpt lat="45.13881" lon="6.09519">
        <ele>2039.3</ele>
        <time>2024-07-08T08:15:20Z</time>
      </trkpt>
      <trkpt lat="45.1388" lon="6.0952">
        <ele>2039.3</ele>
        <time>2024-07-08T08:15:21Z</time>
      </trkpt>
      <trkpt lat="45.13879" lon="6.09522">
        <ele>2039.3</ele>
        <time>2024-07-08T08:15:22Z</time>
      </trkpt>
      <trkpt lat="45.13878" lon="6.09523">
        <ele>2039.3</ele>
        <time>2024-07-08T08:15:23Z</time>
      </trkpt>
      <trkpt lat="45.13878" lon="6.09524">
        <ele>2039.3</ele>
        <time>2024-07-08T08:15:24Z</time>
      </trkpt>
      <trkpt lat="45.13877" lon="6.09525">
        <ele>2039.3</ele>
        <time>2024-07-08T08:15:25Z</time>
      </trkpt>
      <trkpt lat="45.13877" lon="6.09526">
        <ele>2039.3</ele>
        <time>2024-07-08T08:15:26Z</time>
      </trkpt>
      <trkpt lat="45.13876" lon="6.09528">
        <ele>2039.3</ele>
        <time>2024-07-08T08:15:27Z</time>
      </trkpt>
      <trkpt lat="45.13876" lon="6.09529">
        <ele>2039.2</ele>
        <time>2024-07-08T08:15:28Z</time>
      </trkpt>
      <trkpt lat="45.13875" lon="6.0953">
        <ele>2039.2</ele>
        <time>2024-07-08T08:15:29Z</time>
      </trkpt>
      <trkpt lat="45.13874" lon="6.09533">
        <ele>2039.2</ele>
        <time>2024-07-08T08:15:30Z</time>
      </trkpt>
      <trkpt lat="45.13874" lon="6.09534">
        <ele>2039.2</ele>
        <time>2024-07-08T08:15:31Z</time>
      </trkpt>
      <trkpt lat="45.13874" lon="6.09536">
        <ele>2039.2</ele>
        <time>2024-07-08T08:15:32Z</time>
      </trkpt>
      <trkpt lat="45.13873" lon="6.09538">
        <ele>2039.2</ele>
        <time>2024-07-08T08:15:33Z</time>
      </trkpt>
      <trkpt lat="45.13872" lon="6.09539">
        <ele>2039.3</ele>
        <time>2024-07-08T08:15:34Z</time>
      </trkpt>
      <trkpt lat="45.13872" lon="6.0954">
        <ele>2039.3</ele>
        <time>2024-07-08T08:15:35Z</time>
      </trkpt>
      <trkpt lat="45.13871" lon="6.09542">
        <ele>2039.3</ele>
        <time>2024-07-08T08:15:36Z</time>
      </trkpt>
      <trkpt lat="45.13871" lon="6.09543">
        <ele>2039.3</ele>
        <time>2024-07-08T08:15:37Z</time>
      </trkpt>
      <trkpt lat="45.1387" lon="6.09545">
        <ele>2039.3</ele>
        <time>2024-07-08T08:15:38Z</time>
      </trkpt>
      <trkpt lat="45.1387" lon="6.09546">
        <ele>2039.3</ele>
        <time>2024-07-08T08:15:39Z</time>
      </trkpt>
      <trkpt lat="45.13869" lon="6.09548">
        <ele>2039.4</ele>
        <time>2024-07-08T08:15:40Z</time>
      </trkpt>
      <trkpt lat="45.13869" lon="6.09549">
        <ele>2039.5</ele>
        <time>2024-07-08T08:15:41Z</time>
      </trkpt>
      <trkpt lat="45.13868" lon="6.09551">
        <ele>2039.7</ele>
        <time>2024-07-08T08:15:42Z</time>
      </trkpt>
      <trkpt lat="45.13868" lon="6.09551">
        <ele>2039.7</ele>
        <time>2024-07-08T08:15:43Z</time>
      </trkpt>
      <trkpt lat="45.13869" lon="6.09551">
        <ele>2039.8</ele>
        <time>2024-07-08T08:15:44Z</time>
      </trkpt>
      <trkpt lat="45.13869" lon="6.09551">
        <ele>2039.8</ele>
        <time>2024-07-08T08:15:45Z</time>
      </trkpt>
      <trkpt lat="45.13868" lon="6.09552">
        <ele>2039.8</ele>
        <time>2024-07-08T08:15:46Z</time>
      </trkpt>
      <trkpt lat="45.13868" lon="6.09553">
        <ele>2039.9</ele>
        <time>2024-07-08T08:15:47Z</time>
      </trkpt>
      <trkpt lat="45.13869" lon="6.09554">
        <ele>2040</ele>
        <time>2024-07-08T08:15:48Z</time>
      </trkpt>
      <trkpt lat="45.13869" lon="6.09554">
        <ele>2040.1</ele>
        <time>2024-07-08T08:15:49Z</time>
      </trkpt>
      <trkpt lat="45.13869" lon="6.09555">
        <ele>2040.1</ele>
        <time>2024-07-08T08:15:50Z</time>
      </trkpt>
      <trkpt lat="45.1387" lon="6.09555">
        <ele>2040.2</ele>
        <time>2024-07-08T08:15:51Z</time>
      </trkpt>
      <trkpt lat="45.13869" lon="6.09556">
        <ele>2040.2</ele>
        <time>2024-07-08T08:15:52Z</time>
      </trkpt>
      <trkpt lat="45.13869" lon="6.09556">
        <ele>2040.2</ele>
        <time>2024-07-08T08:15:53Z</time>
      </trkpt>
      <trkpt lat="45.1387" lon="6.09556">
        <ele>2040.2</ele>
        <time>2024-07-08T08:15:54Z</time>
      </trkpt>
      <trkpt lat="45.1387" lon="6.09556">
        <ele>2040.2</ele>
        <time>2024-07-08T08:15:55Z</time>
      </trkpt>
      <trkpt lat="45.1387" lon="6.09556">
        <ele>2040.2</ele>
        <time>2024-07-08T08:15:56Z</time>
      </trkpt>
      <trkpt lat="45.1387" lon="6.09556">
        <ele>2040.3</ele>
        <time>2024-07-08T08:15:57Z</time>
      </trkpt>
      <trkpt lat="45.1387" lon="6.09556">
        <ele>2040.3</ele>
        <time>2024-07-08T08:15:58Z</time>
      </trkpt>
      <trkpt lat="45.1387" lon="6.09556">
        <ele>2040.3</ele>
        <time>2024-07-08T08:15:59Z</time>
      </trkpt>
      <trkpt lat="45.1387" lon="6.09556">
        <ele>2040.3</ele>
        <time>2024-07-08T08:16:00Z</time>
      </trkpt>
      <trkpt lat="45.1387" lon="6.09556">
        <ele>2040.3</ele>
        <time>2024-07-08T08:16:01Z</time>
      </trkpt>
      <trkpt lat="45.1387" lon="6.09557">
        <ele>2040.3</ele>
        <time>2024-07-08T08:16:02Z</time>
      </trkpt>
      <trkpt lat="45.1387" lon="6.09557">
        <ele>2040.3</ele>
        <time>2024-07-08T08:16:03Z</time>
      </trkpt>
      <trkpt lat="45.1387" lon="6.09557">
        <ele>2040.3</ele>
        <time>2024-07-08T08:16:04Z</time>
      </trkpt>
      <trkpt lat="45.1387" lon="6.09556">
        <ele>2040.3</ele>
        <time>2024-07-08T08:16:05Z</time>
      </trkpt>
      <trkpt lat="45.1387" lon="6.09556">
        <ele>2040.3</ele>
        <time>2024-07-08T08:16:06Z</time>
      </trkpt>
      <trkpt lat="45.1387" lon="6.09556">
        <ele>2040.4</ele>
        <time>2024-07-08T08:16:07Z</time>
      </trkpt>
      <trkpt lat="45.1387" lon="6.09556">
        <ele>2040.4</ele>
        <time>2024-07-08T08:16:08Z</time>
      </trkpt>
      <trkpt lat="45.1387" lon="6.09556">
        <ele>2040.4</ele>
        <time>2024-07-08T08:16:09Z</time>
      </trkpt>
      <trkpt lat="45.1387" lon="6.09556">
        <ele>2040.4</ele>
        <time>2024-07-08T08:16:10Z</time>
      </trkpt>
      <trkpt lat="45.1387" lon="6.09556">
        <ele>2040.4</ele>
        <time>2024-07-08T08:16:11Z</time>
      </trkpt>
      <trkpt lat="45.1387" lon="6.09556">
        <ele>2040.4</ele>
        <time>2024-07-08T08:16:12Z</time>
      </trkpt>
      <trkpt lat="45.1387" lon="6.09556">
        <ele>2040.4</ele>
        <time>2024-07-08T08:16:13Z</time>
      </trkpt>
      <trkpt lat="45.13869" lon="6.09557">
        <ele>2040.5</ele>
        <time>2024-07-08T08:16:14Z</time>
      </trkpt>
      <trkpt lat="45.13868" lon="6.09558">
        <ele>2040.6</ele>
        <time>2024-07-08T08:16:15Z</time>
      </trkpt>
      <trkpt lat="45.13869" lon="6.0956">
        <ele>2040.8</ele>
        <time>2024-07-08T08:16:16Z</time>
      </trkpt>
      <trkpt lat="45.13872" lon="6.09563">
        <ele>2041.2</ele>
        <time>2024-07-08T08:16:18Z</time>
      </trkpt>
      <trkpt lat="45.13871" lon="6.09565">
        <ele>2041.4</ele>
        <time>2024-07-08T08:16:19Z</time>
      </trkpt>
      <trkpt lat="45.13871" lon="6.09566">
        <ele>2041.5</ele>
        <time>2024-07-08T08:16:20Z</time>
      </trkpt>
      <trkpt lat="45.1387" lon="6.09567">
        <ele>2041.6</ele>
        <time>2024-07-08T08:16:21Z</time>
      </trkpt>
      <trkpt lat="45.13869" lon="6.09569">
        <ele>2041.7</ele>
        <time>2024-07-08T08:16:22Z</time>
      </trkpt>
      <trkpt lat="45.13869" lon="6.0957">
        <ele>2041.8</ele>
        <time>2024-07-08T08:16:23Z</time>
      </trkpt>
      <trkpt lat="45.13869" lon="6.09571">
        <ele>2041.9</ele>
        <time>2024-07-08T08:16:24Z</time>
      </trkpt>
      <trkpt lat="45.13868" lon="6.09573">
        <ele>2042</ele>
        <time>2024-07-08T08:16:25Z</time>
      </trkpt>
      <trkpt lat="45.13868" lon="6.09574">
        <ele>2042.1</ele>
        <time>2024-07-08T08:16:26Z</time>
      </trkpt>
      <trkpt lat="45.13868" lon="6.09575">
        <ele>2042.2</ele>
        <time>2024-07-08T08:16:27Z</time>
      </trkpt>
      <trkpt lat="45.13868" lon="6.09576">
        <ele>2042.3</ele>
        <time>2024-07-08T08:16:28Z</time>
      </trkpt>
      <trkpt lat="45.13868" lon="6.09577">
        <ele>2042.3</ele>
        <time>2024-07-08T08:16:29Z</time>
      </trkpt>
      <trkpt lat="45.13867" lon="6.09578">
        <ele>2042.4</ele>
        <time>2024-07-08T08:16:30Z</time>
      </trkpt>
      <trkpt lat="45.13867" lon="6.09579">
        <ele>2042.5</ele>
        <time>2024-07-08T08:16:31Z</time>
      </trkpt>
      <trkpt lat="45.13866" lon="6.09581">
        <ele>2042.6</ele>
        <time>2024-07-08T08:16:32Z</time>
      </trkpt>
      <trkpt lat="45.13866" lon="6.09582">
        <ele>2042.6</ele>
        <time>2024-07-08T08:16:33Z</time>
      </trkpt>
      <trkpt lat="45.13865" lon="6.09583">
        <ele>2042.7</ele>
        <time>2024-07-08T08:16:34Z</time>
      </trkpt>
      <trkpt lat="45.13865" lon="6.09584">
        <ele>2042.8</ele>
        <time>2024-07-08T08:16:35Z</time>
      </trkpt>
      <trkpt lat="45.13865" lon="6.09585">
        <ele>2042.8</ele>
        <time>2024-07-08T08:16:36Z</time>
      </trkpt>
      <trkpt lat="45.13865" lon="6.09586">
        <ele>2042.9</ele>
        <time>2024-07-08T08:16:37Z</time>
      </trkpt>
      <trkpt lat="45.13865" lon="6.09587">
        <ele>2043</ele>
        <time>2024-07-08T08:16:38Z</time>
      </trkpt>
      <trkpt lat="45.13865" lon="6.09588">
        <ele>2043</ele>
        <time>2024-07-08T08:16:39Z</time>
      </trkpt>
      <trkpt lat="45.13866" lon="6.09589">
        <ele>2043.1</ele>
        <time>2024-07-08T08:16:40Z</time>
      </trkpt>
      <trkpt lat="45.13866" lon="6.0959">
        <ele>2043.2</ele>
        <time>2024-07-08T08:16:41Z</time>
      </trkpt>
      <trkpt lat="45.13867" lon="6.09591">
        <ele>2043.2</ele>
        <time>2024-07-08T08:16:42Z</time>
      </trkpt>
      <trkpt lat="45.13867" lon="6.09592">
        <ele>2043.3</ele>
        <time>2024-07-08T08:16:43Z</time>
      </trkpt>
      <trkpt lat="45.13868" lon="6.09592">
        <ele>2043.3</ele>
        <time>2024-07-08T08:16:44Z</time>
      </trkpt>
      <trkpt lat="45.13869" lon="6.09593">
        <ele>2043.4</ele>
        <time>2024-07-08T08:16:45Z</time>
      </trkpt>
      <trkpt lat="45.13869" lon="6.09594">
        <ele>2043.5</ele>
        <time>2024-07-08T08:16:46Z</time>
      </trkpt>
      <trkpt lat="45.1387" lon="6.09595">
        <ele>2043.6</ele>
        <time>2024-07-08T08:16:47Z</time>
      </trkpt>
      <trkpt lat="45.13871" lon="6.09595">
        <ele>2043.6</ele>
        <time>2024-07-08T08:16:48Z</time>
      </trkpt>
      <trkpt lat="45.13871" lon="6.09596">
        <ele>2043.7</ele>
        <time>2024-07-08T08:16:49Z</time>
      </trkpt>
      <trkpt lat="45.13872" lon="6.09597">
        <ele>2043.8</ele>
        <time>2024-07-08T08:16:50Z</time>
      </trkpt>
      <trkpt lat="45.13873" lon="6.09598">
        <ele>2043.8</ele>
        <time>2024-07-08T08:16:51Z</time>
      </trkpt>
      <trkpt lat="45.13874" lon="6.09599">
        <ele>2044</ele>
        <time>2024-07-08T08:16:52Z</time>
      </trkpt>
      <trkpt lat="45.13875" lon="6.09599">
        <ele>2044</ele>
        <time>2024-07-08T08:16:53Z</time>
      </trkpt>
      <trkpt lat="45.13876" lon="6.096">
        <ele>2044.1</ele>
        <time>2024-07-08T08:16:54Z</time>
      </trkpt>
      <trkpt lat="45.13876" lon="6.096">
        <ele>2044.2</ele>
        <time>2024-07-08T08:16:55Z</time>
      </trkpt>
      <trkpt lat="45.13877" lon="6.096">
        <ele>2044.3</ele>
        <time>2024-07-08T08:16:56Z</time>
      </trkpt>
      <trkpt lat="45.13878" lon="6.09601">
        <ele>2044.3</ele>
        <time>2024-07-08T08:16:57Z</time>
      </trkpt>
      <trkpt lat="45.13879" lon="6.09601">
        <ele>2044.4</ele>
        <time>2024-07-08T08:16:58Z</time>
      </trkpt>
      <trkpt lat="45.1388" lon="6.09602">
        <ele>2044.5</ele>
        <time>2024-07-08T08:16:59Z</time>
      </trkpt>
      <trkpt lat="45.1388" lon="6.09602">
        <ele>2044.5</ele>
        <time>2024-07-08T08:17:00Z</time>
      </trkpt>
      <trkpt lat="45.13881" lon="6.09603">
        <ele>2044.6</ele>
        <time>2024-07-08T08:17:01Z</time>
      </trkpt>
      <trkpt lat="45.13882" lon="6.09604">
        <ele>2044.7</ele>
        <time>2024-07-08T08:17:02Z</time>
      </trkpt>
      <trkpt lat="45.13883" lon="6.09604">
        <ele>2044.8</ele>
        <time>2024-07-08T08:17:03Z</time>
      </trkpt>
      <trkpt lat="45.13883" lon="6.09604">
        <ele>2044.9</ele>
        <time>2024-07-08T08:17:04Z</time>
      </trkpt>
      <trkpt lat="45.13884" lon="6.09605">
        <ele>2044.9</ele>
        <time>2024-07-08T08:17:05Z</time>
      </trkpt>
      <trkpt lat="45.13885" lon="6.09605">
        <ele>2045</ele>
        <time>2024-07-08T08:17:06Z</time>
      </trkpt>
      <trkpt lat="45.13886" lon="6.09605">
        <ele>2045.1</ele>
        <time>2024-07-08T08:17:07Z</time>
      </trkpt>
      <trkpt lat="45.13887" lon="6.09605">
        <ele>2045.2</ele>
        <time>2024-07-08T08:17:08Z</time>
      </trkpt>
      <trkpt lat="45.13888" lon="6.09606">
        <ele>2045.3</ele>
        <time>2024-07-08T08:17:09Z</time>
      </trkpt>
      <trkpt lat="45.13889" lon="6.09606">
        <ele>2045.3</ele>
        <time>2024-07-08T08:17:10Z</time>
      </trkpt>
      <trkpt lat="45.13889" lon="6.09606">
        <ele>2045.4</ele>
        <time>2024-07-08T08:17:11Z</time>
      </trkpt>
      <trkpt lat="45.1389" lon="6.09606">
        <ele>2045.5</ele>
        <time>2024-07-08T08:17:12Z</time>
      </trkpt>
      <trkpt lat="45.13891" lon="6.09606">
        <ele>2045.6</ele>
        <time>2024-07-08T08:17:13Z</time>
      </trkpt>
      <trkpt lat="45.13892" lon="6.09606">
        <ele>2045.7</ele>
        <time>2024-07-08T08:17:14Z</time>
      </trkpt>
      <trkpt lat="45.13893" lon="6.09606">
        <ele>2045.8</ele>
        <time>2024-07-08T08:17:15Z</time>
      </trkpt>
      <trkpt lat="45.13893" lon="6.09606">
        <ele>2045.8</ele>
        <time>2024-07-08T08:17:16Z</time>
      </trkpt>
      <trkpt lat="45.13894" lon="6.09606">
        <ele>2045.9</ele>
        <time>2024-07-08T08:17:17Z</time>
      </trkpt>
      <trkpt lat="45.13894" lon="6.09607">
        <ele>2046</ele>
        <time>2024-07-08T08:17:18Z</time>
      </trkpt>
      <trkpt lat="45.13895" lon="6.09607">
        <ele>2046</ele>
        <time>2024-07-08T08:17:19Z</time>
      </trkpt>
      <trkpt lat="45.13896" lon="6.09607">
        <ele>2046.1</ele>
        <time>2024-07-08T08:17:20Z</time>
      </trkpt>
      <trkpt lat="45.13897" lon="6.09607">
        <ele>2046.2</ele>
        <time>2024-07-08T08:17:21Z</time>
      </trkpt>
      <trkpt lat="45.13898" lon="6.09607">
        <ele>2046.3</ele>
        <time>2024-07-08T08:17:22Z</time>
      </trkpt>
      <trkpt lat="45.13899" lon="6.09607">
        <ele>2046.4</ele>
        <time>2024-07-08T08:17:23Z</time>
      </trkpt>
      <trkpt lat="45.13899" lon="6.09608">
        <ele>2046.5</ele>
        <time>2024-07-08T08:17:24Z</time>
      </trkpt>
      <trkpt lat="45.139" lon="6.09608">
        <ele>2046.6</ele>
        <time>2024-07-08T08:17:25Z</time>
      </trkpt>
      <trkpt lat="45.13901" lon="6.09608">
        <ele>2046.7</ele>
        <time>2024-07-08T08:17:26Z</time>
      </trkpt>
      <trkpt lat="45.13903" lon="6.09608">
        <ele>2046.9</ele>
        <time>2024-07-08T08:17:27Z</time>
      </trkpt>
      <trkpt lat="45.13903" lon="6.09608">
        <ele>2046.9</ele>
        <time>2024-07-08T08:17:28Z</time>
      </trkpt>
      <trkpt lat="45.13904" lon="6.09608">
        <ele>2047</ele>
        <time>2024-07-08T08:17:29Z</time>
      </trkpt>
      <trkpt lat="45.13905" lon="6.09608">
        <ele>2047.1</ele>
        <time>2024-07-08T08:17:30Z</time>
      </trkpt>
      <trkpt lat="45.13906" lon="6.09608">
        <ele>2047.3</ele>
        <time>2024-07-08T08:17:31Z</time>
      </trkpt>
      <trkpt lat="45.13908" lon="6.09608">
        <ele>2047.4</ele>
        <time>2024-07-08T08:17:32Z</time>
      </trkpt>
      <trkpt lat="45.13908" lon="6.09608">
        <ele>2047.4</ele>
        <time>2024-07-08T08:17:33Z</time>
      </trkpt>
      <trkpt lat="45.13909" lon="6.09608">
        <ele>2047.5</ele>
        <time>2024-07-08T08:17:34Z</time>
      </trkpt>
      <trkpt lat="45.1391" lon="6.09608">
        <ele>2047.7</ele>
        <time>2024-07-08T08:17:35Z</time>
      </trkpt>
      <trkpt lat="45.13911" lon="6.09609">
        <ele>2047.8</ele>
        <time>2024-07-08T08:17:36Z</time>
      </trkpt>
      <trkpt lat="45.13912" lon="6.09609">
        <ele>2047.9</ele>
        <time>2024-07-08T08:17:37Z</time>
      </trkpt>
      <trkpt lat="45.13913" lon="6.09609">
        <ele>2048</ele>
        <time>2024-07-08T08:17:38Z</time>
      </trkpt>
      <trkpt lat="45.13914" lon="6.09609">
        <ele>2048.1</ele>
        <time>2024-07-08T08:17:39Z</time>
      </trkpt>
      <trkpt lat="45.13915" lon="6.09609">
        <ele>2048.3</ele>
        <time>2024-07-08T08:17:40Z</time>
      </trkpt>
      <trkpt lat="45.13915" lon="6.09608">
        <ele>2048.4</ele>
        <time>2024-07-08T08:17:41Z</time>
      </trkpt>
      <trkpt lat="45.13917" lon="6.09608">
        <ele>2048.5</ele>
        <time>2024-07-08T08:17:42Z</time>
      </trkpt>
      <trkpt lat="45.13917" lon="6.09608">
        <ele>2048.6</ele>
        <time>2024-07-08T08:17:43Z</time>
      </trkpt>
      <trkpt lat="45.13918" lon="6.09607">
        <ele>2048.7</ele>
        <time>2024-07-08T08:17:44Z</time>
      </trkpt>
      <trkpt lat="45.13919" lon="6.09607">
        <ele>2048.9</ele>
        <time>2024-07-08T08:17:45Z</time>
      </trkpt>
      <trkpt lat="45.1392" lon="6.09607">
        <ele>2049</ele>
        <time>2024-07-08T08:17:46Z</time>
      </trkpt>
      <trkpt lat="45.13921" lon="6.09607">
        <ele>2049.2</ele>
        <time>2024-07-08T08:17:47Z</time>
      </trkpt>
      <trkpt lat="45.13922" lon="6.09607">
        <ele>2049.3</ele>
        <time>2024-07-08T08:17:48Z</time>
      </trkpt>
      <trkpt lat="45.13923" lon="6.09607">
        <ele>2049.4</ele>
        <time>2024-07-08T08:17:49Z</time>
      </trkpt>
      <trkpt lat="45.13924" lon="6.09607">
        <ele>2049.5</ele>
        <time>2024-07-08T08:17:50Z</time>
      </trkpt>
      <trkpt lat="45.13925" lon="6.09607">
        <ele>2049.6</ele>
        <time>2024-07-08T08:17:51Z</time>
      </trkpt>
      <trkpt lat="45.13926" lon="6.09606">
        <ele>2049.7</ele>
        <time>2024-07-08T08:17:52Z</time>
      </trkpt>
      <trkpt lat="45.13927" lon="6.09607">
        <ele>2049.9</ele>
        <time>2024-07-08T08:17:53Z</time>
      </trkpt>
      <trkpt lat="45.13928" lon="6.09607">
        <ele>2050</ele>
        <time>2024-07-08T08:17:54Z</time>
      </trkpt>
      <trkpt lat="45.13929" lon="6.09607">
        <ele>2050.1</ele>
        <time>2024-07-08T08:17:55Z</time>
      </trkpt>
      <trkpt lat="45.13929" lon="6.09608">
        <ele>2050.2</ele>
        <time>2024-07-08T08:17:56Z</time>
      </trkpt>
      <trkpt lat="45.13931" lon="6.09609">
        <ele>2050.4</ele>
        <time>2024-07-08T08:17:57Z</time>
      </trkpt>
      <trkpt lat="45.13931" lon="6.0961">
        <ele>2050.5</ele>
        <time>2024-07-08T08:17:58Z</time>
      </trkpt>
      <trkpt lat="45.13932" lon="6.0961">
        <ele>2050.6</ele>
        <time>2024-07-08T08:17:59Z</time>
      </trkpt>
      <trkpt lat="45.13932" lon="6.09611">
        <ele>2050.7</ele>
        <time>2024-07-08T08:18:00Z</time>
      </trkpt>
      <trkpt lat="45.13933" lon="6.09612">
        <ele>2050.9</ele>
        <time>2024-07-08T08:18:01Z</time>
      </trkpt>
      <trkpt lat="45.13934" lon="6.09614">
        <ele>2051.1</ele>
        <time>2024-07-08T08:18:02Z</time>
      </trkpt>
      <trkpt lat="45.13935" lon="6.09615">
        <ele>2051.2</ele>
        <time>2024-07-08T08:18:03Z</time>
      </trkpt>
      <trkpt lat="45.13935" lon="6.09616">
        <ele>2051.3</ele>
        <time>2024-07-08T08:18:04Z</time>
      </trkpt>
      <trkpt lat="45.13935" lon="6.09617">
        <ele>2051.4</ele>
        <time>2024-07-08T08:18:05Z</time>
      </trkpt>
      <trkpt lat="45.13935" lon="6.09619">
        <ele>2051.6</ele>
        <time>2024-07-08T08:18:06Z</time>
      </trkpt>
      <trkpt lat="45.13935" lon="6.09621">
        <ele>2051.8</ele>
        <time>2024-07-08T08:18:07Z</time>
      </trkpt>
      <trkpt lat="45.13935" lon="6.09622">
        <ele>2051.9</ele>
        <time>2024-07-08T08:18:08Z</time>
      </trkpt>
      <trkpt lat="45.13935" lon="6.09623">
        <ele>2052</ele>
        <time>2024-07-08T08:18:09Z</time>
      </trkpt>
      <trkpt lat="45.13934" lon="6.09624">
        <ele>2052.2</ele>
        <time>2024-07-08T08:18:10Z</time>
      </trkpt>
      <trkpt lat="45.13934" lon="6.09625">
        <ele>2052.3</ele>
        <time>2024-07-08T08:18:11Z</time>
      </trkpt>
      <trkpt lat="45.13933" lon="6.09627">
        <ele>2052.5</ele>
        <time>2024-07-08T08:18:12Z</time>
      </trkpt>
      <trkpt lat="45.13933" lon="6.09628">
        <ele>2052.6</ele>
        <time>2024-07-08T08:18:13Z</time>
      </trkpt>
      <trkpt lat="45.13933" lon="6.09629">
        <ele>2052.7</ele>
        <time>2024-07-08T08:18:14Z</time>
      </trkpt>
      <trkpt lat="45.13932" lon="6.0963">
        <ele>2052.8</ele>
        <time>2024-07-08T08:18:15Z</time>
      </trkpt>
      <trkpt lat="45.13932" lon="6.09631">
        <ele>2053</ele>
        <time>2024-07-08T08:18:16Z</time>
      </trkpt>
      <trkpt lat="45.13931" lon="6.09633">
        <ele>2053.1</ele>
        <time>2024-07-08T08:18:17Z</time>
      </trkpt>
      <trkpt lat="45.13931" lon="6.09633">
        <ele>2053.2</ele>
        <time>2024-07-08T08:18:18Z</time>
      </trkpt>
      <trkpt lat="45.13931" lon="6.09634">
        <ele>2053.3</ele>
        <time>2024-07-08T08:18:19Z</time>
      </trkpt>
      <trkpt lat="45.1393" lon="6.09635">
        <ele>2053.4</ele>
        <time>2024-07-08T08:18:20Z</time>
      </trkpt>
      <trkpt lat="45.13929" lon="6.09636">
        <ele>2053.6</ele>
        <time>2024-07-08T08:18:21Z</time>
      </trkpt>
      <trkpt lat="45.1393" lon="6.09638">
        <ele>2053.8</ele>
        <time>2024-07-08T08:18:22Z</time>
      </trkpt>
      <trkpt lat="45.1393" lon="6.09639">
        <ele>2053.9</ele>
        <time>2024-07-08T08:18:23Z</time>
      </trkpt>
      <trkpt lat="45.1393" lon="6.09641">
        <ele>2054</ele>
        <time>2024-07-08T08:18:24Z</time>
      </trkpt>
      <trkpt lat="45.1393" lon="6.09642">
        <ele>2054.1</ele>
        <time>2024-07-08T08:18:25Z</time>
      </trkpt>
      <trkpt lat="45.1393" lon="6.09643">
        <ele>2054.3</ele>
        <time>2024-07-08T08:18:26Z</time>
      </trkpt>
      <trkpt lat="45.1393" lon="6.09645">
        <ele>2054.4</ele>
        <time>2024-07-08T08:18:27Z</time>
      </trkpt>
      <trkpt lat="45.1393" lon="6.09647">
        <ele>2054.6</ele>
        <time>2024-07-08T08:18:28Z</time>
      </trkpt>
      <trkpt lat="45.1393" lon="6.09648">
        <ele>2054.7</ele>
        <time>2024-07-08T08:18:29Z</time>
      </trkpt>
      <trkpt lat="45.1393" lon="6.09649">
        <ele>2054.8</ele>
        <time>2024-07-08T08:18:30Z</time>
      </trkpt>
      <trkpt lat="45.1393" lon="6.0965">
        <ele>2054.9</ele>
        <time>2024-07-08T08:18:31Z</time>
      </trkpt>
      <trkpt lat="45.1393" lon="6.09652">
        <ele>2055.1</ele>
        <time>2024-07-08T08:18:32Z</time>
      </trkpt>
      <trkpt lat="45.1393" lon="6.09653">
        <ele>2055.2</ele>
        <time>2024-07-08T08:18:33Z</time>
      </trkpt>
      <trkpt lat="45.1393" lon="6.09654">
        <ele>2055.3</ele>
        <time>2024-07-08T08:18:34Z</time>
      </trkpt>
      <trkpt lat="45.1393" lon="6.09655">
        <ele>2055.4</ele>
        <time>2024-07-08T08:18:35Z</time>
      </trkpt>
      <trkpt lat="45.1393" lon="6.09656">
        <ele>2055.6</ele>
        <time>2024-07-08T08:18:36Z</time>
      </trkpt>
      <trkpt lat="45.1393" lon="6.09658">
        <ele>2055.7</ele>
        <time>2024-07-08T08:18:37Z</time>
      </trkpt>
      <trkpt lat="45.13931" lon="6.09659">
        <ele>2055.8</ele>
        <time>2024-07-08T08:18:38Z</time>
      </trkpt>
      <trkpt lat="45.13931" lon="6.0966">
        <ele>2056</ele>
        <time>2024-07-08T08:18:39Z</time>
      </trkpt>
      <trkpt lat="45.13931" lon="6.09661">
        <ele>2056.1</ele>
        <time>2024-07-08T08:18:40Z</time>
      </trkpt>
      <trkpt lat="45.13931" lon="6.09663">
        <ele>2056.2</ele>
        <time>2024-07-08T08:18:41Z</time>
      </trkpt>
      <trkpt lat="45.13932" lon="6.09663">
        <ele>2056.3</ele>
        <time>2024-07-08T08:18:42Z</time>
      </trkpt>
      <trkpt lat="45.13933" lon="6.09663">
        <ele>2056.4</ele>
        <time>2024-07-08T08:18:43Z</time>
      </trkpt>
      <trkpt lat="45.13933" lon="6.09665">
        <ele>2056.6</ele>
        <time>2024-07-08T08:18:44Z</time>
      </trkpt>
      <trkpt lat="45.13933" lon="6.09666">
        <ele>2056.7</ele>
        <time>2024-07-08T08:18:45Z</time>
      </trkpt>
      <trkpt lat="45.13933" lon="6.09668">
        <ele>2056.9</ele>
        <time>2024-07-08T08:18:46Z</time>
      </trkpt>
      <trkpt lat="45.13933" lon="6.09669">
        <ele>2057.1</ele>
        <time>2024-07-08T08:18:47Z</time>
      </trkpt>
      <trkpt lat="45.13934" lon="6.0967">
        <ele>2057.2</ele>
        <time>2024-07-08T08:18:48Z</time>
      </trkpt>
      <trkpt lat="45.13934" lon="6.09672">
        <ele>2057.3</ele>
        <time>2024-07-08T08:18:49Z</time>
      </trkpt>
      <trkpt lat="45.13934" lon="6.09673">
        <ele>2057.5</ele>
        <time>2024-07-08T08:18:50Z</time>
      </trkpt>
      <trkpt lat="45.13934" lon="6.09674">
        <ele>2057.6</ele>
        <time>2024-07-08T08:18:51Z</time>
      </trkpt>
      <trkpt lat="45.13935" lon="6.09676">
        <ele>2057.8</ele>
        <time>2024-07-08T08:18:52Z</time>
      </trkpt>
      <trkpt lat="45.13935" lon="6.09677">
        <ele>2057.9</ele>
        <time>2024-07-08T08:18:53Z</time>
      </trkpt>
      <trkpt lat="45.13936" lon="6.09678">
        <ele>2058.1</ele>
        <time>2024-07-08T08:18:54Z</time>
      </trkpt>
      <trkpt lat="45.13936" lon="6.09679">
        <ele>2058.2</ele>
        <time>2024-07-08T08:18:55Z</time>
      </trkpt>
      <trkpt lat="45.13937" lon="6.0968">
        <ele>2058.4</ele>
        <time>2024-07-08T08:18:56Z</time>
      </trkpt>
      <trkpt lat="45.13937" lon="6.09682">
        <ele>2058.6</ele>
        <time>2024-07-08T08:18:57Z</time>
      </trkpt>
      <trkpt lat="45.13938" lon="6.09682">
        <ele>2058.7</ele>
        <time>2024-07-08T08:18:58Z</time>
      </trkpt>
      <trkpt lat="45.13938" lon="6.09684">
        <ele>2058.8</ele>
        <time>2024-07-08T08:18:59Z</time>
      </trkpt>
      <trkpt lat="45.13939" lon="6.09684">
        <ele>2059</ele>
        <time>2024-07-08T08:19:00Z</time>
      </trkpt>
      <trkpt lat="45.13939" lon="6.09685">
        <ele>2059.1</ele>
        <time>2024-07-08T08:19:01Z</time>
      </trkpt>
      <trkpt lat="45.1394" lon="6.09687">
        <ele>2059.3</ele>
        <time>2024-07-08T08:19:02Z</time>
      </trkpt>
      <trkpt lat="45.1394" lon="6.09688">
        <ele>2059.5</ele>
        <time>2024-07-08T08:19:03Z</time>
      </trkpt>
      <trkpt lat="45.13941" lon="6.09689">
        <ele>2059.6</ele>
        <time>2024-07-08T08:19:04Z</time>
      </trkpt>
      <trkpt lat="45.13941" lon="6.0969">
        <ele>2059.7</ele>
        <time>2024-07-08T08:19:05Z</time>
      </trkpt>
      <trkpt lat="45.13941" lon="6.09691">
        <ele>2059.9</ele>
        <time>2024-07-08T08:19:06Z</time>
      </trkpt>
      <trkpt lat="45.13942" lon="6.09692">
        <ele>2060.1</ele>
        <time>2024-07-08T08:19:07Z</time>
      </trkpt>
      <trkpt lat="45.13942" lon="6.09693">
        <ele>2060.2</ele>
        <time>2024-07-08T08:19:08Z</time>
      </trkpt>
      <trkpt lat="45.13942" lon="6.09694">
        <ele>2060.3</ele>
        <time>2024-07-08T08:19:09Z</time>
      </trkpt>
      <trkpt lat="45.13943" lon="6.09696">
        <ele>2060.5</ele>
        <time>2024-07-08T08:19:10Z</time>
      </trkpt>
      <trkpt lat="45.13944" lon="6.09698">
        <ele>2060.8</ele>
        <time>2024-07-08T08:19:12Z</time>
      </trkpt>
      <trkpt lat="45.13944" lon="6.09699">
        <ele>2061</ele>
        <time>2024-07-08T08:19:13Z</time>
      </trkpt>
      <trkpt lat="45.13945" lon="6.09699">
        <ele>2061.1</ele>
        <time>2024-07-08T08:19:14Z</time>
      </trkpt>
      <trkpt lat="45.13945" lon="6.097">
        <ele>2061.3</ele>
        <time>2024-07-08T08:19:15Z</time>
      </trkpt>
      <trkpt lat="45.13945" lon="6.09702">
        <ele>2061.4</ele>
        <time>2024-07-08T08:19:16Z</time>
      </trkpt>
      <trkpt lat="45.13945" lon="6.09703">
        <ele>2061.6</ele>
        <time>2024-07-08T08:19:17Z</time>
      </trkpt>
      <trkpt lat="45.13945" lon="6.09704">
        <ele>2061.6</ele>
        <time>2024-07-08T08:19:18Z</time>
      </trkpt>
      <trkpt lat="45.13946" lon="6.09704">
        <ele>2061.8</ele>
        <time>2024-07-08T08:19:19Z</time>
      </trkpt>
      <trkpt lat="45.13946" lon="6.09705">
        <ele>2061.9</ele>
        <time>2024-07-08T08:19:20Z</time>
      </trkpt>
      <trkpt lat="45.13947" lon="6.09706">
        <ele>2062</ele>
        <time>2024-07-08T08:19:21Z</time>
      </trkpt>
      <trkpt lat="45.13948" lon="6.09707">
        <ele>2062.1</ele>
        <time>2024-07-08T08:19:22Z</time>
      </trkpt>
      <trkpt lat="45.13948" lon="6.09708">
        <ele>2062.2</ele>
        <time>2024-07-08T08:19:23Z</time>
      </trkpt>
      <trkpt lat="45.13949" lon="6.0971">
        <ele>2062.3</ele>
        <time>2024-07-08T08:19:24Z</time>
      </trkpt>
      <trkpt lat="45.13949" lon="6.09711">
        <ele>2062.5</ele>
        <time>2024-07-08T08:19:25Z</time>
      </trkpt>
      <trkpt lat="45.1395" lon="6.09713">
        <ele>2062.7</ele>
        <time>2024-07-08T08:19:27Z</time>
      </trkpt>
      <trkpt lat="45.13951" lon="6.09714">
        <ele>2062.9</ele>
        <time>2024-07-08T08:19:28Z</time>
      </trkpt>
      <trkpt lat="45.13951" lon="6.09716">
        <ele>2063.1</ele>
        <time>2024-07-08T08:19:29Z</time>
      </trkpt>
      <trkpt lat="45.13951" lon="6.09717">
        <ele>2063.2</ele>
        <time>2024-07-08T08:19:30Z</time>
      </trkpt>
      <trkpt lat="45.13951" lon="6.09718">
        <ele>2063.2</ele>
        <time>2024-07-08T08:19:31Z</time>
      </trkpt>
      <trkpt lat="45.13952" lon="6.09719">
        <ele>2063.3</ele>
        <time>2024-07-08T08:19:32Z</time>
      </trkpt>
      <trkpt lat="45.13953" lon="6.0972">
        <ele>2063.5</ele>
        <time>2024-07-08T08:19:34Z</time>
      </trkpt>
      <trkpt lat="45.13953" lon="6.09721">
        <ele>2063.6</ele>
        <time>2024-07-08T08:19:35Z</time>
      </trkpt>
      <trkpt lat="45.13953" lon="6.09721">
        <ele>2063.6</ele>
        <time>2024-07-08T08:19:36Z</time>
      </trkpt>
      <trkpt lat="45.13953" lon="6.09722">
        <ele>2063.7</ele>
        <time>2024-07-08T08:19:37Z</time>
      </trkpt>
      <trkpt lat="45.13953" lon="6.09722">
        <ele>2063.7</ele>
        <time>2024-07-08T08:19:38Z</time>
      </trkpt>
      <trkpt lat="45.13953" lon="6.09723">
        <ele>2063.8</ele>
        <time>2024-07-08T08:19:39Z</time>
      </trkpt>
      <trkpt lat="45.13953" lon="6.09724">
        <ele>2063.8</ele>
        <time>2024-07-08T08:19:40Z</time>
      </trkpt>
      <trkpt lat="45.13953" lon="6.09725">
        <ele>2063.9</ele>
        <time>2024-07-08T08:19:41Z</time>
      </trkpt>
      <trkpt lat="45.13952" lon="6.09725">
        <ele>2064</ele>
        <time>2024-07-08T08:19:42Z</time>
      </trkpt>
      <trkpt lat="45.13952" lon="6.09726">
        <ele>2064.1</ele>
        <time>2024-07-08T08:19:43Z</time>
      </trkpt>
      <trkpt lat="45.13951" lon="6.09726">
        <ele>2064.2</ele>
        <time>2024-07-08T08:19:44Z</time>
      </trkpt>
      <trkpt lat="45.13951" lon="6.09727">
        <ele>2064.2</ele>
        <time>2024-07-08T08:19:45Z</time>
      </trkpt>
      <trkpt lat="45.13951" lon="6.09728">
        <ele>2064.3</ele>
        <time>2024-07-08T08:19:46Z</time>
      </trkpt>
      <trkpt lat="45.1395" lon="6.09729">
        <ele>2064.4</ele>
        <time>2024-07-08T08:19:47Z</time>
      </trkpt>
      <trkpt lat="45.1395" lon="6.0973">
        <ele>2064.6</ele>
        <time>2024-07-08T08:19:49Z</time>
      </trkpt>
      <trkpt lat="45.13949" lon="6.09731">
        <ele>2064.7</ele>
        <time>2024-07-08T08:19:50Z</time>
      </trkpt>
      <trkpt lat="45.13949" lon="6.09734">
        <ele>2064.9</ele>
        <time>2024-07-08T08:19:52Z</time>
      </trkpt>
      <trkpt lat="45.13949" lon="6.09735">
        <ele>2065.1</ele>
        <time>2024-07-08T08:19:53Z</time>
      </trkpt>
      <trkpt lat="45.13949" lon="6.09736">
        <ele>2065.2</ele>
        <time>2024-07-08T08:19:55Z</time>
      </trkpt>
      <trkpt lat="45.13947" lon="6.09737">
        <ele>2065.4</ele>
        <time>2024-07-08T08:19:56Z</time>
      </trkpt>
      <trkpt lat="45.13947" lon="6.09737">
        <ele>2065.5</ele>
        <time>2024-07-08T08:19:57Z</time>
      </trkpt>
      <trkpt lat="45.13946" lon="6.09737">
        <ele>2065.6</ele>
        <time>2024-07-08T08:19:58Z</time>
      </trkpt>
      <trkpt lat="45.13945" lon="6.09737">
        <ele>2065.7</ele>
        <time>2024-07-08T08:19:59Z</time>
      </trkpt>
      <trkpt lat="45.13945" lon="6.09738">
        <ele>2065.8</ele>
        <time>2024-07-08T08:20:00Z</time>
      </trkpt>
      <trkpt lat="45.13945" lon="6.0974">
        <ele>2066</ele>
        <time>2024-07-08T08:20:02Z</time>
      </trkpt>
      <trkpt lat="45.13945" lon="6.09741">
        <ele>2066.1</ele>
        <time>2024-07-08T08:20:03Z</time>
      </trkpt>
      <trkpt lat="45.13944" lon="6.09743">
        <ele>2066.3</ele>
        <time>2024-07-08T08:20:05Z</time>
      </trkpt>
      <trkpt lat="45.13944" lon="6.09744">
        <ele>2066.4</ele>
        <time>2024-07-08T08:20:06Z</time>
      </trkpt>
      <trkpt lat="45.13944" lon="6.09745">
        <ele>2066.5</ele>
        <time>2024-07-08T08:20:07Z</time>
      </trkpt>
      <trkpt lat="45.13944" lon="6.09746">
        <ele>2066.6</ele>
        <time>2024-07-08T08:20:08Z</time>
      </trkpt>
      <trkpt lat="45.13944" lon="6.09746">
        <ele>2066.7</ele>
        <time>2024-07-08T08:20:09Z</time>
      </trkpt>
      <trkpt lat="45.13943" lon="6.09748">
        <ele>2066.9</ele>
        <time>2024-07-08T08:20:11Z</time>
      </trkpt>
      <trkpt lat="45.13943" lon="6.09749">
        <ele>2067</ele>
        <time>2024-07-08T08:20:12Z</time>
      </trkpt>
      <trkpt lat="45.13943" lon="6.09751">
        <ele>2067.2</ele>
        <time>2024-07-08T08:20:14Z</time>
      </trkpt>
      <trkpt lat="45.13943" lon="6.09752">
        <ele>2067.3</ele>
        <time>2024-07-08T08:20:15Z</time>
      </trkpt>
      <trkpt lat="45.13944" lon="6.09753">
        <ele>2067.5</ele>
        <time>2024-07-08T08:20:16Z</time>
      </trkpt>
      <trkpt lat="45.13944" lon="6.09754">
        <ele>2067.6</ele>
        <time>2024-07-08T08:20:17Z</time>
      </trkpt>
      <trkpt lat="45.13945" lon="6.09757">
        <ele>2067.9</ele>
        <time>2024-07-08T08:20:19Z</time>
      </trkpt>
      <trkpt lat="45.13945" lon="6.09757">
        <ele>2068</ele>
        <time>2024-07-08T08:20:20Z</time>
      </trkpt>
      <trkpt lat="45.13945" lon="6.09758">
        <ele>2068.1</ele>
        <time>2024-07-08T08:20:21Z</time>
      </trkpt>
      <trkpt lat="45.13945" lon="6.09759">
        <ele>2068.2</ele>
        <time>2024-07-08T08:20:22Z</time>
      </trkpt>
      <trkpt lat="45.13945" lon="6.0976">
        <ele>2068.3</ele>
        <time>2024-07-08T08:20:23Z</time>
      </trkpt>
      <trkpt lat="45.13944" lon="6.09762">
        <ele>2068.6</ele>
        <time>2024-07-08T08:20:25Z</time>
      </trkpt>
      <trkpt lat="45.13945" lon="6.09764">
        <ele>2068.8</ele>
        <time>2024-07-08T08:20:26Z</time>
      </trkpt>
      <trkpt lat="45.13945" lon="6.09765">
        <ele>2068.9</ele>
        <time>2024-07-08T08:20:27Z</time>
      </trkpt>
      <trkpt lat="45.13946" lon="6.09766">
        <ele>2069.1</ele>
        <time>2024-07-08T08:20:28Z</time>
      </trkpt>
      <trkpt lat="45.13948" lon="6.09768">
        <ele>2069.5</ele>
        <time>2024-07-08T08:20:30Z</time>
      </trkpt>
      <trkpt lat="45.13949" lon="6.09769">
        <ele>2069.6</ele>
        <time>2024-07-08T08:20:31Z</time>
      </trkpt>
      <trkpt lat="45.13949" lon="6.0977">
        <ele>2069.7</ele>
        <time>2024-07-08T08:20:32Z</time>
      </trkpt>
      <trkpt lat="45.13949" lon="6.09771">
        <ele>2069.8</ele>
        <time>2024-07-08T08:20:33Z</time>
      </trkpt>
      <trkpt lat="45.13949" lon="6.09772">
        <ele>2069.9</ele>
        <time>2024-07-08T08:20:35Z</time>
      </trkpt>
      <trkpt lat="45.13949" lon="6.09772">
        <ele>2069.9</ele>
        <time>2024-07-08T08:20:36Z</time>
      </trkpt>
      <trkpt lat="45.13949" lon="6.09773">
        <ele>2070</ele>
        <time>2024-07-08T08:20:37Z</time>
      </trkpt>
      <trkpt lat="45.13949" lon="6.09772">
        <ele>2070.1</ele>
        <time>2024-07-08T08:20:39Z</time>
      </trkpt>
      <trkpt lat="45.1395" lon="6.09772">
        <ele>2070.1</ele>
        <time>2024-07-08T08:20:40Z</time>
      </trkpt>
      <trkpt lat="45.1395" lon="6.09773">
        <ele>2070.2</ele>
        <time>2024-07-08T08:20:41Z</time>
      </trkpt>
      <trkpt lat="45.1395" lon="6.09774">
        <ele>2070.3</ele>
        <time>2024-07-08T08:20:42Z</time>
      </trkpt>
      <trkpt lat="45.13951" lon="6.09776">
        <ele>2070.5</ele>
        <time>2024-07-08T08:20:43Z</time>
      </trkpt>
      <trkpt lat="45.13951" lon="6.09777">
        <ele>2070.6</ele>
        <time>2024-07-08T08:20:44Z</time>
      </trkpt>
      <trkpt lat="45.13952" lon="6.09778">
        <ele>2070.7</ele>
        <time>2024-07-08T08:20:45Z</time>
      </trkpt>
      <trkpt lat="45.13952" lon="6.09779">
        <ele>2070.7</ele>
        <time>2024-07-08T08:20:46Z</time>
      </trkpt>
      <trkpt lat="45.13953" lon="6.0978">
        <ele>2070.8</ele>
        <time>2024-07-08T08:20:47Z</time>
      </trkpt>
      <trkpt lat="45.13954" lon="6.0978">
        <ele>2070.9</ele>
        <time>2024-07-08T08:20:48Z</time>
      </trkpt>
      <trkpt lat="45.13954" lon="6.09779">
        <ele>2071</ele>
        <time>2024-07-08T08:20:49Z</time>
      </trkpt>
      <trkpt lat="45.13955" lon="6.0978">
        <ele>2071</ele>
        <time>2024-07-08T08:20:50Z</time>
      </trkpt>
      <trkpt lat="45.13955" lon="6.09781">
        <ele>2071.1</ele>
        <time>2024-07-08T08:20:51Z</time>
      </trkpt>
      <trkpt lat="45.13955" lon="6.09782">
        <ele>2071.2</ele>
        <time>2024-07-08T08:20:52Z</time>
      </trkpt>
      <trkpt lat="45.13956" lon="6.09784">
        <ele>2071.3</ele>
        <time>2024-07-08T08:20:53Z</time>
      </trkpt>
      <trkpt lat="45.13956" lon="6.09785">
        <ele>2071.3</ele>
        <time>2024-07-08T08:20:54Z</time>
      </trkpt>
      <trkpt lat="45.13957" lon="6.09786">
        <ele>2071.4</ele>
        <time>2024-07-08T08:20:55Z</time>
      </trkpt>
      <trkpt lat="45.13957" lon="6.09788">
        <ele>2071.5</ele>
        <time>2024-07-08T08:20:57Z</time>
      </trkpt>
      <trkpt lat="45.13957" lon="6.0979">
        <ele>2071.6</ele>
        <time>2024-07-08T08:20:58Z</time>
      </trkpt>
      <trkpt lat="45.13957" lon="6.09791">
        <ele>2071.6</ele>
        <time>2024-07-08T08:20:59Z</time>
      </trkpt>
      <trkpt lat="45.13957" lon="6.09792">
        <ele>2071.7</ele>
        <time>2024-07-08T08:21:00Z</time>
      </trkpt>
      <trkpt lat="45.13957" lon="6.09793">
        <ele>2071.7</ele>
        <time>2024-07-08T08:21:01Z</time>
      </trkpt>
      <trkpt lat="45.13957" lon="6.09794">
        <ele>2071.7</ele>
        <time>2024-07-08T08:21:02Z</time>
      </trkpt>
      <trkpt lat="45.13958" lon="6.09796">
        <ele>2071.8</ele>
        <time>2024-07-08T08:21:03Z</time>
      </trkpt>
      <trkpt lat="45.13958" lon="6.09797">
        <ele>2071.8</ele>
        <time>2024-07-08T08:21:04Z</time>
      </trkpt>
      <trkpt lat="45.13958" lon="6.09799">
        <ele>2071.9</ele>
        <time>2024-07-08T08:21:05Z</time>
      </trkpt>
      <trkpt lat="45.13958" lon="6.098">
        <ele>2071.9</ele>
        <time>2024-07-08T08:21:06Z</time>
      </trkpt>
      <trkpt lat="45.13958" lon="6.09801">
        <ele>2071.9</ele>
        <time>2024-07-08T08:21:07Z</time>
      </trkpt>
      <trkpt lat="45.13959" lon="6.09803">
        <ele>2072</ele>
        <time>2024-07-08T08:21:08Z</time>
      </trkpt>
      <trkpt lat="45.13959" lon="6.09805">
        <ele>2072</ele>
        <time>2024-07-08T08:21:10Z</time>
      </trkpt>
      <trkpt lat="45.13959" lon="6.09806">
        <ele>2072</ele>
        <time>2024-07-08T08:21:11Z</time>
      </trkpt>
      <trkpt lat="45.13959" lon="6.09807">
        <ele>2072</ele>
        <time>2024-07-08T08:21:12Z</time>
      </trkpt>
      <trkpt lat="45.13959" lon="6.0981">
        <ele>2072.1</ele>
        <time>2024-07-08T08:21:14Z</time>
      </trkpt>
      <trkpt lat="45.13959" lon="6.09811">
        <ele>2072.1</ele>
        <time>2024-07-08T08:21:15Z</time>
      </trkpt>
      <trkpt lat="45.13959" lon="6.09812">
        <ele>2072.1</ele>
        <time>2024-07-08T08:21:16Z</time>
      </trkpt>
      <trkpt lat="45.13959" lon="6.09813">
        <ele>2072.1</ele>
        <time>2024-07-08T08:21:17Z</time>
      </trkpt>
      <trkpt lat="45.13959" lon="6.09815">
        <ele>2072.2</ele>
        <time>2024-07-08T08:21:19Z</time>
      </trkpt>
      <trkpt lat="45.13958" lon="6.09818">
        <ele>2072.2</ele>
        <time>2024-07-08T08:21:20Z</time>
      </trkpt>
      <trkpt lat="45.13958" lon="6.09821">
        <ele>2072.2</ele>
        <time>2024-07-08T08:21:21Z</time>
      </trkpt>
      <trkpt lat="45.13957" lon="6.09822">
        <ele>2072.2</ele>
        <time>2024-07-08T08:21:22Z</time>
      </trkpt>
      <trkpt lat="45.13957" lon="6.09824">
        <ele>2072.2</ele>
        <time>2024-07-08T08:21:23Z</time>
      </trkpt>
      <trkpt lat="45.13957" lon="6.09825">
        <ele>2072.2</ele>
        <time>2024-07-08T08:21:24Z</time>
      </trkpt>
      <trkpt lat="45.13956" lon="6.09827">
        <ele>2072.2</ele>
        <time>2024-07-08T08:21:25Z</time>
      </trkpt>
      <trkpt lat="45.13956" lon="6.09828">
        <ele>2072.3</ele>
        <time>2024-07-08T08:21:26Z</time>
      </trkpt>
      <trkpt lat="45.13956" lon="6.0983">
        <ele>2072.3</ele>
        <time>2024-07-08T08:21:27Z</time>
      </trkpt>
      <trkpt lat="45.13955" lon="6.09832">
        <ele>2072.3</ele>
        <time>2024-07-08T08:21:28Z</time>
      </trkpt>
      <trkpt lat="45.13955" lon="6.09833">
        <ele>2072.3</ele>
        <time>2024-07-08T08:21:29Z</time>
      </trkpt>
      <trkpt lat="45.13955" lon="6.09835">
        <ele>2072.3</ele>
        <time>2024-07-08T08:21:30Z</time>
      </trkpt>
      <trkpt lat="45.13955" lon="6.09836">
        <ele>2072.3</ele>
        <time>2024-07-08T08:21:31Z</time>
      </trkpt>
      <trkpt lat="45.13955" lon="6.09838">
        <ele>2072.3</ele>
        <time>2024-07-08T08:21:32Z</time>
      </trkpt>
      <trkpt lat="45.13955" lon="6.0984">
        <ele>2072.3</ele>
        <time>2024-07-08T08:21:33Z</time>
      </trkpt>
      <trkpt lat="45.13954" lon="6.0984">
        <ele>2072.3</ele>
        <time>2024-07-08T08:21:34Z</time>
      </trkpt>
      <trkpt lat="45.13954" lon="6.09842">
        <ele>2072.4</ele>
        <time>2024-07-08T08:21:35Z</time>
      </trkpt>
      <trkpt lat="45.13954" lon="6.09843">
        <ele>2072.4</ele>
        <time>2024-07-08T08:21:36Z</time>
      </trkpt>
      <trkpt lat="45.13955" lon="6.09844">
        <ele>2072.4</ele>
        <time>2024-07-08T08:21:37Z</time>
      </trkpt>
      <trkpt lat="45.13955" lon="6.09847">
        <ele>2072.4</ele>
        <time>2024-07-08T08:21:38Z</time>
      </trkpt>
      <trkpt lat="45.13956" lon="6.09848">
        <ele>2072.4</ele>
        <time>2024-07-08T08:21:39Z</time>
      </trkpt>
      <trkpt lat="45.13956" lon="6.09848">
        <ele>2072.4</ele>
        <time>2024-07-08T08:21:40Z</time>
      </trkpt>
      <trkpt lat="45.13956" lon="6.09849">
        <ele>2072.5</ele>
        <time>2024-07-08T08:21:41Z</time>
      </trkpt>
      <trkpt lat="45.13957" lon="6.0985">
        <ele>2072.5</ele>
        <time>2024-07-08T08:21:42Z</time>
      </trkpt>
      <trkpt lat="45.13957" lon="6.09852">
        <ele>2072.5</ele>
        <time>2024-07-08T08:21:43Z</time>
      </trkpt>
      <trkpt lat="45.13958" lon="6.09853">
        <ele>2072.5</ele>
        <time>2024-07-08T08:21:44Z</time>
      </trkpt>
      <trkpt lat="45.13958" lon="6.09853">
        <ele>2072.5</ele>
        <time>2024-07-08T08:21:45Z</time>
      </trkpt>
      <trkpt lat="45.13958" lon="6.09854">
        <ele>2072.6</ele>
        <time>2024-07-08T08:21:46Z</time>
      </trkpt>
      <trkpt lat="45.13957" lon="6.09855">
        <ele>2072.6</ele>
        <time>2024-07-08T08:21:47Z</time>
      </trkpt>
      <trkpt lat="45.13957" lon="6.09857">
        <ele>2072.6</ele>
        <time>2024-07-08T08:21:48Z</time>
      </trkpt>
      <trkpt lat="45.13957" lon="6.09857">
        <ele>2072.6</ele>
        <time>2024-07-08T08:21:49Z</time>
      </trkpt>
      <trkpt lat="45.13957" lon="6.09858">
        <ele>2072.7</ele>
        <time>2024-07-08T08:21:50Z</time>
      </trkpt>
      <trkpt lat="45.13957" lon="6.09859">
        <ele>2072.7</ele>
        <time>2024-07-08T08:21:51Z</time>
      </trkpt>
      <trkpt lat="45.13956" lon="6.0986">
        <ele>2072.7</ele>
        <time>2024-07-08T08:21:52Z</time>
      </trkpt>
      <trkpt lat="45.13955" lon="6.09862">
        <ele>2072.8</ele>
        <time>2024-07-08T08:21:54Z</time>
      </trkpt>
      <trkpt lat="45.13955" lon="6.09862">
        <ele>2072.8</ele>
        <time>2024-07-08T08:21:55Z</time>
      </trkpt>
      <trkpt lat="45.13954" lon="6.09862">
        <ele>2072.8</ele>
        <time>2024-07-08T08:21:56Z</time>
      </trkpt>
      <trkpt lat="45.13953" lon="6.09863">
        <ele>2072.9</ele>
        <time>2024-07-08T08:21:57Z</time>
      </trkpt>
      <trkpt lat="45.13953" lon="6.09865">
        <ele>2072.9</ele>
        <time>2024-07-08T08:21:58Z</time>
      </trkpt>
      <trkpt lat="45.13952" lon="6.09865">
        <ele>2073</ele>
        <time>2024-07-08T08:21:59Z</time>
      </trkpt>
      <trkpt lat="45.13952" lon="6.09866">
        <ele>2073</ele>
        <time>2024-07-08T08:22:00Z</time>
      </trkpt>
      <trkpt lat="45.13951" lon="6.09867">
        <ele>2073</ele>
        <time>2024-07-08T08:22:01Z</time>
      </trkpt>
      <trkpt lat="45.13951" lon="6.09868">
        <ele>2073.1</ele>
        <time>2024-07-08T08:22:02Z</time>
      </trkpt>
      <trkpt lat="45.13951" lon="6.09869">
        <ele>2073.2</ele>
        <time>2024-07-08T08:22:03Z</time>
      </trkpt>
      <trkpt lat="45.13951" lon="6.0987">
        <ele>2073.2</ele>
        <time>2024-07-08T08:22:04Z</time>
      </trkpt>
      <trkpt lat="45.13951" lon="6.09871">
        <ele>2073.3</ele>
        <time>2024-07-08T08:22:05Z</time>
      </trkpt>
      <trkpt lat="45.13951" lon="6.09872">
        <ele>2073.3</ele>
        <time>2024-07-08T08:22:06Z</time>
      </trkpt>
      <trkpt lat="45.1395" lon="6.09873">
        <ele>2073.4</ele>
        <time>2024-07-08T08:22:07Z</time>
      </trkpt>
      <trkpt lat="45.1395" lon="6.09874">
        <ele>2073.5</ele>
        <time>2024-07-08T08:22:08Z</time>
      </trkpt>
      <trkpt lat="45.13949" lon="6.09875">
        <ele>2073.5</ele>
        <time>2024-07-08T08:22:09Z</time>
      </trkpt>
      <trkpt lat="45.13949" lon="6.09876">
        <ele>2073.6</ele>
        <time>2024-07-08T08:22:10Z</time>
      </trkpt>
      <trkpt lat="45.13948" lon="6.09876">
        <ele>2073.6</ele>
        <time>2024-07-08T08:22:11Z</time>
      </trkpt>
      <trkpt lat="45.13947" lon="6.09877">
        <ele>2073.7</ele>
        <time>2024-07-08T08:22:12Z</time>
      </trkpt>
      <trkpt lat="45.13946" lon="6.09876">
        <ele>2073.8</ele>
        <time>2024-07-08T08:22:13Z</time>
      </trkpt>
      <trkpt lat="45.13946" lon="6.09876">
        <ele>2073.9</ele>
        <time>2024-07-08T08:22:14Z</time>
      </trkpt>
      <trkpt lat="45.13945" lon="6.09876">
        <ele>2073.9</ele>
        <time>2024-07-08T08:22:15Z</time>
      </trkpt>
      <trkpt lat="45.13945" lon="6.09877">
        <ele>2074</ele>
        <time>2024-07-08T08:22:16Z</time>
      </trkpt>
      <trkpt lat="45.13945" lon="6.09878">
        <ele>2074.1</ele>
        <time>2024-07-08T08:22:17Z</time>
      </trkpt>
      <trkpt lat="45.13944" lon="6.09877">
        <ele>2074.1</ele>
        <time>2024-07-08T08:22:18Z</time>
      </trkpt>
      <trkpt lat="45.13944" lon="6.09877">
        <ele>2074.2</ele>
        <time>2024-07-08T08:22:19Z</time>
      </trkpt>
      <trkpt lat="45.13943" lon="6.09876">
        <ele>2074.3</ele>
        <time>2024-07-08T08:22:20Z</time>
      </trkpt>
      <trkpt lat="45.13942" lon="6.09875">
        <ele>2074.4</ele>
        <time>2024-07-08T08:22:21Z</time>
      </trkpt>
      <trkpt lat="45.13942" lon="6.09875">
        <ele>2074.5</ele>
        <time>2024-07-08T08:22:22Z</time>
      </trkpt>
      <trkpt lat="45.13941" lon="6.09874">
        <ele>2074.7</ele>
        <time>2024-07-08T08:22:23Z</time>
      </trkpt>
      <trkpt lat="45.13941" lon="6.09873">
        <ele>2074.7</ele>
        <time>2024-07-08T08:22:24Z</time>
      </trkpt>
      <trkpt lat="45.1394" lon="6.09874">
        <ele>2074.8</ele>
        <time>2024-07-08T08:22:25Z</time>
      </trkpt>
      <trkpt lat="45.1394" lon="6.09874">
        <ele>2074.8</ele>
        <time>2024-07-08T08:22:26Z</time>
      </trkpt>
      <trkpt lat="45.13939" lon="6.09874">
        <ele>2074.9</ele>
        <time>2024-07-08T08:22:27Z</time>
      </trkpt>
      <trkpt lat="45.13939" lon="6.09876">
        <ele>2075.1</ele>
        <time>2024-07-08T08:22:28Z</time>
      </trkpt>
      <trkpt lat="45.13939" lon="6.09877">
        <ele>2075.2</ele>
        <time>2024-07-08T08:22:29Z</time>
      </trkpt>
      <trkpt lat="45.13939" lon="6.09877">
        <ele>2075.3</ele>
        <time>2024-07-08T08:22:30Z</time>
      </trkpt>
      <trkpt lat="45.13939" lon="6.09878">
        <ele>2075.4</ele>
        <time>2024-07-08T08:22:31Z</time>
      </trkpt>
      <trkpt lat="45.13938" lon="6.09878">
        <ele>2075.5</ele>
        <time>2024-07-08T08:22:32Z</time>
      </trkpt>
      <trkpt lat="45.13938" lon="6.09879">
        <ele>2075.6</ele>
        <time>2024-07-08T08:22:33Z</time>
      </trkpt>
      <trkpt lat="45.13938" lon="6.0988">
        <ele>2075.7</ele>
        <time>2024-07-08T08:22:34Z</time>
      </trkpt>
      <trkpt lat="45.13937" lon="6.09881">
        <ele>2075.8</ele>
        <time>2024-07-08T08:22:35Z</time>
      </trkpt>
      <trkpt lat="45.13937" lon="6.09882">
        <ele>2076</ele>
        <time>2024-07-08T08:22:36Z</time>
      </trkpt>
      <trkpt lat="45.13937" lon="6.09883">
        <ele>2076.1</ele>
        <time>2024-07-08T08:22:37Z</time>
      </trkpt>
      <trkpt lat="45.13936" lon="6.09884">
        <ele>2076.3</ele>
        <time>2024-07-08T08:22:38Z</time>
      </trkpt>
      <trkpt lat="45.13936" lon="6.09885">
        <ele>2076.5</ele>
        <time>2024-07-08T08:22:39Z</time>
      </trkpt>
      <trkpt lat="45.13935" lon="6.09886">
        <ele>2076.6</ele>
        <time>2024-07-08T08:22:40Z</time>
      </trkpt>
      <trkpt lat="45.13935" lon="6.09887">
        <ele>2076.7</ele>
        <time>2024-07-08T08:22:41Z</time>
      </trkpt>
      <trkpt lat="45.13935" lon="6.09888">
        <ele>2076.9</ele>
        <time>2024-07-08T08:22:42Z</time>
      </trkpt>
      <trkpt lat="45.13934" lon="6.09888">
        <ele>2077</ele>
        <time>2024-07-08T08:22:43Z</time>
      </trkpt>
      <trkpt lat="45.13934" lon="6.09889">
        <ele>2077</ele>
        <time>2024-07-08T08:22:44Z</time>
      </trkpt>
      <trkpt lat="45.13934" lon="6.09889">
        <ele>2077.2</ele>
        <time>2024-07-08T08:22:45Z</time>
      </trkpt>
      <trkpt lat="45.13934" lon="6.0989">
        <ele>2077.3</ele>
        <time>2024-07-08T08:22:46Z</time>
      </trkpt>
      <trkpt lat="45.13934" lon="6.09891">
        <ele>2077.4</ele>
        <time>2024-07-08T08:22:47Z</time>
      </trkpt>
      <trkpt lat="45.13934" lon="6.09892">
        <ele>2077.6</ele>
        <time>2024-07-08T08:22:48Z</time>
      </trkpt>
      <trkpt lat="45.13935" lon="6.09892">
        <ele>2077.6</ele>
        <time>2024-07-08T08:22:49Z</time>
      </trkpt>
      <trkpt lat="45.13935" lon="6.09892">
        <ele>2077.7</ele>
        <time>2024-07-08T08:22:50Z</time>
      </trkpt>
      <trkpt lat="45.13935" lon="6.09892">
        <ele>2077.7</ele>
        <time>2024-07-08T08:22:51Z</time>
      </trkpt>
      <trkpt lat="45.13935" lon="6.09893">
        <ele>2077.8</ele>
        <time>2024-07-08T08:22:52Z</time>
      </trkpt>
      <trkpt lat="45.13935" lon="6.09894">
        <ele>2078</ele>
        <time>2024-07-08T08:22:53Z</time>
      </trkpt>
      <trkpt lat="45.13935" lon="6.09896">
        <ele>2078.2</ele>
        <time>2024-07-08T08:22:54Z</time>
      </trkpt>
      <trkpt lat="45.13935" lon="6.09897">
        <ele>2078.5</ele>
        <time>2024-07-08T08:22:55Z</time>
      </trkpt>
      <trkpt lat="45.13935" lon="6.09898">
        <ele>2078.7</ele>
        <time>2024-07-08T08:22:56Z</time>
      </trkpt>
      <trkpt lat="45.13936" lon="6.099">
        <ele>2078.9</ele>
        <time>2024-07-08T08:22:57Z</time>
      </trkpt>
      <trkpt lat="45.13936" lon="6.09901">
        <ele>2079.1</ele>
        <time>2024-07-08T08:22:58Z</time>
      </trkpt>
      <trkpt lat="45.13936" lon="6.09903">
        <ele>2079.3</ele>
        <time>2024-07-08T08:22:59Z</time>
      </trkpt>
      <trkpt lat="45.13936" lon="6.09904">
        <ele>2079.5</ele>
        <time>2024-07-08T08:23:00Z</time>
      </trkpt>
      <trkpt lat="45.13936" lon="6.09905">
        <ele>2079.6</ele>
        <time>2024-07-08T08:23:01Z</time>
      </trkpt>
      <trkpt lat="45.13936" lon="6.09906">
        <ele>2079.8</ele>
        <time>2024-07-08T08:23:02Z</time>
      </trkpt>
      <trkpt lat="45.13936" lon="6.09907">
        <ele>2079.9</ele>
        <time>2024-07-08T08:23:03Z</time>
      </trkpt>
      <trkpt lat="45.13935" lon="6.09907">
        <ele>2080.2</ele>
        <time>2024-07-08T08:23:04Z</time>
      </trkpt>
      <trkpt lat="45.13934" lon="6.09906">
        <ele>2080.4</ele>
        <time>2024-07-08T08:23:05Z</time>
      </trkpt>
      <trkpt lat="45.13933" lon="6.09905">
        <ele>2080.6</ele>
        <time>2024-07-08T08:23:06Z</time>
      </trkpt>
      <trkpt lat="45.13933" lon="6.09904">
        <ele>2080.9</ele>
        <time>2024-07-08T08:23:07Z</time>
      </trkpt>
      <trkpt lat="45.13932" lon="6.09903">
        <ele>2081.1</ele>
        <time>2024-07-08T08:23:08Z</time>
      </trkpt>
      <trkpt lat="45.13932" lon="6.09901">
        <ele>2081.3</ele>
        <time>2024-07-08T08:23:09Z</time>
      </trkpt>
      <trkpt lat="45.13932" lon="6.09901">
        <ele>2081.4</ele>
        <time>2024-07-08T08:23:10Z</time>
      </trkpt>
      <trkpt lat="45.13931" lon="6.099">
        <ele>2081.5</ele>
        <time>2024-07-08T08:23:11Z</time>
      </trkpt>
      <trkpt lat="45.13932" lon="6.09899">
        <ele>2081.6</ele>
        <time>2024-07-08T08:23:12Z</time>
      </trkpt>
      <trkpt lat="45.13931" lon="6.09898">
        <ele>2081.8</ele>
        <time>2024-07-08T08:23:13Z</time>
      </trkpt>
      <trkpt lat="45.13931" lon="6.09897">
        <ele>2081.9</ele>
        <time>2024-07-08T08:23:14Z</time>
      </trkpt>
      <trkpt lat="45.13931" lon="6.09896">
        <ele>2082.1</ele>
        <time>2024-07-08T08:23:15Z</time>
      </trkpt>
      <trkpt lat="45.1393" lon="6.09895">
        <ele>2082.2</ele>
        <time>2024-07-08T08:23:16Z</time>
      </trkpt>
      <trkpt lat="45.1393" lon="6.09895">
        <ele>2082.3</ele>
        <time>2024-07-08T08:23:17Z</time>
      </trkpt>
      <trkpt lat="45.13929" lon="6.09895">
        <ele>2082.5</ele>
        <time>2024-07-08T08:23:18Z</time>
      </trkpt>
      <trkpt lat="45.13929" lon="6.09896">
        <ele>2082.6</ele>
        <time>2024-07-08T08:23:19Z</time>
      </trkpt>
      <trkpt lat="45.13929" lon="6.09897">
        <ele>2082.8</ele>
        <time>2024-07-08T08:23:20Z</time>
      </trkpt>
      <trkpt lat="45.13928" lon="6.09898">
        <ele>2082.9</ele>
        <time>2024-07-08T08:23:21Z</time>
      </trkpt>
      <trkpt lat="45.13929" lon="6.09899">
        <ele>2083.1</ele>
        <time>2024-07-08T08:23:22Z</time>
      </trkpt>
      <trkpt lat="45.13929" lon="6.099">
        <ele>2083.2</ele>
        <time>2024-07-08T08:23:23Z</time>
      </trkpt>
      <trkpt lat="45.13928" lon="6.09901">
        <ele>2083.3</ele>
        <time>2024-07-08T08:23:24Z</time>
      </trkpt>
      <trkpt lat="45.13928" lon="6.09902">
        <ele>2083.4</ele>
        <time>2024-07-08T08:23:25Z</time>
      </trkpt>
      <trkpt lat="45.13928" lon="6.09903">
        <ele>2083.5</ele>
        <time>2024-07-08T08:23:26Z</time>
      </trkpt>
      <trkpt lat="45.13929" lon="6.09904">
        <ele>2083.7</ele>
        <time>2024-07-08T08:23:27Z</time>
      </trkpt>
      <trkpt lat="45.13928" lon="6.09906">
        <ele>2083.9</ele>
        <time>2024-07-08T08:23:28Z</time>
      </trkpt>
      <trkpt lat="45.13928" lon="6.09907">
        <ele>2084</ele>
        <time>2024-07-08T08:23:29Z</time>
      </trkpt>
      <trkpt lat="45.13928" lon="6.09908">
        <ele>2084.1</ele>
        <time>2024-07-08T08:23:30Z</time>
      </trkpt>
      <trkpt lat="45.13928" lon="6.09908">
        <ele>2084.2</ele>
        <time>2024-07-08T08:23:31Z</time>
      </trkpt>
      <trkpt lat="45.13928" lon="6.09909">
        <ele>2084.3</ele>
        <time>2024-07-08T08:23:32Z</time>
      </trkpt>
      <trkpt lat="45.13928" lon="6.0991">
        <ele>2084.4</ele>
        <time>2024-07-08T08:23:33Z</time>
      </trkpt>
      <trkpt lat="45.13927" lon="6.09911">
        <ele>2084.6</ele>
        <time>2024-07-08T08:23:34Z</time>
      </trkpt>
      <trkpt lat="45.13927" lon="6.09911">
        <ele>2084.7</ele>
        <time>2024-07-08T08:23:35Z</time>
      </trkpt>
      <trkpt lat="45.13926" lon="6.09911">
        <ele>2084.8</ele>
        <time>2024-07-08T08:23:36Z</time>
      </trkpt>
      <trkpt lat="45.13926" lon="6.09911">
        <ele>2084.8</ele>
        <time>2024-07-08T08:23:37Z</time>
      </trkpt>
      <trkpt lat="45.13926" lon="6.09911">
        <ele>2084.8</ele>
        <time>2024-07-08T08:23:38Z</time>
      </trkpt>
      <trkpt lat="45.13926" lon="6.09911">
        <ele>2084.9</ele>
        <time>2024-07-08T08:23:39Z</time>
      </trkpt>
      <trkpt lat="45.13926" lon="6.09911">
        <ele>2084.9</ele>
        <time>2024-07-08T08:23:40Z</time>
      </trkpt>
      <trkpt lat="45.13926" lon="6.09911">
        <ele>2084.9</ele>
        <time>2024-07-08T08:23:41Z</time>
      </trkpt>
      <trkpt lat="45.13926" lon="6.09911">
        <ele>2084.9</ele>
        <time>2024-07-08T08:23:42Z</time>
      </trkpt>
      <trkpt lat="45.13926" lon="6.09912">
        <ele>2084.9</ele>
        <time>2024-07-08T08:23:43Z</time>
      </trkpt>
      <trkpt lat="45.13926" lon="6.09912">
        <ele>2085</ele>
        <time>2024-07-08T08:23:44Z</time>
      </trkpt>
      <trkpt lat="45.13925" lon="6.09913">
        <ele>2085.2</ele>
        <time>2024-07-08T08:23:45Z</time>
      </trkpt>
      <trkpt lat="45.13924" lon="6.09913">
        <ele>2085.3</ele>
        <time>2024-07-08T08:23:46Z</time>
      </trkpt>
      <trkpt lat="45.13924" lon="6.09913">
        <ele>2085.4</ele>
        <time>2024-07-08T08:23:47Z</time>
      </trkpt>
      <trkpt lat="45.13923" lon="6.09915">
        <ele>2085.6</ele>
        <time>2024-07-08T08:23:48Z</time>
      </trkpt>
      <trkpt lat="45.13923" lon="6.09916">
        <ele>2085.7</ele>
        <time>2024-07-08T08:23:49Z</time>
      </trkpt>
      <trkpt lat="45.13923" lon="6.09917">
        <ele>2085.9</ele>
        <time>2024-07-08T08:23:50Z</time>
      </trkpt>
      <trkpt lat="45.13923" lon="6.09919">
        <ele>2086.1</ele>
        <time>2024-07-08T08:23:51Z</time>
      </trkpt>
      <trkpt lat="45.13923" lon="6.0992">
        <ele>2086.3</ele>
        <time>2024-07-08T08:23:52Z</time>
      </trkpt>
      <trkpt lat="45.13922" lon="6.09921">
        <ele>2086.4</ele>
        <time>2024-07-08T08:23:53Z</time>
      </trkpt>
      <trkpt lat="45.13922" lon="6.09922">
        <ele>2086.6</ele>
        <time>2024-07-08T08:23:54Z</time>
      </trkpt>
      <trkpt lat="45.13922" lon="6.09923">
        <ele>2086.7</ele>
        <time>2024-07-08T08:23:55Z</time>
      </trkpt>
      <trkpt lat="45.13922" lon="6.09923">
        <ele>2086.8</ele>
        <time>2024-07-08T08:23:56Z</time>
      </trkpt>
      <trkpt lat="45.13921" lon="6.09924">
        <ele>2086.9</ele>
        <time>2024-07-08T08:23:57Z</time>
      </trkpt>
      <trkpt lat="45.13921" lon="6.09924">
        <ele>2087</ele>
        <time>2024-07-08T08:23:58Z</time>
      </trkpt>
      <trkpt lat="45.13921" lon="6.09925">
        <ele>2087.1</ele>
        <time>2024-07-08T08:23:59Z</time>
      </trkpt>
      <trkpt lat="45.13921" lon="6.09925">
        <ele>2087.2</ele>
        <time>2024-07-08T08:24:00Z</time>
      </trkpt>
      <trkpt lat="45.13921" lon="6.09926">
        <ele>2087.3</ele>
        <time>2024-07-08T08:24:01Z</time>
      </trkpt>
      <trkpt lat="45.13921" lon="6.09926">
        <ele>2087.4</ele>
        <time>2024-07-08T08:24:02Z</time>
      </trkpt>
      <trkpt lat="45.13921" lon="6.09927">
        <ele>2087.6</ele>
        <time>2024-07-08T08:24:03Z</time>
      </trkpt>
      <trkpt lat="45.13921" lon="6.09929">
        <ele>2087.7</ele>
        <time>2024-07-08T08:24:04Z</time>
      </trkpt>
      <trkpt lat="45.13921" lon="6.0993">
        <ele>2087.9</ele>
        <time>2024-07-08T08:24:05Z</time>
      </trkpt>
      <trkpt lat="45.13921" lon="6.09931">
        <ele>2088.1</ele>
        <time>2024-07-08T08:24:06Z</time>
      </trkpt>
      <trkpt lat="45.13922" lon="6.09932">
        <ele>2088.3</ele>
        <time>2024-07-08T08:24:07Z</time>
      </trkpt>
      <trkpt lat="45.13922" lon="6.09933">
        <ele>2088.5</ele>
        <time>2024-07-08T08:24:08Z</time>
      </trkpt>
      <trkpt lat="45.13922" lon="6.09935">
        <ele>2088.9</ele>
        <time>2024-07-08T08:24:10Z</time>
      </trkpt>
      <trkpt lat="45.13923" lon="6.09936">
        <ele>2089.1</ele>
        <time>2024-07-08T08:24:11Z</time>
      </trkpt>
      <trkpt lat="45.13924" lon="6.09937">
        <ele>2089.3</ele>
        <time>2024-07-08T08:24:12Z</time>
      </trkpt>
      <trkpt lat="45.13924" lon="6.09937">
        <ele>2089.4</ele>
        <time>2024-07-08T08:24:13Z</time>
      </trkpt>
      <trkpt lat="45.13925" lon="6.09938">
        <ele>2089.6</ele>
        <time>2024-07-08T08:24:14Z</time>
      </trkpt>
      <trkpt lat="45.13925" lon="6.09939">
        <ele>2089.8</ele>
        <time>2024-07-08T08:24:15Z</time>
      </trkpt>
      <trkpt lat="45.13926" lon="6.09939">
        <ele>2090</ele>
        <time>2024-07-08T08:24:16Z</time>
      </trkpt>
      <trkpt lat="45.13926" lon="6.0994">
        <ele>2090.1</ele>
        <time>2024-07-08T08:24:17Z</time>
      </trkpt>
      <trkpt lat="45.13926" lon="6.09941">
        <ele>2090.4</ele>
        <time>2024-07-08T08:24:18Z</time>
      </trkpt>
      <trkpt lat="45.13927" lon="6.09942">
        <ele>2090.6</ele>
        <time>2024-07-08T08:24:19Z</time>
      </trkpt>
      <trkpt lat="45.13927" lon="6.09943">
        <ele>2090.8</ele>
        <time>2024-07-08T08:24:20Z</time>
      </trkpt>
      <trkpt lat="45.13927" lon="6.09944">
        <ele>2091</ele>
        <time>2024-07-08T08:24:21Z</time>
      </trkpt>
      <trkpt lat="45.13927" lon="6.09945">
        <ele>2091.2</ele>
        <time>2024-07-08T08:24:22Z</time>
      </trkpt>
      <trkpt lat="45.13927" lon="6.09946">
        <ele>2091.4</ele>
        <time>2024-07-08T08:24:23Z</time>
      </trkpt>
      <trkpt lat="45.13927" lon="6.09947">
        <ele>2091.6</ele>
        <time>2024-07-08T08:24:24Z</time>
      </trkpt>
      <trkpt lat="45.13927" lon="6.09948">
        <ele>2091.8</ele>
        <time>2024-07-08T08:24:25Z</time>
      </trkpt>
      <trkpt lat="45.13928" lon="6.09949">
        <ele>2092</ele>
        <time>2024-07-08T08:24:26Z</time>
      </trkpt>
      <trkpt lat="45.13928" lon="6.0995">
        <ele>2092.2</ele>
        <time>2024-07-08T08:24:27Z</time>
      </trkpt>
      <trkpt lat="45.13928" lon="6.09952">
        <ele>2092.5</ele>
        <time>2024-07-08T08:24:28Z</time>
      </trkpt>
      <trkpt lat="45.13928" lon="6.09953">
        <ele>2092.7</ele>
        <time>2024-07-08T08:24:29Z</time>
      </trkpt>
      <trkpt lat="45.13928" lon="6.09954">
        <ele>2092.8</ele>
        <time>2024-07-08T08:24:30Z</time>
      </trkpt>
      <trkpt lat="45.13928" lon="6.09955">
        <ele>2093</ele>
        <time>2024-07-08T08:24:31Z</time>
      </trkpt>
      <trkpt lat="45.13928" lon="6.09956">
        <ele>2093.2</ele>
        <time>2024-07-08T08:24:32Z</time>
      </trkpt>
      <trkpt lat="45.13928" lon="6.09957">
        <ele>2093.5</ele>
        <time>2024-07-08T08:24:33Z</time>
      </trkpt>
      <trkpt lat="45.13927" lon="6.09958">
        <ele>2093.7</ele>
        <time>2024-07-08T08:24:34Z</time>
      </trkpt>
      <trkpt lat="45.13927" lon="6.09959">
        <ele>2093.9</ele>
        <time>2024-07-08T08:24:35Z</time>
      </trkpt>
      <trkpt lat="45.13927" lon="6.0996">
        <ele>2094.1</ele>
        <time>2024-07-08T08:24:36Z</time>
      </trkpt>
      <trkpt lat="45.13926" lon="6.09961">
        <ele>2094.2</ele>
        <time>2024-07-08T08:24:37Z</time>
      </trkpt>
      <trkpt lat="45.13926" lon="6.09962">
        <ele>2094.5</ele>
        <time>2024-07-08T08:24:38Z</time>
      </trkpt>
      <trkpt lat="45.13926" lon="6.09964">
        <ele>2094.7</ele>
        <time>2024-07-08T08:24:39Z</time>
      </trkpt>
      <trkpt lat="45.13926" lon="6.09964">
        <ele>2094.9</ele>
        <time>2024-07-08T08:24:40Z</time>
      </trkpt>
      <trkpt lat="45.13926" lon="6.09966">
        <ele>2095.1</ele>
        <time>2024-07-08T08:24:41Z</time>
      </trkpt>
      <trkpt lat="45.13926" lon="6.09966">
        <ele>2095.2</ele>
        <time>2024-07-08T08:24:42Z</time>
      </trkpt>
      <trkpt lat="45.13926" lon="6.09967">
        <ele>2095.4</ele>
        <time>2024-07-08T08:24:43Z</time>
      </trkpt>
      <trkpt lat="45.13926" lon="6.09968">
        <ele>2095.5</ele>
        <time>2024-07-08T08:24:44Z</time>
      </trkpt>
      <trkpt lat="45.13926" lon="6.09969">
        <ele>2095.7</ele>
        <time>2024-07-08T08:24:45Z</time>
      </trkpt>
      <trkpt lat="45.13926" lon="6.0997">
        <ele>2095.9</ele>
        <time>2024-07-08T08:24:46Z</time>
      </trkpt>
      <trkpt lat="45.13926" lon="6.09971">
        <ele>2096</ele>
        <time>2024-07-08T08:24:47Z</time>
      </trkpt>
      <trkpt lat="45.13926" lon="6.09972">
        <ele>2096.2</ele>
        <time>2024-07-08T08:24:48Z</time>
      </trkpt>
      <trkpt lat="45.13927" lon="6.09973">
        <ele>2096.3</ele>
        <time>2024-07-08T08:24:49Z</time>
      </trkpt>
      <trkpt lat="45.13927" lon="6.09974">
        <ele>2096.4</ele>
        <time>2024-07-08T08:24:50Z</time>
      </trkpt>
      <trkpt lat="45.13927" lon="6.09975">
        <ele>2096.6</ele>
        <time>2024-07-08T08:24:51Z</time>
      </trkpt>
      <trkpt lat="45.13927" lon="6.09975">
        <ele>2096.7</ele>
        <time>2024-07-08T08:24:52Z</time>
      </trkpt>
      <trkpt lat="45.13927" lon="6.09976">
        <ele>2096.8</ele>
        <time>2024-07-08T08:24:53Z</time>
      </trkpt>
      <trkpt lat="45.13927" lon="6.09976">
        <ele>2096.9</ele>
        <time>2024-07-08T08:24:54Z</time>
      </trkpt>
      <trkpt lat="45.13927" lon="6.09977">
        <ele>2096.9</ele>
        <time>2024-07-08T08:24:56Z</time>
      </trkpt>
      <trkpt lat="45.13927" lon="6.09977">
        <ele>2097</ele>
        <time>2024-07-08T08:24:57Z</time>
      </trkpt>
      <trkpt lat="45.13927" lon="6.09977">
        <ele>2097.1</ele>
        <time>2024-07-08T08:24:58Z</time>
      </trkpt>
      <trkpt lat="45.13927" lon="6.09978">
        <ele>2097.1</ele>
        <time>2024-07-08T08:24:59Z</time>
      </trkpt>
      <trkpt lat="45.13927" lon="6.09978">
        <ele>2097.2</ele>
        <time>2024-07-08T08:25:00Z</time>
      </trkpt>
      <trkpt lat="45.13927" lon="6.09979">
        <ele>2097.2</ele>
        <time>2024-07-08T08:25:01Z</time>
      </trkpt>
      <trkpt lat="45.13927" lon="6.09979">
        <ele>2097.3</ele>
        <time>2024-07-08T08:25:02Z</time>
      </trkpt>
      <trkpt lat="45.13927" lon="6.09979">
        <ele>2097.4</ele>
        <time>2024-07-08T08:25:03Z</time>
      </trkpt>
      <trkpt lat="45.13927" lon="6.0998">
        <ele>2097.4</ele>
        <time>2024-07-08T08:25:04Z</time>
      </trkpt>
      <trkpt lat="45.13927" lon="6.09981">
        <ele>2097.7</ele>
        <time>2024-07-08T08:25:05Z</time>
      </trkpt>
      <trkpt lat="45.13927" lon="6.09982">
        <ele>2097.8</ele>
        <time>2024-07-08T08:25:06Z</time>
      </trkpt>
      <trkpt lat="45.13926" lon="6.09983">
        <ele>2098</ele>
        <time>2024-07-08T08:25:07Z</time>
      </trkpt>
      <trkpt lat="45.13926" lon="6.09984">
        <ele>2098.2</ele>
        <time>2024-07-08T08:25:08Z</time>
      </trkpt>
      <trkpt lat="45.13926" lon="6.09986">
        <ele>2098.4</ele>
        <time>2024-07-08T08:25:09Z</time>
      </trkpt>
      <trkpt lat="45.13925" lon="6.09986">
        <ele>2098.5</ele>
        <time>2024-07-08T08:25:10Z</time>
      </trkpt>
      <trkpt lat="45.13925" lon="6.09987">
        <ele>2098.6</ele>
        <time>2024-07-08T08:25:11Z</time>
      </trkpt>
      <trkpt lat="45.13925" lon="6.09987">
        <ele>2098.8</ele>
        <time>2024-07-08T08:25:12Z</time>
      </trkpt>
      <trkpt lat="45.13924" lon="6.09988">
        <ele>2099</ele>
        <time>2024-07-08T08:25:13Z</time>
      </trkpt>
      <trkpt lat="45.13924" lon="6.09989">
        <ele>2099.2</ele>
        <time>2024-07-08T08:25:14Z</time>
      </trkpt>
      <trkpt lat="45.13924" lon="6.0999">
        <ele>2099.2</ele>
        <time>2024-07-08T08:25:15Z</time>
      </trkpt>
      <trkpt lat="45.13924" lon="6.09991">
        <ele>2099.4</ele>
        <time>2024-07-08T08:25:16Z</time>
      </trkpt>
      <trkpt lat="45.13925" lon="6.09991">
        <ele>2099.5</ele>
        <time>2024-07-08T08:25:17Z</time>
      </trkpt>
      <trkpt lat="45.13925" lon="6.09992">
        <ele>2099.6</ele>
        <time>2024-07-08T08:25:18Z</time>
      </trkpt>
      <trkpt lat="45.13925" lon="6.09992">
        <ele>2099.7</ele>
        <time>2024-07-08T08:25:19Z</time>
      </trkpt>
      <trkpt lat="45.13926" lon="6.09992">
        <ele>2099.8</ele>
        <time>2024-07-08T08:25:20Z</time>
      </trkpt>
      <trkpt lat="45.13926" lon="6.09993">
        <ele>2099.9</ele>
        <time>2024-07-08T08:25:21Z</time>
      </trkpt>
      <trkpt lat="45.13925" lon="6.09994">
        <ele>2100.1</ele>
        <time>2024-07-08T08:25:22Z</time>
      </trkpt>
      <trkpt lat="45.13925" lon="6.09995">
        <ele>2100.2</ele>
        <time>2024-07-08T08:25:23Z</time>
      </trkpt>
      <trkpt lat="45.13925" lon="6.09996">
        <ele>2100.5</ele>
        <time>2024-07-08T08:25:24Z</time>
      </trkpt>
      <trkpt lat="45.13925" lon="6.09996">
        <ele>2100.5</ele>
        <time>2024-07-08T08:25:25Z</time>
      </trkpt>
      <trkpt lat="45.13926" lon="6.09997">
        <ele>2100.7</ele>
        <time>2024-07-08T08:25:26Z</time>
      </trkpt>
      <trkpt lat="45.13926" lon="6.09998">
        <ele>2100.8</ele>
        <time>2024-07-08T08:25:27Z</time>
      </trkpt>
      <trkpt lat="45.13927" lon="6.09998">
        <ele>2101</ele>
        <time>2024-07-08T08:25:28Z</time>
      </trkpt>
      <trkpt lat="45.13928" lon="6.09998">
        <ele>2101.2</ele>
        <time>2024-07-08T08:25:29Z</time>
      </trkpt>
      <trkpt lat="45.13928" lon="6.09998">
        <ele>2101.3</ele>
        <time>2024-07-08T08:25:30Z</time>
      </trkpt>
      <trkpt lat="45.13929" lon="6.09999">
        <ele>2101.4</ele>
        <time>2024-07-08T08:25:31Z</time>
      </trkpt>
      <trkpt lat="45.13929" lon="6.09999">
        <ele>2101.5</ele>
        <time>2024-07-08T08:25:32Z</time>
      </trkpt>
      <trkpt lat="45.13929" lon="6.1">
        <ele>2101.6</ele>
        <time>2024-07-08T08:25:33Z</time>
      </trkpt>
      <trkpt lat="45.13929" lon="6.10001">
        <ele>2101.8</ele>
        <time>2024-07-08T08:25:34Z</time>
      </trkpt>
      <trkpt lat="45.13929" lon="6.10001">
        <ele>2101.9</ele>
        <time>2024-07-08T08:25:35Z</time>
      </trkpt>
      <trkpt lat="45.13929" lon="6.10003">
        <ele>2102.1</ele>
        <time>2024-07-08T08:25:36Z</time>
      </trkpt>
      <trkpt lat="45.1393" lon="6.10004">
        <ele>2102.3</ele>
        <time>2024-07-08T08:25:37Z</time>
      </trkpt>
      <trkpt lat="45.1393" lon="6.10004">
        <ele>2102.4</ele>
        <time>2024-07-08T08:25:38Z</time>
      </trkpt>
      <trkpt lat="45.13931" lon="6.10004">
        <ele>2102.5</ele>
        <time>2024-07-08T08:25:39Z</time>
      </trkpt>
      <trkpt lat="45.13931" lon="6.10004">
        <ele>2102.6</ele>
        <time>2024-07-08T08:25:40Z</time>
      </trkpt>
      <trkpt lat="45.13931" lon="6.10004">
        <ele>2102.7</ele>
        <time>2024-07-08T08:25:41Z</time>
      </trkpt>
      <trkpt lat="45.13932" lon="6.10005">
        <ele>2102.8</ele>
        <time>2024-07-08T08:25:42Z</time>
      </trkpt>
      <trkpt lat="45.13932" lon="6.10005">
        <ele>2102.8</ele>
        <time>2024-07-08T08:25:43Z</time>
      </trkpt>
      <trkpt lat="45.13932" lon="6.10005">
        <ele>2102.8</ele>
        <time>2024-07-08T08:25:44Z</time>
      </trkpt>
      <trkpt lat="45.13932" lon="6.10005">
        <ele>2102.9</ele>
        <time>2024-07-08T08:25:45Z</time>
      </trkpt>
      <trkpt lat="45.13932" lon="6.10004">
        <ele>2102.9</ele>
        <time>2024-07-08T08:25:46Z</time>
      </trkpt>
      <trkpt lat="45.13932" lon="6.10004">
        <ele>2103</ele>
        <time>2024-07-08T08:25:47Z</time>
      </trkpt>
      <trkpt lat="45.13932" lon="6.10004">
        <ele>2103</ele>
        <time>2024-07-08T08:25:48Z</time>
      </trkpt>
      <trkpt lat="45.13932" lon="6.10004">
        <ele>2103</ele>
        <time>2024-07-08T08:25:49Z</time>
      </trkpt>
      <trkpt lat="45.13932" lon="6.10004">
        <ele>2103</ele>
        <time>2024-07-08T08:25:50Z</time>
      </trkpt>
      <trkpt lat="45.13932" lon="6.10004">
        <ele>2103</ele>
        <time>2024-07-08T08:25:51Z</time>
      </trkpt>
      <trkpt lat="45.13932" lon="6.10004">
        <ele>2103</ele>
        <time>2024-07-08T08:25:52Z</time>
      </trkpt>
      <trkpt lat="45.13932" lon="6.10004">
        <ele>2103</ele>
        <time>2024-07-08T08:25:53Z</time>
      </trkpt>
      <trkpt lat="45.13932" lon="6.10004">
        <ele>2103.1</ele>
        <time>2024-07-08T08:25:54Z</time>
      </trkpt>
      <trkpt lat="45.13932" lon="6.10004">
        <ele>2103.1</ele>
        <time>2024-07-08T08:25:55Z</time>
      </trkpt>
      <trkpt lat="45.13932" lon="6.10005">
        <ele>2103.3</ele>
        <time>2024-07-08T08:25:56Z</time>
      </trkpt>
      <trkpt lat="45.13933" lon="6.10006">
        <ele>2103.5</ele>
        <time>2024-07-08T08:25:57Z</time>
      </trkpt>
      <trkpt lat="45.13933" lon="6.10007">
        <ele>2103.7</ele>
        <time>2024-07-08T08:25:58Z</time>
      </trkpt>
      <trkpt lat="45.13937" lon="6.10005">
        <ele>2104.6</ele>
        <time>2024-07-08T08:26:00Z</time>
      </trkpt>
      <trkpt lat="45.13937" lon="6.10004">
        <ele>2104.7</ele>
        <time>2024-07-08T08:26:01Z</time>
      </trkpt>
      <trkpt lat="45.13936" lon="6.10005">
        <ele>2104.8</ele>
        <time>2024-07-08T08:26:03Z</time>
      </trkpt>
      <trkpt lat="45.13936" lon="6.10005">
        <ele>2104.8</ele>
        <time>2024-07-08T08:26:04Z</time>
      </trkpt>
      <trkpt lat="45.13936" lon="6.10005">
        <ele>2104.8</ele>
        <time>2024-07-08T08:26:05Z</time>
      </trkpt>
      <trkpt lat="45.13936" lon="6.10005">
        <ele>2104.8</ele>
        <time>2024-07-08T08:26:06Z</time>
      </trkpt>
      <trkpt lat="45.13936" lon="6.10005">
        <ele>2104.8</ele>
        <time>2024-07-08T08:26:07Z</time>
      </trkpt>
      <trkpt lat="45.13936" lon="6.10005">
        <ele>2104.8</ele>
        <time>2024-07-08T08:26:08Z</time>
      </trkpt>
      <trkpt lat="45.13936" lon="6.10005">
        <ele>2104.8</ele>
        <time>2024-07-08T08:26:09Z</time>
      </trkpt>
      <trkpt lat="45.13936" lon="6.10004">
        <ele>2104.9</ele>
        <time>2024-07-08T08:26:10Z</time>
      </trkpt>
      <trkpt lat="45.13936" lon="6.10004">
        <ele>2104.9</ele>
        <time>2024-07-08T08:26:11Z</time>
      </trkpt>
      <trkpt lat="45.13936" lon="6.10004">
        <ele>2104.9</ele>
        <time>2024-07-08T08:26:13Z</time>
      </trkpt>
      <trkpt lat="45.13936" lon="6.10004">
        <ele>2104.9</ele>
        <time>2024-07-08T08:26:14Z</time>
      </trkpt>
      <trkpt lat="45.13936" lon="6.10004">
        <ele>2104.9</ele>
        <time>2024-07-08T08:26:15Z</time>
      </trkpt>
      <trkpt lat="45.13936" lon="6.10004">
        <ele>2104.9</ele>
        <time>2024-07-08T08:26:16Z</time>
      </trkpt>
      <trkpt lat="45.13936" lon="6.10004">
        <ele>2105</ele>
        <time>2024-07-08T08:26:17Z</time>
      </trkpt>
      <trkpt lat="45.13936" lon="6.10004">
        <ele>2105</ele>
        <time>2024-07-08T08:26:18Z</time>
      </trkpt>
      <trkpt lat="45.13936" lon="6.10004">
        <ele>2105</ele>
        <time>2024-07-08T08:26:19Z</time>
      </trkpt>
      <trkpt lat="45.13936" lon="6.10004">
        <ele>2105</ele>
        <time>2024-07-08T08:26:20Z</time>
      </trkpt>
      <trkpt lat="45.13936" lon="6.10004">
        <ele>2105</ele>
        <time>2024-07-08T08:26:21Z</time>
      </trkpt>
      <trkpt lat="45.13936" lon="6.10004">
        <ele>2105</ele>
        <time>2024-07-08T08:26:22Z</time>
      </trkpt>
      <trkpt lat="45.13936" lon="6.10004">
        <ele>2105</ele>
        <time>2024-07-08T08:26:23Z</time>
      </trkpt>
      <trkpt lat="45.13936" lon="6.10004">
        <ele>2105</ele>
        <time>2024-07-08T08:26:24Z</time>
      </trkpt>
      <trkpt lat="45.13936" lon="6.10004">
        <ele>2105</ele>
        <time>2024-07-08T08:26:25Z</time>
      </trkpt>
      <trkpt lat="45.13936" lon="6.10005">
        <ele>2105</ele>
        <time>2024-07-08T08:26:26Z</time>
      </trkpt>
      <trkpt lat="45.13936" lon="6.10005">
        <ele>2105.1</ele>
        <time>2024-07-08T08:26:27Z</time>
      </trkpt>
      <trkpt lat="45.13936" lon="6.10004">
        <ele>2105.1</ele>
        <time>2024-07-08T08:26:28Z</time>
      </trkpt>
      <trkpt lat="45.13936" lon="6.10004">
        <ele>2105.2</ele>
        <time>2024-07-08T08:26:29Z</time>
      </trkpt>
      <trkpt lat="45.13936" lon="6.10004">
        <ele>2105.2</ele>
        <time>2024-07-08T08:26:30Z</time>
      </trkpt>
      <trkpt lat="45.13936" lon="6.10004">
        <ele>2105.2</ele>
        <time>2024-07-08T08:26:31Z</time>
      </trkpt>
      <trkpt lat="45.13936" lon="6.10004">
        <ele>2105.2</ele>
        <time>2024-07-08T08:26:32Z</time>
      </trkpt>
      <trkpt lat="45.13936" lon="6.10004">
        <ele>2105.2</ele>
        <time>2024-07-08T08:26:33Z</time>
      </trkpt>
      <trkpt lat="45.13936" lon="6.10004">
        <ele>2105.2</ele>
        <time>2024-07-08T08:26:34Z</time>
      </trkpt>
      <trkpt lat="45.13936" lon="6.10004">
        <ele>2105.2</ele>
        <time>2024-07-08T08:26:35Z</time>
      </trkpt>
      <trkpt lat="45.13936" lon="6.10004">
        <ele>2105.2</ele>
        <time>2024-07-08T08:26:36Z</time>
      </trkpt>
      <trkpt lat="45.13936" lon="6.10004">
        <ele>2105.2</ele>
        <time>2024-07-08T08:26:37Z</time>
      </trkpt>
      <trkpt lat="45.13936" lon="6.10004">
        <ele>2105.2</ele>
        <time>2024-07-08T08:26:38Z</time>
      </trkpt>
      <trkpt lat="45.13936" lon="6.10004">
        <ele>2105.2</ele>
        <time>2024-07-08T08:26:39Z</time>
      </trkpt>
      <trkpt lat="45.13936" lon="6.10004">
        <ele>2105.2</ele>
        <time>2024-07-08T08:26:40Z</time>
      </trkpt>
      <trkpt lat="45.13936" lon="6.10004">
        <ele>2105.2</ele>
        <time>2024-07-08T08:26:41Z</time>
      </trkpt>
      <trkpt lat="45.13936" lon="6.10004">
        <ele>2105.2</ele>
        <time>2024-07-08T08:26:42Z</time>
      </trkpt>
      <trkpt lat="45.13936" lon="6.10004">
        <ele>2105.2</ele>
        <time>2024-07-08T08:26:43Z</time>
      </trkpt>
      <trkpt lat="45.13936" lon="6.10004">
        <ele>2105.2</ele>
        <time>2024-07-08T08:26:44Z</time>
      </trkpt>
      <trkpt lat="45.13936" lon="6.10004">
        <ele>2105.2</ele>
        <time>2024-07-08T08:26:45Z</time>
      </trkpt>
      <trkpt lat="45.13936" lon="6.10004">
        <ele>2105.2</ele>
        <time>2024-07-08T08:26:46Z</time>
      </trkpt>
      <trkpt lat="45.13936" lon="6.10004">
        <ele>2105.2</ele>
        <time>2024-07-08T08:26:47Z</time>
      </trkpt>
      <trkpt lat="45.13936" lon="6.10004">
        <ele>2105.2</ele>
        <time>2024-07-08T08:26:48Z</time>
      </trkpt>
      <trkpt lat="45.13936" lon="6.10005">
        <ele>2105.3</ele>
        <time>2024-07-08T08:26:49Z</time>
      </trkpt>
      <trkpt lat="45.13936" lon="6.10005">
        <ele>2105.4</ele>
        <time>2024-07-08T08:26:50Z</time>
      </trkpt>
      <trkpt lat="45.13936" lon="6.10005">
        <ele>2105.4</ele>
        <time>2024-07-08T08:26:51Z</time>
      </trkpt>
      <trkpt lat="45.13936" lon="6.10005">
        <ele>2105.4</ele>
        <time>2024-07-08T08:26:52Z</time>
      </trkpt>
      <trkpt lat="45.13936" lon="6.10005">
        <ele>2105.4</ele>
        <time>2024-07-08T08:26:53Z</time>
      </trkpt>
      <trkpt lat="45.13936" lon="6.10005">
        <ele>2105.4</ele>
        <time>2024-07-08T08:26:54Z</time>
      </trkpt>
      <trkpt lat="45.13936" lon="6.10004">
        <ele>2105.4</ele>
        <time>2024-07-08T08:26:55Z</time>
      </trkpt>
      <trkpt lat="45.13936" lon="6.10004">
        <ele>2105.5</ele>
        <time>2024-07-08T08:26:56Z</time>
      </trkpt>
      <trkpt lat="45.13936" lon="6.10004">
        <ele>2105.5</ele>
        <time>2024-07-08T08:26:57Z</time>
      </trkpt>
      <trkpt lat="45.13936" lon="6.10004">
        <ele>2105.5</ele>
        <time>2024-07-08T08:26:58Z</time>
      </trkpt>
      <trkpt lat="45.13937" lon="6.10005">
        <ele>2105.5</ele>
        <time>2024-07-08T08:26:59Z</time>
      </trkpt>
      <trkpt lat="45.13937" lon="6.10005">
        <ele>2105.6</ele>
        <time>2024-07-08T08:27:00Z</time>
      </trkpt>
      <trkpt lat="45.13937" lon="6.10006">
        <ele>2105.8</ele>
        <time>2024-07-08T08:27:01Z</time>
      </trkpt>
      <trkpt lat="45.13937" lon="6.10008">
        <ele>2106.1</ele>
        <time>2024-07-08T08:27:02Z</time>
      </trkpt>
      <trkpt lat="45.13936" lon="6.10009">
        <ele>2106.3</ele>
        <time>2024-07-08T08:27:03Z</time>
      </trkpt>
      <trkpt lat="45.13936" lon="6.1001">
        <ele>2106.6</ele>
        <time>2024-07-08T08:27:04Z</time>
      </trkpt>
      <trkpt lat="45.13936" lon="6.10012">
        <ele>2106.9</ele>
        <time>2024-07-08T08:27:05Z</time>
      </trkpt>
      <trkpt lat="45.13936" lon="6.10012">
        <ele>2107.1</ele>
        <time>2024-07-08T08:27:06Z</time>
      </trkpt>
      <trkpt lat="45.13937" lon="6.10013">
        <ele>2107.3</ele>
        <time>2024-07-08T08:27:07Z</time>
      </trkpt>
      <trkpt lat="45.13938" lon="6.10014">
        <ele>2107.6</ele>
        <time>2024-07-08T08:27:08Z</time>
      </trkpt>
      <trkpt lat="45.13938" lon="6.10015">
        <ele>2107.7</ele>
        <time>2024-07-08T08:27:09Z</time>
      </trkpt>
      <trkpt lat="45.13939" lon="6.10015">
        <ele>2107.9</ele>
        <time>2024-07-08T08:27:10Z</time>
      </trkpt>
      <trkpt lat="45.1394" lon="6.10015">
        <ele>2108.2</ele>
        <time>2024-07-08T08:27:11Z</time>
      </trkpt>
      <trkpt lat="45.13941" lon="6.10014">
        <ele>2108.3</ele>
        <time>2024-07-08T08:27:12Z</time>
      </trkpt>
      <trkpt lat="45.13941" lon="6.10015">
        <ele>2108.5</ele>
        <time>2024-07-08T08:27:13Z</time>
      </trkpt>
      <trkpt lat="45.13942" lon="6.10016">
        <ele>2108.7</ele>
        <time>2024-07-08T08:27:14Z</time>
      </trkpt>
      <trkpt lat="45.13943" lon="6.10016">
        <ele>2109</ele>
        <time>2024-07-08T08:27:15Z</time>
      </trkpt>
      <trkpt lat="45.13943" lon="6.10016">
        <ele>2109.2</ele>
        <time>2024-07-08T08:27:16Z</time>
      </trkpt>
      <trkpt lat="45.13944" lon="6.10015">
        <ele>2109.4</ele>
        <time>2024-07-08T08:27:17Z</time>
      </trkpt>
      <trkpt lat="45.13945" lon="6.10015">
        <ele>2109.6</ele>
        <time>2024-07-08T08:27:18Z</time>
      </trkpt>
      <trkpt lat="45.13945" lon="6.10015">
        <ele>2109.7</ele>
        <time>2024-07-08T08:27:19Z</time>
      </trkpt>
      <trkpt lat="45.13945" lon="6.10015">
        <ele>2109.7</ele>
        <time>2024-07-08T08:27:20Z</time>
      </trkpt>
      <trkpt lat="45.13945" lon="6.10015">
        <ele>2109.8</ele>
        <time>2024-07-08T08:27:21Z</time>
      </trkpt>
      <trkpt lat="45.13946" lon="6.10015">
        <ele>2109.9</ele>
        <time>2024-07-08T08:27:22Z</time>
      </trkpt>
      <trkpt lat="45.13946" lon="6.10015">
        <ele>2110</ele>
        <time>2024-07-08T08:27:23Z</time>
      </trkpt>
      <trkpt lat="45.13946" lon="6.10015">
        <ele>2110</ele>
        <time>2024-07-08T08:27:24Z</time>
      </trkpt>
      <trkpt lat="45.13947" lon="6.10015">
        <ele>2110.1</ele>
        <time>2024-07-08T08:27:25Z</time>
      </trkpt>
      <trkpt lat="45.13947" lon="6.10017">
        <ele>2110.4</ele>
        <time>2024-07-08T08:27:26Z</time>
      </trkpt>
      <trkpt lat="45.13946" lon="6.10017">
        <ele>2110.6</ele>
        <time>2024-07-08T08:27:27Z</time>
      </trkpt>
      <trkpt lat="45.13946" lon="6.10018">
        <ele>2110.7</ele>
        <time>2024-07-08T08:27:28Z</time>
      </trkpt>
      <trkpt lat="45.13946" lon="6.10019">
        <ele>2110.9</ele>
        <time>2024-07-08T08:27:29Z</time>
      </trkpt>
      <trkpt lat="45.13945" lon="6.10019">
        <ele>2111</ele>
        <time>2024-07-08T08:27:30Z</time>
      </trkpt>
      <trkpt lat="45.13946" lon="6.1002">
        <ele>2111.2</ele>
        <time>2024-07-08T08:27:31Z</time>
      </trkpt>
      <trkpt lat="45.13946" lon="6.1002">
        <ele>2111.3</ele>
        <time>2024-07-08T08:27:33Z</time>
      </trkpt>
      <trkpt lat="45.13947" lon="6.10021">
        <ele>2111.5</ele>
        <time>2024-07-08T08:27:34Z</time>
      </trkpt>
      <trkpt lat="45.13947" lon="6.10021">
        <ele>2111.7</ele>
        <time>2024-07-08T08:27:35Z</time>
      </trkpt>
      <trkpt lat="45.13948" lon="6.10022">
        <ele>2112</ele>
        <time>2024-07-08T08:27:36Z</time>
      </trkpt>
      <trkpt lat="45.13948" lon="6.10022">
        <ele>2112</ele>
        <time>2024-07-08T08:27:37Z</time>
      </trkpt>
      <trkpt lat="45.13949" lon="6.10022">
        <ele>2112.1</ele>
        <time>2024-07-08T08:27:38Z</time>
      </trkpt>
      <trkpt lat="45.13949" lon="6.10022">
        <ele>2112.1</ele>
        <time>2024-07-08T08:27:39Z</time>
      </trkpt>
      <trkpt lat="45.13949" lon="6.10022">
        <ele>2112.2</ele>
        <time>2024-07-08T08:27:40Z</time>
      </trkpt>
      <trkpt lat="45.13949" lon="6.10021">
        <ele>2112.3</ele>
        <time>2024-07-08T08:27:41Z</time>
      </trkpt>
      <trkpt lat="45.13949" lon="6.10021">
        <ele>2112.3</ele>
        <time>2024-07-08T08:27:42Z</time>
      </trkpt>
      <trkpt lat="45.13949" lon="6.10021">
        <ele>2112.3</ele>
        <time>2024-07-08T08:27:43Z</time>
      </trkpt>
      <trkpt lat="45.13949" lon="6.10021">
        <ele>2112.4</ele>
        <time>2024-07-08T08:27:44Z</time>
      </trkpt>
      <trkpt lat="45.13949" lon="6.10021">
        <ele>2112.5</ele>
        <time>2024-07-08T08:27:45Z</time>
      </trkpt>
      <trkpt lat="45.1395" lon="6.10021">
        <ele>2112.7</ele>
        <time>2024-07-08T08:27:46Z</time>
      </trkpt>
      <trkpt lat="45.1395" lon="6.10022">
        <ele>2112.8</ele>
        <time>2024-07-08T08:27:47Z</time>
      </trkpt>
      <trkpt lat="45.1395" lon="6.10023">
        <ele>2113</ele>
        <time>2024-07-08T08:27:48Z</time>
      </trkpt>
      <trkpt lat="45.1395" lon="6.10024">
        <ele>2113.3</ele>
        <time>2024-07-08T08:27:49Z</time>
      </trkpt>
      <trkpt lat="45.13949" lon="6.10025">
        <ele>2113.4</ele>
        <time>2024-07-08T08:27:50Z</time>
      </trkpt>
      <trkpt lat="45.1395" lon="6.10026">
        <ele>2113.6</ele>
        <time>2024-07-08T08:27:51Z</time>
      </trkpt>
      <trkpt lat="45.13949" lon="6.10026">
        <ele>2113.8</ele>
        <time>2024-07-08T08:27:52Z</time>
      </trkpt>
      <trkpt lat="45.13949" lon="6.10027">
        <ele>2113.9</ele>
        <time>2024-07-08T08:27:53Z</time>
      </trkpt>
      <trkpt lat="45.13948" lon="6.10027">
        <ele>2114.2</ele>
        <time>2024-07-08T08:27:54Z</time>
      </trkpt>
      <trkpt lat="45.13947" lon="6.10027">
        <ele>2114.4</ele>
        <time>2024-07-08T08:27:55Z</time>
      </trkpt>
      <trkpt lat="45.13946" lon="6.10027">
        <ele>2114.6</ele>
        <time>2024-07-08T08:27:56Z</time>
      </trkpt>
      <trkpt lat="45.13946" lon="6.10027">
        <ele>2114.8</ele>
        <time>2024-07-08T08:27:57Z</time>
      </trkpt>
      <trkpt lat="45.13945" lon="6.10026">
        <ele>2114.9</ele>
        <time>2024-07-08T08:27:58Z</time>
      </trkpt>
      <trkpt lat="45.13945" lon="6.10027">
        <ele>2115</ele>
        <time>2024-07-08T08:27:59Z</time>
      </trkpt>
      <trkpt lat="45.13945" lon="6.10027">
        <ele>2115.2</ele>
        <time>2024-07-08T08:28:00Z</time>
      </trkpt>
      <trkpt lat="45.13944" lon="6.10028">
        <ele>2115.4</ele>
        <time>2024-07-08T08:28:01Z</time>
      </trkpt>
      <trkpt lat="45.13944" lon="6.10028">
        <ele>2115.5</ele>
        <time>2024-07-08T08:28:02Z</time>
      </trkpt>
      <trkpt lat="45.13944" lon="6.10029">
        <ele>2115.7</ele>
        <time>2024-07-08T08:28:03Z</time>
      </trkpt>
      <trkpt lat="45.13944" lon="6.1003">
        <ele>2115.9</ele>
        <time>2024-07-08T08:28:04Z</time>
      </trkpt>
      <trkpt lat="45.13945" lon="6.10031">
        <ele>2116.1</ele>
        <time>2024-07-08T08:28:05Z</time>
      </trkpt>
      <trkpt lat="45.13946" lon="6.10031">
        <ele>2116.4</ele>
        <time>2024-07-08T08:28:06Z</time>
      </trkpt>
      <trkpt lat="45.13946" lon="6.10031">
        <ele>2116.6</ele>
        <time>2024-07-08T08:28:07Z</time>
      </trkpt>
      <trkpt lat="45.13947" lon="6.10031">
        <ele>2116.8</ele>
        <time>2024-07-08T08:28:08Z</time>
      </trkpt>
      <trkpt lat="45.13947" lon="6.10031">
        <ele>2116.9</ele>
        <time>2024-07-08T08:28:09Z</time>
      </trkpt>
      <trkpt lat="45.13948" lon="6.10031">
        <ele>2117.1</ele>
        <time>2024-07-08T08:28:10Z</time>
      </trkpt>
      <trkpt lat="45.13949" lon="6.10031">
        <ele>2117.4</ele>
        <time>2024-07-08T08:28:12Z</time>
      </trkpt>
      <trkpt lat="45.13949" lon="6.10031">
        <ele>2117.5</ele>
        <time>2024-07-08T08:28:13Z</time>
      </trkpt>
      <trkpt lat="45.1395" lon="6.1003">
        <ele>2117.7</ele>
        <time>2024-07-08T08:28:14Z</time>
      </trkpt>
      <trkpt lat="45.1395" lon="6.1003">
        <ele>2117.9</ele>
        <time>2024-07-08T08:28:15Z</time>
      </trkpt>
      <trkpt lat="45.13951" lon="6.10029">
        <ele>2118.2</ele>
        <time>2024-07-08T08:28:16Z</time>
      </trkpt>
      <trkpt lat="45.13952" lon="6.10029">
        <ele>2118.4</ele>
        <time>2024-07-08T08:28:17Z</time>
      </trkpt>
      <trkpt lat="45.13952" lon="6.1003">
        <ele>2118.6</ele>
        <time>2024-07-08T08:28:18Z</time>
      </trkpt>
      <trkpt lat="45.13953" lon="6.1003">
        <ele>2118.9</ele>
        <time>2024-07-08T08:28:19Z</time>
      </trkpt>
      <trkpt lat="45.13954" lon="6.1003">
        <ele>2119.3</ele>
        <time>2024-07-08T08:28:20Z</time>
      </trkpt>
      <trkpt lat="45.13956" lon="6.10031">
        <ele>2119.8</ele>
        <time>2024-07-08T08:28:21Z</time>
      </trkpt>
      <trkpt lat="45.13957" lon="6.10032">
        <ele>2120</ele>
        <time>2024-07-08T08:28:22Z</time>
      </trkpt>
      <trkpt lat="45.13957" lon="6.10033">
        <ele>2120.3</ele>
        <time>2024-07-08T08:28:23Z</time>
      </trkpt>
      <trkpt lat="45.13958" lon="6.10034">
        <ele>2120.7</ele>
        <time>2024-07-08T08:28:24Z</time>
      </trkpt>
      <trkpt lat="45.13959" lon="6.10035">
        <ele>2121</ele>
        <time>2024-07-08T08:28:25Z</time>
      </trkpt>
      <trkpt lat="45.1396" lon="6.10036">
        <ele>2121.4</ele>
        <time>2024-07-08T08:28:26Z</time>
      </trkpt>
      <trkpt lat="45.1396" lon="6.10037">
        <ele>2121.7</ele>
        <time>2024-07-08T08:28:27Z</time>
      </trkpt>
      <trkpt lat="45.13961" lon="6.10038">
        <ele>2122</ele>
        <time>2024-07-08T08:28:28Z</time>
      </trkpt>
      <trkpt lat="45.13961" lon="6.1004">
        <ele>2122.2</ele>
        <time>2024-07-08T08:28:29Z</time>
      </trkpt>
      <trkpt lat="45.13962" lon="6.10041">
        <ele>2122.5</ele>
        <time>2024-07-08T08:28:30Z</time>
      </trkpt>
      <trkpt lat="45.13962" lon="6.10042">
        <ele>2122.8</ele>
        <time>2024-07-08T08:28:31Z</time>
      </trkpt>
      <trkpt lat="45.13963" lon="6.10042">
        <ele>2123</ele>
        <time>2024-07-08T08:28:32Z</time>
      </trkpt>
      <trkpt lat="45.13963" lon="6.10043">
        <ele>2123.2</ele>
        <time>2024-07-08T08:28:33Z</time>
      </trkpt>
      <trkpt lat="45.13964" lon="6.10044">
        <ele>2123.4</ele>
        <time>2024-07-08T08:28:34Z</time>
      </trkpt>
      <trkpt lat="45.13965" lon="6.10045">
        <ele>2123.7</ele>
        <time>2024-07-08T08:28:35Z</time>
      </trkpt>
      <trkpt lat="45.13965" lon="6.10046">
        <ele>2123.9</ele>
        <time>2024-07-08T08:28:36Z</time>
      </trkpt>
      <trkpt lat="45.13966" lon="6.10047">
        <ele>2124.1</ele>
        <time>2024-07-08T08:28:37Z</time>
      </trkpt>
      <trkpt lat="45.13966" lon="6.10047">
        <ele>2124.2</ele>
        <time>2024-07-08T08:28:38Z</time>
      </trkpt>
      <trkpt lat="45.13966" lon="6.10048">
        <ele>2124.4</ele>
        <time>2024-07-08T08:28:39Z</time>
      </trkpt>
      <trkpt lat="45.13967" lon="6.10049">
        <ele>2124.7</ele>
        <time>2024-07-08T08:28:40Z</time>
      </trkpt>
      <trkpt lat="45.13967" lon="6.10051">
        <ele>2125</ele>
        <time>2024-07-08T08:28:41Z</time>
      </trkpt>
      <trkpt lat="45.13968" lon="6.10052">
        <ele>2125.2</ele>
        <time>2024-07-08T08:28:42Z</time>
      </trkpt>
      <trkpt lat="45.13968" lon="6.10054">
        <ele>2125.4</ele>
        <time>2024-07-08T08:28:43Z</time>
      </trkpt>
      <trkpt lat="45.13968" lon="6.10055">
        <ele>2125.6</ele>
        <time>2024-07-08T08:28:44Z</time>
      </trkpt>
      <trkpt lat="45.13969" lon="6.10056">
        <ele>2125.8</ele>
        <time>2024-07-08T08:28:45Z</time>
      </trkpt>
      <trkpt lat="45.13969" lon="6.10057">
        <ele>2125.9</ele>
        <time>2024-07-08T08:28:46Z</time>
      </trkpt>
      <trkpt lat="45.1397" lon="6.10057">
        <ele>2126.1</ele>
        <time>2024-07-08T08:28:47Z</time>
      </trkpt>
      <trkpt lat="45.13971" lon="6.10058">
        <ele>2126.3</ele>
        <time>2024-07-08T08:28:48Z</time>
      </trkpt>
      <trkpt lat="45.13971" lon="6.10058">
        <ele>2126.4</ele>
        <time>2024-07-08T08:28:49Z</time>
      </trkpt>
      <trkpt lat="45.13972" lon="6.10059">
        <ele>2126.6</ele>
        <time>2024-07-08T08:28:50Z</time>
      </trkpt>
      <trkpt lat="45.13973" lon="6.1006">
        <ele>2126.8</ele>
        <time>2024-07-08T08:28:51Z</time>
      </trkpt>
      <trkpt lat="45.13973" lon="6.10061">
        <ele>2126.9</ele>
        <time>2024-07-08T08:28:52Z</time>
      </trkpt>
      <trkpt lat="45.13973" lon="6.10062">
        <ele>2127.1</ele>
        <time>2024-07-08T08:28:53Z</time>
      </trkpt>
      <trkpt lat="45.13974" lon="6.10063">
        <ele>2127.2</ele>
        <time>2024-07-08T08:28:54Z</time>
      </trkpt>
      <trkpt lat="45.13974" lon="6.10064">
        <ele>2127.3</ele>
        <time>2024-07-08T08:28:55Z</time>
      </trkpt>
      <trkpt lat="45.13974" lon="6.10065">
        <ele>2127.4</ele>
        <time>2024-07-08T08:28:56Z</time>
      </trkpt>
      <trkpt lat="45.13974" lon="6.10066">
        <ele>2127.5</ele>
        <time>2024-07-08T08:28:57Z</time>
      </trkpt>
      <trkpt lat="45.13975" lon="6.10067">
        <ele>2127.6</ele>
        <time>2024-07-08T08:28:58Z</time>
      </trkpt>
      <trkpt lat="45.13975" lon="6.10067">
        <ele>2127.7</ele>
        <time>2024-07-08T08:28:59Z</time>
      </trkpt>
      <trkpt lat="45.13975" lon="6.10067">
        <ele>2127.7</ele>
        <time>2024-07-08T08:29:00Z</time>
      </trkpt>
      <trkpt lat="45.13976" lon="6.10068">
        <ele>2127.8</ele>
        <time>2024-07-08T08:29:01Z</time>
      </trkpt>
      <trkpt lat="45.13976" lon="6.10068">
        <ele>2127.9</ele>
        <time>2024-07-08T08:29:02Z</time>
      </trkpt>
      <trkpt lat="45.13977" lon="6.10068">
        <ele>2128</ele>
        <time>2024-07-08T08:29:03Z</time>
      </trkpt>
      <trkpt lat="45.13978" lon="6.10068">
        <ele>2128.1</ele>
        <time>2024-07-08T08:29:04Z</time>
      </trkpt>
      <trkpt lat="45.13978" lon="6.10068">
        <ele>2128.2</ele>
        <time>2024-07-08T08:29:05Z</time>
      </trkpt>
      <trkpt lat="45.13978" lon="6.10067">
        <ele>2128.2</ele>
        <time>2024-07-08T08:29:06Z</time>
      </trkpt>
      <trkpt lat="45.13978" lon="6.10067">
        <ele>2128.3</ele>
        <time>2024-07-08T08:29:07Z</time>
      </trkpt>
      <trkpt lat="45.13977" lon="6.10067">
        <ele>2128.4</ele>
        <time>2024-07-08T08:29:08Z</time>
      </trkpt>
      <trkpt lat="45.13977" lon="6.10066">
        <ele>2128.4</ele>
        <time>2024-07-08T08:29:09Z</time>
      </trkpt>
      <trkpt lat="45.13977" lon="6.10066">
        <ele>2128.5</ele>
        <time>2024-07-08T08:29:10Z</time>
      </trkpt>
      <trkpt lat="45.13977" lon="6.10066">
        <ele>2128.5</ele>
        <time>2024-07-08T08:29:11Z</time>
      </trkpt>
      <trkpt lat="45.13977" lon="6.10066">
        <ele>2128.5</ele>
        <time>2024-07-08T08:29:12Z</time>
      </trkpt>
      <trkpt lat="45.13977" lon="6.10066">
        <ele>2128.5</ele>
        <time>2024-07-08T08:29:13Z</time>
      </trkpt>
      <trkpt lat="45.13977" lon="6.10066">
        <ele>2128.5</ele>
        <time>2024-07-08T08:29:14Z</time>
      </trkpt>
      <trkpt lat="45.13977" lon="6.10066">
        <ele>2128.5</ele>
        <time>2024-07-08T08:29:15Z</time>
      </trkpt>
      <trkpt lat="45.13977" lon="6.10066">
        <ele>2128.5</ele>
        <time>2024-07-08T08:29:16Z</time>
      </trkpt>
      <trkpt lat="45.13977" lon="6.10066">
        <ele>2128.5</ele>
        <time>2024-07-08T08:29:17Z</time>
      </trkpt>
      <trkpt lat="45.13977" lon="6.10066">
        <ele>2128.5</ele>
        <time>2024-07-08T08:29:18Z</time>
      </trkpt>
      <trkpt lat="45.13977" lon="6.10066">
        <ele>2128.5</ele>
        <time>2024-07-08T08:29:19Z</time>
      </trkpt>
      <trkpt lat="45.13977" lon="6.10066">
        <ele>2128.5</ele>
        <time>2024-07-08T08:29:20Z</time>
      </trkpt>
      <trkpt lat="45.13977" lon="6.10066">
        <ele>2128.5</ele>
        <time>2024-07-08T08:29:21Z</time>
      </trkpt>
      <trkpt lat="45.13977" lon="6.10066">
        <ele>2128.6</ele>
        <time>2024-07-08T08:29:22Z</time>
      </trkpt>
      <trkpt lat="45.13978" lon="6.10066">
        <ele>2128.7</ele>
        <time>2024-07-08T08:29:23Z</time>
      </trkpt>
      <trkpt lat="45.13979" lon="6.10066">
        <ele>2128.8</ele>
        <time>2024-07-08T08:29:24Z</time>
      </trkpt>
      <trkpt lat="45.1398" lon="6.10067">
        <ele>2128.9</ele>
        <time>2024-07-08T08:29:25Z</time>
      </trkpt>
      <trkpt lat="45.13981" lon="6.10067">
        <ele>2129.1</ele>
        <time>2024-07-08T08:29:26Z</time>
      </trkpt>
      <trkpt lat="45.13982" lon="6.10068">
        <ele>2129.2</ele>
        <time>2024-07-08T08:29:27Z</time>
      </trkpt>
      <trkpt lat="45.13982" lon="6.10067">
        <ele>2129.3</ele>
        <time>2024-07-08T08:29:28Z</time>
      </trkpt>
      <trkpt lat="45.13983" lon="6.10066">
        <ele>2129.4</ele>
        <time>2024-07-08T08:29:29Z</time>
      </trkpt>
      <trkpt lat="45.13982" lon="6.10065">
        <ele>2129.5</ele>
        <time>2024-07-08T08:29:30Z</time>
      </trkpt>
      <trkpt lat="45.13982" lon="6.10063">
        <ele>2129.6</ele>
        <time>2024-07-08T08:29:31Z</time>
      </trkpt>
      <trkpt lat="45.13982" lon="6.10063">
        <ele>2129.7</ele>
        <time>2024-07-08T08:29:32Z</time>
      </trkpt>
      <trkpt lat="45.13982" lon="6.10064">
        <ele>2129.7</ele>
        <time>2024-07-08T08:29:33Z</time>
      </trkpt>
      <trkpt lat="45.13982" lon="6.10064">
        <ele>2129.8</ele>
        <time>2024-07-08T08:29:34Z</time>
      </trkpt>
      <trkpt lat="45.13981" lon="6.10064">
        <ele>2129.8</ele>
        <time>2024-07-08T08:29:35Z</time>
      </trkpt>
      <trkpt lat="45.13981" lon="6.10064">
        <ele>2129.8</ele>
        <time>2024-07-08T08:29:36Z</time>
      </trkpt>
      <trkpt lat="45.13981" lon="6.10064">
        <ele>2129.9</ele>
        <time>2024-07-08T08:29:37Z</time>
      </trkpt>
      <trkpt lat="45.13981" lon="6.10064">
        <ele>2129.9</ele>
        <time>2024-07-08T08:29:38Z</time>
      </trkpt>
      <trkpt lat="45.13981" lon="6.10064">
        <ele>2129.9</ele>
        <time>2024-07-08T08:29:39Z</time>
      </trkpt>
      <trkpt lat="45.13981" lon="6.10064">
        <ele>2129.9</ele>
        <time>2024-07-08T08:29:40Z</time>
      </trkpt>
      <trkpt lat="45.13981" lon="6.10064">
        <ele>2129.9</ele>
        <time>2024-07-08T08:29:41Z</time>
      </trkpt>
      <trkpt lat="45.13981" lon="6.10064">
        <ele>2129.9</ele>
        <time>2024-07-08T08:29:42Z</time>
      </trkpt>
      <trkpt lat="45.13981" lon="6.10064">
        <ele>2129.9</ele>
        <time>2024-07-08T08:29:43Z</time>
      </trkpt>
      <trkpt lat="45.13981" lon="6.10064">
        <ele>2129.9</ele>
        <time>2024-07-08T08:29:44Z</time>
      </trkpt>
      <trkpt lat="45.13981" lon="6.10064">
        <ele>2129.9</ele>
        <time>2024-07-08T08:29:45Z</time>
      </trkpt>
      <trkpt lat="45.13981" lon="6.10064">
        <ele>2129.9</ele>
        <time>2024-07-08T08:29:46Z</time>
      </trkpt>
      <trkpt lat="45.13981" lon="6.10064">
        <ele>2129.9</ele>
        <time>2024-07-08T08:29:47Z</time>
      </trkpt>
      <trkpt lat="45.1398" lon="6.10064">
        <ele>2130</ele>
        <time>2024-07-08T08:29:48Z</time>
      </trkpt>
      <trkpt lat="45.1398" lon="6.10064">
        <ele>2130</ele>
        <time>2024-07-08T08:29:49Z</time>
      </trkpt>
      <trkpt lat="45.1398" lon="6.10064">
        <ele>2130</ele>
        <time>2024-07-08T08:29:50Z</time>
      </trkpt>
      <trkpt lat="45.1398" lon="6.10064">
        <ele>2130</ele>
        <time>2024-07-08T08:29:51Z</time>
      </trkpt>
      <trkpt lat="45.1398" lon="6.10064">
        <ele>2130</ele>
        <time>2024-07-08T08:29:52Z</time>
      </trkpt>
      <trkpt lat="45.1398" lon="6.10064">
        <ele>2130</ele>
        <time>2024-07-08T08:29:53Z</time>
      </trkpt>
      <trkpt lat="45.1398" lon="6.10064">
        <ele>2130</ele>
        <time>2024-07-08T08:29:54Z</time>
      </trkpt>
      <trkpt lat="45.1398" lon="6.10064">
        <ele>2130</ele>
        <time>2024-07-08T08:29:55Z</time>
      </trkpt>
      <trkpt lat="45.1398" lon="6.10064">
        <ele>2130</ele>
        <time>2024-07-08T08:29:56Z</time>
      </trkpt>
      <trkpt lat="45.1398" lon="6.10064">
        <ele>2130</ele>
        <time>2024-07-08T08:29:57Z</time>
      </trkpt>
      <trkpt lat="45.1398" lon="6.10064">
        <ele>2130</ele>
        <time>2024-07-08T08:29:58Z</time>
      </trkpt>
      <trkpt lat="45.1398" lon="6.10064">
        <ele>2130</ele>
        <time>2024-07-08T08:29:59Z</time>
      </trkpt>
      <trkpt lat="45.1398" lon="6.10064">
        <ele>2130</ele>
        <time>2024-07-08T08:30:00Z</time>
      </trkpt>
      <trkpt lat="45.1398" lon="6.10064">
        <ele>2130</ele>
        <time>2024-07-08T08:30:01Z</time>
      </trkpt>
      <trkpt lat="45.1398" lon="6.10063">
        <ele>2130</ele>
        <time>2024-07-08T08:30:02Z</time>
      </trkpt>
      <trkpt lat="45.1398" lon="6.10063">
        <ele>2130.1</ele>
        <time>2024-07-08T08:30:03Z</time>
      </trkpt>
      <trkpt lat="45.1398" lon="6.10063">
        <ele>2130.1</ele>
        <time>2024-07-08T08:30:04Z</time>
      </trkpt>
      <trkpt lat="45.13979" lon="6.10062">
        <ele>2130.1</ele>
        <time>2024-07-08T08:30:05Z</time>
      </trkpt>
      <trkpt lat="45.13979" lon="6.10062">
        <ele>2130.1</ele>
        <time>2024-07-08T08:30:06Z</time>
      </trkpt>
      <trkpt lat="45.13979" lon="6.10062">
        <ele>2130.1</ele>
        <time>2024-07-08T08:30:07Z</time>
      </trkpt>
      <trkpt lat="45.13979" lon="6.10062">
        <ele>2130.1</ele>
        <time>2024-07-08T08:30:08Z</time>
      </trkpt>
      <trkpt lat="45.13979" lon="6.10062">
        <ele>2130.1</ele>
        <time>2024-07-08T08:30:09Z</time>
      </trkpt>
      <trkpt lat="45.13979" lon="6.10062">
        <ele>2130.1</ele>
        <time>2024-07-08T08:30:10Z</time>
      </trkpt>
      <trkpt lat="45.13979" lon="6.10062">
        <ele>2130.1</ele>
        <time>2024-07-08T08:30:11Z</time>
      </trkpt>
      <trkpt lat="45.13979" lon="6.10062">
        <ele>2130.1</ele>
        <time>2024-07-08T08:30:12Z</time>
      </trkpt>
      <trkpt lat="45.13979" lon="6.10062">
        <ele>2130.1</ele>
        <time>2024-07-08T08:30:13Z</time>
      </trkpt>
      <trkpt lat="45.1398" lon="6.10062">
        <ele>2130.2</ele>
        <time>2024-07-08T08:30:14Z</time>
      </trkpt>
      <trkpt lat="45.1398" lon="6.10062">
        <ele>2130.2</ele>
        <time>2024-07-08T08:30:15Z</time>
      </trkpt>
      <trkpt lat="45.1398" lon="6.10062">
        <ele>2130.2</ele>
        <time>2024-07-08T08:30:16Z</time>
      </trkpt>
      <trkpt lat="45.1398" lon="6.10062">
        <ele>2130.2</ele>
        <time>2024-07-08T08:30:17Z</time>
      </trkpt>
      <trkpt lat="45.1398" lon="6.10062">
        <ele>2130.2</ele>
        <time>2024-07-08T08:30:18Z</time>
      </trkpt>
      <trkpt lat="45.1398" lon="6.10062">
        <ele>2130.2</ele>
        <time>2024-07-08T08:30:19Z</time>
      </trkpt>
      <trkpt lat="45.1398" lon="6.10062">
        <ele>2130.2</ele>
        <time>2024-07-08T08:30:20Z</time>
      </trkpt>
      <trkpt lat="45.1398" lon="6.10062">
        <ele>2130.2</ele>
        <time>2024-07-08T08:30:21Z</time>
      </trkpt>
      <trkpt lat="45.1398" lon="6.10062">
        <ele>2130.2</ele>
        <time>2024-07-08T08:30:22Z</time>
      </trkpt>
      <trkpt lat="45.1398" lon="6.10062">
        <ele>2130.2</ele>
        <time>2024-07-08T08:30:23Z</time>
      </trkpt>
      <trkpt lat="45.1398" lon="6.10062">
        <ele>2130.2</ele>
        <time>2024-07-08T08:30:24Z</time>
      </trkpt>
      <trkpt lat="45.1398" lon="6.10062">
        <ele>2130.2</ele>
        <time>2024-07-08T08:30:25Z</time>
      </trkpt>
      <trkpt lat="45.1398" lon="6.10062">
        <ele>2130.2</ele>
        <time>2024-07-08T08:30:26Z</time>
      </trkpt>
      <trkpt lat="45.1398" lon="6.10062">
        <ele>2130.2</ele>
        <time>2024-07-08T08:30:27Z</time>
      </trkpt>
      <trkpt lat="45.1398" lon="6.10062">
        <ele>2130.2</ele>
        <time>2024-07-08T08:30:28Z</time>
      </trkpt>
      <trkpt lat="45.1398" lon="6.10062">
        <ele>2130.2</ele>
        <time>2024-07-08T08:30:29Z</time>
      </trkpt>
      <trkpt lat="45.1398" lon="6.10062">
        <ele>2130.2</ele>
        <time>2024-07-08T08:30:30Z</time>
      </trkpt>
      <trkpt lat="45.1398" lon="6.10062">
        <ele>2130.2</ele>
        <time>2024-07-08T08:30:31Z</time>
      </trkpt>
      <trkpt lat="45.1398" lon="6.10062">
        <ele>2130.2</ele>
        <time>2024-07-08T08:30:32Z</time>
      </trkpt>
      <trkpt lat="45.1398" lon="6.10062">
        <ele>2130.2</ele>
        <time>2024-07-08T08:30:33Z</time>
      </trkpt>
      <trkpt lat="45.1398" lon="6.10062">
        <ele>2130.2</ele>
        <time>2024-07-08T08:30:34Z</time>
      </trkpt>
      <trkpt lat="45.1398" lon="6.10062">
        <ele>2130.2</ele>
        <time>2024-07-08T08:30:35Z</time>
      </trkpt>
      <trkpt lat="45.1398" lon="6.10062">
        <ele>2130.2</ele>
        <time>2024-07-08T08:30:36Z</time>
      </trkpt>
      <trkpt lat="45.1398" lon="6.10062">
        <ele>2130.2</ele>
        <time>2024-07-08T08:30:37Z</time>
      </trkpt>
      <trkpt lat="45.1398" lon="6.10062">
        <ele>2130.2</ele>
        <time>2024-07-08T08:30:38Z</time>
      </trkpt>
      <trkpt lat="45.1398" lon="6.10062">
        <ele>2130.2</ele>
        <time>2024-07-08T08:30:39Z</time>
      </trkpt>
      <trkpt lat="45.1398" lon="6.10062">
        <ele>2130.2</ele>
        <time>2024-07-08T08:30:40Z</time>
      </trkpt>
      <trkpt lat="45.1398" lon="6.10062">
        <ele>2130.2</ele>
        <time>2024-07-08T08:30:41Z</time>
      </trkpt>
      <trkpt lat="45.1398" lon="6.10062">
        <ele>2130.2</ele>
        <time>2024-07-08T08:30:42Z</time>
      </trkpt>
      <trkpt lat="45.1398" lon="6.10062">
        <ele>2130.2</ele>
        <time>2024-07-08T08:30:43Z</time>
      </trkpt>
      <trkpt lat="45.1398" lon="6.10062">
        <ele>2130.2</ele>
        <time>2024-07-08T08:30:44Z</time>
      </trkpt>
      <trkpt lat="45.13979" lon="6.10061">
        <ele>2130.3</ele>
        <time>2024-07-08T08:30:45Z</time>
      </trkpt>
      <trkpt lat="45.13979" lon="6.10061">
        <ele>2130.4</ele>
        <time>2024-07-08T08:30:46Z</time>
      </trkpt>
      <trkpt lat="45.13979" lon="6.10061">
        <ele>2130.4</ele>
        <time>2024-07-08T08:30:48Z</time>
      </trkpt>
      <trkpt lat="45.13977" lon="6.10063">
        <ele>2130.7</ele>
        <time>2024-07-08T08:34:46Z</time>
      </trkpt>
      <trkpt lat="45.13977" lon="6.10063">
        <ele>2130.7</ele>
        <time>2024-07-08T08:34:47Z</time>
      </trkpt>
      <trkpt lat="45.13977" lon="6.10063">
        <ele>2130.8</ele>
        <time>2024-07-08T08:34:48Z</time>
      </trkpt>
      <trkpt lat="45.13977" lon="6.10063">
        <ele>2130.8</ele>
        <time>2024-07-08T08:34:49Z</time>
      </trkpt>
      <trkpt lat="45.13977" lon="6.10063">
        <ele>2130.8</ele>
        <time>2024-07-08T08:34:50Z</time>
      </trkpt>
      <trkpt lat="45.13976" lon="6.10063">
        <ele>2130.9</ele>
        <time>2024-07-08T08:34:51Z</time>
      </trkpt>
      <trkpt lat="45.13976" lon="6.10063">
        <ele>2131</ele>
        <time>2024-07-08T08:34:52Z</time>
      </trkpt>
      <trkpt lat="45.13975" lon="6.10064">
        <ele>2131.1</ele>
        <time>2024-07-08T08:34:53Z</time>
      </trkpt>
      <trkpt lat="45.13975" lon="6.10065">
        <ele>2131.2</ele>
        <time>2024-07-08T08:34:54Z</time>
      </trkpt>
      <trkpt lat="45.13976" lon="6.10067">
        <ele>2131.4</ele>
        <time>2024-07-08T08:34:55Z</time>
      </trkpt>
      <trkpt lat="45.13976" lon="6.10066">
        <ele>2131.4</ele>
        <time>2024-07-08T08:34:56Z</time>
      </trkpt>
      <trkpt lat="45.13976" lon="6.10067">
        <ele>2131.6</ele>
        <time>2024-07-08T08:34:57Z</time>
      </trkpt>
      <trkpt lat="45.13976" lon="6.10068">
        <ele>2131.6</ele>
        <time>2024-07-08T08:34:58Z</time>
      </trkpt>
      <trkpt lat="45.13976" lon="6.10069">
        <ele>2131.7</ele>
        <time>2024-07-08T08:34:59Z</time>
      </trkpt>
      <trkpt lat="45.13976" lon="6.1007">
        <ele>2131.9</ele>
        <time>2024-07-08T08:35:00Z</time>
      </trkpt>
      <trkpt lat="45.13976" lon="6.10071">
        <ele>2132</ele>
        <time>2024-07-08T08:35:01Z</time>
      </trkpt>
      <trkpt lat="45.13976" lon="6.10072">
        <ele>2132.2</ele>
        <time>2024-07-08T08:35:02Z</time>
      </trkpt>
      <trkpt lat="45.13977" lon="6.10072">
        <ele>2132.3</ele>
        <time>2024-07-08T08:35:03Z</time>
      </trkpt>
      <trkpt lat="45.13978" lon="6.10073">
        <ele>2132.5</ele>
        <time>2024-07-08T08:35:04Z</time>
      </trkpt>
      <trkpt lat="45.13979" lon="6.10072">
        <ele>2132.8</ele>
        <time>2024-07-08T08:35:05Z</time>
      </trkpt>
      <trkpt lat="45.13981" lon="6.10072">
        <ele>2133</ele>
        <time>2024-07-08T08:35:06Z</time>
      </trkpt>
      <trkpt lat="45.13981" lon="6.10073">
        <ele>2133.2</ele>
        <time>2024-07-08T08:35:07Z</time>
      </trkpt>
      <trkpt lat="45.13979" lon="6.10073">
        <ele>2133.6</ele>
        <time>2024-07-08T08:35:08Z</time>
      </trkpt>
      <trkpt lat="45.13978" lon="6.10074">
        <ele>2133.9</ele>
        <time>2024-07-08T08:35:09Z</time>
      </trkpt>
      <trkpt lat="45.13977" lon="6.10074">
        <ele>2134.1</ele>
        <time>2024-07-08T08:35:10Z</time>
      </trkpt>
      <trkpt lat="45.13976" lon="6.10075">
        <ele>2134.3</ele>
        <time>2024-07-08T08:35:11Z</time>
      </trkpt>
      <trkpt lat="45.13976" lon="6.10077">
        <ele>2134.5</ele>
        <time>2024-07-08T08:35:12Z</time>
      </trkpt>
      <trkpt lat="45.13976" lon="6.10076">
        <ele>2134.6</ele>
        <time>2024-07-08T08:35:13Z</time>
      </trkpt>
      <trkpt lat="45.13976" lon="6.10075">
        <ele>2134.7</ele>
        <time>2024-07-08T08:35:14Z</time>
      </trkpt>
      <trkpt lat="45.13976" lon="6.10075">
        <ele>2134.7</ele>
        <time>2024-07-08T08:35:15Z</time>
      </trkpt>
      <trkpt lat="45.13976" lon="6.10075">
        <ele>2134.8</ele>
        <time>2024-07-08T08:35:16Z</time>
      </trkpt>
      <trkpt lat="45.13976" lon="6.10075">
        <ele>2134.8</ele>
        <time>2024-07-08T08:35:17Z</time>
      </trkpt>
      <trkpt lat="45.13976" lon="6.10075">
        <ele>2134.8</ele>
        <time>2024-07-08T08:35:18Z</time>
      </trkpt>
      <trkpt lat="45.13976" lon="6.10075">
        <ele>2134.8</ele>
        <time>2024-07-08T08:35:19Z</time>
      </trkpt>
      <trkpt lat="45.13975" lon="6.10076">
        <ele>2135</ele>
        <time>2024-07-08T08:35:20Z</time>
      </trkpt>
      <trkpt lat="45.13974" lon="6.10077">
        <ele>2135.2</ele>
        <time>2024-07-08T08:35:21Z</time>
      </trkpt>
      <trkpt lat="45.13974" lon="6.10077">
        <ele>2135.3</ele>
        <time>2024-07-08T08:35:22Z</time>
      </trkpt>
      <trkpt lat="45.13974" lon="6.10078">
        <ele>2135.4</ele>
        <time>2024-07-08T08:35:23Z</time>
      </trkpt>
      <trkpt lat="45.13974" lon="6.10078">
        <ele>2135.4</ele>
        <time>2024-07-08T08:35:24Z</time>
      </trkpt>
      <trkpt lat="45.13974" lon="6.10078">
        <ele>2135.4</ele>
        <time>2024-07-08T08:35:25Z</time>
      </trkpt>
      <trkpt lat="45.13974" lon="6.10078">
        <ele>2135.5</ele>
        <time>2024-07-08T08:35:26Z</time>
      </trkpt>
      <trkpt lat="45.13974" lon="6.10078">
        <ele>2135.5</ele>
        <time>2024-07-08T08:35:27Z</time>
      </trkpt>
      <trkpt lat="45.13974" lon="6.10078">
        <ele>2135.5</ele>
        <time>2024-07-08T08:35:28Z</time>
      </trkpt>
      <trkpt lat="45.13974" lon="6.10078">
        <ele>2135.5</ele>
        <time>2024-07-08T08:35:29Z</time>
      </trkpt>
      <trkpt lat="45.13974" lon="6.10078">
        <ele>2135.6</ele>
        <time>2024-07-08T08:35:30Z</time>
      </trkpt>
      <trkpt lat="45.13975" lon="6.10081">
        <ele>2135.9</ele>
        <time>2024-07-08T08:35:31Z</time>
      </trkpt>
      <trkpt lat="45.13974" lon="6.10083">
        <ele>2136.2</ele>
        <time>2024-07-08T08:35:32Z</time>
      </trkpt>
      <trkpt lat="45.13974" lon="6.10084">
        <ele>2136.5</ele>
        <time>2024-07-08T08:35:33Z</time>
      </trkpt>
      <trkpt lat="45.13973" lon="6.10084">
        <ele>2136.9</ele>
        <time>2024-07-08T08:35:34Z</time>
      </trkpt>
      <trkpt lat="45.13972" lon="6.10084">
        <ele>2137.1</ele>
        <time>2024-07-08T08:35:35Z</time>
      </trkpt>
      <trkpt lat="45.13971" lon="6.10084">
        <ele>2137.2</ele>
        <time>2024-07-08T08:35:36Z</time>
      </trkpt>
      <trkpt lat="45.13971" lon="6.10084">
        <ele>2137.4</ele>
        <time>2024-07-08T08:35:37Z</time>
      </trkpt>
      <trkpt lat="45.1397" lon="6.10083">
        <ele>2137.6</ele>
        <time>2024-07-08T08:35:38Z</time>
      </trkpt>
      <trkpt lat="45.13969" lon="6.10083">
        <ele>2137.8</ele>
        <time>2024-07-08T08:35:39Z</time>
      </trkpt>
      <trkpt lat="45.13968" lon="6.10082">
        <ele>2138</ele>
        <time>2024-07-08T08:35:40Z</time>
      </trkpt>
      <trkpt lat="45.13968" lon="6.10081">
        <ele>2138.1</ele>
        <time>2024-07-08T08:35:41Z</time>
      </trkpt>
      <trkpt lat="45.13968" lon="6.10082">
        <ele>2138.3</ele>
        <time>2024-07-08T08:35:42Z</time>
      </trkpt>
      <trkpt lat="45.13967" lon="6.10083">
        <ele>2138.4</ele>
        <time>2024-07-08T08:35:43Z</time>
      </trkpt>
      <trkpt lat="45.13968" lon="6.10085">
        <ele>2138.9</ele>
        <time>2024-07-08T08:35:44Z</time>
      </trkpt>
      <trkpt lat="45.13968" lon="6.10087">
        <ele>2139.2</ele>
        <time>2024-07-08T08:35:45Z</time>
      </trkpt>
      <trkpt lat="45.13969" lon="6.10088">
        <ele>2139.5</ele>
        <time>2024-07-08T08:35:46Z</time>
      </trkpt>
      <trkpt lat="45.13969" lon="6.10089">
        <ele>2139.6</ele>
        <time>2024-07-08T08:35:47Z</time>
      </trkpt>
      <trkpt lat="45.13969" lon="6.10089">
        <ele>2139.7</ele>
        <time>2024-07-08T08:35:48Z</time>
      </trkpt>
      <trkpt lat="45.1397" lon="6.10089">
        <ele>2139.9</ele>
        <time>2024-07-08T08:35:49Z</time>
      </trkpt>
      <trkpt lat="45.1397" lon="6.10089">
        <ele>2140</ele>
        <time>2024-07-08T08:35:50Z</time>
      </trkpt>
      <trkpt lat="45.13971" lon="6.10089">
        <ele>2140.1</ele>
        <time>2024-07-08T08:35:51Z</time>
      </trkpt>
      <trkpt lat="45.13971" lon="6.10088">
        <ele>2140.2</ele>
        <time>2024-07-08T08:35:52Z</time>
      </trkpt>
      <trkpt lat="45.13971" lon="6.10089">
        <ele>2140.3</ele>
        <time>2024-07-08T08:35:53Z</time>
      </trkpt>
      <trkpt lat="45.13971" lon="6.10088">
        <ele>2140.5</ele>
        <time>2024-07-08T08:35:54Z</time>
      </trkpt>
      <trkpt lat="45.13972" lon="6.10087">
        <ele>2140.6</ele>
        <time>2024-07-08T08:35:55Z</time>
      </trkpt>
      <trkpt lat="45.13972" lon="6.10087">
        <ele>2140.7</ele>
        <time>2024-07-08T08:35:56Z</time>
      </trkpt>
      <trkpt lat="45.13972" lon="6.10086">
        <ele>2140.7</ele>
        <time>2024-07-08T08:35:57Z</time>
      </trkpt>
      <trkpt lat="45.13972" lon="6.10086">
        <ele>2140.8</ele>
        <time>2024-07-08T08:35:58Z</time>
      </trkpt>
      <trkpt lat="45.13973" lon="6.10086">
        <ele>2140.8</ele>
        <time>2024-07-08T08:35:59Z</time>
      </trkpt>
      <trkpt lat="45.13973" lon="6.10086">
        <ele>2140.9</ele>
        <time>2024-07-08T08:36:00Z</time>
      </trkpt>
      <trkpt lat="45.13973" lon="6.10086">
        <ele>2140.9</ele>
        <time>2024-07-08T08:36:01Z</time>
      </trkpt>
      <trkpt lat="45.13973" lon="6.10085">
        <ele>2141</ele>
        <time>2024-07-08T08:36:02Z</time>
      </trkpt>
      <trkpt lat="45.13973" lon="6.10085">
        <ele>2141</ele>
        <time>2024-07-08T08:36:03Z</time>
      </trkpt>
      <trkpt lat="45.13973" lon="6.10085">
        <ele>2141</ele>
        <time>2024-07-08T08:36:04Z</time>
      </trkpt>
      <trkpt lat="45.13974" lon="6.10085">
        <ele>2141.1</ele>
        <time>2024-07-08T08:36:05Z</time>
      </trkpt>
      <trkpt lat="45.13974" lon="6.10085">
        <ele>2141.1</ele>
        <time>2024-07-08T08:36:06Z</time>
      </trkpt>
      <trkpt lat="45.13974" lon="6.10085">
        <ele>2141.2</ele>
        <time>2024-07-08T08:36:07Z</time>
      </trkpt>
      <trkpt lat="45.13974" lon="6.10084">
        <ele>2141.3</ele>
        <time>2024-07-08T08:36:08Z</time>
      </trkpt>
      <trkpt lat="45.13975" lon="6.10084">
        <ele>2141.3</ele>
        <time>2024-07-08T08:36:09Z</time>
      </trkpt>
      <trkpt lat="45.13975" lon="6.10084">
        <ele>2141.4</ele>
        <time>2024-07-08T08:36:10Z</time>
      </trkpt>
      <trkpt lat="45.13975" lon="6.10084">
        <ele>2141.4</ele>
        <time>2024-07-08T08:36:11Z</time>
      </trkpt>
      <trkpt lat="45.13975" lon="6.10084">
        <ele>2141.5</ele>
        <time>2024-07-08T08:36:12Z</time>
      </trkpt>
      <trkpt lat="45.13976" lon="6.10084">
        <ele>2141.5</ele>
        <time>2024-07-08T08:36:13Z</time>
      </trkpt>
      <trkpt lat="45.13976" lon="6.10084">
        <ele>2141.5</ele>
        <time>2024-07-08T08:36:14Z</time>
      </trkpt>
      <trkpt lat="45.13976" lon="6.10084">
        <ele>2141.6</ele>
        <time>2024-07-08T08:36:15Z</time>
      </trkpt>
      <trkpt lat="45.13976" lon="6.10084">
        <ele>2141.6</ele>
        <time>2024-07-08T08:36:16Z</time>
      </trkpt>
      <trkpt lat="45.13976" lon="6.10084">
        <ele>2141.6</ele>
        <time>2024-07-08T08:36:17Z</time>
      </trkpt>
      <trkpt lat="45.13976" lon="6.10084">
        <ele>2141.6</ele>
        <time>2024-07-08T08:36:18Z</time>
      </trkpt>
      <trkpt lat="45.13976" lon="6.10084">
        <ele>2141.6</ele>
        <time>2024-07-08T08:36:19Z</time>
      </trkpt>
      <trkpt lat="45.13976" lon="6.10084">
        <ele>2141.6</ele>
        <time>2024-07-08T08:36:20Z</time>
      </trkpt>
      <trkpt lat="45.13976" lon="6.10084">
        <ele>2141.6</ele>
        <time>2024-07-08T08:36:21Z</time>
      </trkpt>
      <trkpt lat="45.13976" lon="6.10084">
        <ele>2141.6</ele>
        <time>2024-07-08T08:36:22Z</time>
      </trkpt>
      <trkpt lat="45.13976" lon="6.10084">
        <ele>2141.6</ele>
        <time>2024-07-08T08:36:23Z</time>
      </trkpt>
      <trkpt lat="45.13976" lon="6.10084">
        <ele>2141.6</ele>
        <time>2024-07-08T08:36:24Z</time>
      </trkpt>
      <trkpt lat="45.13976" lon="6.10084">
        <ele>2141.7</ele>
        <time>2024-07-08T08:36:25Z</time>
      </trkpt>
      <trkpt lat="45.13976" lon="6.10084">
        <ele>2141.7</ele>
        <time>2024-07-08T08:36:26Z</time>
      </trkpt>
      <trkpt lat="45.13976" lon="6.10084">
        <ele>2141.7</ele>
        <time>2024-07-08T08:36:27Z</time>
      </trkpt>
      <trkpt lat="45.13976" lon="6.10084">
        <ele>2141.7</ele>
        <time>2024-07-08T08:36:28Z</time>
      </trkpt>
      <trkpt lat="45.13976" lon="6.10084">
        <ele>2141.7</ele>
        <time>2024-07-08T08:36:29Z</time>
      </trkpt>
      <trkpt lat="45.13976" lon="6.10084">
        <ele>2141.7</ele>
        <time>2024-07-08T08:36:30Z</time>
      </trkpt>
      <trkpt lat="45.13976" lon="6.10084">
        <ele>2141.7</ele>
        <time>2024-07-08T08:36:31Z</time>
      </trkpt>
      <trkpt lat="45.13976" lon="6.10084">
        <ele>2141.7</ele>
        <time>2024-07-08T08:36:32Z</time>
      </trkpt>
      <trkpt lat="45.13976" lon="6.10084">
        <ele>2141.7</ele>
        <time>2024-07-08T08:36:33Z</time>
      </trkpt>
      <trkpt lat="45.13976" lon="6.10084">
        <ele>2141.7</ele>
        <time>2024-07-08T08:36:34Z</time>
      </trkpt>
      <trkpt lat="45.13976" lon="6.10084">
        <ele>2141.7</ele>
        <time>2024-07-08T08:36:35Z</time>
      </trkpt>
      <trkpt lat="45.13976" lon="6.10084">
        <ele>2141.7</ele>
        <time>2024-07-08T08:36:36Z</time>
      </trkpt>
      <trkpt lat="45.13976" lon="6.10084">
        <ele>2141.7</ele>
        <time>2024-07-08T08:36:37Z</time>
      </trkpt>
      <trkpt lat="45.13976" lon="6.10084">
        <ele>2141.7</ele>
        <time>2024-07-08T08:36:38Z</time>
      </trkpt>
      <trkpt lat="45.13976" lon="6.10084">
        <ele>2141.7</ele>
        <time>2024-07-08T08:36:39Z</time>
      </trkpt>
      <trkpt lat="45.13976" lon="6.10084">
        <ele>2141.7</ele>
        <time>2024-07-08T08:36:40Z</time>
      </trkpt>
      <trkpt lat="45.13976" lon="6.10084">
        <ele>2141.7</ele>
        <time>2024-07-08T08:36:41Z</time>
      </trkpt>
      <trkpt lat="45.13976" lon="6.10084">
        <ele>2141.7</ele>
        <time>2024-07-08T08:36:42Z</time>
      </trkpt>
      <trkpt lat="45.13976" lon="6.10084">
        <ele>2141.7</ele>
        <time>2024-07-08T08:36:43Z</time>
      </trkpt>
      <trkpt lat="45.13976" lon="6.10084">
        <ele>2141.7</ele>
        <time>2024-07-08T08:36:44Z</time>
      </trkpt>
      <trkpt lat="45.13976" lon="6.10084">
        <ele>2141.7</ele>
        <time>2024-07-08T08:36:45Z</time>
      </trkpt>
      <trkpt lat="45.13976" lon="6.10084">
        <ele>2141.7</ele>
        <time>2024-07-08T08:36:46Z</time>
      </trkpt>
      <trkpt lat="45.13976" lon="6.10084">
        <ele>2141.7</ele>
        <time>2024-07-08T08:36:47Z</time>
      </trkpt>
      <trkpt lat="45.13976" lon="6.10084">
        <ele>2141.7</ele>
        <time>2024-07-08T08:36:48Z</time>
      </trkpt>
      <trkpt lat="45.13976" lon="6.10084">
        <ele>2141.8</ele>
        <time>2024-07-08T08:36:49Z</time>
      </trkpt>
      <trkpt lat="45.13976" lon="6.10085">
        <ele>2141.8</ele>
        <time>2024-07-08T08:36:50Z</time>
      </trkpt>
      <trkpt lat="45.13977" lon="6.10084">
        <ele>2142</ele>
        <time>2024-07-08T08:36:51Z</time>
      </trkpt>
      <trkpt lat="45.13977" lon="6.10084">
        <ele>2142.1</ele>
        <time>2024-07-08T08:36:52Z</time>
      </trkpt>
      <trkpt lat="45.13977" lon="6.10083">
        <ele>2142.2</ele>
        <time>2024-07-08T08:36:53Z</time>
      </trkpt>
      <trkpt lat="45.13977" lon="6.10082">
        <ele>2142.2</ele>
        <time>2024-07-08T08:36:54Z</time>
      </trkpt>
      <trkpt lat="45.13977" lon="6.10082">
        <ele>2142.3</ele>
        <time>2024-07-08T08:36:55Z</time>
      </trkpt>
      <trkpt lat="45.13977" lon="6.10081">
        <ele>2142.3</ele>
        <time>2024-07-08T08:36:56Z</time>
      </trkpt>
      <trkpt lat="45.13978" lon="6.10081">
        <ele>2142.5</ele>
        <time>2024-07-08T08:36:57Z</time>
      </trkpt>
      <trkpt lat="45.13978" lon="6.10081">
        <ele>2142.6</ele>
        <time>2024-07-08T08:36:58Z</time>
      </trkpt>
      <trkpt lat="45.13977" lon="6.10082">
        <ele>2142.7</ele>
        <time>2024-07-08T08:36:59Z</time>
      </trkpt>
      <trkpt lat="45.13977" lon="6.10083">
        <ele>2142.8</ele>
        <time>2024-07-08T08:37:00Z</time>
      </trkpt>
      <trkpt lat="45.13978" lon="6.10083">
        <ele>2142.8</ele>
        <time>2024-07-08T08:37:01Z</time>
      </trkpt>
      <trkpt lat="45.13977" lon="6.10083">
        <ele>2142.8</ele>
        <time>2024-07-08T08:37:02Z</time>
      </trkpt>
      <trkpt lat="45.13978" lon="6.10083">
        <ele>2142.8</ele>
        <time>2024-07-08T08:37:03Z</time>
      </trkpt>
      <trkpt lat="45.13978" lon="6.10083">
        <ele>2142.9</ele>
        <time>2024-07-08T08:37:04Z</time>
      </trkpt>
      <trkpt lat="45.13977" lon="6.10083">
        <ele>2142.9</ele>
        <time>2024-07-08T08:37:05Z</time>
      </trkpt>
      <trkpt lat="45.13977" lon="6.10084">
        <ele>2142.9</ele>
        <time>2024-07-08T08:37:06Z</time>
      </trkpt>
      <trkpt lat="45.13977" lon="6.10084">
        <ele>2143</ele>
        <time>2024-07-08T08:37:07Z</time>
      </trkpt>
      <trkpt lat="45.13975" lon="6.10084">
        <ele>2143.2</ele>
        <time>2024-07-08T08:37:08Z</time>
      </trkpt>
      <trkpt lat="45.13974" lon="6.10086">
        <ele>2143.4</ele>
        <time>2024-07-08T08:37:09Z</time>
      </trkpt>
      <trkpt lat="45.13973" lon="6.10087">
        <ele>2143.6</ele>
        <time>2024-07-08T08:37:10Z</time>
      </trkpt>
      <trkpt lat="45.13973" lon="6.10089">
        <ele>2143.8</ele>
        <time>2024-07-08T08:37:11Z</time>
      </trkpt>
      <trkpt lat="45.13972" lon="6.1009">
        <ele>2143.9</ele>
        <time>2024-07-08T08:37:12Z</time>
      </trkpt>
      <trkpt lat="45.13972" lon="6.10091">
        <ele>2144</ele>
        <time>2024-07-08T08:37:13Z</time>
      </trkpt>
      <trkpt lat="45.13974" lon="6.10091">
        <ele>2144.2</ele>
        <time>2024-07-08T08:37:14Z</time>
      </trkpt>
      <trkpt lat="45.13976" lon="6.10091">
        <ele>2144.4</ele>
        <time>2024-07-08T08:37:15Z</time>
      </trkpt>
      <trkpt lat="45.13978" lon="6.1009">
        <ele>2144.6</ele>
        <time>2024-07-08T08:37:16Z</time>
      </trkpt>
      <trkpt lat="45.13978" lon="6.10091">
        <ele>2144.7</ele>
        <time>2024-07-08T08:37:17Z</time>
      </trkpt>
      <trkpt lat="45.13978" lon="6.10092">
        <ele>2144.8</ele>
        <time>2024-07-08T08:37:18Z</time>
      </trkpt>
      <trkpt lat="45.13979" lon="6.10092">
        <ele>2145</ele>
        <time>2024-07-08T08:37:19Z</time>
      </trkpt>
      <trkpt lat="45.1398" lon="6.10093">
        <ele>2145.1</ele>
        <time>2024-07-08T08:37:20Z</time>
      </trkpt>
      <trkpt lat="45.1398" lon="6.10093">
        <ele>2145.2</ele>
        <time>2024-07-08T08:37:21Z</time>
      </trkpt>
      <trkpt lat="45.1398" lon="6.10095">
        <ele>2145.3</ele>
        <time>2024-07-08T08:37:22Z</time>
      </trkpt>
      <trkpt lat="45.1398" lon="6.10096">
        <ele>2145.4</ele>
        <time>2024-07-08T08:37:23Z</time>
      </trkpt>
      <trkpt lat="45.1398" lon="6.10096">
        <ele>2145.5</ele>
        <time>2024-07-08T08:37:24Z</time>
      </trkpt>
      <trkpt lat="45.13979" lon="6.10096">
        <ele>2145.6</ele>
        <time>2024-07-08T08:37:25Z</time>
      </trkpt>
      <trkpt lat="45.13979" lon="6.10097">
        <ele>2145.6</ele>
        <time>2024-07-08T08:37:26Z</time>
      </trkpt>
      <trkpt lat="45.1398" lon="6.10097">
        <ele>2145.7</ele>
        <time>2024-07-08T08:37:27Z</time>
      </trkpt>
      <trkpt lat="45.13981" lon="6.10098">
        <ele>2145.8</ele>
        <time>2024-07-08T08:37:28Z</time>
      </trkpt>
      <trkpt lat="45.13979" lon="6.10097">
        <ele>2146</ele>
        <time>2024-07-08T08:37:29Z</time>
      </trkpt>
      <trkpt lat="45.1398" lon="6.10097">
        <ele>2146.1</ele>
        <time>2024-07-08T08:37:30Z</time>
      </trkpt>
      <trkpt lat="45.13981" lon="6.10097">
        <ele>2146.3</ele>
        <time>2024-07-08T08:37:31Z</time>
      </trkpt>
      <trkpt lat="45.13981" lon="6.10097">
        <ele>2146.3</ele>
        <time>2024-07-08T08:37:32Z</time>
      </trkpt>
      <trkpt lat="45.13981" lon="6.10097">
        <ele>2146.3</ele>
        <time>2024-07-08T08:37:33Z</time>
      </trkpt>
      <trkpt lat="45.13981" lon="6.10097">
        <ele>2146.4</ele>
        <time>2024-07-08T08:37:34Z</time>
      </trkpt>
      <trkpt lat="45.13981" lon="6.10097">
        <ele>2146.4</ele>
        <time>2024-07-08T08:37:35Z</time>
      </trkpt>
      <trkpt lat="45.13981" lon="6.10097">
        <ele>2146.4</ele>
        <time>2024-07-08T08:37:36Z</time>
      </trkpt>
      <trkpt lat="45.13981" lon="6.10097">
        <ele>2146.4</ele>
        <time>2024-07-08T08:37:37Z</time>
      </trkpt>
      <trkpt lat="45.13981" lon="6.10097">
        <ele>2146.4</ele>
        <time>2024-07-08T08:37:38Z</time>
      </trkpt>
      <trkpt lat="45.13982" lon="6.10097">
        <ele>2146.5</ele>
        <time>2024-07-08T08:37:39Z</time>
      </trkpt>
      <trkpt lat="45.13982" lon="6.10097">
        <ele>2146.5</ele>
        <time>2024-07-08T08:37:40Z</time>
      </trkpt>
      <trkpt lat="45.13982" lon="6.10096">
        <ele>2146.5</ele>
        <time>2024-07-08T08:37:41Z</time>
      </trkpt>
      <trkpt lat="45.13982" lon="6.10096">
        <ele>2146.5</ele>
        <time>2024-07-08T08:37:42Z</time>
      </trkpt>
      <trkpt lat="45.13982" lon="6.10096">
        <ele>2146.5</ele>
        <time>2024-07-08T08:37:43Z</time>
      </trkpt>
      <trkpt lat="45.13982" lon="6.10096">
        <ele>2146.6</ele>
        <time>2024-07-08T08:37:45Z</time>
      </trkpt>
      <trkpt lat="45.13982" lon="6.10096">
        <ele>2146.6</ele>
        <time>2024-07-08T08:37:46Z</time>
      </trkpt>
      <trkpt lat="45.13982" lon="6.10096">
        <ele>2146.6</ele>
        <time>2024-07-08T08:37:47Z</time>
      </trkpt>
      <trkpt lat="45.13982" lon="6.10096">
        <ele>2146.6</ele>
        <time>2024-07-08T08:37:48Z</time>
      </trkpt>
      <trkpt lat="45.13982" lon="6.10096">
        <ele>2146.6</ele>
        <time>2024-07-08T08:37:49Z</time>
      </trkpt>
      <trkpt lat="45.13982" lon="6.10096">
        <ele>2146.6</ele>
        <time>2024-07-08T08:37:50Z</time>
      </trkpt>
      <trkpt lat="45.13982" lon="6.10096">
        <ele>2146.6</ele>
        <time>2024-07-08T08:37:51Z</time>
      </trkpt>
      <trkpt lat="45.13982" lon="6.10096">
        <ele>2146.7</ele>
        <time>2024-07-08T08:37:52Z</time>
      </trkpt>
      <trkpt lat="45.13983" lon="6.10096">
        <ele>2146.7</ele>
        <time>2024-07-08T08:37:53Z</time>
      </trkpt>
      <trkpt lat="45.13983" lon="6.10096">
        <ele>2146.7</ele>
        <time>2024-07-08T08:37:54Z</time>
      </trkpt>
      <trkpt lat="45.13983" lon="6.10097">
        <ele>2146.8</ele>
        <time>2024-07-08T08:37:55Z</time>
      </trkpt>
      <trkpt lat="45.13983" lon="6.10096">
        <ele>2146.9</ele>
        <time>2024-07-08T08:37:56Z</time>
      </trkpt>
      <trkpt lat="45.13982" lon="6.10096">
        <ele>2146.9</ele>
        <time>2024-07-08T08:37:58Z</time>
      </trkpt>
      <trkpt lat="45.13982" lon="6.10096">
        <ele>2147</ele>
        <time>2024-07-08T08:37:59Z</time>
      </trkpt>
      <trkpt lat="45.13982" lon="6.10096">
        <ele>2147</ele>
        <time>2024-07-08T08:38:00Z</time>
      </trkpt>
      <trkpt lat="45.13982" lon="6.10096">
        <ele>2147</ele>
        <time>2024-07-08T08:38:02Z</time>
      </trkpt>
      <trkpt lat="45.13982" lon="6.10096">
        <ele>2147</ele>
        <time>2024-07-08T08:38:03Z</time>
      </trkpt>
      <trkpt lat="45.13982" lon="6.10096">
        <ele>2147</ele>
        <time>2024-07-08T08:38:04Z</time>
      </trkpt>
      <trkpt lat="45.13982" lon="6.10096">
        <ele>2147</ele>
        <time>2024-07-08T08:38:05Z</time>
      </trkpt>
      <trkpt lat="45.13983" lon="6.10094">
        <ele>2147.2</ele>
        <time>2024-07-08T08:38:07Z</time>
      </trkpt>
      <trkpt lat="45.13983" lon="6.10094">
        <ele>2147.3</ele>
        <time>2024-07-08T08:38:08Z</time>
      </trkpt>
      <trkpt lat="45.13983" lon="6.10094">
        <ele>2147.3</ele>
        <time>2024-07-08T08:38:09Z</time>
      </trkpt>
      <trkpt lat="45.13984" lon="6.10094">
        <ele>2147.3</ele>
        <time>2024-07-08T08:38:10Z</time>
      </trkpt>
      <trkpt lat="45.13984" lon="6.10094">
        <ele>2147.3</ele>
        <time>2024-07-08T08:38:11Z</time>
      </trkpt>
      <trkpt lat="45.13984" lon="6.10094">
        <ele>2147.3</ele>
        <time>2024-07-08T08:38:12Z</time>
      </trkpt>
      <trkpt lat="45.13984" lon="6.10094">
        <ele>2147.3</ele>
        <time>2024-07-08T08:38:13Z</time>
      </trkpt>
      <trkpt lat="45.13984" lon="6.10094">
        <ele>2147.3</ele>
        <time>2024-07-08T08:38:14Z</time>
      </trkpt>
      <trkpt lat="45.13984" lon="6.10094">
        <ele>2147.3</ele>
        <time>2024-07-08T08:38:15Z</time>
      </trkpt>
      <trkpt lat="45.13984" lon="6.10094">
        <ele>2147.3</ele>
        <time>2024-07-08T08:38:16Z</time>
      </trkpt>
      <trkpt lat="45.13984" lon="6.10094">
        <ele>2147.3</ele>
        <time>2024-07-08T08:38:17Z</time>
      </trkpt>
      <trkpt lat="45.13984" lon="6.10094">
        <ele>2147.3</ele>
        <time>2024-07-08T08:38:18Z</time>
      </trkpt>
      <trkpt lat="45.13984" lon="6.10094">
        <ele>2147.3</ele>
        <time>2024-07-08T08:38:19Z</time>
      </trkpt>
      <trkpt lat="45.13984" lon="6.10094">
        <ele>2147.3</ele>
        <time>2024-07-08T08:38:20Z</time>
      </trkpt>
      <trkpt lat="45.13984" lon="6.10094">
        <ele>2147.4</ele>
        <time>2024-07-08T08:38:22Z</time>
      </trkpt>
      <trkpt lat="45.13985" lon="6.10095">
        <ele>2147.5</ele>
        <time>2024-07-08T08:38:23Z</time>
      </trkpt>
      <trkpt lat="45.13985" lon="6.10095">
        <ele>2147.6</ele>
        <time>2024-07-08T08:38:24Z</time>
      </trkpt>
      <trkpt lat="45.13986" lon="6.10096">
        <ele>2147.7</ele>
        <time>2024-07-08T08:38:25Z</time>
      </trkpt>
      <trkpt lat="45.13986" lon="6.10096">
        <ele>2147.8</ele>
        <time>2024-07-08T08:38:26Z</time>
      </trkpt>
      <trkpt lat="45.13986" lon="6.10097">
        <ele>2147.9</ele>
        <time>2024-07-08T08:38:27Z</time>
      </trkpt>
      <trkpt lat="45.13987" lon="6.10097">
        <ele>2147.9</ele>
        <time>2024-07-08T08:38:28Z</time>
      </trkpt>
      <trkpt lat="45.13987" lon="6.10097">
        <ele>2148</ele>
        <time>2024-07-08T08:38:29Z</time>
      </trkpt>
      <trkpt lat="45.13988" lon="6.10097">
        <ele>2148.1</ele>
        <time>2024-07-08T08:38:30Z</time>
      </trkpt>
      <trkpt lat="45.13988" lon="6.10098">
        <ele>2148.2</ele>
        <time>2024-07-08T08:38:31Z</time>
      </trkpt>
      <trkpt lat="45.13988" lon="6.10098">
        <ele>2148.3</ele>
        <time>2024-07-08T08:38:32Z</time>
      </trkpt>
      <trkpt lat="45.13989" lon="6.10099">
        <ele>2148.4</ele>
        <time>2024-07-08T08:38:33Z</time>
      </trkpt>
      <trkpt lat="45.13989" lon="6.10099">
        <ele>2148.5</ele>
        <time>2024-07-08T08:38:34Z</time>
      </trkpt>
      <trkpt lat="45.13989" lon="6.10099">
        <ele>2148.6</ele>
        <time>2024-07-08T08:38:35Z</time>
      </trkpt>
      <trkpt lat="45.1399" lon="6.10101">
        <ele>2148.7</ele>
        <time>2024-07-08T08:38:36Z</time>
      </trkpt>
      <trkpt lat="45.1399" lon="6.10102">
        <ele>2148.9</ele>
        <time>2024-07-08T08:38:37Z</time>
      </trkpt>
      <trkpt lat="45.13991" lon="6.10103">
        <ele>2149.1</ele>
        <time>2024-07-08T08:38:38Z</time>
      </trkpt>
      <trkpt lat="45.13991" lon="6.10105">
        <ele>2149.3</ele>
        <time>2024-07-08T08:38:39Z</time>
      </trkpt>
      <trkpt lat="45.13991" lon="6.10106">
        <ele>2149.5</ele>
        <time>2024-07-08T08:38:40Z</time>
      </trkpt>
      <trkpt lat="45.1399" lon="6.10109">
        <ele>2149.9</ele>
        <time>2024-07-08T08:38:41Z</time>
      </trkpt>
      <trkpt lat="45.1399" lon="6.1011">
        <ele>2150.1</ele>
        <time>2024-07-08T08:38:42Z</time>
      </trkpt>
      <trkpt lat="45.1399" lon="6.10112">
        <ele>2150.3</ele>
        <time>2024-07-08T08:38:43Z</time>
      </trkpt>
      <trkpt lat="45.1399" lon="6.10113">
        <ele>2150.5</ele>
        <time>2024-07-08T08:38:44Z</time>
      </trkpt>
      <trkpt lat="45.13991" lon="6.10114">
        <ele>2150.7</ele>
        <time>2024-07-08T08:38:45Z</time>
      </trkpt>
      <trkpt lat="45.13992" lon="6.10116">
        <ele>2151</ele>
        <time>2024-07-08T08:38:46Z</time>
      </trkpt>
      <trkpt lat="45.13992" lon="6.10117">
        <ele>2151.2</ele>
        <time>2024-07-08T08:38:47Z</time>
      </trkpt>
      <trkpt lat="45.13993" lon="6.10117">
        <ele>2151.3</ele>
        <time>2024-07-08T08:38:48Z</time>
      </trkpt>
      <trkpt lat="45.13994" lon="6.10118">
        <ele>2151.6</ele>
        <time>2024-07-08T08:38:49Z</time>
      </trkpt>
      <trkpt lat="45.13995" lon="6.10119">
        <ele>2151.8</ele>
        <time>2024-07-08T08:38:50Z</time>
      </trkpt>
      <trkpt lat="45.13995" lon="6.10121">
        <ele>2152</ele>
        <time>2024-07-08T08:38:51Z</time>
      </trkpt>
      <trkpt lat="45.13996" lon="6.10122">
        <ele>2152.1</ele>
        <time>2024-07-08T08:38:52Z</time>
      </trkpt>
      <trkpt lat="45.13996" lon="6.10122">
        <ele>2152.3</ele>
        <time>2024-07-08T08:38:53Z</time>
      </trkpt>
      <trkpt lat="45.13996" lon="6.10124">
        <ele>2152.5</ele>
        <time>2024-07-08T08:38:54Z</time>
      </trkpt>
      <trkpt lat="45.13996" lon="6.10124">
        <ele>2152.5</ele>
        <time>2024-07-08T08:38:55Z</time>
      </trkpt>
      <trkpt lat="45.13996" lon="6.10125">
        <ele>2152.7</ele>
        <time>2024-07-08T08:38:56Z</time>
      </trkpt>
      <trkpt lat="45.13996" lon="6.10126">
        <ele>2152.8</ele>
        <time>2024-07-08T08:38:57Z</time>
      </trkpt>
      <trkpt lat="45.13996" lon="6.10127">
        <ele>2153</ele>
        <time>2024-07-08T08:38:58Z</time>
      </trkpt>
      <trkpt lat="45.13996" lon="6.10128">
        <ele>2153.2</ele>
        <time>2024-07-08T08:38:59Z</time>
      </trkpt>
      <trkpt lat="45.13996" lon="6.10129">
        <ele>2153.2</ele>
        <time>2024-07-08T08:39:00Z</time>
      </trkpt>
      <trkpt lat="45.13996" lon="6.10129">
        <ele>2153.3</ele>
        <time>2024-07-08T08:39:01Z</time>
      </trkpt>
      <trkpt lat="45.13996" lon="6.10131">
        <ele>2153.5</ele>
        <time>2024-07-08T08:39:02Z</time>
      </trkpt>
      <trkpt lat="45.13996" lon="6.1013">
        <ele>2153.8</ele>
        <time>2024-07-08T08:39:03Z</time>
      </trkpt>
      <trkpt lat="45.13997" lon="6.1013">
        <ele>2153.9</ele>
        <time>2024-07-08T08:39:04Z</time>
      </trkpt>
      <trkpt lat="45.13999" lon="6.10129">
        <ele>2154.2</ele>
        <time>2024-07-08T08:39:05Z</time>
      </trkpt>
      <trkpt lat="45.14" lon="6.10129">
        <ele>2154.4</ele>
        <time>2024-07-08T08:39:06Z</time>
      </trkpt>
      <trkpt lat="45.14001" lon="6.1013">
        <ele>2154.7</ele>
        <time>2024-07-08T08:39:07Z</time>
      </trkpt>
      <trkpt lat="45.14002" lon="6.1013">
        <ele>2154.9</ele>
        <time>2024-07-08T08:39:08Z</time>
      </trkpt>
      <trkpt lat="45.14003" lon="6.1013">
        <ele>2155.1</ele>
        <time>2024-07-08T08:39:09Z</time>
      </trkpt>
      <trkpt lat="45.14003" lon="6.10131">
        <ele>2155.2</ele>
        <time>2024-07-08T08:39:10Z</time>
      </trkpt>
      <trkpt lat="45.14003" lon="6.10132">
        <ele>2155.3</ele>
        <time>2024-07-08T08:39:11Z</time>
      </trkpt>
      <trkpt lat="45.14003" lon="6.10133">
        <ele>2155.5</ele>
        <time>2024-07-08T08:39:12Z</time>
      </trkpt>
      <trkpt lat="45.14003" lon="6.10133">
        <ele>2155.5</ele>
        <time>2024-07-08T08:39:13Z</time>
      </trkpt>
      <trkpt lat="45.14003" lon="6.10134">
        <ele>2155.6</ele>
        <time>2024-07-08T08:39:14Z</time>
      </trkpt>
      <trkpt lat="45.14004" lon="6.10135">
        <ele>2155.8</ele>
        <time>2024-07-08T08:39:15Z</time>
      </trkpt>
      <trkpt lat="45.14004" lon="6.10136">
        <ele>2156</ele>
        <time>2024-07-08T08:39:16Z</time>
      </trkpt>
      <trkpt lat="45.14005" lon="6.10137">
        <ele>2156.3</ele>
        <time>2024-07-08T08:39:17Z</time>
      </trkpt>
      <trkpt lat="45.14005" lon="6.10138">
        <ele>2156.5</ele>
        <time>2024-07-08T08:39:18Z</time>
      </trkpt>
      <trkpt lat="45.14005" lon="6.1014">
        <ele>2156.8</ele>
        <time>2024-07-08T08:39:19Z</time>
      </trkpt>
      <trkpt lat="45.14005" lon="6.10139">
        <ele>2156.9</ele>
        <time>2024-07-08T08:39:20Z</time>
      </trkpt>
      <trkpt lat="45.14005" lon="6.10139">
        <ele>2156.9</ele>
        <time>2024-07-08T08:39:21Z</time>
      </trkpt>
      <trkpt lat="45.14006" lon="6.1014">
        <ele>2157.1</ele>
        <time>2024-07-08T08:39:22Z</time>
      </trkpt>
      <trkpt lat="45.14006" lon="6.10141">
        <ele>2157.2</ele>
        <time>2024-07-08T08:39:23Z</time>
      </trkpt>
      <trkpt lat="45.14006" lon="6.10142">
        <ele>2157.4</ele>
        <time>2024-07-08T08:39:24Z</time>
      </trkpt>
      <trkpt lat="45.14007" lon="6.10142">
        <ele>2157.6</ele>
        <time>2024-07-08T08:39:25Z</time>
      </trkpt>
      <trkpt lat="45.14009" lon="6.10142">
        <ele>2158</ele>
        <time>2024-07-08T08:39:26Z</time>
      </trkpt>
      <trkpt lat="45.14012" lon="6.1014">
        <ele>2158.8</ele>
        <time>2024-07-08T08:39:27Z</time>
      </trkpt>
      <trkpt lat="45.14013" lon="6.1014">
        <ele>2159</ele>
        <time>2024-07-08T08:39:28Z</time>
      </trkpt>
      <trkpt lat="45.14015" lon="6.10139">
        <ele>2159.4</ele>
        <time>2024-07-08T08:39:29Z</time>
      </trkpt>
      <trkpt lat="45.14015" lon="6.1014">
        <ele>2159.7</ele>
        <time>2024-07-08T08:39:30Z</time>
      </trkpt>
      <trkpt lat="45.14016" lon="6.10139">
        <ele>2159.9</ele>
        <time>2024-07-08T08:39:31Z</time>
      </trkpt>
      <trkpt lat="45.14017" lon="6.1014">
        <ele>2160.1</ele>
        <time>2024-07-08T08:39:32Z</time>
      </trkpt>
      <trkpt lat="45.14018" lon="6.1014">
        <ele>2160.3</ele>
        <time>2024-07-08T08:39:33Z</time>
      </trkpt>
      <trkpt lat="45.14019" lon="6.1014">
        <ele>2160.5</ele>
        <time>2024-07-08T08:39:34Z</time>
      </trkpt>
      <trkpt lat="45.14019" lon="6.10141">
        <ele>2160.7</ele>
        <time>2024-07-08T08:39:35Z</time>
      </trkpt>
      <trkpt lat="45.14018" lon="6.10143">
        <ele>2161</ele>
        <time>2024-07-08T08:39:36Z</time>
      </trkpt>
      <trkpt lat="45.14018" lon="6.10144">
        <ele>2161.3</ele>
        <time>2024-07-08T08:39:37Z</time>
      </trkpt>
      <trkpt lat="45.14017" lon="6.10146">
        <ele>2161.6</ele>
        <time>2024-07-08T08:39:38Z</time>
      </trkpt>
      <trkpt lat="45.14015" lon="6.10146">
        <ele>2162.1</ele>
        <time>2024-07-08T08:39:39Z</time>
      </trkpt>
      <trkpt lat="45.14014" lon="6.10146">
        <ele>2162.5</ele>
        <time>2024-07-08T08:39:40Z</time>
      </trkpt>
      <trkpt lat="45.14013" lon="6.10145">
        <ele>2162.8</ele>
        <time>2024-07-08T08:39:41Z</time>
      </trkpt>
      <trkpt lat="45.14012" lon="6.10145">
        <ele>2163.1</ele>
        <time>2024-07-08T08:39:42Z</time>
      </trkpt>
      <trkpt lat="45.14011" lon="6.10144">
        <ele>2163.4</ele>
        <time>2024-07-08T08:39:43Z</time>
      </trkpt>
      <trkpt lat="45.1401" lon="6.10143">
        <ele>2163.6</ele>
        <time>2024-07-08T08:39:44Z</time>
      </trkpt>
      <trkpt lat="45.14009" lon="6.10143">
        <ele>2163.9</ele>
        <time>2024-07-08T08:39:45Z</time>
      </trkpt>
      <trkpt lat="45.14008" lon="6.10143">
        <ele>2164.1</ele>
        <time>2024-07-08T08:39:46Z</time>
      </trkpt>
      <trkpt lat="45.14007" lon="6.10144">
        <ele>2164.5</ele>
        <time>2024-07-08T08:39:47Z</time>
      </trkpt>
      <trkpt lat="45.14006" lon="6.10145">
        <ele>2164.7</ele>
        <time>2024-07-08T08:39:48Z</time>
      </trkpt>
      <trkpt lat="45.14006" lon="6.10145">
        <ele>2165</ele>
        <time>2024-07-08T08:39:49Z</time>
      </trkpt>
      <trkpt lat="45.14004" lon="6.10145">
        <ele>2165.3</ele>
        <time>2024-07-08T08:39:50Z</time>
      </trkpt>
      <trkpt lat="45.14004" lon="6.10145">
        <ele>2165.4</ele>
        <time>2024-07-08T08:39:51Z</time>
      </trkpt>
      <trkpt lat="45.14004" lon="6.10145">
        <ele>2165.5</ele>
        <time>2024-07-08T08:39:52Z</time>
      </trkpt>
      <trkpt lat="45.14004" lon="6.10145">
        <ele>2165.6</ele>
        <time>2024-07-08T08:39:53Z</time>
      </trkpt>
      <trkpt lat="45.14003" lon="6.10144">
        <ele>2165.7</ele>
        <time>2024-07-08T08:39:54Z</time>
      </trkpt>
      <trkpt lat="45.14002" lon="6.10145">
        <ele>2165.9</ele>
        <time>2024-07-08T08:39:55Z</time>
      </trkpt>
      <trkpt lat="45.14002" lon="6.10145">
        <ele>2166</ele>
        <time>2024-07-08T08:39:56Z</time>
      </trkpt>
      <trkpt lat="45.14002" lon="6.10144">
        <ele>2166.1</ele>
        <time>2024-07-08T08:39:57Z</time>
      </trkpt>
      <trkpt lat="45.14001" lon="6.10144">
        <ele>2166.4</ele>
        <time>2024-07-08T08:39:58Z</time>
      </trkpt>
      <trkpt lat="45.14" lon="6.10144">
        <ele>2166.6</ele>
        <time>2024-07-08T08:39:59Z</time>
      </trkpt>
      <trkpt lat="45.13999" lon="6.10144">
        <ele>2166.8</ele>
        <time>2024-07-08T08:40:00Z</time>
      </trkpt>
      <trkpt lat="45.13998" lon="6.10145">
        <ele>2167.1</ele>
        <time>2024-07-08T08:40:01Z</time>
      </trkpt>
      <trkpt lat="45.13998" lon="6.10145">
        <ele>2167.2</ele>
        <time>2024-07-08T08:40:02Z</time>
      </trkpt>
      <trkpt lat="45.13997" lon="6.10145">
        <ele>2167.5</ele>
        <time>2024-07-08T08:40:03Z</time>
      </trkpt>
      <trkpt lat="45.13998" lon="6.10145">
        <ele>2167.7</ele>
        <time>2024-07-08T08:40:04Z</time>
      </trkpt>
      <trkpt lat="45.13999" lon="6.10146">
        <ele>2167.9</ele>
        <time>2024-07-08T08:40:05Z</time>
      </trkpt>
      <trkpt lat="45.13998" lon="6.10147">
        <ele>2168.1</ele>
        <time>2024-07-08T08:40:06Z</time>
      </trkpt>
      <trkpt lat="45.13998" lon="6.10148">
        <ele>2168.3</ele>
        <time>2024-07-08T08:40:07Z</time>
      </trkpt>
      <trkpt lat="45.13999" lon="6.10148">
        <ele>2168.5</ele>
        <time>2024-07-08T08:40:08Z</time>
      </trkpt>
      <trkpt lat="45.13999" lon="6.10149">
        <ele>2168.6</ele>
        <time>2024-07-08T08:40:09Z</time>
      </trkpt>
      <trkpt lat="45.14" lon="6.1015">
        <ele>2168.8</ele>
        <time>2024-07-08T08:40:10Z</time>
      </trkpt>
      <trkpt lat="45.13999" lon="6.1015">
        <ele>2168.9</ele>
        <time>2024-07-08T08:40:11Z</time>
      </trkpt>
      <trkpt lat="45.13999" lon="6.1015">
        <ele>2169</ele>
        <time>2024-07-08T08:40:12Z</time>
      </trkpt>
      <trkpt lat="45.13999" lon="6.1015">
        <ele>2169.1</ele>
        <time>2024-07-08T08:40:13Z</time>
      </trkpt>
      <trkpt lat="45.13998" lon="6.1015">
        <ele>2169.3</ele>
        <time>2024-07-08T08:40:14Z</time>
      </trkpt>
      <trkpt lat="45.13998" lon="6.1015">
        <ele>2169.4</ele>
        <time>2024-07-08T08:40:15Z</time>
      </trkpt>
      <trkpt lat="45.13997" lon="6.1015">
        <ele>2169.5</ele>
        <time>2024-07-08T08:40:16Z</time>
      </trkpt>
      <trkpt lat="45.13997" lon="6.1015">
        <ele>2169.6</ele>
        <time>2024-07-08T08:40:17Z</time>
      </trkpt>
      <trkpt lat="45.13997" lon="6.10149">
        <ele>2169.7</ele>
        <time>2024-07-08T08:40:18Z</time>
      </trkpt>
      <trkpt lat="45.13996" lon="6.10149">
        <ele>2169.8</ele>
        <time>2024-07-08T08:40:19Z</time>
      </trkpt>
      <trkpt lat="45.13996" lon="6.10148">
        <ele>2170</ele>
        <time>2024-07-08T08:40:20Z</time>
      </trkpt>
      <trkpt lat="45.13996" lon="6.10148">
        <ele>2170.1</ele>
        <time>2024-07-08T08:40:21Z</time>
      </trkpt>
      <trkpt lat="45.13996" lon="6.10147">
        <ele>2170.2</ele>
        <time>2024-07-08T08:40:22Z</time>
      </trkpt>
      <trkpt lat="45.13996" lon="6.10147">
        <ele>2170.3</ele>
        <time>2024-07-08T08:40:23Z</time>
      </trkpt>
      <trkpt lat="45.13995" lon="6.10147">
        <ele>2170.4</ele>
        <time>2024-07-08T08:40:24Z</time>
      </trkpt>
      <trkpt lat="45.13995" lon="6.10147">
        <ele>2170.4</ele>
        <time>2024-07-08T08:40:25Z</time>
      </trkpt>
      <trkpt lat="45.13995" lon="6.10147">
        <ele>2170.5</ele>
        <time>2024-07-08T08:40:26Z</time>
      </trkpt>
      <trkpt lat="45.13995" lon="6.10147">
        <ele>2170.6</ele>
        <time>2024-07-08T08:40:27Z</time>
      </trkpt>
      <trkpt lat="45.13994" lon="6.10148">
        <ele>2170.7</ele>
        <time>2024-07-08T08:40:28Z</time>
      </trkpt>
      <trkpt lat="45.13994" lon="6.10148">
        <ele>2170.8</ele>
        <time>2024-07-08T08:40:29Z</time>
      </trkpt>
      <trkpt lat="45.13993" lon="6.10149">
        <ele>2171.1</ele>
        <time>2024-07-08T08:40:30Z</time>
      </trkpt>
      <trkpt lat="45.13993" lon="6.10149">
        <ele>2171.1</ele>
        <time>2024-07-08T08:40:31Z</time>
      </trkpt>
      <trkpt lat="45.13992" lon="6.1015">
        <ele>2171.3</ele>
        <time>2024-07-08T08:40:32Z</time>
      </trkpt>
      <trkpt lat="45.13992" lon="6.1015">
        <ele>2171.4</ele>
        <time>2024-07-08T08:40:33Z</time>
      </trkpt>
      <trkpt lat="45.13993" lon="6.10151">
        <ele>2171.6</ele>
        <time>2024-07-08T08:40:34Z</time>
      </trkpt>
      <trkpt lat="45.13994" lon="6.10152">
        <ele>2171.9</ele>
        <time>2024-07-08T08:40:35Z</time>
      </trkpt>
      <trkpt lat="45.13994" lon="6.10153">
        <ele>2171.9</ele>
        <time>2024-07-08T08:40:36Z</time>
      </trkpt>
      <trkpt lat="45.13993" lon="6.10153">
        <ele>2172.1</ele>
        <time>2024-07-08T08:40:37Z</time>
      </trkpt>
      <trkpt lat="45.13993" lon="6.10153">
        <ele>2172.2</ele>
        <time>2024-07-08T08:40:38Z</time>
      </trkpt>
      <trkpt lat="45.13992" lon="6.10153">
        <ele>2172.3</ele>
        <time>2024-07-08T08:40:39Z</time>
      </trkpt>
      <trkpt lat="45.13992" lon="6.10153">
        <ele>2172.4</ele>
        <time>2024-07-08T08:40:40Z</time>
      </trkpt>
      <trkpt lat="45.13992" lon="6.10153">
        <ele>2172.5</ele>
        <time>2024-07-08T08:40:41Z</time>
      </trkpt>
      <trkpt lat="45.13992" lon="6.10154">
        <ele>2172.6</ele>
        <time>2024-07-08T08:40:43Z</time>
      </trkpt>
      <trkpt lat="45.13991" lon="6.10154">
        <ele>2172.7</ele>
        <time>2024-07-08T08:40:44Z</time>
      </trkpt>
      <trkpt lat="45.13991" lon="6.10154">
        <ele>2172.9</ele>
        <time>2024-07-08T08:40:45Z</time>
      </trkpt>
      <trkpt lat="45.1399" lon="6.10154">
        <ele>2173</ele>
        <time>2024-07-08T08:40:46Z</time>
      </trkpt>
      <trkpt lat="45.1399" lon="6.10154">
        <ele>2173.1</ele>
        <time>2024-07-08T08:40:47Z</time>
      </trkpt>
      <trkpt lat="45.1399" lon="6.10153">
        <ele>2173.3</ele>
        <time>2024-07-08T08:40:48Z</time>
      </trkpt>
      <trkpt lat="45.13989" lon="6.10152">
        <ele>2173.4</ele>
        <time>2024-07-08T08:40:49Z</time>
      </trkpt>
      <trkpt lat="45.13989" lon="6.10152">
        <ele>2173.5</ele>
        <time>2024-07-08T08:40:50Z</time>
      </trkpt>
      <trkpt lat="45.13989" lon="6.10153">
        <ele>2173.6</ele>
        <time>2024-07-08T08:40:51Z</time>
      </trkpt>
      <trkpt lat="45.13988" lon="6.10153">
        <ele>2173.8</ele>
        <time>2024-07-08T08:40:52Z</time>
      </trkpt>
      <trkpt lat="45.13987" lon="6.10153">
        <ele>2173.9</ele>
        <time>2024-07-08T08:40:53Z</time>
      </trkpt>
      <trkpt lat="45.13987" lon="6.10153">
        <ele>2173.9</ele>
        <time>2024-07-08T08:40:54Z</time>
      </trkpt>
      <trkpt lat="45.13987" lon="6.10153">
        <ele>2174.1</ele>
        <time>2024-07-08T08:40:55Z</time>
      </trkpt>
      <trkpt lat="45.13987" lon="6.10153">
        <ele>2174.3</ele>
        <time>2024-07-08T08:40:56Z</time>
      </trkpt>
      <trkpt lat="45.13987" lon="6.10153">
        <ele>2174.3</ele>
        <time>2024-07-08T08:40:57Z</time>
      </trkpt>
      <trkpt lat="45.13987" lon="6.10153">
        <ele>2174.3</ele>
        <time>2024-07-08T08:40:58Z</time>
      </trkpt>
      <trkpt lat="45.13987" lon="6.10152">
        <ele>2174.4</ele>
        <time>2024-07-08T08:40:59Z</time>
      </trkpt>
      <trkpt lat="45.13987" lon="6.10152">
        <ele>2174.5</ele>
        <time>2024-07-08T08:41:00Z</time>
      </trkpt>
      <trkpt lat="45.13987" lon="6.10152">
        <ele>2174.5</ele>
        <time>2024-07-08T08:41:01Z</time>
      </trkpt>
      <trkpt lat="45.13986" lon="6.10152">
        <ele>2174.6</ele>
        <time>2024-07-08T08:41:02Z</time>
      </trkpt>
      <trkpt lat="45.13986" lon="6.10151">
        <ele>2174.7</ele>
        <time>2024-07-08T08:41:03Z</time>
      </trkpt>
      <trkpt lat="45.13985" lon="6.10152">
        <ele>2174.8</ele>
        <time>2024-07-08T08:41:04Z</time>
      </trkpt>
      <trkpt lat="45.13985" lon="6.10153">
        <ele>2175.1</ele>
        <time>2024-07-08T08:41:05Z</time>
      </trkpt>
      <trkpt lat="45.13985" lon="6.10153">
        <ele>2175.2</ele>
        <time>2024-07-08T08:41:06Z</time>
      </trkpt>
      <trkpt lat="45.13985" lon="6.10154">
        <ele>2175.3</ele>
        <time>2024-07-08T08:41:07Z</time>
      </trkpt>
      <trkpt lat="45.13984" lon="6.10155">
        <ele>2175.5</ele>
        <time>2024-07-08T08:41:08Z</time>
      </trkpt>
      <trkpt lat="45.13984" lon="6.10155">
        <ele>2175.6</ele>
        <time>2024-07-08T08:41:09Z</time>
      </trkpt>
      <trkpt lat="45.13983" lon="6.10156">
        <ele>2175.8</ele>
        <time>2024-07-08T08:41:10Z</time>
      </trkpt>
      <trkpt lat="45.13983" lon="6.10156">
        <ele>2175.8</ele>
        <time>2024-07-08T08:41:11Z</time>
      </trkpt>
      <trkpt lat="45.13983" lon="6.10155">
        <ele>2175.9</ele>
        <time>2024-07-08T08:41:12Z</time>
      </trkpt>
      <trkpt lat="45.13983" lon="6.10156">
        <ele>2176</ele>
        <time>2024-07-08T08:41:13Z</time>
      </trkpt>
      <trkpt lat="45.13983" lon="6.10156">
        <ele>2176</ele>
        <time>2024-07-08T08:41:14Z</time>
      </trkpt>
      <trkpt lat="45.13983" lon="6.10157">
        <ele>2176.1</ele>
        <time>2024-07-08T08:41:15Z</time>
      </trkpt>
      <trkpt lat="45.13983" lon="6.10156">
        <ele>2176.1</ele>
        <time>2024-07-08T08:41:16Z</time>
      </trkpt>
      <trkpt lat="45.13983" lon="6.10157">
        <ele>2176.2</ele>
        <time>2024-07-08T08:41:17Z</time>
      </trkpt>
      <trkpt lat="45.13983" lon="6.10157">
        <ele>2176.3</ele>
        <time>2024-07-08T08:41:18Z</time>
      </trkpt>
      <trkpt lat="45.13982" lon="6.10157">
        <ele>2176.3</ele>
        <time>2024-07-08T08:41:19Z</time>
      </trkpt>
      <trkpt lat="45.13982" lon="6.10157">
        <ele>2176.4</ele>
        <time>2024-07-08T08:41:20Z</time>
      </trkpt>
      <trkpt lat="45.13982" lon="6.10157">
        <ele>2176.5</ele>
        <time>2024-07-08T08:41:21Z</time>
      </trkpt>
      <trkpt lat="45.13981" lon="6.10157">
        <ele>2176.6</ele>
        <time>2024-07-08T08:41:22Z</time>
      </trkpt>
      <trkpt lat="45.13981" lon="6.10158">
        <ele>2176.7</ele>
        <time>2024-07-08T08:41:23Z</time>
      </trkpt>
      <trkpt lat="45.13981" lon="6.10159">
        <ele>2176.9</ele>
        <time>2024-07-08T08:41:24Z</time>
      </trkpt>
      <trkpt lat="45.13981" lon="6.1016">
        <ele>2177</ele>
        <time>2024-07-08T08:41:25Z</time>
      </trkpt>
      <trkpt lat="45.13982" lon="6.1016">
        <ele>2177.3</ele>
        <time>2024-07-08T08:41:26Z</time>
      </trkpt>
      <trkpt lat="45.13983" lon="6.1016">
        <ele>2177.5</ele>
        <time>2024-07-08T08:41:27Z</time>
      </trkpt>
      <trkpt lat="45.13984" lon="6.1016">
        <ele>2177.8</ele>
        <time>2024-07-08T08:41:28Z</time>
      </trkpt>
      <trkpt lat="45.13985" lon="6.1016">
        <ele>2178</ele>
        <time>2024-07-08T08:41:29Z</time>
      </trkpt>
      <trkpt lat="45.13986" lon="6.10161">
        <ele>2178.2</ele>
        <time>2024-07-08T08:41:30Z</time>
      </trkpt>
      <trkpt lat="45.13987" lon="6.10161">
        <ele>2178.4</ele>
        <time>2024-07-08T08:41:31Z</time>
      </trkpt>
      <trkpt lat="45.13987" lon="6.10162">
        <ele>2178.6</ele>
        <time>2024-07-08T08:41:32Z</time>
      </trkpt>
      <trkpt lat="45.13988" lon="6.10162">
        <ele>2178.8</ele>
        <time>2024-07-08T08:41:33Z</time>
      </trkpt>
      <trkpt lat="45.13989" lon="6.10163">
        <ele>2179</ele>
        <time>2024-07-08T08:41:34Z</time>
      </trkpt>
      <trkpt lat="45.13989" lon="6.10165">
        <ele>2179.3</ele>
        <time>2024-07-08T08:41:35Z</time>
      </trkpt>
      <trkpt lat="45.1399" lon="6.10165">
        <ele>2179.4</ele>
        <time>2024-07-08T08:41:36Z</time>
      </trkpt>
      <trkpt lat="45.1399" lon="6.10166">
        <ele>2179.5</ele>
        <time>2024-07-08T08:41:37Z</time>
      </trkpt>
      <trkpt lat="45.13991" lon="6.10166">
        <ele>2179.7</ele>
        <time>2024-07-08T08:41:38Z</time>
      </trkpt>
      <trkpt lat="45.13991" lon="6.10167">
        <ele>2179.8</ele>
        <time>2024-07-08T08:41:39Z</time>
      </trkpt>
      <trkpt lat="45.13992" lon="6.10168">
        <ele>2180</ele>
        <time>2024-07-08T08:41:40Z</time>
      </trkpt>
      <trkpt lat="45.13992" lon="6.10169">
        <ele>2180.2</ele>
        <time>2024-07-08T08:41:41Z</time>
      </trkpt>
      <trkpt lat="45.13992" lon="6.10169">
        <ele>2180.3</ele>
        <time>2024-07-08T08:41:42Z</time>
      </trkpt>
      <trkpt lat="45.13992" lon="6.1017">
        <ele>2180.5</ele>
        <time>2024-07-08T08:41:43Z</time>
      </trkpt>
      <trkpt lat="45.13992" lon="6.1017">
        <ele>2180.5</ele>
        <time>2024-07-08T08:41:44Z</time>
      </trkpt>
      <trkpt lat="45.13993" lon="6.10171">
        <ele>2180.7</ele>
        <time>2024-07-08T08:41:45Z</time>
      </trkpt>
      <trkpt lat="45.13993" lon="6.10172">
        <ele>2180.8</ele>
        <time>2024-07-08T08:41:46Z</time>
      </trkpt>
      <trkpt lat="45.13994" lon="6.10172">
        <ele>2181</ele>
        <time>2024-07-08T08:41:47Z</time>
      </trkpt>
      <trkpt lat="45.13995" lon="6.10172">
        <ele>2181.2</ele>
        <time>2024-07-08T08:41:48Z</time>
      </trkpt>
      <trkpt lat="45.13996" lon="6.10172">
        <ele>2181.4</ele>
        <time>2024-07-08T08:41:49Z</time>
      </trkpt>
      <trkpt lat="45.13996" lon="6.10172">
        <ele>2181.6</ele>
        <time>2024-07-08T08:41:50Z</time>
      </trkpt>
      <trkpt lat="45.13997" lon="6.10173">
        <ele>2181.9</ele>
        <time>2024-07-08T08:41:51Z</time>
      </trkpt>
      <trkpt lat="45.13998" lon="6.10174">
        <ele>2182.1</ele>
        <time>2024-07-08T08:41:52Z</time>
      </trkpt>
      <trkpt lat="45.13998" lon="6.10174">
        <ele>2182.1</ele>
        <time>2024-07-08T08:41:53Z</time>
      </trkpt>
      <trkpt lat="45.13999" lon="6.10174">
        <ele>2182.3</ele>
        <time>2024-07-08T08:41:54Z</time>
      </trkpt>
      <trkpt lat="45.14" lon="6.10173">
        <ele>2182.5</ele>
        <time>2024-07-08T08:41:55Z</time>
      </trkpt>
      <trkpt lat="45.14" lon="6.10172">
        <ele>2182.7</ele>
        <time>2024-07-08T08:41:56Z</time>
      </trkpt>
      <trkpt lat="45.14001" lon="6.10172">
        <ele>2182.8</ele>
        <time>2024-07-08T08:41:57Z</time>
      </trkpt>
      <trkpt lat="45.14002" lon="6.10173">
        <ele>2183</ele>
        <time>2024-07-08T08:41:58Z</time>
      </trkpt>
      <trkpt lat="45.14002" lon="6.10174">
        <ele>2183.2</ele>
        <time>2024-07-08T08:41:59Z</time>
      </trkpt>
      <trkpt lat="45.14002" lon="6.10175">
        <ele>2183.4</ele>
        <time>2024-07-08T08:42:00Z</time>
      </trkpt>
      <trkpt lat="45.14003" lon="6.10175">
        <ele>2183.6</ele>
        <time>2024-07-08T08:42:01Z</time>
      </trkpt>
      <trkpt lat="45.14003" lon="6.10176">
        <ele>2183.7</ele>
        <time>2024-07-08T08:42:02Z</time>
      </trkpt>
      <trkpt lat="45.14003" lon="6.10176">
        <ele>2183.8</ele>
        <time>2024-07-08T08:42:03Z</time>
      </trkpt>
      <trkpt lat="45.14004" lon="6.10176">
        <ele>2183.9</ele>
        <time>2024-07-08T08:42:04Z</time>
      </trkpt>
      <trkpt lat="45.14004" lon="6.10175">
        <ele>2184</ele>
        <time>2024-07-08T08:42:05Z</time>
      </trkpt>
      <trkpt lat="45.14005" lon="6.10174">
        <ele>2184.3</ele>
        <time>2024-07-08T08:42:06Z</time>
      </trkpt>
      <trkpt lat="45.14005" lon="6.10175">
        <ele>2184.4</ele>
        <time>2024-07-08T08:42:07Z</time>
      </trkpt>
      <trkpt lat="45.14006" lon="6.10175">
        <ele>2184.5</ele>
        <time>2024-07-08T08:42:08Z</time>
      </trkpt>
      <trkpt lat="45.14007" lon="6.10176">
        <ele>2184.8</ele>
        <time>2024-07-08T08:42:09Z</time>
      </trkpt>
      <trkpt lat="45.14007" lon="6.10177">
        <ele>2185</ele>
        <time>2024-07-08T08:42:10Z</time>
      </trkpt>
      <trkpt lat="45.14008" lon="6.10178">
        <ele>2185.2</ele>
        <time>2024-07-08T08:42:11Z</time>
      </trkpt>
      <trkpt lat="45.14009" lon="6.10179">
        <ele>2185.4</ele>
        <time>2024-07-08T08:42:12Z</time>
      </trkpt>
      <trkpt lat="45.14009" lon="6.1018">
        <ele>2185.6</ele>
        <time>2024-07-08T08:42:13Z</time>
      </trkpt>
      <trkpt lat="45.1401" lon="6.1018">
        <ele>2185.8</ele>
        <time>2024-07-08T08:42:14Z</time>
      </trkpt>
      <trkpt lat="45.1401" lon="6.10181">
        <ele>2185.9</ele>
        <time>2024-07-08T08:42:15Z</time>
      </trkpt>
      <trkpt lat="45.14011" lon="6.10182">
        <ele>2186.1</ele>
        <time>2024-07-08T08:42:16Z</time>
      </trkpt>
      <trkpt lat="45.14011" lon="6.10182">
        <ele>2186.3</ele>
        <time>2024-07-08T08:42:17Z</time>
      </trkpt>
      <trkpt lat="45.14012" lon="6.10183">
        <ele>2186.4</ele>
        <time>2024-07-08T08:42:18Z</time>
      </trkpt>
      <trkpt lat="45.14013" lon="6.10184">
        <ele>2186.6</ele>
        <time>2024-07-08T08:42:19Z</time>
      </trkpt>
      <trkpt lat="45.14013" lon="6.10184">
        <ele>2186.8</ele>
        <time>2024-07-08T08:42:20Z</time>
      </trkpt>
      <trkpt lat="45.14014" lon="6.10185">
        <ele>2187</ele>
        <time>2024-07-08T08:42:21Z</time>
      </trkpt>
      <trkpt lat="45.14014" lon="6.10186">
        <ele>2187.2</ele>
        <time>2024-07-08T08:42:22Z</time>
      </trkpt>
      <trkpt lat="45.14013" lon="6.10187">
        <ele>2187.3</ele>
        <time>2024-07-08T08:42:23Z</time>
      </trkpt>
      <trkpt lat="45.14013" lon="6.10188">
        <ele>2187.4</ele>
        <time>2024-07-08T08:42:24Z</time>
      </trkpt>
      <trkpt lat="45.14013" lon="6.10189">
        <ele>2187.6</ele>
        <time>2024-07-08T08:42:25Z</time>
      </trkpt>
      <trkpt lat="45.14012" lon="6.1019">
        <ele>2187.9</ele>
        <time>2024-07-08T08:42:26Z</time>
      </trkpt>
      <trkpt lat="45.14011" lon="6.1019">
        <ele>2188</ele>
        <time>2024-07-08T08:42:27Z</time>
      </trkpt>
      <trkpt lat="45.14011" lon="6.1019">
        <ele>2188.3</ele>
        <time>2024-07-08T08:42:28Z</time>
      </trkpt>
      <trkpt lat="45.1401" lon="6.1019">
        <ele>2188.4</ele>
        <time>2024-07-08T08:42:29Z</time>
      </trkpt>
      <trkpt lat="45.14009" lon="6.10189">
        <ele>2188.6</ele>
        <time>2024-07-08T08:42:30Z</time>
      </trkpt>
      <trkpt lat="45.14008" lon="6.10189">
        <ele>2188.8</ele>
        <time>2024-07-08T08:42:31Z</time>
      </trkpt>
      <trkpt lat="45.14008" lon="6.10189">
        <ele>2188.9</ele>
        <time>2024-07-08T08:42:32Z</time>
      </trkpt>
      <trkpt lat="45.14007" lon="6.10189">
        <ele>2189</ele>
        <time>2024-07-08T08:42:33Z</time>
      </trkpt>
      <trkpt lat="45.14007" lon="6.10189">
        <ele>2189.2</ele>
        <time>2024-07-08T08:42:34Z</time>
      </trkpt>
      <trkpt lat="45.14006" lon="6.1019">
        <ele>2189.3</ele>
        <time>2024-07-08T08:42:35Z</time>
      </trkpt>
      <trkpt lat="45.14006" lon="6.1019">
        <ele>2189.4</ele>
        <time>2024-07-08T08:42:36Z</time>
      </trkpt>
      <trkpt lat="45.14006" lon="6.10191">
        <ele>2189.5</ele>
        <time>2024-07-08T08:42:37Z</time>
      </trkpt>
      <trkpt lat="45.14006" lon="6.10192">
        <ele>2189.6</ele>
        <time>2024-07-08T08:42:38Z</time>
      </trkpt>
      <trkpt lat="45.14006" lon="6.10192">
        <ele>2189.7</ele>
        <time>2024-07-08T08:42:39Z</time>
      </trkpt>
      <trkpt lat="45.14006" lon="6.10193">
        <ele>2189.9</ele>
        <time>2024-07-08T08:42:40Z</time>
      </trkpt>
      <trkpt lat="45.14006" lon="6.10195">
        <ele>2190.1</ele>
        <time>2024-07-08T08:42:41Z</time>
      </trkpt>
      <trkpt lat="45.14006" lon="6.10196">
        <ele>2190.3</ele>
        <time>2024-07-08T08:42:42Z</time>
      </trkpt>
      <trkpt lat="45.14007" lon="6.10196">
        <ele>2190.5</ele>
        <time>2024-07-08T08:42:43Z</time>
      </trkpt>
      <trkpt lat="45.14007" lon="6.10196">
        <ele>2190.6</ele>
        <time>2024-07-08T08:42:44Z</time>
      </trkpt>
      <trkpt lat="45.14008" lon="6.10197">
        <ele>2190.8</ele>
        <time>2024-07-08T08:42:45Z</time>
      </trkpt>
      <trkpt lat="45.14009" lon="6.10197">
        <ele>2191</ele>
        <time>2024-07-08T08:42:46Z</time>
      </trkpt>
      <trkpt lat="45.14009" lon="6.10197">
        <ele>2191.1</ele>
        <time>2024-07-08T08:42:47Z</time>
      </trkpt>
      <trkpt lat="45.14009" lon="6.10197">
        <ele>2191.2</ele>
        <time>2024-07-08T08:42:48Z</time>
      </trkpt>
      <trkpt lat="45.1401" lon="6.10197">
        <ele>2191.4</ele>
        <time>2024-07-08T08:42:49Z</time>
      </trkpt>
      <trkpt lat="45.14011" lon="6.10198">
        <ele>2191.6</ele>
        <time>2024-07-08T08:42:50Z</time>
      </trkpt>
      <trkpt lat="45.14011" lon="6.10197">
        <ele>2191.7</ele>
        <time>2024-07-08T08:42:51Z</time>
      </trkpt>
      <trkpt lat="45.14011" lon="6.10197">
        <ele>2191.8</ele>
        <time>2024-07-08T08:42:52Z</time>
      </trkpt>
      <trkpt lat="45.14011" lon="6.10198">
        <ele>2191.9</ele>
        <time>2024-07-08T08:42:53Z</time>
      </trkpt>
      <trkpt lat="45.14011" lon="6.10199">
        <ele>2192.1</ele>
        <time>2024-07-08T08:42:54Z</time>
      </trkpt>
      <trkpt lat="45.1401" lon="6.10199">
        <ele>2192.3</ele>
        <time>2024-07-08T08:42:55Z</time>
      </trkpt>
      <trkpt lat="45.14009" lon="6.10199">
        <ele>2192.6</ele>
        <time>2024-07-08T08:42:56Z</time>
      </trkpt>
      <trkpt lat="45.14009" lon="6.102">
        <ele>2192.8</ele>
        <time>2024-07-08T08:42:57Z</time>
      </trkpt>
      <trkpt lat="45.14009" lon="6.10201">
        <ele>2192.9</ele>
        <time>2024-07-08T08:42:58Z</time>
      </trkpt>
      <trkpt lat="45.14008" lon="6.10202">
        <ele>2193.1</ele>
        <time>2024-07-08T08:42:59Z</time>
      </trkpt>
      <trkpt lat="45.14008" lon="6.10202">
        <ele>2193.3</ele>
        <time>2024-07-08T08:43:00Z</time>
      </trkpt>
      <trkpt lat="45.14007" lon="6.10202">
        <ele>2193.5</ele>
        <time>2024-07-08T08:43:01Z</time>
      </trkpt>
      <trkpt lat="45.14007" lon="6.10202">
        <ele>2193.6</ele>
        <time>2024-07-08T08:43:02Z</time>
      </trkpt>
      <trkpt lat="45.14006" lon="6.10202">
        <ele>2193.7</ele>
        <time>2024-07-08T08:43:03Z</time>
      </trkpt>
      <trkpt lat="45.14006" lon="6.10202">
        <ele>2193.8</ele>
        <time>2024-07-08T08:43:04Z</time>
      </trkpt>
      <trkpt lat="45.14006" lon="6.10203">
        <ele>2194</ele>
        <time>2024-07-08T08:43:05Z</time>
      </trkpt>
      <trkpt lat="45.14005" lon="6.10203">
        <ele>2194.1</ele>
        <time>2024-07-08T08:43:06Z</time>
      </trkpt>
      <trkpt lat="45.14005" lon="6.10204">
        <ele>2194.2</ele>
        <time>2024-07-08T08:43:07Z</time>
      </trkpt>
      <trkpt lat="45.14005" lon="6.10204">
        <ele>2194.3</ele>
        <time>2024-07-08T08:43:08Z</time>
      </trkpt>
      <trkpt lat="45.14005" lon="6.10204">
        <ele>2194.4</ele>
        <time>2024-07-08T08:43:09Z</time>
      </trkpt>
      <trkpt lat="45.14005" lon="6.10205">
        <ele>2194.5</ele>
        <time>2024-07-08T08:43:10Z</time>
      </trkpt>
      <trkpt lat="45.14004" lon="6.10206">
        <ele>2194.8</ele>
        <time>2024-07-08T08:43:11Z</time>
      </trkpt>
      <trkpt lat="45.14003" lon="6.10206">
        <ele>2194.9</ele>
        <time>2024-07-08T08:43:12Z</time>
      </trkpt>
      <trkpt lat="45.14003" lon="6.10207">
        <ele>2195.2</ele>
        <time>2024-07-08T08:43:13Z</time>
      </trkpt>
      <trkpt lat="45.14002" lon="6.10207">
        <ele>2195.4</ele>
        <time>2024-07-08T08:43:14Z</time>
      </trkpt>
      <trkpt lat="45.14002" lon="6.10208">
        <ele>2195.6</ele>
        <time>2024-07-08T08:43:15Z</time>
      </trkpt>
      <trkpt lat="45.14002" lon="6.1021">
        <ele>2195.9</ele>
        <time>2024-07-08T08:43:16Z</time>
      </trkpt>
      <trkpt lat="45.14002" lon="6.1021">
        <ele>2196.1</ele>
        <time>2024-07-08T08:43:17Z</time>
      </trkpt>
      <trkpt lat="45.14003" lon="6.10211">
        <ele>2196.4</ele>
        <time>2024-07-08T08:43:18Z</time>
      </trkpt>
      <trkpt lat="45.14003" lon="6.10212">
        <ele>2196.6</ele>
        <time>2024-07-08T08:43:19Z</time>
      </trkpt>
      <trkpt lat="45.14004" lon="6.10212">
        <ele>2196.9</ele>
        <time>2024-07-08T08:43:20Z</time>
      </trkpt>
      <trkpt lat="45.14006" lon="6.10212">
        <ele>2197.3</ele>
        <time>2024-07-08T08:43:21Z</time>
      </trkpt>
      <trkpt lat="45.14007" lon="6.10212">
        <ele>2197.6</ele>
        <time>2024-07-08T08:43:22Z</time>
      </trkpt>
      <trkpt lat="45.14008" lon="6.10212">
        <ele>2197.8</ele>
        <time>2024-07-08T08:43:23Z</time>
      </trkpt>
      <trkpt lat="45.14008" lon="6.10212">
        <ele>2198.1</ele>
        <time>2024-07-08T08:43:24Z</time>
      </trkpt>
      <trkpt lat="45.14008" lon="6.10213">
        <ele>2198.2</ele>
        <time>2024-07-08T08:43:25Z</time>
      </trkpt>
      <trkpt lat="45.14009" lon="6.10214">
        <ele>2198.5</ele>
        <time>2024-07-08T08:43:26Z</time>
      </trkpt>
      <trkpt lat="45.14009" lon="6.10213">
        <ele>2198.7</ele>
        <time>2024-07-08T08:43:27Z</time>
      </trkpt>
      <trkpt lat="45.1401" lon="6.10213">
        <ele>2199</ele>
        <time>2024-07-08T08:43:28Z</time>
      </trkpt>
      <trkpt lat="45.14011" lon="6.10213">
        <ele>2199.2</ele>
        <time>2024-07-08T08:43:29Z</time>
      </trkpt>
      <trkpt lat="45.1401" lon="6.10213">
        <ele>2199.3</ele>
        <time>2024-07-08T08:43:30Z</time>
      </trkpt>
      <trkpt lat="45.14011" lon="6.10214">
        <ele>2199.5</ele>
        <time>2024-07-08T08:43:31Z</time>
      </trkpt>
      <trkpt lat="45.14011" lon="6.10214">
        <ele>2199.6</ele>
        <time>2024-07-08T08:43:32Z</time>
      </trkpt>
      <trkpt lat="45.14011" lon="6.10214">
        <ele>2199.7</ele>
        <time>2024-07-08T08:43:33Z</time>
      </trkpt>
      <trkpt lat="45.14012" lon="6.10214">
        <ele>2200</ele>
        <time>2024-07-08T08:43:34Z</time>
      </trkpt>
      <trkpt lat="45.14012" lon="6.10214">
        <ele>2200</ele>
        <time>2024-07-08T08:43:35Z</time>
      </trkpt>
      <trkpt lat="45.14013" lon="6.10215">
        <ele>2200.3</ele>
        <time>2024-07-08T08:43:36Z</time>
      </trkpt>
      <trkpt lat="45.14013" lon="6.10215">
        <ele>2200.4</ele>
        <time>2024-07-08T08:43:37Z</time>
      </trkpt>
      <trkpt lat="45.14013" lon="6.10216">
        <ele>2200.6</ele>
        <time>2024-07-08T08:43:38Z</time>
      </trkpt>
      <trkpt lat="45.14013" lon="6.10216">
        <ele>2200.8</ele>
        <time>2024-07-08T08:43:39Z</time>
      </trkpt>
      <trkpt lat="45.14014" lon="6.10216">
        <ele>2200.9</ele>
        <time>2024-07-08T08:43:40Z</time>
      </trkpt>
      <trkpt lat="45.14014" lon="6.10216">
        <ele>2201.1</ele>
        <time>2024-07-08T08:43:41Z</time>
      </trkpt>
      <trkpt lat="45.14015" lon="6.10216">
        <ele>2201.2</ele>
        <time>2024-07-08T08:43:42Z</time>
      </trkpt>
      <trkpt lat="45.14015" lon="6.10217">
        <ele>2201.4</ele>
        <time>2024-07-08T08:43:43Z</time>
      </trkpt>
      <trkpt lat="45.14015" lon="6.10218">
        <ele>2201.6</ele>
        <time>2024-07-08T08:43:44Z</time>
      </trkpt>
      <trkpt lat="45.14015" lon="6.10219">
        <ele>2201.8</ele>
        <time>2024-07-08T08:43:45Z</time>
      </trkpt>
      <trkpt lat="45.14015" lon="6.1022">
        <ele>2202.1</ele>
        <time>2024-07-08T08:43:46Z</time>
      </trkpt>
      <trkpt lat="45.14014" lon="6.10221">
        <ele>2202.2</ele>
        <time>2024-07-08T08:43:47Z</time>
      </trkpt>
      <trkpt lat="45.14014" lon="6.10221">
        <ele>2202.4</ele>
        <time>2024-07-08T08:43:48Z</time>
      </trkpt>
      <trkpt lat="45.14013" lon="6.10222">
        <ele>2202.6</ele>
        <time>2024-07-08T08:43:49Z</time>
      </trkpt>
      <trkpt lat="45.14012" lon="6.10222">
        <ele>2202.9</ele>
        <time>2024-07-08T08:43:50Z</time>
      </trkpt>
      <trkpt lat="45.14011" lon="6.10222">
        <ele>2203.2</ele>
        <time>2024-07-08T08:43:51Z</time>
      </trkpt>
      <trkpt lat="45.1401" lon="6.10222">
        <ele>2203.4</ele>
        <time>2024-07-08T08:43:52Z</time>
      </trkpt>
      <trkpt lat="45.1401" lon="6.10221">
        <ele>2203.6</ele>
        <time>2024-07-08T08:43:53Z</time>
      </trkpt>
      <trkpt lat="45.14009" lon="6.10221">
        <ele>2203.7</ele>
        <time>2024-07-08T08:43:54Z</time>
      </trkpt>
      <trkpt lat="45.1401" lon="6.1022">
        <ele>2203.9</ele>
        <time>2024-07-08T08:43:55Z</time>
      </trkpt>
      <trkpt lat="45.1401" lon="6.1022">
        <ele>2204.1</ele>
        <time>2024-07-08T08:43:56Z</time>
      </trkpt>
      <trkpt lat="45.1401" lon="6.1022">
        <ele>2204.1</ele>
        <time>2024-07-08T08:43:57Z</time>
      </trkpt>
      <trkpt lat="45.14011" lon="6.1022">
        <ele>2204.2</ele>
        <time>2024-07-08T08:43:58Z</time>
      </trkpt>
      <trkpt lat="45.14011" lon="6.1022">
        <ele>2204.2</ele>
        <time>2024-07-08T08:43:59Z</time>
      </trkpt>
      <trkpt lat="45.14011" lon="6.10219">
        <ele>2204.3</ele>
        <time>2024-07-08T08:44:00Z</time>
      </trkpt>
      <trkpt lat="45.14011" lon="6.10219">
        <ele>2204.3</ele>
        <time>2024-07-08T08:44:01Z</time>
      </trkpt>
      <trkpt lat="45.14011" lon="6.10219">
        <ele>2204.4</ele>
        <time>2024-07-08T08:44:02Z</time>
      </trkpt>
      <trkpt lat="45.14011" lon="6.10219">
        <ele>2204.5</ele>
        <time>2024-07-08T08:44:03Z</time>
      </trkpt>
      <trkpt lat="45.1401" lon="6.10219">
        <ele>2204.5</ele>
        <time>2024-07-08T08:44:04Z</time>
      </trkpt>
      <trkpt lat="45.1401" lon="6.1022">
        <ele>2204.7</ele>
        <time>2024-07-08T08:44:05Z</time>
      </trkpt>
      <trkpt lat="45.14009" lon="6.1022">
        <ele>2204.8</ele>
        <time>2024-07-08T08:44:06Z</time>
      </trkpt>
      <trkpt lat="45.14009" lon="6.1022">
        <ele>2205</ele>
        <time>2024-07-08T08:44:07Z</time>
      </trkpt>
      <trkpt lat="45.14008" lon="6.1022">
        <ele>2205.2</ele>
        <time>2024-07-08T08:44:08Z</time>
      </trkpt>
      <trkpt lat="45.14007" lon="6.1022">
        <ele>2205.4</ele>
        <time>2024-07-08T08:44:09Z</time>
      </trkpt>
      <trkpt lat="45.14006" lon="6.10221">
        <ele>2205.7</ele>
        <time>2024-07-08T08:44:10Z</time>
      </trkpt>
      <trkpt lat="45.14006" lon="6.10223">
        <ele>2206</ele>
        <time>2024-07-08T08:44:11Z</time>
      </trkpt>
      <trkpt lat="45.14006" lon="6.10224">
        <ele>2206.2</ele>
        <time>2024-07-08T08:44:12Z</time>
      </trkpt>
      <trkpt lat="45.14007" lon="6.10224">
        <ele>2206.3</ele>
        <time>2024-07-08T08:44:13Z</time>
      </trkpt>
      <trkpt lat="45.14008" lon="6.10225">
        <ele>2206.5</ele>
        <time>2024-07-08T08:44:14Z</time>
      </trkpt>
      <trkpt lat="45.14008" lon="6.10226">
        <ele>2206.7</ele>
        <time>2024-07-08T08:44:15Z</time>
      </trkpt>
      <trkpt lat="45.14009" lon="6.10226">
        <ele>2207</ele>
        <time>2024-07-08T08:44:16Z</time>
      </trkpt>
      <trkpt lat="45.14009" lon="6.10227">
        <ele>2207.1</ele>
        <time>2024-07-08T08:44:17Z</time>
      </trkpt>
      <trkpt lat="45.1401" lon="6.10227">
        <ele>2207.2</ele>
        <time>2024-07-08T08:44:18Z</time>
      </trkpt>
      <trkpt lat="45.1401" lon="6.10227">
        <ele>2207.2</ele>
        <time>2024-07-08T08:44:19Z</time>
      </trkpt>
      <trkpt lat="45.1401" lon="6.10228">
        <ele>2207.4</ele>
        <time>2024-07-08T08:44:20Z</time>
      </trkpt>
      <trkpt lat="45.14009" lon="6.10229">
        <ele>2207.5</ele>
        <time>2024-07-08T08:44:21Z</time>
      </trkpt>
      <trkpt lat="45.1401" lon="6.10229">
        <ele>2207.5</ele>
        <time>2024-07-08T08:44:22Z</time>
      </trkpt>
      <trkpt lat="45.14009" lon="6.10229">
        <ele>2207.6</ele>
        <time>2024-07-08T08:44:23Z</time>
      </trkpt>
      <trkpt lat="45.14009" lon="6.10229">
        <ele>2207.7</ele>
        <time>2024-07-08T08:44:24Z</time>
      </trkpt>
      <trkpt lat="45.14009" lon="6.1023">
        <ele>2207.8</ele>
        <time>2024-07-08T08:44:25Z</time>
      </trkpt>
      <trkpt lat="45.14009" lon="6.10229">
        <ele>2207.9</ele>
        <time>2024-07-08T08:44:26Z</time>
      </trkpt>
      <trkpt lat="45.14008" lon="6.1023">
        <ele>2207.9</ele>
        <time>2024-07-08T08:44:27Z</time>
      </trkpt>
      <trkpt lat="45.14008" lon="6.1023">
        <ele>2208.1</ele>
        <time>2024-07-08T08:44:28Z</time>
      </trkpt>
      <trkpt lat="45.14008" lon="6.1023">
        <ele>2208.1</ele>
        <time>2024-07-08T08:44:29Z</time>
      </trkpt>
      <trkpt lat="45.14008" lon="6.10231">
        <ele>2208.2</ele>
        <time>2024-07-08T08:44:30Z</time>
      </trkpt>
      <trkpt lat="45.14008" lon="6.10231">
        <ele>2208.3</ele>
        <time>2024-07-08T08:44:31Z</time>
      </trkpt>
      <trkpt lat="45.14009" lon="6.10231">
        <ele>2208.4</ele>
        <time>2024-07-08T08:44:32Z</time>
      </trkpt>
      <trkpt lat="45.14009" lon="6.10232">
        <ele>2208.5</ele>
        <time>2024-07-08T08:44:33Z</time>
      </trkpt>
      <trkpt lat="45.1401" lon="6.10231">
        <ele>2208.7</ele>
        <time>2024-07-08T08:44:34Z</time>
      </trkpt>
      <trkpt lat="45.14011" lon="6.10231">
        <ele>2209</ele>
        <time>2024-07-08T08:44:35Z</time>
      </trkpt>
      <trkpt lat="45.14011" lon="6.10231">
        <ele>2209.1</ele>
        <time>2024-07-08T08:44:36Z</time>
      </trkpt>
      <trkpt lat="45.14012" lon="6.10231">
        <ele>2209.2</ele>
        <time>2024-07-08T08:44:37Z</time>
      </trkpt>
      <trkpt lat="45.14012" lon="6.10232">
        <ele>2209.4</ele>
        <time>2024-07-08T08:44:38Z</time>
      </trkpt>
      <trkpt lat="45.14012" lon="6.10232">
        <ele>2209.4</ele>
        <time>2024-07-08T08:44:39Z</time>
      </trkpt>
      <trkpt lat="45.14013" lon="6.10232">
        <ele>2209.5</ele>
        <time>2024-07-08T08:44:40Z</time>
      </trkpt>
      <trkpt lat="45.14013" lon="6.10232">
        <ele>2209.6</ele>
        <time>2024-07-08T08:44:41Z</time>
      </trkpt>
      <trkpt lat="45.14014" lon="6.10232">
        <ele>2209.7</ele>
        <time>2024-07-08T08:44:42Z</time>
      </trkpt>
      <trkpt lat="45.14014" lon="6.10231">
        <ele>2209.8</ele>
        <time>2024-07-08T08:44:43Z</time>
      </trkpt>
      <trkpt lat="45.14014" lon="6.10231">
        <ele>2210</ele>
        <time>2024-07-08T08:44:44Z</time>
      </trkpt>
      <trkpt lat="45.14014" lon="6.1023">
        <ele>2210.1</ele>
        <time>2024-07-08T08:44:45Z</time>
      </trkpt>
      <trkpt lat="45.14014" lon="6.1023">
        <ele>2210.1</ele>
        <time>2024-07-08T08:44:46Z</time>
      </trkpt>
      <trkpt lat="45.14014" lon="6.10229">
        <ele>2210.3</ele>
        <time>2024-07-08T08:44:47Z</time>
      </trkpt>
      <trkpt lat="45.14014" lon="6.1023">
        <ele>2210.3</ele>
        <time>2024-07-08T08:44:48Z</time>
      </trkpt>
      <trkpt lat="45.14013" lon="6.10229">
        <ele>2210.4</ele>
        <time>2024-07-08T08:44:49Z</time>
      </trkpt>
      <trkpt lat="45.14013" lon="6.10229">
        <ele>2210.4</ele>
        <time>2024-07-08T08:44:50Z</time>
      </trkpt>
      <trkpt lat="45.14013" lon="6.10229">
        <ele>2210.4</ele>
        <time>2024-07-08T08:44:51Z</time>
      </trkpt>
      <trkpt lat="45.14013" lon="6.10229">
        <ele>2210.4</ele>
        <time>2024-07-08T08:44:52Z</time>
      </trkpt>
      <trkpt lat="45.14013" lon="6.10229">
        <ele>2210.4</ele>
        <time>2024-07-08T08:44:53Z</time>
      </trkpt>
      <trkpt lat="45.14013" lon="6.10229">
        <ele>2210.5</ele>
        <time>2024-07-08T08:44:54Z</time>
      </trkpt>
      <trkpt lat="45.14013" lon="6.10229">
        <ele>2210.5</ele>
        <time>2024-07-08T08:44:55Z</time>
      </trkpt>
      <trkpt lat="45.14013" lon="6.10229">
        <ele>2210.5</ele>
        <time>2024-07-08T08:44:56Z</time>
      </trkpt>
      <trkpt lat="45.14013" lon="6.10229">
        <ele>2210.5</ele>
        <time>2024-07-08T08:44:57Z</time>
      </trkpt>
      <trkpt lat="45.14013" lon="6.10229">
        <ele>2210.5</ele>
        <time>2024-07-08T08:44:58Z</time>
      </trkpt>
      <trkpt lat="45.14013" lon="6.10229">
        <ele>2210.5</ele>
        <time>2024-07-08T08:44:59Z</time>
      </trkpt>
      <trkpt lat="45.14013" lon="6.10229">
        <ele>2210.5</ele>
        <time>2024-07-08T08:45:00Z</time>
      </trkpt>
      <trkpt lat="45.14013" lon="6.10229">
        <ele>2210.5</ele>
        <time>2024-07-08T08:45:01Z</time>
      </trkpt>
      <trkpt lat="45.14013" lon="6.10229">
        <ele>2210.5</ele>
        <time>2024-07-08T08:45:02Z</time>
      </trkpt>
      <trkpt lat="45.14013" lon="6.10229">
        <ele>2210.5</ele>
        <time>2024-07-08T08:45:03Z</time>
      </trkpt>
      <trkpt lat="45.14013" lon="6.10229">
        <ele>2210.6</ele>
        <time>2024-07-08T08:45:04Z</time>
      </trkpt>
      <trkpt lat="45.14013" lon="6.10229">
        <ele>2210.6</ele>
        <time>2024-07-08T08:45:05Z</time>
      </trkpt>
      <trkpt lat="45.14013" lon="6.10229">
        <ele>2210.6</ele>
        <time>2024-07-08T08:45:06Z</time>
      </trkpt>
      <trkpt lat="45.14013" lon="6.10229">
        <ele>2210.6</ele>
        <time>2024-07-08T08:45:07Z</time>
      </trkpt>
      <trkpt lat="45.14013" lon="6.10229">
        <ele>2210.6</ele>
        <time>2024-07-08T08:45:08Z</time>
      </trkpt>
      <trkpt lat="45.14013" lon="6.10229">
        <ele>2210.6</ele>
        <time>2024-07-08T08:45:09Z</time>
      </trkpt>
      <trkpt lat="45.14013" lon="6.10229">
        <ele>2210.7</ele>
        <time>2024-07-08T08:45:10Z</time>
      </trkpt>
      <trkpt lat="45.14013" lon="6.10229">
        <ele>2210.7</ele>
        <time>2024-07-08T08:45:11Z</time>
      </trkpt>
      <trkpt lat="45.14013" lon="6.10229">
        <ele>2210.7</ele>
        <time>2024-07-08T08:45:12Z</time>
      </trkpt>
      <trkpt lat="45.14013" lon="6.10229">
        <ele>2210.7</ele>
        <time>2024-07-08T08:45:13Z</time>
      </trkpt>
      <trkpt lat="45.14013" lon="6.10229">
        <ele>2210.7</ele>
        <time>2024-07-08T08:45:14Z</time>
      </trkpt>
      <trkpt lat="45.14013" lon="6.10229">
        <ele>2210.7</ele>
        <time>2024-07-08T08:45:15Z</time>
      </trkpt>
      <trkpt lat="45.14013" lon="6.10229">
        <ele>2210.7</ele>
        <time>2024-07-08T08:45:16Z</time>
      </trkpt>
      <trkpt lat="45.14013" lon="6.10229">
        <ele>2210.7</ele>
        <time>2024-07-08T08:45:17Z</time>
      </trkpt>
      <trkpt lat="45.14013" lon="6.10229">
        <ele>2210.7</ele>
        <time>2024-07-08T08:45:18Z</time>
      </trkpt>
      <trkpt lat="45.14013" lon="6.10229">
        <ele>2210.7</ele>
        <time>2024-07-08T08:45:19Z</time>
      </trkpt>
      <trkpt lat="45.14013" lon="6.10228">
        <ele>2210.7</ele>
        <time>2024-07-08T08:45:20Z</time>
      </trkpt>
      <trkpt lat="45.14013" lon="6.10228">
        <ele>2210.7</ele>
        <time>2024-07-08T08:45:21Z</time>
      </trkpt>
      <trkpt lat="45.14013" lon="6.10228">
        <ele>2210.8</ele>
        <time>2024-07-08T08:45:22Z</time>
      </trkpt>
      <trkpt lat="45.14013" lon="6.10228">
        <ele>2210.8</ele>
        <time>2024-07-08T08:45:23Z</time>
      </trkpt>
      <trkpt lat="45.14013" lon="6.10228">
        <ele>2210.8</ele>
        <time>2024-07-08T08:45:24Z</time>
      </trkpt>
      <trkpt lat="45.14013" lon="6.10228">
        <ele>2210.8</ele>
        <time>2024-07-08T08:45:25Z</time>
      </trkpt>
      <trkpt lat="45.14013" lon="6.10228">
        <ele>2210.8</ele>
        <time>2024-07-08T08:45:26Z</time>
      </trkpt>
      <trkpt lat="45.14013" lon="6.10228">
        <ele>2210.8</ele>
        <time>2024-07-08T08:45:27Z</time>
      </trkpt>
      <trkpt lat="45.14013" lon="6.10228">
        <ele>2210.8</ele>
        <time>2024-07-08T08:45:28Z</time>
      </trkpt>
      <trkpt lat="45.14013" lon="6.10228">
        <ele>2210.8</ele>
        <time>2024-07-08T08:45:29Z</time>
      </trkpt>
      <trkpt lat="45.14013" lon="6.10228">
        <ele>2210.8</ele>
        <time>2024-07-08T08:45:30Z</time>
      </trkpt>
      <trkpt lat="45.14013" lon="6.10228">
        <ele>2210.8</ele>
        <time>2024-07-08T08:45:31Z</time>
      </trkpt>
      <trkpt lat="45.14013" lon="6.10228">
        <ele>2210.8</ele>
        <time>2024-07-08T08:45:32Z</time>
      </trkpt>
      <trkpt lat="45.14013" lon="6.10228">
        <ele>2210.8</ele>
        <time>2024-07-08T08:45:33Z</time>
      </trkpt>
      <trkpt lat="45.14013" lon="6.10228">
        <ele>2210.8</ele>
        <time>2024-07-08T08:45:34Z</time>
      </trkpt>
      <trkpt lat="45.14013" lon="6.10228">
        <ele>2210.8</ele>
        <time>2024-07-08T08:45:35Z</time>
      </trkpt>
      <trkpt lat="45.14013" lon="6.10228">
        <ele>2210.8</ele>
        <time>2024-07-08T08:45:36Z</time>
      </trkpt>
      <trkpt lat="45.14013" lon="6.10228">
        <ele>2210.8</ele>
        <time>2024-07-08T08:45:37Z</time>
      </trkpt>
      <trkpt lat="45.14013" lon="6.10228">
        <ele>2210.8</ele>
        <time>2024-07-08T08:45:38Z</time>
      </trkpt>
      <trkpt lat="45.14013" lon="6.10228">
        <ele>2210.8</ele>
        <time>2024-07-08T08:45:39Z</time>
      </trkpt>
      <trkpt lat="45.14013" lon="6.10228">
        <ele>2210.8</ele>
        <time>2024-07-08T08:45:40Z</time>
      </trkpt>
      <trkpt lat="45.14013" lon="6.10228">
        <ele>2210.8</ele>
        <time>2024-07-08T08:45:41Z</time>
      </trkpt>
      <trkpt lat="45.14013" lon="6.10228">
        <ele>2210.8</ele>
        <time>2024-07-08T08:45:42Z</time>
      </trkpt>
      <trkpt lat="45.14013" lon="6.10228">
        <ele>2210.9</ele>
        <time>2024-07-08T08:45:43Z</time>
      </trkpt>
      <trkpt lat="45.14013" lon="6.10228">
        <ele>2210.9</ele>
        <time>2024-07-08T08:45:44Z</time>
      </trkpt>
      <trkpt lat="45.14013" lon="6.10228">
        <ele>2210.9</ele>
        <time>2024-07-08T08:45:45Z</time>
      </trkpt>
      <trkpt lat="45.14013" lon="6.10228">
        <ele>2210.9</ele>
        <time>2024-07-08T08:45:46Z</time>
      </trkpt>
      <trkpt lat="45.14013" lon="6.10228">
        <ele>2210.9</ele>
        <time>2024-07-08T08:45:47Z</time>
      </trkpt>
      <trkpt lat="45.14013" lon="6.10228">
        <ele>2210.9</ele>
        <time>2024-07-08T08:45:48Z</time>
      </trkpt>
      <trkpt lat="45.14013" lon="6.10228">
        <ele>2210.9</ele>
        <time>2024-07-08T08:45:49Z</time>
      </trkpt>
      <trkpt lat="45.14013" lon="6.10228">
        <ele>2210.9</ele>
        <time>2024-07-08T08:45:50Z</time>
      </trkpt>
      <trkpt lat="45.14013" lon="6.10228">
        <ele>2210.9</ele>
        <time>2024-07-08T08:45:51Z</time>
      </trkpt>
      <trkpt lat="45.14013" lon="6.10228">
        <ele>2210.9</ele>
        <time>2024-07-08T08:45:52Z</time>
      </trkpt>
      <trkpt lat="45.14013" lon="6.10228">
        <ele>2210.9</ele>
        <time>2024-07-08T08:45:53Z</time>
      </trkpt>
      <trkpt lat="45.14013" lon="6.10228">
        <ele>2210.9</ele>
        <time>2024-07-08T08:45:54Z</time>
      </trkpt>
      <trkpt lat="45.14013" lon="6.10228">
        <ele>2210.9</ele>
        <time>2024-07-08T08:45:55Z</time>
      </trkpt>
      <trkpt lat="45.14013" lon="6.10228">
        <ele>2210.9</ele>
        <time>2024-07-08T08:45:56Z</time>
      </trkpt>
      <trkpt lat="45.14013" lon="6.10228">
        <ele>2210.9</ele>
        <time>2024-07-08T08:45:57Z</time>
      </trkpt>
      <trkpt lat="45.14013" lon="6.10228">
        <ele>2210.9</ele>
        <time>2024-07-08T08:45:58Z</time>
      </trkpt>
      <trkpt lat="45.14013" lon="6.10228">
        <ele>2210.9</ele>
        <time>2024-07-08T08:45:59Z</time>
      </trkpt>
      <trkpt lat="45.14013" lon="6.10228">
        <ele>2210.9</ele>
        <time>2024-07-08T08:46:00Z</time>
      </trkpt>
      <trkpt lat="45.14013" lon="6.10228">
        <ele>2210.9</ele>
        <time>2024-07-08T08:46:01Z</time>
      </trkpt>
      <trkpt lat="45.14013" lon="6.10228">
        <ele>2210.9</ele>
        <time>2024-07-08T08:46:02Z</time>
      </trkpt>
      <trkpt lat="45.14013" lon="6.10228">
        <ele>2210.9</ele>
        <time>2024-07-08T08:46:03Z</time>
      </trkpt>
      <trkpt lat="45.14013" lon="6.10228">
        <ele>2210.9</ele>
        <time>2024-07-08T08:46:04Z</time>
      </trkpt>
      <trkpt lat="45.14013" lon="6.10228">
        <ele>2210.9</ele>
        <time>2024-07-08T08:46:05Z</time>
      </trkpt>
      <trkpt lat="45.14013" lon="6.10228">
        <ele>2210.9</ele>
        <time>2024-07-08T08:46:06Z</time>
      </trkpt>
      <trkpt lat="45.14013" lon="6.10228">
        <ele>2210.9</ele>
        <time>2024-07-08T08:46:07Z</time>
      </trkpt>
      <trkpt lat="45.14013" lon="6.10228">
        <ele>2210.9</ele>
        <time>2024-07-08T08:46:08Z</time>
      </trkpt>
      <trkpt lat="45.14013" lon="6.10228">
        <ele>2210.9</ele>
        <time>2024-07-08T08:46:09Z</time>
      </trkpt>
      <trkpt lat="45.14013" lon="6.10228">
        <ele>2210.9</ele>
        <time>2024-07-08T08:46:10Z</time>
      </trkpt>
      <trkpt lat="45.14013" lon="6.10228">
        <ele>2210.9</ele>
        <time>2024-07-08T08:46:11Z</time>
      </trkpt>
      <trkpt lat="45.14013" lon="6.10228">
        <ele>2210.9</ele>
        <time>2024-07-08T08:46:12Z</time>
      </trkpt>
      <trkpt lat="45.14013" lon="6.10228">
        <ele>2210.9</ele>
        <time>2024-07-08T08:46:13Z</time>
      </trkpt>
      <trkpt lat="45.14013" lon="6.10228">
        <ele>2210.9</ele>
        <time>2024-07-08T08:46:14Z</time>
      </trkpt>
      <trkpt lat="45.14013" lon="6.10228">
        <ele>2210.9</ele>
        <time>2024-07-08T08:46:15Z</time>
      </trkpt>
      <trkpt lat="45.14013" lon="6.10228">
        <ele>2210.9</ele>
        <time>2024-07-08T08:46:16Z</time>
      </trkpt>
      <trkpt lat="45.14013" lon="6.10228">
        <ele>2210.9</ele>
        <time>2024-07-08T08:46:17Z</time>
      </trkpt>
      <trkpt lat="45.14013" lon="6.10228">
        <ele>2210.9</ele>
        <time>2024-07-08T08:46:18Z</time>
      </trkpt>
      <trkpt lat="45.14013" lon="6.10228">
        <ele>2210.9</ele>
        <time>2024-07-08T08:46:19Z</time>
      </trkpt>
      <trkpt lat="45.14013" lon="6.10228">
        <ele>2210.9</ele>
        <time>2024-07-08T08:46:20Z</time>
      </trkpt>
      <trkpt lat="45.14013" lon="6.10228">
        <ele>2210.9</ele>
        <time>2024-07-08T08:46:21Z</time>
      </trkpt>
      <trkpt lat="45.14013" lon="6.10228">
        <ele>2210.9</ele>
        <time>2024-07-08T08:46:22Z</time>
      </trkpt>
      <trkpt lat="45.14013" lon="6.10228">
        <ele>2210.9</ele>
        <time>2024-07-08T08:46:23Z</time>
      </trkpt>
      <trkpt lat="45.14013" lon="6.10228">
        <ele>2210.9</ele>
        <time>2024-07-08T08:46:24Z</time>
      </trkpt>
      <trkpt lat="45.14013" lon="6.10228">
        <ele>2210.9</ele>
        <time>2024-07-08T08:46:25Z</time>
      </trkpt>
      <trkpt lat="45.14013" lon="6.10228">
        <ele>2210.9</ele>
        <time>2024-07-08T08:46:26Z</time>
      </trkpt>
      <trkpt lat="45.14013" lon="6.10228">
        <ele>2210.9</ele>
        <time>2024-07-08T08:46:27Z</time>
      </trkpt>
      <trkpt lat="45.14013" lon="6.10228">
        <ele>2210.9</ele>
        <time>2024-07-08T08:46:28Z</time>
      </trkpt>
      <trkpt lat="45.14013" lon="6.10228">
        <ele>2210.9</ele>
        <time>2024-07-08T08:46:29Z</time>
      </trkpt>
      <trkpt lat="45.14013" lon="6.10228">
        <ele>2210.9</ele>
        <time>2024-07-08T08:46:30Z</time>
      </trkpt>
      <trkpt lat="45.14013" lon="6.10228">
        <ele>2210.9</ele>
        <time>2024-07-08T08:46:31Z</time>
      </trkpt>
      <trkpt lat="45.14013" lon="6.10228">
        <ele>2210.9</ele>
        <time>2024-07-08T08:46:32Z</time>
      </trkpt>
      <trkpt lat="45.14013" lon="6.10228">
        <ele>2210.9</ele>
        <time>2024-07-08T08:46:34Z</time>
      </trkpt>
      <trkpt lat="45.14013" lon="6.10228">
        <ele>2210.9</ele>
        <time>2024-07-08T08:46:35Z</time>
      </trkpt>
      <trkpt lat="45.14013" lon="6.10228">
        <ele>2210.9</ele>
        <time>2024-07-08T08:46:36Z</time>
      </trkpt>
      <trkpt lat="45.14013" lon="6.10228">
        <ele>2210.9</ele>
        <time>2024-07-08T08:46:37Z</time>
      </trkpt>
      <trkpt lat="45.14013" lon="6.10228">
        <ele>2210.9</ele>
        <time>2024-07-08T08:46:38Z</time>
      </trkpt>
      <trkpt lat="45.14013" lon="6.10228">
        <ele>2210.9</ele>
        <time>2024-07-08T08:46:39Z</time>
      </trkpt>
      <trkpt lat="45.14013" lon="6.10228">
        <ele>2210.9</ele>
        <time>2024-07-08T08:46:40Z</time>
      </trkpt>
      <trkpt lat="45.14013" lon="6.10228">
        <ele>2210.9</ele>
        <time>2024-07-08T08:46:41Z</time>
      </trkpt>
      <trkpt lat="45.14013" lon="6.10228">
        <ele>2210.9</ele>
        <time>2024-07-08T08:46:42Z</time>
      </trkpt>
      <trkpt lat="45.14013" lon="6.10228">
        <ele>2210.9</ele>
        <time>2024-07-08T08:46:43Z</time>
      </trkpt>
      <trkpt lat="45.14013" lon="6.10228">
        <ele>2210.9</ele>
        <time>2024-07-08T08:46:44Z</time>
      </trkpt>
      <trkpt lat="45.14013" lon="6.10228">
        <ele>2211</ele>
        <time>2024-07-08T08:46:46Z</time>
      </trkpt>
      <trkpt lat="45.14013" lon="6.10228">
        <ele>2211</ele>
        <time>2024-07-08T08:46:47Z</time>
      </trkpt>
      <trkpt lat="45.14013" lon="6.10228">
        <ele>2211</ele>
        <time>2024-07-08T08:46:48Z</time>
      </trkpt>
      <trkpt lat="45.13999" lon="6.10225">
        <ele>2214</ele>
        <time>2024-07-08T08:52:31Z</time>
      </trkpt>
      <trkpt lat="45.14003" lon="6.10225">
        <ele>2214.8</ele>
        <time>2024-07-08T08:52:32Z</time>
      </trkpt>
      <trkpt lat="45.14004" lon="6.10224">
        <ele>2215.1</ele>
        <time>2024-07-08T08:52:33Z</time>
      </trkpt>
      <trkpt lat="45.14005" lon="6.10225">
        <ele>2215.3</ele>
        <time>2024-07-08T08:52:34Z</time>
      </trkpt>
      <trkpt lat="45.14006" lon="6.10225">
        <ele>2215.4</ele>
        <time>2024-07-08T08:52:35Z</time>
      </trkpt>
      <trkpt lat="45.14006" lon="6.10225">
        <ele>2215.5</ele>
        <time>2024-07-08T08:52:36Z</time>
      </trkpt>
      <trkpt lat="45.14006" lon="6.10226">
        <ele>2215.6</ele>
        <time>2024-07-08T08:52:37Z</time>
      </trkpt>
      <trkpt lat="45.14006" lon="6.10226">
        <ele>2215.7</ele>
        <time>2024-07-08T08:52:38Z</time>
      </trkpt>
      <trkpt lat="45.14006" lon="6.10226">
        <ele>2215.8</ele>
        <time>2024-07-08T08:52:39Z</time>
      </trkpt>
      <trkpt lat="45.14006" lon="6.10226">
        <ele>2215.9</ele>
        <time>2024-07-08T08:52:40Z</time>
      </trkpt>
      <trkpt lat="45.14006" lon="6.10227">
        <ele>2216</ele>
        <time>2024-07-08T08:52:41Z</time>
      </trkpt>
      <trkpt lat="45.14007" lon="6.10228">
        <ele>2216.1</ele>
        <time>2024-07-08T08:52:42Z</time>
      </trkpt>
      <trkpt lat="45.14007" lon="6.10229">
        <ele>2216.2</ele>
        <time>2024-07-08T08:52:43Z</time>
      </trkpt>
      <trkpt lat="45.14006" lon="6.1023">
        <ele>2216.4</ele>
        <time>2024-07-08T08:52:44Z</time>
      </trkpt>
      <trkpt lat="45.14006" lon="6.1023">
        <ele>2216.5</ele>
        <time>2024-07-08T08:52:45Z</time>
      </trkpt>
      <trkpt lat="45.14007" lon="6.10231">
        <ele>2216.5</ele>
        <time>2024-07-08T08:52:46Z</time>
      </trkpt>
      <trkpt lat="45.14007" lon="6.10231">
        <ele>2216.6</ele>
        <time>2024-07-08T08:52:47Z</time>
      </trkpt>
      <trkpt lat="45.14007" lon="6.10231">
        <ele>2216.7</ele>
        <time>2024-07-08T08:52:48Z</time>
      </trkpt>
      <trkpt lat="45.14008" lon="6.10231">
        <ele>2216.8</ele>
        <time>2024-07-08T08:52:49Z</time>
      </trkpt>
      <trkpt lat="45.14008" lon="6.10232">
        <ele>2216.8</ele>
        <time>2024-07-08T08:52:50Z</time>
      </trkpt>
      <trkpt lat="45.14008" lon="6.10232">
        <ele>2216.9</ele>
        <time>2024-07-08T08:52:51Z</time>
      </trkpt>
      <trkpt lat="45.14008" lon="6.10233">
        <ele>2217</ele>
        <time>2024-07-08T08:52:52Z</time>
      </trkpt>
      <trkpt lat="45.14008" lon="6.10234">
        <ele>2217.1</ele>
        <time>2024-07-08T08:52:53Z</time>
      </trkpt>
      <trkpt lat="45.14008" lon="6.10235">
        <ele>2217.2</ele>
        <time>2024-07-08T08:52:54Z</time>
      </trkpt>
      <trkpt lat="45.14008" lon="6.10235">
        <ele>2217.3</ele>
        <time>2024-07-08T08:52:55Z</time>
      </trkpt>
      <trkpt lat="45.14008" lon="6.10236">
        <ele>2217.4</ele>
        <time>2024-07-08T08:52:56Z</time>
      </trkpt>
      <trkpt lat="45.14008" lon="6.10237">
        <ele>2217.5</ele>
        <time>2024-07-08T08:52:57Z</time>
      </trkpt>
      <trkpt lat="45.14008" lon="6.10237">
        <ele>2217.6</ele>
        <time>2024-07-08T08:52:58Z</time>
      </trkpt>
      <trkpt lat="45.14008" lon="6.10238">
        <ele>2217.6</ele>
        <time>2024-07-08T08:52:59Z</time>
      </trkpt>
      <trkpt lat="45.14008" lon="6.10238">
        <ele>2217.7</ele>
        <time>2024-07-08T08:53:00Z</time>
      </trkpt>
      <trkpt lat="45.14008" lon="6.10239">
        <ele>2217.8</ele>
        <time>2024-07-08T08:53:01Z</time>
      </trkpt>
      <trkpt lat="45.14008" lon="6.1024">
        <ele>2217.9</ele>
        <time>2024-07-08T08:53:02Z</time>
      </trkpt>
      <trkpt lat="45.14008" lon="6.1024">
        <ele>2218</ele>
        <time>2024-07-08T08:53:03Z</time>
      </trkpt>
      <trkpt lat="45.14008" lon="6.10242">
        <ele>2218.1</ele>
        <time>2024-07-08T08:53:04Z</time>
      </trkpt>
      <trkpt lat="45.14009" lon="6.10243">
        <ele>2218.3</ele>
        <time>2024-07-08T08:53:05Z</time>
      </trkpt>
      <trkpt lat="45.14009" lon="6.10244">
        <ele>2218.4</ele>
        <time>2024-07-08T08:53:06Z</time>
      </trkpt>
      <trkpt lat="45.14009" lon="6.10245">
        <ele>2218.6</ele>
        <time>2024-07-08T08:53:07Z</time>
      </trkpt>
      <trkpt lat="45.14009" lon="6.10247">
        <ele>2218.8</ele>
        <time>2024-07-08T08:53:08Z</time>
      </trkpt>
      <trkpt lat="45.14009" lon="6.10248">
        <ele>2219</ele>
        <time>2024-07-08T08:53:09Z</time>
      </trkpt>
      <trkpt lat="45.14008" lon="6.10249">
        <ele>2219.1</ele>
        <time>2024-07-08T08:53:10Z</time>
      </trkpt>
      <trkpt lat="45.14007" lon="6.1025">
        <ele>2219.3</ele>
        <time>2024-07-08T08:53:11Z</time>
      </trkpt>
      <trkpt lat="45.14007" lon="6.1025">
        <ele>2219.5</ele>
        <time>2024-07-08T08:53:12Z</time>
      </trkpt>
      <trkpt lat="45.14006" lon="6.10251">
        <ele>2219.6</ele>
        <time>2024-07-08T08:53:13Z</time>
      </trkpt>
      <trkpt lat="45.14005" lon="6.10251">
        <ele>2219.7</ele>
        <time>2024-07-08T08:53:14Z</time>
      </trkpt>
      <trkpt lat="45.14005" lon="6.1025">
        <ele>2219.8</ele>
        <time>2024-07-08T08:53:15Z</time>
      </trkpt>
      <trkpt lat="45.14004" lon="6.10249">
        <ele>2220</ele>
        <time>2024-07-08T08:53:16Z</time>
      </trkpt>
      <trkpt lat="45.14004" lon="6.10249">
        <ele>2220</ele>
        <time>2024-07-08T08:53:17Z</time>
      </trkpt>
      <trkpt lat="45.14003" lon="6.1025">
        <ele>2220.1</ele>
        <time>2024-07-08T08:53:18Z</time>
      </trkpt>
      <trkpt lat="45.14003" lon="6.10249">
        <ele>2220.2</ele>
        <time>2024-07-08T08:53:19Z</time>
      </trkpt>
      <trkpt lat="45.14002" lon="6.1025">
        <ele>2220.3</ele>
        <time>2024-07-08T08:53:20Z</time>
      </trkpt>
      <trkpt lat="45.14001" lon="6.10251">
        <ele>2220.5</ele>
        <time>2024-07-08T08:53:21Z</time>
      </trkpt>
      <trkpt lat="45.14001" lon="6.10251">
        <ele>2220.5</ele>
        <time>2024-07-08T08:53:22Z</time>
      </trkpt>
      <trkpt lat="45.14001" lon="6.10251">
        <ele>2220.6</ele>
        <time>2024-07-08T08:53:23Z</time>
      </trkpt>
      <trkpt lat="45.14001" lon="6.10252">
        <ele>2220.7</ele>
        <time>2024-07-08T08:53:24Z</time>
      </trkpt>
      <trkpt lat="45.14" lon="6.10252">
        <ele>2220.8</ele>
        <time>2024-07-08T08:53:25Z</time>
      </trkpt>
      <trkpt lat="45.14" lon="6.10253">
        <ele>2220.9</ele>
        <time>2024-07-08T08:53:26Z</time>
      </trkpt>
      <trkpt lat="45.14" lon="6.10254">
        <ele>2221</ele>
        <time>2024-07-08T08:53:27Z</time>
      </trkpt>
      <trkpt lat="45.14" lon="6.10254">
        <ele>2221.1</ele>
        <time>2024-07-08T08:53:28Z</time>
      </trkpt>
      <trkpt lat="45.14" lon="6.10255">
        <ele>2221.2</ele>
        <time>2024-07-08T08:53:29Z</time>
      </trkpt>
      <trkpt lat="45.14" lon="6.10256">
        <ele>2221.3</ele>
        <time>2024-07-08T08:53:30Z</time>
      </trkpt>
      <trkpt lat="45.14" lon="6.10258">
        <ele>2221.5</ele>
        <time>2024-07-08T08:53:31Z</time>
      </trkpt>
      <trkpt lat="45.14" lon="6.10259">
        <ele>2221.6</ele>
        <time>2024-07-08T08:53:32Z</time>
      </trkpt>
      <trkpt lat="45.14" lon="6.10259">
        <ele>2221.7</ele>
        <time>2024-07-08T08:53:33Z</time>
      </trkpt>
      <trkpt lat="45.14" lon="6.1026">
        <ele>2221.8</ele>
        <time>2024-07-08T08:53:34Z</time>
      </trkpt>
      <trkpt lat="45.14" lon="6.10261">
        <ele>2221.9</ele>
        <time>2024-07-08T08:53:35Z</time>
      </trkpt>
      <trkpt lat="45.13999" lon="6.10262">
        <ele>2222.1</ele>
        <time>2024-07-08T08:53:36Z</time>
      </trkpt>
      <trkpt lat="45.13999" lon="6.10262">
        <ele>2222.2</ele>
        <time>2024-07-08T08:53:37Z</time>
      </trkpt>
      <trkpt lat="45.13998" lon="6.10262">
        <ele>2222.2</ele>
        <time>2024-07-08T08:53:38Z</time>
      </trkpt>
      <trkpt lat="45.13998" lon="6.10263">
        <ele>2222.3</ele>
        <time>2024-07-08T08:53:39Z</time>
      </trkpt>
      <trkpt lat="45.13998" lon="6.10263">
        <ele>2222.4</ele>
        <time>2024-07-08T08:53:40Z</time>
      </trkpt>
      <trkpt lat="45.13998" lon="6.10263">
        <ele>2222.5</ele>
        <time>2024-07-08T08:53:41Z</time>
      </trkpt>
      <trkpt lat="45.13997" lon="6.10263">
        <ele>2222.6</ele>
        <time>2024-07-08T08:53:42Z</time>
      </trkpt>
      <trkpt lat="45.13997" lon="6.10264">
        <ele>2222.7</ele>
        <time>2024-07-08T08:53:43Z</time>
      </trkpt>
      <trkpt lat="45.13997" lon="6.10266">
        <ele>2222.9</ele>
        <time>2024-07-08T08:53:44Z</time>
      </trkpt>
      <trkpt lat="45.13997" lon="6.10266">
        <ele>2223</ele>
        <time>2024-07-08T08:53:45Z</time>
      </trkpt>
      <trkpt lat="45.13998" lon="6.10268">
        <ele>2223.2</ele>
        <time>2024-07-08T08:53:46Z</time>
      </trkpt>
      <trkpt lat="45.13998" lon="6.10268">
        <ele>2223.4</ele>
        <time>2024-07-08T08:53:47Z</time>
      </trkpt>
      <trkpt lat="45.13999" lon="6.10269">
        <ele>2223.4</ele>
        <time>2024-07-08T08:53:48Z</time>
      </trkpt>
      <trkpt lat="45.13998" lon="6.10269">
        <ele>2223.6</ele>
        <time>2024-07-08T08:53:49Z</time>
      </trkpt>
      <trkpt lat="45.13998" lon="6.10269">
        <ele>2223.7</ele>
        <time>2024-07-08T08:53:50Z</time>
      </trkpt>
      <trkpt lat="45.13998" lon="6.1027">
        <ele>2223.8</ele>
        <time>2024-07-08T08:53:51Z</time>
      </trkpt>
      <trkpt lat="45.13997" lon="6.10271">
        <ele>2223.9</ele>
        <time>2024-07-08T08:53:52Z</time>
      </trkpt>
      <trkpt lat="45.13997" lon="6.10271">
        <ele>2224</ele>
        <time>2024-07-08T08:53:53Z</time>
      </trkpt>
      <trkpt lat="45.13997" lon="6.10272">
        <ele>2224.1</ele>
        <time>2024-07-08T08:53:54Z</time>
      </trkpt>
      <trkpt lat="45.13997" lon="6.10273">
        <ele>2224.2</ele>
        <time>2024-07-08T08:53:55Z</time>
      </trkpt>
      <trkpt lat="45.13996" lon="6.10273">
        <ele>2224.3</ele>
        <time>2024-07-08T08:53:56Z</time>
      </trkpt>
      <trkpt lat="45.13996" lon="6.10274">
        <ele>2224.5</ele>
        <time>2024-07-08T08:53:57Z</time>
      </trkpt>
      <trkpt lat="45.13995" lon="6.10275">
        <ele>2224.7</ele>
        <time>2024-07-08T08:53:58Z</time>
      </trkpt>
      <trkpt lat="45.13995" lon="6.10276">
        <ele>2224.8</ele>
        <time>2024-07-08T08:53:59Z</time>
      </trkpt>
      <trkpt lat="45.13994" lon="6.10276">
        <ele>2225</ele>
        <time>2024-07-08T08:54:00Z</time>
      </trkpt>
      <trkpt lat="45.13994" lon="6.10276">
        <ele>2225.1</ele>
        <time>2024-07-08T08:54:01Z</time>
      </trkpt>
      <trkpt lat="45.13993" lon="6.10276">
        <ele>2225.3</ele>
        <time>2024-07-08T08:54:02Z</time>
      </trkpt>
      <trkpt lat="45.13992" lon="6.10276">
        <ele>2225.5</ele>
        <time>2024-07-08T08:54:03Z</time>
      </trkpt>
      <trkpt lat="45.13991" lon="6.10275">
        <ele>2225.7</ele>
        <time>2024-07-08T08:54:04Z</time>
      </trkpt>
      <trkpt lat="45.1399" lon="6.10276">
        <ele>2225.9</ele>
        <time>2024-07-08T08:54:05Z</time>
      </trkpt>
      <trkpt lat="45.13989" lon="6.10276">
        <ele>2226.1</ele>
        <time>2024-07-08T08:54:06Z</time>
      </trkpt>
      <trkpt lat="45.13989" lon="6.10277">
        <ele>2226.3</ele>
        <time>2024-07-08T08:54:07Z</time>
      </trkpt>
      <trkpt lat="45.13988" lon="6.10277">
        <ele>2226.5</ele>
        <time>2024-07-08T08:54:08Z</time>
      </trkpt>
      <trkpt lat="45.13987" lon="6.10278">
        <ele>2226.7</ele>
        <time>2024-07-08T08:54:09Z</time>
      </trkpt>
      <trkpt lat="45.13987" lon="6.1028">
        <ele>2226.9</ele>
        <time>2024-07-08T08:54:10Z</time>
      </trkpt>
      <trkpt lat="45.13986" lon="6.10281">
        <ele>2227.1</ele>
        <time>2024-07-08T08:54:11Z</time>
      </trkpt>
      <trkpt lat="45.13987" lon="6.10282">
        <ele>2227.3</ele>
        <time>2024-07-08T08:54:12Z</time>
      </trkpt>
      <trkpt lat="45.13988" lon="6.10283">
        <ele>2227.5</ele>
        <time>2024-07-08T08:54:13Z</time>
      </trkpt>
      <trkpt lat="45.13988" lon="6.10283">
        <ele>2227.7</ele>
        <time>2024-07-08T08:54:14Z</time>
      </trkpt>
      <trkpt lat="45.13989" lon="6.10284">
        <ele>2227.9</ele>
        <time>2024-07-08T08:54:15Z</time>
      </trkpt>
      <trkpt lat="45.13989" lon="6.10285">
        <ele>2228.1</ele>
        <time>2024-07-08T08:54:16Z</time>
      </trkpt>
      <trkpt lat="45.13989" lon="6.10286">
        <ele>2228.3</ele>
        <time>2024-07-08T08:54:17Z</time>
      </trkpt>
      <trkpt lat="45.1399" lon="6.10287">
        <ele>2228.4</ele>
        <time>2024-07-08T08:54:18Z</time>
      </trkpt>
      <trkpt lat="45.1399" lon="6.10288">
        <ele>2228.6</ele>
        <time>2024-07-08T08:54:19Z</time>
      </trkpt>
      <trkpt lat="45.1399" lon="6.10289">
        <ele>2228.8</ele>
        <time>2024-07-08T08:54:20Z</time>
      </trkpt>
      <trkpt lat="45.1399" lon="6.1029">
        <ele>2228.9</ele>
        <time>2024-07-08T08:54:21Z</time>
      </trkpt>
      <trkpt lat="45.1399" lon="6.10291">
        <ele>2229.1</ele>
        <time>2024-07-08T08:54:22Z</time>
      </trkpt>
      <trkpt lat="45.13991" lon="6.10292">
        <ele>2229.3</ele>
        <time>2024-07-08T08:54:23Z</time>
      </trkpt>
      <trkpt lat="45.13991" lon="6.10293">
        <ele>2229.5</ele>
        <time>2024-07-08T08:54:24Z</time>
      </trkpt>
      <trkpt lat="45.13992" lon="6.10294">
        <ele>2229.6</ele>
        <time>2024-07-08T08:54:25Z</time>
      </trkpt>
      <trkpt lat="45.13992" lon="6.10294">
        <ele>2229.8</ele>
        <time>2024-07-08T08:54:26Z</time>
      </trkpt>
      <trkpt lat="45.13992" lon="6.10295">
        <ele>2229.9</ele>
        <time>2024-07-08T08:54:27Z</time>
      </trkpt>
      <trkpt lat="45.13993" lon="6.10296">
        <ele>2230.1</ele>
        <time>2024-07-08T08:54:28Z</time>
      </trkpt>
      <trkpt lat="45.13993" lon="6.10296">
        <ele>2230.3</ele>
        <time>2024-07-08T08:54:29Z</time>
      </trkpt>
      <trkpt lat="45.13994" lon="6.10297">
        <ele>2230.5</ele>
        <time>2024-07-08T08:54:30Z</time>
      </trkpt>
      <trkpt lat="45.13994" lon="6.10298">
        <ele>2230.6</ele>
        <time>2024-07-08T08:54:31Z</time>
      </trkpt>
      <trkpt lat="45.13995" lon="6.10299">
        <ele>2230.9</ele>
        <time>2024-07-08T08:54:32Z</time>
      </trkpt>
      <trkpt lat="45.13995" lon="6.103">
        <ele>2231.1</ele>
        <time>2024-07-08T08:54:33Z</time>
      </trkpt>
      <trkpt lat="45.13995" lon="6.10301">
        <ele>2231.2</ele>
        <time>2024-07-08T08:54:34Z</time>
      </trkpt>
      <trkpt lat="45.13995" lon="6.10302">
        <ele>2231.4</ele>
        <time>2024-07-08T08:54:35Z</time>
      </trkpt>
      <trkpt lat="45.13995" lon="6.10303">
        <ele>2231.6</ele>
        <time>2024-07-08T08:54:36Z</time>
      </trkpt>
      <trkpt lat="45.13994" lon="6.10304">
        <ele>2231.9</ele>
        <time>2024-07-08T08:54:37Z</time>
      </trkpt>
      <trkpt lat="45.13994" lon="6.10306">
        <ele>2232.1</ele>
        <time>2024-07-08T08:54:38Z</time>
      </trkpt>
      <trkpt lat="45.13994" lon="6.10306">
        <ele>2232.2</ele>
        <time>2024-07-08T08:54:39Z</time>
      </trkpt>
      <trkpt lat="45.13994" lon="6.10307">
        <ele>2232.4</ele>
        <time>2024-07-08T08:54:40Z</time>
      </trkpt>
      <trkpt lat="45.13993" lon="6.10308">
        <ele>2232.6</ele>
        <time>2024-07-08T08:54:41Z</time>
      </trkpt>
      <trkpt lat="45.13993" lon="6.10309">
        <ele>2232.7</ele>
        <time>2024-07-08T08:54:42Z</time>
      </trkpt>
      <trkpt lat="45.13993" lon="6.1031">
        <ele>2232.9</ele>
        <time>2024-07-08T08:54:43Z</time>
      </trkpt>
      <trkpt lat="45.13993" lon="6.10311">
        <ele>2233</ele>
        <time>2024-07-08T08:54:44Z</time>
      </trkpt>
      <trkpt lat="45.13994" lon="6.10311">
        <ele>2233.1</ele>
        <time>2024-07-08T08:54:45Z</time>
      </trkpt>
      <trkpt lat="45.13994" lon="6.10312">
        <ele>2233.3</ele>
        <time>2024-07-08T08:54:46Z</time>
      </trkpt>
      <trkpt lat="45.13993" lon="6.10314">
        <ele>2233.5</ele>
        <time>2024-07-08T08:54:47Z</time>
      </trkpt>
      <trkpt lat="45.13993" lon="6.10315">
        <ele>2233.7</ele>
        <time>2024-07-08T08:54:48Z</time>
      </trkpt>
      <trkpt lat="45.13994" lon="6.10316">
        <ele>2233.9</ele>
        <time>2024-07-08T08:54:49Z</time>
      </trkpt>
      <trkpt lat="45.13994" lon="6.10316">
        <ele>2234</ele>
        <time>2024-07-08T08:54:50Z</time>
      </trkpt>
      <trkpt lat="45.13994" lon="6.10318">
        <ele>2234.2</ele>
        <time>2024-07-08T08:54:51Z</time>
      </trkpt>
      <trkpt lat="45.13994" lon="6.10317">
        <ele>2234.4</ele>
        <time>2024-07-08T08:54:52Z</time>
      </trkpt>
      <trkpt lat="45.13994" lon="6.10317">
        <ele>2234.5</ele>
        <time>2024-07-08T08:54:53Z</time>
      </trkpt>
      <trkpt lat="45.13995" lon="6.10317">
        <ele>2234.5</ele>
        <time>2024-07-08T08:54:54Z</time>
      </trkpt>
      <trkpt lat="45.13995" lon="6.10317">
        <ele>2234.6</ele>
        <time>2024-07-08T08:54:55Z</time>
      </trkpt>
      <trkpt lat="45.13995" lon="6.10318">
        <ele>2234.7</ele>
        <time>2024-07-08T08:54:56Z</time>
      </trkpt>
      <trkpt lat="45.13996" lon="6.10318">
        <ele>2234.9</ele>
        <time>2024-07-08T08:54:57Z</time>
      </trkpt>
      <trkpt lat="45.13996" lon="6.10319">
        <ele>2235</ele>
        <time>2024-07-08T08:54:58Z</time>
      </trkpt>
      <trkpt lat="45.13996" lon="6.10319">
        <ele>2235.1</ele>
        <time>2024-07-08T08:54:59Z</time>
      </trkpt>
      <trkpt lat="45.13996" lon="6.1032">
        <ele>2235.2</ele>
        <time>2024-07-08T08:55:00Z</time>
      </trkpt>
      <trkpt lat="45.13996" lon="6.10321">
        <ele>2235.3</ele>
        <time>2024-07-08T08:55:01Z</time>
      </trkpt>
      <trkpt lat="45.13996" lon="6.10322">
        <ele>2235.5</ele>
        <time>2024-07-08T08:55:02Z</time>
      </trkpt>
      <trkpt lat="45.13996" lon="6.10323">
        <ele>2235.6</ele>
        <time>2024-07-08T08:55:03Z</time>
      </trkpt>
      <trkpt lat="45.13996" lon="6.10324">
        <ele>2235.8</ele>
        <time>2024-07-08T08:55:04Z</time>
      </trkpt>
      <trkpt lat="45.13996" lon="6.10324">
        <ele>2235.9</ele>
        <time>2024-07-08T08:55:05Z</time>
      </trkpt>
      <trkpt lat="45.13996" lon="6.10325">
        <ele>2236</ele>
        <time>2024-07-08T08:55:06Z</time>
      </trkpt>
      <trkpt lat="45.13996" lon="6.10326">
        <ele>2236.1</ele>
        <time>2024-07-08T08:55:07Z</time>
      </trkpt>
      <trkpt lat="45.13996" lon="6.10326">
        <ele>2236.3</ele>
        <time>2024-07-08T08:55:08Z</time>
      </trkpt>
      <trkpt lat="45.13996" lon="6.10328">
        <ele>2236.4</ele>
        <time>2024-07-08T08:55:09Z</time>
      </trkpt>
      <trkpt lat="45.13996" lon="6.10328">
        <ele>2236.6</ele>
        <time>2024-07-08T08:55:10Z</time>
      </trkpt>
      <trkpt lat="45.13996" lon="6.10329">
        <ele>2236.7</ele>
        <time>2024-07-08T08:55:11Z</time>
      </trkpt>
      <trkpt lat="45.13997" lon="6.1033">
        <ele>2236.8</ele>
        <time>2024-07-08T08:55:12Z</time>
      </trkpt>
      <trkpt lat="45.13997" lon="6.1033">
        <ele>2236.9</ele>
        <time>2024-07-08T08:55:13Z</time>
      </trkpt>
      <trkpt lat="45.13997" lon="6.10331">
        <ele>2237.1</ele>
        <time>2024-07-08T08:55:14Z</time>
      </trkpt>
      <trkpt lat="45.13997" lon="6.10332">
        <ele>2237.2</ele>
        <time>2024-07-08T08:55:15Z</time>
      </trkpt>
      <trkpt lat="45.13997" lon="6.10333">
        <ele>2237.3</ele>
        <time>2024-07-08T08:55:16Z</time>
      </trkpt>
      <trkpt lat="45.13997" lon="6.10334">
        <ele>2237.6</ele>
        <time>2024-07-08T08:55:17Z</time>
      </trkpt>
      <trkpt lat="45.13996" lon="6.10335">
        <ele>2237.6</ele>
        <time>2024-07-08T08:55:18Z</time>
      </trkpt>
      <trkpt lat="45.13996" lon="6.10336">
        <ele>2237.8</ele>
        <time>2024-07-08T08:55:19Z</time>
      </trkpt>
      <trkpt lat="45.13996" lon="6.10336">
        <ele>2237.9</ele>
        <time>2024-07-08T08:55:20Z</time>
      </trkpt>
      <trkpt lat="45.13996" lon="6.10337">
        <ele>2238</ele>
        <time>2024-07-08T08:55:21Z</time>
      </trkpt>
      <trkpt lat="45.13996" lon="6.10339">
        <ele>2238.2</ele>
        <time>2024-07-08T08:55:22Z</time>
      </trkpt>
      <trkpt lat="45.13996" lon="6.10339">
        <ele>2238.3</ele>
        <time>2024-07-08T08:55:23Z</time>
      </trkpt>
      <trkpt lat="45.13997" lon="6.1034">
        <ele>2238.5</ele>
        <time>2024-07-08T08:55:24Z</time>
      </trkpt>
      <trkpt lat="45.13997" lon="6.10341">
        <ele>2238.5</ele>
        <time>2024-07-08T08:55:25Z</time>
      </trkpt>
      <trkpt lat="45.13997" lon="6.10341">
        <ele>2238.6</ele>
        <time>2024-07-08T08:55:26Z</time>
      </trkpt>
      <trkpt lat="45.13997" lon="6.10342">
        <ele>2238.7</ele>
        <time>2024-07-08T08:55:27Z</time>
      </trkpt>
      <trkpt lat="45.13997" lon="6.10342">
        <ele>2238.7</ele>
        <time>2024-07-08T08:55:28Z</time>
      </trkpt>
      <trkpt lat="45.13997" lon="6.10343">
        <ele>2238.8</ele>
        <time>2024-07-08T08:55:29Z</time>
      </trkpt>
      <trkpt lat="45.13997" lon="6.10343">
        <ele>2238.9</ele>
        <time>2024-07-08T08:55:30Z</time>
      </trkpt>
      <trkpt lat="45.13997" lon="6.10344">
        <ele>2238.9</ele>
        <time>2024-07-08T08:55:31Z</time>
      </trkpt>
      <trkpt lat="45.13997" lon="6.10345">
        <ele>2239</ele>
        <time>2024-07-08T08:55:32Z</time>
      </trkpt>
      <trkpt lat="45.13997" lon="6.10345">
        <ele>2239.1</ele>
        <time>2024-07-08T08:55:33Z</time>
      </trkpt>
      <trkpt lat="45.13998" lon="6.10346">
        <ele>2239.2</ele>
        <time>2024-07-08T08:55:34Z</time>
      </trkpt>
      <trkpt lat="45.13998" lon="6.10347">
        <ele>2239.4</ele>
        <time>2024-07-08T08:55:35Z</time>
      </trkpt>
      <trkpt lat="45.13998" lon="6.10347">
        <ele>2239.5</ele>
        <time>2024-07-08T08:55:36Z</time>
      </trkpt>
      <trkpt lat="45.13998" lon="6.10348">
        <ele>2239.6</ele>
        <time>2024-07-08T08:55:37Z</time>
      </trkpt>
      <trkpt lat="45.13998" lon="6.10348">
        <ele>2239.6</ele>
        <time>2024-07-08T08:55:38Z</time>
      </trkpt>
      <trkpt lat="45.13998" lon="6.10349">
        <ele>2239.7</ele>
        <time>2024-07-08T08:55:39Z</time>
      </trkpt>
      <trkpt lat="45.13998" lon="6.10348">
        <ele>2239.7</ele>
        <time>2024-07-08T08:55:40Z</time>
      </trkpt>
      <trkpt lat="45.13998" lon="6.10348">
        <ele>2239.8</ele>
        <time>2024-07-08T08:55:41Z</time>
      </trkpt>
      <trkpt lat="45.13998" lon="6.10348">
        <ele>2239.8</ele>
        <time>2024-07-08T08:55:42Z</time>
      </trkpt>
      <trkpt lat="45.13998" lon="6.10348">
        <ele>2239.9</ele>
        <time>2024-07-08T08:55:43Z</time>
      </trkpt>
      <trkpt lat="45.13997" lon="6.10348">
        <ele>2240</ele>
        <time>2024-07-08T08:55:44Z</time>
      </trkpt>
      <trkpt lat="45.13996" lon="6.10348">
        <ele>2240.1</ele>
        <time>2024-07-08T08:55:45Z</time>
      </trkpt>
      <trkpt lat="45.13996" lon="6.10349">
        <ele>2240.2</ele>
        <time>2024-07-08T08:55:46Z</time>
      </trkpt>
      <trkpt lat="45.13996" lon="6.10349">
        <ele>2240.2</ele>
        <time>2024-07-08T08:55:47Z</time>
      </trkpt>
      <trkpt lat="45.13996" lon="6.10349">
        <ele>2240.3</ele>
        <time>2024-07-08T08:55:48Z</time>
      </trkpt>
      <trkpt lat="45.13996" lon="6.1035">
        <ele>2240.3</ele>
        <time>2024-07-08T08:55:49Z</time>
      </trkpt>
      <trkpt lat="45.13995" lon="6.1035">
        <ele>2240.4</ele>
        <time>2024-07-08T08:55:50Z</time>
      </trkpt>
      <trkpt lat="45.13995" lon="6.1035">
        <ele>2240.4</ele>
        <time>2024-07-08T08:55:51Z</time>
      </trkpt>
      <trkpt lat="45.13995" lon="6.10351">
        <ele>2240.5</ele>
        <time>2024-07-08T08:55:52Z</time>
      </trkpt>
      <trkpt lat="45.13995" lon="6.10351">
        <ele>2240.5</ele>
        <time>2024-07-08T08:55:53Z</time>
      </trkpt>
      <trkpt lat="45.13995" lon="6.10351">
        <ele>2240.6</ele>
        <time>2024-07-08T08:55:54Z</time>
      </trkpt>
      <trkpt lat="45.13995" lon="6.10352">
        <ele>2240.6</ele>
        <time>2024-07-08T08:55:55Z</time>
      </trkpt>
      <trkpt lat="45.13996" lon="6.10352">
        <ele>2240.7</ele>
        <time>2024-07-08T08:55:56Z</time>
      </trkpt>
      <trkpt lat="45.13996" lon="6.10353">
        <ele>2240.9</ele>
        <time>2024-07-08T08:55:57Z</time>
      </trkpt>
      <trkpt lat="45.13996" lon="6.10355">
        <ele>2241.1</ele>
        <time>2024-07-08T08:55:58Z</time>
      </trkpt>
      <trkpt lat="45.13996" lon="6.10356">
        <ele>2241.2</ele>
        <time>2024-07-08T08:55:59Z</time>
      </trkpt>
      <trkpt lat="45.13996" lon="6.10357">
        <ele>2241.3</ele>
        <time>2024-07-08T08:56:00Z</time>
      </trkpt>
      <trkpt lat="45.13997" lon="6.10358">
        <ele>2241.4</ele>
        <time>2024-07-08T08:56:01Z</time>
      </trkpt>
      <trkpt lat="45.13997" lon="6.10358">
        <ele>2241.6</ele>
        <time>2024-07-08T08:56:02Z</time>
      </trkpt>
      <trkpt lat="45.13997" lon="6.10359">
        <ele>2241.6</ele>
        <time>2024-07-08T08:56:03Z</time>
      </trkpt>
      <trkpt lat="45.13998" lon="6.10359">
        <ele>2241.7</ele>
        <time>2024-07-08T08:56:04Z</time>
      </trkpt>
      <trkpt lat="45.13998" lon="6.10359">
        <ele>2241.8</ele>
        <time>2024-07-08T08:56:05Z</time>
      </trkpt>
      <trkpt lat="45.13998" lon="6.1036">
        <ele>2241.9</ele>
        <time>2024-07-08T08:56:06Z</time>
      </trkpt>
      <trkpt lat="45.13998" lon="6.10361">
        <ele>2242</ele>
        <time>2024-07-08T08:56:07Z</time>
      </trkpt>
      <trkpt lat="45.13998" lon="6.10362">
        <ele>2242.1</ele>
        <time>2024-07-08T08:56:08Z</time>
      </trkpt>
      <trkpt lat="45.13998" lon="6.10362">
        <ele>2242.2</ele>
        <time>2024-07-08T08:56:09Z</time>
      </trkpt>
      <trkpt lat="45.13998" lon="6.10362">
        <ele>2242.2</ele>
        <time>2024-07-08T08:56:10Z</time>
      </trkpt>
      <trkpt lat="45.13997" lon="6.10362">
        <ele>2242.3</ele>
        <time>2024-07-08T08:56:11Z</time>
      </trkpt>
      <trkpt lat="45.13996" lon="6.10362">
        <ele>2242.5</ele>
        <time>2024-07-08T08:56:12Z</time>
      </trkpt>
      <trkpt lat="45.13996" lon="6.10361">
        <ele>2242.6</ele>
        <time>2024-07-08T08:56:13Z</time>
      </trkpt>
      <trkpt lat="45.13996" lon="6.10361">
        <ele>2242.7</ele>
        <time>2024-07-08T08:56:14Z</time>
      </trkpt>
      <trkpt lat="45.13995" lon="6.1036">
        <ele>2242.8</ele>
        <time>2024-07-08T08:56:15Z</time>
      </trkpt>
      <trkpt lat="45.13995" lon="6.1036">
        <ele>2242.8</ele>
        <time>2024-07-08T08:56:16Z</time>
      </trkpt>
      <trkpt lat="45.13995" lon="6.10359">
        <ele>2242.9</ele>
        <time>2024-07-08T08:56:17Z</time>
      </trkpt>
      <trkpt lat="45.13995" lon="6.10359">
        <ele>2242.9</ele>
        <time>2024-07-08T08:56:18Z</time>
      </trkpt>
      <trkpt lat="45.13995" lon="6.10358">
        <ele>2243.1</ele>
        <time>2024-07-08T08:56:19Z</time>
      </trkpt>
      <trkpt lat="45.13995" lon="6.10357">
        <ele>2243.2</ele>
        <time>2024-07-08T08:56:20Z</time>
      </trkpt>
      <trkpt lat="45.13994" lon="6.10357">
        <ele>2243.3</ele>
        <time>2024-07-08T08:56:21Z</time>
      </trkpt>
      <trkpt lat="45.13994" lon="6.10357">
        <ele>2243.4</ele>
        <time>2024-07-08T08:56:22Z</time>
      </trkpt>
      <trkpt lat="45.13993" lon="6.10357">
        <ele>2243.5</ele>
        <time>2024-07-08T08:56:23Z</time>
      </trkpt>
      <trkpt lat="45.13993" lon="6.10357">
        <ele>2243.5</ele>
        <time>2024-07-08T08:56:24Z</time>
      </trkpt>
      <trkpt lat="45.13993" lon="6.10357">
        <ele>2243.6</ele>
        <time>2024-07-08T08:56:25Z</time>
      </trkpt>
      <trkpt lat="45.13992" lon="6.10358">
        <ele>2243.8</ele>
        <time>2024-07-08T08:56:26Z</time>
      </trkpt>
      <trkpt lat="45.13991" lon="6.10359">
        <ele>2243.9</ele>
        <time>2024-07-08T08:56:27Z</time>
      </trkpt>
      <trkpt lat="45.13991" lon="6.10359">
        <ele>2244</ele>
        <time>2024-07-08T08:56:28Z</time>
      </trkpt>
      <trkpt lat="45.13991" lon="6.10361">
        <ele>2244.2</ele>
        <time>2024-07-08T08:56:29Z</time>
      </trkpt>
      <trkpt lat="45.13992" lon="6.10362">
        <ele>2244.3</ele>
        <time>2024-07-08T08:56:30Z</time>
      </trkpt>
      <trkpt lat="45.13992" lon="6.10362">
        <ele>2244.4</ele>
        <time>2024-07-08T08:56:31Z</time>
      </trkpt>
      <trkpt lat="45.13993" lon="6.10363">
        <ele>2244.6</ele>
        <time>2024-07-08T08:56:32Z</time>
      </trkpt>
      <trkpt lat="45.13993" lon="6.10363">
        <ele>2244.7</ele>
        <time>2024-07-08T08:56:33Z</time>
      </trkpt>
      <trkpt lat="45.13993" lon="6.10365">
        <ele>2244.9</ele>
        <time>2024-07-08T08:56:34Z</time>
      </trkpt>
      <trkpt lat="45.13994" lon="6.10365">
        <ele>2245.1</ele>
        <time>2024-07-08T08:56:35Z</time>
      </trkpt>
      <trkpt lat="45.13995" lon="6.10366">
        <ele>2245.2</ele>
        <time>2024-07-08T08:56:36Z</time>
      </trkpt>
      <trkpt lat="45.13996" lon="6.10366">
        <ele>2245.5</ele>
        <time>2024-07-08T08:56:37Z</time>
      </trkpt>
      <trkpt lat="45.13997" lon="6.10366">
        <ele>2245.6</ele>
        <time>2024-07-08T08:56:38Z</time>
      </trkpt>
      <trkpt lat="45.13997" lon="6.10366">
        <ele>2245.7</ele>
        <time>2024-07-08T08:56:39Z</time>
      </trkpt>
      <trkpt lat="45.13998" lon="6.10367">
        <ele>2245.8</ele>
        <time>2024-07-08T08:56:40Z</time>
      </trkpt>
      <trkpt lat="45.13999" lon="6.10367">
        <ele>2246</ele>
        <time>2024-07-08T08:56:41Z</time>
      </trkpt>
      <trkpt lat="45.14" lon="6.10367">
        <ele>2246.2</ele>
        <time>2024-07-08T08:56:42Z</time>
      </trkpt>
      <trkpt lat="45.14" lon="6.10367">
        <ele>2246.3</ele>
        <time>2024-07-08T08:56:43Z</time>
      </trkpt>
      <trkpt lat="45.14001" lon="6.10367">
        <ele>2246.5</ele>
        <time>2024-07-08T08:56:44Z</time>
      </trkpt>
      <trkpt lat="45.14002" lon="6.10367">
        <ele>2246.6</ele>
        <time>2024-07-08T08:56:45Z</time>
      </trkpt>
      <trkpt lat="45.14003" lon="6.10367">
        <ele>2246.8</ele>
        <time>2024-07-08T08:56:46Z</time>
      </trkpt>
      <trkpt lat="45.14004" lon="6.10369">
        <ele>2247.2</ele>
        <time>2024-07-08T08:56:47Z</time>
      </trkpt>
      <trkpt lat="45.14004" lon="6.1037">
        <ele>2247.3</ele>
        <time>2024-07-08T08:56:48Z</time>
      </trkpt>
      <trkpt lat="45.14005" lon="6.10372">
        <ele>2247.6</ele>
        <time>2024-07-08T08:56:49Z</time>
      </trkpt>
      <trkpt lat="45.14005" lon="6.10373">
        <ele>2247.8</ele>
        <time>2024-07-08T08:56:50Z</time>
      </trkpt>
      <trkpt lat="45.14005" lon="6.10375">
        <ele>2248.1</ele>
        <time>2024-07-08T08:56:51Z</time>
      </trkpt>
      <trkpt lat="45.14006" lon="6.10377">
        <ele>2248.4</ele>
        <time>2024-07-08T08:56:52Z</time>
      </trkpt>
      <trkpt lat="45.14006" lon="6.10378">
        <ele>2248.5</ele>
        <time>2024-07-08T08:56:53Z</time>
      </trkpt>
      <trkpt lat="45.14007" lon="6.10379">
        <ele>2248.7</ele>
        <time>2024-07-08T08:56:54Z</time>
      </trkpt>
      <trkpt lat="45.14007" lon="6.1038">
        <ele>2248.9</ele>
        <time>2024-07-08T08:56:55Z</time>
      </trkpt>
      <trkpt lat="45.14009" lon="6.1038">
        <ele>2249.2</ele>
        <time>2024-07-08T08:56:56Z</time>
      </trkpt>
      <trkpt lat="45.14009" lon="6.10381">
        <ele>2249.3</ele>
        <time>2024-07-08T08:56:57Z</time>
      </trkpt>
      <trkpt lat="45.1401" lon="6.10381">
        <ele>2249.4</ele>
        <time>2024-07-08T08:56:58Z</time>
      </trkpt>
      <trkpt lat="45.1401" lon="6.10382">
        <ele>2249.6</ele>
        <time>2024-07-08T08:56:59Z</time>
      </trkpt>
      <trkpt lat="45.14011" lon="6.10383">
        <ele>2249.8</ele>
        <time>2024-07-08T08:57:00Z</time>
      </trkpt>
      <trkpt lat="45.1401" lon="6.10385">
        <ele>2250.2</ele>
        <time>2024-07-08T08:57:02Z</time>
      </trkpt>
      <trkpt lat="45.1401" lon="6.10385">
        <ele>2250.3</ele>
        <time>2024-07-08T08:57:03Z</time>
      </trkpt>
      <trkpt lat="45.1401" lon="6.10386">
        <ele>2250.5</ele>
        <time>2024-07-08T08:57:04Z</time>
      </trkpt>
      <trkpt lat="45.14011" lon="6.10387">
        <ele>2250.6</ele>
        <time>2024-07-08T08:57:05Z</time>
      </trkpt>
      <trkpt lat="45.14012" lon="6.10387">
        <ele>2250.8</ele>
        <time>2024-07-08T08:57:06Z</time>
      </trkpt>
      <trkpt lat="45.14012" lon="6.10388">
        <ele>2251</ele>
        <time>2024-07-08T08:57:07Z</time>
      </trkpt>
      <trkpt lat="45.14012" lon="6.10389">
        <ele>2251.1</ele>
        <time>2024-07-08T08:57:08Z</time>
      </trkpt>
      <trkpt lat="45.14011" lon="6.1039">
        <ele>2251.3</ele>
        <time>2024-07-08T08:57:09Z</time>
      </trkpt>
      <trkpt lat="45.14011" lon="6.1039">
        <ele>2251.4</ele>
        <time>2024-07-08T08:57:10Z</time>
      </trkpt>
      <trkpt lat="45.1401" lon="6.1039">
        <ele>2251.4</ele>
        <time>2024-07-08T08:57:11Z</time>
      </trkpt>
      <trkpt lat="45.14011" lon="6.10391">
        <ele>2251.6</ele>
        <time>2024-07-08T08:57:12Z</time>
      </trkpt>
      <trkpt lat="45.14012" lon="6.10391">
        <ele>2251.7</ele>
        <time>2024-07-08T08:57:13Z</time>
      </trkpt>
      <trkpt lat="45.14012" lon="6.10391">
        <ele>2251.8</ele>
        <time>2024-07-08T08:57:14Z</time>
      </trkpt>
      <trkpt lat="45.14013" lon="6.10392">
        <ele>2252</ele>
        <time>2024-07-08T08:57:15Z</time>
      </trkpt>
      <trkpt lat="45.14013" lon="6.10391">
        <ele>2252</ele>
        <time>2024-07-08T08:57:16Z</time>
      </trkpt>
      <trkpt lat="45.14014" lon="6.10391">
        <ele>2252.1</ele>
        <time>2024-07-08T08:57:17Z</time>
      </trkpt>
      <trkpt lat="45.14014" lon="6.1039">
        <ele>2252.2</ele>
        <time>2024-07-08T08:57:18Z</time>
      </trkpt>
      <trkpt lat="45.14014" lon="6.1039">
        <ele>2252.3</ele>
        <time>2024-07-08T08:57:19Z</time>
      </trkpt>
      <trkpt lat="45.14014" lon="6.1039">
        <ele>2252.3</ele>
        <time>2024-07-08T08:57:20Z</time>
      </trkpt>
      <trkpt lat="45.14015" lon="6.10389">
        <ele>2252.4</ele>
        <time>2024-07-08T08:57:21Z</time>
      </trkpt>
      <trkpt lat="45.14015" lon="6.10389">
        <ele>2252.5</ele>
        <time>2024-07-08T08:57:22Z</time>
      </trkpt>
      <trkpt lat="45.14015" lon="6.10388">
        <ele>2252.5</ele>
        <time>2024-07-08T08:57:23Z</time>
      </trkpt>
      <trkpt lat="45.14016" lon="6.10387">
        <ele>2252.7</ele>
        <time>2024-07-08T08:57:24Z</time>
      </trkpt>
      <trkpt lat="45.14017" lon="6.10387">
        <ele>2252.9</ele>
        <time>2024-07-08T08:57:25Z</time>
      </trkpt>
      <trkpt lat="45.14016" lon="6.10387">
        <ele>2252.9</ele>
        <time>2024-07-08T08:57:26Z</time>
      </trkpt>
      <trkpt lat="45.14016" lon="6.10387">
        <ele>2253</ele>
        <time>2024-07-08T08:57:27Z</time>
      </trkpt>
      <trkpt lat="45.14016" lon="6.10387">
        <ele>2253</ele>
        <time>2024-07-08T08:57:28Z</time>
      </trkpt>
      <trkpt lat="45.14016" lon="6.10387">
        <ele>2253.1</ele>
        <time>2024-07-08T08:57:29Z</time>
      </trkpt>
      <trkpt lat="45.14016" lon="6.10386">
        <ele>2253.1</ele>
        <time>2024-07-08T08:57:30Z</time>
      </trkpt>
      <trkpt lat="45.14016" lon="6.10386">
        <ele>2253.1</ele>
        <time>2024-07-08T08:57:31Z</time>
      </trkpt>
      <trkpt lat="45.14016" lon="6.10386">
        <ele>2253.1</ele>
        <time>2024-07-08T08:57:32Z</time>
      </trkpt>
      <trkpt lat="45.14016" lon="6.10386">
        <ele>2253.1</ele>
        <time>2024-07-08T08:57:33Z</time>
      </trkpt>
      <trkpt lat="45.14016" lon="6.10386">
        <ele>2253.1</ele>
        <time>2024-07-08T08:57:34Z</time>
      </trkpt>
      <trkpt lat="45.14016" lon="6.10386">
        <ele>2253.1</ele>
        <time>2024-07-08T08:57:35Z</time>
      </trkpt>
      <trkpt lat="45.14016" lon="6.10387">
        <ele>2253.2</ele>
        <time>2024-07-08T08:57:36Z</time>
      </trkpt>
      <trkpt lat="45.14016" lon="6.10387">
        <ele>2253.3</ele>
        <time>2024-07-08T08:57:37Z</time>
      </trkpt>
      <trkpt lat="45.14017" lon="6.10387">
        <ele>2253.4</ele>
        <time>2024-07-08T08:57:38Z</time>
      </trkpt>
      <trkpt lat="45.14018" lon="6.10387">
        <ele>2253.6</ele>
        <time>2024-07-08T08:57:39Z</time>
      </trkpt>
      <trkpt lat="45.14019" lon="6.10387">
        <ele>2253.8</ele>
        <time>2024-07-08T08:57:40Z</time>
      </trkpt>
      <trkpt lat="45.14021" lon="6.10387">
        <ele>2254</ele>
        <time>2024-07-08T08:57:41Z</time>
      </trkpt>
      <trkpt lat="45.14022" lon="6.10387">
        <ele>2254.2</ele>
        <time>2024-07-08T08:57:42Z</time>
      </trkpt>
      <trkpt lat="45.14023" lon="6.10388">
        <ele>2254.5</ele>
        <time>2024-07-08T08:57:43Z</time>
      </trkpt>
      <trkpt lat="45.14024" lon="6.10389">
        <ele>2254.6</ele>
        <time>2024-07-08T08:57:44Z</time>
      </trkpt>
      <trkpt lat="45.14024" lon="6.1039">
        <ele>2254.7</ele>
        <time>2024-07-08T08:57:45Z</time>
      </trkpt>
      <trkpt lat="45.14025" lon="6.10391">
        <ele>2254.9</ele>
        <time>2024-07-08T08:57:46Z</time>
      </trkpt>
      <trkpt lat="45.14025" lon="6.10392">
        <ele>2255</ele>
        <time>2024-07-08T08:57:47Z</time>
      </trkpt>
      <trkpt lat="45.14026" lon="6.10392">
        <ele>2255.1</ele>
        <time>2024-07-08T08:57:48Z</time>
      </trkpt>
      <trkpt lat="45.14026" lon="6.10393">
        <ele>2255.2</ele>
        <time>2024-07-08T08:57:49Z</time>
      </trkpt>
      <trkpt lat="45.14027" lon="6.10394">
        <ele>2255.3</ele>
        <time>2024-07-08T08:57:50Z</time>
      </trkpt>
      <trkpt lat="45.14027" lon="6.10395">
        <ele>2255.4</ele>
        <time>2024-07-08T08:57:51Z</time>
      </trkpt>
      <trkpt lat="45.14027" lon="6.10395">
        <ele>2255.5</ele>
        <time>2024-07-08T08:57:52Z</time>
      </trkpt>
      <trkpt lat="45.14028" lon="6.10397">
        <ele>2255.7</ele>
        <time>2024-07-08T08:57:53Z</time>
      </trkpt>
      <trkpt lat="45.14027" lon="6.10397">
        <ele>2255.8</ele>
        <time>2024-07-08T08:57:54Z</time>
      </trkpt>
      <trkpt lat="45.14026" lon="6.10397">
        <ele>2256</ele>
        <time>2024-07-08T08:57:55Z</time>
      </trkpt>
      <trkpt lat="45.14025" lon="6.10398">
        <ele>2256.1</ele>
        <time>2024-07-08T08:57:56Z</time>
      </trkpt>
      <trkpt lat="45.14025" lon="6.10399">
        <ele>2256.2</ele>
        <time>2024-07-08T08:57:57Z</time>
      </trkpt>
      <trkpt lat="45.14024" lon="6.104">
        <ele>2256.3</ele>
        <time>2024-07-08T08:57:58Z</time>
      </trkpt>
      <trkpt lat="45.14024" lon="6.10399">
        <ele>2256.4</ele>
        <time>2024-07-08T08:57:59Z</time>
      </trkpt>
      <trkpt lat="45.14023" lon="6.104">
        <ele>2256.5</ele>
        <time>2024-07-08T08:58:00Z</time>
      </trkpt>
      <trkpt lat="45.14023" lon="6.10401">
        <ele>2256.6</ele>
        <time>2024-07-08T08:58:01Z</time>
      </trkpt>
      <trkpt lat="45.14022" lon="6.10401">
        <ele>2256.8</ele>
        <time>2024-07-08T08:58:02Z</time>
      </trkpt>
      <trkpt lat="45.14021" lon="6.10402">
        <ele>2256.9</ele>
        <time>2024-07-08T08:58:03Z</time>
      </trkpt>
      <trkpt lat="45.1402" lon="6.10402">
        <ele>2257</ele>
        <time>2024-07-08T08:58:04Z</time>
      </trkpt>
      <trkpt lat="45.1402" lon="6.10402">
        <ele>2257</ele>
        <time>2024-07-08T08:58:05Z</time>
      </trkpt>
      <trkpt lat="45.14019" lon="6.10403">
        <ele>2257.1</ele>
        <time>2024-07-08T08:58:06Z</time>
      </trkpt>
      <trkpt lat="45.14019" lon="6.10404">
        <ele>2257.2</ele>
        <time>2024-07-08T08:58:07Z</time>
      </trkpt>
      <trkpt lat="45.14019" lon="6.10405">
        <ele>2257.3</ele>
        <time>2024-07-08T08:58:08Z</time>
      </trkpt>
      <trkpt lat="45.14018" lon="6.10406">
        <ele>2257.4</ele>
        <time>2024-07-08T08:58:09Z</time>
      </trkpt>
      <trkpt lat="45.14018" lon="6.10406">
        <ele>2257.5</ele>
        <time>2024-07-08T08:58:10Z</time>
      </trkpt>
      <trkpt lat="45.14017" lon="6.10407">
        <ele>2257.6</ele>
        <time>2024-07-08T08:58:11Z</time>
      </trkpt>
      <trkpt lat="45.14017" lon="6.10407">
        <ele>2257.7</ele>
        <time>2024-07-08T08:58:12Z</time>
      </trkpt>
      <trkpt lat="45.14016" lon="6.10407">
        <ele>2257.8</ele>
        <time>2024-07-08T08:58:13Z</time>
      </trkpt>
      <trkpt lat="45.14015" lon="6.10406">
        <ele>2257.9</ele>
        <time>2024-07-08T08:58:14Z</time>
      </trkpt>
      <trkpt lat="45.14015" lon="6.10406">
        <ele>2257.9</ele>
        <time>2024-07-08T08:58:15Z</time>
      </trkpt>
      <trkpt lat="45.14015" lon="6.10406">
        <ele>2258</ele>
        <time>2024-07-08T08:58:16Z</time>
      </trkpt>
      <trkpt lat="45.14015" lon="6.10406">
        <ele>2258</ele>
        <time>2024-07-08T08:58:17Z</time>
      </trkpt>
      <trkpt lat="45.14015" lon="6.10405">
        <ele>2258.1</ele>
        <time>2024-07-08T08:58:18Z</time>
      </trkpt>
      <trkpt lat="45.14014" lon="6.10404">
        <ele>2258.2</ele>
        <time>2024-07-08T08:58:19Z</time>
      </trkpt>
      <trkpt lat="45.14014" lon="6.10404">
        <ele>2258.2</ele>
        <time>2024-07-08T08:58:20Z</time>
      </trkpt>
      <trkpt lat="45.14013" lon="6.10404">
        <ele>2258.3</ele>
        <time>2024-07-08T08:58:21Z</time>
      </trkpt>
      <trkpt lat="45.14013" lon="6.10404">
        <ele>2258.4</ele>
        <time>2024-07-08T08:58:22Z</time>
      </trkpt>
      <trkpt lat="45.14012" lon="6.10404">
        <ele>2258.4</ele>
        <time>2024-07-08T08:58:23Z</time>
      </trkpt>
      <trkpt lat="45.14012" lon="6.10404">
        <ele>2258.5</ele>
        <time>2024-07-08T08:58:24Z</time>
      </trkpt>
      <trkpt lat="45.14011" lon="6.10404">
        <ele>2258.5</ele>
        <time>2024-07-08T08:58:25Z</time>
      </trkpt>
      <trkpt lat="45.14011" lon="6.10404">
        <ele>2258.6</ele>
        <time>2024-07-08T08:58:26Z</time>
      </trkpt>
      <trkpt lat="45.1401" lon="6.10404">
        <ele>2258.7</ele>
        <time>2024-07-08T08:58:27Z</time>
      </trkpt>
      <trkpt lat="45.1401" lon="6.10405">
        <ele>2258.8</ele>
        <time>2024-07-08T08:58:28Z</time>
      </trkpt>
      <trkpt lat="45.1401" lon="6.10407">
        <ele>2258.9</ele>
        <time>2024-07-08T08:58:29Z</time>
      </trkpt>
      <trkpt lat="45.1401" lon="6.10407">
        <ele>2259</ele>
        <time>2024-07-08T08:58:30Z</time>
      </trkpt>
      <trkpt lat="45.14012" lon="6.10409">
        <ele>2259.2</ele>
        <time>2024-07-08T08:58:31Z</time>
      </trkpt>
      <trkpt lat="45.14014" lon="6.10411">
        <ele>2259.4</ele>
        <time>2024-07-08T08:58:32Z</time>
      </trkpt>
      <trkpt lat="45.14015" lon="6.10412">
        <ele>2259.6</ele>
        <time>2024-07-08T08:58:33Z</time>
      </trkpt>
      <trkpt lat="45.14015" lon="6.10413">
        <ele>2259.6</ele>
        <time>2024-07-08T08:58:34Z</time>
      </trkpt>
      <trkpt lat="45.14016" lon="6.10415">
        <ele>2259.7</ele>
        <time>2024-07-08T08:58:35Z</time>
      </trkpt>
      <trkpt lat="45.14016" lon="6.10416">
        <ele>2259.8</ele>
        <time>2024-07-08T08:58:36Z</time>
      </trkpt>
      <trkpt lat="45.14015" lon="6.10418">
        <ele>2260</ele>
        <time>2024-07-08T08:58:37Z</time>
      </trkpt>
      <trkpt lat="45.14015" lon="6.10419">
        <ele>2260</ele>
        <time>2024-07-08T08:58:38Z</time>
      </trkpt>
      <trkpt lat="45.14014" lon="6.1042">
        <ele>2260.1</ele>
        <time>2024-07-08T08:58:39Z</time>
      </trkpt>
      <trkpt lat="45.14014" lon="6.1042">
        <ele>2260.1</ele>
        <time>2024-07-08T08:58:40Z</time>
      </trkpt>
      <trkpt lat="45.14013" lon="6.10421">
        <ele>2260.2</ele>
        <time>2024-07-08T08:58:41Z</time>
      </trkpt>
      <trkpt lat="45.14013" lon="6.10422">
        <ele>2260.3</ele>
        <time>2024-07-08T08:58:42Z</time>
      </trkpt>
      <trkpt lat="45.14012" lon="6.10423">
        <ele>2260.4</ele>
        <time>2024-07-08T08:58:43Z</time>
      </trkpt>
      <trkpt lat="45.14012" lon="6.10424">
        <ele>2260.4</ele>
        <time>2024-07-08T08:58:44Z</time>
      </trkpt>
      <trkpt lat="45.14011" lon="6.10424">
        <ele>2260.4</ele>
        <time>2024-07-08T08:58:45Z</time>
      </trkpt>
      <trkpt lat="45.14011" lon="6.10424">
        <ele>2260.5</ele>
        <time>2024-07-08T08:58:46Z</time>
      </trkpt>
      <trkpt lat="45.1401" lon="6.10426">
        <ele>2260.6</ele>
        <time>2024-07-08T08:58:47Z</time>
      </trkpt>
      <trkpt lat="45.1401" lon="6.10426">
        <ele>2260.6</ele>
        <time>2024-07-08T08:58:48Z</time>
      </trkpt>
      <trkpt lat="45.1401" lon="6.10427">
        <ele>2260.7</ele>
        <time>2024-07-08T08:58:49Z</time>
      </trkpt>
      <trkpt lat="45.1401" lon="6.10429">
        <ele>2260.8</ele>
        <time>2024-07-08T08:58:50Z</time>
      </trkpt>
      <trkpt lat="45.14009" lon="6.1043">
        <ele>2260.8</ele>
        <time>2024-07-08T08:58:51Z</time>
      </trkpt>
      <trkpt lat="45.14009" lon="6.10431">
        <ele>2260.9</ele>
        <time>2024-07-08T08:58:52Z</time>
      </trkpt>
      <trkpt lat="45.14009" lon="6.10432">
        <ele>2260.9</ele>
        <time>2024-07-08T08:58:53Z</time>
      </trkpt>
      <trkpt lat="45.1401" lon="6.10433">
        <ele>2261</ele>
        <time>2024-07-08T08:58:54Z</time>
      </trkpt>
      <trkpt lat="45.1401" lon="6.10434">
        <ele>2261</ele>
        <time>2024-07-08T08:58:55Z</time>
      </trkpt>
      <trkpt lat="45.14011" lon="6.10434">
        <ele>2261.1</ele>
        <time>2024-07-08T08:58:56Z</time>
      </trkpt>
      <trkpt lat="45.14011" lon="6.10435">
        <ele>2261.2</ele>
        <time>2024-07-08T08:58:57Z</time>
      </trkpt>
      <trkpt lat="45.14012" lon="6.10436">
        <ele>2261.3</ele>
        <time>2024-07-08T08:58:58Z</time>
      </trkpt>
      <trkpt lat="45.14013" lon="6.10436">
        <ele>2261.3</ele>
        <time>2024-07-08T08:58:59Z</time>
      </trkpt>
      <trkpt lat="45.14013" lon="6.10437">
        <ele>2261.3</ele>
        <time>2024-07-08T08:59:00Z</time>
      </trkpt>
      <trkpt lat="45.14014" lon="6.10438">
        <ele>2261.4</ele>
        <time>2024-07-08T08:59:01Z</time>
      </trkpt>
      <trkpt lat="45.14014" lon="6.10439">
        <ele>2261.5</ele>
        <time>2024-07-08T08:59:02Z</time>
      </trkpt>
      <trkpt lat="45.14014" lon="6.10442">
        <ele>2261.6</ele>
        <time>2024-07-08T08:59:03Z</time>
      </trkpt>
      <trkpt lat="45.14014" lon="6.10442">
        <ele>2261.7</ele>
        <time>2024-07-08T08:59:04Z</time>
      </trkpt>
      <trkpt lat="45.14014" lon="6.10443">
        <ele>2261.8</ele>
        <time>2024-07-08T08:59:05Z</time>
      </trkpt>
      <trkpt lat="45.14015" lon="6.10444">
        <ele>2261.8</ele>
        <time>2024-07-08T08:59:06Z</time>
      </trkpt>
      <trkpt lat="45.14015" lon="6.10444">
        <ele>2261.8</ele>
        <time>2024-07-08T08:59:07Z</time>
      </trkpt>
      <trkpt lat="45.14015" lon="6.10446">
        <ele>2261.9</ele>
        <time>2024-07-08T08:59:08Z</time>
      </trkpt>
      <trkpt lat="45.14015" lon="6.10446">
        <ele>2262</ele>
        <time>2024-07-08T08:59:09Z</time>
      </trkpt>
      <trkpt lat="45.14015" lon="6.10447">
        <ele>2262</ele>
        <time>2024-07-08T08:59:10Z</time>
      </trkpt>
      <trkpt lat="45.14015" lon="6.10448">
        <ele>2262.1</ele>
        <time>2024-07-08T08:59:11Z</time>
      </trkpt>
      <trkpt lat="45.14015" lon="6.10449">
        <ele>2262.1</ele>
        <time>2024-07-08T08:59:12Z</time>
      </trkpt>
      <trkpt lat="45.14016" lon="6.1045">
        <ele>2262.2</ele>
        <time>2024-07-08T08:59:13Z</time>
      </trkpt>
      <trkpt lat="45.14016" lon="6.10451">
        <ele>2262.3</ele>
        <time>2024-07-08T08:59:14Z</time>
      </trkpt>
      <trkpt lat="45.14016" lon="6.10452">
        <ele>2262.3</ele>
        <time>2024-07-08T08:59:15Z</time>
      </trkpt>
      <trkpt lat="45.14017" lon="6.10453">
        <ele>2262.4</ele>
        <time>2024-07-08T08:59:16Z</time>
      </trkpt>
      <trkpt lat="45.14017" lon="6.10454">
        <ele>2262.5</ele>
        <time>2024-07-08T08:59:17Z</time>
      </trkpt>
      <trkpt lat="45.14018" lon="6.10455">
        <ele>2262.6</ele>
        <time>2024-07-08T08:59:18Z</time>
      </trkpt>
      <trkpt lat="45.14018" lon="6.10456">
        <ele>2262.6</ele>
        <time>2024-07-08T08:59:19Z</time>
      </trkpt>
      <trkpt lat="45.14018" lon="6.10457">
        <ele>2262.7</ele>
        <time>2024-07-08T08:59:20Z</time>
      </trkpt>
      <trkpt lat="45.14018" lon="6.10458">
        <ele>2262.7</ele>
        <time>2024-07-08T08:59:21Z</time>
      </trkpt>
      <trkpt lat="45.14018" lon="6.10459">
        <ele>2262.8</ele>
        <time>2024-07-08T08:59:22Z</time>
      </trkpt>
      <trkpt lat="45.14018" lon="6.10461">
        <ele>2262.9</ele>
        <time>2024-07-08T08:59:23Z</time>
      </trkpt>
      <trkpt lat="45.14018" lon="6.10462">
        <ele>2262.9</ele>
        <time>2024-07-08T08:59:24Z</time>
      </trkpt>
      <trkpt lat="45.14018" lon="6.10463">
        <ele>2263</ele>
        <time>2024-07-08T08:59:25Z</time>
      </trkpt>
      <trkpt lat="45.14019" lon="6.10464">
        <ele>2263.1</ele>
        <time>2024-07-08T08:59:26Z</time>
      </trkpt>
      <trkpt lat="45.14019" lon="6.10466">
        <ele>2263.2</ele>
        <time>2024-07-08T08:59:27Z</time>
      </trkpt>
      <trkpt lat="45.14019" lon="6.10467">
        <ele>2263.3</ele>
        <time>2024-07-08T08:59:28Z</time>
      </trkpt>
      <trkpt lat="45.14019" lon="6.10468">
        <ele>2263.3</ele>
        <time>2024-07-08T08:59:29Z</time>
      </trkpt>
      <trkpt lat="45.14019" lon="6.1047">
        <ele>2263.4</ele>
        <time>2024-07-08T08:59:30Z</time>
      </trkpt>
      <trkpt lat="45.14019" lon="6.10471">
        <ele>2263.5</ele>
        <time>2024-07-08T08:59:31Z</time>
      </trkpt>
      <trkpt lat="45.14019" lon="6.10472">
        <ele>2263.5</ele>
        <time>2024-07-08T08:59:32Z</time>
      </trkpt>
      <trkpt lat="45.14019" lon="6.10473">
        <ele>2263.6</ele>
        <time>2024-07-08T08:59:33Z</time>
      </trkpt>
      <trkpt lat="45.1402" lon="6.10475">
        <ele>2263.7</ele>
        <time>2024-07-08T08:59:34Z</time>
      </trkpt>
      <trkpt lat="45.1402" lon="6.10476">
        <ele>2263.8</ele>
        <time>2024-07-08T08:59:35Z</time>
      </trkpt>
      <trkpt lat="45.1402" lon="6.10477">
        <ele>2263.8</ele>
        <time>2024-07-08T08:59:36Z</time>
      </trkpt>
      <trkpt lat="45.14021" lon="6.10479">
        <ele>2263.9</ele>
        <time>2024-07-08T08:59:37Z</time>
      </trkpt>
      <trkpt lat="45.14021" lon="6.1048">
        <ele>2264</ele>
        <time>2024-07-08T08:59:38Z</time>
      </trkpt>
      <trkpt lat="45.14022" lon="6.10482">
        <ele>2264.1</ele>
        <time>2024-07-08T08:59:39Z</time>
      </trkpt>
      <trkpt lat="45.14022" lon="6.10483">
        <ele>2264.1</ele>
        <time>2024-07-08T08:59:40Z</time>
      </trkpt>
      <trkpt lat="45.14022" lon="6.10485">
        <ele>2264.2</ele>
        <time>2024-07-08T08:59:41Z</time>
      </trkpt>
      <trkpt lat="45.14022" lon="6.10486">
        <ele>2264.2</ele>
        <time>2024-07-08T08:59:42Z</time>
      </trkpt>
      <trkpt lat="45.14023" lon="6.10487">
        <ele>2264.3</ele>
        <time>2024-07-08T08:59:43Z</time>
      </trkpt>
      <trkpt lat="45.14024" lon="6.10488">
        <ele>2264.4</ele>
        <time>2024-07-08T08:59:44Z</time>
      </trkpt>
      <trkpt lat="45.14024" lon="6.10488">
        <ele>2264.4</ele>
        <time>2024-07-08T08:59:45Z</time>
      </trkpt>
      <trkpt lat="45.14025" lon="6.1049">
        <ele>2264.5</ele>
        <time>2024-07-08T08:59:46Z</time>
      </trkpt>
      <trkpt lat="45.14025" lon="6.10491">
        <ele>2264.5</ele>
        <time>2024-07-08T08:59:47Z</time>
      </trkpt>
      <trkpt lat="45.14025" lon="6.10492">
        <ele>2264.5</ele>
        <time>2024-07-08T08:59:48Z</time>
      </trkpt>
      <trkpt lat="45.14026" lon="6.10493">
        <ele>2264.6</ele>
        <time>2024-07-08T08:59:49Z</time>
      </trkpt>
      <trkpt lat="45.14025" lon="6.10494">
        <ele>2264.6</ele>
        <time>2024-07-08T08:59:50Z</time>
      </trkpt>
      <trkpt lat="45.14025" lon="6.10496">
        <ele>2264.7</ele>
        <time>2024-07-08T08:59:51Z</time>
      </trkpt>
      <trkpt lat="45.14025" lon="6.10497">
        <ele>2264.7</ele>
        <time>2024-07-08T08:59:52Z</time>
      </trkpt>
      <trkpt lat="45.14025" lon="6.10499">
        <ele>2264.8</ele>
        <time>2024-07-08T08:59:53Z</time>
      </trkpt>
      <trkpt lat="45.14024" lon="6.105">
        <ele>2264.9</ele>
        <time>2024-07-08T08:59:54Z</time>
      </trkpt>
      <trkpt lat="45.14024" lon="6.10502">
        <ele>2264.9</ele>
        <time>2024-07-08T08:59:55Z</time>
      </trkpt>
      <trkpt lat="45.14024" lon="6.10503">
        <ele>2265</ele>
        <time>2024-07-08T08:59:56Z</time>
      </trkpt>
      <trkpt lat="45.14023" lon="6.10506">
        <ele>2265.1</ele>
        <time>2024-07-08T08:59:57Z</time>
      </trkpt>
      <trkpt lat="45.14023" lon="6.10507">
        <ele>2265.1</ele>
        <time>2024-07-08T08:59:58Z</time>
      </trkpt>
      <trkpt lat="45.14022" lon="6.10508">
        <ele>2265.2</ele>
        <time>2024-07-08T08:59:59Z</time>
      </trkpt>
      <trkpt lat="45.14022" lon="6.10509">
        <ele>2265.2</ele>
        <time>2024-07-08T09:00:00Z</time>
      </trkpt>
      <trkpt lat="45.14022" lon="6.1051">
        <ele>2265.2</ele>
        <time>2024-07-08T09:00:01Z</time>
      </trkpt>
      <trkpt lat="45.14021" lon="6.10511">
        <ele>2265.3</ele>
        <time>2024-07-08T09:00:02Z</time>
      </trkpt>
      <trkpt lat="45.14021" lon="6.10512">
        <ele>2265.3</ele>
        <time>2024-07-08T09:00:03Z</time>
      </trkpt>
      <trkpt lat="45.14021" lon="6.10514">
        <ele>2265.4</ele>
        <time>2024-07-08T09:00:04Z</time>
      </trkpt>
      <trkpt lat="45.14021" lon="6.10514">
        <ele>2265.4</ele>
        <time>2024-07-08T09:00:05Z</time>
      </trkpt>
      <trkpt lat="45.14021" lon="6.10515">
        <ele>2265.4</ele>
        <time>2024-07-08T09:00:06Z</time>
      </trkpt>
      <trkpt lat="45.14021" lon="6.10516">
        <ele>2265.5</ele>
        <time>2024-07-08T09:00:07Z</time>
      </trkpt>
      <trkpt lat="45.1402" lon="6.10517">
        <ele>2265.5</ele>
        <time>2024-07-08T09:00:08Z</time>
      </trkpt>
      <trkpt lat="45.1402" lon="6.10517">
        <ele>2265.6</ele>
        <time>2024-07-08T09:00:09Z</time>
      </trkpt>
      <trkpt lat="45.1402" lon="6.10517">
        <ele>2265.6</ele>
        <time>2024-07-08T09:00:10Z</time>
      </trkpt>
      <trkpt lat="45.14019" lon="6.10518">
        <ele>2265.6</ele>
        <time>2024-07-08T09:00:11Z</time>
      </trkpt>
      <trkpt lat="45.14018" lon="6.10519">
        <ele>2265.7</ele>
        <time>2024-07-08T09:00:12Z</time>
      </trkpt>
      <trkpt lat="45.14018" lon="6.10519">
        <ele>2265.7</ele>
        <time>2024-07-08T09:00:13Z</time>
      </trkpt>
      <trkpt lat="45.14017" lon="6.10521">
        <ele>2265.8</ele>
        <time>2024-07-08T09:00:14Z</time>
      </trkpt>
      <trkpt lat="45.14017" lon="6.10522">
        <ele>2265.8</ele>
        <time>2024-07-08T09:00:15Z</time>
      </trkpt>
      <trkpt lat="45.14017" lon="6.10523">
        <ele>2265.9</ele>
        <time>2024-07-08T09:00:16Z</time>
      </trkpt>
      <trkpt lat="45.14016" lon="6.10525">
        <ele>2266</ele>
        <time>2024-07-08T09:00:17Z</time>
      </trkpt>
      <trkpt lat="45.14017" lon="6.10526">
        <ele>2266</ele>
        <time>2024-07-08T09:00:18Z</time>
      </trkpt>
      <trkpt lat="45.14017" lon="6.10527">
        <ele>2266.1</ele>
        <time>2024-07-08T09:00:19Z</time>
      </trkpt>
      <trkpt lat="45.14017" lon="6.10529">
        <ele>2266.1</ele>
        <time>2024-07-08T09:00:20Z</time>
      </trkpt>
      <trkpt lat="45.14018" lon="6.10529">
        <ele>2266.2</ele>
        <time>2024-07-08T09:00:21Z</time>
      </trkpt>
      <trkpt lat="45.14019" lon="6.10531">
        <ele>2266.3</ele>
        <time>2024-07-08T09:00:22Z</time>
      </trkpt>
      <trkpt lat="45.14019" lon="6.10532">
        <ele>2266.3</ele>
        <time>2024-07-08T09:00:23Z</time>
      </trkpt>
      <trkpt lat="45.14019" lon="6.10533">
        <ele>2266.4</ele>
        <time>2024-07-08T09:00:24Z</time>
      </trkpt>
      <trkpt lat="45.1402" lon="6.10534">
        <ele>2266.5</ele>
        <time>2024-07-08T09:00:25Z</time>
      </trkpt>
      <trkpt lat="45.1402" lon="6.10535">
        <ele>2266.5</ele>
        <time>2024-07-08T09:00:26Z</time>
      </trkpt>
      <trkpt lat="45.1402" lon="6.10536">
        <ele>2266.6</ele>
        <time>2024-07-08T09:00:27Z</time>
      </trkpt>
      <trkpt lat="45.14021" lon="6.10537">
        <ele>2266.6</ele>
        <time>2024-07-08T09:00:28Z</time>
      </trkpt>
      <trkpt lat="45.14022" lon="6.10537">
        <ele>2266.7</ele>
        <time>2024-07-08T09:00:29Z</time>
      </trkpt>
      <trkpt lat="45.14022" lon="6.10538">
        <ele>2266.8</ele>
        <time>2024-07-08T09:00:30Z</time>
      </trkpt>
      <trkpt lat="45.14022" lon="6.10539">
        <ele>2266.8</ele>
        <time>2024-07-08T09:00:31Z</time>
      </trkpt>
      <trkpt lat="45.14023" lon="6.1054">
        <ele>2266.9</ele>
        <time>2024-07-08T09:00:32Z</time>
      </trkpt>
      <trkpt lat="45.14023" lon="6.10541">
        <ele>2267</ele>
        <time>2024-07-08T09:00:33Z</time>
      </trkpt>
      <trkpt lat="45.14023" lon="6.10542">
        <ele>2267.1</ele>
        <time>2024-07-08T09:00:34Z</time>
      </trkpt>
      <trkpt lat="45.14023" lon="6.10543">
        <ele>2267.1</ele>
        <time>2024-07-08T09:00:35Z</time>
      </trkpt>
      <trkpt lat="45.14023" lon="6.10544">
        <ele>2267.2</ele>
        <time>2024-07-08T09:00:36Z</time>
      </trkpt>
      <trkpt lat="45.14023" lon="6.10544">
        <ele>2267.2</ele>
        <time>2024-07-08T09:00:37Z</time>
      </trkpt>
      <trkpt lat="45.14024" lon="6.10545">
        <ele>2267.3</ele>
        <time>2024-07-08T09:00:38Z</time>
      </trkpt>
      <trkpt lat="45.14024" lon="6.10545">
        <ele>2267.3</ele>
        <time>2024-07-08T09:00:39Z</time>
      </trkpt>
      <trkpt lat="45.14025" lon="6.10546">
        <ele>2267.4</ele>
        <time>2024-07-08T09:00:40Z</time>
      </trkpt>
      <trkpt lat="45.14025" lon="6.10547">
        <ele>2267.4</ele>
        <time>2024-07-08T09:00:41Z</time>
      </trkpt>
      <trkpt lat="45.14026" lon="6.10547">
        <ele>2267.5</ele>
        <time>2024-07-08T09:00:42Z</time>
      </trkpt>
      <trkpt lat="45.14027" lon="6.10548">
        <ele>2267.6</ele>
        <time>2024-07-08T09:00:43Z</time>
      </trkpt>
      <trkpt lat="45.14027" lon="6.10548">
        <ele>2267.6</ele>
        <time>2024-07-08T09:00:44Z</time>
      </trkpt>
      <trkpt lat="45.14028" lon="6.10548">
        <ele>2267.7</ele>
        <time>2024-07-08T09:00:45Z</time>
      </trkpt>
      <trkpt lat="45.14029" lon="6.10549">
        <ele>2267.8</ele>
        <time>2024-07-08T09:00:46Z</time>
      </trkpt>
      <trkpt lat="45.1403" lon="6.1055">
        <ele>2267.9</ele>
        <time>2024-07-08T09:00:47Z</time>
      </trkpt>
      <trkpt lat="45.1403" lon="6.10551">
        <ele>2268</ele>
        <time>2024-07-08T09:00:48Z</time>
      </trkpt>
      <trkpt lat="45.14031" lon="6.10553">
        <ele>2268.1</ele>
        <time>2024-07-08T09:00:49Z</time>
      </trkpt>
      <trkpt lat="45.14031" lon="6.10554">
        <ele>2268.2</ele>
        <time>2024-07-08T09:00:50Z</time>
      </trkpt>
      <trkpt lat="45.14031" lon="6.10555">
        <ele>2268.3</ele>
        <time>2024-07-08T09:00:51Z</time>
      </trkpt>
      <trkpt lat="45.14032" lon="6.10556">
        <ele>2268.4</ele>
        <time>2024-07-08T09:00:52Z</time>
      </trkpt>
      <trkpt lat="45.14032" lon="6.10557">
        <ele>2268.5</ele>
        <time>2024-07-08T09:00:53Z</time>
      </trkpt>
      <trkpt lat="45.14033" lon="6.10559">
        <ele>2268.6</ele>
        <time>2024-07-08T09:00:54Z</time>
      </trkpt>
      <trkpt lat="45.14034" lon="6.1056">
        <ele>2268.8</ele>
        <time>2024-07-08T09:00:55Z</time>
      </trkpt>
      <trkpt lat="45.14035" lon="6.10561">
        <ele>2268.9</ele>
        <time>2024-07-08T09:00:56Z</time>
      </trkpt>
      <trkpt lat="45.14035" lon="6.10561">
        <ele>2268.9</ele>
        <time>2024-07-08T09:00:57Z</time>
      </trkpt>
      <trkpt lat="45.14036" lon="6.10562">
        <ele>2269</ele>
        <time>2024-07-08T09:00:58Z</time>
      </trkpt>
      <trkpt lat="45.14037" lon="6.10563">
        <ele>2269.2</ele>
        <time>2024-07-08T09:00:59Z</time>
      </trkpt>
      <trkpt lat="45.14038" lon="6.10564">
        <ele>2269.3</ele>
        <time>2024-07-08T09:01:00Z</time>
      </trkpt>
      <trkpt lat="45.14039" lon="6.10565">
        <ele>2269.4</ele>
        <time>2024-07-08T09:01:01Z</time>
      </trkpt>
      <trkpt lat="45.14039" lon="6.10566">
        <ele>2269.5</ele>
        <time>2024-07-08T09:01:02Z</time>
      </trkpt>
      <trkpt lat="45.1404" lon="6.10567">
        <ele>2269.6</ele>
        <time>2024-07-08T09:01:03Z</time>
      </trkpt>
      <trkpt lat="45.1404" lon="6.10569">
        <ele>2269.7</ele>
        <time>2024-07-08T09:01:04Z</time>
      </trkpt>
      <trkpt lat="45.1404" lon="6.1057">
        <ele>2269.8</ele>
        <time>2024-07-08T09:01:05Z</time>
      </trkpt>
      <trkpt lat="45.1404" lon="6.10571">
        <ele>2269.9</ele>
        <time>2024-07-08T09:01:06Z</time>
      </trkpt>
      <trkpt lat="45.1404" lon="6.10572">
        <ele>2270</ele>
        <time>2024-07-08T09:01:07Z</time>
      </trkpt>
      <trkpt lat="45.1404" lon="6.10574">
        <ele>2270.1</ele>
        <time>2024-07-08T09:01:08Z</time>
      </trkpt>
      <trkpt lat="45.14041" lon="6.10576">
        <ele>2270.3</ele>
        <time>2024-07-08T09:01:09Z</time>
      </trkpt>
      <trkpt lat="45.14042" lon="6.10576">
        <ele>2270.3</ele>
        <time>2024-07-08T09:01:10Z</time>
      </trkpt>
      <trkpt lat="45.14042" lon="6.10577">
        <ele>2270.4</ele>
        <time>2024-07-08T09:01:11Z</time>
      </trkpt>
      <trkpt lat="45.14043" lon="6.10578">
        <ele>2270.5</ele>
        <time>2024-07-08T09:01:12Z</time>
      </trkpt>
      <trkpt lat="45.14043" lon="6.10579">
        <ele>2270.6</ele>
        <time>2024-07-08T09:01:13Z</time>
      </trkpt>
      <trkpt lat="45.14043" lon="6.10581">
        <ele>2270.7</ele>
        <time>2024-07-08T09:01:14Z</time>
      </trkpt>
      <trkpt lat="45.14043" lon="6.10582">
        <ele>2270.7</ele>
        <time>2024-07-08T09:01:15Z</time>
      </trkpt>
      <trkpt lat="45.14044" lon="6.10583">
        <ele>2270.9</ele>
        <time>2024-07-08T09:01:16Z</time>
      </trkpt>
      <trkpt lat="45.14045" lon="6.10584">
        <ele>2270.9</ele>
        <time>2024-07-08T09:01:17Z</time>
      </trkpt>
      <trkpt lat="45.14045" lon="6.10585">
        <ele>2271</ele>
        <time>2024-07-08T09:01:18Z</time>
      </trkpt>
      <trkpt lat="45.14046" lon="6.10586">
        <ele>2271.1</ele>
        <time>2024-07-08T09:01:19Z</time>
      </trkpt>
      <trkpt lat="45.14047" lon="6.10586">
        <ele>2271.1</ele>
        <time>2024-07-08T09:01:20Z</time>
      </trkpt>
      <trkpt lat="45.14047" lon="6.10586">
        <ele>2271.2</ele>
        <time>2024-07-08T09:01:21Z</time>
      </trkpt>
      <trkpt lat="45.14048" lon="6.10588">
        <ele>2271.3</ele>
        <time>2024-07-08T09:01:22Z</time>
      </trkpt>
      <trkpt lat="45.14049" lon="6.10589">
        <ele>2271.4</ele>
        <time>2024-07-08T09:01:23Z</time>
      </trkpt>
      <trkpt lat="45.14049" lon="6.10592">
        <ele>2271.5</ele>
        <time>2024-07-08T09:01:24Z</time>
      </trkpt>
      <trkpt lat="45.14049" lon="6.10593">
        <ele>2271.6</ele>
        <time>2024-07-08T09:01:25Z</time>
      </trkpt>
      <trkpt lat="45.14049" lon="6.10593">
        <ele>2271.6</ele>
        <time>2024-07-08T09:01:26Z</time>
      </trkpt>
      <trkpt lat="45.14049" lon="6.10594">
        <ele>2271.7</ele>
        <time>2024-07-08T09:01:27Z</time>
      </trkpt>
      <trkpt lat="45.14049" lon="6.10595">
        <ele>2271.7</ele>
        <time>2024-07-08T09:01:28Z</time>
      </trkpt>
      <trkpt lat="45.1405" lon="6.10597">
        <ele>2271.8</ele>
        <time>2024-07-08T09:01:29Z</time>
      </trkpt>
      <trkpt lat="45.1405" lon="6.10597">
        <ele>2271.8</ele>
        <time>2024-07-08T09:01:30Z</time>
      </trkpt>
      <trkpt lat="45.14051" lon="6.10598">
        <ele>2271.9</ele>
        <time>2024-07-08T09:01:31Z</time>
      </trkpt>
      <trkpt lat="45.14051" lon="6.106">
        <ele>2272</ele>
        <time>2024-07-08T09:01:32Z</time>
      </trkpt>
      <trkpt lat="45.14051" lon="6.10601">
        <ele>2272</ele>
        <time>2024-07-08T09:01:33Z</time>
      </trkpt>
      <trkpt lat="45.14051" lon="6.10602">
        <ele>2272.1</ele>
        <time>2024-07-08T09:01:34Z</time>
      </trkpt>
      <trkpt lat="45.14051" lon="6.10602">
        <ele>2272.1</ele>
        <time>2024-07-08T09:01:35Z</time>
      </trkpt>
      <trkpt lat="45.14052" lon="6.10603">
        <ele>2272.2</ele>
        <time>2024-07-08T09:01:36Z</time>
      </trkpt>
      <trkpt lat="45.14053" lon="6.10603">
        <ele>2272.2</ele>
        <time>2024-07-08T09:01:37Z</time>
      </trkpt>
      <trkpt lat="45.14053" lon="6.10604">
        <ele>2272.2</ele>
        <time>2024-07-08T09:01:38Z</time>
      </trkpt>
      <trkpt lat="45.14054" lon="6.10605">
        <ele>2272.3</ele>
        <time>2024-07-08T09:01:39Z</time>
      </trkpt>
      <trkpt lat="45.14055" lon="6.10606">
        <ele>2272.4</ele>
        <time>2024-07-08T09:01:40Z</time>
      </trkpt>
      <trkpt lat="45.14056" lon="6.10607">
        <ele>2272.4</ele>
        <time>2024-07-08T09:01:41Z</time>
      </trkpt>
      <trkpt lat="45.14057" lon="6.10607">
        <ele>2272.5</ele>
        <time>2024-07-08T09:01:42Z</time>
      </trkpt>
      <trkpt lat="45.14057" lon="6.10608">
        <ele>2272.5</ele>
        <time>2024-07-08T09:01:43Z</time>
      </trkpt>
      <trkpt lat="45.14059" lon="6.10608">
        <ele>2272.6</ele>
        <time>2024-07-08T09:01:44Z</time>
      </trkpt>
      <trkpt lat="45.14059" lon="6.10609">
        <ele>2272.7</ele>
        <time>2024-07-08T09:01:45Z</time>
      </trkpt>
      <trkpt lat="45.1406" lon="6.10609">
        <ele>2272.8</ele>
        <time>2024-07-08T09:01:46Z</time>
      </trkpt>
      <trkpt lat="45.14061" lon="6.1061">
        <ele>2272.8</ele>
        <time>2024-07-08T09:01:47Z</time>
      </trkpt>
      <trkpt lat="45.14062" lon="6.10611">
        <ele>2272.9</ele>
        <time>2024-07-08T09:01:48Z</time>
      </trkpt>
      <trkpt lat="45.14063" lon="6.10612">
        <ele>2273</ele>
        <time>2024-07-08T09:01:49Z</time>
      </trkpt>
      <trkpt lat="45.14064" lon="6.10612">
        <ele>2273.1</ele>
        <time>2024-07-08T09:01:50Z</time>
      </trkpt>
      <trkpt lat="45.14065" lon="6.10613">
        <ele>2273.2</ele>
        <time>2024-07-08T09:01:51Z</time>
      </trkpt>
      <trkpt lat="45.14067" lon="6.10614">
        <ele>2273.4</ele>
        <time>2024-07-08T09:01:52Z</time>
      </trkpt>
      <trkpt lat="45.14067" lon="6.10615">
        <ele>2273.5</ele>
        <time>2024-07-08T09:01:53Z</time>
      </trkpt>
      <trkpt lat="45.14068" lon="6.10616">
        <ele>2273.6</ele>
        <time>2024-07-08T09:01:54Z</time>
      </trkpt>
      <trkpt lat="45.14069" lon="6.10617">
        <ele>2273.7</ele>
        <time>2024-07-08T09:01:55Z</time>
      </trkpt>
      <trkpt lat="45.14069" lon="6.10618">
        <ele>2273.8</ele>
        <time>2024-07-08T09:01:56Z</time>
      </trkpt>
      <trkpt lat="45.1407" lon="6.10619">
        <ele>2273.9</ele>
        <time>2024-07-08T09:01:57Z</time>
      </trkpt>
      <trkpt lat="45.14071" lon="6.10619">
        <ele>2274</ele>
        <time>2024-07-08T09:01:58Z</time>
      </trkpt>
      <trkpt lat="45.14072" lon="6.10619">
        <ele>2274.1</ele>
        <time>2024-07-08T09:01:59Z</time>
      </trkpt>
      <trkpt lat="45.14073" lon="6.1062">
        <ele>2274.2</ele>
        <time>2024-07-08T09:02:00Z</time>
      </trkpt>
      <trkpt lat="45.14074" lon="6.1062">
        <ele>2274.4</ele>
        <time>2024-07-08T09:02:01Z</time>
      </trkpt>
      <trkpt lat="45.14075" lon="6.1062">
        <ele>2274.5</ele>
        <time>2024-07-08T09:02:02Z</time>
      </trkpt>
      <trkpt lat="45.14076" lon="6.10621">
        <ele>2274.7</ele>
        <time>2024-07-08T09:02:03Z</time>
      </trkpt>
      <trkpt lat="45.14077" lon="6.10621">
        <ele>2274.8</ele>
        <time>2024-07-08T09:02:04Z</time>
      </trkpt>
      <trkpt lat="45.14078" lon="6.10622">
        <ele>2274.9</ele>
        <time>2024-07-08T09:02:05Z</time>
      </trkpt>
      <trkpt lat="45.14078" lon="6.10622">
        <ele>2275</ele>
        <time>2024-07-08T09:02:06Z</time>
      </trkpt>
      <trkpt lat="45.14079" lon="6.10624">
        <ele>2275.1</ele>
        <time>2024-07-08T09:02:07Z</time>
      </trkpt>
      <trkpt lat="45.14079" lon="6.10625">
        <ele>2275.3</ele>
        <time>2024-07-08T09:02:08Z</time>
      </trkpt>
      <trkpt lat="45.1408" lon="6.10626">
        <ele>2275.4</ele>
        <time>2024-07-08T09:02:09Z</time>
      </trkpt>
      <trkpt lat="45.1408" lon="6.10626">
        <ele>2275.4</ele>
        <time>2024-07-08T09:02:10Z</time>
      </trkpt>
      <trkpt lat="45.14081" lon="6.10627">
        <ele>2275.5</ele>
        <time>2024-07-08T09:02:11Z</time>
      </trkpt>
      <trkpt lat="45.14081" lon="6.10627">
        <ele>2275.6</ele>
        <time>2024-07-08T09:02:12Z</time>
      </trkpt>
      <trkpt lat="45.14082" lon="6.10628">
        <ele>2275.7</ele>
        <time>2024-07-08T09:02:13Z</time>
      </trkpt>
      <trkpt lat="45.14082" lon="6.10628">
        <ele>2275.7</ele>
        <time>2024-07-08T09:02:14Z</time>
      </trkpt>
      <trkpt lat="45.14083" lon="6.10628">
        <ele>2275.8</ele>
        <time>2024-07-08T09:02:15Z</time>
      </trkpt>
      <trkpt lat="45.14083" lon="6.10629">
        <ele>2275.9</ele>
        <time>2024-07-08T09:02:16Z</time>
      </trkpt>
      <trkpt lat="45.14083" lon="6.10629">
        <ele>2275.9</ele>
        <time>2024-07-08T09:02:17Z</time>
      </trkpt>
      <trkpt lat="45.14084" lon="6.10629">
        <ele>2276</ele>
        <time>2024-07-08T09:02:18Z</time>
      </trkpt>
      <trkpt lat="45.14085" lon="6.10629">
        <ele>2276.1</ele>
        <time>2024-07-08T09:02:19Z</time>
      </trkpt>
      <trkpt lat="45.14086" lon="6.10628">
        <ele>2276.2</ele>
        <time>2024-07-08T09:02:20Z</time>
      </trkpt>
      <trkpt lat="45.14087" lon="6.10629">
        <ele>2276.3</ele>
        <time>2024-07-08T09:02:21Z</time>
      </trkpt>
      <trkpt lat="45.14087" lon="6.10629">
        <ele>2276.4</ele>
        <time>2024-07-08T09:02:22Z</time>
      </trkpt>
      <trkpt lat="45.14088" lon="6.1063">
        <ele>2276.5</ele>
        <time>2024-07-08T09:02:23Z</time>
      </trkpt>
      <trkpt lat="45.14088" lon="6.1063">
        <ele>2276.6</ele>
        <time>2024-07-08T09:02:24Z</time>
      </trkpt>
      <trkpt lat="45.14089" lon="6.1063">
        <ele>2276.7</ele>
        <time>2024-07-08T09:02:25Z</time>
      </trkpt>
      <trkpt lat="45.1409" lon="6.1063">
        <ele>2276.8</ele>
        <time>2024-07-08T09:02:26Z</time>
      </trkpt>
      <trkpt lat="45.14091" lon="6.1063">
        <ele>2276.9</ele>
        <time>2024-07-08T09:02:27Z</time>
      </trkpt>
      <trkpt lat="45.14091" lon="6.10631">
        <ele>2276.9</ele>
        <time>2024-07-08T09:02:28Z</time>
      </trkpt>
      <trkpt lat="45.14092" lon="6.10631">
        <ele>2277</ele>
        <time>2024-07-08T09:02:29Z</time>
      </trkpt>
      <trkpt lat="45.14092" lon="6.10632">
        <ele>2277.1</ele>
        <time>2024-07-08T09:02:30Z</time>
      </trkpt>
      <trkpt lat="45.14093" lon="6.10631">
        <ele>2277.2</ele>
        <time>2024-07-08T09:02:31Z</time>
      </trkpt>
      <trkpt lat="45.14094" lon="6.10631">
        <ele>2277.3</ele>
        <time>2024-07-08T09:02:32Z</time>
      </trkpt>
      <trkpt lat="45.14095" lon="6.10631">
        <ele>2277.4</ele>
        <time>2024-07-08T09:02:33Z</time>
      </trkpt>
      <trkpt lat="45.14096" lon="6.10632">
        <ele>2277.6</ele>
        <time>2024-07-08T09:02:34Z</time>
      </trkpt>
      <trkpt lat="45.14096" lon="6.10633">
        <ele>2277.8</ele>
        <time>2024-07-08T09:02:35Z</time>
      </trkpt>
      <trkpt lat="45.14097" lon="6.10633">
        <ele>2278</ele>
        <time>2024-07-08T09:02:36Z</time>
      </trkpt>
      <trkpt lat="45.14098" lon="6.10634">
        <ele>2278.1</ele>
        <time>2024-07-08T09:02:37Z</time>
      </trkpt>
      <trkpt lat="45.14098" lon="6.10634">
        <ele>2278.2</ele>
        <time>2024-07-08T09:02:38Z</time>
      </trkpt>
      <trkpt lat="45.14099" lon="6.10635">
        <ele>2278.4</ele>
        <time>2024-07-08T09:02:39Z</time>
      </trkpt>
      <trkpt lat="45.14099" lon="6.10637">
        <ele>2278.6</ele>
        <time>2024-07-08T09:02:40Z</time>
      </trkpt>
      <trkpt lat="45.141" lon="6.10638">
        <ele>2278.8</ele>
        <time>2024-07-08T09:02:41Z</time>
      </trkpt>
      <trkpt lat="45.141" lon="6.10638">
        <ele>2278.9</ele>
        <time>2024-07-08T09:02:42Z</time>
      </trkpt>
      <trkpt lat="45.141" lon="6.10639">
        <ele>2279</ele>
        <time>2024-07-08T09:02:43Z</time>
      </trkpt>
      <trkpt lat="45.14101" lon="6.1064">
        <ele>2279.2</ele>
        <time>2024-07-08T09:02:44Z</time>
      </trkpt>
      <trkpt lat="45.14102" lon="6.10642">
        <ele>2279.4</ele>
        <time>2024-07-08T09:02:45Z</time>
      </trkpt>
      <trkpt lat="45.14102" lon="6.10642">
        <ele>2279.5</ele>
        <time>2024-07-08T09:02:46Z</time>
      </trkpt>
      <trkpt lat="45.14103" lon="6.10643">
        <ele>2279.7</ele>
        <time>2024-07-08T09:02:47Z</time>
      </trkpt>
      <trkpt lat="45.14104" lon="6.10643">
        <ele>2279.8</ele>
        <time>2024-07-08T09:02:48Z</time>
      </trkpt>
      <trkpt lat="45.14105" lon="6.10644">
        <ele>2280</ele>
        <time>2024-07-08T09:02:49Z</time>
      </trkpt>
      <trkpt lat="45.14105" lon="6.10645">
        <ele>2280.1</ele>
        <time>2024-07-08T09:02:50Z</time>
      </trkpt>
      <trkpt lat="45.14106" lon="6.10646">
        <ele>2280.3</ele>
        <time>2024-07-08T09:02:51Z</time>
      </trkpt>
      <trkpt lat="45.14107" lon="6.10647">
        <ele>2280.4</ele>
        <time>2024-07-08T09:02:52Z</time>
      </trkpt>
      <trkpt lat="45.14107" lon="6.10648">
        <ele>2280.5</ele>
        <time>2024-07-08T09:02:53Z</time>
      </trkpt>
      <trkpt lat="45.14108" lon="6.10649">
        <ele>2280.7</ele>
        <time>2024-07-08T09:02:54Z</time>
      </trkpt>
      <trkpt lat="45.14109" lon="6.1065">
        <ele>2280.9</ele>
        <time>2024-07-08T09:02:55Z</time>
      </trkpt>
      <trkpt lat="45.1411" lon="6.1065">
        <ele>2281</ele>
        <time>2024-07-08T09:02:56Z</time>
      </trkpt>
      <trkpt lat="45.14111" lon="6.10651">
        <ele>2281.2</ele>
        <time>2024-07-08T09:02:57Z</time>
      </trkpt>
      <trkpt lat="45.14112" lon="6.10651">
        <ele>2281.3</ele>
        <time>2024-07-08T09:02:58Z</time>
      </trkpt>
      <trkpt lat="45.14114" lon="6.10653">
        <ele>2281.6</ele>
        <time>2024-07-08T09:02:59Z</time>
      </trkpt>
      <trkpt lat="45.14114" lon="6.10653">
        <ele>2281.7</ele>
        <time>2024-07-08T09:03:00Z</time>
      </trkpt>
      <trkpt lat="45.14115" lon="6.10654">
        <ele>2281.9</ele>
        <time>2024-07-08T09:03:01Z</time>
      </trkpt>
      <trkpt lat="45.14117" lon="6.10656">
        <ele>2282.1</ele>
        <time>2024-07-08T09:03:02Z</time>
      </trkpt>
      <trkpt lat="45.14117" lon="6.10657">
        <ele>2282.3</ele>
        <time>2024-07-08T09:03:03Z</time>
      </trkpt>
      <trkpt lat="45.14118" lon="6.10658">
        <ele>2282.4</ele>
        <time>2024-07-08T09:03:04Z</time>
      </trkpt>
      <trkpt lat="45.14119" lon="6.10658">
        <ele>2282.5</ele>
        <time>2024-07-08T09:03:05Z</time>
      </trkpt>
      <trkpt lat="45.14119" lon="6.10659">
        <ele>2282.6</ele>
        <time>2024-07-08T09:03:06Z</time>
      </trkpt>
      <trkpt lat="45.1412" lon="6.10661">
        <ele>2282.8</ele>
        <time>2024-07-08T09:03:07Z</time>
      </trkpt>
      <trkpt lat="45.1412" lon="6.10661">
        <ele>2282.8</ele>
        <time>2024-07-08T09:03:08Z</time>
      </trkpt>
      <trkpt lat="45.14121" lon="6.10662">
        <ele>2283</ele>
        <time>2024-07-08T09:03:09Z</time>
      </trkpt>
      <trkpt lat="45.14122" lon="6.10664">
        <ele>2283.2</ele>
        <time>2024-07-08T09:03:10Z</time>
      </trkpt>
      <trkpt lat="45.14122" lon="6.10665">
        <ele>2283.3</ele>
        <time>2024-07-08T09:03:11Z</time>
      </trkpt>
      <trkpt lat="45.14123" lon="6.10666">
        <ele>2283.4</ele>
        <time>2024-07-08T09:03:12Z</time>
      </trkpt>
      <trkpt lat="45.14124" lon="6.10666">
        <ele>2283.6</ele>
        <time>2024-07-08T09:03:13Z</time>
      </trkpt>
      <trkpt lat="45.14125" lon="6.10667">
        <ele>2283.7</ele>
        <time>2024-07-08T09:03:14Z</time>
      </trkpt>
      <trkpt lat="45.14126" lon="6.10668">
        <ele>2283.9</ele>
        <time>2024-07-08T09:03:15Z</time>
      </trkpt>
      <trkpt lat="45.14126" lon="6.10669">
        <ele>2283.9</ele>
        <time>2024-07-08T09:03:16Z</time>
      </trkpt>
      <trkpt lat="45.14126" lon="6.1067">
        <ele>2284.1</ele>
        <time>2024-07-08T09:03:17Z</time>
      </trkpt>
      <trkpt lat="45.14127" lon="6.10671">
        <ele>2284.1</ele>
        <time>2024-07-08T09:03:18Z</time>
      </trkpt>
      <trkpt lat="45.14127" lon="6.10672">
        <ele>2284.3</ele>
        <time>2024-07-08T09:03:19Z</time>
      </trkpt>
      <trkpt lat="45.14129" lon="6.10673">
        <ele>2284.5</ele>
        <time>2024-07-08T09:03:20Z</time>
      </trkpt>
      <trkpt lat="45.14129" lon="6.10672">
        <ele>2284.6</ele>
        <time>2024-07-08T09:03:21Z</time>
      </trkpt>
      <trkpt lat="45.1413" lon="6.10672">
        <ele>2284.6</ele>
        <time>2024-07-08T09:03:22Z</time>
      </trkpt>
      <trkpt lat="45.1413" lon="6.10672">
        <ele>2284.7</ele>
        <time>2024-07-08T09:03:23Z</time>
      </trkpt>
      <trkpt lat="45.1413" lon="6.10673">
        <ele>2284.7</ele>
        <time>2024-07-08T09:03:24Z</time>
      </trkpt>
      <trkpt lat="45.14131" lon="6.10674">
        <ele>2284.9</ele>
        <time>2024-07-08T09:03:25Z</time>
      </trkpt>
      <trkpt lat="45.14132" lon="6.10674">
        <ele>2284.9</ele>
        <time>2024-07-08T09:03:26Z</time>
      </trkpt>
      <trkpt lat="45.14132" lon="6.10674">
        <ele>2285</ele>
        <time>2024-07-08T09:03:27Z</time>
      </trkpt>
      <trkpt lat="45.14133" lon="6.10674">
        <ele>2285.1</ele>
        <time>2024-07-08T09:03:28Z</time>
      </trkpt>
      <trkpt lat="45.14133" lon="6.10675">
        <ele>2285.1</ele>
        <time>2024-07-08T09:03:29Z</time>
      </trkpt>
      <trkpt lat="45.14134" lon="6.10676">
        <ele>2285.2</ele>
        <time>2024-07-08T09:03:30Z</time>
      </trkpt>
      <trkpt lat="45.14135" lon="6.10676">
        <ele>2285.3</ele>
        <time>2024-07-08T09:03:31Z</time>
      </trkpt>
      <trkpt lat="45.14135" lon="6.10675">
        <ele>2285.3</ele>
        <time>2024-07-08T09:03:32Z</time>
      </trkpt>
      <trkpt lat="45.14135" lon="6.10675">
        <ele>2285.4</ele>
        <time>2024-07-08T09:03:33Z</time>
      </trkpt>
      <trkpt lat="45.14135" lon="6.10675">
        <ele>2285.4</ele>
        <time>2024-07-08T09:03:34Z</time>
      </trkpt>
      <trkpt lat="45.14135" lon="6.10675">
        <ele>2285.4</ele>
        <time>2024-07-08T09:03:35Z</time>
      </trkpt>
      <trkpt lat="45.14135" lon="6.10674">
        <ele>2285.5</ele>
        <time>2024-07-08T09:03:36Z</time>
      </trkpt>
      <trkpt lat="45.14135" lon="6.10674">
        <ele>2285.5</ele>
        <time>2024-07-08T09:03:37Z</time>
      </trkpt>
      <trkpt lat="45.14135" lon="6.10674">
        <ele>2285.5</ele>
        <time>2024-07-08T09:03:38Z</time>
      </trkpt>
      <trkpt lat="45.14135" lon="6.10673">
        <ele>2285.5</ele>
        <time>2024-07-08T09:03:39Z</time>
      </trkpt>
      <trkpt lat="45.14135" lon="6.10673">
        <ele>2285.5</ele>
        <time>2024-07-08T09:03:40Z</time>
      </trkpt>
      <trkpt lat="45.14134" lon="6.10673">
        <ele>2285.5</ele>
        <time>2024-07-08T09:03:41Z</time>
      </trkpt>
      <trkpt lat="45.14134" lon="6.10673">
        <ele>2285.6</ele>
        <time>2024-07-08T09:03:42Z</time>
      </trkpt>
      <trkpt lat="45.14134" lon="6.10673">
        <ele>2285.6</ele>
        <time>2024-07-08T09:03:43Z</time>
      </trkpt>
      <trkpt lat="45.14134" lon="6.10673">
        <ele>2285.6</ele>
        <time>2024-07-08T09:03:44Z</time>
      </trkpt>
      <trkpt lat="45.14134" lon="6.10673">
        <ele>2285.6</ele>
        <time>2024-07-08T09:03:45Z</time>
      </trkpt>
      <trkpt lat="45.14134" lon="6.10673">
        <ele>2285.6</ele>
        <time>2024-07-08T09:03:46Z</time>
      </trkpt>
      <trkpt lat="45.14135" lon="6.10673">
        <ele>2285.6</ele>
        <time>2024-07-08T09:03:47Z</time>
      </trkpt>
      <trkpt lat="45.14135" lon="6.10673">
        <ele>2285.7</ele>
        <time>2024-07-08T09:03:48Z</time>
      </trkpt>
      <trkpt lat="45.14137" lon="6.10675">
        <ele>2285.8</ele>
        <time>2024-07-08T09:03:49Z</time>
      </trkpt>
      <trkpt lat="45.14139" lon="6.10676">
        <ele>2286</ele>
        <time>2024-07-08T09:03:50Z</time>
      </trkpt>
      <trkpt lat="45.1414" lon="6.10676">
        <ele>2286</ele>
        <time>2024-07-08T09:03:51Z</time>
      </trkpt>
      <trkpt lat="45.1414" lon="6.10676">
        <ele>2286.1</ele>
        <time>2024-07-08T09:03:52Z</time>
      </trkpt>
      <trkpt lat="45.14142" lon="6.10676">
        <ele>2286.2</ele>
        <time>2024-07-08T09:03:53Z</time>
      </trkpt>
      <trkpt lat="45.14143" lon="6.10677">
        <ele>2286.3</ele>
        <time>2024-07-08T09:03:54Z</time>
      </trkpt>
      <trkpt lat="45.14145" lon="6.10679">
        <ele>2286.5</ele>
        <time>2024-07-08T09:03:56Z</time>
      </trkpt>
      <trkpt lat="45.14147" lon="6.10682">
        <ele>2286.7</ele>
        <time>2024-07-08T09:03:57Z</time>
      </trkpt>
      <trkpt lat="45.14147" lon="6.10682">
        <ele>2286.8</ele>
        <time>2024-07-08T09:03:58Z</time>
      </trkpt>
      <trkpt lat="45.14148" lon="6.10684">
        <ele>2286.9</ele>
        <time>2024-07-08T09:03:59Z</time>
      </trkpt>
      <trkpt lat="45.14149" lon="6.10685">
        <ele>2287</ele>
        <time>2024-07-08T09:04:00Z</time>
      </trkpt>
      <trkpt lat="45.1415" lon="6.10686">
        <ele>2287.1</ele>
        <time>2024-07-08T09:04:01Z</time>
      </trkpt>
      <trkpt lat="45.14151" lon="6.10687">
        <ele>2287.2</ele>
        <time>2024-07-08T09:04:02Z</time>
      </trkpt>
      <trkpt lat="45.14151" lon="6.10687">
        <ele>2287.3</ele>
        <time>2024-07-08T09:04:03Z</time>
      </trkpt>
      <trkpt lat="45.14152" lon="6.10688">
        <ele>2287.4</ele>
        <time>2024-07-08T09:04:04Z</time>
      </trkpt>
      <trkpt lat="45.14153" lon="6.10689">
        <ele>2287.6</ele>
        <time>2024-07-08T09:04:05Z</time>
      </trkpt>
      <trkpt lat="45.14154" lon="6.10689">
        <ele>2287.7</ele>
        <time>2024-07-08T09:04:06Z</time>
      </trkpt>
      <trkpt lat="45.14155" lon="6.10689">
        <ele>2287.8</ele>
        <time>2024-07-08T09:04:07Z</time>
      </trkpt>
      <trkpt lat="45.14156" lon="6.10689">
        <ele>2287.9</ele>
        <time>2024-07-08T09:04:08Z</time>
      </trkpt>
      <trkpt lat="45.14157" lon="6.1069">
        <ele>2288.1</ele>
        <time>2024-07-08T09:04:09Z</time>
      </trkpt>
      <trkpt lat="45.14158" lon="6.10691">
        <ele>2288.3</ele>
        <time>2024-07-08T09:04:10Z</time>
      </trkpt>
      <trkpt lat="45.14159" lon="6.10691">
        <ele>2288.3</ele>
        <time>2024-07-08T09:04:11Z</time>
      </trkpt>
      <trkpt lat="45.14159" lon="6.10692">
        <ele>2288.4</ele>
        <time>2024-07-08T09:04:12Z</time>
      </trkpt>
      <trkpt lat="45.1416" lon="6.10692">
        <ele>2288.5</ele>
        <time>2024-07-08T09:04:13Z</time>
      </trkpt>
      <trkpt lat="45.1416" lon="6.10693">
        <ele>2288.6</ele>
        <time>2024-07-08T09:04:14Z</time>
      </trkpt>
      <trkpt lat="45.1416" lon="6.10694">
        <ele>2288.7</ele>
        <time>2024-07-08T09:04:15Z</time>
      </trkpt>
      <trkpt lat="45.14161" lon="6.10695">
        <ele>2288.8</ele>
        <time>2024-07-08T09:04:16Z</time>
      </trkpt>
      <trkpt lat="45.14161" lon="6.10696">
        <ele>2288.9</ele>
        <time>2024-07-08T09:04:17Z</time>
      </trkpt>
      <trkpt lat="45.14161" lon="6.10696">
        <ele>2289</ele>
        <time>2024-07-08T09:04:18Z</time>
      </trkpt>
      <trkpt lat="45.14161" lon="6.10698">
        <ele>2289.1</ele>
        <time>2024-07-08T09:04:19Z</time>
      </trkpt>
      <trkpt lat="45.14161" lon="6.10698">
        <ele>2289.1</ele>
        <time>2024-07-08T09:04:20Z</time>
      </trkpt>
      <trkpt lat="45.14162" lon="6.10699">
        <ele>2289.2</ele>
        <time>2024-07-08T09:04:21Z</time>
      </trkpt>
      <trkpt lat="45.14162" lon="6.10699">
        <ele>2289.3</ele>
        <time>2024-07-08T09:04:22Z</time>
      </trkpt>
      <trkpt lat="45.14162" lon="6.107">
        <ele>2289.4</ele>
        <time>2024-07-08T09:04:23Z</time>
      </trkpt>
      <trkpt lat="45.14163" lon="6.10701">
        <ele>2289.5</ele>
        <time>2024-07-08T09:04:24Z</time>
      </trkpt>
      <trkpt lat="45.14163" lon="6.10702">
        <ele>2289.6</ele>
        <time>2024-07-08T09:04:25Z</time>
      </trkpt>
      <trkpt lat="45.14164" lon="6.10702">
        <ele>2289.6</ele>
        <time>2024-07-08T09:04:26Z</time>
      </trkpt>
      <trkpt lat="45.14164" lon="6.10702">
        <ele>2289.7</ele>
        <time>2024-07-08T09:04:27Z</time>
      </trkpt>
      <trkpt lat="45.14165" lon="6.10702">
        <ele>2289.8</ele>
        <time>2024-07-08T09:04:28Z</time>
      </trkpt>
      <trkpt lat="45.14166" lon="6.10702">
        <ele>2289.8</ele>
        <time>2024-07-08T09:04:29Z</time>
      </trkpt>
      <trkpt lat="45.14166" lon="6.10702">
        <ele>2289.8</ele>
        <time>2024-07-08T09:04:30Z</time>
      </trkpt>
      <trkpt lat="45.14166" lon="6.10702">
        <ele>2289.8</ele>
        <time>2024-07-08T09:04:31Z</time>
      </trkpt>
      <trkpt lat="45.14166" lon="6.10702">
        <ele>2289.9</ele>
        <time>2024-07-08T09:04:32Z</time>
      </trkpt>
      <trkpt lat="45.14166" lon="6.10702">
        <ele>2289.9</ele>
        <time>2024-07-08T09:04:33Z</time>
      </trkpt>
      <trkpt lat="45.14166" lon="6.10701">
        <ele>2289.9</ele>
        <time>2024-07-08T09:04:34Z</time>
      </trkpt>
      <trkpt lat="45.14166" lon="6.10701">
        <ele>2289.9</ele>
        <time>2024-07-08T09:04:35Z</time>
      </trkpt>
      <trkpt lat="45.14166" lon="6.10702">
        <ele>2289.9</ele>
        <time>2024-07-08T09:04:36Z</time>
      </trkpt>
      <trkpt lat="45.14166" lon="6.10702">
        <ele>2290</ele>
        <time>2024-07-08T09:04:37Z</time>
      </trkpt>
      <trkpt lat="45.14167" lon="6.10703">
        <ele>2290</ele>
        <time>2024-07-08T09:04:38Z</time>
      </trkpt>
      <trkpt lat="45.14167" lon="6.10703">
        <ele>2290</ele>
        <time>2024-07-08T09:04:39Z</time>
      </trkpt>
      <trkpt lat="45.14168" lon="6.10704">
        <ele>2290.1</ele>
        <time>2024-07-08T09:04:40Z</time>
      </trkpt>
      <trkpt lat="45.14168" lon="6.10704">
        <ele>2290.1</ele>
        <time>2024-07-08T09:04:41Z</time>
      </trkpt>
      <trkpt lat="45.14169" lon="6.10705">
        <ele>2290.2</ele>
        <time>2024-07-08T09:04:42Z</time>
      </trkpt>
      <trkpt lat="45.14169" lon="6.10705">
        <ele>2290.2</ele>
        <time>2024-07-08T09:04:43Z</time>
      </trkpt>
      <trkpt lat="45.1417" lon="6.10706">
        <ele>2290.3</ele>
        <time>2024-07-08T09:04:44Z</time>
      </trkpt>
      <trkpt lat="45.14171" lon="6.10706">
        <ele>2290.3</ele>
        <time>2024-07-08T09:04:45Z</time>
      </trkpt>
      <trkpt lat="45.14172" lon="6.10706">
        <ele>2290.4</ele>
        <time>2024-07-08T09:04:46Z</time>
      </trkpt>
      <trkpt lat="45.14173" lon="6.10706">
        <ele>2290.4</ele>
        <time>2024-07-08T09:04:47Z</time>
      </trkpt>
      <trkpt lat="45.14173" lon="6.10705">
        <ele>2290.5</ele>
        <time>2024-07-08T09:04:48Z</time>
      </trkpt>
      <trkpt lat="45.14174" lon="6.10705">
        <ele>2290.6</ele>
        <time>2024-07-08T09:04:49Z</time>
      </trkpt>
      <trkpt lat="45.14174" lon="6.10705">
        <ele>2290.6</ele>
        <time>2024-07-08T09:04:50Z</time>
      </trkpt>
      <trkpt lat="45.14175" lon="6.10704">
        <ele>2290.6</ele>
        <time>2024-07-08T09:04:51Z</time>
      </trkpt>
      <trkpt lat="45.14175" lon="6.10704">
        <ele>2290.7</ele>
        <time>2024-07-08T09:04:52Z</time>
      </trkpt>
      <trkpt lat="45.14176" lon="6.10703">
        <ele>2290.7</ele>
        <time>2024-07-08T09:04:53Z</time>
      </trkpt>
      <trkpt lat="45.14176" lon="6.10703">
        <ele>2290.7</ele>
        <time>2024-07-08T09:04:54Z</time>
      </trkpt>
      <trkpt lat="45.14176" lon="6.10703">
        <ele>2290.7</ele>
        <time>2024-07-08T09:04:55Z</time>
      </trkpt>
      <trkpt lat="45.14176" lon="6.10703">
        <ele>2290.7</ele>
        <time>2024-07-08T09:04:56Z</time>
      </trkpt>
      <trkpt lat="45.14176" lon="6.10703">
        <ele>2290.7</ele>
        <time>2024-07-08T09:04:57Z</time>
      </trkpt>
      <trkpt lat="45.14175" lon="6.10703">
        <ele>2290.8</ele>
        <time>2024-07-08T09:04:58Z</time>
      </trkpt>
      <trkpt lat="45.14175" lon="6.10703">
        <ele>2290.8</ele>
        <time>2024-07-08T09:04:59Z</time>
      </trkpt>
      <trkpt lat="45.14175" lon="6.10703">
        <ele>2290.8</ele>
        <time>2024-07-08T09:05:00Z</time>
      </trkpt>
      <trkpt lat="45.14175" lon="6.10703">
        <ele>2290.8</ele>
        <time>2024-07-08T09:05:01Z</time>
      </trkpt>
      <trkpt lat="45.14175" lon="6.10703">
        <ele>2290.8</ele>
        <time>2024-07-08T09:05:02Z</time>
      </trkpt>
      <trkpt lat="45.14176" lon="6.10703">
        <ele>2290.8</ele>
        <time>2024-07-08T09:05:03Z</time>
      </trkpt>
      <trkpt lat="45.14176" lon="6.10703">
        <ele>2290.8</ele>
        <time>2024-07-08T09:05:04Z</time>
      </trkpt>
      <trkpt lat="45.14176" lon="6.10703">
        <ele>2290.8</ele>
        <time>2024-07-08T09:05:05Z</time>
      </trkpt>
      <trkpt lat="45.14177" lon="6.10702">
        <ele>2290.9</ele>
        <time>2024-07-08T09:05:06Z</time>
      </trkpt>
      <trkpt lat="45.14177" lon="6.10702">
        <ele>2290.9</ele>
        <time>2024-07-08T09:05:07Z</time>
      </trkpt>
      <trkpt lat="45.14178" lon="6.10703">
        <ele>2291</ele>
        <time>2024-07-08T09:05:08Z</time>
      </trkpt>
      <trkpt lat="45.14178" lon="6.10702">
        <ele>2291</ele>
        <time>2024-07-08T09:05:09Z</time>
      </trkpt>
      <trkpt lat="45.14178" lon="6.10702">
        <ele>2291</ele>
        <time>2024-07-08T09:05:10Z</time>
      </trkpt>
      <trkpt lat="45.14177" lon="6.10702">
        <ele>2291</ele>
        <time>2024-07-08T09:05:11Z</time>
      </trkpt>
      <trkpt lat="45.14177" lon="6.10702">
        <ele>2291</ele>
        <time>2024-07-08T09:05:12Z</time>
      </trkpt>
      <trkpt lat="45.14177" lon="6.10702">
        <ele>2291</ele>
        <time>2024-07-08T09:05:13Z</time>
      </trkpt>
      <trkpt lat="45.14177" lon="6.10702">
        <ele>2291</ele>
        <time>2024-07-08T09:05:14Z</time>
      </trkpt>
      <trkpt lat="45.14177" lon="6.10702">
        <ele>2291</ele>
        <time>2024-07-08T09:05:15Z</time>
      </trkpt>
      <trkpt lat="45.14177" lon="6.10701">
        <ele>2291.1</ele>
        <time>2024-07-08T09:05:16Z</time>
      </trkpt>
      <trkpt lat="45.14177" lon="6.10701">
        <ele>2291.1</ele>
        <time>2024-07-08T09:05:17Z</time>
      </trkpt>
      <trkpt lat="45.14177" lon="6.10701">
        <ele>2291.1</ele>
        <time>2024-07-08T09:05:18Z</time>
      </trkpt>
      <trkpt lat="45.14177" lon="6.10701">
        <ele>2291.1</ele>
        <time>2024-07-08T09:05:19Z</time>
      </trkpt>
      <trkpt lat="45.14177" lon="6.10701">
        <ele>2291.1</ele>
        <time>2024-07-08T09:05:20Z</time>
      </trkpt>
      <trkpt lat="45.14177" lon="6.10701">
        <ele>2291.1</ele>
        <time>2024-07-08T09:05:21Z</time>
      </trkpt>
      <trkpt lat="45.14177" lon="6.10701">
        <ele>2291.1</ele>
        <time>2024-07-08T09:05:22Z</time>
      </trkpt>
      <trkpt lat="45.14177" lon="6.10701">
        <ele>2291.1</ele>
        <time>2024-07-08T09:05:23Z</time>
      </trkpt>
      <trkpt lat="45.14177" lon="6.10701">
        <ele>2291.1</ele>
        <time>2024-07-08T09:05:24Z</time>
      </trkpt>
      <trkpt lat="45.14178" lon="6.10701">
        <ele>2291.1</ele>
        <time>2024-07-08T09:05:25Z</time>
      </trkpt>
      <trkpt lat="45.14178" lon="6.10701">
        <ele>2291.1</ele>
        <time>2024-07-08T09:05:26Z</time>
      </trkpt>
      <trkpt lat="45.14178" lon="6.107">
        <ele>2291.2</ele>
        <time>2024-07-08T09:05:27Z</time>
      </trkpt>
      <trkpt lat="45.14179" lon="6.10699">
        <ele>2291.3</ele>
        <time>2024-07-08T09:05:28Z</time>
      </trkpt>
      <trkpt lat="45.14179" lon="6.10698">
        <ele>2291.3</ele>
        <time>2024-07-08T09:05:29Z</time>
      </trkpt>
      <trkpt lat="45.14179" lon="6.10698">
        <ele>2291.3</ele>
        <time>2024-07-08T09:05:30Z</time>
      </trkpt>
      <trkpt lat="45.14178" lon="6.10697">
        <ele>2291.4</ele>
        <time>2024-07-08T09:05:31Z</time>
      </trkpt>
      <trkpt lat="45.14178" lon="6.10697">
        <ele>2291.4</ele>
        <time>2024-07-08T09:05:32Z</time>
      </trkpt>
      <trkpt lat="45.14178" lon="6.10697">
        <ele>2291.4</ele>
        <time>2024-07-08T09:05:33Z</time>
      </trkpt>
      <trkpt lat="45.14193" lon="6.10713">
        <ele>2293.3</ele>
        <time>2024-07-08T09:05:35Z</time>
      </trkpt>
      <trkpt lat="45.14209" lon="6.1073">
        <ele>2297.3</ele>
        <time>2024-07-08T09:51:24Z</time>
      </trkpt>
      <trkpt lat="45.14225" lon="6.10747">
        <ele>2303.5</ele>
        <time>2024-07-08T09:51:25Z</time>
      </trkpt>
      <trkpt lat="45.14224" lon="6.10748">
        <ele>2303.7</ele>
        <time>2024-07-08T09:51:26Z</time>
      </trkpt>
      <trkpt lat="45.14224" lon="6.10748">
        <ele>2303.8</ele>
        <time>2024-07-08T09:51:27Z</time>
      </trkpt>
      <trkpt lat="45.14224" lon="6.10749">
        <ele>2303.9</ele>
        <time>2024-07-08T09:51:28Z</time>
      </trkpt>
      <trkpt lat="45.14224" lon="6.10749">
        <ele>2304.1</ele>
        <time>2024-07-08T09:51:29Z</time>
      </trkpt>
      <trkpt lat="45.14224" lon="6.1075">
        <ele>2304.2</ele>
        <time>2024-07-08T09:51:30Z</time>
      </trkpt>
      <trkpt lat="45.14224" lon="6.1075">
        <ele>2304.3</ele>
        <time>2024-07-08T09:51:31Z</time>
      </trkpt>
      <trkpt lat="45.14225" lon="6.10751">
        <ele>2304.4</ele>
        <time>2024-07-08T09:51:32Z</time>
      </trkpt>
      <trkpt lat="45.14225" lon="6.10751">
        <ele>2304.5</ele>
        <time>2024-07-08T09:51:33Z</time>
      </trkpt>
      <trkpt lat="45.14225" lon="6.10752">
        <ele>2304.6</ele>
        <time>2024-07-08T09:51:34Z</time>
      </trkpt>
      <trkpt lat="45.14225" lon="6.10752">
        <ele>2304.8</ele>
        <time>2024-07-08T09:51:35Z</time>
      </trkpt>
      <trkpt lat="45.14225" lon="6.10752">
        <ele>2304.9</ele>
        <time>2024-07-08T09:51:36Z</time>
      </trkpt>
      <trkpt lat="45.14225" lon="6.10753">
        <ele>2305</ele>
        <time>2024-07-08T09:51:37Z</time>
      </trkpt>
      <trkpt lat="45.14224" lon="6.10754">
        <ele>2305.3</ele>
        <time>2024-07-08T09:51:38Z</time>
      </trkpt>
      <trkpt lat="45.14224" lon="6.10755">
        <ele>2305.5</ele>
        <time>2024-07-08T09:51:39Z</time>
      </trkpt>
      <trkpt lat="45.14225" lon="6.10756">
        <ele>2305.9</ele>
        <time>2024-07-08T09:51:40Z</time>
      </trkpt>
      <trkpt lat="45.14224" lon="6.10758">
        <ele>2306.3</ele>
        <time>2024-07-08T09:51:41Z</time>
      </trkpt>
      <trkpt lat="45.14225" lon="6.10758">
        <ele>2306.4</ele>
        <time>2024-07-08T09:51:42Z</time>
      </trkpt>
      <trkpt lat="45.14225" lon="6.10759">
        <ele>2306.6</ele>
        <time>2024-07-08T09:51:43Z</time>
      </trkpt>
      <trkpt lat="45.14226" lon="6.1076">
        <ele>2307.1</ele>
        <time>2024-07-08T09:51:44Z</time>
      </trkpt>
      <trkpt lat="45.14226" lon="6.10761">
        <ele>2307.4</ele>
        <time>2024-07-08T09:51:45Z</time>
      </trkpt>
      <trkpt lat="45.14227" lon="6.10762">
        <ele>2307.8</ele>
        <time>2024-07-08T09:51:46Z</time>
      </trkpt>
      <trkpt lat="45.14228" lon="6.10763">
        <ele>2308.2</ele>
        <time>2024-07-08T09:51:47Z</time>
      </trkpt>
      <trkpt lat="45.14229" lon="6.10764">
        <ele>2308.6</ele>
        <time>2024-07-08T09:51:48Z</time>
      </trkpt>
      <trkpt lat="45.1423" lon="6.10765">
        <ele>2309</ele>
        <time>2024-07-08T09:51:49Z</time>
      </trkpt>
      <trkpt lat="45.1423" lon="6.10766">
        <ele>2309.3</ele>
        <time>2024-07-08T09:51:50Z</time>
      </trkpt>
      <trkpt lat="45.1423" lon="6.10767">
        <ele>2309.6</ele>
        <time>2024-07-08T09:51:51Z</time>
      </trkpt>
      <trkpt lat="45.14231" lon="6.10768">
        <ele>2309.9</ele>
        <time>2024-07-08T09:51:52Z</time>
      </trkpt>
      <trkpt lat="45.14231" lon="6.10769">
        <ele>2310.3</ele>
        <time>2024-07-08T09:51:53Z</time>
      </trkpt>
      <trkpt lat="45.14232" lon="6.1077">
        <ele>2310.6</ele>
        <time>2024-07-08T09:51:54Z</time>
      </trkpt>
      <trkpt lat="45.14232" lon="6.1077">
        <ele>2310.8</ele>
        <time>2024-07-08T09:51:55Z</time>
      </trkpt>
      <trkpt lat="45.14233" lon="6.10772">
        <ele>2311.1</ele>
        <time>2024-07-08T09:51:56Z</time>
      </trkpt>
      <trkpt lat="45.14232" lon="6.10773">
        <ele>2311.5</ele>
        <time>2024-07-08T09:51:57Z</time>
      </trkpt>
      <trkpt lat="45.14232" lon="6.10773">
        <ele>2311.7</ele>
        <time>2024-07-08T09:51:58Z</time>
      </trkpt>
      <trkpt lat="45.14231" lon="6.10775">
        <ele>2312.1</ele>
        <time>2024-07-08T09:51:59Z</time>
      </trkpt>
      <trkpt lat="45.14232" lon="6.10775">
        <ele>2312.2</ele>
        <time>2024-07-08T09:52:00Z</time>
      </trkpt>
      <trkpt lat="45.14232" lon="6.10776">
        <ele>2312.5</ele>
        <time>2024-07-08T09:52:01Z</time>
      </trkpt>
      <trkpt lat="45.14232" lon="6.10777">
        <ele>2312.7</ele>
        <time>2024-07-08T09:52:02Z</time>
      </trkpt>
      <trkpt lat="45.14232" lon="6.10777">
        <ele>2312.8</ele>
        <time>2024-07-08T09:52:03Z</time>
      </trkpt>
      <trkpt lat="45.14233" lon="6.10778">
        <ele>2313.1</ele>
        <time>2024-07-08T09:52:04Z</time>
      </trkpt>
      <trkpt lat="45.14232" lon="6.10778">
        <ele>2313.3</ele>
        <time>2024-07-08T09:52:05Z</time>
      </trkpt>
      <trkpt lat="45.14232" lon="6.10778">
        <ele>2313.4</ele>
        <time>2024-07-08T09:52:06Z</time>
      </trkpt>
      <trkpt lat="45.14232" lon="6.10778">
        <ele>2313.5</ele>
        <time>2024-07-08T09:52:07Z</time>
      </trkpt>
      <trkpt lat="45.14233" lon="6.10779">
        <ele>2313.7</ele>
        <time>2024-07-08T09:52:08Z</time>
      </trkpt>
      <trkpt lat="45.14234" lon="6.10779">
        <ele>2314.2</ele>
        <time>2024-07-08T09:52:09Z</time>
      </trkpt>
      <trkpt lat="45.14234" lon="6.10779">
        <ele>2314.3</ele>
        <time>2024-07-08T09:52:10Z</time>
      </trkpt>
      <trkpt lat="45.14235" lon="6.1078">
        <ele>2314.6</ele>
        <time>2024-07-08T09:52:11Z</time>
      </trkpt>
      <trkpt lat="45.14235" lon="6.1078">
        <ele>2314.7</ele>
        <time>2024-07-08T09:52:12Z</time>
      </trkpt>
      <trkpt lat="45.14235" lon="6.10781">
        <ele>2314.8</ele>
        <time>2024-07-08T09:52:13Z</time>
      </trkpt>
      <trkpt lat="45.14235" lon="6.10782">
        <ele>2315.1</ele>
        <time>2024-07-08T09:52:14Z</time>
      </trkpt>
      <trkpt lat="45.14235" lon="6.10782">
        <ele>2315.3</ele>
        <time>2024-07-08T09:52:15Z</time>
      </trkpt>
      <trkpt lat="45.14236" lon="6.10783">
        <ele>2315.6</ele>
        <time>2024-07-08T09:52:16Z</time>
      </trkpt>
      <trkpt lat="45.14237" lon="6.10783">
        <ele>2315.9</ele>
        <time>2024-07-08T09:52:17Z</time>
      </trkpt>
      <trkpt lat="45.14237" lon="6.10783">
        <ele>2316.2</ele>
        <time>2024-07-08T09:52:18Z</time>
      </trkpt>
      <trkpt lat="45.14238" lon="6.10783">
        <ele>2316.5</ele>
        <time>2024-07-08T09:52:19Z</time>
      </trkpt>
      <trkpt lat="45.14239" lon="6.10783">
        <ele>2316.8</ele>
        <time>2024-07-08T09:52:20Z</time>
      </trkpt>
      <trkpt lat="45.14239" lon="6.10782">
        <ele>2317.1</ele>
        <time>2024-07-08T09:52:21Z</time>
      </trkpt>
      <trkpt lat="45.1424" lon="6.10782">
        <ele>2317.3</ele>
        <time>2024-07-08T09:52:22Z</time>
      </trkpt>
      <trkpt lat="45.1424" lon="6.10782">
        <ele>2317.5</ele>
        <time>2024-07-08T09:52:23Z</time>
      </trkpt>
      <trkpt lat="45.14241" lon="6.10782">
        <ele>2317.8</ele>
        <time>2024-07-08T09:52:24Z</time>
      </trkpt>
      <trkpt lat="45.14241" lon="6.10781">
        <ele>2318</ele>
        <time>2024-07-08T09:52:25Z</time>
      </trkpt>
      <trkpt lat="45.14242" lon="6.10781">
        <ele>2318.3</ele>
        <time>2024-07-08T09:52:26Z</time>
      </trkpt>
      <trkpt lat="45.14243" lon="6.10781">
        <ele>2318.7</ele>
        <time>2024-07-08T09:52:27Z</time>
      </trkpt>
      <trkpt lat="45.14244" lon="6.10781">
        <ele>2318.9</ele>
        <time>2024-07-08T09:52:28Z</time>
      </trkpt>
      <trkpt lat="45.14244" lon="6.10781">
        <ele>2319.2</ele>
        <time>2024-07-08T09:52:29Z</time>
      </trkpt>
      <trkpt lat="45.14245" lon="6.10781">
        <ele>2319.4</ele>
        <time>2024-07-08T09:52:30Z</time>
      </trkpt>
      <trkpt lat="45.14245" lon="6.10781">
        <ele>2319.7</ele>
        <time>2024-07-08T09:52:31Z</time>
      </trkpt>
      <trkpt lat="45.14246" lon="6.10781">
        <ele>2320</ele>
        <time>2024-07-08T09:52:32Z</time>
      </trkpt>
      <trkpt lat="45.14247" lon="6.1078">
        <ele>2320.3</ele>
        <time>2024-07-08T09:52:33Z</time>
      </trkpt>
      <trkpt lat="45.14247" lon="6.1078">
        <ele>2320.5</ele>
        <time>2024-07-08T09:52:34Z</time>
      </trkpt>
      <trkpt lat="45.14249" lon="6.1078">
        <ele>2321</ele>
        <time>2024-07-08T09:52:35Z</time>
      </trkpt>
      <trkpt lat="45.14249" lon="6.10779">
        <ele>2321.1</ele>
        <time>2024-07-08T09:52:36Z</time>
      </trkpt>
      <trkpt lat="45.14249" lon="6.10779">
        <ele>2321.4</ele>
        <time>2024-07-08T09:52:37Z</time>
      </trkpt>
      <trkpt lat="45.1425" lon="6.1078">
        <ele>2321.6</ele>
        <time>2024-07-08T09:52:38Z</time>
      </trkpt>
      <trkpt lat="45.1425" lon="6.1078">
        <ele>2321.8</ele>
        <time>2024-07-08T09:52:39Z</time>
      </trkpt>
      <trkpt lat="45.14251" lon="6.1078">
        <ele>2322</ele>
        <time>2024-07-08T09:52:40Z</time>
      </trkpt>
      <trkpt lat="45.14251" lon="6.1078">
        <ele>2322.2</ele>
        <time>2024-07-08T09:52:41Z</time>
      </trkpt>
      <trkpt lat="45.14252" lon="6.10781">
        <ele>2322.5</ele>
        <time>2024-07-08T09:52:42Z</time>
      </trkpt>
      <trkpt lat="45.14252" lon="6.10781">
        <ele>2322.7</ele>
        <time>2024-07-08T09:52:43Z</time>
      </trkpt>
      <trkpt lat="45.14253" lon="6.10781">
        <ele>2322.9</ele>
        <time>2024-07-08T09:52:44Z</time>
      </trkpt>
      <trkpt lat="45.14254" lon="6.10782">
        <ele>2323.2</ele>
        <time>2024-07-08T09:52:45Z</time>
      </trkpt>
      <trkpt lat="45.14254" lon="6.10781">
        <ele>2323.4</ele>
        <time>2024-07-08T09:52:46Z</time>
      </trkpt>
      <trkpt lat="45.14255" lon="6.10782">
        <ele>2323.6</ele>
        <time>2024-07-08T09:52:47Z</time>
      </trkpt>
      <trkpt lat="45.14256" lon="6.10782">
        <ele>2323.9</ele>
        <time>2024-07-08T09:52:48Z</time>
      </trkpt>
      <trkpt lat="45.14256" lon="6.10782">
        <ele>2324.1</ele>
        <time>2024-07-08T09:52:49Z</time>
      </trkpt>
      <trkpt lat="45.14257" lon="6.10783">
        <ele>2324.4</ele>
        <time>2024-07-08T09:52:50Z</time>
      </trkpt>
      <trkpt lat="45.14258" lon="6.10783">
        <ele>2324.6</ele>
        <time>2024-07-08T09:52:51Z</time>
      </trkpt>
      <trkpt lat="45.14258" lon="6.10783">
        <ele>2324.8</ele>
        <time>2024-07-08T09:52:52Z</time>
      </trkpt>
      <trkpt lat="45.14259" lon="6.10783">
        <ele>2325.1</ele>
        <time>2024-07-08T09:52:53Z</time>
      </trkpt>
      <trkpt lat="45.14259" lon="6.10783">
        <ele>2325.2</ele>
        <time>2024-07-08T09:52:54Z</time>
      </trkpt>
      <trkpt lat="45.1426" lon="6.10783">
        <ele>2325.5</ele>
        <time>2024-07-08T09:52:55Z</time>
      </trkpt>
      <trkpt lat="45.1426" lon="6.10783">
        <ele>2325.6</ele>
        <time>2024-07-08T09:52:56Z</time>
      </trkpt>
      <trkpt lat="45.14261" lon="6.10784">
        <ele>2325.7</ele>
        <time>2024-07-08T09:52:57Z</time>
      </trkpt>
      <trkpt lat="45.14262" lon="6.10785">
        <ele>2326.3</ele>
        <time>2024-07-08T09:52:59Z</time>
      </trkpt>
      <trkpt lat="45.14263" lon="6.10785">
        <ele>2326.6</ele>
        <time>2024-07-08T09:53:00Z</time>
      </trkpt>
      <trkpt lat="45.14263" lon="6.10786">
        <ele>2326.8</ele>
        <time>2024-07-08T09:53:01Z</time>
      </trkpt>
      <trkpt lat="45.14263" lon="6.10787">
        <ele>2327</ele>
        <time>2024-07-08T09:53:02Z</time>
      </trkpt>
      <trkpt lat="45.14264" lon="6.10788">
        <ele>2327.2</ele>
        <time>2024-07-08T09:53:03Z</time>
      </trkpt>
      <trkpt lat="45.14264" lon="6.10789">
        <ele>2327.4</ele>
        <time>2024-07-08T09:53:04Z</time>
      </trkpt>
      <trkpt lat="45.14264" lon="6.1079">
        <ele>2327.6</ele>
        <time>2024-07-08T09:53:05Z</time>
      </trkpt>
      <trkpt lat="45.14264" lon="6.1079">
        <ele>2327.8</ele>
        <time>2024-07-08T09:53:06Z</time>
      </trkpt>
      <trkpt lat="45.14264" lon="6.1079">
        <ele>2327.9</ele>
        <time>2024-07-08T09:53:07Z</time>
      </trkpt>
      <trkpt lat="45.14263" lon="6.10791">
        <ele>2328</ele>
        <time>2024-07-08T09:53:08Z</time>
      </trkpt>
      <trkpt lat="45.14263" lon="6.10791">
        <ele>2328.2</ele>
        <time>2024-07-08T09:53:09Z</time>
      </trkpt>
      <trkpt lat="45.14262" lon="6.10791">
        <ele>2328.3</ele>
        <time>2024-07-08T09:53:10Z</time>
      </trkpt>
      <trkpt lat="45.14262" lon="6.10792">
        <ele>2328.4</ele>
        <time>2024-07-08T09:53:11Z</time>
      </trkpt>
      <trkpt lat="45.14262" lon="6.10791">
        <ele>2328.6</ele>
        <time>2024-07-08T09:53:12Z</time>
      </trkpt>
      <trkpt lat="45.14261" lon="6.10792">
        <ele>2328.7</ele>
        <time>2024-07-08T09:53:13Z</time>
      </trkpt>
      <trkpt lat="45.14261" lon="6.10792">
        <ele>2328.9</ele>
        <time>2024-07-08T09:53:14Z</time>
      </trkpt>
      <trkpt lat="45.1426" lon="6.10791">
        <ele>2329.1</ele>
        <time>2024-07-08T09:53:15Z</time>
      </trkpt>
      <trkpt lat="45.14259" lon="6.10791">
        <ele>2329.3</ele>
        <time>2024-07-08T09:53:16Z</time>
      </trkpt>
      <trkpt lat="45.14259" lon="6.10792">
        <ele>2329.5</ele>
        <time>2024-07-08T09:53:17Z</time>
      </trkpt>
      <trkpt lat="45.14259" lon="6.10793">
        <ele>2329.7</ele>
        <time>2024-07-08T09:53:18Z</time>
      </trkpt>
      <trkpt lat="45.14259" lon="6.10793">
        <ele>2329.8</ele>
        <time>2024-07-08T09:53:19Z</time>
      </trkpt>
      <trkpt lat="45.14259" lon="6.10794">
        <ele>2330</ele>
        <time>2024-07-08T09:53:20Z</time>
      </trkpt>
      <trkpt lat="45.14259" lon="6.10795">
        <ele>2330.1</ele>
        <time>2024-07-08T09:53:21Z</time>
      </trkpt>
      <trkpt lat="45.1426" lon="6.10795">
        <ele>2330.3</ele>
        <time>2024-07-08T09:53:22Z</time>
      </trkpt>
      <trkpt lat="45.1426" lon="6.10796">
        <ele>2330.5</ele>
        <time>2024-07-08T09:53:23Z</time>
      </trkpt>
      <trkpt lat="45.14261" lon="6.10797">
        <ele>2330.7</ele>
        <time>2024-07-08T09:53:24Z</time>
      </trkpt>
      <trkpt lat="45.14262" lon="6.10797">
        <ele>2330.9</ele>
        <time>2024-07-08T09:53:25Z</time>
      </trkpt>
      <trkpt lat="45.14262" lon="6.10797">
        <ele>2331</ele>
        <time>2024-07-08T09:53:26Z</time>
      </trkpt>
      <trkpt lat="45.14263" lon="6.10797">
        <ele>2331.1</ele>
        <time>2024-07-08T09:53:27Z</time>
      </trkpt>
      <trkpt lat="45.14263" lon="6.10798">
        <ele>2331.3</ele>
        <time>2024-07-08T09:53:28Z</time>
      </trkpt>
      <trkpt lat="45.14264" lon="6.10798">
        <ele>2331.4</ele>
        <time>2024-07-08T09:53:29Z</time>
      </trkpt>
      <trkpt lat="45.14264" lon="6.10798">
        <ele>2331.6</ele>
        <time>2024-07-08T09:53:30Z</time>
      </trkpt>
      <trkpt lat="45.14264" lon="6.10799">
        <ele>2331.7</ele>
        <time>2024-07-08T09:53:31Z</time>
      </trkpt>
      <trkpt lat="45.14265" lon="6.108">
        <ele>2331.8</ele>
        <time>2024-07-08T09:53:32Z</time>
      </trkpt>
      <trkpt lat="45.14265" lon="6.108">
        <ele>2331.9</ele>
        <time>2024-07-08T09:53:33Z</time>
      </trkpt>
      <trkpt lat="45.14265" lon="6.10801">
        <ele>2332</ele>
        <time>2024-07-08T09:53:34Z</time>
      </trkpt>
      <trkpt lat="45.14265" lon="6.10801">
        <ele>2332.2</ele>
        <time>2024-07-08T09:53:35Z</time>
      </trkpt>
      <trkpt lat="45.14264" lon="6.10801">
        <ele>2332.3</ele>
        <time>2024-07-08T09:53:36Z</time>
      </trkpt>
      <trkpt lat="45.14264" lon="6.10802">
        <ele>2332.5</ele>
        <time>2024-07-08T09:53:37Z</time>
      </trkpt>
      <trkpt lat="45.14263" lon="6.10802">
        <ele>2332.6</ele>
        <time>2024-07-08T09:53:38Z</time>
      </trkpt>
      <trkpt lat="45.14263" lon="6.10802">
        <ele>2332.7</ele>
        <time>2024-07-08T09:53:39Z</time>
      </trkpt>
      <trkpt lat="45.14262" lon="6.10802">
        <ele>2332.8</ele>
        <time>2024-07-08T09:53:40Z</time>
      </trkpt>
      <trkpt lat="45.14262" lon="6.10802">
        <ele>2332.9</ele>
        <time>2024-07-08T09:53:41Z</time>
      </trkpt>
      <trkpt lat="45.14262" lon="6.10802">
        <ele>2332.9</ele>
        <time>2024-07-08T09:53:42Z</time>
      </trkpt>
      <trkpt lat="45.14262" lon="6.10802">
        <ele>2332.9</ele>
        <time>2024-07-08T09:53:43Z</time>
      </trkpt>
      <trkpt lat="45.14261" lon="6.10802">
        <ele>2333.1</ele>
        <time>2024-07-08T09:53:44Z</time>
      </trkpt>
      <trkpt lat="45.14261" lon="6.10802">
        <ele>2333.2</ele>
        <time>2024-07-08T09:53:45Z</time>
      </trkpt>
      <trkpt lat="45.1426" lon="6.10802">
        <ele>2333.3</ele>
        <time>2024-07-08T09:53:46Z</time>
      </trkpt>
      <trkpt lat="45.1426" lon="6.10802">
        <ele>2333.3</ele>
        <time>2024-07-08T09:53:47Z</time>
      </trkpt>
      <trkpt lat="45.1426" lon="6.10802">
        <ele>2333.3</ele>
        <time>2024-07-08T09:53:48Z</time>
      </trkpt>
      <trkpt lat="45.1426" lon="6.10802">
        <ele>2333.4</ele>
        <time>2024-07-08T09:53:49Z</time>
      </trkpt>
      <trkpt lat="45.1426" lon="6.10802">
        <ele>2333.4</ele>
        <time>2024-07-08T09:53:50Z</time>
      </trkpt>
      <trkpt lat="45.1426" lon="6.10802">
        <ele>2333.5</ele>
        <time>2024-07-08T09:53:51Z</time>
      </trkpt>
      <trkpt lat="45.1426" lon="6.10802">
        <ele>2333.5</ele>
        <time>2024-07-08T09:53:52Z</time>
      </trkpt>
      <trkpt lat="45.1426" lon="6.10803">
        <ele>2333.6</ele>
        <time>2024-07-08T09:53:53Z</time>
      </trkpt>
      <trkpt lat="45.1426" lon="6.10803">
        <ele>2333.6</ele>
        <time>2024-07-08T09:53:54Z</time>
      </trkpt>
      <trkpt lat="45.14259" lon="6.10803">
        <ele>2333.7</ele>
        <time>2024-07-08T09:53:55Z</time>
      </trkpt>
      <trkpt lat="45.1426" lon="6.10803">
        <ele>2333.7</ele>
        <time>2024-07-08T09:53:56Z</time>
      </trkpt>
      <trkpt lat="45.1426" lon="6.10804">
        <ele>2333.8</ele>
        <time>2024-07-08T09:53:57Z</time>
      </trkpt>
      <trkpt lat="45.1426" lon="6.10804">
        <ele>2333.9</ele>
        <time>2024-07-08T09:53:58Z</time>
      </trkpt>
      <trkpt lat="45.1426" lon="6.10804">
        <ele>2333.9</ele>
        <time>2024-07-08T09:53:59Z</time>
      </trkpt>
      <trkpt lat="45.1426" lon="6.10805">
        <ele>2334.1</ele>
        <time>2024-07-08T09:54:00Z</time>
      </trkpt>
      <trkpt lat="45.14261" lon="6.10806">
        <ele>2334.2</ele>
        <time>2024-07-08T09:54:01Z</time>
      </trkpt>
      <trkpt lat="45.14261" lon="6.10806">
        <ele>2334.3</ele>
        <time>2024-07-08T09:54:02Z</time>
      </trkpt>
      <trkpt lat="45.14262" lon="6.10808">
        <ele>2334.6</ele>
        <time>2024-07-08T09:54:03Z</time>
      </trkpt>
      <trkpt lat="45.14262" lon="6.10809">
        <ele>2334.9</ele>
        <time>2024-07-08T09:54:04Z</time>
      </trkpt>
      <trkpt lat="45.14263" lon="6.1081">
        <ele>2335.1</ele>
        <time>2024-07-08T09:54:05Z</time>
      </trkpt>
      <trkpt lat="45.14263" lon="6.10811">
        <ele>2335.3</ele>
        <time>2024-07-08T09:54:06Z</time>
      </trkpt>
      <trkpt lat="45.14263" lon="6.10812">
        <ele>2335.4</ele>
        <time>2024-07-08T09:54:07Z</time>
      </trkpt>
      <trkpt lat="45.14264" lon="6.10812">
        <ele>2335.6</ele>
        <time>2024-07-08T09:54:08Z</time>
      </trkpt>
      <trkpt lat="45.14265" lon="6.10813">
        <ele>2335.8</ele>
        <time>2024-07-08T09:54:09Z</time>
      </trkpt>
      <trkpt lat="45.14265" lon="6.10814">
        <ele>2336</ele>
        <time>2024-07-08T09:54:10Z</time>
      </trkpt>
      <trkpt lat="45.14266" lon="6.10814">
        <ele>2336.1</ele>
        <time>2024-07-08T09:54:11Z</time>
      </trkpt>
      <trkpt lat="45.14265" lon="6.10815">
        <ele>2336.2</ele>
        <time>2024-07-08T09:54:12Z</time>
      </trkpt>
      <trkpt lat="45.14265" lon="6.10815">
        <ele>2336.3</ele>
        <time>2024-07-08T09:54:13Z</time>
      </trkpt>
      <trkpt lat="45.14264" lon="6.10815">
        <ele>2336.5</ele>
        <time>2024-07-08T09:54:14Z</time>
      </trkpt>
      <trkpt lat="45.14263" lon="6.10815">
        <ele>2336.7</ele>
        <time>2024-07-08T09:54:15Z</time>
      </trkpt>
      <trkpt lat="45.14263" lon="6.10815">
        <ele>2336.8</ele>
        <time>2024-07-08T09:54:16Z</time>
      </trkpt>
      <trkpt lat="45.14262" lon="6.10815">
        <ele>2337</ele>
        <time>2024-07-08T09:54:17Z</time>
      </trkpt>
      <trkpt lat="45.14261" lon="6.10815">
        <ele>2337.2</ele>
        <time>2024-07-08T09:54:18Z</time>
      </trkpt>
      <trkpt lat="45.14261" lon="6.10815">
        <ele>2337.3</ele>
        <time>2024-07-08T09:54:19Z</time>
      </trkpt>
      <trkpt lat="45.1426" lon="6.10816">
        <ele>2337.6</ele>
        <time>2024-07-08T09:54:20Z</time>
      </trkpt>
      <trkpt lat="45.14259" lon="6.10816">
        <ele>2337.7</ele>
        <time>2024-07-08T09:54:21Z</time>
      </trkpt>
      <trkpt lat="45.14258" lon="6.10816">
        <ele>2337.9</ele>
        <time>2024-07-08T09:54:22Z</time>
      </trkpt>
      <trkpt lat="45.14258" lon="6.10816">
        <ele>2338.1</ele>
        <time>2024-07-08T09:54:23Z</time>
      </trkpt>
      <trkpt lat="45.14257" lon="6.10817">
        <ele>2338.3</ele>
        <time>2024-07-08T09:54:24Z</time>
      </trkpt>
      <trkpt lat="45.14257" lon="6.10818">
        <ele>2338.6</ele>
        <time>2024-07-08T09:54:25Z</time>
      </trkpt>
      <trkpt lat="45.14257" lon="6.10819">
        <ele>2338.7</ele>
        <time>2024-07-08T09:54:26Z</time>
      </trkpt>
      <trkpt lat="45.14258" lon="6.10819">
        <ele>2338.9</ele>
        <time>2024-07-08T09:54:27Z</time>
      </trkpt>
      <trkpt lat="45.14258" lon="6.1082">
        <ele>2339.1</ele>
        <time>2024-07-08T09:54:28Z</time>
      </trkpt>
      <trkpt lat="45.14259" lon="6.10821">
        <ele>2339.3</ele>
        <time>2024-07-08T09:54:29Z</time>
      </trkpt>
      <trkpt lat="45.1426" lon="6.10821">
        <ele>2339.5</ele>
        <time>2024-07-08T09:54:30Z</time>
      </trkpt>
      <trkpt lat="45.1426" lon="6.10821">
        <ele>2339.7</ele>
        <time>2024-07-08T09:54:31Z</time>
      </trkpt>
      <trkpt lat="45.14261" lon="6.10822">
        <ele>2339.9</ele>
        <time>2024-07-08T09:54:32Z</time>
      </trkpt>
      <trkpt lat="45.14262" lon="6.10822">
        <ele>2340.1</ele>
        <time>2024-07-08T09:54:33Z</time>
      </trkpt>
      <trkpt lat="45.14262" lon="6.10823">
        <ele>2340.3</ele>
        <time>2024-07-08T09:54:34Z</time>
      </trkpt>
      <trkpt lat="45.14263" lon="6.10824">
        <ele>2340.6</ele>
        <time>2024-07-08T09:54:35Z</time>
      </trkpt>
      <trkpt lat="45.14263" lon="6.10824">
        <ele>2340.8</ele>
        <time>2024-07-08T09:54:36Z</time>
      </trkpt>
      <trkpt lat="45.14264" lon="6.10824">
        <ele>2341</ele>
        <time>2024-07-08T09:54:37Z</time>
      </trkpt>
      <trkpt lat="45.14266" lon="6.10825">
        <ele>2341.6</ele>
        <time>2024-07-08T09:54:38Z</time>
      </trkpt>
      <trkpt lat="45.14267" lon="6.10826">
        <ele>2341.9</ele>
        <time>2024-07-08T09:54:39Z</time>
      </trkpt>
      <trkpt lat="45.14268" lon="6.10826">
        <ele>2342.1</ele>
        <time>2024-07-08T09:54:40Z</time>
      </trkpt>
      <trkpt lat="45.14269" lon="6.10825">
        <ele>2342.4</ele>
        <time>2024-07-08T09:54:41Z</time>
      </trkpt>
      <trkpt lat="45.1427" lon="6.10825">
        <ele>2342.7</ele>
        <time>2024-07-08T09:54:42Z</time>
      </trkpt>
      <trkpt lat="45.14271" lon="6.10824">
        <ele>2343.1</ele>
        <time>2024-07-08T09:54:43Z</time>
      </trkpt>
      <trkpt lat="45.14272" lon="6.10824">
        <ele>2343.3</ele>
        <time>2024-07-08T09:54:44Z</time>
      </trkpt>
      <trkpt lat="45.14273" lon="6.10824">
        <ele>2343.6</ele>
        <time>2024-07-08T09:54:45Z</time>
      </trkpt>
      <trkpt lat="45.14274" lon="6.10825">
        <ele>2343.8</ele>
        <time>2024-07-08T09:54:46Z</time>
      </trkpt>
      <trkpt lat="45.14274" lon="6.10825">
        <ele>2344</ele>
        <time>2024-07-08T09:54:47Z</time>
      </trkpt>
      <trkpt lat="45.14275" lon="6.10824">
        <ele>2344.1</ele>
        <time>2024-07-08T09:54:48Z</time>
      </trkpt>
      <trkpt lat="45.14275" lon="6.10824">
        <ele>2344.2</ele>
        <time>2024-07-08T09:54:49Z</time>
      </trkpt>
      <trkpt lat="45.14276" lon="6.10824">
        <ele>2344.4</ele>
        <time>2024-07-08T09:54:50Z</time>
      </trkpt>
      <trkpt lat="45.14276" lon="6.10825">
        <ele>2344.6</ele>
        <time>2024-07-08T09:54:51Z</time>
      </trkpt>
      <trkpt lat="45.14277" lon="6.10826">
        <ele>2344.8</ele>
        <time>2024-07-08T09:54:52Z</time>
      </trkpt>
      <trkpt lat="45.14277" lon="6.10827">
        <ele>2345</ele>
        <time>2024-07-08T09:54:53Z</time>
      </trkpt>
      <trkpt lat="45.14277" lon="6.10828">
        <ele>2345.3</ele>
        <time>2024-07-08T09:54:54Z</time>
      </trkpt>
      <trkpt lat="45.14276" lon="6.1083">
        <ele>2345.6</ele>
        <time>2024-07-08T09:54:55Z</time>
      </trkpt>
      <trkpt lat="45.14277" lon="6.10831">
        <ele>2345.9</ele>
        <time>2024-07-08T09:54:56Z</time>
      </trkpt>
      <trkpt lat="45.14277" lon="6.10831">
        <ele>2346</ele>
        <time>2024-07-08T09:54:57Z</time>
      </trkpt>
      <trkpt lat="45.14278" lon="6.10831">
        <ele>2346.2</ele>
        <time>2024-07-08T09:54:58Z</time>
      </trkpt>
      <trkpt lat="45.14278" lon="6.1083">
        <ele>2346.3</ele>
        <time>2024-07-08T09:54:59Z</time>
      </trkpt>
      <trkpt lat="45.14279" lon="6.1083">
        <ele>2346.5</ele>
        <time>2024-07-08T09:55:00Z</time>
      </trkpt>
      <trkpt lat="45.14279" lon="6.10829">
        <ele>2346.6</ele>
        <time>2024-07-08T09:55:01Z</time>
      </trkpt>
      <trkpt lat="45.14279" lon="6.10828">
        <ele>2346.8</ele>
        <time>2024-07-08T09:55:02Z</time>
      </trkpt>
      <trkpt lat="45.1428" lon="6.10828">
        <ele>2347</ele>
        <time>2024-07-08T09:55:03Z</time>
      </trkpt>
      <trkpt lat="45.1428" lon="6.10827">
        <ele>2347.2</ele>
        <time>2024-07-08T09:55:04Z</time>
      </trkpt>
      <trkpt lat="45.14281" lon="6.10827">
        <ele>2347.4</ele>
        <time>2024-07-08T09:55:05Z</time>
      </trkpt>
      <trkpt lat="45.14282" lon="6.10828">
        <ele>2347.6</ele>
        <time>2024-07-08T09:55:06Z</time>
      </trkpt>
      <trkpt lat="45.14282" lon="6.10828">
        <ele>2347.7</ele>
        <time>2024-07-08T09:55:07Z</time>
      </trkpt>
      <trkpt lat="45.14283" lon="6.10828">
        <ele>2347.9</ele>
        <time>2024-07-08T09:55:08Z</time>
      </trkpt>
      <trkpt lat="45.14284" lon="6.10828">
        <ele>2348.1</ele>
        <time>2024-07-08T09:55:09Z</time>
      </trkpt>
      <trkpt lat="45.14285" lon="6.10828">
        <ele>2348.3</ele>
        <time>2024-07-08T09:55:10Z</time>
      </trkpt>
      <trkpt lat="45.14285" lon="6.10828">
        <ele>2348.3</ele>
        <time>2024-07-08T09:55:11Z</time>
      </trkpt>
      <trkpt lat="45.14285" lon="6.10829">
        <ele>2348.5</ele>
        <time>2024-07-08T09:55:12Z</time>
      </trkpt>
      <trkpt lat="45.14286" lon="6.1083">
        <ele>2348.7</ele>
        <time>2024-07-08T09:55:13Z</time>
      </trkpt>
      <trkpt lat="45.14286" lon="6.1083">
        <ele>2348.9</ele>
        <time>2024-07-08T09:55:14Z</time>
      </trkpt>
      <trkpt lat="45.14286" lon="6.10831">
        <ele>2348.9</ele>
        <time>2024-07-08T09:55:15Z</time>
      </trkpt>
      <trkpt lat="45.14286" lon="6.10831">
        <ele>2349</ele>
        <time>2024-07-08T09:55:16Z</time>
      </trkpt>
      <trkpt lat="45.14286" lon="6.10832">
        <ele>2349.1</ele>
        <time>2024-07-08T09:55:17Z</time>
      </trkpt>
      <trkpt lat="45.14286" lon="6.10832">
        <ele>2349.2</ele>
        <time>2024-07-08T09:55:18Z</time>
      </trkpt>
      <trkpt lat="45.14287" lon="6.10832">
        <ele>2349.4</ele>
        <time>2024-07-08T09:55:19Z</time>
      </trkpt>
      <trkpt lat="45.14288" lon="6.10832">
        <ele>2349.6</ele>
        <time>2024-07-08T09:55:20Z</time>
      </trkpt>
      <trkpt lat="45.14288" lon="6.10832">
        <ele>2349.8</ele>
        <time>2024-07-08T09:55:21Z</time>
      </trkpt>
      <trkpt lat="45.14289" lon="6.10832">
        <ele>2350</ele>
        <time>2024-07-08T09:55:22Z</time>
      </trkpt>
      <trkpt lat="45.14289" lon="6.10833">
        <ele>2350.1</ele>
        <time>2024-07-08T09:55:23Z</time>
      </trkpt>
      <trkpt lat="45.1429" lon="6.10833">
        <ele>2350.2</ele>
        <time>2024-07-08T09:55:24Z</time>
      </trkpt>
      <trkpt lat="45.1429" lon="6.10834">
        <ele>2350.4</ele>
        <time>2024-07-08T09:55:25Z</time>
      </trkpt>
      <trkpt lat="45.1429" lon="6.10834">
        <ele>2350.4</ele>
        <time>2024-07-08T09:55:26Z</time>
      </trkpt>
      <trkpt lat="45.14291" lon="6.10834">
        <ele>2350.6</ele>
        <time>2024-07-08T09:55:27Z</time>
      </trkpt>
      <trkpt lat="45.14291" lon="6.10834">
        <ele>2350.7</ele>
        <time>2024-07-08T09:55:28Z</time>
      </trkpt>
      <trkpt lat="45.14292" lon="6.10834">
        <ele>2350.9</ele>
        <time>2024-07-08T09:55:29Z</time>
      </trkpt>
      <trkpt lat="45.14292" lon="6.10835">
        <ele>2351</ele>
        <time>2024-07-08T09:55:30Z</time>
      </trkpt>
      <trkpt lat="45.14293" lon="6.10835">
        <ele>2351.1</ele>
        <time>2024-07-08T09:55:31Z</time>
      </trkpt>
      <trkpt lat="45.14293" lon="6.10836">
        <ele>2351.3</ele>
        <time>2024-07-08T09:55:32Z</time>
      </trkpt>
      <trkpt lat="45.14293" lon="6.10836">
        <ele>2351.4</ele>
        <time>2024-07-08T09:55:33Z</time>
      </trkpt>
      <trkpt lat="45.14293" lon="6.10837">
        <ele>2351.5</ele>
        <time>2024-07-08T09:55:34Z</time>
      </trkpt>
      <trkpt lat="45.14293" lon="6.10838">
        <ele>2351.7</ele>
        <time>2024-07-08T09:55:35Z</time>
      </trkpt>
      <trkpt lat="45.14293" lon="6.10838">
        <ele>2351.8</ele>
        <time>2024-07-08T09:55:36Z</time>
      </trkpt>
      <trkpt lat="45.14293" lon="6.1084">
        <ele>2352</ele>
        <time>2024-07-08T09:55:37Z</time>
      </trkpt>
      <trkpt lat="45.14292" lon="6.1084">
        <ele>2352.2</ele>
        <time>2024-07-08T09:55:38Z</time>
      </trkpt>
      <trkpt lat="45.14291" lon="6.10841">
        <ele>2352.4</ele>
        <time>2024-07-08T09:55:39Z</time>
      </trkpt>
      <trkpt lat="45.1429" lon="6.10841">
        <ele>2352.7</ele>
        <time>2024-07-08T09:55:40Z</time>
      </trkpt>
      <trkpt lat="45.1429" lon="6.10842">
        <ele>2352.8</ele>
        <time>2024-07-08T09:55:41Z</time>
      </trkpt>
      <trkpt lat="45.14289" lon="6.10842">
        <ele>2353</ele>
        <time>2024-07-08T09:55:42Z</time>
      </trkpt>
      <trkpt lat="45.14289" lon="6.10842">
        <ele>2353.1</ele>
        <time>2024-07-08T09:55:43Z</time>
      </trkpt>
      <trkpt lat="45.14289" lon="6.10843">
        <ele>2353.2</ele>
        <time>2024-07-08T09:55:44Z</time>
      </trkpt>
      <trkpt lat="45.14289" lon="6.10843">
        <ele>2353.3</ele>
        <time>2024-07-08T09:55:45Z</time>
      </trkpt>
      <trkpt lat="45.1429" lon="6.10843">
        <ele>2353.4</ele>
        <time>2024-07-08T09:55:46Z</time>
      </trkpt>
      <trkpt lat="45.1429" lon="6.10843">
        <ele>2353.6</ele>
        <time>2024-07-08T09:55:47Z</time>
      </trkpt>
      <trkpt lat="45.1429" lon="6.10843">
        <ele>2353.6</ele>
        <time>2024-07-08T09:55:48Z</time>
      </trkpt>
      <trkpt lat="45.14291" lon="6.10844">
        <ele>2353.7</ele>
        <time>2024-07-08T09:55:49Z</time>
      </trkpt>
      <trkpt lat="45.14291" lon="6.10844">
        <ele>2353.9</ele>
        <time>2024-07-08T09:55:50Z</time>
      </trkpt>
      <trkpt lat="45.14291" lon="6.10844">
        <ele>2353.9</ele>
        <time>2024-07-08T09:55:51Z</time>
      </trkpt>
      <trkpt lat="45.14292" lon="6.10845">
        <ele>2354</ele>
        <time>2024-07-08T09:55:52Z</time>
      </trkpt>
      <trkpt lat="45.14292" lon="6.10845">
        <ele>2354.1</ele>
        <time>2024-07-08T09:55:53Z</time>
      </trkpt>
      <trkpt lat="45.14292" lon="6.10845">
        <ele>2354.2</ele>
        <time>2024-07-08T09:55:54Z</time>
      </trkpt>
      <trkpt lat="45.14293" lon="6.10846">
        <ele>2354.4</ele>
        <time>2024-07-08T09:55:55Z</time>
      </trkpt>
      <trkpt lat="45.14292" lon="6.10846">
        <ele>2354.5</ele>
        <time>2024-07-08T09:55:56Z</time>
      </trkpt>
      <trkpt lat="45.14292" lon="6.10847">
        <ele>2354.6</ele>
        <time>2024-07-08T09:55:57Z</time>
      </trkpt>
      <trkpt lat="45.14293" lon="6.10847">
        <ele>2354.7</ele>
        <time>2024-07-08T09:55:58Z</time>
      </trkpt>
      <trkpt lat="45.14293" lon="6.10848">
        <ele>2354.8</ele>
        <time>2024-07-08T09:55:59Z</time>
      </trkpt>
      <trkpt lat="45.14293" lon="6.10848">
        <ele>2354.9</ele>
        <time>2024-07-08T09:56:00Z</time>
      </trkpt>
      <trkpt lat="45.14293" lon="6.10849">
        <ele>2355</ele>
        <time>2024-07-08T09:56:01Z</time>
      </trkpt>
      <trkpt lat="45.14293" lon="6.10849">
        <ele>2355.1</ele>
        <time>2024-07-08T09:56:02Z</time>
      </trkpt>
      <trkpt lat="45.14294" lon="6.10849">
        <ele>2355.2</ele>
        <time>2024-07-08T09:56:03Z</time>
      </trkpt>
      <trkpt lat="45.14294" lon="6.10849">
        <ele>2355.3</ele>
        <time>2024-07-08T09:56:04Z</time>
      </trkpt>
      <trkpt lat="45.14294" lon="6.1085">
        <ele>2355.3</ele>
        <time>2024-07-08T09:56:05Z</time>
      </trkpt>
      <trkpt lat="45.14295" lon="6.1085">
        <ele>2355.5</ele>
        <time>2024-07-08T09:56:06Z</time>
      </trkpt>
      <trkpt lat="45.14295" lon="6.1085">
        <ele>2355.6</ele>
        <time>2024-07-08T09:56:07Z</time>
      </trkpt>
      <trkpt lat="45.14296" lon="6.10851">
        <ele>2355.8</ele>
        <time>2024-07-08T09:56:08Z</time>
      </trkpt>
      <trkpt lat="45.14297" lon="6.1085">
        <ele>2356</ele>
        <time>2024-07-08T09:56:09Z</time>
      </trkpt>
      <trkpt lat="45.14298" lon="6.1085">
        <ele>2356.2</ele>
        <time>2024-07-08T09:56:10Z</time>
      </trkpt>
      <trkpt lat="45.14298" lon="6.1085">
        <ele>2356.4</ele>
        <time>2024-07-08T09:56:11Z</time>
      </trkpt>
      <trkpt lat="45.14299" lon="6.1085">
        <ele>2356.6</ele>
        <time>2024-07-08T09:56:12Z</time>
      </trkpt>
      <trkpt lat="45.143" lon="6.1085">
        <ele>2356.8</ele>
        <time>2024-07-08T09:56:13Z</time>
      </trkpt>
      <trkpt lat="45.143" lon="6.10851">
        <ele>2357</ele>
        <time>2024-07-08T09:56:14Z</time>
      </trkpt>
      <trkpt lat="45.143" lon="6.10852">
        <ele>2357.1</ele>
        <time>2024-07-08T09:56:15Z</time>
      </trkpt>
      <trkpt lat="45.143" lon="6.10853">
        <ele>2357.3</ele>
        <time>2024-07-08T09:56:16Z</time>
      </trkpt>
      <trkpt lat="45.143" lon="6.10853">
        <ele>2357.4</ele>
        <time>2024-07-08T09:56:17Z</time>
      </trkpt>
      <trkpt lat="45.143" lon="6.10854">
        <ele>2357.6</ele>
        <time>2024-07-08T09:56:18Z</time>
      </trkpt>
      <trkpt lat="45.143" lon="6.10854">
        <ele>2357.7</ele>
        <time>2024-07-08T09:56:19Z</time>
      </trkpt>
      <trkpt lat="45.14299" lon="6.10855">
        <ele>2357.8</ele>
        <time>2024-07-08T09:56:20Z</time>
      </trkpt>
      <trkpt lat="45.14299" lon="6.10856">
        <ele>2357.9</ele>
        <time>2024-07-08T09:56:21Z</time>
      </trkpt>
      <trkpt lat="45.14299" lon="6.10856">
        <ele>2358.1</ele>
        <time>2024-07-08T09:56:22Z</time>
      </trkpt>
      <trkpt lat="45.14298" lon="6.10856">
        <ele>2358.3</ele>
        <time>2024-07-08T09:56:23Z</time>
      </trkpt>
      <trkpt lat="45.14297" lon="6.10856">
        <ele>2358.5</ele>
        <time>2024-07-08T09:56:24Z</time>
      </trkpt>
      <trkpt lat="45.14297" lon="6.10856">
        <ele>2358.6</ele>
        <time>2024-07-08T09:56:25Z</time>
      </trkpt>
      <trkpt lat="45.14297" lon="6.10856">
        <ele>2358.7</ele>
        <time>2024-07-08T09:56:26Z</time>
      </trkpt>
      <trkpt lat="45.14297" lon="6.10857">
        <ele>2358.9</ele>
        <time>2024-07-08T09:56:27Z</time>
      </trkpt>
      <trkpt lat="45.14297" lon="6.10858">
        <ele>2359.1</ele>
        <time>2024-07-08T09:56:28Z</time>
      </trkpt>
      <trkpt lat="45.14298" lon="6.10858">
        <ele>2359.3</ele>
        <time>2024-07-08T09:56:29Z</time>
      </trkpt>
      <trkpt lat="45.14299" lon="6.10859">
        <ele>2359.6</ele>
        <time>2024-07-08T09:56:30Z</time>
      </trkpt>
      <trkpt lat="45.143" lon="6.1086">
        <ele>2360</ele>
        <time>2024-07-08T09:56:31Z</time>
      </trkpt>
      <trkpt lat="45.14301" lon="6.10861">
        <ele>2360.4</ele>
        <time>2024-07-08T09:56:32Z</time>
      </trkpt>
      <trkpt lat="45.14302" lon="6.10861">
        <ele>2360.7</ele>
        <time>2024-07-08T09:56:33Z</time>
      </trkpt>
      <trkpt lat="45.14303" lon="6.10862">
        <ele>2360.9</ele>
        <time>2024-07-08T09:56:34Z</time>
      </trkpt>
      <trkpt lat="45.14304" lon="6.10862">
        <ele>2361.2</ele>
        <time>2024-07-08T09:56:35Z</time>
      </trkpt>
      <trkpt lat="45.14304" lon="6.10863">
        <ele>2361.4</ele>
        <time>2024-07-08T09:56:36Z</time>
      </trkpt>
      <trkpt lat="45.14305" lon="6.10862">
        <ele>2361.5</ele>
        <time>2024-07-08T09:56:37Z</time>
      </trkpt>
      <trkpt lat="45.14305" lon="6.10862">
        <ele>2361.6</ele>
        <time>2024-07-08T09:56:38Z</time>
      </trkpt>
      <trkpt lat="45.14306" lon="6.10862">
        <ele>2361.9</ele>
        <time>2024-07-08T09:56:39Z</time>
      </trkpt>
      <trkpt lat="45.14306" lon="6.10861">
        <ele>2362.1</ele>
        <time>2024-07-08T09:56:40Z</time>
      </trkpt>
      <trkpt lat="45.14307" lon="6.1086">
        <ele>2362.4</ele>
        <time>2024-07-08T09:56:41Z</time>
      </trkpt>
      <trkpt lat="45.14307" lon="6.10859">
        <ele>2362.6</ele>
        <time>2024-07-08T09:56:42Z</time>
      </trkpt>
      <trkpt lat="45.14308" lon="6.10859">
        <ele>2362.9</ele>
        <time>2024-07-08T09:56:43Z</time>
      </trkpt>
      <trkpt lat="45.14309" lon="6.10858">
        <ele>2363.1</ele>
        <time>2024-07-08T09:56:44Z</time>
      </trkpt>
      <trkpt lat="45.14309" lon="6.10857">
        <ele>2363.4</ele>
        <time>2024-07-08T09:56:45Z</time>
      </trkpt>
      <trkpt lat="45.1431" lon="6.10856">
        <ele>2363.7</ele>
        <time>2024-07-08T09:56:46Z</time>
      </trkpt>
      <trkpt lat="45.1431" lon="6.10855">
        <ele>2363.9</ele>
        <time>2024-07-08T09:56:47Z</time>
      </trkpt>
      <trkpt lat="45.14311" lon="6.10855">
        <ele>2364.2</ele>
        <time>2024-07-08T09:56:48Z</time>
      </trkpt>
      <trkpt lat="45.14311" lon="6.10855">
        <ele>2364.4</ele>
        <time>2024-07-08T09:56:49Z</time>
      </trkpt>
      <trkpt lat="45.14311" lon="6.10854">
        <ele>2364.5</ele>
        <time>2024-07-08T09:56:50Z</time>
      </trkpt>
      <trkpt lat="45.14311" lon="6.10854">
        <ele>2364.6</ele>
        <time>2024-07-08T09:56:51Z</time>
      </trkpt>
      <trkpt lat="45.14312" lon="6.10853">
        <ele>2364.8</ele>
        <time>2024-07-08T09:56:52Z</time>
      </trkpt>
      <trkpt lat="45.14311" lon="6.10851">
        <ele>2365.2</ele>
        <time>2024-07-08T09:56:53Z</time>
      </trkpt>
      <trkpt lat="45.1431" lon="6.10849">
        <ele>2365.7</ele>
        <time>2024-07-08T09:56:54Z</time>
      </trkpt>
      <trkpt lat="45.14309" lon="6.10849">
        <ele>2366.2</ele>
        <time>2024-07-08T09:56:55Z</time>
      </trkpt>
      <trkpt lat="45.14308" lon="6.10848">
        <ele>2366.4</ele>
        <time>2024-07-08T09:56:56Z</time>
      </trkpt>
      <trkpt lat="45.14307" lon="6.10849">
        <ele>2366.7</ele>
        <time>2024-07-08T09:56:57Z</time>
      </trkpt>
      <trkpt lat="45.14307" lon="6.10848">
        <ele>2366.8</ele>
        <time>2024-07-08T09:56:58Z</time>
      </trkpt>
      <trkpt lat="45.14308" lon="6.10848">
        <ele>2366.9</ele>
        <time>2024-07-08T09:56:59Z</time>
      </trkpt>
      <trkpt lat="45.14308" lon="6.10847">
        <ele>2367.1</ele>
        <time>2024-07-08T09:57:00Z</time>
      </trkpt>
      <trkpt lat="45.14308" lon="6.10847">
        <ele>2367.2</ele>
        <time>2024-07-08T09:57:01Z</time>
      </trkpt>
      <trkpt lat="45.14308" lon="6.10847">
        <ele>2367.3</ele>
        <time>2024-07-08T09:57:02Z</time>
      </trkpt>
      <trkpt lat="45.14309" lon="6.10846">
        <ele>2367.4</ele>
        <time>2024-07-08T09:57:03Z</time>
      </trkpt>
      <trkpt lat="45.14309" lon="6.10846">
        <ele>2367.5</ele>
        <time>2024-07-08T09:57:04Z</time>
      </trkpt>
      <trkpt lat="45.14309" lon="6.10846">
        <ele>2367.6</ele>
        <time>2024-07-08T09:57:05Z</time>
      </trkpt>
      <trkpt lat="45.1431" lon="6.10845">
        <ele>2367.7</ele>
        <time>2024-07-08T09:57:06Z</time>
      </trkpt>
      <trkpt lat="45.1431" lon="6.10845">
        <ele>2367.8</ele>
        <time>2024-07-08T09:57:07Z</time>
      </trkpt>
      <trkpt lat="45.14311" lon="6.10843">
        <ele>2368.3</ele>
        <time>2024-07-08T09:57:08Z</time>
      </trkpt>
      <trkpt lat="45.14311" lon="6.10842">
        <ele>2368.6</ele>
        <time>2024-07-08T09:57:09Z</time>
      </trkpt>
      <trkpt lat="45.14312" lon="6.10841">
        <ele>2368.8</ele>
        <time>2024-07-08T09:57:10Z</time>
      </trkpt>
      <trkpt lat="45.14312" lon="6.1084">
        <ele>2369.1</ele>
        <time>2024-07-08T09:57:11Z</time>
      </trkpt>
      <trkpt lat="45.14313" lon="6.1084">
        <ele>2369.4</ele>
        <time>2024-07-08T09:57:12Z</time>
      </trkpt>
      <trkpt lat="45.14314" lon="6.10839">
        <ele>2369.6</ele>
        <time>2024-07-08T09:57:13Z</time>
      </trkpt>
      <trkpt lat="45.14314" lon="6.10838">
        <ele>2369.8</ele>
        <time>2024-07-08T09:57:14Z</time>
      </trkpt>
      <trkpt lat="45.14316" lon="6.10836">
        <ele>2370.5</ele>
        <time>2024-07-08T09:57:15Z</time>
      </trkpt>
      <trkpt lat="45.14317" lon="6.10835">
        <ele>2370.8</ele>
        <time>2024-07-08T09:57:16Z</time>
      </trkpt>
      <trkpt lat="45.14318" lon="6.10834">
        <ele>2371</ele>
        <time>2024-07-08T09:57:17Z</time>
      </trkpt>
      <trkpt lat="45.14318" lon="6.10833">
        <ele>2371.2</ele>
        <time>2024-07-08T09:57:18Z</time>
      </trkpt>
      <trkpt lat="45.14318" lon="6.10832">
        <ele>2371.4</ele>
        <time>2024-07-08T09:57:19Z</time>
      </trkpt>
      <trkpt lat="45.14319" lon="6.10831">
        <ele>2371.7</ele>
        <time>2024-07-08T09:57:20Z</time>
      </trkpt>
      <trkpt lat="45.14319" lon="6.10831">
        <ele>2371.8</ele>
        <time>2024-07-08T09:57:21Z</time>
      </trkpt>
      <trkpt lat="45.14319" lon="6.1083">
        <ele>2372</ele>
        <time>2024-07-08T09:57:22Z</time>
      </trkpt>
      <trkpt lat="45.14319" lon="6.1083">
        <ele>2372</ele>
        <time>2024-07-08T09:57:23Z</time>
      </trkpt>
      <trkpt lat="45.14319" lon="6.10829">
        <ele>2372.1</ele>
        <time>2024-07-08T09:57:24Z</time>
      </trkpt>
      <trkpt lat="45.1432" lon="6.10829">
        <ele>2372.3</ele>
        <time>2024-07-08T09:57:25Z</time>
      </trkpt>
      <trkpt lat="45.1432" lon="6.10829">
        <ele>2372.4</ele>
        <time>2024-07-08T09:57:26Z</time>
      </trkpt>
      <trkpt lat="45.1432" lon="6.10828">
        <ele>2372.5</ele>
        <time>2024-07-08T09:57:27Z</time>
      </trkpt>
      <trkpt lat="45.14321" lon="6.10828">
        <ele>2372.7</ele>
        <time>2024-07-08T09:57:28Z</time>
      </trkpt>
      <trkpt lat="45.1432" lon="6.10828">
        <ele>2372.8</ele>
        <time>2024-07-08T09:57:29Z</time>
      </trkpt>
      <trkpt lat="45.1432" lon="6.10828">
        <ele>2372.9</ele>
        <time>2024-07-08T09:57:30Z</time>
      </trkpt>
      <trkpt lat="45.14321" lon="6.10828">
        <ele>2373</ele>
        <time>2024-07-08T09:57:31Z</time>
      </trkpt>
      <trkpt lat="45.14321" lon="6.10828">
        <ele>2373.1</ele>
        <time>2024-07-08T09:57:32Z</time>
      </trkpt>
      <trkpt lat="45.14322" lon="6.10827">
        <ele>2373.3</ele>
        <time>2024-07-08T09:57:33Z</time>
      </trkpt>
      <trkpt lat="45.14323" lon="6.10827">
        <ele>2373.5</ele>
        <time>2024-07-08T09:57:34Z</time>
      </trkpt>
      <trkpt lat="45.14323" lon="6.10827">
        <ele>2373.7</ele>
        <time>2024-07-08T09:57:35Z</time>
      </trkpt>
      <trkpt lat="45.14324" lon="6.10827">
        <ele>2373.9</ele>
        <time>2024-07-08T09:57:36Z</time>
      </trkpt>
      <trkpt lat="45.14325" lon="6.10827">
        <ele>2374.1</ele>
        <time>2024-07-08T09:57:37Z</time>
      </trkpt>
      <trkpt lat="45.14325" lon="6.10828">
        <ele>2374.3</ele>
        <time>2024-07-08T09:57:38Z</time>
      </trkpt>
      <trkpt lat="45.14326" lon="6.10828">
        <ele>2374.5</ele>
        <time>2024-07-08T09:57:39Z</time>
      </trkpt>
      <trkpt lat="45.14327" lon="6.10828">
        <ele>2374.6</ele>
        <time>2024-07-08T09:57:40Z</time>
      </trkpt>
      <trkpt lat="45.14327" lon="6.10827">
        <ele>2374.8</ele>
        <time>2024-07-08T09:57:41Z</time>
      </trkpt>
      <trkpt lat="45.14327" lon="6.10826">
        <ele>2375</ele>
        <time>2024-07-08T09:57:42Z</time>
      </trkpt>
      <trkpt lat="45.14328" lon="6.10825">
        <ele>2375.3</ele>
        <time>2024-07-08T09:57:43Z</time>
      </trkpt>
      <trkpt lat="45.14328" lon="6.10824">
        <ele>2375.5</ele>
        <time>2024-07-08T09:57:44Z</time>
      </trkpt>
      <trkpt lat="45.14328" lon="6.10823">
        <ele>2375.7</ele>
        <time>2024-07-08T09:57:45Z</time>
      </trkpt>
      <trkpt lat="45.14328" lon="6.10822">
        <ele>2375.8</ele>
        <time>2024-07-08T09:57:46Z</time>
      </trkpt>
      <trkpt lat="45.14329" lon="6.10822">
        <ele>2376</ele>
        <time>2024-07-08T09:57:47Z</time>
      </trkpt>
      <trkpt lat="45.1433" lon="6.10822">
        <ele>2376.2</ele>
        <time>2024-07-08T09:57:48Z</time>
      </trkpt>
      <trkpt lat="45.1433" lon="6.10822">
        <ele>2376.3</ele>
        <time>2024-07-08T09:57:49Z</time>
      </trkpt>
      <trkpt lat="45.1433" lon="6.10823">
        <ele>2376.4</ele>
        <time>2024-07-08T09:57:50Z</time>
      </trkpt>
      <trkpt lat="45.1433" lon="6.10823">
        <ele>2376.5</ele>
        <time>2024-07-08T09:57:51Z</time>
      </trkpt>
      <trkpt lat="45.1433" lon="6.10823">
        <ele>2376.6</ele>
        <time>2024-07-08T09:57:52Z</time>
      </trkpt>
      <trkpt lat="45.14331" lon="6.10823">
        <ele>2376.7</ele>
        <time>2024-07-08T09:57:53Z</time>
      </trkpt>
      <trkpt lat="45.14331" lon="6.10824">
        <ele>2376.9</ele>
        <time>2024-07-08T09:57:54Z</time>
      </trkpt>
      <trkpt lat="45.14331" lon="6.10825">
        <ele>2377</ele>
        <time>2024-07-08T09:57:55Z</time>
      </trkpt>
      <trkpt lat="45.1433" lon="6.10825">
        <ele>2377.1</ele>
        <time>2024-07-08T09:57:56Z</time>
      </trkpt>
      <trkpt lat="45.1433" lon="6.10825">
        <ele>2377.2</ele>
        <time>2024-07-08T09:57:57Z</time>
      </trkpt>
      <trkpt lat="45.1433" lon="6.10826">
        <ele>2377.3</ele>
        <time>2024-07-08T09:57:58Z</time>
      </trkpt>
      <trkpt lat="45.1433" lon="6.10826">
        <ele>2377.4</ele>
        <time>2024-07-08T09:57:59Z</time>
      </trkpt>
      <trkpt lat="45.1433" lon="6.10826">
        <ele>2377.4</ele>
        <time>2024-07-08T09:58:00Z</time>
      </trkpt>
      <trkpt lat="45.1433" lon="6.10827">
        <ele>2377.5</ele>
        <time>2024-07-08T09:58:01Z</time>
      </trkpt>
      <trkpt lat="45.1433" lon="6.10827">
        <ele>2377.6</ele>
        <time>2024-07-08T09:58:02Z</time>
      </trkpt>
      <trkpt lat="45.1433" lon="6.10828">
        <ele>2377.7</ele>
        <time>2024-07-08T09:58:03Z</time>
      </trkpt>
      <trkpt lat="45.1433" lon="6.10828">
        <ele>2377.7</ele>
        <time>2024-07-08T09:58:04Z</time>
      </trkpt>
      <trkpt lat="45.1433" lon="6.10828">
        <ele>2377.7</ele>
        <time>2024-07-08T09:58:05Z</time>
      </trkpt>
      <trkpt lat="45.1433" lon="6.10827">
        <ele>2377.8</ele>
        <time>2024-07-08T09:58:06Z</time>
      </trkpt>
      <trkpt lat="45.1433" lon="6.10827">
        <ele>2377.8</ele>
        <time>2024-07-08T09:58:07Z</time>
      </trkpt>
      <trkpt lat="45.1433" lon="6.10827">
        <ele>2377.8</ele>
        <time>2024-07-08T09:58:08Z</time>
      </trkpt>
      <trkpt lat="45.1433" lon="6.10827">
        <ele>2377.8</ele>
        <time>2024-07-08T09:58:09Z</time>
      </trkpt>
      <trkpt lat="45.1433" lon="6.10827">
        <ele>2377.9</ele>
        <time>2024-07-08T09:58:10Z</time>
      </trkpt>
      <trkpt lat="45.14329" lon="6.10827">
        <ele>2378</ele>
        <time>2024-07-08T09:58:11Z</time>
      </trkpt>
      <trkpt lat="45.14329" lon="6.10826">
        <ele>2378.1</ele>
        <time>2024-07-08T09:58:12Z</time>
      </trkpt>
      <trkpt lat="45.14329" lon="6.10826">
        <ele>2378.2</ele>
        <time>2024-07-08T09:58:13Z</time>
      </trkpt>
      <trkpt lat="45.14329" lon="6.10825">
        <ele>2378.2</ele>
        <time>2024-07-08T09:58:14Z</time>
      </trkpt>
      <trkpt lat="45.14329" lon="6.10825">
        <ele>2378.3</ele>
        <time>2024-07-08T09:58:15Z</time>
      </trkpt>
      <trkpt lat="45.14329" lon="6.10825">
        <ele>2378.3</ele>
        <time>2024-07-08T09:58:16Z</time>
      </trkpt>
      <trkpt lat="45.14329" lon="6.10824">
        <ele>2378.4</ele>
        <time>2024-07-08T09:58:17Z</time>
      </trkpt>
      <trkpt lat="45.14329" lon="6.10824">
        <ele>2378.5</ele>
        <time>2024-07-08T09:58:18Z</time>
      </trkpt>
      <trkpt lat="45.14329" lon="6.10824">
        <ele>2378.5</ele>
        <time>2024-07-08T09:58:19Z</time>
      </trkpt>
      <trkpt lat="45.14329" lon="6.10824">
        <ele>2378.6</ele>
        <time>2024-07-08T09:58:20Z</time>
      </trkpt>
      <trkpt lat="45.14329" lon="6.10824">
        <ele>2378.6</ele>
        <time>2024-07-08T09:58:21Z</time>
      </trkpt>
      <trkpt lat="45.1433" lon="6.10823">
        <ele>2378.7</ele>
        <time>2024-07-08T09:58:22Z</time>
      </trkpt>
      <trkpt lat="45.14329" lon="6.10823">
        <ele>2378.7</ele>
        <time>2024-07-08T09:58:23Z</time>
      </trkpt>
      <trkpt lat="45.1433" lon="6.10823">
        <ele>2378.7</ele>
        <time>2024-07-08T09:58:24Z</time>
      </trkpt>
      <trkpt lat="45.1433" lon="6.10823">
        <ele>2378.8</ele>
        <time>2024-07-08T09:58:25Z</time>
      </trkpt>
      <trkpt lat="45.1433" lon="6.10823">
        <ele>2378.8</ele>
        <time>2024-07-08T09:58:26Z</time>
      </trkpt>
      <trkpt lat="45.1433" lon="6.10823">
        <ele>2378.8</ele>
        <time>2024-07-08T09:58:27Z</time>
      </trkpt>
      <trkpt lat="45.1433" lon="6.10823">
        <ele>2378.8</ele>
        <time>2024-07-08T09:58:28Z</time>
      </trkpt>
      <trkpt lat="45.1433" lon="6.10823">
        <ele>2378.8</ele>
        <time>2024-07-08T09:58:29Z</time>
      </trkpt>
      <trkpt lat="45.1433" lon="6.10823">
        <ele>2378.8</ele>
        <time>2024-07-08T09:58:30Z</time>
      </trkpt>
      <trkpt lat="45.1433" lon="6.10823">
        <ele>2378.9</ele>
        <time>2024-07-08T09:58:31Z</time>
      </trkpt>
      <trkpt lat="45.1433" lon="6.10823">
        <ele>2378.9</ele>
        <time>2024-07-08T09:58:32Z</time>
      </trkpt>
      <trkpt lat="45.1433" lon="6.10823">
        <ele>2378.9</ele>
        <time>2024-07-08T09:58:33Z</time>
      </trkpt>
      <trkpt lat="45.1433" lon="6.10823">
        <ele>2378.9</ele>
        <time>2024-07-08T09:58:34Z</time>
      </trkpt>
      <trkpt lat="45.14331" lon="6.10823">
        <ele>2379.1</ele>
        <time>2024-07-08T09:58:35Z</time>
      </trkpt>
      <trkpt lat="45.14332" lon="6.10822">
        <ele>2379.4</ele>
        <time>2024-07-08T09:58:36Z</time>
      </trkpt>
      <trkpt lat="45.14332" lon="6.10821">
        <ele>2379.7</ele>
        <time>2024-07-08T09:58:37Z</time>
      </trkpt>
      <trkpt lat="45.14333" lon="6.10821">
        <ele>2379.8</ele>
        <time>2024-07-08T09:58:38Z</time>
      </trkpt>
      <trkpt lat="45.14332" lon="6.1082">
        <ele>2379.9</ele>
        <time>2024-07-08T09:58:39Z</time>
      </trkpt>
      <trkpt lat="45.14332" lon="6.1082">
        <ele>2380</ele>
        <time>2024-07-08T09:58:40Z</time>
      </trkpt>
      <trkpt lat="45.14333" lon="6.10819">
        <ele>2380.1</ele>
        <time>2024-07-08T09:58:42Z</time>
      </trkpt>
      <trkpt lat="45.14332" lon="6.1082">
        <ele>2380.3</ele>
        <time>2024-07-08T09:58:43Z</time>
      </trkpt>
      <trkpt lat="45.14332" lon="6.1082">
        <ele>2380.4</ele>
        <time>2024-07-08T09:58:44Z</time>
      </trkpt>
      <trkpt lat="45.14332" lon="6.1082">
        <ele>2380.4</ele>
        <time>2024-07-08T09:58:45Z</time>
      </trkpt>
      <trkpt lat="45.14332" lon="6.10821">
        <ele>2380.5</ele>
        <time>2024-07-08T09:58:46Z</time>
      </trkpt>
      <trkpt lat="45.14332" lon="6.10821">
        <ele>2380.5</ele>
        <time>2024-07-08T09:58:47Z</time>
      </trkpt>
      <trkpt lat="45.14332" lon="6.10821">
        <ele>2380.6</ele>
        <time>2024-07-08T09:58:48Z</time>
      </trkpt>
      <trkpt lat="45.14332" lon="6.10821">
        <ele>2380.6</ele>
        <time>2024-07-08T09:58:49Z</time>
      </trkpt>
      <trkpt lat="45.14332" lon="6.10821">
        <ele>2380.6</ele>
        <time>2024-07-08T09:58:50Z</time>
      </trkpt>
      <trkpt lat="45.14332" lon="6.10821">
        <ele>2380.7</ele>
        <time>2024-07-08T09:58:51Z</time>
      </trkpt>
      <trkpt lat="45.14332" lon="6.10821">
        <ele>2380.7</ele>
        <time>2024-07-08T09:58:52Z</time>
      </trkpt>
      <trkpt lat="45.14332" lon="6.10821">
        <ele>2380.7</ele>
        <time>2024-07-08T09:58:53Z</time>
      </trkpt>
      <trkpt lat="45.14332" lon="6.10821">
        <ele>2380.7</ele>
        <time>2024-07-08T09:58:54Z</time>
      </trkpt>
      <trkpt lat="45.14332" lon="6.10821">
        <ele>2380.7</ele>
        <time>2024-07-08T09:58:55Z</time>
      </trkpt>
      <trkpt lat="45.14332" lon="6.10821">
        <ele>2380.7</ele>
        <time>2024-07-08T09:58:56Z</time>
      </trkpt>
      <trkpt lat="45.14331" lon="6.10821">
        <ele>2380.8</ele>
        <time>2024-07-08T09:58:57Z</time>
      </trkpt>
      <trkpt lat="45.14331" lon="6.10821">
        <ele>2380.8</ele>
        <time>2024-07-08T09:58:58Z</time>
      </trkpt>
      <trkpt lat="45.14331" lon="6.10821">
        <ele>2380.8</ele>
        <time>2024-07-08T09:59:00Z</time>
      </trkpt>
      <trkpt lat="45.14331" lon="6.10821">
        <ele>2380.8</ele>
        <time>2024-07-08T09:59:01Z</time>
      </trkpt>
      <trkpt lat="45.14331" lon="6.10822">
        <ele>2380.9</ele>
        <time>2024-07-08T09:59:02Z</time>
      </trkpt>
      <trkpt lat="45.14331" lon="6.10822">
        <ele>2380.9</ele>
        <time>2024-07-08T09:59:03Z</time>
      </trkpt>
      <trkpt lat="45.14331" lon="6.10822">
        <ele>2380.9</ele>
        <time>2024-07-08T09:59:04Z</time>
      </trkpt>
      <trkpt lat="45.14331" lon="6.10822">
        <ele>2380.9</ele>
        <time>2024-07-08T09:59:05Z</time>
      </trkpt>
      <trkpt lat="45.14331" lon="6.10822">
        <ele>2380.9</ele>
        <time>2024-07-08T09:59:06Z</time>
      </trkpt>
      <trkpt lat="45.14331" lon="6.10822">
        <ele>2380.9</ele>
        <time>2024-07-08T09:59:07Z</time>
      </trkpt>
      <trkpt lat="45.14331" lon="6.10822">
        <ele>2380.9</ele>
        <time>2024-07-08T09:59:08Z</time>
      </trkpt>
      <trkpt lat="45.14331" lon="6.10822">
        <ele>2380.9</ele>
        <time>2024-07-08T09:59:09Z</time>
      </trkpt>
      <trkpt lat="45.14331" lon="6.10822">
        <ele>2380.9</ele>
        <time>2024-07-08T09:59:10Z</time>
      </trkpt>
      <trkpt lat="45.14331" lon="6.10822">
        <ele>2380.9</ele>
        <time>2024-07-08T09:59:11Z</time>
      </trkpt>
      <trkpt lat="45.14331" lon="6.10822">
        <ele>2380.9</ele>
        <time>2024-07-08T09:59:12Z</time>
      </trkpt>
      <trkpt lat="45.14331" lon="6.10822">
        <ele>2380.9</ele>
        <time>2024-07-08T09:59:13Z</time>
      </trkpt>
      <trkpt lat="45.14331" lon="6.10822">
        <ele>2381</ele>
        <time>2024-07-08T09:59:14Z</time>
      </trkpt>
      <trkpt lat="45.14331" lon="6.10823">
        <ele>2381.1</ele>
        <time>2024-07-08T09:59:15Z</time>
      </trkpt>
      <trkpt lat="45.14331" lon="6.10823">
        <ele>2381.2</ele>
        <time>2024-07-08T09:59:16Z</time>
      </trkpt>
      <trkpt lat="45.14331" lon="6.10824">
        <ele>2381.2</ele>
        <time>2024-07-08T09:59:17Z</time>
      </trkpt>
      <trkpt lat="45.14331" lon="6.10824">
        <ele>2381.3</ele>
        <time>2024-07-08T09:59:18Z</time>
      </trkpt>
      <trkpt lat="45.14331" lon="6.10824">
        <ele>2381.3</ele>
        <time>2024-07-08T09:59:19Z</time>
      </trkpt>
      <trkpt lat="45.14331" lon="6.10824">
        <ele>2381.3</ele>
        <time>2024-07-08T09:59:20Z</time>
      </trkpt>
      <trkpt lat="45.14331" lon="6.10824">
        <ele>2381.3</ele>
        <time>2024-07-08T09:59:21Z</time>
      </trkpt>
      <trkpt lat="45.14331" lon="6.10824">
        <ele>2381.3</ele>
        <time>2024-07-08T09:59:22Z</time>
      </trkpt>
      <trkpt lat="45.14331" lon="6.10824">
        <ele>2381.4</ele>
        <time>2024-07-08T09:59:23Z</time>
      </trkpt>
      <trkpt lat="45.14331" lon="6.10824">
        <ele>2381.4</ele>
        <time>2024-07-08T09:59:24Z</time>
      </trkpt>
      <trkpt lat="45.14331" lon="6.10823">
        <ele>2381.4</ele>
        <time>2024-07-08T09:59:25Z</time>
      </trkpt>
      <trkpt lat="45.14331" lon="6.10823">
        <ele>2381.4</ele>
        <time>2024-07-08T09:59:26Z</time>
      </trkpt>
      <trkpt lat="45.14331" lon="6.10823">
        <ele>2381.4</ele>
        <time>2024-07-08T09:59:27Z</time>
      </trkpt>
      <trkpt lat="45.14331" lon="6.10824">
        <ele>2381.5</ele>
        <time>2024-07-08T09:59:28Z</time>
      </trkpt>
      <trkpt lat="45.14331" lon="6.10824">
        <ele>2381.5</ele>
        <time>2024-07-08T09:59:29Z</time>
      </trkpt>
      <trkpt lat="45.14331" lon="6.10823">
        <ele>2381.5</ele>
        <time>2024-07-08T09:59:30Z</time>
      </trkpt>
      <trkpt lat="45.14331" lon="6.10823">
        <ele>2381.5</ele>
        <time>2024-07-08T09:59:31Z</time>
      </trkpt>
      <trkpt lat="45.14331" lon="6.10823">
        <ele>2381.5</ele>
        <time>2024-07-08T09:59:32Z</time>
      </trkpt>
      <trkpt lat="45.14331" lon="6.10823">
        <ele>2381.5</ele>
        <time>2024-07-08T09:59:33Z</time>
      </trkpt>
      <trkpt lat="45.14331" lon="6.10823">
        <ele>2381.5</ele>
        <time>2024-07-08T09:59:34Z</time>
      </trkpt>
      <trkpt lat="45.14331" lon="6.10823">
        <ele>2381.5</ele>
        <time>2024-07-08T09:59:35Z</time>
      </trkpt>
      <trkpt lat="45.14331" lon="6.10823">
        <ele>2381.5</ele>
        <time>2024-07-08T09:59:36Z</time>
      </trkpt>
      <trkpt lat="45.14331" lon="6.10823">
        <ele>2381.5</ele>
        <time>2024-07-08T09:59:37Z</time>
      </trkpt>
      <trkpt lat="45.14331" lon="6.10823">
        <ele>2381.5</ele>
        <time>2024-07-08T09:59:38Z</time>
      </trkpt>
      <trkpt lat="45.14331" lon="6.10823">
        <ele>2381.5</ele>
        <time>2024-07-08T09:59:39Z</time>
      </trkpt>
      <trkpt lat="45.14331" lon="6.10823">
        <ele>2381.5</ele>
        <time>2024-07-08T09:59:40Z</time>
      </trkpt>
      <trkpt lat="45.14331" lon="6.10823">
        <ele>2381.5</ele>
        <time>2024-07-08T09:59:41Z</time>
      </trkpt>
      <trkpt lat="45.14331" lon="6.10823">
        <ele>2381.5</ele>
        <time>2024-07-08T09:59:42Z</time>
      </trkpt>
      <trkpt lat="45.14331" lon="6.10823">
        <ele>2381.5</ele>
        <time>2024-07-08T09:59:43Z</time>
      </trkpt>
      <trkpt lat="45.14331" lon="6.10823">
        <ele>2381.5</ele>
        <time>2024-07-08T09:59:44Z</time>
      </trkpt>
      <trkpt lat="45.14331" lon="6.10823">
        <ele>2381.6</ele>
        <time>2024-07-08T09:59:45Z</time>
      </trkpt>
      <trkpt lat="45.1433" lon="6.10823">
        <ele>2381.6</ele>
        <time>2024-07-08T09:59:46Z</time>
      </trkpt>
      <trkpt lat="45.1433" lon="6.10823">
        <ele>2381.6</ele>
        <time>2024-07-08T09:59:47Z</time>
      </trkpt>
      <trkpt lat="45.1433" lon="6.10823">
        <ele>2381.6</ele>
        <time>2024-07-08T09:59:48Z</time>
      </trkpt>
      <trkpt lat="45.1433" lon="6.10823">
        <ele>2381.6</ele>
        <time>2024-07-08T09:59:49Z</time>
      </trkpt>
      <trkpt lat="45.1433" lon="6.10823">
        <ele>2381.6</ele>
        <time>2024-07-08T09:59:50Z</time>
      </trkpt>
      <trkpt lat="45.1433" lon="6.10823">
        <ele>2381.6</ele>
        <time>2024-07-08T09:59:51Z</time>
      </trkpt>
      <trkpt lat="45.1433" lon="6.10823">
        <ele>2381.6</ele>
        <time>2024-07-08T09:59:52Z</time>
      </trkpt>
      <trkpt lat="45.1433" lon="6.10823">
        <ele>2381.6</ele>
        <time>2024-07-08T09:59:53Z</time>
      </trkpt>
      <trkpt lat="45.1433" lon="6.10823">
        <ele>2381.6</ele>
        <time>2024-07-08T09:59:54Z</time>
      </trkpt>
      <trkpt lat="45.1433" lon="6.10823">
        <ele>2381.6</ele>
        <time>2024-07-08T09:59:55Z</time>
      </trkpt>
      <trkpt lat="45.1433" lon="6.10823">
        <ele>2381.6</ele>
        <time>2024-07-08T09:59:56Z</time>
      </trkpt>
      <trkpt lat="45.1433" lon="6.10823">
        <ele>2381.6</ele>
        <time>2024-07-08T09:59:57Z</time>
      </trkpt>
      <trkpt lat="45.1433" lon="6.10823">
        <ele>2381.7</ele>
        <time>2024-07-08T09:59:58Z</time>
      </trkpt>
      <trkpt lat="45.1433" lon="6.10823">
        <ele>2381.7</ele>
        <time>2024-07-08T09:59:59Z</time>
      </trkpt>
      <trkpt lat="45.1433" lon="6.10823">
        <ele>2381.7</ele>
        <time>2024-07-08T10:00:00Z</time>
      </trkpt>
      <trkpt lat="45.14331" lon="6.10823">
        <ele>2381.7</ele>
        <time>2024-07-08T10:00:01Z</time>
      </trkpt>
      <trkpt lat="45.14331" lon="6.10823">
        <ele>2381.7</ele>
        <time>2024-07-08T10:00:02Z</time>
      </trkpt>
      <trkpt lat="45.14331" lon="6.10823">
        <ele>2381.7</ele>
        <time>2024-07-08T10:00:03Z</time>
      </trkpt>
      <trkpt lat="45.14331" lon="6.10823">
        <ele>2381.7</ele>
        <time>2024-07-08T10:00:04Z</time>
      </trkpt>
      <trkpt lat="45.14331" lon="6.10823">
        <ele>2381.8</ele>
        <time>2024-07-08T10:00:05Z</time>
      </trkpt>
      <trkpt lat="45.14331" lon="6.10823">
        <ele>2381.9</ele>
        <time>2024-07-08T10:00:06Z</time>
      </trkpt>
      <trkpt lat="45.14331" lon="6.10823">
        <ele>2381.9</ele>
        <time>2024-07-08T10:00:07Z</time>
      </trkpt>
      <trkpt lat="45.14331" lon="6.10823">
        <ele>2381.9</ele>
        <time>2024-07-08T10:00:08Z</time>
      </trkpt>
      <trkpt lat="45.14331" lon="6.10823">
        <ele>2381.9</ele>
        <time>2024-07-08T10:00:09Z</time>
      </trkpt>
      <trkpt lat="45.14331" lon="6.10823">
        <ele>2382.1</ele>
        <time>2024-07-08T10:00:10Z</time>
      </trkpt>
      <trkpt lat="45.14332" lon="6.10823">
        <ele>2382.2</ele>
        <time>2024-07-08T10:00:11Z</time>
      </trkpt>
      <trkpt lat="45.14332" lon="6.10823">
        <ele>2382.4</ele>
        <time>2024-07-08T10:00:13Z</time>
      </trkpt>
      <trkpt lat="45.14332" lon="6.10822">
        <ele>2382.4</ele>
        <time>2024-07-08T10:00:14Z</time>
      </trkpt>
      <trkpt lat="45.14332" lon="6.10822">
        <ele>2382.5</ele>
        <time>2024-07-08T10:00:15Z</time>
      </trkpt>
      <trkpt lat="45.14332" lon="6.10822">
        <ele>2382.6</ele>
        <time>2024-07-08T10:00:16Z</time>
      </trkpt>
      <trkpt lat="45.14332" lon="6.10823">
        <ele>2382.7</ele>
        <time>2024-07-08T10:00:17Z</time>
      </trkpt>
      <trkpt lat="45.14332" lon="6.10824">
        <ele>2382.9</ele>
        <time>2024-07-08T10:00:18Z</time>
      </trkpt>
      <trkpt lat="45.14332" lon="6.10824">
        <ele>2382.9</ele>
        <time>2024-07-08T10:00:19Z</time>
      </trkpt>
      <trkpt lat="45.14332" lon="6.10824">
        <ele>2382.9</ele>
        <time>2024-07-08T10:00:20Z</time>
      </trkpt>
      <trkpt lat="45.14332" lon="6.10824">
        <ele>2382.9</ele>
        <time>2024-07-08T10:00:21Z</time>
      </trkpt>
      <trkpt lat="45.14332" lon="6.10824">
        <ele>2382.9</ele>
        <time>2024-07-08T10:00:22Z</time>
      </trkpt>
      <trkpt lat="45.14332" lon="6.10824">
        <ele>2382.9</ele>
        <time>2024-07-08T10:00:23Z</time>
      </trkpt>
      <trkpt lat="45.14332" lon="6.10824">
        <ele>2382.9</ele>
        <time>2024-07-08T10:00:24Z</time>
      </trkpt>
      <trkpt lat="45.14332" lon="6.10824">
        <ele>2382.9</ele>
        <time>2024-07-08T10:00:25Z</time>
      </trkpt>
      <trkpt lat="45.14332" lon="6.10824">
        <ele>2382.9</ele>
        <time>2024-07-08T10:00:26Z</time>
      </trkpt>
      <trkpt lat="45.14332" lon="6.10824">
        <ele>2382.9</ele>
        <time>2024-07-08T10:00:27Z</time>
      </trkpt>
      <trkpt lat="45.14332" lon="6.10824">
        <ele>2382.9</ele>
        <time>2024-07-08T10:00:28Z</time>
      </trkpt>
      <trkpt lat="45.14332" lon="6.10824">
        <ele>2382.9</ele>
        <time>2024-07-08T10:00:29Z</time>
      </trkpt>
      <trkpt lat="45.14332" lon="6.10824">
        <ele>2382.9</ele>
        <time>2024-07-08T10:00:30Z</time>
      </trkpt>
      <trkpt lat="45.14332" lon="6.10824">
        <ele>2382.9</ele>
        <time>2024-07-08T10:00:31Z</time>
      </trkpt>
      <trkpt lat="45.14332" lon="6.10824">
        <ele>2382.9</ele>
        <time>2024-07-08T10:00:33Z</time>
      </trkpt>
      <trkpt lat="45.14332" lon="6.10841">
        <ele>2385.8</ele>
        <time>2024-07-08T10:03:13Z</time>
      </trkpt>
      <trkpt lat="45.14332" lon="6.10841">
        <ele>2385.9</ele>
        <time>2024-07-08T10:03:14Z</time>
      </trkpt>
      <trkpt lat="45.14332" lon="6.10842">
        <ele>2386</ele>
        <time>2024-07-08T10:03:15Z</time>
      </trkpt>
      <trkpt lat="45.14332" lon="6.10843">
        <ele>2386.2</ele>
        <time>2024-07-08T10:03:16Z</time>
      </trkpt>
      <trkpt lat="45.14332" lon="6.10843">
        <ele>2386.3</ele>
        <time>2024-07-08T10:03:17Z</time>
      </trkpt>
      <trkpt lat="45.14333" lon="6.10845">
        <ele>2386.5</ele>
        <time>2024-07-08T10:03:18Z</time>
      </trkpt>
      <trkpt lat="45.14333" lon="6.10845">
        <ele>2386.6</ele>
        <time>2024-07-08T10:03:19Z</time>
      </trkpt>
      <trkpt lat="45.14333" lon="6.10846">
        <ele>2386.8</ele>
        <time>2024-07-08T10:03:20Z</time>
      </trkpt>
      <trkpt lat="45.14333" lon="6.10847">
        <ele>2387</ele>
        <time>2024-07-08T10:03:21Z</time>
      </trkpt>
      <trkpt lat="45.14333" lon="6.10849">
        <ele>2387.2</ele>
        <time>2024-07-08T10:03:22Z</time>
      </trkpt>
      <trkpt lat="45.14332" lon="6.10849">
        <ele>2387.4</ele>
        <time>2024-07-08T10:03:23Z</time>
      </trkpt>
      <trkpt lat="45.14332" lon="6.1085">
        <ele>2387.5</ele>
        <time>2024-07-08T10:03:24Z</time>
      </trkpt>
      <trkpt lat="45.14332" lon="6.10851">
        <ele>2387.6</ele>
        <time>2024-07-08T10:03:25Z</time>
      </trkpt>
      <trkpt lat="45.14332" lon="6.10851">
        <ele>2387.7</ele>
        <time>2024-07-08T10:03:26Z</time>
      </trkpt>
      <trkpt lat="45.14333" lon="6.10852">
        <ele>2387.8</ele>
        <time>2024-07-08T10:03:27Z</time>
      </trkpt>
      <trkpt lat="45.14333" lon="6.10853">
        <ele>2388.1</ele>
        <time>2024-07-08T10:03:28Z</time>
      </trkpt>
      <trkpt lat="45.14333" lon="6.10853">
        <ele>2388.2</ele>
        <time>2024-07-08T10:03:29Z</time>
      </trkpt>
      <trkpt lat="45.14333" lon="6.10854">
        <ele>2388.4</ele>
        <time>2024-07-08T10:03:30Z</time>
      </trkpt>
      <trkpt lat="45.14332" lon="6.10855">
        <ele>2388.5</ele>
        <time>2024-07-08T10:03:31Z</time>
      </trkpt>
      <trkpt lat="45.14332" lon="6.10855">
        <ele>2388.6</ele>
        <time>2024-07-08T10:03:32Z</time>
      </trkpt>
      <trkpt lat="45.14332" lon="6.10856">
        <ele>2388.8</ele>
        <time>2024-07-08T10:03:33Z</time>
      </trkpt>
      <trkpt lat="45.14331" lon="6.10856">
        <ele>2388.9</ele>
        <time>2024-07-08T10:03:34Z</time>
      </trkpt>
      <trkpt lat="45.14331" lon="6.10857">
        <ele>2389</ele>
        <time>2024-07-08T10:03:35Z</time>
      </trkpt>
      <trkpt lat="45.14331" lon="6.10858">
        <ele>2389.1</ele>
        <time>2024-07-08T10:03:36Z</time>
      </trkpt>
      <trkpt lat="45.14331" lon="6.10858">
        <ele>2389.2</ele>
        <time>2024-07-08T10:03:37Z</time>
      </trkpt>
      <trkpt lat="45.14331" lon="6.10858">
        <ele>2389.3</ele>
        <time>2024-07-08T10:03:38Z</time>
      </trkpt>
      <trkpt lat="45.14331" lon="6.10859">
        <ele>2389.5</ele>
        <time>2024-07-08T10:03:39Z</time>
      </trkpt>
      <trkpt lat="45.14331" lon="6.1086">
        <ele>2389.6</ele>
        <time>2024-07-08T10:03:40Z</time>
      </trkpt>
      <trkpt lat="45.14332" lon="6.1086">
        <ele>2389.8</ele>
        <time>2024-07-08T10:03:41Z</time>
      </trkpt>
      <trkpt lat="45.14332" lon="6.10861">
        <ele>2389.8</ele>
        <time>2024-07-08T10:03:42Z</time>
      </trkpt>
      <trkpt lat="45.14332" lon="6.10861">
        <ele>2389.9</ele>
        <time>2024-07-08T10:03:43Z</time>
      </trkpt>
      <trkpt lat="45.14333" lon="6.10861">
        <ele>2390.1</ele>
        <time>2024-07-08T10:03:44Z</time>
      </trkpt>
      <trkpt lat="45.14333" lon="6.10861">
        <ele>2390.3</ele>
        <time>2024-07-08T10:03:45Z</time>
      </trkpt>
      <trkpt lat="45.14334" lon="6.10861">
        <ele>2390.3</ele>
        <time>2024-07-08T10:03:46Z</time>
      </trkpt>
      <trkpt lat="45.14334" lon="6.10861">
        <ele>2390.5</ele>
        <time>2024-07-08T10:03:47Z</time>
      </trkpt>
      <trkpt lat="45.14335" lon="6.10862">
        <ele>2390.7</ele>
        <time>2024-07-08T10:03:48Z</time>
      </trkpt>
      <trkpt lat="45.14335" lon="6.10863">
        <ele>2390.8</ele>
        <time>2024-07-08T10:03:49Z</time>
      </trkpt>
      <trkpt lat="45.14335" lon="6.10864">
        <ele>2391</ele>
        <time>2024-07-08T10:03:50Z</time>
      </trkpt>
      <trkpt lat="45.14334" lon="6.10865">
        <ele>2391.3</ele>
        <time>2024-07-08T10:03:51Z</time>
      </trkpt>
      <trkpt lat="45.14334" lon="6.10866">
        <ele>2391.4</ele>
        <time>2024-07-08T10:03:52Z</time>
      </trkpt>
      <trkpt lat="45.14334" lon="6.10867">
        <ele>2391.7</ele>
        <time>2024-07-08T10:03:53Z</time>
      </trkpt>
      <trkpt lat="45.14334" lon="6.10867">
        <ele>2391.7</ele>
        <time>2024-07-08T10:03:54Z</time>
      </trkpt>
      <trkpt lat="45.14334" lon="6.10867">
        <ele>2391.8</ele>
        <time>2024-07-08T10:03:55Z</time>
      </trkpt>
      <trkpt lat="45.14334" lon="6.10867">
        <ele>2391.9</ele>
        <time>2024-07-08T10:03:56Z</time>
      </trkpt>
      <trkpt lat="45.14334" lon="6.10868">
        <ele>2392</ele>
        <time>2024-07-08T10:03:57Z</time>
      </trkpt>
      <trkpt lat="45.14333" lon="6.10868">
        <ele>2392.2</ele>
        <time>2024-07-08T10:03:58Z</time>
      </trkpt>
      <trkpt lat="45.14333" lon="6.10868">
        <ele>2392.4</ele>
        <time>2024-07-08T10:03:59Z</time>
      </trkpt>
      <trkpt lat="45.14332" lon="6.10868">
        <ele>2392.6</ele>
        <time>2024-07-08T10:04:00Z</time>
      </trkpt>
      <trkpt lat="45.14331" lon="6.10869">
        <ele>2392.7</ele>
        <time>2024-07-08T10:04:01Z</time>
      </trkpt>
      <trkpt lat="45.14331" lon="6.10869">
        <ele>2392.9</ele>
        <time>2024-07-08T10:04:02Z</time>
      </trkpt>
      <trkpt lat="45.1433" lon="6.10869">
        <ele>2393.1</ele>
        <time>2024-07-08T10:04:03Z</time>
      </trkpt>
      <trkpt lat="45.14329" lon="6.10869">
        <ele>2393.3</ele>
        <time>2024-07-08T10:04:04Z</time>
      </trkpt>
      <trkpt lat="45.14329" lon="6.10869">
        <ele>2393.4</ele>
        <time>2024-07-08T10:04:05Z</time>
      </trkpt>
      <trkpt lat="45.14328" lon="6.1087">
        <ele>2393.6</ele>
        <time>2024-07-08T10:04:06Z</time>
      </trkpt>
      <trkpt lat="45.14328" lon="6.10871">
        <ele>2393.8</ele>
        <time>2024-07-08T10:04:07Z</time>
      </trkpt>
      <trkpt lat="45.14328" lon="6.10871">
        <ele>2393.9</ele>
        <time>2024-07-08T10:04:08Z</time>
      </trkpt>
      <trkpt lat="45.14329" lon="6.10872">
        <ele>2394.2</ele>
        <time>2024-07-08T10:04:09Z</time>
      </trkpt>
      <trkpt lat="45.1433" lon="6.10873">
        <ele>2394.5</ele>
        <time>2024-07-08T10:04:10Z</time>
      </trkpt>
      <trkpt lat="45.14331" lon="6.10873">
        <ele>2394.7</ele>
        <time>2024-07-08T10:04:11Z</time>
      </trkpt>
      <trkpt lat="45.14332" lon="6.10873">
        <ele>2394.9</ele>
        <time>2024-07-08T10:04:12Z</time>
      </trkpt>
      <trkpt lat="45.14332" lon="6.10873">
        <ele>2395.1</ele>
        <time>2024-07-08T10:04:13Z</time>
      </trkpt>
      <trkpt lat="45.14333" lon="6.10873">
        <ele>2395.3</ele>
        <time>2024-07-08T10:04:14Z</time>
      </trkpt>
      <trkpt lat="45.14334" lon="6.10873">
        <ele>2395.5</ele>
        <time>2024-07-08T10:04:15Z</time>
      </trkpt>
      <trkpt lat="45.14334" lon="6.10872">
        <ele>2395.7</ele>
        <time>2024-07-08T10:04:16Z</time>
      </trkpt>
      <trkpt lat="45.14335" lon="6.10872">
        <ele>2395.9</ele>
        <time>2024-07-08T10:04:17Z</time>
      </trkpt>
      <trkpt lat="45.14336" lon="6.10872">
        <ele>2396.1</ele>
        <time>2024-07-08T10:04:18Z</time>
      </trkpt>
      <trkpt lat="45.14337" lon="6.10872">
        <ele>2396.3</ele>
        <time>2024-07-08T10:04:19Z</time>
      </trkpt>
      <trkpt lat="45.14337" lon="6.10872">
        <ele>2396.5</ele>
        <time>2024-07-08T10:04:20Z</time>
      </trkpt>
      <trkpt lat="45.14338" lon="6.10871">
        <ele>2396.7</ele>
        <time>2024-07-08T10:04:21Z</time>
      </trkpt>
      <trkpt lat="45.14339" lon="6.10871">
        <ele>2396.8</ele>
        <time>2024-07-08T10:04:22Z</time>
      </trkpt>
      <trkpt lat="45.14339" lon="6.10871">
        <ele>2397</ele>
        <time>2024-07-08T10:04:23Z</time>
      </trkpt>
      <trkpt lat="45.1434" lon="6.10872">
        <ele>2397.2</ele>
        <time>2024-07-08T10:04:24Z</time>
      </trkpt>
      <trkpt lat="45.1434" lon="6.10873">
        <ele>2397.4</ele>
        <time>2024-07-08T10:04:25Z</time>
      </trkpt>
      <trkpt lat="45.14341" lon="6.10873">
        <ele>2397.5</ele>
        <time>2024-07-08T10:04:26Z</time>
      </trkpt>
      <trkpt lat="45.14341" lon="6.10873">
        <ele>2397.7</ele>
        <time>2024-07-08T10:04:27Z</time>
      </trkpt>
      <trkpt lat="45.14342" lon="6.10874">
        <ele>2397.9</ele>
        <time>2024-07-08T10:04:28Z</time>
      </trkpt>
      <trkpt lat="45.14342" lon="6.10874">
        <ele>2398</ele>
        <time>2024-07-08T10:04:29Z</time>
      </trkpt>
      <trkpt lat="45.14343" lon="6.10875">
        <ele>2398.2</ele>
        <time>2024-07-08T10:04:30Z</time>
      </trkpt>
      <trkpt lat="45.14342" lon="6.10876">
        <ele>2398.4</ele>
        <time>2024-07-08T10:04:31Z</time>
      </trkpt>
      <trkpt lat="45.14342" lon="6.10877">
        <ele>2398.6</ele>
        <time>2024-07-08T10:04:32Z</time>
      </trkpt>
      <trkpt lat="45.14341" lon="6.10878">
        <ele>2398.8</ele>
        <time>2024-07-08T10:04:33Z</time>
      </trkpt>
      <trkpt lat="45.1434" lon="6.10878">
        <ele>2399.1</ele>
        <time>2024-07-08T10:04:34Z</time>
      </trkpt>
      <trkpt lat="45.1434" lon="6.10878">
        <ele>2399.3</ele>
        <time>2024-07-08T10:04:35Z</time>
      </trkpt>
      <trkpt lat="45.14339" lon="6.10878">
        <ele>2399.5</ele>
        <time>2024-07-08T10:04:36Z</time>
      </trkpt>
      <trkpt lat="45.14338" lon="6.10879">
        <ele>2399.6</ele>
        <time>2024-07-08T10:04:37Z</time>
      </trkpt>
      <trkpt lat="45.14338" lon="6.10879">
        <ele>2399.8</ele>
        <time>2024-07-08T10:04:38Z</time>
      </trkpt>
      <trkpt lat="45.14337" lon="6.10879">
        <ele>2400</ele>
        <time>2024-07-08T10:04:39Z</time>
      </trkpt>
      <trkpt lat="45.14337" lon="6.10879">
        <ele>2400.1</ele>
        <time>2024-07-08T10:04:40Z</time>
      </trkpt>
      <trkpt lat="45.14336" lon="6.1088">
        <ele>2400.4</ele>
        <time>2024-07-08T10:04:41Z</time>
      </trkpt>
      <trkpt lat="45.14335" lon="6.1088">
        <ele>2400.6</ele>
        <time>2024-07-08T10:04:42Z</time>
      </trkpt>
      <trkpt lat="45.14335" lon="6.10881">
        <ele>2400.8</ele>
        <time>2024-07-08T10:04:43Z</time>
      </trkpt>
      <trkpt lat="45.14335" lon="6.10882">
        <ele>2400.9</ele>
        <time>2024-07-08T10:04:44Z</time>
      </trkpt>
      <trkpt lat="45.14336" lon="6.10883">
        <ele>2401.1</ele>
        <time>2024-07-08T10:04:45Z</time>
      </trkpt>
      <trkpt lat="45.14336" lon="6.10883">
        <ele>2401.2</ele>
        <time>2024-07-08T10:04:46Z</time>
      </trkpt>
      <trkpt lat="45.14336" lon="6.10884">
        <ele>2401.3</ele>
        <time>2024-07-08T10:04:47Z</time>
      </trkpt>
      <trkpt lat="45.14336" lon="6.10884">
        <ele>2401.4</ele>
        <time>2024-07-08T10:04:48Z</time>
      </trkpt>
      <trkpt lat="45.14336" lon="6.10884">
        <ele>2401.5</ele>
        <time>2024-07-08T10:04:49Z</time>
      </trkpt>
      <trkpt lat="45.14336" lon="6.10885">
        <ele>2401.6</ele>
        <time>2024-07-08T10:04:50Z</time>
      </trkpt>
      <trkpt lat="45.14335" lon="6.10885">
        <ele>2401.7</ele>
        <time>2024-07-08T10:04:51Z</time>
      </trkpt>
      <trkpt lat="45.14335" lon="6.10886">
        <ele>2401.9</ele>
        <time>2024-07-08T10:04:52Z</time>
      </trkpt>
      <trkpt lat="45.14334" lon="6.10887">
        <ele>2402.2</ele>
        <time>2024-07-08T10:04:53Z</time>
      </trkpt>
      <trkpt lat="45.14335" lon="6.10888">
        <ele>2402.4</ele>
        <time>2024-07-08T10:04:54Z</time>
      </trkpt>
      <trkpt lat="45.14335" lon="6.10889">
        <ele>2402.6</ele>
        <time>2024-07-08T10:04:55Z</time>
      </trkpt>
      <trkpt lat="45.14336" lon="6.10889">
        <ele>2402.7</ele>
        <time>2024-07-08T10:04:56Z</time>
      </trkpt>
      <trkpt lat="45.14337" lon="6.10889">
        <ele>2402.9</ele>
        <time>2024-07-08T10:04:57Z</time>
      </trkpt>
      <trkpt lat="45.14337" lon="6.10889">
        <ele>2403</ele>
        <time>2024-07-08T10:04:58Z</time>
      </trkpt>
      <trkpt lat="45.14338" lon="6.1089">
        <ele>2403.2</ele>
        <time>2024-07-08T10:04:59Z</time>
      </trkpt>
      <trkpt lat="45.14338" lon="6.10889">
        <ele>2403.3</ele>
        <time>2024-07-08T10:05:00Z</time>
      </trkpt>
      <trkpt lat="45.14339" lon="6.10889">
        <ele>2403.5</ele>
        <time>2024-07-08T10:05:01Z</time>
      </trkpt>
      <trkpt lat="45.1434" lon="6.1089">
        <ele>2403.7</ele>
        <time>2024-07-08T10:05:02Z</time>
      </trkpt>
      <trkpt lat="45.1434" lon="6.1089">
        <ele>2403.9</ele>
        <time>2024-07-08T10:05:03Z</time>
      </trkpt>
      <trkpt lat="45.14341" lon="6.10891">
        <ele>2404</ele>
        <time>2024-07-08T10:05:04Z</time>
      </trkpt>
      <trkpt lat="45.14341" lon="6.10891">
        <ele>2404.2</ele>
        <time>2024-07-08T10:05:05Z</time>
      </trkpt>
      <trkpt lat="45.14342" lon="6.10891">
        <ele>2404.3</ele>
        <time>2024-07-08T10:05:06Z</time>
      </trkpt>
      <trkpt lat="45.14342" lon="6.10891">
        <ele>2404.4</ele>
        <time>2024-07-08T10:05:07Z</time>
      </trkpt>
      <trkpt lat="45.14343" lon="6.10892">
        <ele>2404.5</ele>
        <time>2024-07-08T10:05:08Z</time>
      </trkpt>
      <trkpt lat="45.14343" lon="6.10892">
        <ele>2404.7</ele>
        <time>2024-07-08T10:05:09Z</time>
      </trkpt>
      <trkpt lat="45.14344" lon="6.10893">
        <ele>2404.8</ele>
        <time>2024-07-08T10:05:10Z</time>
      </trkpt>
      <trkpt lat="45.14344" lon="6.10893">
        <ele>2404.8</ele>
        <time>2024-07-08T10:05:11Z</time>
      </trkpt>
      <trkpt lat="45.14343" lon="6.10894">
        <ele>2405</ele>
        <time>2024-07-08T10:05:12Z</time>
      </trkpt>
      <trkpt lat="45.14343" lon="6.10894">
        <ele>2405.1</ele>
        <time>2024-07-08T10:05:13Z</time>
      </trkpt>
      <trkpt lat="45.14342" lon="6.10894">
        <ele>2405.3</ele>
        <time>2024-07-08T10:05:14Z</time>
      </trkpt>
      <trkpt lat="45.14341" lon="6.10895">
        <ele>2405.5</ele>
        <time>2024-07-08T10:05:15Z</time>
      </trkpt>
      <trkpt lat="45.1434" lon="6.10895">
        <ele>2405.7</ele>
        <time>2024-07-08T10:05:16Z</time>
      </trkpt>
      <trkpt lat="45.14339" lon="6.10895">
        <ele>2405.9</ele>
        <time>2024-07-08T10:05:17Z</time>
      </trkpt>
      <trkpt lat="45.14338" lon="6.10895">
        <ele>2406.1</ele>
        <time>2024-07-08T10:05:18Z</time>
      </trkpt>
      <trkpt lat="45.14338" lon="6.10896">
        <ele>2406.1</ele>
        <time>2024-07-08T10:05:19Z</time>
      </trkpt>
      <trkpt lat="45.14338" lon="6.10896">
        <ele>2406.3</ele>
        <time>2024-07-08T10:05:20Z</time>
      </trkpt>
      <trkpt lat="45.14337" lon="6.10897">
        <ele>2406.4</ele>
        <time>2024-07-08T10:05:21Z</time>
      </trkpt>
      <trkpt lat="45.14337" lon="6.10897">
        <ele>2406.5</ele>
        <time>2024-07-08T10:05:22Z</time>
      </trkpt>
      <trkpt lat="45.14337" lon="6.10898">
        <ele>2406.6</ele>
        <time>2024-07-08T10:05:23Z</time>
      </trkpt>
      <trkpt lat="45.14337" lon="6.10899">
        <ele>2406.7</ele>
        <time>2024-07-08T10:05:24Z</time>
      </trkpt>
      <trkpt lat="45.14337" lon="6.10899">
        <ele>2406.7</ele>
        <time>2024-07-08T10:05:25Z</time>
      </trkpt>
      <trkpt lat="45.14337" lon="6.109">
        <ele>2406.8</ele>
        <time>2024-07-08T10:05:26Z</time>
      </trkpt>
      <trkpt lat="45.14337" lon="6.10901">
        <ele>2407</ele>
        <time>2024-07-08T10:05:27Z</time>
      </trkpt>
      <trkpt lat="45.14337" lon="6.10902">
        <ele>2407.1</ele>
        <time>2024-07-08T10:05:28Z</time>
      </trkpt>
      <trkpt lat="45.14338" lon="6.10902">
        <ele>2407.3</ele>
        <time>2024-07-08T10:05:29Z</time>
      </trkpt>
      <trkpt lat="45.14339" lon="6.10902">
        <ele>2407.5</ele>
        <time>2024-07-08T10:05:30Z</time>
      </trkpt>
      <trkpt lat="45.1434" lon="6.10901">
        <ele>2407.7</ele>
        <time>2024-07-08T10:05:31Z</time>
      </trkpt>
      <trkpt lat="45.14341" lon="6.10901">
        <ele>2407.8</ele>
        <time>2024-07-08T10:05:32Z</time>
      </trkpt>
      <trkpt lat="45.14341" lon="6.10901">
        <ele>2407.9</ele>
        <time>2024-07-08T10:05:33Z</time>
      </trkpt>
      <trkpt lat="45.14342" lon="6.10902">
        <ele>2408</ele>
        <time>2024-07-08T10:05:34Z</time>
      </trkpt>
      <trkpt lat="45.14342" lon="6.10902">
        <ele>2408</ele>
        <time>2024-07-08T10:05:35Z</time>
      </trkpt>
      <trkpt lat="45.14342" lon="6.10902">
        <ele>2408.1</ele>
        <time>2024-07-08T10:05:36Z</time>
      </trkpt>
      <trkpt lat="45.14342" lon="6.10903">
        <ele>2408.1</ele>
        <time>2024-07-08T10:05:37Z</time>
      </trkpt>
      <trkpt lat="45.14343" lon="6.10903">
        <ele>2408.2</ele>
        <time>2024-07-08T10:05:38Z</time>
      </trkpt>
      <trkpt lat="45.14343" lon="6.10904">
        <ele>2408.3</ele>
        <time>2024-07-08T10:05:39Z</time>
      </trkpt>
      <trkpt lat="45.14343" lon="6.10904">
        <ele>2408.4</ele>
        <time>2024-07-08T10:05:40Z</time>
      </trkpt>
      <trkpt lat="45.14344" lon="6.10905">
        <ele>2408.5</ele>
        <time>2024-07-08T10:05:41Z</time>
      </trkpt>
      <trkpt lat="45.14344" lon="6.10906">
        <ele>2408.7</ele>
        <time>2024-07-08T10:05:42Z</time>
      </trkpt>
      <trkpt lat="45.14344" lon="6.10907">
        <ele>2408.7</ele>
        <time>2024-07-08T10:05:43Z</time>
      </trkpt>
      <trkpt lat="45.14344" lon="6.10908">
        <ele>2408.9</ele>
        <time>2024-07-08T10:05:44Z</time>
      </trkpt>
      <trkpt lat="45.14344" lon="6.10908">
        <ele>2408.9</ele>
        <time>2024-07-08T10:05:45Z</time>
      </trkpt>
      <trkpt lat="45.14344" lon="6.10909">
        <ele>2409</ele>
        <time>2024-07-08T10:05:46Z</time>
      </trkpt>
      <trkpt lat="45.14344" lon="6.1091">
        <ele>2409.2</ele>
        <time>2024-07-08T10:05:47Z</time>
      </trkpt>
      <trkpt lat="45.14343" lon="6.10911">
        <ele>2409.3</ele>
        <time>2024-07-08T10:05:48Z</time>
      </trkpt>
      <trkpt lat="45.14342" lon="6.10912">
        <ele>2409.5</ele>
        <time>2024-07-08T10:05:49Z</time>
      </trkpt>
      <trkpt lat="45.14341" lon="6.10912">
        <ele>2409.6</ele>
        <time>2024-07-08T10:05:50Z</time>
      </trkpt>
      <trkpt lat="45.1434" lon="6.10913">
        <ele>2409.8</ele>
        <time>2024-07-08T10:05:51Z</time>
      </trkpt>
      <trkpt lat="45.14339" lon="6.10913">
        <ele>2409.9</ele>
        <time>2024-07-08T10:05:52Z</time>
      </trkpt>
      <trkpt lat="45.14338" lon="6.10913">
        <ele>2410.1</ele>
        <time>2024-07-08T10:05:53Z</time>
      </trkpt>
      <trkpt lat="45.14336" lon="6.10914">
        <ele>2410.3</ele>
        <time>2024-07-08T10:05:54Z</time>
      </trkpt>
      <trkpt lat="45.14334" lon="6.10913">
        <ele>2410.6</ele>
        <time>2024-07-08T10:05:55Z</time>
      </trkpt>
      <trkpt lat="45.14333" lon="6.10913">
        <ele>2410.7</ele>
        <time>2024-07-08T10:05:56Z</time>
      </trkpt>
      <trkpt lat="45.14332" lon="6.10912">
        <ele>2410.8</ele>
        <time>2024-07-08T10:05:57Z</time>
      </trkpt>
      <trkpt lat="45.14331" lon="6.10912">
        <ele>2411</ele>
        <time>2024-07-08T10:05:58Z</time>
      </trkpt>
      <trkpt lat="45.1433" lon="6.10913">
        <ele>2411.2</ele>
        <time>2024-07-08T10:05:59Z</time>
      </trkpt>
      <trkpt lat="45.14329" lon="6.10913">
        <ele>2411.2</ele>
        <time>2024-07-08T10:06:00Z</time>
      </trkpt>
      <trkpt lat="45.14328" lon="6.10913">
        <ele>2411.3</ele>
        <time>2024-07-08T10:06:01Z</time>
      </trkpt>
      <trkpt lat="45.14327" lon="6.10913">
        <ele>2411.4</ele>
        <time>2024-07-08T10:06:02Z</time>
      </trkpt>
      <trkpt lat="45.14327" lon="6.10914">
        <ele>2411.5</ele>
        <time>2024-07-08T10:06:03Z</time>
      </trkpt>
      <trkpt lat="45.14325" lon="6.10915">
        <ele>2411.7</ele>
        <time>2024-07-08T10:06:04Z</time>
      </trkpt>
      <trkpt lat="45.14325" lon="6.10915">
        <ele>2411.8</ele>
        <time>2024-07-08T10:06:05Z</time>
      </trkpt>
      <trkpt lat="45.14324" lon="6.10916">
        <ele>2411.9</ele>
        <time>2024-07-08T10:06:06Z</time>
      </trkpt>
      <trkpt lat="45.14323" lon="6.10917">
        <ele>2412.1</ele>
        <time>2024-07-08T10:06:07Z</time>
      </trkpt>
      <trkpt lat="45.14322" lon="6.10918">
        <ele>2412.2</ele>
        <time>2024-07-08T10:06:08Z</time>
      </trkpt>
      <trkpt lat="45.14321" lon="6.10918">
        <ele>2412.3</ele>
        <time>2024-07-08T10:06:09Z</time>
      </trkpt>
      <trkpt lat="45.1432" lon="6.10919">
        <ele>2412.4</ele>
        <time>2024-07-08T10:06:10Z</time>
      </trkpt>
      <trkpt lat="45.1432" lon="6.10919">
        <ele>2412.5</ele>
        <time>2024-07-08T10:06:11Z</time>
      </trkpt>
      <trkpt lat="45.14319" lon="6.10919">
        <ele>2412.6</ele>
        <time>2024-07-08T10:06:12Z</time>
      </trkpt>
      <trkpt lat="45.14319" lon="6.1092">
        <ele>2412.7</ele>
        <time>2024-07-08T10:06:13Z</time>
      </trkpt>
      <trkpt lat="45.14318" lon="6.1092">
        <ele>2412.8</ele>
        <time>2024-07-08T10:06:14Z</time>
      </trkpt>
      <trkpt lat="45.14317" lon="6.10921">
        <ele>2412.9</ele>
        <time>2024-07-08T10:06:15Z</time>
      </trkpt>
      <trkpt lat="45.14317" lon="6.10922">
        <ele>2413</ele>
        <time>2024-07-08T10:06:16Z</time>
      </trkpt>
      <trkpt lat="45.14316" lon="6.10923">
        <ele>2413.1</ele>
        <time>2024-07-08T10:06:17Z</time>
      </trkpt>
      <trkpt lat="45.14316" lon="6.10924">
        <ele>2413.2</ele>
        <time>2024-07-08T10:06:18Z</time>
      </trkpt>
      <trkpt lat="45.14315" lon="6.10925">
        <ele>2413.4</ele>
        <time>2024-07-08T10:06:19Z</time>
      </trkpt>
      <trkpt lat="45.14314" lon="6.10925">
        <ele>2413.5</ele>
        <time>2024-07-08T10:06:20Z</time>
      </trkpt>
      <trkpt lat="45.14313" lon="6.10925">
        <ele>2413.6</ele>
        <time>2024-07-08T10:06:21Z</time>
      </trkpt>
      <trkpt lat="45.14312" lon="6.10925">
        <ele>2413.7</ele>
        <time>2024-07-08T10:06:22Z</time>
      </trkpt>
      <trkpt lat="45.14311" lon="6.10925">
        <ele>2413.8</ele>
        <time>2024-07-08T10:06:23Z</time>
      </trkpt>
      <trkpt lat="45.1431" lon="6.10924">
        <ele>2414</ele>
        <time>2024-07-08T10:06:24Z</time>
      </trkpt>
      <trkpt lat="45.1431" lon="6.10924">
        <ele>2414.1</ele>
        <time>2024-07-08T10:06:25Z</time>
      </trkpt>
      <trkpt lat="45.14309" lon="6.10924">
        <ele>2414.2</ele>
        <time>2024-07-08T10:06:26Z</time>
      </trkpt>
      <trkpt lat="45.14308" lon="6.10924">
        <ele>2414.3</ele>
        <time>2024-07-08T10:06:27Z</time>
      </trkpt>
      <trkpt lat="45.14307" lon="6.10925">
        <ele>2414.4</ele>
        <time>2024-07-08T10:06:28Z</time>
      </trkpt>
      <trkpt lat="45.14307" lon="6.10926">
        <ele>2414.5</ele>
        <time>2024-07-08T10:06:29Z</time>
      </trkpt>
      <trkpt lat="45.14306" lon="6.10926">
        <ele>2414.7</ele>
        <time>2024-07-08T10:06:30Z</time>
      </trkpt>
      <trkpt lat="45.14305" lon="6.10927">
        <ele>2414.8</ele>
        <time>2024-07-08T10:06:31Z</time>
      </trkpt>
      <trkpt lat="45.14305" lon="6.10927">
        <ele>2414.9</ele>
        <time>2024-07-08T10:06:32Z</time>
      </trkpt>
      <trkpt lat="45.14304" lon="6.10928">
        <ele>2415.1</ele>
        <time>2024-07-08T10:06:33Z</time>
      </trkpt>
      <trkpt lat="45.14304" lon="6.10929">
        <ele>2415.2</ele>
        <time>2024-07-08T10:06:34Z</time>
      </trkpt>
      <trkpt lat="45.14303" lon="6.1093">
        <ele>2415.4</ele>
        <time>2024-07-08T10:06:35Z</time>
      </trkpt>
      <trkpt lat="45.14303" lon="6.10931">
        <ele>2415.5</ele>
        <time>2024-07-08T10:06:36Z</time>
      </trkpt>
      <trkpt lat="45.14302" lon="6.10932">
        <ele>2415.6</ele>
        <time>2024-07-08T10:06:37Z</time>
      </trkpt>
      <trkpt lat="45.14302" lon="6.10933">
        <ele>2415.8</ele>
        <time>2024-07-08T10:06:38Z</time>
      </trkpt>
      <trkpt lat="45.14301" lon="6.10934">
        <ele>2415.9</ele>
        <time>2024-07-08T10:06:39Z</time>
      </trkpt>
      <trkpt lat="45.14301" lon="6.10934">
        <ele>2416</ele>
        <time>2024-07-08T10:06:40Z</time>
      </trkpt>
      <trkpt lat="45.143" lon="6.10935">
        <ele>2416.1</ele>
        <time>2024-07-08T10:06:41Z</time>
      </trkpt>
      <trkpt lat="45.14299" lon="6.10936">
        <ele>2416.3</ele>
        <time>2024-07-08T10:06:42Z</time>
      </trkpt>
      <trkpt lat="45.14299" lon="6.10937">
        <ele>2416.5</ele>
        <time>2024-07-08T10:06:43Z</time>
      </trkpt>
      <trkpt lat="45.14298" lon="6.10937">
        <ele>2416.6</ele>
        <time>2024-07-08T10:06:44Z</time>
      </trkpt>
      <trkpt lat="45.14297" lon="6.10938">
        <ele>2416.8</ele>
        <time>2024-07-08T10:06:45Z</time>
      </trkpt>
      <trkpt lat="45.14297" lon="6.10939">
        <ele>2417</ele>
        <time>2024-07-08T10:06:46Z</time>
      </trkpt>
      <trkpt lat="45.14296" lon="6.1094">
        <ele>2417.1</ele>
        <time>2024-07-08T10:06:47Z</time>
      </trkpt>
      <trkpt lat="45.14296" lon="6.10941">
        <ele>2417.2</ele>
        <time>2024-07-08T10:06:48Z</time>
      </trkpt>
      <trkpt lat="45.14296" lon="6.10941">
        <ele>2417.3</ele>
        <time>2024-07-08T10:06:49Z</time>
      </trkpt>
      <trkpt lat="45.14295" lon="6.10942">
        <ele>2417.4</ele>
        <time>2024-07-08T10:06:50Z</time>
      </trkpt>
      <trkpt lat="45.14295" lon="6.10943">
        <ele>2417.5</ele>
        <time>2024-07-08T10:06:51Z</time>
      </trkpt>
      <trkpt lat="45.14295" lon="6.10944">
        <ele>2417.6</ele>
        <time>2024-07-08T10:06:52Z</time>
      </trkpt>
      <trkpt lat="45.14294" lon="6.10945">
        <ele>2417.8</ele>
        <time>2024-07-08T10:06:53Z</time>
      </trkpt>
      <trkpt lat="45.14294" lon="6.10945">
        <ele>2417.9</ele>
        <time>2024-07-08T10:06:54Z</time>
      </trkpt>
      <trkpt lat="45.14294" lon="6.10946">
        <ele>2418</ele>
        <time>2024-07-08T10:06:55Z</time>
      </trkpt>
      <trkpt lat="45.14293" lon="6.10947">
        <ele>2418.1</ele>
        <time>2024-07-08T10:06:56Z</time>
      </trkpt>
      <trkpt lat="45.14293" lon="6.10947">
        <ele>2418.1</ele>
        <time>2024-07-08T10:06:57Z</time>
      </trkpt>
      <trkpt lat="45.14293" lon="6.10948">
        <ele>2418.3</ele>
        <time>2024-07-08T10:06:58Z</time>
      </trkpt>
      <trkpt lat="45.14293" lon="6.10948">
        <ele>2418.4</ele>
        <time>2024-07-08T10:06:59Z</time>
      </trkpt>
      <trkpt lat="45.14293" lon="6.10949">
        <ele>2418.5</ele>
        <time>2024-07-08T10:07:00Z</time>
      </trkpt>
      <trkpt lat="45.14293" lon="6.1095">
        <ele>2418.6</ele>
        <time>2024-07-08T10:07:01Z</time>
      </trkpt>
      <trkpt lat="45.14294" lon="6.10951">
        <ele>2418.7</ele>
        <time>2024-07-08T10:07:02Z</time>
      </trkpt>
      <trkpt lat="45.14294" lon="6.10951">
        <ele>2418.8</ele>
        <time>2024-07-08T10:07:03Z</time>
      </trkpt>
      <trkpt lat="45.14295" lon="6.10952">
        <ele>2418.9</ele>
        <time>2024-07-08T10:07:04Z</time>
      </trkpt>
      <trkpt lat="45.14295" lon="6.10952">
        <ele>2419.1</ele>
        <time>2024-07-08T10:07:05Z</time>
      </trkpt>
      <trkpt lat="45.14295" lon="6.10953">
        <ele>2419.2</ele>
        <time>2024-07-08T10:07:06Z</time>
      </trkpt>
      <trkpt lat="45.14296" lon="6.10953">
        <ele>2419.3</ele>
        <time>2024-07-08T10:07:07Z</time>
      </trkpt>
      <trkpt lat="45.14297" lon="6.10954">
        <ele>2419.5</ele>
        <time>2024-07-08T10:07:08Z</time>
      </trkpt>
      <trkpt lat="45.14298" lon="6.10954">
        <ele>2419.7</ele>
        <time>2024-07-08T10:07:09Z</time>
      </trkpt>
      <trkpt lat="45.14299" lon="6.10954">
        <ele>2419.9</ele>
        <time>2024-07-08T10:07:10Z</time>
      </trkpt>
      <trkpt lat="45.143" lon="6.10955">
        <ele>2420.1</ele>
        <time>2024-07-08T10:07:11Z</time>
      </trkpt>
      <trkpt lat="45.143" lon="6.10955">
        <ele>2420.3</ele>
        <time>2024-07-08T10:07:12Z</time>
      </trkpt>
      <trkpt lat="45.14301" lon="6.10956">
        <ele>2420.4</ele>
        <time>2024-07-08T10:07:13Z</time>
      </trkpt>
      <trkpt lat="45.14302" lon="6.10956">
        <ele>2420.6</ele>
        <time>2024-07-08T10:07:14Z</time>
      </trkpt>
      <trkpt lat="45.14302" lon="6.10957">
        <ele>2420.7</ele>
        <time>2024-07-08T10:07:15Z</time>
      </trkpt>
      <trkpt lat="45.14302" lon="6.10958">
        <ele>2420.9</ele>
        <time>2024-07-08T10:07:16Z</time>
      </trkpt>
      <trkpt lat="45.14302" lon="6.10959">
        <ele>2421.1</ele>
        <time>2024-07-08T10:07:17Z</time>
      </trkpt>
      <trkpt lat="45.14302" lon="6.1096">
        <ele>2421.2</ele>
        <time>2024-07-08T10:07:18Z</time>
      </trkpt>
      <trkpt lat="45.14301" lon="6.10961">
        <ele>2421.4</ele>
        <time>2024-07-08T10:07:19Z</time>
      </trkpt>
      <trkpt lat="45.143" lon="6.10961">
        <ele>2421.6</ele>
        <time>2024-07-08T10:07:20Z</time>
      </trkpt>
      <trkpt lat="45.143" lon="6.10962">
        <ele>2421.8</ele>
        <time>2024-07-08T10:07:21Z</time>
      </trkpt>
      <trkpt lat="45.14299" lon="6.10962">
        <ele>2421.9</ele>
        <time>2024-07-08T10:07:22Z</time>
      </trkpt>
      <trkpt lat="45.14298" lon="6.10962">
        <ele>2422.1</ele>
        <time>2024-07-08T10:07:23Z</time>
      </trkpt>
      <trkpt lat="45.14298" lon="6.10962">
        <ele>2422.1</ele>
        <time>2024-07-08T10:07:24Z</time>
      </trkpt>
      <trkpt lat="45.14297" lon="6.10963">
        <ele>2422.4</ele>
        <time>2024-07-08T10:07:25Z</time>
      </trkpt>
      <trkpt lat="45.14296" lon="6.10964">
        <ele>2422.6</ele>
        <time>2024-07-08T10:07:26Z</time>
      </trkpt>
      <trkpt lat="45.14296" lon="6.10964">
        <ele>2422.7</ele>
        <time>2024-07-08T10:07:27Z</time>
      </trkpt>
      <trkpt lat="45.14296" lon="6.10965">
        <ele>2422.8</ele>
        <time>2024-07-08T10:07:28Z</time>
      </trkpt>
      <trkpt lat="45.14296" lon="6.10966">
        <ele>2423</ele>
        <time>2024-07-08T10:07:29Z</time>
      </trkpt>
      <trkpt lat="45.14295" lon="6.10967">
        <ele>2423.1</ele>
        <time>2024-07-08T10:07:30Z</time>
      </trkpt>
      <trkpt lat="45.14295" lon="6.10967">
        <ele>2423.2</ele>
        <time>2024-07-08T10:07:31Z</time>
      </trkpt>
      <trkpt lat="45.14294" lon="6.10968">
        <ele>2423.4</ele>
        <time>2024-07-08T10:07:32Z</time>
      </trkpt>
      <trkpt lat="45.14293" lon="6.10968">
        <ele>2423.5</ele>
        <time>2024-07-08T10:07:33Z</time>
      </trkpt>
      <trkpt lat="45.14293" lon="6.10969">
        <ele>2423.7</ele>
        <time>2024-07-08T10:07:34Z</time>
      </trkpt>
      <trkpt lat="45.14292" lon="6.10969">
        <ele>2423.8</ele>
        <time>2024-07-08T10:07:35Z</time>
      </trkpt>
      <trkpt lat="45.14292" lon="6.1097">
        <ele>2424</ele>
        <time>2024-07-08T10:07:36Z</time>
      </trkpt>
      <trkpt lat="45.14292" lon="6.10971">
        <ele>2424.1</ele>
        <time>2024-07-08T10:07:37Z</time>
      </trkpt>
      <trkpt lat="45.14291" lon="6.10972">
        <ele>2424.4</ele>
        <time>2024-07-08T10:07:38Z</time>
      </trkpt>
      <trkpt lat="45.14291" lon="6.10973">
        <ele>2424.4</ele>
        <time>2024-07-08T10:07:39Z</time>
      </trkpt>
      <trkpt lat="45.14292" lon="6.10974">
        <ele>2424.6</ele>
        <time>2024-07-08T10:07:40Z</time>
      </trkpt>
      <trkpt lat="45.14292" lon="6.10975">
        <ele>2424.8</ele>
        <time>2024-07-08T10:07:41Z</time>
      </trkpt>
      <trkpt lat="45.14293" lon="6.10976">
        <ele>2425</ele>
        <time>2024-07-08T10:07:42Z</time>
      </trkpt>
      <trkpt lat="45.14293" lon="6.10976">
        <ele>2425.1</ele>
        <time>2024-07-08T10:07:43Z</time>
      </trkpt>
      <trkpt lat="45.14293" lon="6.10977">
        <ele>2425.2</ele>
        <time>2024-07-08T10:07:44Z</time>
      </trkpt>
      <trkpt lat="45.14294" lon="6.10978">
        <ele>2425.4</ele>
        <time>2024-07-08T10:07:45Z</time>
      </trkpt>
      <trkpt lat="45.14295" lon="6.10978">
        <ele>2425.5</ele>
        <time>2024-07-08T10:07:46Z</time>
      </trkpt>
      <trkpt lat="45.14295" lon="6.10978">
        <ele>2425.7</ele>
        <time>2024-07-08T10:07:47Z</time>
      </trkpt>
      <trkpt lat="45.14296" lon="6.10978">
        <ele>2425.9</ele>
        <time>2024-07-08T10:07:48Z</time>
      </trkpt>
      <trkpt lat="45.14297" lon="6.10978">
        <ele>2426.1</ele>
        <time>2024-07-08T10:07:49Z</time>
      </trkpt>
      <trkpt lat="45.14297" lon="6.10978">
        <ele>2426.2</ele>
        <time>2024-07-08T10:07:50Z</time>
      </trkpt>
      <trkpt lat="45.14297" lon="6.10978">
        <ele>2426.2</ele>
        <time>2024-07-08T10:07:51Z</time>
      </trkpt>
      <trkpt lat="45.14298" lon="6.10979">
        <ele>2426.3</ele>
        <time>2024-07-08T10:07:52Z</time>
      </trkpt>
      <trkpt lat="45.14298" lon="6.10979">
        <ele>2426.4</ele>
        <time>2024-07-08T10:07:53Z</time>
      </trkpt>
      <trkpt lat="45.14298" lon="6.1098">
        <ele>2426.5</ele>
        <time>2024-07-08T10:07:54Z</time>
      </trkpt>
      <trkpt lat="45.14298" lon="6.10981">
        <ele>2426.6</ele>
        <time>2024-07-08T10:07:55Z</time>
      </trkpt>
      <trkpt lat="45.14297" lon="6.10982">
        <ele>2426.7</ele>
        <time>2024-07-08T10:07:56Z</time>
      </trkpt>
      <trkpt lat="45.14297" lon="6.10982">
        <ele>2426.8</ele>
        <time>2024-07-08T10:07:57Z</time>
      </trkpt>
      <trkpt lat="45.14297" lon="6.10983">
        <ele>2426.9</ele>
        <time>2024-07-08T10:07:58Z</time>
      </trkpt>
      <trkpt lat="45.14297" lon="6.10983">
        <ele>2427</ele>
        <time>2024-07-08T10:07:59Z</time>
      </trkpt>
      <trkpt lat="45.14297" lon="6.10983">
        <ele>2427</ele>
        <time>2024-07-08T10:08:00Z</time>
      </trkpt>
      <trkpt lat="45.14297" lon="6.10984">
        <ele>2427.1</ele>
        <time>2024-07-08T10:08:01Z</time>
      </trkpt>
      <trkpt lat="45.14297" lon="6.10984">
        <ele>2427.1</ele>
        <time>2024-07-08T10:08:02Z</time>
      </trkpt>
      <trkpt lat="45.14297" lon="6.10984">
        <ele>2427.2</ele>
        <time>2024-07-08T10:08:03Z</time>
      </trkpt>
      <trkpt lat="45.14297" lon="6.10984">
        <ele>2427.2</ele>
        <time>2024-07-08T10:08:04Z</time>
      </trkpt>
      <trkpt lat="45.14297" lon="6.10985">
        <ele>2427.3</ele>
        <time>2024-07-08T10:08:05Z</time>
      </trkpt>
      <trkpt lat="45.14297" lon="6.10985">
        <ele>2427.3</ele>
        <time>2024-07-08T10:08:06Z</time>
      </trkpt>
      <trkpt lat="45.14297" lon="6.10985">
        <ele>2427.4</ele>
        <time>2024-07-08T10:08:07Z</time>
      </trkpt>
      <trkpt lat="45.14296" lon="6.10985">
        <ele>2427.4</ele>
        <time>2024-07-08T10:08:08Z</time>
      </trkpt>
      <trkpt lat="45.14296" lon="6.10985">
        <ele>2427.5</ele>
        <time>2024-07-08T10:08:09Z</time>
      </trkpt>
      <trkpt lat="45.14296" lon="6.10985">
        <ele>2427.5</ele>
        <time>2024-07-08T10:08:10Z</time>
      </trkpt>
      <trkpt lat="45.14296" lon="6.10986">
        <ele>2427.6</ele>
        <time>2024-07-08T10:08:11Z</time>
      </trkpt>
      <trkpt lat="45.14296" lon="6.10986">
        <ele>2427.6</ele>
        <time>2024-07-08T10:08:12Z</time>
      </trkpt>
      <trkpt lat="45.14296" lon="6.10986">
        <ele>2427.6</ele>
        <time>2024-07-08T10:08:13Z</time>
      </trkpt>
      <trkpt lat="45.14296" lon="6.10986">
        <ele>2427.6</ele>
        <time>2024-07-08T10:08:14Z</time>
      </trkpt>
      <trkpt lat="45.14296" lon="6.10986">
        <ele>2427.7</ele>
        <time>2024-07-08T10:08:15Z</time>
      </trkpt>
      <trkpt lat="45.14296" lon="6.10987">
        <ele>2427.8</ele>
        <time>2024-07-08T10:08:16Z</time>
      </trkpt>
      <trkpt lat="45.14296" lon="6.10988">
        <ele>2427.9</ele>
        <time>2024-07-08T10:08:17Z</time>
      </trkpt>
      <trkpt lat="45.14297" lon="6.10988">
        <ele>2428</ele>
        <time>2024-07-08T10:08:18Z</time>
      </trkpt>
      <trkpt lat="45.14297" lon="6.10989">
        <ele>2428.1</ele>
        <time>2024-07-08T10:08:19Z</time>
      </trkpt>
      <trkpt lat="45.14297" lon="6.10989">
        <ele>2428.1</ele>
        <time>2024-07-08T10:08:20Z</time>
      </trkpt>
      <trkpt lat="45.14297" lon="6.10989">
        <ele>2428.2</ele>
        <time>2024-07-08T10:08:21Z</time>
      </trkpt>
      <trkpt lat="45.14297" lon="6.10989">
        <ele>2428.2</ele>
        <time>2024-07-08T10:08:22Z</time>
      </trkpt>
      <trkpt lat="45.14297" lon="6.10989">
        <ele>2428.2</ele>
        <time>2024-07-08T10:08:23Z</time>
      </trkpt>
      <trkpt lat="45.14297" lon="6.10989">
        <ele>2428.2</ele>
        <time>2024-07-08T10:08:24Z</time>
      </trkpt>
      <trkpt lat="45.14297" lon="6.1099">
        <ele>2428.3</ele>
        <time>2024-07-08T10:08:25Z</time>
      </trkpt>
      <trkpt lat="45.14297" lon="6.1099">
        <ele>2428.3</ele>
        <time>2024-07-08T10:08:26Z</time>
      </trkpt>
      <trkpt lat="45.14298" lon="6.10991">
        <ele>2428.4</ele>
        <time>2024-07-08T10:08:27Z</time>
      </trkpt>
      <trkpt lat="45.14298" lon="6.10991">
        <ele>2428.5</ele>
        <time>2024-07-08T10:08:28Z</time>
      </trkpt>
      <trkpt lat="45.14298" lon="6.10991">
        <ele>2428.5</ele>
        <time>2024-07-08T10:08:29Z</time>
      </trkpt>
      <trkpt lat="45.14297" lon="6.10991">
        <ele>2428.5</ele>
        <time>2024-07-08T10:08:30Z</time>
      </trkpt>
      <trkpt lat="45.14297" lon="6.10991">
        <ele>2428.5</ele>
        <time>2024-07-08T10:08:31Z</time>
      </trkpt>
      <trkpt lat="45.14297" lon="6.10992">
        <ele>2428.6</ele>
        <time>2024-07-08T10:08:32Z</time>
      </trkpt>
      <trkpt lat="45.14297" lon="6.10992">
        <ele>2428.7</ele>
        <time>2024-07-08T10:08:33Z</time>
      </trkpt>
      <trkpt lat="45.14297" lon="6.10993">
        <ele>2428.8</ele>
        <time>2024-07-08T10:08:34Z</time>
      </trkpt>
      <trkpt lat="45.14296" lon="6.10993">
        <ele>2429</ele>
        <time>2024-07-08T10:08:35Z</time>
      </trkpt>
      <trkpt lat="45.14295" lon="6.10994">
        <ele>2429.1</ele>
        <time>2024-07-08T10:08:36Z</time>
      </trkpt>
      <trkpt lat="45.14295" lon="6.10994">
        <ele>2429.3</ele>
        <time>2024-07-08T10:08:37Z</time>
      </trkpt>
      <trkpt lat="45.14294" lon="6.10995">
        <ele>2429.3</ele>
        <time>2024-07-08T10:08:38Z</time>
      </trkpt>
      <trkpt lat="45.14294" lon="6.10995">
        <ele>2429.4</ele>
        <time>2024-07-08T10:08:39Z</time>
      </trkpt>
      <trkpt lat="45.14294" lon="6.10995">
        <ele>2429.5</ele>
        <time>2024-07-08T10:08:40Z</time>
      </trkpt>
      <trkpt lat="45.14295" lon="6.10995">
        <ele>2429.6</ele>
        <time>2024-07-08T10:08:41Z</time>
      </trkpt>
      <trkpt lat="45.14295" lon="6.10995">
        <ele>2429.7</ele>
        <time>2024-07-08T10:08:42Z</time>
      </trkpt>
      <trkpt lat="45.14295" lon="6.10995">
        <ele>2429.7</ele>
        <time>2024-07-08T10:08:43Z</time>
      </trkpt>
      <trkpt lat="45.14295" lon="6.10996">
        <ele>2429.7</ele>
        <time>2024-07-08T10:08:44Z</time>
      </trkpt>
      <trkpt lat="45.14296" lon="6.10996">
        <ele>2429.8</ele>
        <time>2024-07-08T10:08:45Z</time>
      </trkpt>
      <trkpt lat="45.14296" lon="6.10996">
        <ele>2429.9</ele>
        <time>2024-07-08T10:08:46Z</time>
      </trkpt>
      <trkpt lat="45.14297" lon="6.10996">
        <ele>2430</ele>
        <time>2024-07-08T10:08:47Z</time>
      </trkpt>
      <trkpt lat="45.14296" lon="6.10996">
        <ele>2430</ele>
        <time>2024-07-08T10:08:48Z</time>
      </trkpt>
      <trkpt lat="45.14296" lon="6.10996">
        <ele>2430</ele>
        <time>2024-07-08T10:08:49Z</time>
      </trkpt>
      <trkpt lat="45.14296" lon="6.10996">
        <ele>2430.1</ele>
        <time>2024-07-08T10:08:50Z</time>
      </trkpt>
      <trkpt lat="45.14297" lon="6.10996">
        <ele>2430.1</ele>
        <time>2024-07-08T10:08:51Z</time>
      </trkpt>
      <trkpt lat="45.14297" lon="6.10996">
        <ele>2430.2</ele>
        <time>2024-07-08T10:08:52Z</time>
      </trkpt>
      <trkpt lat="45.14297" lon="6.10997">
        <ele>2430.2</ele>
        <time>2024-07-08T10:08:53Z</time>
      </trkpt>
      <trkpt lat="45.14297" lon="6.10997">
        <ele>2430.3</ele>
        <time>2024-07-08T10:08:54Z</time>
      </trkpt>
      <trkpt lat="45.14297" lon="6.10997">
        <ele>2430.4</ele>
        <time>2024-07-08T10:08:55Z</time>
      </trkpt>
      <trkpt lat="45.14298" lon="6.10997">
        <ele>2430.5</ele>
        <time>2024-07-08T10:08:56Z</time>
      </trkpt>
      <trkpt lat="45.14298" lon="6.10997">
        <ele>2430.5</ele>
        <time>2024-07-08T10:08:57Z</time>
      </trkpt>
      <trkpt lat="45.14298" lon="6.10997">
        <ele>2430.5</ele>
        <time>2024-07-08T10:08:58Z</time>
      </trkpt>
      <trkpt lat="45.14298" lon="6.10997">
        <ele>2430.5</ele>
        <time>2024-07-08T10:08:59Z</time>
      </trkpt>
      <trkpt lat="45.14299" lon="6.10997">
        <ele>2430.7</ele>
        <time>2024-07-08T10:09:00Z</time>
      </trkpt>
      <trkpt lat="45.143" lon="6.10998">
        <ele>2430.8</ele>
        <time>2024-07-08T10:09:01Z</time>
      </trkpt>
      <trkpt lat="45.143" lon="6.10999">
        <ele>2431</ele>
        <time>2024-07-08T10:09:02Z</time>
      </trkpt>
      <trkpt lat="45.143" lon="6.11">
        <ele>2431.2</ele>
        <time>2024-07-08T10:09:03Z</time>
      </trkpt>
      <trkpt lat="45.14301" lon="6.11001">
        <ele>2431.3</ele>
        <time>2024-07-08T10:09:04Z</time>
      </trkpt>
      <trkpt lat="45.14301" lon="6.11002">
        <ele>2431.4</ele>
        <time>2024-07-08T10:09:05Z</time>
      </trkpt>
      <trkpt lat="45.14301" lon="6.11003">
        <ele>2431.6</ele>
        <time>2024-07-08T10:09:06Z</time>
      </trkpt>
      <trkpt lat="45.14301" lon="6.11003">
        <ele>2431.7</ele>
        <time>2024-07-08T10:09:07Z</time>
      </trkpt>
      <trkpt lat="45.14301" lon="6.11004">
        <ele>2431.8</ele>
        <time>2024-07-08T10:09:08Z</time>
      </trkpt>
      <trkpt lat="45.14302" lon="6.11005">
        <ele>2431.9</ele>
        <time>2024-07-08T10:09:09Z</time>
      </trkpt>
      <trkpt lat="45.14302" lon="6.11006">
        <ele>2432</ele>
        <time>2024-07-08T10:09:10Z</time>
      </trkpt>
      <trkpt lat="45.14302" lon="6.11007">
        <ele>2432.1</ele>
        <time>2024-07-08T10:09:11Z</time>
      </trkpt>
      <trkpt lat="45.14302" lon="6.11008">
        <ele>2432.2</ele>
        <time>2024-07-08T10:09:12Z</time>
      </trkpt>
      <trkpt lat="45.14302" lon="6.11009">
        <ele>2432.3</ele>
        <time>2024-07-08T10:09:13Z</time>
      </trkpt>
      <trkpt lat="45.14303" lon="6.11009">
        <ele>2432.4</ele>
        <time>2024-07-08T10:09:14Z</time>
      </trkpt>
      <trkpt lat="45.14303" lon="6.11009">
        <ele>2432.5</ele>
        <time>2024-07-08T10:09:15Z</time>
      </trkpt>
      <trkpt lat="45.14304" lon="6.11009">
        <ele>2432.6</ele>
        <time>2024-07-08T10:09:16Z</time>
      </trkpt>
      <trkpt lat="45.14305" lon="6.11009">
        <ele>2432.8</ele>
        <time>2024-07-08T10:09:17Z</time>
      </trkpt>
      <trkpt lat="45.14306" lon="6.11009">
        <ele>2432.9</ele>
        <time>2024-07-08T10:09:18Z</time>
      </trkpt>
      <trkpt lat="45.14306" lon="6.11009">
        <ele>2433.1</ele>
        <time>2024-07-08T10:09:19Z</time>
      </trkpt>
      <trkpt lat="45.14307" lon="6.1101">
        <ele>2433.2</ele>
        <time>2024-07-08T10:09:20Z</time>
      </trkpt>
      <trkpt lat="45.14308" lon="6.1101">
        <ele>2433.4</ele>
        <time>2024-07-08T10:09:21Z</time>
      </trkpt>
      <trkpt lat="45.14309" lon="6.11011">
        <ele>2433.5</ele>
        <time>2024-07-08T10:09:22Z</time>
      </trkpt>
      <trkpt lat="45.14309" lon="6.11012">
        <ele>2433.7</ele>
        <time>2024-07-08T10:09:23Z</time>
      </trkpt>
      <trkpt lat="45.1431" lon="6.11013">
        <ele>2433.8</ele>
        <time>2024-07-08T10:09:24Z</time>
      </trkpt>
      <trkpt lat="45.14312" lon="6.11014">
        <ele>2434.1</ele>
        <time>2024-07-08T10:09:25Z</time>
      </trkpt>
      <trkpt lat="45.14312" lon="6.11014">
        <ele>2434.2</ele>
        <time>2024-07-08T10:09:26Z</time>
      </trkpt>
      <trkpt lat="45.14313" lon="6.11014">
        <ele>2434.3</ele>
        <time>2024-07-08T10:09:27Z</time>
      </trkpt>
      <trkpt lat="45.14314" lon="6.11014">
        <ele>2434.4</ele>
        <time>2024-07-08T10:09:28Z</time>
      </trkpt>
      <trkpt lat="45.14315" lon="6.11014">
        <ele>2434.6</ele>
        <time>2024-07-08T10:09:29Z</time>
      </trkpt>
      <trkpt lat="45.14316" lon="6.11016">
        <ele>2434.9</ele>
        <time>2024-07-08T10:09:30Z</time>
      </trkpt>
      <trkpt lat="45.14317" lon="6.11016">
        <ele>2435</ele>
        <time>2024-07-08T10:09:31Z</time>
      </trkpt>
      <trkpt lat="45.14318" lon="6.11017">
        <ele>2435.1</ele>
        <time>2024-07-08T10:09:32Z</time>
      </trkpt>
      <trkpt lat="45.14318" lon="6.11018">
        <ele>2435.3</ele>
        <time>2024-07-08T10:09:33Z</time>
      </trkpt>
      <trkpt lat="45.14319" lon="6.11018">
        <ele>2435.4</ele>
        <time>2024-07-08T10:09:34Z</time>
      </trkpt>
      <trkpt lat="45.1432" lon="6.11019">
        <ele>2435.6</ele>
        <time>2024-07-08T10:09:35Z</time>
      </trkpt>
      <trkpt lat="45.14321" lon="6.11018">
        <ele>2435.7</ele>
        <time>2024-07-08T10:09:36Z</time>
      </trkpt>
      <trkpt lat="45.14322" lon="6.11019">
        <ele>2435.9</ele>
        <time>2024-07-08T10:09:37Z</time>
      </trkpt>
      <trkpt lat="45.14323" lon="6.11019">
        <ele>2436</ele>
        <time>2024-07-08T10:09:38Z</time>
      </trkpt>
      <trkpt lat="45.14323" lon="6.11019">
        <ele>2436.1</ele>
        <time>2024-07-08T10:09:39Z</time>
      </trkpt>
      <trkpt lat="45.14325" lon="6.1102">
        <ele>2436.3</ele>
        <time>2024-07-08T10:09:40Z</time>
      </trkpt>
      <trkpt lat="45.14325" lon="6.11019">
        <ele>2436.4</ele>
        <time>2024-07-08T10:09:41Z</time>
      </trkpt>
      <trkpt lat="45.14325" lon="6.11019">
        <ele>2436.5</ele>
        <time>2024-07-08T10:09:42Z</time>
      </trkpt>
      <trkpt lat="45.14326" lon="6.11018">
        <ele>2436.6</ele>
        <time>2024-07-08T10:09:43Z</time>
      </trkpt>
      <trkpt lat="45.14326" lon="6.11018">
        <ele>2436.7</ele>
        <time>2024-07-08T10:09:44Z</time>
      </trkpt>
      <trkpt lat="45.14327" lon="6.11017">
        <ele>2436.8</ele>
        <time>2024-07-08T10:09:45Z</time>
      </trkpt>
      <trkpt lat="45.14327" lon="6.11016">
        <ele>2436.9</ele>
        <time>2024-07-08T10:09:46Z</time>
      </trkpt>
      <trkpt lat="45.14328" lon="6.11015">
        <ele>2437</ele>
        <time>2024-07-08T10:09:47Z</time>
      </trkpt>
      <trkpt lat="45.14328" lon="6.11015">
        <ele>2437.1</ele>
        <time>2024-07-08T10:09:48Z</time>
      </trkpt>
      <trkpt lat="45.14328" lon="6.11015">
        <ele>2437.2</ele>
        <time>2024-07-08T10:09:49Z</time>
      </trkpt>
      <trkpt lat="45.14329" lon="6.11016">
        <ele>2437.3</ele>
        <time>2024-07-08T10:09:50Z</time>
      </trkpt>
      <trkpt lat="45.14329" lon="6.11016">
        <ele>2437.4</ele>
        <time>2024-07-08T10:09:51Z</time>
      </trkpt>
      <trkpt lat="45.1433" lon="6.11017">
        <ele>2437.5</ele>
        <time>2024-07-08T10:09:52Z</time>
      </trkpt>
      <trkpt lat="45.14331" lon="6.11018">
        <ele>2437.7</ele>
        <time>2024-07-08T10:09:53Z</time>
      </trkpt>
      <trkpt lat="45.14331" lon="6.11019">
        <ele>2437.8</ele>
        <time>2024-07-08T10:09:54Z</time>
      </trkpt>
      <trkpt lat="45.14331" lon="6.11021">
        <ele>2438</ele>
        <time>2024-07-08T10:09:55Z</time>
      </trkpt>
      <trkpt lat="45.14331" lon="6.11022">
        <ele>2438.1</ele>
        <time>2024-07-08T10:09:56Z</time>
      </trkpt>
      <trkpt lat="45.14332" lon="6.11023">
        <ele>2438.2</ele>
        <time>2024-07-08T10:09:57Z</time>
      </trkpt>
      <trkpt lat="45.14332" lon="6.11024">
        <ele>2438.3</ele>
        <time>2024-07-08T10:09:58Z</time>
      </trkpt>
      <trkpt lat="45.14332" lon="6.11025">
        <ele>2438.4</ele>
        <time>2024-07-08T10:09:59Z</time>
      </trkpt>
      <trkpt lat="45.14332" lon="6.11027">
        <ele>2438.6</ele>
        <time>2024-07-08T10:10:00Z</time>
      </trkpt>
      <trkpt lat="45.14332" lon="6.11027">
        <ele>2438.6</ele>
        <time>2024-07-08T10:10:01Z</time>
      </trkpt>
      <trkpt lat="45.14332" lon="6.11028">
        <ele>2438.7</ele>
        <time>2024-07-08T10:10:02Z</time>
      </trkpt>
      <trkpt lat="45.14333" lon="6.11028">
        <ele>2438.8</ele>
        <time>2024-07-08T10:10:03Z</time>
      </trkpt>
      <trkpt lat="45.14333" lon="6.11029">
        <ele>2438.9</ele>
        <time>2024-07-08T10:10:04Z</time>
      </trkpt>
      <trkpt lat="45.14333" lon="6.1103">
        <ele>2439</ele>
        <time>2024-07-08T10:10:05Z</time>
      </trkpt>
      <trkpt lat="45.14333" lon="6.11031">
        <ele>2439</ele>
        <time>2024-07-08T10:10:06Z</time>
      </trkpt>
      <trkpt lat="45.14333" lon="6.11032">
        <ele>2439.1</ele>
        <time>2024-07-08T10:10:07Z</time>
      </trkpt>
      <trkpt lat="45.14332" lon="6.11033">
        <ele>2439.2</ele>
        <time>2024-07-08T10:10:08Z</time>
      </trkpt>
      <trkpt lat="45.14332" lon="6.11034">
        <ele>2439.3</ele>
        <time>2024-07-08T10:10:09Z</time>
      </trkpt>
      <trkpt lat="45.14332" lon="6.11035">
        <ele>2439.4</ele>
        <time>2024-07-08T10:10:10Z</time>
      </trkpt>
      <trkpt lat="45.14333" lon="6.11035">
        <ele>2439.4</ele>
        <time>2024-07-08T10:10:11Z</time>
      </trkpt>
      <trkpt lat="45.14333" lon="6.11036">
        <ele>2439.5</ele>
        <time>2024-07-08T10:10:12Z</time>
      </trkpt>
      <trkpt lat="45.14333" lon="6.11036">
        <ele>2439.5</ele>
        <time>2024-07-08T10:10:13Z</time>
      </trkpt>
      <trkpt lat="45.14333" lon="6.11037">
        <ele>2439.6</ele>
        <time>2024-07-08T10:10:14Z</time>
      </trkpt>
      <trkpt lat="45.14333" lon="6.11038">
        <ele>2439.7</ele>
        <time>2024-07-08T10:10:15Z</time>
      </trkpt>
      <trkpt lat="45.14334" lon="6.11038">
        <ele>2439.7</ele>
        <time>2024-07-08T10:10:16Z</time>
      </trkpt>
      <trkpt lat="45.14334" lon="6.11039">
        <ele>2439.8</ele>
        <time>2024-07-08T10:10:17Z</time>
      </trkpt>
      <trkpt lat="45.14334" lon="6.1104">
        <ele>2439.8</ele>
        <time>2024-07-08T10:10:18Z</time>
      </trkpt>
      <trkpt lat="45.14334" lon="6.11041">
        <ele>2439.9</ele>
        <time>2024-07-08T10:10:19Z</time>
      </trkpt>
      <trkpt lat="45.14335" lon="6.11042">
        <ele>2440.1</ele>
        <time>2024-07-08T10:10:20Z</time>
      </trkpt>
      <trkpt lat="45.14335" lon="6.11042">
        <ele>2440.2</ele>
        <time>2024-07-08T10:10:21Z</time>
      </trkpt>
      <trkpt lat="45.14336" lon="6.11043">
        <ele>2440.2</ele>
        <time>2024-07-08T10:10:22Z</time>
      </trkpt>
      <trkpt lat="45.14336" lon="6.11043">
        <ele>2440.3</ele>
        <time>2024-07-08T10:10:23Z</time>
      </trkpt>
      <trkpt lat="45.14336" lon="6.11045">
        <ele>2440.4</ele>
        <time>2024-07-08T10:10:24Z</time>
      </trkpt>
      <trkpt lat="45.14337" lon="6.11045">
        <ele>2440.4</ele>
        <time>2024-07-08T10:10:25Z</time>
      </trkpt>
      <trkpt lat="45.14337" lon="6.11046">
        <ele>2440.5</ele>
        <time>2024-07-08T10:10:26Z</time>
      </trkpt>
      <trkpt lat="45.14338" lon="6.11047">
        <ele>2440.6</ele>
        <time>2024-07-08T10:10:27Z</time>
      </trkpt>
      <trkpt lat="45.14338" lon="6.11048">
        <ele>2440.7</ele>
        <time>2024-07-08T10:10:28Z</time>
      </trkpt>
      <trkpt lat="45.14339" lon="6.11049">
        <ele>2440.7</ele>
        <time>2024-07-08T10:10:29Z</time>
      </trkpt>
      <trkpt lat="45.14339" lon="6.11049">
        <ele>2440.8</ele>
        <time>2024-07-08T10:10:30Z</time>
      </trkpt>
      <trkpt lat="45.14339" lon="6.1105">
        <ele>2440.8</ele>
        <time>2024-07-08T10:10:31Z</time>
      </trkpt>
      <trkpt lat="45.1434" lon="6.11051">
        <ele>2440.9</ele>
        <time>2024-07-08T10:10:32Z</time>
      </trkpt>
      <trkpt lat="45.1434" lon="6.11052">
        <ele>2441</ele>
        <time>2024-07-08T10:10:33Z</time>
      </trkpt>
      <trkpt lat="45.14341" lon="6.11052">
        <ele>2441.1</ele>
        <time>2024-07-08T10:10:34Z</time>
      </trkpt>
      <trkpt lat="45.14342" lon="6.11053">
        <ele>2441.2</ele>
        <time>2024-07-08T10:10:35Z</time>
      </trkpt>
      <trkpt lat="45.14342" lon="6.11053">
        <ele>2441.2</ele>
        <time>2024-07-08T10:10:36Z</time>
      </trkpt>
      <trkpt lat="45.14343" lon="6.11054">
        <ele>2441.3</ele>
        <time>2024-07-08T10:10:37Z</time>
      </trkpt>
      <trkpt lat="45.14345" lon="6.11055">
        <ele>2441.5</ele>
        <time>2024-07-08T10:10:38Z</time>
      </trkpt>
      <trkpt lat="45.14346" lon="6.11055">
        <ele>2441.6</ele>
        <time>2024-07-08T10:10:39Z</time>
      </trkpt>
      <trkpt lat="45.14347" lon="6.11055">
        <ele>2441.7</ele>
        <time>2024-07-08T10:10:40Z</time>
      </trkpt>
      <trkpt lat="45.14348" lon="6.11055">
        <ele>2441.7</ele>
        <time>2024-07-08T10:10:41Z</time>
      </trkpt>
      <trkpt lat="45.14348" lon="6.11055">
        <ele>2441.8</ele>
        <time>2024-07-08T10:10:42Z</time>
      </trkpt>
      <trkpt lat="45.14349" lon="6.11056">
        <ele>2441.9</ele>
        <time>2024-07-08T10:10:43Z</time>
      </trkpt>
      <trkpt lat="45.14349" lon="6.11057">
        <ele>2441.9</ele>
        <time>2024-07-08T10:10:44Z</time>
      </trkpt>
      <trkpt lat="45.1435" lon="6.11058">
        <ele>2442</ele>
        <time>2024-07-08T10:10:45Z</time>
      </trkpt>
      <trkpt lat="45.1435" lon="6.11058">
        <ele>2442</ele>
        <time>2024-07-08T10:10:46Z</time>
      </trkpt>
      <trkpt lat="45.1435" lon="6.11059">
        <ele>2442.1</ele>
        <time>2024-07-08T10:10:47Z</time>
      </trkpt>
      <trkpt lat="45.14351" lon="6.11059">
        <ele>2442.1</ele>
        <time>2024-07-08T10:10:48Z</time>
      </trkpt>
      <trkpt lat="45.14351" lon="6.1106">
        <ele>2442.2</ele>
        <time>2024-07-08T10:10:49Z</time>
      </trkpt>
      <trkpt lat="45.14352" lon="6.11061">
        <ele>2442.3</ele>
        <time>2024-07-08T10:10:50Z</time>
      </trkpt>
      <trkpt lat="45.14352" lon="6.11061">
        <ele>2442.3</ele>
        <time>2024-07-08T10:10:51Z</time>
      </trkpt>
      <trkpt lat="45.14352" lon="6.11062">
        <ele>2442.3</ele>
        <time>2024-07-08T10:10:52Z</time>
      </trkpt>
      <trkpt lat="45.14353" lon="6.11062">
        <ele>2442.4</ele>
        <time>2024-07-08T10:10:53Z</time>
      </trkpt>
      <trkpt lat="45.14353" lon="6.11062">
        <ele>2442.4</ele>
        <time>2024-07-08T10:10:54Z</time>
      </trkpt>
      <trkpt lat="45.14354" lon="6.11062">
        <ele>2442.4</ele>
        <time>2024-07-08T10:10:55Z</time>
      </trkpt>
      <trkpt lat="45.14354" lon="6.11063">
        <ele>2442.5</ele>
        <time>2024-07-08T10:10:56Z</time>
      </trkpt>
      <trkpt lat="45.14354" lon="6.11063">
        <ele>2442.5</ele>
        <time>2024-07-08T10:10:57Z</time>
      </trkpt>
      <trkpt lat="45.14355" lon="6.11064">
        <ele>2442.6</ele>
        <time>2024-07-08T10:10:58Z</time>
      </trkpt>
      <trkpt lat="45.14355" lon="6.11064">
        <ele>2442.6</ele>
        <time>2024-07-08T10:10:59Z</time>
      </trkpt>
      <trkpt lat="45.14356" lon="6.11066">
        <ele>2442.7</ele>
        <time>2024-07-08T10:11:00Z</time>
      </trkpt>
      <trkpt lat="45.14356" lon="6.11066">
        <ele>2442.7</ele>
        <time>2024-07-08T10:11:01Z</time>
      </trkpt>
      <trkpt lat="45.14356" lon="6.11066">
        <ele>2442.8</ele>
        <time>2024-07-08T10:11:02Z</time>
      </trkpt>
      <trkpt lat="45.14357" lon="6.11067">
        <ele>2442.8</ele>
        <time>2024-07-08T10:11:03Z</time>
      </trkpt>
      <trkpt lat="45.14357" lon="6.11067">
        <ele>2442.9</ele>
        <time>2024-07-08T10:11:04Z</time>
      </trkpt>
      <trkpt lat="45.14358" lon="6.11068">
        <ele>2442.9</ele>
        <time>2024-07-08T10:11:05Z</time>
      </trkpt>
      <trkpt lat="45.14358" lon="6.11068">
        <ele>2443</ele>
        <time>2024-07-08T10:11:06Z</time>
      </trkpt>
      <trkpt lat="45.14359" lon="6.11068">
        <ele>2443</ele>
        <time>2024-07-08T10:11:07Z</time>
      </trkpt>
      <trkpt lat="45.14359" lon="6.11069">
        <ele>2443.1</ele>
        <time>2024-07-08T10:11:08Z</time>
      </trkpt>
      <trkpt lat="45.14359" lon="6.11069">
        <ele>2443.2</ele>
        <time>2024-07-08T10:11:09Z</time>
      </trkpt>
      <trkpt lat="45.14359" lon="6.1107">
        <ele>2443.2</ele>
        <time>2024-07-08T10:11:10Z</time>
      </trkpt>
      <trkpt lat="45.14359" lon="6.11071">
        <ele>2443.3</ele>
        <time>2024-07-08T10:11:11Z</time>
      </trkpt>
      <trkpt lat="45.14359" lon="6.11071">
        <ele>2443.3</ele>
        <time>2024-07-08T10:11:12Z</time>
      </trkpt>
      <trkpt lat="45.14359" lon="6.11072">
        <ele>2443.4</ele>
        <time>2024-07-08T10:11:13Z</time>
      </trkpt>
      <trkpt lat="45.14359" lon="6.11072">
        <ele>2443.4</ele>
        <time>2024-07-08T10:11:14Z</time>
      </trkpt>
      <trkpt lat="45.14359" lon="6.11073">
        <ele>2443.4</ele>
        <time>2024-07-08T10:11:15Z</time>
      </trkpt>
      <trkpt lat="45.1436" lon="6.11074">
        <ele>2443.5</ele>
        <time>2024-07-08T10:11:16Z</time>
      </trkpt>
      <trkpt lat="45.1436" lon="6.11074">
        <ele>2443.5</ele>
        <time>2024-07-08T10:11:17Z</time>
      </trkpt>
      <trkpt lat="45.14361" lon="6.11074">
        <ele>2443.6</ele>
        <time>2024-07-08T10:11:18Z</time>
      </trkpt>
      <trkpt lat="45.14361" lon="6.11075">
        <ele>2443.6</ele>
        <time>2024-07-08T10:11:19Z</time>
      </trkpt>
      <trkpt lat="45.14361" lon="6.11075">
        <ele>2443.7</ele>
        <time>2024-07-08T10:11:20Z</time>
      </trkpt>
      <trkpt lat="45.14362" lon="6.11076">
        <ele>2443.8</ele>
        <time>2024-07-08T10:11:21Z</time>
      </trkpt>
      <trkpt lat="45.14362" lon="6.11076">
        <ele>2443.8</ele>
        <time>2024-07-08T10:11:22Z</time>
      </trkpt>
      <trkpt lat="45.14362" lon="6.11076">
        <ele>2443.8</ele>
        <time>2024-07-08T10:11:23Z</time>
      </trkpt>
      <trkpt lat="45.14362" lon="6.11076">
        <ele>2443.9</ele>
        <time>2024-07-08T10:11:24Z</time>
      </trkpt>
      <trkpt lat="45.14362" lon="6.11077">
        <ele>2443.9</ele>
        <time>2024-07-08T10:11:25Z</time>
      </trkpt>
      <trkpt lat="45.14363" lon="6.11077">
        <ele>2444</ele>
        <time>2024-07-08T10:11:26Z</time>
      </trkpt>
      <trkpt lat="45.14363" lon="6.11077">
        <ele>2444</ele>
        <time>2024-07-08T10:11:27Z</time>
      </trkpt>
      <trkpt lat="45.14363" lon="6.11077">
        <ele>2444.1</ele>
        <time>2024-07-08T10:11:28Z</time>
      </trkpt>
      <trkpt lat="45.14364" lon="6.11078">
        <ele>2444.1</ele>
        <time>2024-07-08T10:11:29Z</time>
      </trkpt>
      <trkpt lat="45.14364" lon="6.11078">
        <ele>2444.2</ele>
        <time>2024-07-08T10:11:30Z</time>
      </trkpt>
      <trkpt lat="45.14365" lon="6.11079">
        <ele>2444.3</ele>
        <time>2024-07-08T10:11:31Z</time>
      </trkpt>
      <trkpt lat="45.14365" lon="6.11079">
        <ele>2444.4</ele>
        <time>2024-07-08T10:11:32Z</time>
      </trkpt>
      <trkpt lat="45.14365" lon="6.11079">
        <ele>2444.4</ele>
        <time>2024-07-08T10:11:33Z</time>
      </trkpt>
      <trkpt lat="45.14365" lon="6.1108">
        <ele>2444.5</ele>
        <time>2024-07-08T10:11:34Z</time>
      </trkpt>
      <trkpt lat="45.14366" lon="6.1108">
        <ele>2444.5</ele>
        <time>2024-07-08T10:11:35Z</time>
      </trkpt>
      <trkpt lat="45.14366" lon="6.1108">
        <ele>2444.6</ele>
        <time>2024-07-08T10:11:36Z</time>
      </trkpt>
      <trkpt lat="45.14366" lon="6.11081">
        <ele>2444.6</ele>
        <time>2024-07-08T10:11:37Z</time>
      </trkpt>
      <trkpt lat="45.14367" lon="6.11081">
        <ele>2444.7</ele>
        <time>2024-07-08T10:11:38Z</time>
      </trkpt>
      <trkpt lat="45.14367" lon="6.11081">
        <ele>2444.8</ele>
        <time>2024-07-08T10:11:39Z</time>
      </trkpt>
      <trkpt lat="45.14368" lon="6.11082">
        <ele>2444.9</ele>
        <time>2024-07-08T10:11:40Z</time>
      </trkpt>
      <trkpt lat="45.14369" lon="6.11084">
        <ele>2445.2</ele>
        <time>2024-07-08T10:11:41Z</time>
      </trkpt>
      <trkpt lat="45.14369" lon="6.11085">
        <ele>2445.3</ele>
        <time>2024-07-08T10:11:42Z</time>
      </trkpt>
      <trkpt lat="45.14369" lon="6.11088">
        <ele>2445.6</ele>
        <time>2024-07-08T10:11:43Z</time>
      </trkpt>
      <trkpt lat="45.14369" lon="6.11089">
        <ele>2445.8</ele>
        <time>2024-07-08T10:11:44Z</time>
      </trkpt>
      <trkpt lat="45.14369" lon="6.1109">
        <ele>2446</ele>
        <time>2024-07-08T10:11:45Z</time>
      </trkpt>
      <trkpt lat="45.14369" lon="6.11092">
        <ele>2446.3</ele>
        <time>2024-07-08T10:11:46Z</time>
      </trkpt>
      <trkpt lat="45.1437" lon="6.11093">
        <ele>2446.5</ele>
        <time>2024-07-08T10:11:47Z</time>
      </trkpt>
      <trkpt lat="45.1437" lon="6.11094">
        <ele>2446.6</ele>
        <time>2024-07-08T10:11:48Z</time>
      </trkpt>
      <trkpt lat="45.1437" lon="6.11096">
        <ele>2446.9</ele>
        <time>2024-07-08T10:11:49Z</time>
      </trkpt>
      <trkpt lat="45.14371" lon="6.11097">
        <ele>2447.1</ele>
        <time>2024-07-08T10:11:50Z</time>
      </trkpt>
      <trkpt lat="45.14371" lon="6.11098">
        <ele>2447.3</ele>
        <time>2024-07-08T10:11:51Z</time>
      </trkpt>
      <trkpt lat="45.14371" lon="6.111">
        <ele>2447.5</ele>
        <time>2024-07-08T10:11:52Z</time>
      </trkpt>
      <trkpt lat="45.14372" lon="6.111">
        <ele>2447.7</ele>
        <time>2024-07-08T10:11:53Z</time>
      </trkpt>
      <trkpt lat="45.14372" lon="6.11101">
        <ele>2447.9</ele>
        <time>2024-07-08T10:11:54Z</time>
      </trkpt>
      <trkpt lat="45.14373" lon="6.11101">
        <ele>2448</ele>
        <time>2024-07-08T10:11:55Z</time>
      </trkpt>
      <trkpt lat="45.14374" lon="6.11101">
        <ele>2448.2</ele>
        <time>2024-07-08T10:11:56Z</time>
      </trkpt>
      <trkpt lat="45.14374" lon="6.11102">
        <ele>2448.4</ele>
        <time>2024-07-08T10:11:57Z</time>
      </trkpt>
      <trkpt lat="45.14375" lon="6.11102">
        <ele>2448.5</ele>
        <time>2024-07-08T10:11:58Z</time>
      </trkpt>
      <trkpt lat="45.14375" lon="6.11102">
        <ele>2448.6</ele>
        <time>2024-07-08T10:11:59Z</time>
      </trkpt>
      <trkpt lat="45.14375" lon="6.11102">
        <ele>2448.7</ele>
        <time>2024-07-08T10:12:00Z</time>
      </trkpt>
      <trkpt lat="45.14375" lon="6.11102">
        <ele>2448.8</ele>
        <time>2024-07-08T10:12:01Z</time>
      </trkpt>
      <trkpt lat="45.14375" lon="6.11101">
        <ele>2448.8</ele>
        <time>2024-07-08T10:12:02Z</time>
      </trkpt>
      <trkpt lat="45.14375" lon="6.11101">
        <ele>2448.9</ele>
        <time>2024-07-08T10:12:03Z</time>
      </trkpt>
      <trkpt lat="45.14375" lon="6.11101">
        <ele>2449</ele>
        <time>2024-07-08T10:12:04Z</time>
      </trkpt>
      <trkpt lat="45.14376" lon="6.111">
        <ele>2449</ele>
        <time>2024-07-08T10:12:05Z</time>
      </trkpt>
      <trkpt lat="45.14376" lon="6.11101">
        <ele>2449.1</ele>
        <time>2024-07-08T10:12:06Z</time>
      </trkpt>
      <trkpt lat="45.14376" lon="6.11101">
        <ele>2449.2</ele>
        <time>2024-07-08T10:12:07Z</time>
      </trkpt>
      <trkpt lat="45.14377" lon="6.11102">
        <ele>2449.4</ele>
        <time>2024-07-08T10:12:08Z</time>
      </trkpt>
      <trkpt lat="45.14377" lon="6.11103">
        <ele>2449.5</ele>
        <time>2024-07-08T10:12:09Z</time>
      </trkpt>
      <trkpt lat="45.14377" lon="6.11103">
        <ele>2449.7</ele>
        <time>2024-07-08T10:12:10Z</time>
      </trkpt>
      <trkpt lat="45.14377" lon="6.11104">
        <ele>2449.8</ele>
        <time>2024-07-08T10:12:11Z</time>
      </trkpt>
      <trkpt lat="45.14377" lon="6.11105">
        <ele>2450</ele>
        <time>2024-07-08T10:12:12Z</time>
      </trkpt>
      <trkpt lat="45.14377" lon="6.11105">
        <ele>2450.1</ele>
        <time>2024-07-08T10:12:13Z</time>
      </trkpt>
      <trkpt lat="45.14377" lon="6.11106">
        <ele>2450.2</ele>
        <time>2024-07-08T10:12:14Z</time>
      </trkpt>
      <trkpt lat="45.14377" lon="6.11106">
        <ele>2450.3</ele>
        <time>2024-07-08T10:12:15Z</time>
      </trkpt>
      <trkpt lat="45.14377" lon="6.11107">
        <ele>2450.5</ele>
        <time>2024-07-08T10:12:16Z</time>
      </trkpt>
      <trkpt lat="45.14377" lon="6.11108">
        <ele>2450.6</ele>
        <time>2024-07-08T10:12:17Z</time>
      </trkpt>
      <trkpt lat="45.14377" lon="6.11109">
        <ele>2450.9</ele>
        <time>2024-07-08T10:12:18Z</time>
      </trkpt>
      <trkpt lat="45.14377" lon="6.1111">
        <ele>2451.1</ele>
        <time>2024-07-08T10:12:19Z</time>
      </trkpt>
      <trkpt lat="45.14377" lon="6.11112">
        <ele>2451.4</ele>
        <time>2024-07-08T10:12:20Z</time>
      </trkpt>
      <trkpt lat="45.14376" lon="6.11114">
        <ele>2451.9</ele>
        <time>2024-07-08T10:12:21Z</time>
      </trkpt>
      <trkpt lat="45.14376" lon="6.11113">
        <ele>2452</ele>
        <time>2024-07-08T10:12:22Z</time>
      </trkpt>
      <trkpt lat="45.14376" lon="6.11113">
        <ele>2452</ele>
        <time>2024-07-08T10:12:23Z</time>
      </trkpt>
      <trkpt lat="45.14376" lon="6.11113">
        <ele>2452.1</ele>
        <time>2024-07-08T10:12:24Z</time>
      </trkpt>
      <trkpt lat="45.14376" lon="6.11114">
        <ele>2452.2</ele>
        <time>2024-07-08T10:12:25Z</time>
      </trkpt>
      <trkpt lat="45.14377" lon="6.11113">
        <ele>2452.4</ele>
        <time>2024-07-08T10:12:26Z</time>
      </trkpt>
      <trkpt lat="45.14377" lon="6.11113">
        <ele>2452.5</ele>
        <time>2024-07-08T10:12:27Z</time>
      </trkpt>
      <trkpt lat="45.14378" lon="6.11113">
        <ele>2452.7</ele>
        <time>2024-07-08T10:12:28Z</time>
      </trkpt>
      <trkpt lat="45.14378" lon="6.11113">
        <ele>2452.8</ele>
        <time>2024-07-08T10:12:29Z</time>
      </trkpt>
      <trkpt lat="45.14378" lon="6.11113">
        <ele>2452.9</ele>
        <time>2024-07-08T10:12:30Z</time>
      </trkpt>
      <trkpt lat="45.14379" lon="6.11114">
        <ele>2453</ele>
        <time>2024-07-08T10:12:31Z</time>
      </trkpt>
      <trkpt lat="45.14379" lon="6.11114">
        <ele>2453.1</ele>
        <time>2024-07-08T10:12:32Z</time>
      </trkpt>
      <trkpt lat="45.14379" lon="6.11114">
        <ele>2453.1</ele>
        <time>2024-07-08T10:12:33Z</time>
      </trkpt>
      <trkpt lat="45.14379" lon="6.11114">
        <ele>2453.2</ele>
        <time>2024-07-08T10:12:34Z</time>
      </trkpt>
      <trkpt lat="45.14379" lon="6.11115">
        <ele>2453.3</ele>
        <time>2024-07-08T10:12:35Z</time>
      </trkpt>
      <trkpt lat="45.1438" lon="6.11114">
        <ele>2453.5</ele>
        <time>2024-07-08T10:12:36Z</time>
      </trkpt>
      <trkpt lat="45.1438" lon="6.11114">
        <ele>2453.6</ele>
        <time>2024-07-08T10:12:37Z</time>
      </trkpt>
      <trkpt lat="45.14381" lon="6.11114">
        <ele>2453.7</ele>
        <time>2024-07-08T10:12:38Z</time>
      </trkpt>
      <trkpt lat="45.14381" lon="6.11114">
        <ele>2453.9</ele>
        <time>2024-07-08T10:12:39Z</time>
      </trkpt>
      <trkpt lat="45.14381" lon="6.11114">
        <ele>2454</ele>
        <time>2024-07-08T10:12:40Z</time>
      </trkpt>
      <trkpt lat="45.14382" lon="6.11114">
        <ele>2454.2</ele>
        <time>2024-07-08T10:12:41Z</time>
      </trkpt>
      <trkpt lat="45.14382" lon="6.11114">
        <ele>2454.3</ele>
        <time>2024-07-08T10:12:42Z</time>
      </trkpt>
      <trkpt lat="45.14383" lon="6.11114">
        <ele>2454.4</ele>
        <time>2024-07-08T10:12:43Z</time>
      </trkpt>
      <trkpt lat="45.14383" lon="6.11113">
        <ele>2454.6</ele>
        <time>2024-07-08T10:12:44Z</time>
      </trkpt>
      <trkpt lat="45.14384" lon="6.11113">
        <ele>2454.7</ele>
        <time>2024-07-08T10:12:45Z</time>
      </trkpt>
      <trkpt lat="45.14385" lon="6.11113">
        <ele>2455</ele>
        <time>2024-07-08T10:12:46Z</time>
      </trkpt>
      <trkpt lat="45.14385" lon="6.11114">
        <ele>2455.2</ele>
        <time>2024-07-08T10:12:47Z</time>
      </trkpt>
      <trkpt lat="45.14385" lon="6.11115">
        <ele>2455.4</ele>
        <time>2024-07-08T10:12:48Z</time>
      </trkpt>
      <trkpt lat="45.14386" lon="6.11116">
        <ele>2455.7</ele>
        <time>2024-07-08T10:12:49Z</time>
      </trkpt>
      <trkpt lat="45.14386" lon="6.11117">
        <ele>2455.9</ele>
        <time>2024-07-08T10:12:50Z</time>
      </trkpt>
      <trkpt lat="45.14387" lon="6.11117">
        <ele>2456.1</ele>
        <time>2024-07-08T10:12:51Z</time>
      </trkpt>
      <trkpt lat="45.14386" lon="6.11118">
        <ele>2456.3</ele>
        <time>2024-07-08T10:12:52Z</time>
      </trkpt>
      <trkpt lat="45.14387" lon="6.11119">
        <ele>2456.5</ele>
        <time>2024-07-08T10:12:53Z</time>
      </trkpt>
      <trkpt lat="45.14387" lon="6.1112">
        <ele>2456.7</ele>
        <time>2024-07-08T10:12:54Z</time>
      </trkpt>
      <trkpt lat="45.14387" lon="6.11121">
        <ele>2456.9</ele>
        <time>2024-07-08T10:12:55Z</time>
      </trkpt>
      <trkpt lat="45.14387" lon="6.11122">
        <ele>2457.2</ele>
        <time>2024-07-08T10:12:56Z</time>
      </trkpt>
      <trkpt lat="45.14386" lon="6.11124">
        <ele>2457.5</ele>
        <time>2024-07-08T10:12:57Z</time>
      </trkpt>
      <trkpt lat="45.14386" lon="6.11125">
        <ele>2457.8</ele>
        <time>2024-07-08T10:12:58Z</time>
      </trkpt>
      <trkpt lat="45.14386" lon="6.11127">
        <ele>2458.1</ele>
        <time>2024-07-08T10:12:59Z</time>
      </trkpt>
      <trkpt lat="45.14385" lon="6.11128">
        <ele>2458.5</ele>
        <time>2024-07-08T10:13:00Z</time>
      </trkpt>
      <trkpt lat="45.14384" lon="6.1113">
        <ele>2459</ele>
        <time>2024-07-08T10:13:01Z</time>
      </trkpt>
      <trkpt lat="45.14383" lon="6.1113">
        <ele>2459.2</ele>
        <time>2024-07-08T10:13:02Z</time>
      </trkpt>
      <trkpt lat="45.14382" lon="6.11131">
        <ele>2459.6</ele>
        <time>2024-07-08T10:13:03Z</time>
      </trkpt>
      <trkpt lat="45.14381" lon="6.11132">
        <ele>2459.9</ele>
        <time>2024-07-08T10:13:04Z</time>
      </trkpt>
      <trkpt lat="45.14379" lon="6.11131">
        <ele>2460.3</ele>
        <time>2024-07-08T10:13:05Z</time>
      </trkpt>
      <trkpt lat="45.14378" lon="6.11129">
        <ele>2460.7</ele>
        <time>2024-07-08T10:13:06Z</time>
      </trkpt>
      <trkpt lat="45.14378" lon="6.11129">
        <ele>2460.9</ele>
        <time>2024-07-08T10:13:07Z</time>
      </trkpt>
      <trkpt lat="45.14377" lon="6.11128">
        <ele>2461.1</ele>
        <time>2024-07-08T10:13:08Z</time>
      </trkpt>
      <trkpt lat="45.14377" lon="6.11128">
        <ele>2461.2</ele>
        <time>2024-07-08T10:13:09Z</time>
      </trkpt>
      <trkpt lat="45.14377" lon="6.11128">
        <ele>2461.3</ele>
        <time>2024-07-08T10:13:10Z</time>
      </trkpt>
      <trkpt lat="45.14376" lon="6.11128">
        <ele>2461.5</ele>
        <time>2024-07-08T10:13:11Z</time>
      </trkpt>
      <trkpt lat="45.14376" lon="6.11128">
        <ele>2461.5</ele>
        <time>2024-07-08T10:13:12Z</time>
      </trkpt>
      <trkpt lat="45.14375" lon="6.11128">
        <ele>2461.6</ele>
        <time>2024-07-08T10:13:13Z</time>
      </trkpt>
      <trkpt lat="45.14375" lon="6.11128">
        <ele>2461.7</ele>
        <time>2024-07-08T10:13:14Z</time>
      </trkpt>
      <trkpt lat="45.14375" lon="6.11128">
        <ele>2461.8</ele>
        <time>2024-07-08T10:13:15Z</time>
      </trkpt>
      <trkpt lat="45.14374" lon="6.11128">
        <ele>2461.9</ele>
        <time>2024-07-08T10:13:16Z</time>
      </trkpt>
      <trkpt lat="45.14374" lon="6.11128">
        <ele>2462.1</ele>
        <time>2024-07-08T10:13:17Z</time>
      </trkpt>
      <trkpt lat="45.14373" lon="6.11128">
        <ele>2462.2</ele>
        <time>2024-07-08T10:13:18Z</time>
      </trkpt>
      <trkpt lat="45.14373" lon="6.11128">
        <ele>2462.3</ele>
        <time>2024-07-08T10:13:19Z</time>
      </trkpt>
      <trkpt lat="45.14372" lon="6.11127">
        <ele>2462.5</ele>
        <time>2024-07-08T10:13:20Z</time>
      </trkpt>
      <trkpt lat="45.14372" lon="6.11126">
        <ele>2462.7</ele>
        <time>2024-07-08T10:13:21Z</time>
      </trkpt>
      <trkpt lat="45.14372" lon="6.11125">
        <ele>2462.8</ele>
        <time>2024-07-08T10:13:22Z</time>
      </trkpt>
      <trkpt lat="45.14371" lon="6.11125">
        <ele>2463</ele>
        <time>2024-07-08T10:13:23Z</time>
      </trkpt>
      <trkpt lat="45.14371" lon="6.11125">
        <ele>2463.1</ele>
        <time>2024-07-08T10:13:24Z</time>
      </trkpt>
      <trkpt lat="45.14371" lon="6.11125">
        <ele>2463.2</ele>
        <time>2024-07-08T10:13:25Z</time>
      </trkpt>
      <trkpt lat="45.1437" lon="6.11125">
        <ele>2463.2</ele>
        <time>2024-07-08T10:13:26Z</time>
      </trkpt>
      <trkpt lat="45.1437" lon="6.11125">
        <ele>2463.2</ele>
        <time>2024-07-08T10:13:27Z</time>
      </trkpt>
      <trkpt lat="45.1437" lon="6.11125">
        <ele>2463.3</ele>
        <time>2024-07-08T10:13:28Z</time>
      </trkpt>
      <trkpt lat="45.1437" lon="6.11125">
        <ele>2463.4</ele>
        <time>2024-07-08T10:13:29Z</time>
      </trkpt>
      <trkpt lat="45.14369" lon="6.11126">
        <ele>2463.5</ele>
        <time>2024-07-08T10:13:30Z</time>
      </trkpt>
      <trkpt lat="45.14369" lon="6.11126">
        <ele>2463.7</ele>
        <time>2024-07-08T10:13:31Z</time>
      </trkpt>
      <trkpt lat="45.14368" lon="6.11126">
        <ele>2463.8</ele>
        <time>2024-07-08T10:13:32Z</time>
      </trkpt>
      <trkpt lat="45.14368" lon="6.11126">
        <ele>2463.9</ele>
        <time>2024-07-08T10:13:33Z</time>
      </trkpt>
      <trkpt lat="45.14368" lon="6.11127">
        <ele>2463.9</ele>
        <time>2024-07-08T10:13:34Z</time>
      </trkpt>
      <trkpt lat="45.14368" lon="6.11127">
        <ele>2464</ele>
        <time>2024-07-08T10:13:35Z</time>
      </trkpt>
      <trkpt lat="45.14368" lon="6.11127">
        <ele>2464</ele>
        <time>2024-07-08T10:13:36Z</time>
      </trkpt>
      <trkpt lat="45.14367" lon="6.11127">
        <ele>2464.1</ele>
        <time>2024-07-08T10:13:37Z</time>
      </trkpt>
      <trkpt lat="45.14367" lon="6.11127">
        <ele>2464.2</ele>
        <time>2024-07-08T10:13:38Z</time>
      </trkpt>
      <trkpt lat="45.14366" lon="6.11127">
        <ele>2464.4</ele>
        <time>2024-07-08T10:13:39Z</time>
      </trkpt>
      <trkpt lat="45.14366" lon="6.11127">
        <ele>2464.5</ele>
        <time>2024-07-08T10:13:40Z</time>
      </trkpt>
      <trkpt lat="45.14364" lon="6.11127">
        <ele>2464.8</ele>
        <time>2024-07-08T10:13:41Z</time>
      </trkpt>
      <trkpt lat="45.14364" lon="6.11126">
        <ele>2464.9</ele>
        <time>2024-07-08T10:13:42Z</time>
      </trkpt>
      <trkpt lat="45.14363" lon="6.11126">
        <ele>2465.1</ele>
        <time>2024-07-08T10:13:43Z</time>
      </trkpt>
      <trkpt lat="45.14363" lon="6.11126">
        <ele>2465.3</ele>
        <time>2024-07-08T10:13:44Z</time>
      </trkpt>
      <trkpt lat="45.14362" lon="6.11126">
        <ele>2465.4</ele>
        <time>2024-07-08T10:13:45Z</time>
      </trkpt>
      <trkpt lat="45.14362" lon="6.11125">
        <ele>2465.5</ele>
        <time>2024-07-08T10:13:46Z</time>
      </trkpt>
      <trkpt lat="45.14361" lon="6.11126">
        <ele>2465.7</ele>
        <time>2024-07-08T10:13:47Z</time>
      </trkpt>
      <trkpt lat="45.14361" lon="6.11126">
        <ele>2465.8</ele>
        <time>2024-07-08T10:13:48Z</time>
      </trkpt>
      <trkpt lat="45.1436" lon="6.11126">
        <ele>2465.9</ele>
        <time>2024-07-08T10:13:49Z</time>
      </trkpt>
      <trkpt lat="45.1436" lon="6.11126">
        <ele>2466.1</ele>
        <time>2024-07-08T10:13:50Z</time>
      </trkpt>
      <trkpt lat="45.14359" lon="6.11125">
        <ele>2466.3</ele>
        <time>2024-07-08T10:13:51Z</time>
      </trkpt>
      <trkpt lat="45.14358" lon="6.11125">
        <ele>2466.4</ele>
        <time>2024-07-08T10:13:52Z</time>
      </trkpt>
      <trkpt lat="45.14358" lon="6.11125">
        <ele>2466.4</ele>
        <time>2024-07-08T10:13:53Z</time>
      </trkpt>
      <trkpt lat="45.14358" lon="6.11125">
        <ele>2466.4</ele>
        <time>2024-07-08T10:13:54Z</time>
      </trkpt>
      <trkpt lat="45.14358" lon="6.11125">
        <ele>2466.5</ele>
        <time>2024-07-08T10:13:55Z</time>
      </trkpt>
      <trkpt lat="45.14358" lon="6.11125">
        <ele>2466.7</ele>
        <time>2024-07-08T10:13:56Z</time>
      </trkpt>
      <trkpt lat="45.14357" lon="6.11125">
        <ele>2466.8</ele>
        <time>2024-07-08T10:13:57Z</time>
      </trkpt>
      <trkpt lat="45.14357" lon="6.11125">
        <ele>2466.8</ele>
        <time>2024-07-08T10:13:58Z</time>
      </trkpt>
      <trkpt lat="45.14357" lon="6.11125">
        <ele>2466.9</ele>
        <time>2024-07-08T10:13:59Z</time>
      </trkpt>
      <trkpt lat="45.14356" lon="6.11124">
        <ele>2467.1</ele>
        <time>2024-07-08T10:14:00Z</time>
      </trkpt>
      <trkpt lat="45.14355" lon="6.11124">
        <ele>2467.3</ele>
        <time>2024-07-08T10:14:01Z</time>
      </trkpt>
      <trkpt lat="45.14354" lon="6.11124">
        <ele>2467.5</ele>
        <time>2024-07-08T10:14:02Z</time>
      </trkpt>
      <trkpt lat="45.14353" lon="6.11124">
        <ele>2467.7</ele>
        <time>2024-07-08T10:14:03Z</time>
      </trkpt>
      <trkpt lat="45.14352" lon="6.11124">
        <ele>2468</ele>
        <time>2024-07-08T10:14:04Z</time>
      </trkpt>
      <trkpt lat="45.14351" lon="6.11125">
        <ele>2468.3</ele>
        <time>2024-07-08T10:14:05Z</time>
      </trkpt>
      <trkpt lat="45.14351" lon="6.11126">
        <ele>2468.5</ele>
        <time>2024-07-08T10:14:06Z</time>
      </trkpt>
      <trkpt lat="45.14351" lon="6.11127">
        <ele>2468.8</ele>
        <time>2024-07-08T10:14:07Z</time>
      </trkpt>
      <trkpt lat="45.1435" lon="6.11128">
        <ele>2469</ele>
        <time>2024-07-08T10:14:08Z</time>
      </trkpt>
      <trkpt lat="45.1435" lon="6.11129">
        <ele>2469.2</ele>
        <time>2024-07-08T10:14:09Z</time>
      </trkpt>
      <trkpt lat="45.1435" lon="6.11131">
        <ele>2469.4</ele>
        <time>2024-07-08T10:14:10Z</time>
      </trkpt>
      <trkpt lat="45.1435" lon="6.11132">
        <ele>2469.6</ele>
        <time>2024-07-08T10:14:11Z</time>
      </trkpt>
      <trkpt lat="45.1435" lon="6.11133">
        <ele>2469.8</ele>
        <time>2024-07-08T10:14:12Z</time>
      </trkpt>
      <trkpt lat="45.1435" lon="6.11133">
        <ele>2469.9</ele>
        <time>2024-07-08T10:14:13Z</time>
      </trkpt>
      <trkpt lat="45.1435" lon="6.11134">
        <ele>2470.1</ele>
        <time>2024-07-08T10:14:14Z</time>
      </trkpt>
      <trkpt lat="45.14351" lon="6.11135">
        <ele>2470.2</ele>
        <time>2024-07-08T10:14:15Z</time>
      </trkpt>
      <trkpt lat="45.14351" lon="6.11135">
        <ele>2470.3</ele>
        <time>2024-07-08T10:14:16Z</time>
      </trkpt>
      <trkpt lat="45.14351" lon="6.11135">
        <ele>2470.4</ele>
        <time>2024-07-08T10:14:17Z</time>
      </trkpt>
      <trkpt lat="45.14352" lon="6.11136">
        <ele>2470.5</ele>
        <time>2024-07-08T10:14:18Z</time>
      </trkpt>
      <trkpt lat="45.14352" lon="6.11136">
        <ele>2470.6</ele>
        <time>2024-07-08T10:14:19Z</time>
      </trkpt>
      <trkpt lat="45.14353" lon="6.11136">
        <ele>2470.8</ele>
        <time>2024-07-08T10:14:20Z</time>
      </trkpt>
      <trkpt lat="45.14353" lon="6.11136">
        <ele>2470.9</ele>
        <time>2024-07-08T10:14:21Z</time>
      </trkpt>
      <trkpt lat="45.14353" lon="6.11137">
        <ele>2471</ele>
        <time>2024-07-08T10:14:22Z</time>
      </trkpt>
      <trkpt lat="45.14353" lon="6.11138">
        <ele>2471.1</ele>
        <time>2024-07-08T10:14:23Z</time>
      </trkpt>
      <trkpt lat="45.14354" lon="6.11138">
        <ele>2471.3</ele>
        <time>2024-07-08T10:14:24Z</time>
      </trkpt>
      <trkpt lat="45.14354" lon="6.11139">
        <ele>2471.5</ele>
        <time>2024-07-08T10:14:25Z</time>
      </trkpt>
      <trkpt lat="45.14355" lon="6.11139">
        <ele>2471.6</ele>
        <time>2024-07-08T10:14:26Z</time>
      </trkpt>
      <trkpt lat="45.14355" lon="6.1114">
        <ele>2471.7</ele>
        <time>2024-07-08T10:14:27Z</time>
      </trkpt>
      <trkpt lat="45.14355" lon="6.1114">
        <ele>2471.8</ele>
        <time>2024-07-08T10:14:28Z</time>
      </trkpt>
      <trkpt lat="45.14355" lon="6.1114">
        <ele>2471.8</ele>
        <time>2024-07-08T10:14:29Z</time>
      </trkpt>
      <trkpt lat="45.14356" lon="6.11141">
        <ele>2472</ele>
        <time>2024-07-08T10:14:30Z</time>
      </trkpt>
      <trkpt lat="45.14356" lon="6.11141">
        <ele>2472.2</ele>
        <time>2024-07-08T10:14:31Z</time>
      </trkpt>
      <trkpt lat="45.14357" lon="6.11141">
        <ele>2472.2</ele>
        <time>2024-07-08T10:14:32Z</time>
      </trkpt>
      <trkpt lat="45.14357" lon="6.11141">
        <ele>2472.3</ele>
        <time>2024-07-08T10:14:33Z</time>
      </trkpt>
      <trkpt lat="45.14357" lon="6.11141">
        <ele>2472.4</ele>
        <time>2024-07-08T10:14:34Z</time>
      </trkpt>
      <trkpt lat="45.14358" lon="6.11142">
        <ele>2472.6</ele>
        <time>2024-07-08T10:14:35Z</time>
      </trkpt>
      <trkpt lat="45.14358" lon="6.11143">
        <ele>2472.8</ele>
        <time>2024-07-08T10:14:36Z</time>
      </trkpt>
      <trkpt lat="45.14358" lon="6.11143">
        <ele>2472.9</ele>
        <time>2024-07-08T10:14:37Z</time>
      </trkpt>
      <trkpt lat="45.14358" lon="6.11144">
        <ele>2473.1</ele>
        <time>2024-07-08T10:14:38Z</time>
      </trkpt>
      <trkpt lat="45.14358" lon="6.11145">
        <ele>2473.2</ele>
        <time>2024-07-08T10:14:39Z</time>
      </trkpt>
      <trkpt lat="45.14358" lon="6.11146">
        <ele>2473.4</ele>
        <time>2024-07-08T10:14:40Z</time>
      </trkpt>
      <trkpt lat="45.14358" lon="6.11147">
        <ele>2473.6</ele>
        <time>2024-07-08T10:14:41Z</time>
      </trkpt>
      <trkpt lat="45.14358" lon="6.11148">
        <ele>2473.9</ele>
        <time>2024-07-08T10:14:42Z</time>
      </trkpt>
      <trkpt lat="45.14358" lon="6.1115">
        <ele>2474.2</ele>
        <time>2024-07-08T10:14:43Z</time>
      </trkpt>
      <trkpt lat="45.14357" lon="6.11151">
        <ele>2474.4</ele>
        <time>2024-07-08T10:14:44Z</time>
      </trkpt>
      <trkpt lat="45.14357" lon="6.11151">
        <ele>2474.6</ele>
        <time>2024-07-08T10:14:45Z</time>
      </trkpt>
      <trkpt lat="45.14356" lon="6.11152">
        <ele>2474.9</ele>
        <time>2024-07-08T10:14:46Z</time>
      </trkpt>
      <trkpt lat="45.14355" lon="6.11152">
        <ele>2475.1</ele>
        <time>2024-07-08T10:14:47Z</time>
      </trkpt>
      <trkpt lat="45.14355" lon="6.11151">
        <ele>2475.2</ele>
        <time>2024-07-08T10:14:48Z</time>
      </trkpt>
      <trkpt lat="45.14354" lon="6.11152">
        <ele>2475.4</ele>
        <time>2024-07-08T10:14:49Z</time>
      </trkpt>
      <trkpt lat="45.14354" lon="6.11152">
        <ele>2475.5</ele>
        <time>2024-07-08T10:14:50Z</time>
      </trkpt>
      <trkpt lat="45.14355" lon="6.11152">
        <ele>2475.5</ele>
        <time>2024-07-08T10:14:51Z</time>
      </trkpt>
      <trkpt lat="45.14354" lon="6.11153">
        <ele>2475.7</ele>
        <time>2024-07-08T10:14:52Z</time>
      </trkpt>
      <trkpt lat="45.14355" lon="6.11152">
        <ele>2475.9</ele>
        <time>2024-07-08T10:14:53Z</time>
      </trkpt>
      <trkpt lat="45.14355" lon="6.11152">
        <ele>2476</ele>
        <time>2024-07-08T10:14:54Z</time>
      </trkpt>
      <trkpt lat="45.14355" lon="6.11152">
        <ele>2476.1</ele>
        <time>2024-07-08T10:14:55Z</time>
      </trkpt>
      <trkpt lat="45.14356" lon="6.11152">
        <ele>2476.2</ele>
        <time>2024-07-08T10:14:56Z</time>
      </trkpt>
      <trkpt lat="45.14356" lon="6.11153">
        <ele>2476.4</ele>
        <time>2024-07-08T10:14:57Z</time>
      </trkpt>
      <trkpt lat="45.14356" lon="6.11153">
        <ele>2476.4</ele>
        <time>2024-07-08T10:14:58Z</time>
      </trkpt>
      <trkpt lat="45.14356" lon="6.11154">
        <ele>2476.6</ele>
        <time>2024-07-08T10:14:59Z</time>
      </trkpt>
      <trkpt lat="45.14357" lon="6.11154">
        <ele>2476.8</ele>
        <time>2024-07-08T10:15:00Z</time>
      </trkpt>
      <trkpt lat="45.14358" lon="6.11155">
        <ele>2477</ele>
        <time>2024-07-08T10:15:01Z</time>
      </trkpt>
      <trkpt lat="45.14358" lon="6.11156">
        <ele>2477.3</ele>
        <time>2024-07-08T10:15:02Z</time>
      </trkpt>
      <trkpt lat="45.14359" lon="6.11156">
        <ele>2477.3</ele>
        <time>2024-07-08T10:15:03Z</time>
      </trkpt>
      <trkpt lat="45.14359" lon="6.11156">
        <ele>2477.5</ele>
        <time>2024-07-08T10:15:04Z</time>
      </trkpt>
      <trkpt lat="45.1436" lon="6.11157">
        <ele>2477.8</ele>
        <time>2024-07-08T10:15:05Z</time>
      </trkpt>
      <trkpt lat="45.1436" lon="6.11157">
        <ele>2477.9</ele>
        <time>2024-07-08T10:15:06Z</time>
      </trkpt>
      <trkpt lat="45.14361" lon="6.11157">
        <ele>2478</ele>
        <time>2024-07-08T10:15:07Z</time>
      </trkpt>
      <trkpt lat="45.14361" lon="6.11156">
        <ele>2478.2</ele>
        <time>2024-07-08T10:15:08Z</time>
      </trkpt>
      <trkpt lat="45.14361" lon="6.11156">
        <ele>2478.2</ele>
        <time>2024-07-08T10:15:09Z</time>
      </trkpt>
      <trkpt lat="45.14361" lon="6.11156">
        <ele>2478.3</ele>
        <time>2024-07-08T10:15:10Z</time>
      </trkpt>
      <trkpt lat="45.14362" lon="6.11156">
        <ele>2478.4</ele>
        <time>2024-07-08T10:15:11Z</time>
      </trkpt>
      <trkpt lat="45.14362" lon="6.11156">
        <ele>2478.6</ele>
        <time>2024-07-08T10:15:12Z</time>
      </trkpt>
      <trkpt lat="45.14363" lon="6.11156">
        <ele>2478.7</ele>
        <time>2024-07-08T10:15:13Z</time>
      </trkpt>
      <trkpt lat="45.14363" lon="6.11156">
        <ele>2478.8</ele>
        <time>2024-07-08T10:15:14Z</time>
      </trkpt>
      <trkpt lat="45.14363" lon="6.11156">
        <ele>2478.9</ele>
        <time>2024-07-08T10:15:15Z</time>
      </trkpt>
      <trkpt lat="45.14364" lon="6.11157">
        <ele>2479.1</ele>
        <time>2024-07-08T10:15:16Z</time>
      </trkpt>
      <trkpt lat="45.14364" lon="6.11157">
        <ele>2479.3</ele>
        <time>2024-07-08T10:15:17Z</time>
      </trkpt>
      <trkpt lat="45.14364" lon="6.11157">
        <ele>2479.3</ele>
        <time>2024-07-08T10:15:18Z</time>
      </trkpt>
      <trkpt lat="45.14364" lon="6.11158">
        <ele>2479.4</ele>
        <time>2024-07-08T10:15:19Z</time>
      </trkpt>
      <trkpt lat="45.14365" lon="6.11158">
        <ele>2479.5</ele>
        <time>2024-07-08T10:15:20Z</time>
      </trkpt>
      <trkpt lat="45.14365" lon="6.11159">
        <ele>2479.6</ele>
        <time>2024-07-08T10:15:21Z</time>
      </trkpt>
      <trkpt lat="45.14365" lon="6.11159">
        <ele>2479.7</ele>
        <time>2024-07-08T10:15:22Z</time>
      </trkpt>
      <trkpt lat="45.14366" lon="6.11159">
        <ele>2479.8</ele>
        <time>2024-07-08T10:15:23Z</time>
      </trkpt>
      <trkpt lat="45.14366" lon="6.11159">
        <ele>2479.8</ele>
        <time>2024-07-08T10:15:24Z</time>
      </trkpt>
      <trkpt lat="45.14366" lon="6.1116">
        <ele>2479.9</ele>
        <time>2024-07-08T10:15:25Z</time>
      </trkpt>
      <trkpt lat="45.14365" lon="6.11161">
        <ele>2480.1</ele>
        <time>2024-07-08T10:15:26Z</time>
      </trkpt>
      <trkpt lat="45.14364" lon="6.11161">
        <ele>2480.4</ele>
        <time>2024-07-08T10:15:27Z</time>
      </trkpt>
      <trkpt lat="45.14363" lon="6.11161">
        <ele>2480.6</ele>
        <time>2024-07-08T10:15:28Z</time>
      </trkpt>
      <trkpt lat="45.14362" lon="6.1116">
        <ele>2480.8</ele>
        <time>2024-07-08T10:15:29Z</time>
      </trkpt>
      <trkpt lat="45.14361" lon="6.1116">
        <ele>2481.1</ele>
        <time>2024-07-08T10:15:30Z</time>
      </trkpt>
      <trkpt lat="45.1436" lon="6.11159">
        <ele>2481.4</ele>
        <time>2024-07-08T10:15:31Z</time>
      </trkpt>
      <trkpt lat="45.14359" lon="6.11157">
        <ele>2481.9</ele>
        <time>2024-07-08T10:15:33Z</time>
      </trkpt>
      <trkpt lat="45.14358" lon="6.11156">
        <ele>2482.1</ele>
        <time>2024-07-08T10:15:34Z</time>
      </trkpt>
      <trkpt lat="45.14357" lon="6.11156">
        <ele>2482.3</ele>
        <time>2024-07-08T10:15:35Z</time>
      </trkpt>
      <trkpt lat="45.14356" lon="6.11156">
        <ele>2482.5</ele>
        <time>2024-07-08T10:15:36Z</time>
      </trkpt>
      <trkpt lat="45.14355" lon="6.11157">
        <ele>2482.8</ele>
        <time>2024-07-08T10:15:37Z</time>
      </trkpt>
      <trkpt lat="45.14353" lon="6.11157">
        <ele>2483</ele>
        <time>2024-07-08T10:15:38Z</time>
      </trkpt>
      <trkpt lat="45.14352" lon="6.11157">
        <ele>2483.2</ele>
        <time>2024-07-08T10:15:39Z</time>
      </trkpt>
      <trkpt lat="45.14351" lon="6.11157">
        <ele>2483.5</ele>
        <time>2024-07-08T10:15:40Z</time>
      </trkpt>
      <trkpt lat="45.1435" lon="6.11157">
        <ele>2483.7</ele>
        <time>2024-07-08T10:15:41Z</time>
      </trkpt>
      <trkpt lat="45.14349" lon="6.11157">
        <ele>2483.9</ele>
        <time>2024-07-08T10:15:42Z</time>
      </trkpt>
      <trkpt lat="45.14348" lon="6.11157">
        <ele>2484.2</ele>
        <time>2024-07-08T10:15:43Z</time>
      </trkpt>
      <trkpt lat="45.14347" lon="6.11157">
        <ele>2484.3</ele>
        <time>2024-07-08T10:15:44Z</time>
      </trkpt>
      <trkpt lat="45.14346" lon="6.11157">
        <ele>2484.6</ele>
        <time>2024-07-08T10:15:45Z</time>
      </trkpt>
      <trkpt lat="45.14346" lon="6.11157">
        <ele>2484.7</ele>
        <time>2024-07-08T10:15:46Z</time>
      </trkpt>
      <trkpt lat="45.14345" lon="6.11158">
        <ele>2484.9</ele>
        <time>2024-07-08T10:15:47Z</time>
      </trkpt>
      <trkpt lat="45.14345" lon="6.11159">
        <ele>2485.1</ele>
        <time>2024-07-08T10:15:48Z</time>
      </trkpt>
      <trkpt lat="45.14345" lon="6.1116">
        <ele>2485.3</ele>
        <time>2024-07-08T10:15:49Z</time>
      </trkpt>
      <trkpt lat="45.14346" lon="6.11161">
        <ele>2485.4</ele>
        <time>2024-07-08T10:15:50Z</time>
      </trkpt>
      <trkpt lat="45.14346" lon="6.11162">
        <ele>2485.6</ele>
        <time>2024-07-08T10:15:51Z</time>
      </trkpt>
      <trkpt lat="45.14347" lon="6.11162">
        <ele>2485.8</ele>
        <time>2024-07-08T10:15:52Z</time>
      </trkpt>
      <trkpt lat="45.14347" lon="6.11162">
        <ele>2485.9</ele>
        <time>2024-07-08T10:15:53Z</time>
      </trkpt>
      <trkpt lat="45.14348" lon="6.11163">
        <ele>2486.1</ele>
        <time>2024-07-08T10:15:54Z</time>
      </trkpt>
      <trkpt lat="45.14349" lon="6.11164">
        <ele>2486.3</ele>
        <time>2024-07-08T10:15:55Z</time>
      </trkpt>
      <trkpt lat="45.14349" lon="6.11164">
        <ele>2486.5</ele>
        <time>2024-07-08T10:15:56Z</time>
      </trkpt>
      <trkpt lat="45.1435" lon="6.11164">
        <ele>2486.8</ele>
        <time>2024-07-08T10:15:57Z</time>
      </trkpt>
      <trkpt lat="45.14351" lon="6.11164">
        <ele>2487</ele>
        <time>2024-07-08T10:15:58Z</time>
      </trkpt>
      <trkpt lat="45.14352" lon="6.11164">
        <ele>2487.2</ele>
        <time>2024-07-08T10:15:59Z</time>
      </trkpt>
      <trkpt lat="45.14353" lon="6.11164">
        <ele>2487.3</ele>
        <time>2024-07-08T10:16:00Z</time>
      </trkpt>
      <trkpt lat="45.14353" lon="6.11163">
        <ele>2487.5</ele>
        <time>2024-07-08T10:16:01Z</time>
      </trkpt>
      <trkpt lat="45.14354" lon="6.11163">
        <ele>2487.6</ele>
        <time>2024-07-08T10:16:02Z</time>
      </trkpt>
      <trkpt lat="45.14354" lon="6.11163">
        <ele>2487.8</ele>
        <time>2024-07-08T10:16:03Z</time>
      </trkpt>
      <trkpt lat="45.14355" lon="6.11163">
        <ele>2487.9</ele>
        <time>2024-07-08T10:16:04Z</time>
      </trkpt>
      <trkpt lat="45.14355" lon="6.11163">
        <ele>2487.9</ele>
        <time>2024-07-08T10:16:05Z</time>
      </trkpt>
      <trkpt lat="45.14356" lon="6.11163">
        <ele>2488.1</ele>
        <time>2024-07-08T10:16:06Z</time>
      </trkpt>
      <trkpt lat="45.14356" lon="6.11163">
        <ele>2488.2</ele>
        <time>2024-07-08T10:16:07Z</time>
      </trkpt>
      <trkpt lat="45.14356" lon="6.11164">
        <ele>2488.3</ele>
        <time>2024-07-08T10:16:08Z</time>
      </trkpt>
      <trkpt lat="45.14356" lon="6.11164">
        <ele>2488.3</ele>
        <time>2024-07-08T10:16:09Z</time>
      </trkpt>
      <trkpt lat="45.14357" lon="6.11164">
        <ele>2488.4</ele>
        <time>2024-07-08T10:16:10Z</time>
      </trkpt>
      <trkpt lat="45.14357" lon="6.11164">
        <ele>2488.5</ele>
        <time>2024-07-08T10:16:11Z</time>
      </trkpt>
      <trkpt lat="45.14358" lon="6.11165">
        <ele>2488.7</ele>
        <time>2024-07-08T10:16:12Z</time>
      </trkpt>
      <trkpt lat="45.14358" lon="6.11166">
        <ele>2488.9</ele>
        <time>2024-07-08T10:16:13Z</time>
      </trkpt>
      <trkpt lat="45.14359" lon="6.11166">
        <ele>2489.1</ele>
        <time>2024-07-08T10:16:14Z</time>
      </trkpt>
      <trkpt lat="45.1436" lon="6.11168">
        <ele>2489.5</ele>
        <time>2024-07-08T10:16:15Z</time>
      </trkpt>
      <trkpt lat="45.14361" lon="6.11169">
        <ele>2489.8</ele>
        <time>2024-07-08T10:16:16Z</time>
      </trkpt>
      <trkpt lat="45.14362" lon="6.11169">
        <ele>2490.1</ele>
        <time>2024-07-08T10:16:17Z</time>
      </trkpt>
      <trkpt lat="45.14362" lon="6.1117">
        <ele>2490.3</ele>
        <time>2024-07-08T10:16:18Z</time>
      </trkpt>
      <trkpt lat="45.14363" lon="6.11171">
        <ele>2490.5</ele>
        <time>2024-07-08T10:16:19Z</time>
      </trkpt>
      <trkpt lat="45.14364" lon="6.11171">
        <ele>2490.8</ele>
        <time>2024-07-08T10:16:20Z</time>
      </trkpt>
      <trkpt lat="45.14365" lon="6.11171">
        <ele>2490.9</ele>
        <time>2024-07-08T10:16:21Z</time>
      </trkpt>
      <trkpt lat="45.14365" lon="6.11171">
        <ele>2491.1</ele>
        <time>2024-07-08T10:16:22Z</time>
      </trkpt>
      <trkpt lat="45.14365" lon="6.11171">
        <ele>2491.1</ele>
        <time>2024-07-08T10:16:23Z</time>
      </trkpt>
      <trkpt lat="45.14365" lon="6.11171">
        <ele>2491.2</ele>
        <time>2024-07-08T10:16:24Z</time>
      </trkpt>
      <trkpt lat="45.14365" lon="6.11172">
        <ele>2491.3</ele>
        <time>2024-07-08T10:16:25Z</time>
      </trkpt>
      <trkpt lat="45.14366" lon="6.11172">
        <ele>2491.4</ele>
        <time>2024-07-08T10:16:26Z</time>
      </trkpt>
      <trkpt lat="45.14366" lon="6.11173">
        <ele>2491.6</ele>
        <time>2024-07-08T10:16:27Z</time>
      </trkpt>
      <trkpt lat="45.14367" lon="6.11173">
        <ele>2491.9</ele>
        <time>2024-07-08T10:16:28Z</time>
      </trkpt>
      <trkpt lat="45.14368" lon="6.11174">
        <ele>2492.1</ele>
        <time>2024-07-08T10:16:29Z</time>
      </trkpt>
      <trkpt lat="45.14368" lon="6.11174">
        <ele>2492.3</ele>
        <time>2024-07-08T10:16:30Z</time>
      </trkpt>
      <trkpt lat="45.14369" lon="6.11175">
        <ele>2492.4</ele>
        <time>2024-07-08T10:16:31Z</time>
      </trkpt>
      <trkpt lat="45.14369" lon="6.11176">
        <ele>2492.7</ele>
        <time>2024-07-08T10:16:32Z</time>
      </trkpt>
      <trkpt lat="45.1437" lon="6.11175">
        <ele>2492.9</ele>
        <time>2024-07-08T10:16:33Z</time>
      </trkpt>
      <trkpt lat="45.1437" lon="6.11176">
        <ele>2493.1</ele>
        <time>2024-07-08T10:16:34Z</time>
      </trkpt>
      <trkpt lat="45.1437" lon="6.11175">
        <ele>2493.3</ele>
        <time>2024-07-08T10:16:35Z</time>
      </trkpt>
      <trkpt lat="45.14371" lon="6.11175">
        <ele>2493.3</ele>
        <time>2024-07-08T10:16:36Z</time>
      </trkpt>
      <trkpt lat="45.14371" lon="6.11175">
        <ele>2493.5</ele>
        <time>2024-07-08T10:16:37Z</time>
      </trkpt>
      <trkpt lat="45.14371" lon="6.11175">
        <ele>2493.6</ele>
        <time>2024-07-08T10:16:38Z</time>
      </trkpt>
      <trkpt lat="45.14371" lon="6.11175">
        <ele>2493.7</ele>
        <time>2024-07-08T10:16:39Z</time>
      </trkpt>
      <trkpt lat="45.14372" lon="6.11175">
        <ele>2493.8</ele>
        <time>2024-07-08T10:16:40Z</time>
      </trkpt>
      <trkpt lat="45.14372" lon="6.11175">
        <ele>2493.9</ele>
        <time>2024-07-08T10:16:41Z</time>
      </trkpt>
      <trkpt lat="45.14372" lon="6.11175">
        <ele>2493.9</ele>
        <time>2024-07-08T10:16:42Z</time>
      </trkpt>
      <trkpt lat="45.14373" lon="6.11175">
        <ele>2494.1</ele>
        <time>2024-07-08T10:16:43Z</time>
      </trkpt>
      <trkpt lat="45.14373" lon="6.11175">
        <ele>2494.2</ele>
        <time>2024-07-08T10:16:44Z</time>
      </trkpt>
      <trkpt lat="45.14374" lon="6.11175">
        <ele>2494.3</ele>
        <time>2024-07-08T10:16:45Z</time>
      </trkpt>
      <trkpt lat="45.14374" lon="6.11175">
        <ele>2494.4</ele>
        <time>2024-07-08T10:16:46Z</time>
      </trkpt>
      <trkpt lat="45.14374" lon="6.11175">
        <ele>2494.6</ele>
        <time>2024-07-08T10:16:47Z</time>
      </trkpt>
      <trkpt lat="45.14374" lon="6.11175">
        <ele>2494.6</ele>
        <time>2024-07-08T10:16:48Z</time>
      </trkpt>
      <trkpt lat="45.14374" lon="6.11176">
        <ele>2494.7</ele>
        <time>2024-07-08T10:16:49Z</time>
      </trkpt>
      <trkpt lat="45.14375" lon="6.11176">
        <ele>2494.8</ele>
        <time>2024-07-08T10:16:50Z</time>
      </trkpt>
      <trkpt lat="45.14375" lon="6.11176">
        <ele>2494.9</ele>
        <time>2024-07-08T10:16:51Z</time>
      </trkpt>
      <trkpt lat="45.14375" lon="6.11177">
        <ele>2495.1</ele>
        <time>2024-07-08T10:16:52Z</time>
      </trkpt>
      <trkpt lat="45.14375" lon="6.11177">
        <ele>2495.2</ele>
        <time>2024-07-08T10:16:53Z</time>
      </trkpt>
      <trkpt lat="45.14375" lon="6.11177">
        <ele>2495.3</ele>
        <time>2024-07-08T10:16:54Z</time>
      </trkpt>
      <trkpt lat="45.14375" lon="6.11177">
        <ele>2495.3</ele>
        <time>2024-07-08T10:16:55Z</time>
      </trkpt>
      <trkpt lat="45.14375" lon="6.11178">
        <ele>2495.4</ele>
        <time>2024-07-08T10:16:56Z</time>
      </trkpt>
      <trkpt lat="45.14375" lon="6.11178">
        <ele>2495.4</ele>
        <time>2024-07-08T10:16:57Z</time>
      </trkpt>
      <trkpt lat="45.14375" lon="6.11178">
        <ele>2495.5</ele>
        <time>2024-07-08T10:16:58Z</time>
      </trkpt>
      <trkpt lat="45.14375" lon="6.11178">
        <ele>2495.5</ele>
        <time>2024-07-08T10:16:59Z</time>
      </trkpt>
      <trkpt lat="45.14375" lon="6.11178">
        <ele>2495.5</ele>
        <time>2024-07-08T10:17:00Z</time>
      </trkpt>
      <trkpt lat="45.14375" lon="6.11178">
        <ele>2495.6</ele>
        <time>2024-07-08T10:17:01Z</time>
      </trkpt>
      <trkpt lat="45.14375" lon="6.11179">
        <ele>2495.6</ele>
        <time>2024-07-08T10:17:02Z</time>
      </trkpt>
      <trkpt lat="45.14375" lon="6.11179">
        <ele>2495.6</ele>
        <time>2024-07-08T10:17:03Z</time>
      </trkpt>
      <trkpt lat="45.14375" lon="6.11179">
        <ele>2495.7</ele>
        <time>2024-07-08T10:17:04Z</time>
      </trkpt>
      <trkpt lat="45.14375" lon="6.11179">
        <ele>2495.7</ele>
        <time>2024-07-08T10:17:05Z</time>
      </trkpt>
      <trkpt lat="45.14375" lon="6.11179">
        <ele>2495.8</ele>
        <time>2024-07-08T10:17:06Z</time>
      </trkpt>
      <trkpt lat="45.14375" lon="6.11179">
        <ele>2495.8</ele>
        <time>2024-07-08T10:17:07Z</time>
      </trkpt>
      <trkpt lat="45.14375" lon="6.11179">
        <ele>2495.9</ele>
        <time>2024-07-08T10:17:08Z</time>
      </trkpt>
      <trkpt lat="45.14375" lon="6.1118">
        <ele>2495.9</ele>
        <time>2024-07-08T10:17:09Z</time>
      </trkpt>
      <trkpt lat="45.14375" lon="6.1118">
        <ele>2495.9</ele>
        <time>2024-07-08T10:17:10Z</time>
      </trkpt>
      <trkpt lat="45.14375" lon="6.1118">
        <ele>2495.9</ele>
        <time>2024-07-08T10:17:11Z</time>
      </trkpt>
      <trkpt lat="45.14375" lon="6.1118">
        <ele>2495.9</ele>
        <time>2024-07-08T10:17:12Z</time>
      </trkpt>
      <trkpt lat="45.14375" lon="6.1118">
        <ele>2495.9</ele>
        <time>2024-07-08T10:17:13Z</time>
      </trkpt>
      <trkpt lat="45.14375" lon="6.1118">
        <ele>2496</ele>
        <time>2024-07-08T10:17:14Z</time>
      </trkpt>
      <trkpt lat="45.14375" lon="6.1118">
        <ele>2496</ele>
        <time>2024-07-08T10:17:15Z</time>
      </trkpt>
      <trkpt lat="45.14375" lon="6.1118">
        <ele>2496</ele>
        <time>2024-07-08T10:17:16Z</time>
      </trkpt>
      <trkpt lat="45.14375" lon="6.1118">
        <ele>2496</ele>
        <time>2024-07-08T10:17:17Z</time>
      </trkpt>
      <trkpt lat="45.14375" lon="6.1118">
        <ele>2496.1</ele>
        <time>2024-07-08T10:17:18Z</time>
      </trkpt>
      <trkpt lat="45.14375" lon="6.1118">
        <ele>2496.1</ele>
        <time>2024-07-08T10:17:19Z</time>
      </trkpt>
      <trkpt lat="45.14374" lon="6.1118">
        <ele>2496.1</ele>
        <time>2024-07-08T10:17:20Z</time>
      </trkpt>
      <trkpt lat="45.14374" lon="6.1118">
        <ele>2496.1</ele>
        <time>2024-07-08T10:17:21Z</time>
      </trkpt>
      <trkpt lat="45.14375" lon="6.1118">
        <ele>2496.1</ele>
        <time>2024-07-08T10:17:22Z</time>
      </trkpt>
      <trkpt lat="45.14375" lon="6.1118">
        <ele>2496.2</ele>
        <time>2024-07-08T10:17:23Z</time>
      </trkpt>
      <trkpt lat="45.14375" lon="6.1118">
        <ele>2496.2</ele>
        <time>2024-07-08T10:17:24Z</time>
      </trkpt>
      <trkpt lat="45.14375" lon="6.1118">
        <ele>2496.3</ele>
        <time>2024-07-08T10:17:25Z</time>
      </trkpt>
      <trkpt lat="45.14375" lon="6.11181">
        <ele>2496.4</ele>
        <time>2024-07-08T10:17:26Z</time>
      </trkpt>
      <trkpt lat="45.14374" lon="6.11181">
        <ele>2496.4</ele>
        <time>2024-07-08T10:17:27Z</time>
      </trkpt>
      <trkpt lat="45.14374" lon="6.11181">
        <ele>2496.4</ele>
        <time>2024-07-08T10:17:28Z</time>
      </trkpt>
      <trkpt lat="45.14374" lon="6.11181">
        <ele>2496.4</ele>
        <time>2024-07-08T10:17:29Z</time>
      </trkpt>
      <trkpt lat="45.14374" lon="6.11181">
        <ele>2496.4</ele>
        <time>2024-07-08T10:17:30Z</time>
      </trkpt>
      <trkpt lat="45.14375" lon="6.11181">
        <ele>2496.4</ele>
        <time>2024-07-08T10:17:31Z</time>
      </trkpt>
      <trkpt lat="45.14375" lon="6.11181">
        <ele>2496.5</ele>
        <time>2024-07-08T10:17:32Z</time>
      </trkpt>
      <trkpt lat="45.14375" lon="6.11181">
        <ele>2496.5</ele>
        <time>2024-07-08T10:17:33Z</time>
      </trkpt>
      <trkpt lat="45.14375" lon="6.11181">
        <ele>2496.5</ele>
        <time>2024-07-08T10:17:34Z</time>
      </trkpt>
      <trkpt lat="45.14375" lon="6.11181">
        <ele>2496.6</ele>
        <time>2024-07-08T10:17:35Z</time>
      </trkpt>
      <trkpt lat="45.14375" lon="6.11181">
        <ele>2496.6</ele>
        <time>2024-07-08T10:17:36Z</time>
      </trkpt>
      <trkpt lat="45.14375" lon="6.11181">
        <ele>2496.6</ele>
        <time>2024-07-08T10:17:37Z</time>
      </trkpt>
      <trkpt lat="45.14375" lon="6.11181">
        <ele>2496.6</ele>
        <time>2024-07-08T10:17:38Z</time>
      </trkpt>
      <trkpt lat="45.14375" lon="6.11181">
        <ele>2496.6</ele>
        <time>2024-07-08T10:17:39Z</time>
      </trkpt>
      <trkpt lat="45.14375" lon="6.11181">
        <ele>2496.7</ele>
        <time>2024-07-08T10:17:40Z</time>
      </trkpt>
      <trkpt lat="45.14375" lon="6.11181">
        <ele>2496.7</ele>
        <time>2024-07-08T10:17:41Z</time>
      </trkpt>
      <trkpt lat="45.14375" lon="6.11181">
        <ele>2496.8</ele>
        <time>2024-07-08T10:17:42Z</time>
      </trkpt>
      <trkpt lat="45.14375" lon="6.11181">
        <ele>2496.8</ele>
        <time>2024-07-08T10:17:43Z</time>
      </trkpt>
      <trkpt lat="45.14375" lon="6.11181">
        <ele>2496.8</ele>
        <time>2024-07-08T10:17:44Z</time>
      </trkpt>
      <trkpt lat="45.14375" lon="6.11181">
        <ele>2496.8</ele>
        <time>2024-07-08T10:17:45Z</time>
      </trkpt>
      <trkpt lat="45.14375" lon="6.11181">
        <ele>2496.8</ele>
        <time>2024-07-08T10:17:46Z</time>
      </trkpt>
      <trkpt lat="45.14375" lon="6.11181">
        <ele>2496.9</ele>
        <time>2024-07-08T10:17:47Z</time>
      </trkpt>
      <trkpt lat="45.14375" lon="6.11181">
        <ele>2496.9</ele>
        <time>2024-07-08T10:17:48Z</time>
      </trkpt>
      <trkpt lat="45.14375" lon="6.11181">
        <ele>2496.9</ele>
        <time>2024-07-08T10:17:49Z</time>
      </trkpt>
      <trkpt lat="45.14375" lon="6.11181">
        <ele>2497</ele>
        <time>2024-07-08T10:17:50Z</time>
      </trkpt>
      <trkpt lat="45.14375" lon="6.11182">
        <ele>2497.1</ele>
        <time>2024-07-08T10:17:51Z</time>
      </trkpt>
      <trkpt lat="45.14374" lon="6.11183">
        <ele>2497.3</ele>
        <time>2024-07-08T10:17:52Z</time>
      </trkpt>
      <trkpt lat="45.14374" lon="6.11184">
        <ele>2497.5</ele>
        <time>2024-07-08T10:17:53Z</time>
      </trkpt>
      <trkpt lat="45.14375" lon="6.11184">
        <ele>2497.7</ele>
        <time>2024-07-08T10:17:54Z</time>
      </trkpt>
      <trkpt lat="45.14376" lon="6.11183">
        <ele>2497.8</ele>
        <time>2024-07-08T10:17:55Z</time>
      </trkpt>
      <trkpt lat="45.14376" lon="6.11183">
        <ele>2497.9</ele>
        <time>2024-07-08T10:17:56Z</time>
      </trkpt>
      <trkpt lat="45.14376" lon="6.11183">
        <ele>2497.9</ele>
        <time>2024-07-08T10:17:57Z</time>
      </trkpt>
      <trkpt lat="45.14376" lon="6.11183">
        <ele>2497.9</ele>
        <time>2024-07-08T10:17:58Z</time>
      </trkpt>
      <trkpt lat="45.14376" lon="6.11183">
        <ele>2497.9</ele>
        <time>2024-07-08T10:17:59Z</time>
      </trkpt>
      <trkpt lat="45.14376" lon="6.11183">
        <ele>2497.9</ele>
        <time>2024-07-08T10:18:00Z</time>
      </trkpt>
      <trkpt lat="45.14376" lon="6.11183">
        <ele>2498</ele>
        <time>2024-07-08T10:18:01Z</time>
      </trkpt>
      <trkpt lat="45.14376" lon="6.11183">
        <ele>2498</ele>
        <time>2024-07-08T10:18:02Z</time>
      </trkpt>
      <trkpt lat="45.14376" lon="6.11183">
        <ele>2498</ele>
        <time>2024-07-08T10:18:03Z</time>
      </trkpt>
      <trkpt lat="45.14376" lon="6.11184">
        <ele>2498.1</ele>
        <time>2024-07-08T10:18:04Z</time>
      </trkpt>
      <trkpt lat="45.14376" lon="6.11184">
        <ele>2498.2</ele>
        <time>2024-07-08T10:18:05Z</time>
      </trkpt>
      <trkpt lat="45.14376" lon="6.11184">
        <ele>2498.2</ele>
        <time>2024-07-08T10:18:06Z</time>
      </trkpt>
      <trkpt lat="45.14376" lon="6.11184">
        <ele>2498.2</ele>
        <time>2024-07-08T10:18:07Z</time>
      </trkpt>
      <trkpt lat="45.14376" lon="6.11184">
        <ele>2498.3</ele>
        <time>2024-07-08T10:18:08Z</time>
      </trkpt>
      <trkpt lat="45.14377" lon="6.11184">
        <ele>2498.4</ele>
        <time>2024-07-08T10:18:09Z</time>
      </trkpt>
      <trkpt lat="45.14377" lon="6.11184">
        <ele>2498.5</ele>
        <time>2024-07-08T10:18:10Z</time>
      </trkpt>
      <trkpt lat="45.14377" lon="6.11184">
        <ele>2498.6</ele>
        <time>2024-07-08T10:18:11Z</time>
      </trkpt>
      <trkpt lat="45.14378" lon="6.11185">
        <ele>2498.8</ele>
        <time>2024-07-08T10:18:12Z</time>
      </trkpt>
      <trkpt lat="45.14381" lon="6.11185">
        <ele>2499.6</ele>
        <time>2024-07-08T10:18:13Z</time>
      </trkpt>
      <trkpt lat="45.14382" lon="6.11186">
        <ele>2499.9</ele>
        <time>2024-07-08T10:18:14Z</time>
      </trkpt>
      <trkpt lat="45.14382" lon="6.11187">
        <ele>2500.2</ele>
        <time>2024-07-08T10:18:15Z</time>
      </trkpt>
      <trkpt lat="45.14382" lon="6.11188">
        <ele>2500.5</ele>
        <time>2024-07-08T10:18:16Z</time>
      </trkpt>
      <trkpt lat="45.14382" lon="6.1119">
        <ele>2500.8</ele>
        <time>2024-07-08T10:18:17Z</time>
      </trkpt>
      <trkpt lat="45.14382" lon="6.11191">
        <ele>2501</ele>
        <time>2024-07-08T10:18:18Z</time>
      </trkpt>
      <trkpt lat="45.14383" lon="6.11192">
        <ele>2501.3</ele>
        <time>2024-07-08T10:18:19Z</time>
      </trkpt>
      <trkpt lat="45.14383" lon="6.11194">
        <ele>2501.6</ele>
        <time>2024-07-08T10:18:20Z</time>
      </trkpt>
      <trkpt lat="45.14385" lon="6.11193">
        <ele>2501.9</ele>
        <time>2024-07-08T10:18:21Z</time>
      </trkpt>
      <trkpt lat="45.14386" lon="6.11193">
        <ele>2502.3</ele>
        <time>2024-07-08T10:18:22Z</time>
      </trkpt>
      <trkpt lat="45.14387" lon="6.11193">
        <ele>2502.5</ele>
        <time>2024-07-08T10:18:23Z</time>
      </trkpt>
      <trkpt lat="45.14388" lon="6.11193">
        <ele>2502.6</ele>
        <time>2024-07-08T10:18:24Z</time>
      </trkpt>
      <trkpt lat="45.14389" lon="6.11193">
        <ele>2502.8</ele>
        <time>2024-07-08T10:18:25Z</time>
      </trkpt>
      <trkpt lat="45.14389" lon="6.11193">
        <ele>2502.9</ele>
        <time>2024-07-08T10:18:26Z</time>
      </trkpt>
      <trkpt lat="45.14391" lon="6.11194">
        <ele>2503.3</ele>
        <time>2024-07-08T10:18:27Z</time>
      </trkpt>
      <trkpt lat="45.14391" lon="6.11194">
        <ele>2503.3</ele>
        <time>2024-07-08T10:18:28Z</time>
      </trkpt>
      <trkpt lat="45.14392" lon="6.11194">
        <ele>2503.5</ele>
        <time>2024-07-08T10:18:29Z</time>
      </trkpt>
      <trkpt lat="45.14393" lon="6.11194">
        <ele>2503.6</ele>
        <time>2024-07-08T10:18:30Z</time>
      </trkpt>
      <trkpt lat="45.14394" lon="6.11194">
        <ele>2503.8</ele>
        <time>2024-07-08T10:18:31Z</time>
      </trkpt>
      <trkpt lat="45.14394" lon="6.11194">
        <ele>2504</ele>
        <time>2024-07-08T10:18:32Z</time>
      </trkpt>
      <trkpt lat="45.14395" lon="6.11195">
        <ele>2504.2</ele>
        <time>2024-07-08T10:18:33Z</time>
      </trkpt>
      <trkpt lat="45.14396" lon="6.11196">
        <ele>2504.3</ele>
        <time>2024-07-08T10:18:34Z</time>
      </trkpt>
      <trkpt lat="45.14396" lon="6.11197">
        <ele>2504.4</ele>
        <time>2024-07-08T10:18:35Z</time>
      </trkpt>
      <trkpt lat="45.14397" lon="6.11198">
        <ele>2504.6</ele>
        <time>2024-07-08T10:18:36Z</time>
      </trkpt>
      <trkpt lat="45.14397" lon="6.11198">
        <ele>2504.7</ele>
        <time>2024-07-08T10:18:37Z</time>
      </trkpt>
      <trkpt lat="45.14399" lon="6.11199">
        <ele>2505</ele>
        <time>2024-07-08T10:18:38Z</time>
      </trkpt>
      <trkpt lat="45.144" lon="6.11199">
        <ele>2505.1</ele>
        <time>2024-07-08T10:18:39Z</time>
      </trkpt>
      <trkpt lat="45.144" lon="6.112">
        <ele>2505.2</ele>
        <time>2024-07-08T10:18:40Z</time>
      </trkpt>
      <trkpt lat="45.14401" lon="6.112">
        <ele>2505.3</ele>
        <time>2024-07-08T10:18:41Z</time>
      </trkpt>
      <trkpt lat="45.14402" lon="6.11201">
        <ele>2505.5</ele>
        <time>2024-07-08T10:18:42Z</time>
      </trkpt>
      <trkpt lat="45.14403" lon="6.11202">
        <ele>2505.6</ele>
        <time>2024-07-08T10:18:43Z</time>
      </trkpt>
      <trkpt lat="45.14404" lon="6.11203">
        <ele>2505.8</ele>
        <time>2024-07-08T10:18:44Z</time>
      </trkpt>
      <trkpt lat="45.14405" lon="6.11203">
        <ele>2506</ele>
        <time>2024-07-08T10:18:45Z</time>
      </trkpt>
      <trkpt lat="45.14406" lon="6.11203">
        <ele>2506.2</ele>
        <time>2024-07-08T10:18:46Z</time>
      </trkpt>
      <trkpt lat="45.14407" lon="6.11204">
        <ele>2506.4</ele>
        <time>2024-07-08T10:18:47Z</time>
      </trkpt>
      <trkpt lat="45.14408" lon="6.11204">
        <ele>2506.5</ele>
        <time>2024-07-08T10:18:48Z</time>
      </trkpt>
      <trkpt lat="45.14409" lon="6.11205">
        <ele>2506.7</ele>
        <time>2024-07-08T10:18:49Z</time>
      </trkpt>
      <trkpt lat="45.1441" lon="6.11205">
        <ele>2506.8</ele>
        <time>2024-07-08T10:18:50Z</time>
      </trkpt>
      <trkpt lat="45.14411" lon="6.11205">
        <ele>2507</ele>
        <time>2024-07-08T10:18:51Z</time>
      </trkpt>
      <trkpt lat="45.14412" lon="6.11206">
        <ele>2507.2</ele>
        <time>2024-07-08T10:18:52Z</time>
      </trkpt>
      <trkpt lat="45.14412" lon="6.11206">
        <ele>2507.3</ele>
        <time>2024-07-08T10:18:53Z</time>
      </trkpt>
      <trkpt lat="45.14413" lon="6.11206">
        <ele>2507.4</ele>
        <time>2024-07-08T10:18:54Z</time>
      </trkpt>
      <trkpt lat="45.14414" lon="6.11206">
        <ele>2507.6</ele>
        <time>2024-07-08T10:18:55Z</time>
      </trkpt>
      <trkpt lat="45.14415" lon="6.11207">
        <ele>2507.8</ele>
        <time>2024-07-08T10:18:56Z</time>
      </trkpt>
      <trkpt lat="45.14416" lon="6.11207">
        <ele>2507.9</ele>
        <time>2024-07-08T10:18:57Z</time>
      </trkpt>
      <trkpt lat="45.14416" lon="6.11207">
        <ele>2508.1</ele>
        <time>2024-07-08T10:18:58Z</time>
      </trkpt>
      <trkpt lat="45.14417" lon="6.11208">
        <ele>2508.2</ele>
        <time>2024-07-08T10:18:59Z</time>
      </trkpt>
      <trkpt lat="45.14418" lon="6.11208">
        <ele>2508.4</ele>
        <time>2024-07-08T10:19:00Z</time>
      </trkpt>
      <trkpt lat="45.14418" lon="6.11209">
        <ele>2508.6</ele>
        <time>2024-07-08T10:19:01Z</time>
      </trkpt>
      <trkpt lat="45.14419" lon="6.11209">
        <ele>2508.8</ele>
        <time>2024-07-08T10:19:02Z</time>
      </trkpt>
      <trkpt lat="45.1442" lon="6.11209">
        <ele>2509</ele>
        <time>2024-07-08T10:19:03Z</time>
      </trkpt>
      <trkpt lat="45.14421" lon="6.11209">
        <ele>2509.2</ele>
        <time>2024-07-08T10:19:04Z</time>
      </trkpt>
      <trkpt lat="45.14421" lon="6.11209">
        <ele>2509.3</ele>
        <time>2024-07-08T10:19:05Z</time>
      </trkpt>
      <trkpt lat="45.14422" lon="6.1121">
        <ele>2509.4</ele>
        <time>2024-07-08T10:19:06Z</time>
      </trkpt>
      <trkpt lat="45.14422" lon="6.1121">
        <ele>2509.6</ele>
        <time>2024-07-08T10:19:07Z</time>
      </trkpt>
      <trkpt lat="45.14423" lon="6.11211">
        <ele>2509.8</ele>
        <time>2024-07-08T10:19:08Z</time>
      </trkpt>
      <trkpt lat="45.14423" lon="6.11211">
        <ele>2509.9</ele>
        <time>2024-07-08T10:19:09Z</time>
      </trkpt>
      <trkpt lat="45.14424" lon="6.11211">
        <ele>2510</ele>
        <time>2024-07-08T10:19:10Z</time>
      </trkpt>
      <trkpt lat="45.14425" lon="6.11212">
        <ele>2510.2</ele>
        <time>2024-07-08T10:19:11Z</time>
      </trkpt>
      <trkpt lat="45.14425" lon="6.11212">
        <ele>2510.3</ele>
        <time>2024-07-08T10:19:12Z</time>
      </trkpt>
      <trkpt lat="45.14424" lon="6.11213">
        <ele>2510.5</ele>
        <time>2024-07-08T10:19:13Z</time>
      </trkpt>
      <trkpt lat="45.14425" lon="6.11214">
        <ele>2510.7</ele>
        <time>2024-07-08T10:19:14Z</time>
      </trkpt>
      <trkpt lat="45.14425" lon="6.11214">
        <ele>2510.8</ele>
        <time>2024-07-08T10:19:15Z</time>
      </trkpt>
      <trkpt lat="45.14425" lon="6.11215">
        <ele>2511</ele>
        <time>2024-07-08T10:19:16Z</time>
      </trkpt>
      <trkpt lat="45.14425" lon="6.11216">
        <ele>2511.3</ele>
        <time>2024-07-08T10:19:17Z</time>
      </trkpt>
      <trkpt lat="45.14425" lon="6.11217">
        <ele>2511.5</ele>
        <time>2024-07-08T10:19:18Z</time>
      </trkpt>
      <trkpt lat="45.14425" lon="6.11218">
        <ele>2511.6</ele>
        <time>2024-07-08T10:19:19Z</time>
      </trkpt>
      <trkpt lat="45.14424" lon="6.11218">
        <ele>2511.6</ele>
        <time>2024-07-08T10:19:20Z</time>
      </trkpt>
      <trkpt lat="45.14425" lon="6.11218">
        <ele>2511.7</ele>
        <time>2024-07-08T10:19:21Z</time>
      </trkpt>
      <trkpt lat="45.14426" lon="6.11217">
        <ele>2512</ele>
        <time>2024-07-08T10:19:22Z</time>
      </trkpt>
      <trkpt lat="45.14427" lon="6.11216">
        <ele>2512.3</ele>
        <time>2024-07-08T10:19:23Z</time>
      </trkpt>
      <trkpt lat="45.14427" lon="6.11216">
        <ele>2512.5</ele>
        <time>2024-07-08T10:19:24Z</time>
      </trkpt>
      <trkpt lat="45.14428" lon="6.11215">
        <ele>2512.7</ele>
        <time>2024-07-08T10:19:25Z</time>
      </trkpt>
      <trkpt lat="45.14429" lon="6.11216">
        <ele>2512.9</ele>
        <time>2024-07-08T10:19:26Z</time>
      </trkpt>
      <trkpt lat="45.14429" lon="6.11215">
        <ele>2513</ele>
        <time>2024-07-08T10:19:27Z</time>
      </trkpt>
      <trkpt lat="45.14429" lon="6.11216">
        <ele>2513.1</ele>
        <time>2024-07-08T10:19:28Z</time>
      </trkpt>
      <trkpt lat="45.1443" lon="6.11217">
        <ele>2513.4</ele>
        <time>2024-07-08T10:19:29Z</time>
      </trkpt>
      <trkpt lat="45.14429" lon="6.11218">
        <ele>2513.6</ele>
        <time>2024-07-08T10:19:30Z</time>
      </trkpt>
      <trkpt lat="45.1443" lon="6.11219">
        <ele>2513.8</ele>
        <time>2024-07-08T10:19:31Z</time>
      </trkpt>
      <trkpt lat="45.14429" lon="6.1122">
        <ele>2513.9</ele>
        <time>2024-07-08T10:19:32Z</time>
      </trkpt>
      <trkpt lat="45.14429" lon="6.1122">
        <ele>2514.1</ele>
        <time>2024-07-08T10:19:33Z</time>
      </trkpt>
      <trkpt lat="45.14429" lon="6.11221">
        <ele>2514.2</ele>
        <time>2024-07-08T10:19:34Z</time>
      </trkpt>
      <trkpt lat="45.14429" lon="6.11222">
        <ele>2514.4</ele>
        <time>2024-07-08T10:19:35Z</time>
      </trkpt>
      <trkpt lat="45.14429" lon="6.11223">
        <ele>2514.5</ele>
        <time>2024-07-08T10:19:36Z</time>
      </trkpt>
      <trkpt lat="45.1443" lon="6.11224">
        <ele>2514.7</ele>
        <time>2024-07-08T10:19:37Z</time>
      </trkpt>
      <trkpt lat="45.1443" lon="6.11224">
        <ele>2514.8</ele>
        <time>2024-07-08T10:19:38Z</time>
      </trkpt>
      <trkpt lat="45.1443" lon="6.11225">
        <ele>2515</ele>
        <time>2024-07-08T10:19:39Z</time>
      </trkpt>
      <trkpt lat="45.14431" lon="6.11226">
        <ele>2515.2</ele>
        <time>2024-07-08T10:19:40Z</time>
      </trkpt>
      <trkpt lat="45.14431" lon="6.11226">
        <ele>2515.3</ele>
        <time>2024-07-08T10:19:41Z</time>
      </trkpt>
      <trkpt lat="45.14432" lon="6.11227">
        <ele>2515.4</ele>
        <time>2024-07-08T10:19:42Z</time>
      </trkpt>
      <trkpt lat="45.14432" lon="6.11228">
        <ele>2515.6</ele>
        <time>2024-07-08T10:19:43Z</time>
      </trkpt>
      <trkpt lat="45.14433" lon="6.11229">
        <ele>2515.9</ele>
        <time>2024-07-08T10:19:44Z</time>
      </trkpt>
      <trkpt lat="45.14434" lon="6.11229">
        <ele>2516.1</ele>
        <time>2024-07-08T10:19:45Z</time>
      </trkpt>
      <trkpt lat="45.14435" lon="6.11229">
        <ele>2516.3</ele>
        <time>2024-07-08T10:19:46Z</time>
      </trkpt>
      <trkpt lat="45.14436" lon="6.11229">
        <ele>2516.5</ele>
        <time>2024-07-08T10:19:47Z</time>
      </trkpt>
      <trkpt lat="45.14436" lon="6.11229">
        <ele>2516.6</ele>
        <time>2024-07-08T10:19:48Z</time>
      </trkpt>
      <trkpt lat="45.14437" lon="6.11229">
        <ele>2516.7</ele>
        <time>2024-07-08T10:19:49Z</time>
      </trkpt>
      <trkpt lat="45.14437" lon="6.1123">
        <ele>2516.9</ele>
        <time>2024-07-08T10:19:50Z</time>
      </trkpt>
      <trkpt lat="45.14438" lon="6.1123">
        <ele>2517</ele>
        <time>2024-07-08T10:19:51Z</time>
      </trkpt>
      <trkpt lat="45.14439" lon="6.11231">
        <ele>2517.2</ele>
        <time>2024-07-08T10:19:52Z</time>
      </trkpt>
      <trkpt lat="45.14439" lon="6.11231">
        <ele>2517.3</ele>
        <time>2024-07-08T10:19:53Z</time>
      </trkpt>
      <trkpt lat="45.1444" lon="6.11232">
        <ele>2517.4</ele>
        <time>2024-07-08T10:19:54Z</time>
      </trkpt>
      <trkpt lat="45.1444" lon="6.11233">
        <ele>2517.6</ele>
        <time>2024-07-08T10:19:55Z</time>
      </trkpt>
      <trkpt lat="45.1444" lon="6.11234">
        <ele>2517.7</ele>
        <time>2024-07-08T10:19:56Z</time>
      </trkpt>
      <trkpt lat="45.1444" lon="6.11235">
        <ele>2517.9</ele>
        <time>2024-07-08T10:19:57Z</time>
      </trkpt>
      <trkpt lat="45.1444" lon="6.11236">
        <ele>2518.1</ele>
        <time>2024-07-08T10:19:58Z</time>
      </trkpt>
      <trkpt lat="45.14441" lon="6.11237">
        <ele>2518.2</ele>
        <time>2024-07-08T10:19:59Z</time>
      </trkpt>
      <trkpt lat="45.14441" lon="6.11238">
        <ele>2518.4</ele>
        <time>2024-07-08T10:20:00Z</time>
      </trkpt>
      <trkpt lat="45.14442" lon="6.11238">
        <ele>2518.5</ele>
        <time>2024-07-08T10:20:01Z</time>
      </trkpt>
      <trkpt lat="45.14442" lon="6.11239">
        <ele>2518.6</ele>
        <time>2024-07-08T10:20:02Z</time>
      </trkpt>
      <trkpt lat="45.14443" lon="6.11239">
        <ele>2518.7</ele>
        <time>2024-07-08T10:20:03Z</time>
      </trkpt>
      <trkpt lat="45.14443" lon="6.11239">
        <ele>2518.8</ele>
        <time>2024-07-08T10:20:04Z</time>
      </trkpt>
      <trkpt lat="45.14443" lon="6.1124">
        <ele>2519</ele>
        <time>2024-07-08T10:20:05Z</time>
      </trkpt>
      <trkpt lat="45.14443" lon="6.11241">
        <ele>2519</ele>
        <time>2024-07-08T10:20:06Z</time>
      </trkpt>
      <trkpt lat="45.14444" lon="6.11242">
        <ele>2519.2</ele>
        <time>2024-07-08T10:20:07Z</time>
      </trkpt>
      <trkpt lat="45.14444" lon="6.11242">
        <ele>2519.4</ele>
        <time>2024-07-08T10:20:08Z</time>
      </trkpt>
      <trkpt lat="45.14445" lon="6.11242">
        <ele>2519.5</ele>
        <time>2024-07-08T10:20:09Z</time>
      </trkpt>
      <trkpt lat="45.14446" lon="6.11242">
        <ele>2519.7</ele>
        <time>2024-07-08T10:20:10Z</time>
      </trkpt>
      <trkpt lat="45.14447" lon="6.11242">
        <ele>2519.8</ele>
        <time>2024-07-08T10:20:11Z</time>
      </trkpt>
      <trkpt lat="45.14447" lon="6.11242">
        <ele>2519.9</ele>
        <time>2024-07-08T10:20:12Z</time>
      </trkpt>
      <trkpt lat="45.14447" lon="6.11242">
        <ele>2520</ele>
        <time>2024-07-08T10:20:13Z</time>
      </trkpt>
      <trkpt lat="45.14448" lon="6.11242">
        <ele>2520.1</ele>
        <time>2024-07-08T10:20:14Z</time>
      </trkpt>
      <trkpt lat="45.14449" lon="6.11243">
        <ele>2520.2</ele>
        <time>2024-07-08T10:20:15Z</time>
      </trkpt>
      <trkpt lat="45.14449" lon="6.11244">
        <ele>2520.4</ele>
        <time>2024-07-08T10:20:16Z</time>
      </trkpt>
      <trkpt lat="45.14449" lon="6.11245">
        <ele>2520.6</ele>
        <time>2024-07-08T10:20:17Z</time>
      </trkpt>
      <trkpt lat="45.14449" lon="6.11247">
        <ele>2520.8</ele>
        <time>2024-07-08T10:20:18Z</time>
      </trkpt>
      <trkpt lat="45.14448" lon="6.11248">
        <ele>2521</ele>
        <time>2024-07-08T10:20:19Z</time>
      </trkpt>
      <trkpt lat="45.14447" lon="6.11249">
        <ele>2521.2</ele>
        <time>2024-07-08T10:20:20Z</time>
      </trkpt>
      <trkpt lat="45.14447" lon="6.1125">
        <ele>2521.4</ele>
        <time>2024-07-08T10:20:21Z</time>
      </trkpt>
      <trkpt lat="45.14446" lon="6.11251">
        <ele>2521.5</ele>
        <time>2024-07-08T10:20:22Z</time>
      </trkpt>
      <trkpt lat="45.14445" lon="6.11251">
        <ele>2521.6</ele>
        <time>2024-07-08T10:20:23Z</time>
      </trkpt>
      <trkpt lat="45.14445" lon="6.11251">
        <ele>2521.8</ele>
        <time>2024-07-08T10:20:24Z</time>
      </trkpt>
      <trkpt lat="45.14444" lon="6.11252">
        <ele>2521.9</ele>
        <time>2024-07-08T10:20:25Z</time>
      </trkpt>
      <trkpt lat="45.14444" lon="6.11253">
        <ele>2522</ele>
        <time>2024-07-08T10:20:26Z</time>
      </trkpt>
      <trkpt lat="45.14445" lon="6.11254">
        <ele>2522.2</ele>
        <time>2024-07-08T10:20:27Z</time>
      </trkpt>
      <trkpt lat="45.14446" lon="6.11255">
        <ele>2522.4</ele>
        <time>2024-07-08T10:20:28Z</time>
      </trkpt>
      <trkpt lat="45.14447" lon="6.11256">
        <ele>2522.7</ele>
        <time>2024-07-08T10:20:29Z</time>
      </trkpt>
      <trkpt lat="45.14448" lon="6.11257">
        <ele>2522.9</ele>
        <time>2024-07-08T10:20:30Z</time>
      </trkpt>
      <trkpt lat="45.14449" lon="6.11257">
        <ele>2523.1</ele>
        <time>2024-07-08T10:20:31Z</time>
      </trkpt>
      <trkpt lat="45.14451" lon="6.11257">
        <ele>2523.3</ele>
        <time>2024-07-08T10:20:32Z</time>
      </trkpt>
      <trkpt lat="45.14452" lon="6.11258">
        <ele>2523.5</ele>
        <time>2024-07-08T10:20:33Z</time>
      </trkpt>
      <trkpt lat="45.14453" lon="6.11258">
        <ele>2523.7</ele>
        <time>2024-07-08T10:20:34Z</time>
      </trkpt>
      <trkpt lat="45.14453" lon="6.11259">
        <ele>2523.9</ele>
        <time>2024-07-08T10:20:35Z</time>
      </trkpt>
      <trkpt lat="45.14454" lon="6.11259">
        <ele>2524.1</ele>
        <time>2024-07-08T10:20:36Z</time>
      </trkpt>
      <trkpt lat="45.14455" lon="6.1126">
        <ele>2524.2</ele>
        <time>2024-07-08T10:20:37Z</time>
      </trkpt>
      <trkpt lat="45.14456" lon="6.1126">
        <ele>2524.4</ele>
        <time>2024-07-08T10:20:38Z</time>
      </trkpt>
      <trkpt lat="45.14457" lon="6.11261">
        <ele>2524.6</ele>
        <time>2024-07-08T10:20:39Z</time>
      </trkpt>
      <trkpt lat="45.14457" lon="6.1126">
        <ele>2524.8</ele>
        <time>2024-07-08T10:20:40Z</time>
      </trkpt>
      <trkpt lat="45.14458" lon="6.1126">
        <ele>2525</ele>
        <time>2024-07-08T10:20:41Z</time>
      </trkpt>
      <trkpt lat="45.14459" lon="6.1126">
        <ele>2525.1</ele>
        <time>2024-07-08T10:20:42Z</time>
      </trkpt>
      <trkpt lat="45.14459" lon="6.11261">
        <ele>2525.2</ele>
        <time>2024-07-08T10:20:43Z</time>
      </trkpt>
      <trkpt lat="45.1446" lon="6.11261">
        <ele>2525.4</ele>
        <time>2024-07-08T10:20:44Z</time>
      </trkpt>
      <trkpt lat="45.14461" lon="6.11261">
        <ele>2525.5</ele>
        <time>2024-07-08T10:20:45Z</time>
      </trkpt>
      <trkpt lat="45.14461" lon="6.11262">
        <ele>2525.7</ele>
        <time>2024-07-08T10:20:46Z</time>
      </trkpt>
      <trkpt lat="45.14462" lon="6.11262">
        <ele>2525.9</ele>
        <time>2024-07-08T10:20:47Z</time>
      </trkpt>
      <trkpt lat="45.14462" lon="6.11263">
        <ele>2526</ele>
        <time>2024-07-08T10:20:48Z</time>
      </trkpt>
      <trkpt lat="45.14462" lon="6.11264">
        <ele>2526.1</ele>
        <time>2024-07-08T10:20:49Z</time>
      </trkpt>
      <trkpt lat="45.14463" lon="6.11265">
        <ele>2526.3</ele>
        <time>2024-07-08T10:20:50Z</time>
      </trkpt>
      <trkpt lat="45.14463" lon="6.11265">
        <ele>2526.5</ele>
        <time>2024-07-08T10:20:51Z</time>
      </trkpt>
      <trkpt lat="45.14463" lon="6.11266">
        <ele>2526.6</ele>
        <time>2024-07-08T10:20:52Z</time>
      </trkpt>
      <trkpt lat="45.14463" lon="6.11267">
        <ele>2526.7</ele>
        <time>2024-07-08T10:20:53Z</time>
      </trkpt>
      <trkpt lat="45.14463" lon="6.11267">
        <ele>2526.8</ele>
        <time>2024-07-08T10:20:54Z</time>
      </trkpt>
      <trkpt lat="45.14463" lon="6.11268">
        <ele>2527</ele>
        <time>2024-07-08T10:20:55Z</time>
      </trkpt>
      <trkpt lat="45.14464" lon="6.11268">
        <ele>2527.2</ele>
        <time>2024-07-08T10:20:56Z</time>
      </trkpt>
      <trkpt lat="45.14465" lon="6.11268">
        <ele>2527.3</ele>
        <time>2024-07-08T10:20:57Z</time>
      </trkpt>
      <trkpt lat="45.14465" lon="6.11268">
        <ele>2527.5</ele>
        <time>2024-07-08T10:20:58Z</time>
      </trkpt>
      <trkpt lat="45.14466" lon="6.11268">
        <ele>2527.6</ele>
        <time>2024-07-08T10:20:59Z</time>
      </trkpt>
      <trkpt lat="45.14466" lon="6.11268">
        <ele>2527.7</ele>
        <time>2024-07-08T10:21:00Z</time>
      </trkpt>
      <trkpt lat="45.14467" lon="6.11268">
        <ele>2527.8</ele>
        <time>2024-07-08T10:21:01Z</time>
      </trkpt>
      <trkpt lat="45.14467" lon="6.11268">
        <ele>2527.9</ele>
        <time>2024-07-08T10:21:02Z</time>
      </trkpt>
      <trkpt lat="45.14467" lon="6.11269">
        <ele>2528</ele>
        <time>2024-07-08T10:21:03Z</time>
      </trkpt>
      <trkpt lat="45.14467" lon="6.11269">
        <ele>2528.1</ele>
        <time>2024-07-08T10:21:04Z</time>
      </trkpt>
      <trkpt lat="45.14468" lon="6.11269">
        <ele>2528.2</ele>
        <time>2024-07-08T10:21:05Z</time>
      </trkpt>
      <trkpt lat="45.14468" lon="6.11269">
        <ele>2528.3</ele>
        <time>2024-07-08T10:21:06Z</time>
      </trkpt>
      <trkpt lat="45.14468" lon="6.11269">
        <ele>2528.3</ele>
        <time>2024-07-08T10:21:07Z</time>
      </trkpt>
      <trkpt lat="45.14468" lon="6.11269">
        <ele>2528.3</ele>
        <time>2024-07-08T10:21:08Z</time>
      </trkpt>
      <trkpt lat="45.14468" lon="6.1127">
        <ele>2528.4</ele>
        <time>2024-07-08T10:21:09Z</time>
      </trkpt>
      <trkpt lat="45.14469" lon="6.1127">
        <ele>2528.6</ele>
        <time>2024-07-08T10:21:10Z</time>
      </trkpt>
      <trkpt lat="45.14469" lon="6.1127">
        <ele>2528.7</ele>
        <time>2024-07-08T10:21:11Z</time>
      </trkpt>
      <trkpt lat="45.1447" lon="6.1127">
        <ele>2528.9</ele>
        <time>2024-07-08T10:21:12Z</time>
      </trkpt>
      <trkpt lat="45.1447" lon="6.1127">
        <ele>2528.9</ele>
        <time>2024-07-08T10:21:13Z</time>
      </trkpt>
      <trkpt lat="45.1447" lon="6.1127">
        <ele>2529</ele>
        <time>2024-07-08T10:21:14Z</time>
      </trkpt>
      <trkpt lat="45.14471" lon="6.1127">
        <ele>2529.2</ele>
        <time>2024-07-08T10:21:15Z</time>
      </trkpt>
      <trkpt lat="45.14471" lon="6.11269">
        <ele>2529.3</ele>
        <time>2024-07-08T10:21:16Z</time>
      </trkpt>
      <trkpt lat="45.14472" lon="6.11269">
        <ele>2529.5</ele>
        <time>2024-07-08T10:21:17Z</time>
      </trkpt>
      <trkpt lat="45.14472" lon="6.11269">
        <ele>2529.6</ele>
        <time>2024-07-08T10:21:18Z</time>
      </trkpt>
      <trkpt lat="45.14473" lon="6.11269">
        <ele>2529.7</ele>
        <time>2024-07-08T10:21:19Z</time>
      </trkpt>
      <trkpt lat="45.14473" lon="6.11269">
        <ele>2529.8</ele>
        <time>2024-07-08T10:21:20Z</time>
      </trkpt>
      <trkpt lat="45.14474" lon="6.1127">
        <ele>2529.9</ele>
        <time>2024-07-08T10:21:21Z</time>
      </trkpt>
      <trkpt lat="45.14475" lon="6.1127">
        <ele>2530</ele>
        <time>2024-07-08T10:21:22Z</time>
      </trkpt>
      <trkpt lat="45.14475" lon="6.1127">
        <ele>2530</ele>
        <time>2024-07-08T10:21:23Z</time>
      </trkpt>
      <trkpt lat="45.14476" lon="6.11271">
        <ele>2530.1</ele>
        <time>2024-07-08T10:21:24Z</time>
      </trkpt>
      <trkpt lat="45.14476" lon="6.11272">
        <ele>2530.2</ele>
        <time>2024-07-08T10:21:25Z</time>
      </trkpt>
      <trkpt lat="45.14476" lon="6.11273">
        <ele>2530.2</ele>
        <time>2024-07-08T10:21:26Z</time>
      </trkpt>
      <trkpt lat="45.14477" lon="6.11274">
        <ele>2530.3</ele>
        <time>2024-07-08T10:21:27Z</time>
      </trkpt>
      <trkpt lat="45.14477" lon="6.11275">
        <ele>2530.4</ele>
        <time>2024-07-08T10:21:28Z</time>
      </trkpt>
      <trkpt lat="45.14477" lon="6.11276">
        <ele>2530.5</ele>
        <time>2024-07-08T10:21:29Z</time>
      </trkpt>
      <trkpt lat="45.14477" lon="6.11277">
        <ele>2530.6</ele>
        <time>2024-07-08T10:21:30Z</time>
      </trkpt>
      <trkpt lat="45.14477" lon="6.11279">
        <ele>2530.7</ele>
        <time>2024-07-08T10:21:31Z</time>
      </trkpt>
      <trkpt lat="45.14478" lon="6.1128">
        <ele>2530.8</ele>
        <time>2024-07-08T10:21:32Z</time>
      </trkpt>
      <trkpt lat="45.14478" lon="6.1128">
        <ele>2530.8</ele>
        <time>2024-07-08T10:21:33Z</time>
      </trkpt>
      <trkpt lat="45.14479" lon="6.1128">
        <ele>2530.9</ele>
        <time>2024-07-08T10:21:34Z</time>
      </trkpt>
      <trkpt lat="45.1448" lon="6.11281">
        <ele>2531</ele>
        <time>2024-07-08T10:21:35Z</time>
      </trkpt>
      <trkpt lat="45.14481" lon="6.1128">
        <ele>2531</ele>
        <time>2024-07-08T10:21:36Z</time>
      </trkpt>
      <trkpt lat="45.14481" lon="6.1128">
        <ele>2531.1</ele>
        <time>2024-07-08T10:21:37Z</time>
      </trkpt>
      <trkpt lat="45.14482" lon="6.1128">
        <ele>2531.1</ele>
        <time>2024-07-08T10:21:38Z</time>
      </trkpt>
      <trkpt lat="45.14483" lon="6.11281">
        <ele>2531.2</ele>
        <time>2024-07-08T10:21:39Z</time>
      </trkpt>
      <trkpt lat="45.14483" lon="6.11282">
        <ele>2531.2</ele>
        <time>2024-07-08T10:21:40Z</time>
      </trkpt>
      <trkpt lat="45.14484" lon="6.11282">
        <ele>2531.3</ele>
        <time>2024-07-08T10:21:41Z</time>
      </trkpt>
      <trkpt lat="45.14485" lon="6.11283">
        <ele>2531.4</ele>
        <time>2024-07-08T10:21:42Z</time>
      </trkpt>
      <trkpt lat="45.14486" lon="6.11284">
        <ele>2531.4</ele>
        <time>2024-07-08T10:21:43Z</time>
      </trkpt>
      <trkpt lat="45.14487" lon="6.11284">
        <ele>2531.5</ele>
        <time>2024-07-08T10:21:44Z</time>
      </trkpt>
      <trkpt lat="45.14488" lon="6.11284">
        <ele>2531.6</ele>
        <time>2024-07-08T10:21:45Z</time>
      </trkpt>
      <trkpt lat="45.14489" lon="6.11284">
        <ele>2531.7</ele>
        <time>2024-07-08T10:21:46Z</time>
      </trkpt>
      <trkpt lat="45.1449" lon="6.11283">
        <ele>2531.7</ele>
        <time>2024-07-08T10:21:47Z</time>
      </trkpt>
      <trkpt lat="45.14491" lon="6.11283">
        <ele>2531.8</ele>
        <time>2024-07-08T10:21:48Z</time>
      </trkpt>
      <trkpt lat="45.14492" lon="6.11283">
        <ele>2531.9</ele>
        <time>2024-07-08T10:21:49Z</time>
      </trkpt>
      <trkpt lat="45.14493" lon="6.11283">
        <ele>2531.9</ele>
        <time>2024-07-08T10:21:50Z</time>
      </trkpt>
      <trkpt lat="45.14493" lon="6.11282">
        <ele>2532</ele>
        <time>2024-07-08T10:21:51Z</time>
      </trkpt>
      <trkpt lat="45.14494" lon="6.11282">
        <ele>2532</ele>
        <time>2024-07-08T10:21:52Z</time>
      </trkpt>
      <trkpt lat="45.14495" lon="6.11282">
        <ele>2532.1</ele>
        <time>2024-07-08T10:21:53Z</time>
      </trkpt>
      <trkpt lat="45.14495" lon="6.11282">
        <ele>2532.1</ele>
        <time>2024-07-08T10:21:54Z</time>
      </trkpt>
      <trkpt lat="45.14496" lon="6.11281">
        <ele>2532.2</ele>
        <time>2024-07-08T10:21:55Z</time>
      </trkpt>
      <trkpt lat="45.14497" lon="6.11281">
        <ele>2532.2</ele>
        <time>2024-07-08T10:21:56Z</time>
      </trkpt>
      <trkpt lat="45.14497" lon="6.11281">
        <ele>2532.3</ele>
        <time>2024-07-08T10:21:57Z</time>
      </trkpt>
      <trkpt lat="45.14498" lon="6.1128">
        <ele>2532.4</ele>
        <time>2024-07-08T10:21:58Z</time>
      </trkpt>
      <trkpt lat="45.14498" lon="6.1128">
        <ele>2532.4</ele>
        <time>2024-07-08T10:21:59Z</time>
      </trkpt>
      <trkpt lat="45.14499" lon="6.1128">
        <ele>2532.5</ele>
        <time>2024-07-08T10:22:00Z</time>
      </trkpt>
      <trkpt lat="45.145" lon="6.1128">
        <ele>2532.6</ele>
        <time>2024-07-08T10:22:01Z</time>
      </trkpt>
      <trkpt lat="45.14501" lon="6.11281">
        <ele>2532.7</ele>
        <time>2024-07-08T10:22:02Z</time>
      </trkpt>
      <trkpt lat="45.14501" lon="6.11282">
        <ele>2532.8</ele>
        <time>2024-07-08T10:22:03Z</time>
      </trkpt>
      <trkpt lat="45.145" lon="6.11284">
        <ele>2533</ele>
        <time>2024-07-08T10:22:04Z</time>
      </trkpt>
      <trkpt lat="45.145" lon="6.11286">
        <ele>2533.1</ele>
        <time>2024-07-08T10:22:05Z</time>
      </trkpt>
      <trkpt lat="45.145" lon="6.11287">
        <ele>2533.3</ele>
        <time>2024-07-08T10:22:06Z</time>
      </trkpt>
      <trkpt lat="45.145" lon="6.11289">
        <ele>2533.4</ele>
        <time>2024-07-08T10:22:07Z</time>
      </trkpt>
      <trkpt lat="45.14501" lon="6.1129">
        <ele>2533.7</ele>
        <time>2024-07-08T10:22:08Z</time>
      </trkpt>
      <trkpt lat="45.14502" lon="6.11291">
        <ele>2533.8</ele>
        <time>2024-07-08T10:22:09Z</time>
      </trkpt>
      <trkpt lat="45.14502" lon="6.11291">
        <ele>2533.9</ele>
        <time>2024-07-08T10:22:10Z</time>
      </trkpt>
      <trkpt lat="45.14503" lon="6.11291">
        <ele>2534</ele>
        <time>2024-07-08T10:22:11Z</time>
      </trkpt>
      <trkpt lat="45.14504" lon="6.11291">
        <ele>2534.2</ele>
        <time>2024-07-08T10:22:12Z</time>
      </trkpt>
      <trkpt lat="45.14505" lon="6.11291">
        <ele>2534.3</ele>
        <time>2024-07-08T10:22:13Z</time>
      </trkpt>
      <trkpt lat="45.14505" lon="6.11291">
        <ele>2534.4</ele>
        <time>2024-07-08T10:22:14Z</time>
      </trkpt>
      <trkpt lat="45.14506" lon="6.11291">
        <ele>2534.5</ele>
        <time>2024-07-08T10:22:15Z</time>
      </trkpt>
      <trkpt lat="45.14506" lon="6.11291">
        <ele>2534.5</ele>
        <time>2024-07-08T10:22:16Z</time>
      </trkpt>
      <trkpt lat="45.14506" lon="6.11291">
        <ele>2534.5</ele>
        <time>2024-07-08T10:22:17Z</time>
      </trkpt>
      <trkpt lat="45.14506" lon="6.11291">
        <ele>2534.6</ele>
        <time>2024-07-08T10:22:18Z</time>
      </trkpt>
      <trkpt lat="45.14506" lon="6.11291">
        <ele>2534.6</ele>
        <time>2024-07-08T10:22:19Z</time>
      </trkpt>
      <trkpt lat="45.14506" lon="6.11291">
        <ele>2534.6</ele>
        <time>2024-07-08T10:22:20Z</time>
      </trkpt>
      <trkpt lat="45.14506" lon="6.11292">
        <ele>2534.7</ele>
        <time>2024-07-08T10:22:21Z</time>
      </trkpt>
      <trkpt lat="45.14507" lon="6.11293">
        <ele>2534.9</ele>
        <time>2024-07-08T10:22:22Z</time>
      </trkpt>
      <trkpt lat="45.14507" lon="6.11294">
        <ele>2535.1</ele>
        <time>2024-07-08T10:22:23Z</time>
      </trkpt>
      <trkpt lat="45.14507" lon="6.11295">
        <ele>2535.3</ele>
        <time>2024-07-08T10:22:24Z</time>
      </trkpt>
      <trkpt lat="45.14506" lon="6.11296">
        <ele>2535.6</ele>
        <time>2024-07-08T10:22:25Z</time>
      </trkpt>
      <trkpt lat="45.14506" lon="6.11297">
        <ele>2535.7</ele>
        <time>2024-07-08T10:22:26Z</time>
      </trkpt>
      <trkpt lat="45.14505" lon="6.11297">
        <ele>2535.8</ele>
        <time>2024-07-08T10:22:27Z</time>
      </trkpt>
      <trkpt lat="45.14505" lon="6.11297">
        <ele>2535.8</ele>
        <time>2024-07-08T10:22:28Z</time>
      </trkpt>
      <trkpt lat="45.14505" lon="6.11297">
        <ele>2535.9</ele>
        <time>2024-07-08T10:22:29Z</time>
      </trkpt>
      <trkpt lat="45.14506" lon="6.11297">
        <ele>2535.9</ele>
        <time>2024-07-08T10:22:30Z</time>
      </trkpt>
      <trkpt lat="45.14506" lon="6.11297">
        <ele>2535.9</ele>
        <time>2024-07-08T10:22:31Z</time>
      </trkpt>
      <trkpt lat="45.14506" lon="6.11297">
        <ele>2536</ele>
        <time>2024-07-08T10:22:32Z</time>
      </trkpt>
      <trkpt lat="45.14507" lon="6.11298">
        <ele>2536.2</ele>
        <time>2024-07-08T10:22:33Z</time>
      </trkpt>
      <trkpt lat="45.14507" lon="6.11298">
        <ele>2536.4</ele>
        <time>2024-07-08T10:22:34Z</time>
      </trkpt>
      <trkpt lat="45.14507" lon="6.11298">
        <ele>2536.4</ele>
        <time>2024-07-08T10:22:35Z</time>
      </trkpt>
      <trkpt lat="45.14507" lon="6.11298">
        <ele>2536.5</ele>
        <time>2024-07-08T10:22:36Z</time>
      </trkpt>
      <trkpt lat="45.14507" lon="6.11298">
        <ele>2536.6</ele>
        <time>2024-07-08T10:22:37Z</time>
      </trkpt>
      <trkpt lat="45.14507" lon="6.11299">
        <ele>2536.7</ele>
        <time>2024-07-08T10:22:38Z</time>
      </trkpt>
      <trkpt lat="45.14507" lon="6.113">
        <ele>2536.9</ele>
        <time>2024-07-08T10:22:39Z</time>
      </trkpt>
      <trkpt lat="45.14507" lon="6.113">
        <ele>2537</ele>
        <time>2024-07-08T10:22:40Z</time>
      </trkpt>
      <trkpt lat="45.14506" lon="6.113">
        <ele>2537.1</ele>
        <time>2024-07-08T10:22:41Z</time>
      </trkpt>
      <trkpt lat="45.14506" lon="6.113">
        <ele>2537.1</ele>
        <time>2024-07-08T10:22:42Z</time>
      </trkpt>
      <trkpt lat="45.14506" lon="6.113">
        <ele>2537.2</ele>
        <time>2024-07-08T10:22:43Z</time>
      </trkpt>
      <trkpt lat="45.14506" lon="6.113">
        <ele>2537.2</ele>
        <time>2024-07-08T10:22:44Z</time>
      </trkpt>
      <trkpt lat="45.14506" lon="6.11299">
        <ele>2537.3</ele>
        <time>2024-07-08T10:22:45Z</time>
      </trkpt>
      <trkpt lat="45.14506" lon="6.11299">
        <ele>2537.3</ele>
        <time>2024-07-08T10:22:46Z</time>
      </trkpt>
      <trkpt lat="45.14506" lon="6.11299">
        <ele>2537.3</ele>
        <time>2024-07-08T10:22:47Z</time>
      </trkpt>
      <trkpt lat="45.14506" lon="6.11299">
        <ele>2537.3</ele>
        <time>2024-07-08T10:22:48Z</time>
      </trkpt>
      <trkpt lat="45.14506" lon="6.11299">
        <ele>2537.3</ele>
        <time>2024-07-08T10:22:49Z</time>
      </trkpt>
      <trkpt lat="45.14507" lon="6.113">
        <ele>2537.4</ele>
        <time>2024-07-08T10:22:50Z</time>
      </trkpt>
      <trkpt lat="45.14507" lon="6.11301">
        <ele>2537.6</ele>
        <time>2024-07-08T10:22:51Z</time>
      </trkpt>
      <trkpt lat="45.14507" lon="6.11301">
        <ele>2537.7</ele>
        <time>2024-07-08T10:22:52Z</time>
      </trkpt>
      <trkpt lat="45.14507" lon="6.11301">
        <ele>2537.8</ele>
        <time>2024-07-08T10:22:53Z</time>
      </trkpt>
      <trkpt lat="45.14507" lon="6.11302">
        <ele>2537.9</ele>
        <time>2024-07-08T10:22:54Z</time>
      </trkpt>
      <trkpt lat="45.14508" lon="6.11303">
        <ele>2538.2</ele>
        <time>2024-07-08T10:22:55Z</time>
      </trkpt>
      <trkpt lat="45.14508" lon="6.11303">
        <ele>2538.5</ele>
        <time>2024-07-08T10:22:56Z</time>
      </trkpt>
      <trkpt lat="45.14509" lon="6.11304">
        <ele>2538.8</ele>
        <time>2024-07-08T10:22:57Z</time>
      </trkpt>
      <trkpt lat="45.14509" lon="6.11305">
        <ele>2539</ele>
        <time>2024-07-08T10:22:58Z</time>
      </trkpt>
      <trkpt lat="45.1451" lon="6.11305">
        <ele>2539.2</ele>
        <time>2024-07-08T10:22:59Z</time>
      </trkpt>
      <trkpt lat="45.1451" lon="6.11305">
        <ele>2539.3</ele>
        <time>2024-07-08T10:23:00Z</time>
      </trkpt>
      <trkpt lat="45.1451" lon="6.11305">
        <ele>2539.4</ele>
        <time>2024-07-08T10:23:01Z</time>
      </trkpt>
      <trkpt lat="45.14511" lon="6.11305">
        <ele>2539.5</ele>
        <time>2024-07-08T10:23:02Z</time>
      </trkpt>
      <trkpt lat="45.14511" lon="6.11304">
        <ele>2539.6</ele>
        <time>2024-07-08T10:23:03Z</time>
      </trkpt>
      <trkpt lat="45.14511" lon="6.11305">
        <ele>2539.7</ele>
        <time>2024-07-08T10:23:04Z</time>
      </trkpt>
      <trkpt lat="45.14511" lon="6.11304">
        <ele>2539.8</ele>
        <time>2024-07-08T10:23:05Z</time>
      </trkpt>
      <trkpt lat="45.14511" lon="6.11304">
        <ele>2539.9</ele>
        <time>2024-07-08T10:23:06Z</time>
      </trkpt>
      <trkpt lat="45.14512" lon="6.11305">
        <ele>2540.1</ele>
        <time>2024-07-08T10:23:07Z</time>
      </trkpt>
      <trkpt lat="45.14512" lon="6.11305">
        <ele>2540.2</ele>
        <time>2024-07-08T10:23:08Z</time>
      </trkpt>
      <trkpt lat="45.14512" lon="6.11304">
        <ele>2540.3</ele>
        <time>2024-07-08T10:23:09Z</time>
      </trkpt>
      <trkpt lat="45.14512" lon="6.11304">
        <ele>2540.5</ele>
        <time>2024-07-08T10:23:10Z</time>
      </trkpt>
      <trkpt lat="45.14513" lon="6.11303">
        <ele>2540.6</ele>
        <time>2024-07-08T10:23:11Z</time>
      </trkpt>
      <trkpt lat="45.14513" lon="6.11303">
        <ele>2540.8</ele>
        <time>2024-07-08T10:23:12Z</time>
      </trkpt>
      <trkpt lat="45.14514" lon="6.11304">
        <ele>2541</ele>
        <time>2024-07-08T10:23:13Z</time>
      </trkpt>
      <trkpt lat="45.14514" lon="6.11305">
        <ele>2541.4</ele>
        <time>2024-07-08T10:23:14Z</time>
      </trkpt>
      <trkpt lat="45.14515" lon="6.11306">
        <ele>2541.6</ele>
        <time>2024-07-08T10:23:15Z</time>
      </trkpt>
      <trkpt lat="45.14515" lon="6.11307">
        <ele>2541.9</ele>
        <time>2024-07-08T10:23:16Z</time>
      </trkpt>
      <trkpt lat="45.14515" lon="6.11308">
        <ele>2542.2</ele>
        <time>2024-07-08T10:23:17Z</time>
      </trkpt>
      <trkpt lat="45.14515" lon="6.11309">
        <ele>2542.4</ele>
        <time>2024-07-08T10:23:18Z</time>
      </trkpt>
      <trkpt lat="45.14515" lon="6.1131">
        <ele>2542.7</ele>
        <time>2024-07-08T10:23:19Z</time>
      </trkpt>
      <trkpt lat="45.14515" lon="6.11311">
        <ele>2542.9</ele>
        <time>2024-07-08T10:23:20Z</time>
      </trkpt>
      <trkpt lat="45.14515" lon="6.11311">
        <ele>2543</ele>
        <time>2024-07-08T10:23:21Z</time>
      </trkpt>
      <trkpt lat="45.14516" lon="6.11312">
        <ele>2543.2</ele>
        <time>2024-07-08T10:23:22Z</time>
      </trkpt>
      <trkpt lat="45.14516" lon="6.11311">
        <ele>2543.3</ele>
        <time>2024-07-08T10:23:23Z</time>
      </trkpt>
      <trkpt lat="45.14517" lon="6.11312">
        <ele>2543.5</ele>
        <time>2024-07-08T10:23:24Z</time>
      </trkpt>
      <trkpt lat="45.14518" lon="6.11312">
        <ele>2543.7</ele>
        <time>2024-07-08T10:23:25Z</time>
      </trkpt>
      <trkpt lat="45.14518" lon="6.11312">
        <ele>2543.8</ele>
        <time>2024-07-08T10:23:26Z</time>
      </trkpt>
      <trkpt lat="45.14519" lon="6.11313">
        <ele>2544</ele>
        <time>2024-07-08T10:23:27Z</time>
      </trkpt>
      <trkpt lat="45.14519" lon="6.11313">
        <ele>2544.1</ele>
        <time>2024-07-08T10:23:28Z</time>
      </trkpt>
      <trkpt lat="45.14519" lon="6.11314">
        <ele>2544.3</ele>
        <time>2024-07-08T10:23:29Z</time>
      </trkpt>
      <trkpt lat="45.1452" lon="6.11314">
        <ele>2544.4</ele>
        <time>2024-07-08T10:23:30Z</time>
      </trkpt>
      <trkpt lat="45.1452" lon="6.11314">
        <ele>2544.6</ele>
        <time>2024-07-08T10:23:31Z</time>
      </trkpt>
      <trkpt lat="45.14521" lon="6.11315">
        <ele>2544.8</ele>
        <time>2024-07-08T10:23:32Z</time>
      </trkpt>
      <trkpt lat="45.14521" lon="6.11316">
        <ele>2545</ele>
        <time>2024-07-08T10:23:33Z</time>
      </trkpt>
      <trkpt lat="45.14522" lon="6.11317">
        <ele>2545.3</ele>
        <time>2024-07-08T10:23:34Z</time>
      </trkpt>
      <trkpt lat="45.14523" lon="6.11317">
        <ele>2545.5</ele>
        <time>2024-07-08T10:23:35Z</time>
      </trkpt>
      <trkpt lat="45.14523" lon="6.11318">
        <ele>2545.7</ele>
        <time>2024-07-08T10:23:36Z</time>
      </trkpt>
      <trkpt lat="45.14524" lon="6.11319">
        <ele>2545.9</ele>
        <time>2024-07-08T10:23:37Z</time>
      </trkpt>
      <trkpt lat="45.14524" lon="6.11319">
        <ele>2546.1</ele>
        <time>2024-07-08T10:23:38Z</time>
      </trkpt>
      <trkpt lat="45.14525" lon="6.1132">
        <ele>2546.3</ele>
        <time>2024-07-08T10:23:39Z</time>
      </trkpt>
      <trkpt lat="45.14525" lon="6.1132">
        <ele>2546.5</ele>
        <time>2024-07-08T10:23:40Z</time>
      </trkpt>
      <trkpt lat="45.14525" lon="6.11322">
        <ele>2546.7</ele>
        <time>2024-07-08T10:23:41Z</time>
      </trkpt>
      <trkpt lat="45.14526" lon="6.11323">
        <ele>2547</ele>
        <time>2024-07-08T10:23:42Z</time>
      </trkpt>
      <trkpt lat="45.14526" lon="6.11324">
        <ele>2547.3</ele>
        <time>2024-07-08T10:23:43Z</time>
      </trkpt>
      <trkpt lat="45.14526" lon="6.11325">
        <ele>2547.5</ele>
        <time>2024-07-08T10:23:44Z</time>
      </trkpt>
      <trkpt lat="45.14526" lon="6.11327">
        <ele>2547.8</ele>
        <time>2024-07-08T10:23:45Z</time>
      </trkpt>
      <trkpt lat="45.14526" lon="6.11328">
        <ele>2548</ele>
        <time>2024-07-08T10:23:46Z</time>
      </trkpt>
      <trkpt lat="45.14526" lon="6.11328">
        <ele>2548.1</ele>
        <time>2024-07-08T10:23:47Z</time>
      </trkpt>
      <trkpt lat="45.14526" lon="6.1133">
        <ele>2548.4</ele>
        <time>2024-07-08T10:23:48Z</time>
      </trkpt>
      <trkpt lat="45.14526" lon="6.1133">
        <ele>2548.5</ele>
        <time>2024-07-08T10:23:49Z</time>
      </trkpt>
      <trkpt lat="45.14526" lon="6.1133">
        <ele>2548.6</ele>
        <time>2024-07-08T10:23:50Z</time>
      </trkpt>
      <trkpt lat="45.14526" lon="6.1133">
        <ele>2548.6</ele>
        <time>2024-07-08T10:23:51Z</time>
      </trkpt>
      <trkpt lat="45.14527" lon="6.11331">
        <ele>2548.8</ele>
        <time>2024-07-08T10:23:52Z</time>
      </trkpt>
      <trkpt lat="45.14527" lon="6.11331">
        <ele>2548.9</ele>
        <time>2024-07-08T10:23:53Z</time>
      </trkpt>
      <trkpt lat="45.14528" lon="6.11331">
        <ele>2549.1</ele>
        <time>2024-07-08T10:23:54Z</time>
      </trkpt>
      <trkpt lat="45.14528" lon="6.11331">
        <ele>2549.2</ele>
        <time>2024-07-08T10:23:55Z</time>
      </trkpt>
      <trkpt lat="45.14528" lon="6.11331">
        <ele>2549.3</ele>
        <time>2024-07-08T10:23:56Z</time>
      </trkpt>
      <trkpt lat="45.14528" lon="6.11332">
        <ele>2549.4</ele>
        <time>2024-07-08T10:23:57Z</time>
      </trkpt>
      <trkpt lat="45.14529" lon="6.11332">
        <ele>2549.6</ele>
        <time>2024-07-08T10:23:58Z</time>
      </trkpt>
      <trkpt lat="45.14529" lon="6.11333">
        <ele>2549.7</ele>
        <time>2024-07-08T10:23:59Z</time>
      </trkpt>
      <trkpt lat="45.14529" lon="6.11333">
        <ele>2549.8</ele>
        <time>2024-07-08T10:24:00Z</time>
      </trkpt>
      <trkpt lat="45.1453" lon="6.11334">
        <ele>2549.9</ele>
        <time>2024-07-08T10:24:01Z</time>
      </trkpt>
      <trkpt lat="45.14529" lon="6.11334">
        <ele>2550</ele>
        <time>2024-07-08T10:24:02Z</time>
      </trkpt>
      <trkpt lat="45.1453" lon="6.11335">
        <ele>2550.2</ele>
        <time>2024-07-08T10:24:03Z</time>
      </trkpt>
      <trkpt lat="45.14529" lon="6.11335">
        <ele>2550.3</ele>
        <time>2024-07-08T10:24:04Z</time>
      </trkpt>
      <trkpt lat="45.1453" lon="6.11336">
        <ele>2550.4</ele>
        <time>2024-07-08T10:24:05Z</time>
      </trkpt>
      <trkpt lat="45.1453" lon="6.11336">
        <ele>2550.6</ele>
        <time>2024-07-08T10:24:06Z</time>
      </trkpt>
      <trkpt lat="45.1453" lon="6.11337">
        <ele>2550.8</ele>
        <time>2024-07-08T10:24:07Z</time>
      </trkpt>
      <trkpt lat="45.1453" lon="6.11338">
        <ele>2550.9</ele>
        <time>2024-07-08T10:24:08Z</time>
      </trkpt>
      <trkpt lat="45.1453" lon="6.11339">
        <ele>2551.2</ele>
        <time>2024-07-08T10:24:09Z</time>
      </trkpt>
      <trkpt lat="45.1453" lon="6.11339">
        <ele>2551.2</ele>
        <time>2024-07-08T10:24:10Z</time>
      </trkpt>
      <trkpt lat="45.1453" lon="6.11339">
        <ele>2551.3</ele>
        <time>2024-07-08T10:24:11Z</time>
      </trkpt>
      <trkpt lat="45.14531" lon="6.11339">
        <ele>2551.4</ele>
        <time>2024-07-08T10:24:12Z</time>
      </trkpt>
      <trkpt lat="45.14531" lon="6.11339">
        <ele>2551.6</ele>
        <time>2024-07-08T10:24:13Z</time>
      </trkpt>
      <trkpt lat="45.14532" lon="6.11338">
        <ele>2551.8</ele>
        <time>2024-07-08T10:24:14Z</time>
      </trkpt>
      <trkpt lat="45.14532" lon="6.11338">
        <ele>2551.9</ele>
        <time>2024-07-08T10:24:15Z</time>
      </trkpt>
      <trkpt lat="45.14532" lon="6.11338">
        <ele>2552</ele>
        <time>2024-07-08T10:24:16Z</time>
      </trkpt>
      <trkpt lat="45.14533" lon="6.11338">
        <ele>2552.1</ele>
        <time>2024-07-08T10:24:17Z</time>
      </trkpt>
      <trkpt lat="45.14533" lon="6.11339">
        <ele>2552.2</ele>
        <time>2024-07-08T10:24:18Z</time>
      </trkpt>
      <trkpt lat="45.14534" lon="6.11339">
        <ele>2552.5</ele>
        <time>2024-07-08T10:24:19Z</time>
      </trkpt>
      <trkpt lat="45.14534" lon="6.11339">
        <ele>2552.6</ele>
        <time>2024-07-08T10:24:20Z</time>
      </trkpt>
      <trkpt lat="45.14535" lon="6.1134">
        <ele>2552.8</ele>
        <time>2024-07-08T10:24:21Z</time>
      </trkpt>
      <trkpt lat="45.14535" lon="6.1134">
        <ele>2553</ele>
        <time>2024-07-08T10:24:22Z</time>
      </trkpt>
      <trkpt lat="45.14536" lon="6.1134">
        <ele>2553.3</ele>
        <time>2024-07-08T10:24:23Z</time>
      </trkpt>
      <trkpt lat="45.14537" lon="6.1134">
        <ele>2553.5</ele>
        <time>2024-07-08T10:24:24Z</time>
      </trkpt>
      <trkpt lat="45.14537" lon="6.1134">
        <ele>2553.7</ele>
        <time>2024-07-08T10:24:25Z</time>
      </trkpt>
      <trkpt lat="45.14538" lon="6.1134">
        <ele>2553.8</ele>
        <time>2024-07-08T10:24:26Z</time>
      </trkpt>
      <trkpt lat="45.14537" lon="6.1134">
        <ele>2554</ele>
        <time>2024-07-08T10:24:27Z</time>
      </trkpt>
      <trkpt lat="45.14537" lon="6.11341">
        <ele>2554.1</ele>
        <time>2024-07-08T10:24:28Z</time>
      </trkpt>
      <trkpt lat="45.14537" lon="6.11341">
        <ele>2554.1</ele>
        <time>2024-07-08T10:24:29Z</time>
      </trkpt>
      <trkpt lat="45.14537" lon="6.11341">
        <ele>2554.1</ele>
        <time>2024-07-08T10:24:30Z</time>
      </trkpt>
      <trkpt lat="45.14537" lon="6.11341">
        <ele>2554.1</ele>
        <time>2024-07-08T10:24:31Z</time>
      </trkpt>
      <trkpt lat="45.14537" lon="6.11341">
        <ele>2554.1</ele>
        <time>2024-07-08T10:24:32Z</time>
      </trkpt>
      <trkpt lat="45.14537" lon="6.11341">
        <ele>2554.2</ele>
        <time>2024-07-08T10:24:33Z</time>
      </trkpt>
      <trkpt lat="45.14538" lon="6.1134">
        <ele>2554.4</ele>
        <time>2024-07-08T10:24:34Z</time>
      </trkpt>
      <trkpt lat="45.14538" lon="6.1134">
        <ele>2554.6</ele>
        <time>2024-07-08T10:24:35Z</time>
      </trkpt>
      <trkpt lat="45.14539" lon="6.11339">
        <ele>2554.9</ele>
        <time>2024-07-08T10:24:36Z</time>
      </trkpt>
      <trkpt lat="45.14541" lon="6.11338">
        <ele>2555.4</ele>
        <time>2024-07-08T10:24:37Z</time>
      </trkpt>
      <trkpt lat="45.14541" lon="6.11338">
        <ele>2555.6</ele>
        <time>2024-07-08T10:24:38Z</time>
      </trkpt>
      <trkpt lat="45.14542" lon="6.11338">
        <ele>2555.9</ele>
        <time>2024-07-08T10:24:39Z</time>
      </trkpt>
      <trkpt lat="45.14542" lon="6.11338">
        <ele>2556</ele>
        <time>2024-07-08T10:24:40Z</time>
      </trkpt>
      <trkpt lat="45.14542" lon="6.11338">
        <ele>2556.1</ele>
        <time>2024-07-08T10:24:41Z</time>
      </trkpt>
      <trkpt lat="45.14541" lon="6.11339">
        <ele>2556.1</ele>
        <time>2024-07-08T10:24:42Z</time>
      </trkpt>
      <trkpt lat="45.14541" lon="6.11339">
        <ele>2556.2</ele>
        <time>2024-07-08T10:24:43Z</time>
      </trkpt>
      <trkpt lat="45.14541" lon="6.11339">
        <ele>2556.2</ele>
        <time>2024-07-08T10:24:44Z</time>
      </trkpt>
      <trkpt lat="45.14541" lon="6.11339">
        <ele>2556.2</ele>
        <time>2024-07-08T10:24:45Z</time>
      </trkpt>
      <trkpt lat="45.14541" lon="6.11339">
        <ele>2556.2</ele>
        <time>2024-07-08T10:24:46Z</time>
      </trkpt>
      <trkpt lat="45.14541" lon="6.11339">
        <ele>2556.2</ele>
        <time>2024-07-08T10:24:47Z</time>
      </trkpt>
      <trkpt lat="45.14541" lon="6.11339">
        <ele>2556.3</ele>
        <time>2024-07-08T10:24:48Z</time>
      </trkpt>
      <trkpt lat="45.14541" lon="6.11339">
        <ele>2556.3</ele>
        <time>2024-07-08T10:24:49Z</time>
      </trkpt>
      <trkpt lat="45.14541" lon="6.11339">
        <ele>2556.3</ele>
        <time>2024-07-08T10:24:50Z</time>
      </trkpt>
      <trkpt lat="45.14541" lon="6.11339">
        <ele>2556.3</ele>
        <time>2024-07-08T10:24:51Z</time>
      </trkpt>
      <trkpt lat="45.14541" lon="6.11339">
        <ele>2556.4</ele>
        <time>2024-07-08T10:24:52Z</time>
      </trkpt>
      <trkpt lat="45.14541" lon="6.11339">
        <ele>2556.4</ele>
        <time>2024-07-08T10:24:53Z</time>
      </trkpt>
      <trkpt lat="45.14541" lon="6.11339">
        <ele>2556.4</ele>
        <time>2024-07-08T10:24:54Z</time>
      </trkpt>
      <trkpt lat="45.14541" lon="6.11339">
        <ele>2556.5</ele>
        <time>2024-07-08T10:24:55Z</time>
      </trkpt>
      <trkpt lat="45.14541" lon="6.11339">
        <ele>2556.5</ele>
        <time>2024-07-08T10:24:56Z</time>
      </trkpt>
      <trkpt lat="45.14541" lon="6.11339">
        <ele>2556.5</ele>
        <time>2024-07-08T10:24:57Z</time>
      </trkpt>
      <trkpt lat="45.14541" lon="6.11339">
        <ele>2556.5</ele>
        <time>2024-07-08T10:24:58Z</time>
      </trkpt>
      <trkpt lat="45.14541" lon="6.11339">
        <ele>2556.5</ele>
        <time>2024-07-08T10:24:59Z</time>
      </trkpt>
      <trkpt lat="45.14541" lon="6.11339">
        <ele>2556.5</ele>
        <time>2024-07-08T10:25:00Z</time>
      </trkpt>
      <trkpt lat="45.14541" lon="6.11339">
        <ele>2556.5</ele>
        <time>2024-07-08T10:25:01Z</time>
      </trkpt>
      <trkpt lat="45.14541" lon="6.11338">
        <ele>2556.5</ele>
        <time>2024-07-08T10:25:02Z</time>
      </trkpt>
      <trkpt lat="45.14541" lon="6.11339">
        <ele>2556.6</ele>
        <time>2024-07-08T10:25:03Z</time>
      </trkpt>
      <trkpt lat="45.14542" lon="6.11339">
        <ele>2556.8</ele>
        <time>2024-07-08T10:25:04Z</time>
      </trkpt>
      <trkpt lat="45.14542" lon="6.11339">
        <ele>2557</ele>
        <time>2024-07-08T10:25:05Z</time>
      </trkpt>
      <trkpt lat="45.14542" lon="6.11339">
        <ele>2557.1</ele>
        <time>2024-07-08T10:25:06Z</time>
      </trkpt>
      <trkpt lat="45.14542" lon="6.11339">
        <ele>2557.1</ele>
        <time>2024-07-08T10:25:07Z</time>
      </trkpt>
      <trkpt lat="45.14543" lon="6.11339">
        <ele>2557.3</ele>
        <time>2024-07-08T10:25:08Z</time>
      </trkpt>
      <trkpt lat="45.14543" lon="6.1134">
        <ele>2557.5</ele>
        <time>2024-07-08T10:25:09Z</time>
      </trkpt>
      <trkpt lat="45.14544" lon="6.1134">
        <ele>2557.7</ele>
        <time>2024-07-08T10:25:10Z</time>
      </trkpt>
      <trkpt lat="45.14544" lon="6.1134">
        <ele>2557.9</ele>
        <time>2024-07-08T10:25:11Z</time>
      </trkpt>
      <trkpt lat="45.14545" lon="6.1134">
        <ele>2558.1</ele>
        <time>2024-07-08T10:25:12Z</time>
      </trkpt>
      <trkpt lat="45.14546" lon="6.1134">
        <ele>2558.4</ele>
        <time>2024-07-08T10:25:13Z</time>
      </trkpt>
      <trkpt lat="45.14546" lon="6.11341">
        <ele>2558.5</ele>
        <time>2024-07-08T10:25:14Z</time>
      </trkpt>
      <trkpt lat="45.14546" lon="6.11341">
        <ele>2558.6</ele>
        <time>2024-07-08T10:25:15Z</time>
      </trkpt>
      <trkpt lat="45.14547" lon="6.11341">
        <ele>2558.7</ele>
        <time>2024-07-08T10:25:16Z</time>
      </trkpt>
      <trkpt lat="45.14547" lon="6.11341">
        <ele>2558.9</ele>
        <time>2024-07-08T10:25:17Z</time>
      </trkpt>
      <trkpt lat="45.14548" lon="6.11341">
        <ele>2559.2</ele>
        <time>2024-07-08T10:25:18Z</time>
      </trkpt>
      <trkpt lat="45.14549" lon="6.11341">
        <ele>2559.5</ele>
        <time>2024-07-08T10:25:19Z</time>
      </trkpt>
      <trkpt lat="45.1455" lon="6.11341">
        <ele>2559.7</ele>
        <time>2024-07-08T10:25:20Z</time>
      </trkpt>
      <trkpt lat="45.1455" lon="6.11341">
        <ele>2559.9</ele>
        <time>2024-07-08T10:25:21Z</time>
      </trkpt>
      <trkpt lat="45.14551" lon="6.11342">
        <ele>2560.2</ele>
        <time>2024-07-08T10:25:22Z</time>
      </trkpt>
      <trkpt lat="45.14552" lon="6.11342">
        <ele>2560.5</ele>
        <time>2024-07-08T10:25:23Z</time>
      </trkpt>
      <trkpt lat="45.14552" lon="6.11342">
        <ele>2560.6</ele>
        <time>2024-07-08T10:25:24Z</time>
      </trkpt>
      <trkpt lat="45.14552" lon="6.11342">
        <ele>2560.7</ele>
        <time>2024-07-08T10:25:25Z</time>
      </trkpt>
      <trkpt lat="45.14552" lon="6.11344">
        <ele>2561</ele>
        <time>2024-07-08T10:25:26Z</time>
      </trkpt>
      <trkpt lat="45.14552" lon="6.11345">
        <ele>2561.3</ele>
        <time>2024-07-08T10:25:27Z</time>
      </trkpt>
      <trkpt lat="45.14552" lon="6.11346">
        <ele>2561.6</ele>
        <time>2024-07-08T10:25:28Z</time>
      </trkpt>
      <trkpt lat="45.14552" lon="6.11347">
        <ele>2561.8</ele>
        <time>2024-07-08T10:25:29Z</time>
      </trkpt>
      <trkpt lat="45.14552" lon="6.11348">
        <ele>2561.9</ele>
        <time>2024-07-08T10:25:30Z</time>
      </trkpt>
      <trkpt lat="45.14552" lon="6.11348">
        <ele>2562</ele>
        <time>2024-07-08T10:25:31Z</time>
      </trkpt>
      <trkpt lat="45.14552" lon="6.11348">
        <ele>2562.1</ele>
        <time>2024-07-08T10:25:32Z</time>
      </trkpt>
      <trkpt lat="45.14553" lon="6.11349">
        <ele>2562.3</ele>
        <time>2024-07-08T10:25:33Z</time>
      </trkpt>
      <trkpt lat="45.14554" lon="6.11349">
        <ele>2562.5</ele>
        <time>2024-07-08T10:25:34Z</time>
      </trkpt>
      <trkpt lat="45.14554" lon="6.11349">
        <ele>2562.7</ele>
        <time>2024-07-08T10:25:35Z</time>
      </trkpt>
      <trkpt lat="45.14555" lon="6.11349">
        <ele>2562.9</ele>
        <time>2024-07-08T10:25:36Z</time>
      </trkpt>
      <trkpt lat="45.14555" lon="6.1135">
        <ele>2563.1</ele>
        <time>2024-07-08T10:25:37Z</time>
      </trkpt>
      <trkpt lat="45.14555" lon="6.1135">
        <ele>2563.2</ele>
        <time>2024-07-08T10:25:38Z</time>
      </trkpt>
      <trkpt lat="45.14556" lon="6.11351">
        <ele>2563.3</ele>
        <time>2024-07-08T10:25:39Z</time>
      </trkpt>
      <trkpt lat="45.14556" lon="6.11352">
        <ele>2563.4</ele>
        <time>2024-07-08T10:25:40Z</time>
      </trkpt>
      <trkpt lat="45.14556" lon="6.11353">
        <ele>2563.5</ele>
        <time>2024-07-08T10:25:41Z</time>
      </trkpt>
      <trkpt lat="45.14556" lon="6.11353">
        <ele>2563.5</ele>
        <time>2024-07-08T10:25:42Z</time>
      </trkpt>
      <trkpt lat="45.14556" lon="6.11353">
        <ele>2563.6</ele>
        <time>2024-07-08T10:25:43Z</time>
      </trkpt>
      <trkpt lat="45.14555" lon="6.11355">
        <ele>2563.7</ele>
        <time>2024-07-08T10:25:44Z</time>
      </trkpt>
      <trkpt lat="45.14555" lon="6.11355">
        <ele>2563.8</ele>
        <time>2024-07-08T10:25:45Z</time>
      </trkpt>
      <trkpt lat="45.14556" lon="6.11356">
        <ele>2563.9</ele>
        <time>2024-07-08T10:25:46Z</time>
      </trkpt>
      <trkpt lat="45.14556" lon="6.11356">
        <ele>2564</ele>
        <time>2024-07-08T10:25:47Z</time>
      </trkpt>
      <trkpt lat="45.14557" lon="6.11356">
        <ele>2564.1</ele>
        <time>2024-07-08T10:25:48Z</time>
      </trkpt>
      <trkpt lat="45.14558" lon="6.11356">
        <ele>2564.3</ele>
        <time>2024-07-08T10:25:49Z</time>
      </trkpt>
      <trkpt lat="45.14558" lon="6.11356">
        <ele>2564.3</ele>
        <time>2024-07-08T10:25:50Z</time>
      </trkpt>
      <trkpt lat="45.14559" lon="6.11356">
        <ele>2564.4</ele>
        <time>2024-07-08T10:25:51Z</time>
      </trkpt>
      <trkpt lat="45.14559" lon="6.11357">
        <ele>2564.4</ele>
        <time>2024-07-08T10:25:52Z</time>
      </trkpt>
      <trkpt lat="45.14559" lon="6.11357">
        <ele>2564.5</ele>
        <time>2024-07-08T10:25:53Z</time>
      </trkpt>
      <trkpt lat="45.1456" lon="6.11358">
        <ele>2564.6</ele>
        <time>2024-07-08T10:25:54Z</time>
      </trkpt>
      <trkpt lat="45.1456" lon="6.11358">
        <ele>2564.6</ele>
        <time>2024-07-08T10:25:55Z</time>
      </trkpt>
      <trkpt lat="45.1456" lon="6.11358">
        <ele>2564.7</ele>
        <time>2024-07-08T10:25:56Z</time>
      </trkpt>
      <trkpt lat="45.14561" lon="6.11358">
        <ele>2564.8</ele>
        <time>2024-07-08T10:25:57Z</time>
      </trkpt>
      <trkpt lat="45.14562" lon="6.11358">
        <ele>2564.9</ele>
        <time>2024-07-08T10:25:58Z</time>
      </trkpt>
      <trkpt lat="45.14562" lon="6.11359">
        <ele>2565</ele>
        <time>2024-07-08T10:25:59Z</time>
      </trkpt>
      <trkpt lat="45.14562" lon="6.11359">
        <ele>2565.1</ele>
        <time>2024-07-08T10:26:00Z</time>
      </trkpt>
      <trkpt lat="45.14563" lon="6.11359">
        <ele>2565.1</ele>
        <time>2024-07-08T10:26:01Z</time>
      </trkpt>
      <trkpt lat="45.14563" lon="6.11359">
        <ele>2565.2</ele>
        <time>2024-07-08T10:26:02Z</time>
      </trkpt>
      <trkpt lat="45.14564" lon="6.11359">
        <ele>2565.3</ele>
        <time>2024-07-08T10:26:03Z</time>
      </trkpt>
      <trkpt lat="45.14565" lon="6.11359">
        <ele>2565.5</ele>
        <time>2024-07-08T10:26:04Z</time>
      </trkpt>
      <trkpt lat="45.14565" lon="6.1136">
        <ele>2565.6</ele>
        <time>2024-07-08T10:26:05Z</time>
      </trkpt>
      <trkpt lat="45.14566" lon="6.1136">
        <ele>2565.7</ele>
        <time>2024-07-08T10:26:06Z</time>
      </trkpt>
      <trkpt lat="45.14566" lon="6.11361">
        <ele>2565.7</ele>
        <time>2024-07-08T10:26:07Z</time>
      </trkpt>
      <trkpt lat="45.14567" lon="6.11361">
        <ele>2565.8</ele>
        <time>2024-07-08T10:26:08Z</time>
      </trkpt>
      <trkpt lat="45.14567" lon="6.11361">
        <ele>2565.8</ele>
        <time>2024-07-08T10:26:09Z</time>
      </trkpt>
      <trkpt lat="45.14567" lon="6.11361">
        <ele>2565.8</ele>
        <time>2024-07-08T10:26:10Z</time>
      </trkpt>
      <trkpt lat="45.14567" lon="6.11361">
        <ele>2565.9</ele>
        <time>2024-07-08T10:26:11Z</time>
      </trkpt>
      <trkpt lat="45.14567" lon="6.11362">
        <ele>2565.9</ele>
        <time>2024-07-08T10:26:12Z</time>
      </trkpt>
      <trkpt lat="45.14568" lon="6.11362">
        <ele>2566</ele>
        <time>2024-07-08T10:26:13Z</time>
      </trkpt>
      <trkpt lat="45.14568" lon="6.11362">
        <ele>2566.1</ele>
        <time>2024-07-08T10:26:14Z</time>
      </trkpt>
      <trkpt lat="45.14569" lon="6.11362">
        <ele>2566.2</ele>
        <time>2024-07-08T10:26:15Z</time>
      </trkpt>
      <trkpt lat="45.1457" lon="6.11362">
        <ele>2566.3</ele>
        <time>2024-07-08T10:26:16Z</time>
      </trkpt>
      <trkpt lat="45.1457" lon="6.11363">
        <ele>2566.4</ele>
        <time>2024-07-08T10:26:17Z</time>
      </trkpt>
      <trkpt lat="45.14571" lon="6.11363">
        <ele>2566.4</ele>
        <time>2024-07-08T10:26:18Z</time>
      </trkpt>
      <trkpt lat="45.14572" lon="6.11363">
        <ele>2566.5</ele>
        <time>2024-07-08T10:26:19Z</time>
      </trkpt>
      <trkpt lat="45.14572" lon="6.11363">
        <ele>2566.6</ele>
        <time>2024-07-08T10:26:20Z</time>
      </trkpt>
      <trkpt lat="45.14572" lon="6.11363">
        <ele>2566.7</ele>
        <time>2024-07-08T10:26:21Z</time>
      </trkpt>
      <trkpt lat="45.14573" lon="6.11363">
        <ele>2566.7</ele>
        <time>2024-07-08T10:26:22Z</time>
      </trkpt>
      <trkpt lat="45.14574" lon="6.11363">
        <ele>2566.8</ele>
        <time>2024-07-08T10:26:23Z</time>
      </trkpt>
      <trkpt lat="45.14574" lon="6.11363">
        <ele>2566.9</ele>
        <time>2024-07-08T10:26:24Z</time>
      </trkpt>
      <trkpt lat="45.14575" lon="6.11364">
        <ele>2567</ele>
        <time>2024-07-08T10:26:25Z</time>
      </trkpt>
      <trkpt lat="45.14576" lon="6.11364">
        <ele>2567.1</ele>
        <time>2024-07-08T10:26:26Z</time>
      </trkpt>
      <trkpt lat="45.14576" lon="6.11364">
        <ele>2567.2</ele>
        <time>2024-07-08T10:26:27Z</time>
      </trkpt>
      <trkpt lat="45.14577" lon="6.11364">
        <ele>2567.3</ele>
        <time>2024-07-08T10:26:28Z</time>
      </trkpt>
      <trkpt lat="45.14578" lon="6.11365">
        <ele>2567.5</ele>
        <time>2024-07-08T10:26:29Z</time>
      </trkpt>
      <trkpt lat="45.14578" lon="6.11365">
        <ele>2567.5</ele>
        <time>2024-07-08T10:26:30Z</time>
      </trkpt>
      <trkpt lat="45.14579" lon="6.11366">
        <ele>2567.6</ele>
        <time>2024-07-08T10:26:31Z</time>
      </trkpt>
      <trkpt lat="45.14579" lon="6.11366">
        <ele>2567.7</ele>
        <time>2024-07-08T10:26:32Z</time>
      </trkpt>
      <trkpt lat="45.1458" lon="6.11366">
        <ele>2567.8</ele>
        <time>2024-07-08T10:26:33Z</time>
      </trkpt>
      <trkpt lat="45.1458" lon="6.11366">
        <ele>2567.8</ele>
        <time>2024-07-08T10:26:34Z</time>
      </trkpt>
      <trkpt lat="45.14581" lon="6.11366">
        <ele>2567.9</ele>
        <time>2024-07-08T10:26:35Z</time>
      </trkpt>
      <trkpt lat="45.14581" lon="6.11367">
        <ele>2568</ele>
        <time>2024-07-08T10:26:36Z</time>
      </trkpt>
      <trkpt lat="45.14582" lon="6.11367">
        <ele>2568.1</ele>
        <time>2024-07-08T10:26:37Z</time>
      </trkpt>
      <trkpt lat="45.14582" lon="6.11367">
        <ele>2568.2</ele>
        <time>2024-07-08T10:26:38Z</time>
      </trkpt>
      <trkpt lat="45.14583" lon="6.11367">
        <ele>2568.3</ele>
        <time>2024-07-08T10:26:39Z</time>
      </trkpt>
      <trkpt lat="45.14584" lon="6.11368">
        <ele>2568.4</ele>
        <time>2024-07-08T10:26:40Z</time>
      </trkpt>
      <trkpt lat="45.14584" lon="6.11368">
        <ele>2568.5</ele>
        <time>2024-07-08T10:26:41Z</time>
      </trkpt>
      <trkpt lat="45.14585" lon="6.11368">
        <ele>2568.5</ele>
        <time>2024-07-08T10:26:42Z</time>
      </trkpt>
      <trkpt lat="45.14585" lon="6.11369">
        <ele>2568.6</ele>
        <time>2024-07-08T10:26:43Z</time>
      </trkpt>
      <trkpt lat="45.14585" lon="6.11369">
        <ele>2568.7</ele>
        <time>2024-07-08T10:26:44Z</time>
      </trkpt>
      <trkpt lat="45.14586" lon="6.1137">
        <ele>2568.7</ele>
        <time>2024-07-08T10:26:45Z</time>
      </trkpt>
      <trkpt lat="45.14586" lon="6.1137">
        <ele>2568.8</ele>
        <time>2024-07-08T10:26:46Z</time>
      </trkpt>
      <trkpt lat="45.14586" lon="6.1137">
        <ele>2568.8</ele>
        <time>2024-07-08T10:26:47Z</time>
      </trkpt>
      <trkpt lat="45.14586" lon="6.11371">
        <ele>2568.9</ele>
        <time>2024-07-08T10:26:48Z</time>
      </trkpt>
      <trkpt lat="45.14587" lon="6.11371">
        <ele>2569</ele>
        <time>2024-07-08T10:26:49Z</time>
      </trkpt>
      <trkpt lat="45.14587" lon="6.11372">
        <ele>2569.1</ele>
        <time>2024-07-08T10:26:50Z</time>
      </trkpt>
      <trkpt lat="45.14587" lon="6.11372">
        <ele>2569.1</ele>
        <time>2024-07-08T10:26:51Z</time>
      </trkpt>
      <trkpt lat="45.14587" lon="6.11372">
        <ele>2569.1</ele>
        <time>2024-07-08T10:26:52Z</time>
      </trkpt>
      <trkpt lat="45.14587" lon="6.11372">
        <ele>2569.1</ele>
        <time>2024-07-08T10:26:53Z</time>
      </trkpt>
      <trkpt lat="45.14587" lon="6.11373">
        <ele>2569.2</ele>
        <time>2024-07-08T10:26:54Z</time>
      </trkpt>
      <trkpt lat="45.14588" lon="6.11373">
        <ele>2569.3</ele>
        <time>2024-07-08T10:26:55Z</time>
      </trkpt>
      <trkpt lat="45.14588" lon="6.11373">
        <ele>2569.4</ele>
        <time>2024-07-08T10:26:56Z</time>
      </trkpt>
      <trkpt lat="45.14589" lon="6.11373">
        <ele>2569.5</ele>
        <time>2024-07-08T10:26:57Z</time>
      </trkpt>
      <trkpt lat="45.1459" lon="6.11373">
        <ele>2569.6</ele>
        <time>2024-07-08T10:26:58Z</time>
      </trkpt>
      <trkpt lat="45.1459" lon="6.11373">
        <ele>2569.7</ele>
        <time>2024-07-08T10:26:59Z</time>
      </trkpt>
      <trkpt lat="45.14591" lon="6.11373">
        <ele>2569.8</ele>
        <time>2024-07-08T10:27:00Z</time>
      </trkpt>
      <trkpt lat="45.14591" lon="6.11373">
        <ele>2569.9</ele>
        <time>2024-07-08T10:27:01Z</time>
      </trkpt>
      <trkpt lat="45.14591" lon="6.11374">
        <ele>2569.9</ele>
        <time>2024-07-08T10:27:02Z</time>
      </trkpt>
      <trkpt lat="45.14592" lon="6.11375">
        <ele>2570.1</ele>
        <time>2024-07-08T10:27:03Z</time>
      </trkpt>
      <trkpt lat="45.14592" lon="6.11376">
        <ele>2570.3</ele>
        <time>2024-07-08T10:27:04Z</time>
      </trkpt>
      <trkpt lat="45.14592" lon="6.11377">
        <ele>2570.4</ele>
        <time>2024-07-08T10:27:05Z</time>
      </trkpt>
      <trkpt lat="45.14592" lon="6.11378">
        <ele>2570.6</ele>
        <time>2024-07-08T10:27:06Z</time>
      </trkpt>
      <trkpt lat="45.14592" lon="6.11379">
        <ele>2570.7</ele>
        <time>2024-07-08T10:27:07Z</time>
      </trkpt>
      <trkpt lat="45.14593" lon="6.1138">
        <ele>2570.9</ele>
        <time>2024-07-08T10:27:08Z</time>
      </trkpt>
      <trkpt lat="45.14593" lon="6.11379">
        <ele>2571</ele>
        <time>2024-07-08T10:27:09Z</time>
      </trkpt>
      <trkpt lat="45.14594" lon="6.11379">
        <ele>2571.1</ele>
        <time>2024-07-08T10:27:10Z</time>
      </trkpt>
      <trkpt lat="45.14594" lon="6.1138">
        <ele>2571.2</ele>
        <time>2024-07-08T10:27:11Z</time>
      </trkpt>
      <trkpt lat="45.14594" lon="6.1138">
        <ele>2571.2</ele>
        <time>2024-07-08T10:27:12Z</time>
      </trkpt>
      <trkpt lat="45.14595" lon="6.1138">
        <ele>2571.3</ele>
        <time>2024-07-08T10:27:13Z</time>
      </trkpt>
      <trkpt lat="45.14595" lon="6.1138">
        <ele>2571.3</ele>
        <time>2024-07-08T10:27:14Z</time>
      </trkpt>
      <trkpt lat="45.14595" lon="6.1138">
        <ele>2571.4</ele>
        <time>2024-07-08T10:27:15Z</time>
      </trkpt>
      <trkpt lat="45.14596" lon="6.1138">
        <ele>2571.5</ele>
        <time>2024-07-08T10:27:16Z</time>
      </trkpt>
      <trkpt lat="45.14596" lon="6.1138">
        <ele>2571.6</ele>
        <time>2024-07-08T10:27:17Z</time>
      </trkpt>
      <trkpt lat="45.14597" lon="6.1138">
        <ele>2571.8</ele>
        <time>2024-07-08T10:27:18Z</time>
      </trkpt>
      <trkpt lat="45.14597" lon="6.1138">
        <ele>2571.9</ele>
        <time>2024-07-08T10:27:19Z</time>
      </trkpt>
      <trkpt lat="45.14597" lon="6.1138">
        <ele>2572</ele>
        <time>2024-07-08T10:27:20Z</time>
      </trkpt>
      <trkpt lat="45.14598" lon="6.1138">
        <ele>2572.1</ele>
        <time>2024-07-08T10:27:21Z</time>
      </trkpt>
      <trkpt lat="45.14599" lon="6.1138">
        <ele>2572.3</ele>
        <time>2024-07-08T10:27:22Z</time>
      </trkpt>
      <trkpt lat="45.146" lon="6.1138">
        <ele>2572.5</ele>
        <time>2024-07-08T10:27:23Z</time>
      </trkpt>
      <trkpt lat="45.146" lon="6.1138">
        <ele>2572.6</ele>
        <time>2024-07-08T10:27:24Z</time>
      </trkpt>
      <trkpt lat="45.146" lon="6.1138">
        <ele>2572.6</ele>
        <time>2024-07-08T10:27:25Z</time>
      </trkpt>
      <trkpt lat="45.146" lon="6.1138">
        <ele>2572.8</ele>
        <time>2024-07-08T10:27:26Z</time>
      </trkpt>
      <trkpt lat="45.146" lon="6.11381">
        <ele>2572.9</ele>
        <time>2024-07-08T10:27:27Z</time>
      </trkpt>
      <trkpt lat="45.146" lon="6.11382">
        <ele>2573.1</ele>
        <time>2024-07-08T10:27:28Z</time>
      </trkpt>
      <trkpt lat="45.146" lon="6.11384">
        <ele>2573.4</ele>
        <time>2024-07-08T10:27:29Z</time>
      </trkpt>
      <trkpt lat="45.146" lon="6.11385">
        <ele>2573.5</ele>
        <time>2024-07-08T10:27:30Z</time>
      </trkpt>
      <trkpt lat="45.14601" lon="6.11385">
        <ele>2573.7</ele>
        <time>2024-07-08T10:27:31Z</time>
      </trkpt>
      <trkpt lat="45.14601" lon="6.11385">
        <ele>2573.7</ele>
        <time>2024-07-08T10:27:32Z</time>
      </trkpt>
      <trkpt lat="45.14601" lon="6.11385">
        <ele>2573.8</ele>
        <time>2024-07-08T10:27:33Z</time>
      </trkpt>
      <trkpt lat="45.14602" lon="6.11385">
        <ele>2573.9</ele>
        <time>2024-07-08T10:27:34Z</time>
      </trkpt>
      <trkpt lat="45.14602" lon="6.11385">
        <ele>2574</ele>
        <time>2024-07-08T10:27:35Z</time>
      </trkpt>
      <trkpt lat="45.14602" lon="6.11385">
        <ele>2574.1</ele>
        <time>2024-07-08T10:27:36Z</time>
      </trkpt>
      <trkpt lat="45.14603" lon="6.11386">
        <ele>2574.2</ele>
        <time>2024-07-08T10:27:37Z</time>
      </trkpt>
      <trkpt lat="45.14603" lon="6.11386">
        <ele>2574.3</ele>
        <time>2024-07-08T10:27:38Z</time>
      </trkpt>
      <trkpt lat="45.14603" lon="6.11386">
        <ele>2574.4</ele>
        <time>2024-07-08T10:27:39Z</time>
      </trkpt>
      <trkpt lat="45.14604" lon="6.11386">
        <ele>2574.6</ele>
        <time>2024-07-08T10:27:40Z</time>
      </trkpt>
      <trkpt lat="45.14605" lon="6.11386">
        <ele>2574.8</ele>
        <time>2024-07-08T10:27:41Z</time>
      </trkpt>
      <trkpt lat="45.14605" lon="6.11386">
        <ele>2574.9</ele>
        <time>2024-07-08T10:27:42Z</time>
      </trkpt>
      <trkpt lat="45.14605" lon="6.11386">
        <ele>2574.9</ele>
        <time>2024-07-08T10:27:43Z</time>
      </trkpt>
      <trkpt lat="45.14606" lon="6.11385">
        <ele>2575.1</ele>
        <time>2024-07-08T10:27:44Z</time>
      </trkpt>
      <trkpt lat="45.14605" lon="6.11385">
        <ele>2575.3</ele>
        <time>2024-07-08T10:27:45Z</time>
      </trkpt>
      <trkpt lat="45.14605" lon="6.11385">
        <ele>2575.3</ele>
        <time>2024-07-08T10:27:46Z</time>
      </trkpt>
      <trkpt lat="45.14605" lon="6.11385">
        <ele>2575.4</ele>
        <time>2024-07-08T10:27:47Z</time>
      </trkpt>
      <trkpt lat="45.14605" lon="6.11385">
        <ele>2575.5</ele>
        <time>2024-07-08T10:27:48Z</time>
      </trkpt>
      <trkpt lat="45.14605" lon="6.11385">
        <ele>2575.5</ele>
        <time>2024-07-08T10:27:49Z</time>
      </trkpt>
      <trkpt lat="45.14605" lon="6.11385">
        <ele>2575.7</ele>
        <time>2024-07-08T10:27:50Z</time>
      </trkpt>
      <trkpt lat="45.14606" lon="6.11385">
        <ele>2575.8</ele>
        <time>2024-07-08T10:27:51Z</time>
      </trkpt>
      <trkpt lat="45.14607" lon="6.11386">
        <ele>2576.1</ele>
        <time>2024-07-08T10:27:52Z</time>
      </trkpt>
      <trkpt lat="45.14608" lon="6.11387">
        <ele>2576.5</ele>
        <time>2024-07-08T10:27:53Z</time>
      </trkpt>
      <trkpt lat="45.14608" lon="6.11387">
        <ele>2576.7</ele>
        <time>2024-07-08T10:27:54Z</time>
      </trkpt>
      <trkpt lat="45.14609" lon="6.11387">
        <ele>2577</ele>
        <time>2024-07-08T10:27:55Z</time>
      </trkpt>
      <trkpt lat="45.1461" lon="6.11387">
        <ele>2577.2</ele>
        <time>2024-07-08T10:27:56Z</time>
      </trkpt>
      <trkpt lat="45.14611" lon="6.11387">
        <ele>2577.4</ele>
        <time>2024-07-08T10:27:57Z</time>
      </trkpt>
      <trkpt lat="45.14611" lon="6.11389">
        <ele>2577.8</ele>
        <time>2024-07-08T10:27:58Z</time>
      </trkpt>
      <trkpt lat="45.14611" lon="6.1139">
        <ele>2578</ele>
        <time>2024-07-08T10:27:59Z</time>
      </trkpt>
      <trkpt lat="45.1461" lon="6.11391">
        <ele>2578.2</ele>
        <time>2024-07-08T10:28:00Z</time>
      </trkpt>
      <trkpt lat="45.1461" lon="6.11391">
        <ele>2578.5</ele>
        <time>2024-07-08T10:28:01Z</time>
      </trkpt>
      <trkpt lat="45.14609" lon="6.11392">
        <ele>2578.7</ele>
        <time>2024-07-08T10:28:02Z</time>
      </trkpt>
      <trkpt lat="45.14609" lon="6.11392">
        <ele>2578.9</ele>
        <time>2024-07-08T10:28:03Z</time>
      </trkpt>
      <trkpt lat="45.14608" lon="6.11393">
        <ele>2579.1</ele>
        <time>2024-07-08T10:28:04Z</time>
      </trkpt>
      <trkpt lat="45.14607" lon="6.11393">
        <ele>2579.3</ele>
        <time>2024-07-08T10:28:05Z</time>
      </trkpt>
      <trkpt lat="45.14607" lon="6.11394">
        <ele>2579.4</ele>
        <time>2024-07-08T10:28:06Z</time>
      </trkpt>
      <trkpt lat="45.14607" lon="6.11394">
        <ele>2579.6</ele>
        <time>2024-07-08T10:28:07Z</time>
      </trkpt>
      <trkpt lat="45.14607" lon="6.11395">
        <ele>2579.8</ele>
        <time>2024-07-08T10:28:08Z</time>
      </trkpt>
      <trkpt lat="45.14608" lon="6.11395">
        <ele>2580</ele>
        <time>2024-07-08T10:28:09Z</time>
      </trkpt>
      <trkpt lat="45.14608" lon="6.11396">
        <ele>2580.3</ele>
        <time>2024-07-08T10:28:10Z</time>
      </trkpt>
      <trkpt lat="45.14609" lon="6.11396">
        <ele>2580.4</ele>
        <time>2024-07-08T10:28:11Z</time>
      </trkpt>
      <trkpt lat="45.1461" lon="6.11396">
        <ele>2580.6</ele>
        <time>2024-07-08T10:28:12Z</time>
      </trkpt>
      <trkpt lat="45.1461" lon="6.11396">
        <ele>2580.8</ele>
        <time>2024-07-08T10:28:13Z</time>
      </trkpt>
      <trkpt lat="45.1461" lon="6.11397">
        <ele>2580.9</ele>
        <time>2024-07-08T10:28:14Z</time>
      </trkpt>
      <trkpt lat="45.14611" lon="6.11397">
        <ele>2581.1</ele>
        <time>2024-07-08T10:28:15Z</time>
      </trkpt>
      <trkpt lat="45.14611" lon="6.11397">
        <ele>2581.2</ele>
        <time>2024-07-08T10:28:16Z</time>
      </trkpt>
      <trkpt lat="45.14612" lon="6.11398">
        <ele>2581.5</ele>
        <time>2024-07-08T10:28:17Z</time>
      </trkpt>
      <trkpt lat="45.14612" lon="6.11398">
        <ele>2581.6</ele>
        <time>2024-07-08T10:28:18Z</time>
      </trkpt>
      <trkpt lat="45.14611" lon="6.11398">
        <ele>2581.7</ele>
        <time>2024-07-08T10:28:19Z</time>
      </trkpt>
      <trkpt lat="45.14611" lon="6.11398">
        <ele>2581.8</ele>
        <time>2024-07-08T10:28:20Z</time>
      </trkpt>
      <trkpt lat="45.14611" lon="6.11398">
        <ele>2581.9</ele>
        <time>2024-07-08T10:28:21Z</time>
      </trkpt>
      <trkpt lat="45.14611" lon="6.11398">
        <ele>2581.9</ele>
        <time>2024-07-08T10:28:22Z</time>
      </trkpt>
      <trkpt lat="45.14612" lon="6.11399">
        <ele>2582.1</ele>
        <time>2024-07-08T10:28:23Z</time>
      </trkpt>
      <trkpt lat="45.14612" lon="6.11399">
        <ele>2582.2</ele>
        <time>2024-07-08T10:28:24Z</time>
      </trkpt>
      <trkpt lat="45.14612" lon="6.114">
        <ele>2582.3</ele>
        <time>2024-07-08T10:28:25Z</time>
      </trkpt>
      <trkpt lat="45.14613" lon="6.11401">
        <ele>2582.6</ele>
        <time>2024-07-08T10:28:26Z</time>
      </trkpt>
      <trkpt lat="45.14613" lon="6.11402">
        <ele>2582.8</ele>
        <time>2024-07-08T10:28:27Z</time>
      </trkpt>
      <trkpt lat="45.14613" lon="6.11403">
        <ele>2583.1</ele>
        <time>2024-07-08T10:28:28Z</time>
      </trkpt>
      <trkpt lat="45.14613" lon="6.11404">
        <ele>2583.3</ele>
        <time>2024-07-08T10:28:29Z</time>
      </trkpt>
      <trkpt lat="45.14613" lon="6.11405">
        <ele>2583.5</ele>
        <time>2024-07-08T10:28:30Z</time>
      </trkpt>
      <trkpt lat="45.14613" lon="6.11406">
        <ele>2583.7</ele>
        <time>2024-07-08T10:28:31Z</time>
      </trkpt>
      <trkpt lat="45.14612" lon="6.11407">
        <ele>2583.9</ele>
        <time>2024-07-08T10:28:32Z</time>
      </trkpt>
      <trkpt lat="45.14612" lon="6.11407">
        <ele>2584.1</ele>
        <time>2024-07-08T10:28:33Z</time>
      </trkpt>
      <trkpt lat="45.14611" lon="6.11407">
        <ele>2584.3</ele>
        <time>2024-07-08T10:28:34Z</time>
      </trkpt>
      <trkpt lat="45.1461" lon="6.11407">
        <ele>2584.5</ele>
        <time>2024-07-08T10:28:35Z</time>
      </trkpt>
      <trkpt lat="45.1461" lon="6.11407">
        <ele>2584.6</ele>
        <time>2024-07-08T10:28:36Z</time>
      </trkpt>
      <trkpt lat="45.1461" lon="6.11407">
        <ele>2584.8</ele>
        <time>2024-07-08T10:28:37Z</time>
      </trkpt>
      <trkpt lat="45.14609" lon="6.11407">
        <ele>2584.8</ele>
        <time>2024-07-08T10:28:38Z</time>
      </trkpt>
      <trkpt lat="45.14609" lon="6.11407">
        <ele>2584.9</ele>
        <time>2024-07-08T10:28:39Z</time>
      </trkpt>
      <trkpt lat="45.14608" lon="6.11408">
        <ele>2585.1</ele>
        <time>2024-07-08T10:28:40Z</time>
      </trkpt>
      <trkpt lat="45.14608" lon="6.11408">
        <ele>2585.2</ele>
        <time>2024-07-08T10:28:41Z</time>
      </trkpt>
      <trkpt lat="45.14608" lon="6.11408">
        <ele>2585.3</ele>
        <time>2024-07-08T10:28:42Z</time>
      </trkpt>
      <trkpt lat="45.14608" lon="6.11409">
        <ele>2585.5</ele>
        <time>2024-07-08T10:28:43Z</time>
      </trkpt>
      <trkpt lat="45.14607" lon="6.1141">
        <ele>2585.7</ele>
        <time>2024-07-08T10:28:44Z</time>
      </trkpt>
      <trkpt lat="45.14607" lon="6.11411">
        <ele>2586</ele>
        <time>2024-07-08T10:28:45Z</time>
      </trkpt>
      <trkpt lat="45.14607" lon="6.11412">
        <ele>2586.1</ele>
        <time>2024-07-08T10:28:46Z</time>
      </trkpt>
      <trkpt lat="45.14607" lon="6.11413">
        <ele>2586.2</ele>
        <time>2024-07-08T10:28:47Z</time>
      </trkpt>
      <trkpt lat="45.14607" lon="6.11414">
        <ele>2586.5</ele>
        <time>2024-07-08T10:28:48Z</time>
      </trkpt>
      <trkpt lat="45.14608" lon="6.11415">
        <ele>2586.6</ele>
        <time>2024-07-08T10:28:49Z</time>
      </trkpt>
      <trkpt lat="45.14608" lon="6.11416">
        <ele>2586.9</ele>
        <time>2024-07-08T10:28:50Z</time>
      </trkpt>
      <trkpt lat="45.14608" lon="6.11416">
        <ele>2587</ele>
        <time>2024-07-08T10:28:51Z</time>
      </trkpt>
      <trkpt lat="45.14609" lon="6.11417">
        <ele>2587.2</ele>
        <time>2024-07-08T10:28:52Z</time>
      </trkpt>
      <trkpt lat="45.14609" lon="6.11417">
        <ele>2587.2</ele>
        <time>2024-07-08T10:28:53Z</time>
      </trkpt>
      <trkpt lat="45.14609" lon="6.11417">
        <ele>2587.4</ele>
        <time>2024-07-08T10:28:54Z</time>
      </trkpt>
      <trkpt lat="45.1461" lon="6.11417">
        <ele>2587.5</ele>
        <time>2024-07-08T10:28:55Z</time>
      </trkpt>
      <trkpt lat="45.1461" lon="6.11416">
        <ele>2587.5</ele>
        <time>2024-07-08T10:28:56Z</time>
      </trkpt>
      <trkpt lat="45.1461" lon="6.11416">
        <ele>2587.7</ele>
        <time>2024-07-08T10:28:57Z</time>
      </trkpt>
      <trkpt lat="45.1461" lon="6.11417">
        <ele>2587.8</ele>
        <time>2024-07-08T10:28:58Z</time>
      </trkpt>
      <trkpt lat="45.14611" lon="6.11417">
        <ele>2588</ele>
        <time>2024-07-08T10:28:59Z</time>
      </trkpt>
      <trkpt lat="45.14612" lon="6.11418">
        <ele>2588.3</ele>
        <time>2024-07-08T10:29:00Z</time>
      </trkpt>
      <trkpt lat="45.14613" lon="6.11418">
        <ele>2588.5</ele>
        <time>2024-07-08T10:29:01Z</time>
      </trkpt>
      <trkpt lat="45.14614" lon="6.11418">
        <ele>2588.7</ele>
        <time>2024-07-08T10:29:02Z</time>
      </trkpt>
      <trkpt lat="45.14614" lon="6.11418">
        <ele>2588.9</ele>
        <time>2024-07-08T10:29:03Z</time>
      </trkpt>
      <trkpt lat="45.14615" lon="6.11419">
        <ele>2589.2</ele>
        <time>2024-07-08T10:29:04Z</time>
      </trkpt>
      <trkpt lat="45.14616" lon="6.11419">
        <ele>2589.5</ele>
        <time>2024-07-08T10:29:05Z</time>
      </trkpt>
      <trkpt lat="45.14617" lon="6.11419">
        <ele>2589.7</ele>
        <time>2024-07-08T10:29:06Z</time>
      </trkpt>
      <trkpt lat="45.14617" lon="6.1142">
        <ele>2589.9</ele>
        <time>2024-07-08T10:29:07Z</time>
      </trkpt>
      <trkpt lat="45.14617" lon="6.1142">
        <ele>2590</ele>
        <time>2024-07-08T10:29:08Z</time>
      </trkpt>
      <trkpt lat="45.14618" lon="6.11421">
        <ele>2590.1</ele>
        <time>2024-07-08T10:29:09Z</time>
      </trkpt>
      <trkpt lat="45.14618" lon="6.11421">
        <ele>2590.2</ele>
        <time>2024-07-08T10:29:10Z</time>
      </trkpt>
      <trkpt lat="45.14618" lon="6.11421">
        <ele>2590.4</ele>
        <time>2024-07-08T10:29:11Z</time>
      </trkpt>
      <trkpt lat="45.14619" lon="6.11421">
        <ele>2590.5</ele>
        <time>2024-07-08T10:29:12Z</time>
      </trkpt>
      <trkpt lat="45.14618" lon="6.11422">
        <ele>2590.6</ele>
        <time>2024-07-08T10:29:13Z</time>
      </trkpt>
      <trkpt lat="45.14618" lon="6.11422">
        <ele>2590.7</ele>
        <time>2024-07-08T10:29:14Z</time>
      </trkpt>
      <trkpt lat="45.14618" lon="6.11423">
        <ele>2590.9</ele>
        <time>2024-07-08T10:29:15Z</time>
      </trkpt>
      <trkpt lat="45.14618" lon="6.11423">
        <ele>2591</ele>
        <time>2024-07-08T10:29:16Z</time>
      </trkpt>
      <trkpt lat="45.14618" lon="6.11424">
        <ele>2591.2</ele>
        <time>2024-07-08T10:29:17Z</time>
      </trkpt>
      <trkpt lat="45.14616" lon="6.11425">
        <ele>2591.6</ele>
        <time>2024-07-08T10:29:18Z</time>
      </trkpt>
      <trkpt lat="45.14616" lon="6.11425">
        <ele>2591.8</ele>
        <time>2024-07-08T10:29:19Z</time>
      </trkpt>
      <trkpt lat="45.14615" lon="6.11425">
        <ele>2592</ele>
        <time>2024-07-08T10:29:20Z</time>
      </trkpt>
      <trkpt lat="45.14615" lon="6.11426">
        <ele>2592.2</ele>
        <time>2024-07-08T10:29:21Z</time>
      </trkpt>
      <trkpt lat="45.14615" lon="6.11427">
        <ele>2592.4</ele>
        <time>2024-07-08T10:29:22Z</time>
      </trkpt>
      <trkpt lat="45.14615" lon="6.11428">
        <ele>2592.6</ele>
        <time>2024-07-08T10:29:23Z</time>
      </trkpt>
      <trkpt lat="45.14616" lon="6.11428">
        <ele>2592.9</ele>
        <time>2024-07-08T10:29:24Z</time>
      </trkpt>
      <trkpt lat="45.14616" lon="6.11429">
        <ele>2593</ele>
        <time>2024-07-08T10:29:25Z</time>
      </trkpt>
      <trkpt lat="45.14616" lon="6.1143">
        <ele>2593.1</ele>
        <time>2024-07-08T10:29:26Z</time>
      </trkpt>
      <trkpt lat="45.14616" lon="6.1143">
        <ele>2593.3</ele>
        <time>2024-07-08T10:29:27Z</time>
      </trkpt>
      <trkpt lat="45.14617" lon="6.11431">
        <ele>2593.4</ele>
        <time>2024-07-08T10:29:28Z</time>
      </trkpt>
      <trkpt lat="45.14617" lon="6.11432">
        <ele>2593.6</ele>
        <time>2024-07-08T10:29:29Z</time>
      </trkpt>
      <trkpt lat="45.14618" lon="6.11433">
        <ele>2593.9</ele>
        <time>2024-07-08T10:29:30Z</time>
      </trkpt>
      <trkpt lat="45.14618" lon="6.11433">
        <ele>2594</ele>
        <time>2024-07-08T10:29:31Z</time>
      </trkpt>
      <trkpt lat="45.14618" lon="6.11434">
        <ele>2594.1</ele>
        <time>2024-07-08T10:29:32Z</time>
      </trkpt>
      <trkpt lat="45.14618" lon="6.11434">
        <ele>2594.2</ele>
        <time>2024-07-08T10:29:33Z</time>
      </trkpt>
      <trkpt lat="45.14619" lon="6.11435">
        <ele>2594.4</ele>
        <time>2024-07-08T10:29:34Z</time>
      </trkpt>
      <trkpt lat="45.14619" lon="6.11436">
        <ele>2594.7</ele>
        <time>2024-07-08T10:29:35Z</time>
      </trkpt>
      <trkpt lat="45.14619" lon="6.11437">
        <ele>2594.8</ele>
        <time>2024-07-08T10:29:36Z</time>
      </trkpt>
      <trkpt lat="45.1462" lon="6.11438">
        <ele>2595</ele>
        <time>2024-07-08T10:29:37Z</time>
      </trkpt>
      <trkpt lat="45.1462" lon="6.11439">
        <ele>2595.2</ele>
        <time>2024-07-08T10:29:38Z</time>
      </trkpt>
      <trkpt lat="45.14621" lon="6.1144">
        <ele>2595.4</ele>
        <time>2024-07-08T10:29:39Z</time>
      </trkpt>
      <trkpt lat="45.14621" lon="6.11441">
        <ele>2595.7</ele>
        <time>2024-07-08T10:29:40Z</time>
      </trkpt>
      <trkpt lat="45.14621" lon="6.11442">
        <ele>2595.8</ele>
        <time>2024-07-08T10:29:41Z</time>
      </trkpt>
      <trkpt lat="45.14621" lon="6.11442">
        <ele>2596</ele>
        <time>2024-07-08T10:29:42Z</time>
      </trkpt>
      <trkpt lat="45.14622" lon="6.11443">
        <ele>2596.2</ele>
        <time>2024-07-08T10:29:43Z</time>
      </trkpt>
      <trkpt lat="45.14622" lon="6.11443">
        <ele>2596.3</ele>
        <time>2024-07-08T10:29:44Z</time>
      </trkpt>
      <trkpt lat="45.14622" lon="6.11444">
        <ele>2596.4</ele>
        <time>2024-07-08T10:29:45Z</time>
      </trkpt>
      <trkpt lat="45.14623" lon="6.11444">
        <ele>2596.6</ele>
        <time>2024-07-08T10:29:46Z</time>
      </trkpt>
      <trkpt lat="45.14623" lon="6.11445">
        <ele>2596.7</ele>
        <time>2024-07-08T10:29:47Z</time>
      </trkpt>
      <trkpt lat="45.14624" lon="6.11445">
        <ele>2596.8</ele>
        <time>2024-07-08T10:29:48Z</time>
      </trkpt>
      <trkpt lat="45.14624" lon="6.11445">
        <ele>2597</ele>
        <time>2024-07-08T10:29:49Z</time>
      </trkpt>
      <trkpt lat="45.14625" lon="6.11446">
        <ele>2597.2</ele>
        <time>2024-07-08T10:29:50Z</time>
      </trkpt>
      <trkpt lat="45.14625" lon="6.11446">
        <ele>2597.3</ele>
        <time>2024-07-08T10:29:51Z</time>
      </trkpt>
      <trkpt lat="45.14625" lon="6.11447">
        <ele>2597.5</ele>
        <time>2024-07-08T10:29:52Z</time>
      </trkpt>
      <trkpt lat="45.14625" lon="6.11448">
        <ele>2597.6</ele>
        <time>2024-07-08T10:29:53Z</time>
      </trkpt>
      <trkpt lat="45.14625" lon="6.11449">
        <ele>2597.8</ele>
        <time>2024-07-08T10:29:54Z</time>
      </trkpt>
      <trkpt lat="45.14625" lon="6.1145">
        <ele>2598</ele>
        <time>2024-07-08T10:29:55Z</time>
      </trkpt>
      <trkpt lat="45.14626" lon="6.11451">
        <ele>2598.1</ele>
        <time>2024-07-08T10:29:56Z</time>
      </trkpt>
      <trkpt lat="45.14626" lon="6.11452">
        <ele>2598.4</ele>
        <time>2024-07-08T10:29:57Z</time>
      </trkpt>
      <trkpt lat="45.14626" lon="6.11453">
        <ele>2598.5</ele>
        <time>2024-07-08T10:29:58Z</time>
      </trkpt>
      <trkpt lat="45.14626" lon="6.11453">
        <ele>2598.6</ele>
        <time>2024-07-08T10:29:59Z</time>
      </trkpt>
      <trkpt lat="45.14626" lon="6.11454">
        <ele>2598.8</ele>
        <time>2024-07-08T10:30:00Z</time>
      </trkpt>
      <trkpt lat="45.14626" lon="6.11454">
        <ele>2598.8</ele>
        <time>2024-07-08T10:30:01Z</time>
      </trkpt>
      <trkpt lat="45.14626" lon="6.11456">
        <ele>2599</ele>
        <time>2024-07-08T10:30:02Z</time>
      </trkpt>
      <trkpt lat="45.14626" lon="6.11456">
        <ele>2599</ele>
        <time>2024-07-08T10:30:03Z</time>
      </trkpt>
      <trkpt lat="45.14626" lon="6.11456">
        <ele>2599.2</ele>
        <time>2024-07-08T10:30:04Z</time>
      </trkpt>
      <trkpt lat="45.14626" lon="6.11456">
        <ele>2599.3</ele>
        <time>2024-07-08T10:30:05Z</time>
      </trkpt>
      <trkpt lat="45.14627" lon="6.11456">
        <ele>2599.3</ele>
        <time>2024-07-08T10:30:06Z</time>
      </trkpt>
      <trkpt lat="45.14627" lon="6.11457">
        <ele>2599.5</ele>
        <time>2024-07-08T10:30:07Z</time>
      </trkpt>
      <trkpt lat="45.14628" lon="6.11456">
        <ele>2599.6</ele>
        <time>2024-07-08T10:30:08Z</time>
      </trkpt>
      <trkpt lat="45.14628" lon="6.11456">
        <ele>2599.8</ele>
        <time>2024-07-08T10:30:09Z</time>
      </trkpt>
      <trkpt lat="45.14629" lon="6.11457">
        <ele>2599.8</ele>
        <time>2024-07-08T10:30:10Z</time>
      </trkpt>
      <trkpt lat="45.14629" lon="6.11457">
        <ele>2599.9</ele>
        <time>2024-07-08T10:30:11Z</time>
      </trkpt>
      <trkpt lat="45.14629" lon="6.11457">
        <ele>2600</ele>
        <time>2024-07-08T10:30:12Z</time>
      </trkpt>
      <trkpt lat="45.1463" lon="6.11458">
        <ele>2600.1</ele>
        <time>2024-07-08T10:30:13Z</time>
      </trkpt>
      <trkpt lat="45.14631" lon="6.11458">
        <ele>2600.3</ele>
        <time>2024-07-08T10:30:14Z</time>
      </trkpt>
      <trkpt lat="45.14631" lon="6.11459">
        <ele>2600.4</ele>
        <time>2024-07-08T10:30:15Z</time>
      </trkpt>
      <trkpt lat="45.14631" lon="6.11459">
        <ele>2600.5</ele>
        <time>2024-07-08T10:30:16Z</time>
      </trkpt>
      <trkpt lat="45.14632" lon="6.1146">
        <ele>2600.7</ele>
        <time>2024-07-08T10:30:17Z</time>
      </trkpt>
      <trkpt lat="45.14631" lon="6.11461">
        <ele>2600.8</ele>
        <time>2024-07-08T10:30:18Z</time>
      </trkpt>
      <trkpt lat="45.14631" lon="6.11461">
        <ele>2601</ele>
        <time>2024-07-08T10:30:19Z</time>
      </trkpt>
      <trkpt lat="45.1463" lon="6.11462">
        <ele>2601.2</ele>
        <time>2024-07-08T10:30:20Z</time>
      </trkpt>
      <trkpt lat="45.14629" lon="6.11462">
        <ele>2601.4</ele>
        <time>2024-07-08T10:30:21Z</time>
      </trkpt>
      <trkpt lat="45.14628" lon="6.11462">
        <ele>2601.4</ele>
        <time>2024-07-08T10:30:22Z</time>
      </trkpt>
      <trkpt lat="45.14628" lon="6.11462">
        <ele>2601.5</ele>
        <time>2024-07-08T10:30:23Z</time>
      </trkpt>
      <trkpt lat="45.14629" lon="6.11463">
        <ele>2601.6</ele>
        <time>2024-07-08T10:30:24Z</time>
      </trkpt>
      <trkpt lat="45.14629" lon="6.11463">
        <ele>2601.7</ele>
        <time>2024-07-08T10:30:25Z</time>
      </trkpt>
      <trkpt lat="45.14629" lon="6.11463">
        <ele>2601.7</ele>
        <time>2024-07-08T10:30:26Z</time>
      </trkpt>
      <trkpt lat="45.1463" lon="6.11463">
        <ele>2601.8</ele>
        <time>2024-07-08T10:30:27Z</time>
      </trkpt>
      <trkpt lat="45.1463" lon="6.11463">
        <ele>2601.9</ele>
        <time>2024-07-08T10:30:28Z</time>
      </trkpt>
      <trkpt lat="45.14631" lon="6.11463">
        <ele>2602</ele>
        <time>2024-07-08T10:30:29Z</time>
      </trkpt>
      <trkpt lat="45.14631" lon="6.11463">
        <ele>2602.1</ele>
        <time>2024-07-08T10:30:30Z</time>
      </trkpt>
      <trkpt lat="45.14632" lon="6.11464">
        <ele>2602.2</ele>
        <time>2024-07-08T10:30:31Z</time>
      </trkpt>
      <trkpt lat="45.14632" lon="6.11465">
        <ele>2602.3</ele>
        <time>2024-07-08T10:30:32Z</time>
      </trkpt>
      <trkpt lat="45.14632" lon="6.11466">
        <ele>2602.4</ele>
        <time>2024-07-08T10:30:33Z</time>
      </trkpt>
      <trkpt lat="45.14632" lon="6.11467">
        <ele>2602.5</ele>
        <time>2024-07-08T10:30:34Z</time>
      </trkpt>
      <trkpt lat="45.14632" lon="6.11468">
        <ele>2602.7</ele>
        <time>2024-07-08T10:30:35Z</time>
      </trkpt>
      <trkpt lat="45.14632" lon="6.11467">
        <ele>2602.7</ele>
        <time>2024-07-08T10:30:36Z</time>
      </trkpt>
      <trkpt lat="45.14632" lon="6.11467">
        <ele>2602.8</ele>
        <time>2024-07-08T10:30:37Z</time>
      </trkpt>
      <trkpt lat="45.14632" lon="6.11466">
        <ele>2602.8</ele>
        <time>2024-07-08T10:30:38Z</time>
      </trkpt>
      <trkpt lat="45.14632" lon="6.11466">
        <ele>2602.8</ele>
        <time>2024-07-08T10:30:39Z</time>
      </trkpt>
      <trkpt lat="45.14632" lon="6.11467">
        <ele>2602.8</ele>
        <time>2024-07-08T10:30:40Z</time>
      </trkpt>
      <trkpt lat="45.14632" lon="6.11467">
        <ele>2602.8</ele>
        <time>2024-07-08T10:30:41Z</time>
      </trkpt>
      <trkpt lat="45.14632" lon="6.11467">
        <ele>2602.9</ele>
        <time>2024-07-08T10:30:42Z</time>
      </trkpt>
      <trkpt lat="45.14632" lon="6.11467">
        <ele>2602.9</ele>
        <time>2024-07-08T10:30:43Z</time>
      </trkpt>
      <trkpt lat="45.14632" lon="6.11467">
        <ele>2602.9</ele>
        <time>2024-07-08T10:30:44Z</time>
      </trkpt>
      <trkpt lat="45.14632" lon="6.11467">
        <ele>2602.9</ele>
        <time>2024-07-08T10:30:45Z</time>
      </trkpt>
      <trkpt lat="45.14632" lon="6.11467">
        <ele>2602.9</ele>
        <time>2024-07-08T10:30:46Z</time>
      </trkpt>
      <trkpt lat="45.14632" lon="6.11467">
        <ele>2602.9</ele>
        <time>2024-07-08T10:30:47Z</time>
      </trkpt>
      <trkpt lat="45.14632" lon="6.11467">
        <ele>2602.9</ele>
        <time>2024-07-08T10:30:48Z</time>
      </trkpt>
      <trkpt lat="45.14632" lon="6.11467">
        <ele>2602.9</ele>
        <time>2024-07-08T10:30:49Z</time>
      </trkpt>
      <trkpt lat="45.14632" lon="6.11467">
        <ele>2602.9</ele>
        <time>2024-07-08T10:30:50Z</time>
      </trkpt>
      <trkpt lat="45.14632" lon="6.11467">
        <ele>2602.9</ele>
        <time>2024-07-08T10:30:51Z</time>
      </trkpt>
      <trkpt lat="45.14632" lon="6.11467">
        <ele>2603</ele>
        <time>2024-07-08T10:30:52Z</time>
      </trkpt>
      <trkpt lat="45.14632" lon="6.11467">
        <ele>2603</ele>
        <time>2024-07-08T10:30:53Z</time>
      </trkpt>
      <trkpt lat="45.14632" lon="6.11467">
        <ele>2603</ele>
        <time>2024-07-08T10:30:54Z</time>
      </trkpt>
      <trkpt lat="45.14632" lon="6.11467">
        <ele>2603</ele>
        <time>2024-07-08T10:30:55Z</time>
      </trkpt>
      <trkpt lat="45.14633" lon="6.11467">
        <ele>2603</ele>
        <time>2024-07-08T10:30:56Z</time>
      </trkpt>
      <trkpt lat="45.14633" lon="6.11468">
        <ele>2603.1</ele>
        <time>2024-07-08T10:30:57Z</time>
      </trkpt>
      <trkpt lat="45.14633" lon="6.11468">
        <ele>2603.2</ele>
        <time>2024-07-08T10:30:58Z</time>
      </trkpt>
      <trkpt lat="45.14633" lon="6.1147">
        <ele>2603.4</ele>
        <time>2024-07-08T10:30:59Z</time>
      </trkpt>
      <trkpt lat="45.14633" lon="6.11472">
        <ele>2603.5</ele>
        <time>2024-07-08T10:31:00Z</time>
      </trkpt>
      <trkpt lat="45.14632" lon="6.11474">
        <ele>2603.7</ele>
        <time>2024-07-08T10:31:01Z</time>
      </trkpt>
      <trkpt lat="45.14632" lon="6.11473">
        <ele>2603.7</ele>
        <time>2024-07-08T10:31:02Z</time>
      </trkpt>
      <trkpt lat="45.14633" lon="6.11473">
        <ele>2603.8</ele>
        <time>2024-07-08T10:31:03Z</time>
      </trkpt>
      <trkpt lat="45.14633" lon="6.11473">
        <ele>2603.8</ele>
        <time>2024-07-08T10:31:04Z</time>
      </trkpt>
      <trkpt lat="45.14633" lon="6.11473">
        <ele>2603.8</ele>
        <time>2024-07-08T10:31:05Z</time>
      </trkpt>
      <trkpt lat="45.14633" lon="6.11473">
        <ele>2603.8</ele>
        <time>2024-07-08T10:31:06Z</time>
      </trkpt>
      <trkpt lat="45.14633" lon="6.11473">
        <ele>2603.8</ele>
        <time>2024-07-08T10:31:07Z</time>
      </trkpt>
      <trkpt lat="45.14633" lon="6.11473">
        <ele>2603.8</ele>
        <time>2024-07-08T10:31:08Z</time>
      </trkpt>
      <trkpt lat="45.14633" lon="6.11473">
        <ele>2603.8</ele>
        <time>2024-07-08T10:31:09Z</time>
      </trkpt>
      <trkpt lat="45.14633" lon="6.11473">
        <ele>2603.8</ele>
        <time>2024-07-08T10:31:10Z</time>
      </trkpt>
      <trkpt lat="45.14633" lon="6.11473">
        <ele>2603.8</ele>
        <time>2024-07-08T10:31:11Z</time>
      </trkpt>
      <trkpt lat="45.14633" lon="6.11473">
        <ele>2603.9</ele>
        <time>2024-07-08T10:31:12Z</time>
      </trkpt>
      <trkpt lat="45.14633" lon="6.11473">
        <ele>2603.9</ele>
        <time>2024-07-08T10:31:13Z</time>
      </trkpt>
      <trkpt lat="45.14633" lon="6.11474">
        <ele>2603.9</ele>
        <time>2024-07-08T10:31:14Z</time>
      </trkpt>
      <trkpt lat="45.14633" lon="6.11474">
        <ele>2603.9</ele>
        <time>2024-07-08T10:31:15Z</time>
      </trkpt>
      <trkpt lat="45.14633" lon="6.11474">
        <ele>2603.9</ele>
        <time>2024-07-08T10:31:16Z</time>
      </trkpt>
      <trkpt lat="45.14633" lon="6.11474">
        <ele>2603.9</ele>
        <time>2024-07-08T10:31:17Z</time>
      </trkpt>
      <trkpt lat="45.14633" lon="6.11474">
        <ele>2603.9</ele>
        <time>2024-07-08T10:31:18Z</time>
      </trkpt>
      <trkpt lat="45.14633" lon="6.11475">
        <ele>2604</ele>
        <time>2024-07-08T10:31:19Z</time>
      </trkpt>
      <trkpt lat="45.14632" lon="6.11476">
        <ele>2604.1</ele>
        <time>2024-07-08T10:31:20Z</time>
      </trkpt>
      <trkpt lat="45.14632" lon="6.11476">
        <ele>2604.1</ele>
        <time>2024-07-08T10:31:21Z</time>
      </trkpt>
      <trkpt lat="45.1463" lon="6.11477">
        <ele>2604.3</ele>
        <time>2024-07-08T10:31:22Z</time>
      </trkpt>
      <trkpt lat="45.14629" lon="6.11478">
        <ele>2604.4</ele>
        <time>2024-07-08T10:31:23Z</time>
      </trkpt>
      <trkpt lat="45.14629" lon="6.11479">
        <ele>2604.5</ele>
        <time>2024-07-08T10:31:24Z</time>
      </trkpt>
      <trkpt lat="45.14628" lon="6.11479">
        <ele>2604.6</ele>
        <time>2024-07-08T10:31:25Z</time>
      </trkpt>
      <trkpt lat="45.14627" lon="6.11479">
        <ele>2604.7</ele>
        <time>2024-07-08T10:31:26Z</time>
      </trkpt>
      <trkpt lat="45.14627" lon="6.11479">
        <ele>2604.7</ele>
        <time>2024-07-08T10:31:27Z</time>
      </trkpt>
      <trkpt lat="45.14626" lon="6.11479">
        <ele>2604.8</ele>
        <time>2024-07-08T10:31:28Z</time>
      </trkpt>
      <trkpt lat="45.14625" lon="6.11478">
        <ele>2604.9</ele>
        <time>2024-07-08T10:31:29Z</time>
      </trkpt>
      <trkpt lat="45.14624" lon="6.11478">
        <ele>2605</ele>
        <time>2024-07-08T10:31:30Z</time>
      </trkpt>
      <trkpt lat="45.14623" lon="6.11478">
        <ele>2605</ele>
        <time>2024-07-08T10:31:31Z</time>
      </trkpt>
      <trkpt lat="45.14623" lon="6.11477">
        <ele>2605.1</ele>
        <time>2024-07-08T10:31:32Z</time>
      </trkpt>
      <trkpt lat="45.14622" lon="6.11477">
        <ele>2605.2</ele>
        <time>2024-07-08T10:31:33Z</time>
      </trkpt>
      <trkpt lat="45.14621" lon="6.11476">
        <ele>2605.3</ele>
        <time>2024-07-08T10:31:34Z</time>
      </trkpt>
      <trkpt lat="45.14621" lon="6.11476">
        <ele>2605.3</ele>
        <time>2024-07-08T10:31:35Z</time>
      </trkpt>
      <trkpt lat="45.14621" lon="6.11476">
        <ele>2605.3</ele>
        <time>2024-07-08T10:31:36Z</time>
      </trkpt>
      <trkpt lat="45.1462" lon="6.11476">
        <ele>2605.4</ele>
        <time>2024-07-08T10:31:37Z</time>
      </trkpt>
      <trkpt lat="45.14621" lon="6.11476">
        <ele>2605.4</ele>
        <time>2024-07-08T10:31:38Z</time>
      </trkpt>
      <trkpt lat="45.14621" lon="6.11476">
        <ele>2605.4</ele>
        <time>2024-07-08T10:31:39Z</time>
      </trkpt>
      <trkpt lat="45.14621" lon="6.11475">
        <ele>2605.4</ele>
        <time>2024-07-08T10:31:40Z</time>
      </trkpt>
      <trkpt lat="45.14621" lon="6.11475">
        <ele>2605.5</ele>
        <time>2024-07-08T10:31:41Z</time>
      </trkpt>
      <trkpt lat="45.14621" lon="6.11475">
        <ele>2605.5</ele>
        <time>2024-07-08T10:31:42Z</time>
      </trkpt>
      <trkpt lat="45.14621" lon="6.11475">
        <ele>2605.5</ele>
        <time>2024-07-08T10:31:43Z</time>
      </trkpt>
      <trkpt lat="45.14621" lon="6.11476">
        <ele>2605.5</ele>
        <time>2024-07-08T10:31:44Z</time>
      </trkpt>
      <trkpt lat="45.14621" lon="6.11477">
        <ele>2605.5</ele>
        <time>2024-07-08T10:31:45Z</time>
      </trkpt>
      <trkpt lat="45.1462" lon="6.11478">
        <ele>2605.7</ele>
        <time>2024-07-08T10:31:46Z</time>
      </trkpt>
      <trkpt lat="45.1462" lon="6.1148">
        <ele>2605.7</ele>
        <time>2024-07-08T10:31:47Z</time>
      </trkpt>
      <trkpt lat="45.1462" lon="6.11481">
        <ele>2605.8</ele>
        <time>2024-07-08T10:31:48Z</time>
      </trkpt>
      <trkpt lat="45.1462" lon="6.11482">
        <ele>2605.9</ele>
        <time>2024-07-08T10:31:49Z</time>
      </trkpt>
      <trkpt lat="45.1462" lon="6.11483">
        <ele>2605.9</ele>
        <time>2024-07-08T10:31:50Z</time>
      </trkpt>
      <trkpt lat="45.1462" lon="6.11484">
        <ele>2606</ele>
        <time>2024-07-08T10:31:51Z</time>
      </trkpt>
      <trkpt lat="45.1462" lon="6.11485">
        <ele>2606.1</ele>
        <time>2024-07-08T10:31:52Z</time>
      </trkpt>
      <trkpt lat="45.1462" lon="6.11486">
        <ele>2606.1</ele>
        <time>2024-07-08T10:31:53Z</time>
      </trkpt>
      <trkpt lat="45.1462" lon="6.11487">
        <ele>2606.2</ele>
        <time>2024-07-08T10:31:54Z</time>
      </trkpt>
      <trkpt lat="45.1462" lon="6.11488">
        <ele>2606.3</ele>
        <time>2024-07-08T10:31:55Z</time>
      </trkpt>
      <trkpt lat="45.14619" lon="6.1149">
        <ele>2606.4</ele>
        <time>2024-07-08T10:31:56Z</time>
      </trkpt>
      <trkpt lat="45.14619" lon="6.11491">
        <ele>2606.4</ele>
        <time>2024-07-08T10:31:57Z</time>
      </trkpt>
      <trkpt lat="45.14619" lon="6.11491">
        <ele>2606.5</ele>
        <time>2024-07-08T10:31:58Z</time>
      </trkpt>
      <trkpt lat="45.14619" lon="6.11492">
        <ele>2606.5</ele>
        <time>2024-07-08T10:31:59Z</time>
      </trkpt>
      <trkpt lat="45.14619" lon="6.11493">
        <ele>2606.6</ele>
        <time>2024-07-08T10:32:00Z</time>
      </trkpt>
      <trkpt lat="45.14619" lon="6.11495">
        <ele>2606.7</ele>
        <time>2024-07-08T10:32:01Z</time>
      </trkpt>
      <trkpt lat="45.14619" lon="6.11496">
        <ele>2606.7</ele>
        <time>2024-07-08T10:32:02Z</time>
      </trkpt>
      <trkpt lat="45.14619" lon="6.11497">
        <ele>2606.8</ele>
        <time>2024-07-08T10:32:03Z</time>
      </trkpt>
      <trkpt lat="45.14618" lon="6.11498">
        <ele>2606.9</ele>
        <time>2024-07-08T10:32:04Z</time>
      </trkpt>
      <trkpt lat="45.14618" lon="6.11499">
        <ele>2607</ele>
        <time>2024-07-08T10:32:05Z</time>
      </trkpt>
      <trkpt lat="45.14617" lon="6.11499">
        <ele>2607</ele>
        <time>2024-07-08T10:32:06Z</time>
      </trkpt>
      <trkpt lat="45.14617" lon="6.115">
        <ele>2607.1</ele>
        <time>2024-07-08T10:32:07Z</time>
      </trkpt>
      <trkpt lat="45.14616" lon="6.115">
        <ele>2607.1</ele>
        <time>2024-07-08T10:32:08Z</time>
      </trkpt>
      <trkpt lat="45.14616" lon="6.115">
        <ele>2607.2</ele>
        <time>2024-07-08T10:32:09Z</time>
      </trkpt>
      <trkpt lat="45.14615" lon="6.115">
        <ele>2607.2</ele>
        <time>2024-07-08T10:32:10Z</time>
      </trkpt>
      <trkpt lat="45.14615" lon="6.115">
        <ele>2607.2</ele>
        <time>2024-07-08T10:32:11Z</time>
      </trkpt>
      <trkpt lat="45.14615" lon="6.11501">
        <ele>2607.3</ele>
        <time>2024-07-08T10:32:12Z</time>
      </trkpt>
      <trkpt lat="45.14615" lon="6.11501">
        <ele>2607.3</ele>
        <time>2024-07-08T10:32:13Z</time>
      </trkpt>
      <trkpt lat="45.14615" lon="6.11502">
        <ele>2607.4</ele>
        <time>2024-07-08T10:32:14Z</time>
      </trkpt>
      <trkpt lat="45.14615" lon="6.11503">
        <ele>2607.5</ele>
        <time>2024-07-08T10:32:15Z</time>
      </trkpt>
      <trkpt lat="45.14615" lon="6.11505">
        <ele>2607.6</ele>
        <time>2024-07-08T10:32:16Z</time>
      </trkpt>
      <trkpt lat="45.14616" lon="6.11506">
        <ele>2607.7</ele>
        <time>2024-07-08T10:32:17Z</time>
      </trkpt>
      <trkpt lat="45.14616" lon="6.11507">
        <ele>2607.7</ele>
        <time>2024-07-08T10:32:18Z</time>
      </trkpt>
      <trkpt lat="45.14616" lon="6.11508">
        <ele>2607.8</ele>
        <time>2024-07-08T10:32:19Z</time>
      </trkpt>
      <trkpt lat="45.14617" lon="6.11509">
        <ele>2607.9</ele>
        <time>2024-07-08T10:32:20Z</time>
      </trkpt>
      <trkpt lat="45.14617" lon="6.1151">
        <ele>2607.9</ele>
        <time>2024-07-08T10:32:21Z</time>
      </trkpt>
      <trkpt lat="45.14617" lon="6.11511">
        <ele>2608</ele>
        <time>2024-07-08T10:32:22Z</time>
      </trkpt>
      <trkpt lat="45.14617" lon="6.11512">
        <ele>2608.1</ele>
        <time>2024-07-08T10:32:23Z</time>
      </trkpt>
      <trkpt lat="45.14616" lon="6.11513">
        <ele>2608.2</ele>
        <time>2024-07-08T10:32:24Z</time>
      </trkpt>
      <trkpt lat="45.14616" lon="6.11514">
        <ele>2608.3</ele>
        <time>2024-07-08T10:32:25Z</time>
      </trkpt>
      <trkpt lat="45.14616" lon="6.11515">
        <ele>2608.3</ele>
        <time>2024-07-08T10:32:26Z</time>
      </trkpt>
      <trkpt lat="45.14616" lon="6.11516">
        <ele>2608.4</ele>
        <time>2024-07-08T10:32:27Z</time>
      </trkpt>
      <trkpt lat="45.14615" lon="6.11517">
        <ele>2608.4</ele>
        <time>2024-07-08T10:32:28Z</time>
      </trkpt>
      <trkpt lat="45.14615" lon="6.11518">
        <ele>2608.5</ele>
        <time>2024-07-08T10:32:29Z</time>
      </trkpt>
      <trkpt lat="45.14615" lon="6.11519">
        <ele>2608.6</ele>
        <time>2024-07-08T10:32:30Z</time>
      </trkpt>
      <trkpt lat="45.14615" lon="6.1152">
        <ele>2608.6</ele>
        <time>2024-07-08T10:32:31Z</time>
      </trkpt>
      <trkpt lat="45.14615" lon="6.11522">
        <ele>2608.7</ele>
        <time>2024-07-08T10:32:32Z</time>
      </trkpt>
      <trkpt lat="45.14615" lon="6.11522">
        <ele>2608.7</ele>
        <time>2024-07-08T10:32:33Z</time>
      </trkpt>
      <trkpt lat="45.14615" lon="6.11523">
        <ele>2608.7</ele>
        <time>2024-07-08T10:32:34Z</time>
      </trkpt>
      <trkpt lat="45.14614" lon="6.11523">
        <ele>2608.8</ele>
        <time>2024-07-08T10:32:35Z</time>
      </trkpt>
      <trkpt lat="45.14614" lon="6.11523">
        <ele>2608.8</ele>
        <time>2024-07-08T10:32:36Z</time>
      </trkpt>
      <trkpt lat="45.14614" lon="6.11523">
        <ele>2608.8</ele>
        <time>2024-07-08T10:32:37Z</time>
      </trkpt>
      <trkpt lat="45.14614" lon="6.11523">
        <ele>2608.8</ele>
        <time>2024-07-08T10:32:38Z</time>
      </trkpt>
      <trkpt lat="45.14614" lon="6.11523">
        <ele>2608.8</ele>
        <time>2024-07-08T10:32:39Z</time>
      </trkpt>
      <trkpt lat="45.14614" lon="6.11523">
        <ele>2608.8</ele>
        <time>2024-07-08T10:32:41Z</time>
      </trkpt>
      <trkpt lat="45.14614" lon="6.11523">
        <ele>2608.8</ele>
        <time>2024-07-08T10:32:42Z</time>
      </trkpt>
      <trkpt lat="45.14614" lon="6.11524">
        <ele>2608.8</ele>
        <time>2024-07-08T10:32:43Z</time>
      </trkpt>
      <trkpt lat="45.14614" lon="6.11524">
        <ele>2608.8</ele>
        <time>2024-07-08T10:32:44Z</time>
      </trkpt>
      <trkpt lat="45.14614" lon="6.11524">
        <ele>2608.8</ele>
        <time>2024-07-08T10:32:45Z</time>
      </trkpt>
      <trkpt lat="45.14614" lon="6.11524">
        <ele>2608.8</ele>
        <time>2024-07-08T10:32:46Z</time>
      </trkpt>
      <trkpt lat="45.14614" lon="6.11524">
        <ele>2608.8</ele>
        <time>2024-07-08T10:32:47Z</time>
      </trkpt>
      <trkpt lat="45.14614" lon="6.11524">
        <ele>2608.8</ele>
        <time>2024-07-08T10:32:48Z</time>
      </trkpt>
      <trkpt lat="45.14614" lon="6.11524">
        <ele>2608.8</ele>
        <time>2024-07-08T10:32:49Z</time>
      </trkpt>
      <trkpt lat="45.14614" lon="6.11524">
        <ele>2608.8</ele>
        <time>2024-07-08T10:32:50Z</time>
      </trkpt>
      <trkpt lat="45.14614" lon="6.11525">
        <ele>2608.8</ele>
        <time>2024-07-08T10:32:51Z</time>
      </trkpt>
      <trkpt lat="45.14614" lon="6.11525">
        <ele>2608.9</ele>
        <time>2024-07-08T10:32:52Z</time>
      </trkpt>
      <trkpt lat="45.14614" lon="6.11525">
        <ele>2608.9</ele>
        <time>2024-07-08T10:32:53Z</time>
      </trkpt>
      <trkpt lat="45.14614" lon="6.11525">
        <ele>2608.9</ele>
        <time>2024-07-08T10:32:54Z</time>
      </trkpt>
      <trkpt lat="45.14614" lon="6.11525">
        <ele>2608.9</ele>
        <time>2024-07-08T10:32:55Z</time>
      </trkpt>
      <trkpt lat="45.14614" lon="6.11525">
        <ele>2608.9</ele>
        <time>2024-07-08T10:32:56Z</time>
      </trkpt>
      <trkpt lat="45.14614" lon="6.11525">
        <ele>2608.9</ele>
        <time>2024-07-08T10:32:57Z</time>
      </trkpt>
      <trkpt lat="45.14614" lon="6.11525">
        <ele>2608.9</ele>
        <time>2024-07-08T10:32:58Z</time>
      </trkpt>
      <trkpt lat="45.14614" lon="6.11526">
        <ele>2608.9</ele>
        <time>2024-07-08T10:32:59Z</time>
      </trkpt>
      <trkpt lat="45.14614" lon="6.11526">
        <ele>2608.9</ele>
        <time>2024-07-08T10:33:01Z</time>
      </trkpt>
      <trkpt lat="45.14614" lon="6.11526">
        <ele>2608.9</ele>
        <time>2024-07-08T10:33:02Z</time>
      </trkpt>
      <trkpt lat="45.14613" lon="6.11526">
        <ele>2608.9</ele>
        <time>2024-07-08T10:33:03Z</time>
      </trkpt>
      <trkpt lat="45.14613" lon="6.11526">
        <ele>2608.9</ele>
        <time>2024-07-08T10:33:04Z</time>
      </trkpt>
      <trkpt lat="45.14613" lon="6.11526">
        <ele>2608.9</ele>
        <time>2024-07-08T10:33:05Z</time>
      </trkpt>
      <trkpt lat="45.14613" lon="6.11526">
        <ele>2608.9</ele>
        <time>2024-07-08T10:33:06Z</time>
      </trkpt>
      <trkpt lat="45.14614" lon="6.11528">
        <ele>2609</ele>
        <time>2024-07-08T10:33:07Z</time>
      </trkpt>
      <trkpt lat="45.14614" lon="6.11531">
        <ele>2609.1</ele>
        <time>2024-07-08T10:33:08Z</time>
      </trkpt>
      <trkpt lat="45.14613" lon="6.11534">
        <ele>2609.1</ele>
        <time>2024-07-08T10:33:09Z</time>
      </trkpt>
      <trkpt lat="45.14613" lon="6.11535">
        <ele>2609.1</ele>
        <time>2024-07-08T10:33:11Z</time>
      </trkpt>
      <trkpt lat="45.14613" lon="6.11536">
        <ele>2609.2</ele>
        <time>2024-07-08T10:33:12Z</time>
      </trkpt>
      <trkpt lat="45.14612" lon="6.11538">
        <ele>2609.2</ele>
        <time>2024-07-08T10:33:13Z</time>
      </trkpt>
      <trkpt lat="45.14612" lon="6.1154">
        <ele>2609.2</ele>
        <time>2024-07-08T10:33:14Z</time>
      </trkpt>
      <trkpt lat="45.14612" lon="6.11541">
        <ele>2609.2</ele>
        <time>2024-07-08T10:33:15Z</time>
      </trkpt>
      <trkpt lat="45.14611" lon="6.11543">
        <ele>2609.1</ele>
        <time>2024-07-08T10:33:16Z</time>
      </trkpt>
      <trkpt lat="45.14611" lon="6.11544">
        <ele>2609.1</ele>
        <time>2024-07-08T10:33:17Z</time>
      </trkpt>
      <trkpt lat="45.1461" lon="6.11545">
        <ele>2609.1</ele>
        <time>2024-07-08T10:33:18Z</time>
      </trkpt>
      <trkpt lat="45.1461" lon="6.11547">
        <ele>2609.1</ele>
        <time>2024-07-08T10:33:19Z</time>
      </trkpt>
      <trkpt lat="45.1461" lon="6.11548">
        <ele>2609</ele>
        <time>2024-07-08T10:33:20Z</time>
      </trkpt>
      <trkpt lat="45.14609" lon="6.1155">
        <ele>2608.9</ele>
        <time>2024-07-08T10:33:21Z</time>
      </trkpt>
      <trkpt lat="45.14608" lon="6.11551">
        <ele>2608.9</ele>
        <time>2024-07-08T10:33:22Z</time>
      </trkpt>
      <trkpt lat="45.14608" lon="6.11552">
        <ele>2608.8</ele>
        <time>2024-07-08T10:33:23Z</time>
      </trkpt>
      <trkpt lat="45.14608" lon="6.11554">
        <ele>2608.8</ele>
        <time>2024-07-08T10:33:24Z</time>
      </trkpt>
      <trkpt lat="45.14607" lon="6.11555">
        <ele>2608.7</ele>
        <time>2024-07-08T10:33:25Z</time>
      </trkpt>
      <trkpt lat="45.14607" lon="6.11556">
        <ele>2608.6</ele>
        <time>2024-07-08T10:33:26Z</time>
      </trkpt>
      <trkpt lat="45.14606" lon="6.11557">
        <ele>2608.6</ele>
        <time>2024-07-08T10:33:27Z</time>
      </trkpt>
      <trkpt lat="45.14606" lon="6.11557">
        <ele>2608.5</ele>
        <time>2024-07-08T10:33:28Z</time>
      </trkpt>
      <trkpt lat="45.14605" lon="6.11558">
        <ele>2608.5</ele>
        <time>2024-07-08T10:33:29Z</time>
      </trkpt>
      <trkpt lat="45.14605" lon="6.11559">
        <ele>2608.4</ele>
        <time>2024-07-08T10:33:30Z</time>
      </trkpt>
      <trkpt lat="45.14605" lon="6.11559">
        <ele>2608.4</ele>
        <time>2024-07-08T10:33:31Z</time>
      </trkpt>
      <trkpt lat="45.14605" lon="6.1156">
        <ele>2608.3</ele>
        <time>2024-07-08T10:33:32Z</time>
      </trkpt>
      <trkpt lat="45.14605" lon="6.1156">
        <ele>2608.3</ele>
        <time>2024-07-08T10:33:33Z</time>
      </trkpt>
      <trkpt lat="45.14605" lon="6.11561">
        <ele>2608.3</ele>
        <time>2024-07-08T10:33:34Z</time>
      </trkpt>
      <trkpt lat="45.14605" lon="6.11562">
        <ele>2608.2</ele>
        <time>2024-07-08T10:33:35Z</time>
      </trkpt>
      <trkpt lat="45.14605" lon="6.11561">
        <ele>2608.2</ele>
        <time>2024-07-08T10:33:36Z</time>
      </trkpt>
      <trkpt lat="45.14605" lon="6.1156">
        <ele>2608.1</ele>
        <time>2024-07-08T10:33:37Z</time>
      </trkpt>
      <trkpt lat="45.14605" lon="6.1156">
        <ele>2608.1</ele>
        <time>2024-07-08T10:33:38Z</time>
      </trkpt>
      <trkpt lat="45.14605" lon="6.1156">
        <ele>2608.1</ele>
        <time>2024-07-08T10:33:39Z</time>
      </trkpt>
      <trkpt lat="45.14605" lon="6.1156">
        <ele>2608.1</ele>
        <time>2024-07-08T10:33:40Z</time>
      </trkpt>
      <trkpt lat="45.14606" lon="6.1156">
        <ele>2608.1</ele>
        <time>2024-07-08T10:33:41Z</time>
      </trkpt>
      <trkpt lat="45.14606" lon="6.1156">
        <ele>2608.1</ele>
        <time>2024-07-08T10:33:42Z</time>
      </trkpt>
      <trkpt lat="45.14606" lon="6.1156">
        <ele>2608</ele>
        <time>2024-07-08T10:33:43Z</time>
      </trkpt>
      <trkpt lat="45.14606" lon="6.11559">
        <ele>2608</ele>
        <time>2024-07-08T10:33:44Z</time>
      </trkpt>
      <trkpt lat="45.14606" lon="6.11559">
        <ele>2608</ele>
        <time>2024-07-08T10:33:45Z</time>
      </trkpt>
      <trkpt lat="45.14606" lon="6.11559">
        <ele>2608</ele>
        <time>2024-07-08T10:33:46Z</time>
      </trkpt>
      <trkpt lat="45.14606" lon="6.11559">
        <ele>2608</ele>
        <time>2024-07-08T10:33:47Z</time>
      </trkpt>
      <trkpt lat="45.14606" lon="6.11559">
        <ele>2608</ele>
        <time>2024-07-08T10:33:48Z</time>
      </trkpt>
      <trkpt lat="45.14606" lon="6.11559">
        <ele>2608</ele>
        <time>2024-07-08T10:33:49Z</time>
      </trkpt>
      <trkpt lat="45.14606" lon="6.11559">
        <ele>2608</ele>
        <time>2024-07-08T10:33:50Z</time>
      </trkpt>
      <trkpt lat="45.14606" lon="6.11559">
        <ele>2608</ele>
        <time>2024-07-08T10:33:51Z</time>
      </trkpt>
      <trkpt lat="45.14606" lon="6.11559">
        <ele>2608</ele>
        <time>2024-07-08T10:33:52Z</time>
      </trkpt>
      <trkpt lat="45.14606" lon="6.11559">
        <ele>2608</ele>
        <time>2024-07-08T10:33:53Z</time>
      </trkpt>
      <trkpt lat="45.14605" lon="6.11559">
        <ele>2607.9</ele>
        <time>2024-07-08T10:33:54Z</time>
      </trkpt>
      <trkpt lat="45.14605" lon="6.11559">
        <ele>2607.9</ele>
        <time>2024-07-08T10:33:55Z</time>
      </trkpt>
      <trkpt lat="45.14605" lon="6.11559">
        <ele>2607.9</ele>
        <time>2024-07-08T10:33:56Z</time>
      </trkpt>
      <trkpt lat="45.14605" lon="6.11559">
        <ele>2607.9</ele>
        <time>2024-07-08T10:33:57Z</time>
      </trkpt>
      <trkpt lat="45.14605" lon="6.11559">
        <ele>2607.9</ele>
        <time>2024-07-08T10:33:58Z</time>
      </trkpt>
      <trkpt lat="45.14605" lon="6.11559">
        <ele>2607.9</ele>
        <time>2024-07-08T10:33:59Z</time>
      </trkpt>
      <trkpt lat="45.14605" lon="6.11559">
        <ele>2607.9</ele>
        <time>2024-07-08T10:34:00Z</time>
      </trkpt>
      <trkpt lat="45.14605" lon="6.11559">
        <ele>2607.9</ele>
        <time>2024-07-08T10:34:01Z</time>
      </trkpt>
      <trkpt lat="45.14605" lon="6.11559">
        <ele>2607.9</ele>
        <time>2024-07-08T10:34:02Z</time>
      </trkpt>
      <trkpt lat="45.14605" lon="6.11559">
        <ele>2607.9</ele>
        <time>2024-07-08T10:34:03Z</time>
      </trkpt>
      <trkpt lat="45.14605" lon="6.11559">
        <ele>2607.9</ele>
        <time>2024-07-08T10:34:04Z</time>
      </trkpt>
      <trkpt lat="45.14605" lon="6.11559">
        <ele>2607.9</ele>
        <time>2024-07-08T10:34:05Z</time>
      </trkpt>
      <trkpt lat="45.14604" lon="6.11559">
        <ele>2607.8</ele>
        <time>2024-07-08T10:34:06Z</time>
      </trkpt>
      <trkpt lat="45.14604" lon="6.11558">
        <ele>2607.8</ele>
        <time>2024-07-08T10:34:07Z</time>
      </trkpt>
      <trkpt lat="45.14604" lon="6.11558">
        <ele>2607.8</ele>
        <time>2024-07-08T10:34:08Z</time>
      </trkpt>
      <trkpt lat="45.14604" lon="6.11558">
        <ele>2607.8</ele>
        <time>2024-07-08T10:34:09Z</time>
      </trkpt>
      <trkpt lat="45.14604" lon="6.11559">
        <ele>2607.8</ele>
        <time>2024-07-08T10:34:10Z</time>
      </trkpt>
      <trkpt lat="45.14604" lon="6.11559">
        <ele>2607.7</ele>
        <time>2024-07-08T10:34:11Z</time>
      </trkpt>
      <trkpt lat="45.14604" lon="6.11559">
        <ele>2607.7</ele>
        <time>2024-07-08T10:34:12Z</time>
      </trkpt>
      <trkpt lat="45.14604" lon="6.11559">
        <ele>2607.7</ele>
        <time>2024-07-08T10:34:13Z</time>
      </trkpt>
      <trkpt lat="45.14604" lon="6.11559">
        <ele>2607.7</ele>
        <time>2024-07-08T10:34:14Z</time>
      </trkpt>
      <trkpt lat="45.14604" lon="6.11559">
        <ele>2607.7</ele>
        <time>2024-07-08T10:34:15Z</time>
      </trkpt>
      <trkpt lat="45.14604" lon="6.11559">
        <ele>2607.7</ele>
        <time>2024-07-08T10:34:16Z</time>
      </trkpt>
      <trkpt lat="45.14604" lon="6.11559">
        <ele>2607.7</ele>
        <time>2024-07-08T10:34:17Z</time>
      </trkpt>
      <trkpt lat="45.14604" lon="6.11558">
        <ele>2607.7</ele>
        <time>2024-07-08T10:34:18Z</time>
      </trkpt>
      <trkpt lat="45.14605" lon="6.11558">
        <ele>2607.6</ele>
        <time>2024-07-08T10:34:19Z</time>
      </trkpt>
      <trkpt lat="45.14605" lon="6.11557">
        <ele>2607.5</ele>
        <time>2024-07-08T10:34:20Z</time>
      </trkpt>
      <trkpt lat="45.14606" lon="6.11556">
        <ele>2607.4</ele>
        <time>2024-07-08T10:34:21Z</time>
      </trkpt>
      <trkpt lat="45.14606" lon="6.11556">
        <ele>2607.4</ele>
        <time>2024-07-08T10:34:22Z</time>
      </trkpt>
      <trkpt lat="45.14606" lon="6.11555">
        <ele>2607.4</ele>
        <time>2024-07-08T10:34:23Z</time>
      </trkpt>
      <trkpt lat="45.14606" lon="6.11556">
        <ele>2607.3</ele>
        <time>2024-07-08T10:34:24Z</time>
      </trkpt>
      <trkpt lat="45.14606" lon="6.11556">
        <ele>2607.3</ele>
        <time>2024-07-08T10:34:25Z</time>
      </trkpt>
      <trkpt lat="45.14606" lon="6.11557">
        <ele>2607.3</ele>
        <time>2024-07-08T10:34:26Z</time>
      </trkpt>
      <trkpt lat="45.14606" lon="6.11557">
        <ele>2607.3</ele>
        <time>2024-07-08T10:34:27Z</time>
      </trkpt>
      <trkpt lat="45.14606" lon="6.11557">
        <ele>2607.2</ele>
        <time>2024-07-08T10:34:28Z</time>
      </trkpt>
      <trkpt lat="45.14606" lon="6.11557">
        <ele>2607.2</ele>
        <time>2024-07-08T10:34:29Z</time>
      </trkpt>
      <trkpt lat="45.14606" lon="6.11557">
        <ele>2607.2</ele>
        <time>2024-07-08T10:34:30Z</time>
      </trkpt>
      <trkpt lat="45.14606" lon="6.11557">
        <ele>2607.2</ele>
        <time>2024-07-08T10:34:31Z</time>
      </trkpt>
      <trkpt lat="45.14606" lon="6.11557">
        <ele>2607.2</ele>
        <time>2024-07-08T10:34:32Z</time>
      </trkpt>
      <trkpt lat="45.14606" lon="6.11557">
        <ele>2607.2</ele>
        <time>2024-07-08T10:34:33Z</time>
      </trkpt>
      <trkpt lat="45.14606" lon="6.11557">
        <ele>2607.2</ele>
        <time>2024-07-08T10:34:34Z</time>
      </trkpt>
      <trkpt lat="45.14606" lon="6.11558">
        <ele>2607.2</ele>
        <time>2024-07-08T10:34:36Z</time>
      </trkpt>
      <trkpt lat="45.14606" lon="6.11558">
        <ele>2607.2</ele>
        <time>2024-07-08T10:34:37Z</time>
      </trkpt>
      <trkpt lat="45.14606" lon="6.11558">
        <ele>2607.1</ele>
        <time>2024-07-08T10:34:38Z</time>
      </trkpt>
      <trkpt lat="45.14607" lon="6.11557">
        <ele>2607.1</ele>
        <time>2024-07-08T10:34:39Z</time>
      </trkpt>
      <trkpt lat="45.14607" lon="6.11557">
        <ele>2607.1</ele>
        <time>2024-07-08T10:34:40Z</time>
      </trkpt>
      <trkpt lat="45.14607" lon="6.11557">
        <ele>2607.1</ele>
        <time>2024-07-08T10:34:41Z</time>
      </trkpt>
      <trkpt lat="45.14607" lon="6.11557">
        <ele>2607.1</ele>
        <time>2024-07-08T10:34:42Z</time>
      </trkpt>
      <trkpt lat="45.14607" lon="6.11557">
        <ele>2607.1</ele>
        <time>2024-07-08T10:34:43Z</time>
      </trkpt>
      <trkpt lat="45.14607" lon="6.11557">
        <ele>2607.1</ele>
        <time>2024-07-08T10:34:44Z</time>
      </trkpt>
      <trkpt lat="45.14607" lon="6.11557">
        <ele>2607.1</ele>
        <time>2024-07-08T10:34:45Z</time>
      </trkpt>
      <trkpt lat="45.14607" lon="6.11557">
        <ele>2607.1</ele>
        <time>2024-07-08T10:34:46Z</time>
      </trkpt>
      <trkpt lat="45.14607" lon="6.11557">
        <ele>2607.1</ele>
        <time>2024-07-08T10:34:47Z</time>
      </trkpt>
      <trkpt lat="45.14607" lon="6.11557">
        <ele>2607</ele>
        <time>2024-07-08T10:34:48Z</time>
      </trkpt>
      <trkpt lat="45.14607" lon="6.11557">
        <ele>2607</ele>
        <time>2024-07-08T10:34:49Z</time>
      </trkpt>
      <trkpt lat="45.14607" lon="6.11557">
        <ele>2607</ele>
        <time>2024-07-08T10:34:50Z</time>
      </trkpt>
      <trkpt lat="45.14607" lon="6.11557">
        <ele>2607</ele>
        <time>2024-07-08T10:34:51Z</time>
      </trkpt>
      <trkpt lat="45.14607" lon="6.11557">
        <ele>2607</ele>
        <time>2024-07-08T10:34:52Z</time>
      </trkpt>
      <trkpt lat="45.14608" lon="6.11556">
        <ele>2606.9</ele>
        <time>2024-07-08T10:34:53Z</time>
      </trkpt>
      <trkpt lat="45.14609" lon="6.11556">
        <ele>2606.8</ele>
        <time>2024-07-08T10:34:54Z</time>
      </trkpt>
      <trkpt lat="45.14609" lon="6.11555">
        <ele>2606.7</ele>
        <time>2024-07-08T10:34:55Z</time>
      </trkpt>
      <trkpt lat="45.1461" lon="6.11555">
        <ele>2606.7</ele>
        <time>2024-07-08T10:34:56Z</time>
      </trkpt>
      <trkpt lat="45.1461" lon="6.11555">
        <ele>2606.6</ele>
        <time>2024-07-08T10:34:57Z</time>
      </trkpt>
      <trkpt lat="45.1461" lon="6.11556">
        <ele>2606.6</ele>
        <time>2024-07-08T10:34:58Z</time>
      </trkpt>
      <trkpt lat="45.1461" lon="6.11557">
        <ele>2606.5</ele>
        <time>2024-07-08T10:34:59Z</time>
      </trkpt>
      <trkpt lat="45.1461" lon="6.11556">
        <ele>2606.5</ele>
        <time>2024-07-08T10:35:00Z</time>
      </trkpt>
      <trkpt lat="45.1461" lon="6.11556">
        <ele>2606.5</ele>
        <time>2024-07-08T10:35:01Z</time>
      </trkpt>
      <trkpt lat="45.1461" lon="6.11556">
        <ele>2606.5</ele>
        <time>2024-07-08T10:35:02Z</time>
      </trkpt>
      <trkpt lat="45.1461" lon="6.11556">
        <ele>2606.5</ele>
        <time>2024-07-08T10:35:03Z</time>
      </trkpt>
      <trkpt lat="45.1461" lon="6.11555">
        <ele>2606.4</ele>
        <time>2024-07-08T10:35:04Z</time>
      </trkpt>
      <trkpt lat="45.1461" lon="6.11555">
        <ele>2606.4</ele>
        <time>2024-07-08T10:35:05Z</time>
      </trkpt>
      <trkpt lat="45.1461" lon="6.11555">
        <ele>2606.3</ele>
        <time>2024-07-08T10:35:06Z</time>
      </trkpt>
      <trkpt lat="45.14609" lon="6.11555">
        <ele>2606.3</ele>
        <time>2024-07-08T10:35:07Z</time>
      </trkpt>
      <trkpt lat="45.14609" lon="6.11555">
        <ele>2606.3</ele>
        <time>2024-07-08T10:35:08Z</time>
      </trkpt>
      <trkpt lat="45.14609" lon="6.11555">
        <ele>2606.2</ele>
        <time>2024-07-08T10:35:09Z</time>
      </trkpt>
      <trkpt lat="45.14609" lon="6.11555">
        <ele>2606.2</ele>
        <time>2024-07-08T10:35:10Z</time>
      </trkpt>
      <trkpt lat="45.14608" lon="6.11556">
        <ele>2606.1</ele>
        <time>2024-07-08T10:35:11Z</time>
      </trkpt>
      <trkpt lat="45.14607" lon="6.11557">
        <ele>2606.1</ele>
        <time>2024-07-08T10:35:12Z</time>
      </trkpt>
      <trkpt lat="45.14607" lon="6.11558">
        <ele>2606</ele>
        <time>2024-07-08T10:35:13Z</time>
      </trkpt>
      <trkpt lat="45.14606" lon="6.11558">
        <ele>2605.9</ele>
        <time>2024-07-08T10:35:14Z</time>
      </trkpt>
      <trkpt lat="45.14606" lon="6.11558">
        <ele>2605.9</ele>
        <time>2024-07-08T10:35:15Z</time>
      </trkpt>
      <trkpt lat="45.14605" lon="6.11559">
        <ele>2605.8</ele>
        <time>2024-07-08T10:35:16Z</time>
      </trkpt>
      <trkpt lat="45.14605" lon="6.11559">
        <ele>2605.8</ele>
        <time>2024-07-08T10:35:17Z</time>
      </trkpt>
      <trkpt lat="45.14605" lon="6.11559">
        <ele>2605.8</ele>
        <time>2024-07-08T10:35:18Z</time>
      </trkpt>
      <trkpt lat="45.14605" lon="6.11559">
        <ele>2605.8</ele>
        <time>2024-07-08T10:35:19Z</time>
      </trkpt>
      <trkpt lat="45.14605" lon="6.11558">
        <ele>2605.8</ele>
        <time>2024-07-08T10:35:20Z</time>
      </trkpt>
      <trkpt lat="45.14605" lon="6.11558">
        <ele>2605.8</ele>
        <time>2024-07-08T10:35:21Z</time>
      </trkpt>
      <trkpt lat="45.14605" lon="6.11558">
        <ele>2605.7</ele>
        <time>2024-07-08T10:35:22Z</time>
      </trkpt>
      <trkpt lat="45.14605" lon="6.11558">
        <ele>2605.7</ele>
        <time>2024-07-08T10:35:23Z</time>
      </trkpt>
      <trkpt lat="45.14605" lon="6.11558">
        <ele>2605.7</ele>
        <time>2024-07-08T10:35:24Z</time>
      </trkpt>
      <trkpt lat="45.14605" lon="6.11558">
        <ele>2605.7</ele>
        <time>2024-07-08T10:35:25Z</time>
      </trkpt>
      <trkpt lat="45.14605" lon="6.11558">
        <ele>2605.7</ele>
        <time>2024-07-08T10:35:26Z</time>
      </trkpt>
      <trkpt lat="45.14605" lon="6.11558">
        <ele>2605.7</ele>
        <time>2024-07-08T10:35:27Z</time>
      </trkpt>
      <trkpt lat="45.14605" lon="6.11558">
        <ele>2605.7</ele>
        <time>2024-07-08T10:35:28Z</time>
      </trkpt>
      <trkpt lat="45.14605" lon="6.11558">
        <ele>2605.7</ele>
        <time>2024-07-08T10:35:29Z</time>
      </trkpt>
      <trkpt lat="45.14605" lon="6.11558">
        <ele>2605.7</ele>
        <time>2024-07-08T10:35:30Z</time>
      </trkpt>
      <trkpt lat="45.14605" lon="6.11558">
        <ele>2605.7</ele>
        <time>2024-07-08T10:35:31Z</time>
      </trkpt>
      <trkpt lat="45.14605" lon="6.11558">
        <ele>2605.7</ele>
        <time>2024-07-08T10:35:32Z</time>
      </trkpt>
      <trkpt lat="45.14605" lon="6.11558">
        <ele>2605.7</ele>
        <time>2024-07-08T10:35:33Z</time>
      </trkpt>
      <trkpt lat="45.14606" lon="6.11557">
        <ele>2605.5</ele>
        <time>2024-07-08T10:35:34Z</time>
      </trkpt>
      <trkpt lat="45.14607" lon="6.11557">
        <ele>2605.5</ele>
        <time>2024-07-08T10:35:35Z</time>
      </trkpt>
      <trkpt lat="45.14607" lon="6.11556">
        <ele>2605.5</ele>
        <time>2024-07-08T10:35:36Z</time>
      </trkpt>
      <trkpt lat="45.14607" lon="6.11556">
        <ele>2605.5</ele>
        <time>2024-07-08T10:35:37Z</time>
      </trkpt>
      <trkpt lat="45.14607" lon="6.11556">
        <ele>2605.5</ele>
        <time>2024-07-08T10:35:38Z</time>
      </trkpt>
      <trkpt lat="45.14607" lon="6.11556">
        <ele>2605.5</ele>
        <time>2024-07-08T10:35:39Z</time>
      </trkpt>
      <trkpt lat="45.14607" lon="6.11556">
        <ele>2605.5</ele>
        <time>2024-07-08T10:35:40Z</time>
      </trkpt>
      <trkpt lat="45.14607" lon="6.11556">
        <ele>2605.5</ele>
        <time>2024-07-08T10:35:41Z</time>
      </trkpt>
      <trkpt lat="45.14607" lon="6.11556">
        <ele>2605.5</ele>
        <time>2024-07-08T10:35:42Z</time>
      </trkpt>
      <trkpt lat="45.14607" lon="6.11556">
        <ele>2605.5</ele>
        <time>2024-07-08T10:35:43Z</time>
      </trkpt>
      <trkpt lat="45.14607" lon="6.11556">
        <ele>2605.5</ele>
        <time>2024-07-08T10:35:44Z</time>
      </trkpt>
      <trkpt lat="45.14606" lon="6.11556">
        <ele>2605.5</ele>
        <time>2024-07-08T10:35:45Z</time>
      </trkpt>
      <trkpt lat="45.14606" lon="6.11556">
        <ele>2605.5</ele>
        <time>2024-07-08T10:35:46Z</time>
      </trkpt>
      <trkpt lat="45.14606" lon="6.11556">
        <ele>2605.5</ele>
        <time>2024-07-08T10:35:47Z</time>
      </trkpt>
      <trkpt lat="45.14606" lon="6.11556">
        <ele>2605.5</ele>
        <time>2024-07-08T10:35:48Z</time>
      </trkpt>
      <trkpt lat="45.14606" lon="6.11556">
        <ele>2605.5</ele>
        <time>2024-07-08T10:35:49Z</time>
      </trkpt>
      <trkpt lat="45.14606" lon="6.11556">
        <ele>2605.5</ele>
        <time>2024-07-08T10:35:50Z</time>
      </trkpt>
      <trkpt lat="45.14606" lon="6.11556">
        <ele>2605.5</ele>
        <time>2024-07-08T10:35:51Z</time>
      </trkpt>
      <trkpt lat="45.14606" lon="6.11556">
        <ele>2605.5</ele>
        <time>2024-07-08T10:35:52Z</time>
      </trkpt>
      <trkpt lat="45.14606" lon="6.11556">
        <ele>2605.5</ele>
        <time>2024-07-08T10:35:53Z</time>
      </trkpt>
      <trkpt lat="45.14606" lon="6.11556">
        <ele>2605.5</ele>
        <time>2024-07-08T10:35:54Z</time>
      </trkpt>
      <trkpt lat="45.14606" lon="6.11556">
        <ele>2605.5</ele>
        <time>2024-07-08T10:35:55Z</time>
      </trkpt>
      <trkpt lat="45.14606" lon="6.11556">
        <ele>2605.5</ele>
        <time>2024-07-08T10:35:56Z</time>
      </trkpt>
      <trkpt lat="45.14606" lon="6.11556">
        <ele>2605.5</ele>
        <time>2024-07-08T10:35:57Z</time>
      </trkpt>
      <trkpt lat="45.14606" lon="6.11556">
        <ele>2605.5</ele>
        <time>2024-07-08T10:35:58Z</time>
      </trkpt>
      <trkpt lat="45.14606" lon="6.11556">
        <ele>2605.5</ele>
        <time>2024-07-08T10:35:59Z</time>
      </trkpt>
      <trkpt lat="45.14606" lon="6.11556">
        <ele>2605.5</ele>
        <time>2024-07-08T10:36:00Z</time>
      </trkpt>
      <trkpt lat="45.14606" lon="6.11556">
        <ele>2605.5</ele>
        <time>2024-07-08T10:36:01Z</time>
      </trkpt>
      <trkpt lat="45.14606" lon="6.11556">
        <ele>2605.5</ele>
        <time>2024-07-08T10:36:02Z</time>
      </trkpt>
      <trkpt lat="45.14606" lon="6.11556">
        <ele>2605.5</ele>
        <time>2024-07-08T10:36:03Z</time>
      </trkpt>
      <trkpt lat="45.14606" lon="6.11556">
        <ele>2605.5</ele>
        <time>2024-07-08T10:36:04Z</time>
      </trkpt>
      <trkpt lat="45.14606" lon="6.11556">
        <ele>2605.5</ele>
        <time>2024-07-08T10:36:05Z</time>
      </trkpt>
      <trkpt lat="45.14606" lon="6.11556">
        <ele>2605.5</ele>
        <time>2024-07-08T10:36:06Z</time>
      </trkpt>
      <trkpt lat="45.14606" lon="6.11556">
        <ele>2605.5</ele>
        <time>2024-07-08T10:36:07Z</time>
      </trkpt>
      <trkpt lat="45.14606" lon="6.11556">
        <ele>2605.5</ele>
        <time>2024-07-08T10:36:08Z</time>
      </trkpt>
      <trkpt lat="45.14606" lon="6.11556">
        <ele>2605.5</ele>
        <time>2024-07-08T10:36:09Z</time>
      </trkpt>
      <trkpt lat="45.14606" lon="6.11556">
        <ele>2605.5</ele>
        <time>2024-07-08T10:36:10Z</time>
      </trkpt>
      <trkpt lat="45.14606" lon="6.11556">
        <ele>2605.5</ele>
        <time>2024-07-08T10:36:11Z</time>
      </trkpt>
      <trkpt lat="45.14606" lon="6.11556">
        <ele>2605.5</ele>
        <time>2024-07-08T10:36:12Z</time>
      </trkpt>
      <trkpt lat="45.14606" lon="6.11556">
        <ele>2605.5</ele>
        <time>2024-07-08T10:36:13Z</time>
      </trkpt>
      <trkpt lat="45.14606" lon="6.11556">
        <ele>2605.5</ele>
        <time>2024-07-08T10:36:14Z</time>
      </trkpt>
      <trkpt lat="45.14606" lon="6.11556">
        <ele>2605.5</ele>
        <time>2024-07-08T10:36:15Z</time>
      </trkpt>
      <trkpt lat="45.14606" lon="6.11556">
        <ele>2605.5</ele>
        <time>2024-07-08T10:36:16Z</time>
      </trkpt>
      <trkpt lat="45.14606" lon="6.11556">
        <ele>2605.5</ele>
        <time>2024-07-08T10:36:17Z</time>
      </trkpt>
      <trkpt lat="45.14606" lon="6.11556">
        <ele>2605.5</ele>
        <time>2024-07-08T10:36:18Z</time>
      </trkpt>
      <trkpt lat="45.14606" lon="6.11556">
        <ele>2605.5</ele>
        <time>2024-07-08T10:36:19Z</time>
      </trkpt>
      <trkpt lat="45.14606" lon="6.11556">
        <ele>2605.5</ele>
        <time>2024-07-08T10:36:20Z</time>
      </trkpt>
      <trkpt lat="45.14606" lon="6.11556">
        <ele>2605.5</ele>
        <time>2024-07-08T10:36:21Z</time>
      </trkpt>
      <trkpt lat="45.14606" lon="6.11556">
        <ele>2605.5</ele>
        <time>2024-07-08T10:36:22Z</time>
      </trkpt>
      <trkpt lat="45.14606" lon="6.11556">
        <ele>2605.5</ele>
        <time>2024-07-08T10:36:23Z</time>
      </trkpt>
      <trkpt lat="45.14606" lon="6.11556">
        <ele>2605.5</ele>
        <time>2024-07-08T10:36:24Z</time>
      </trkpt>
      <trkpt lat="45.14606" lon="6.11556">
        <ele>2605.5</ele>
        <time>2024-07-08T10:36:25Z</time>
      </trkpt>
      <trkpt lat="45.14606" lon="6.11557">
        <ele>2605.4</ele>
        <time>2024-07-08T10:36:26Z</time>
      </trkpt>
      <trkpt lat="45.14606" lon="6.11557">
        <ele>2605.4</ele>
        <time>2024-07-08T10:36:27Z</time>
      </trkpt>
      <trkpt lat="45.14606" lon="6.11557">
        <ele>2605.4</ele>
        <time>2024-07-08T10:36:28Z</time>
      </trkpt>
      <trkpt lat="45.14606" lon="6.11557">
        <ele>2605.4</ele>
        <time>2024-07-08T10:36:29Z</time>
      </trkpt>
      <trkpt lat="45.14606" lon="6.11557">
        <ele>2605.4</ele>
        <time>2024-07-08T10:36:30Z</time>
      </trkpt>
      <trkpt lat="45.14606" lon="6.11557">
        <ele>2605.4</ele>
        <time>2024-07-08T10:36:31Z</time>
      </trkpt>
      <trkpt lat="45.14606" lon="6.11557">
        <ele>2605.4</ele>
        <time>2024-07-08T10:36:32Z</time>
      </trkpt>
      <trkpt lat="45.14606" lon="6.11557">
        <ele>2605.4</ele>
        <time>2024-07-08T10:36:33Z</time>
      </trkpt>
      <trkpt lat="45.14606" lon="6.11557">
        <ele>2605.4</ele>
        <time>2024-07-08T10:36:34Z</time>
      </trkpt>
      <trkpt lat="45.14606" lon="6.11557">
        <ele>2605.4</ele>
        <time>2024-07-08T10:36:35Z</time>
      </trkpt>
      <trkpt lat="45.14606" lon="6.11557">
        <ele>2605.4</ele>
        <time>2024-07-08T10:36:36Z</time>
      </trkpt>
      <trkpt lat="45.14606" lon="6.11557">
        <ele>2605.4</ele>
        <time>2024-07-08T10:36:37Z</time>
      </trkpt>
      <trkpt lat="45.14606" lon="6.11557">
        <ele>2605.4</ele>
        <time>2024-07-08T10:36:38Z</time>
      </trkpt>
      <trkpt lat="45.14606" lon="6.11557">
        <ele>2605.4</ele>
        <time>2024-07-08T10:36:39Z</time>
      </trkpt>
      <trkpt lat="45.14606" lon="6.11557">
        <ele>2605.4</ele>
        <time>2024-07-08T10:36:40Z</time>
      </trkpt>
      <trkpt lat="45.14606" lon="6.11557">
        <ele>2605.4</ele>
        <time>2024-07-08T10:36:41Z</time>
      </trkpt>
      <trkpt lat="45.14606" lon="6.11557">
        <ele>2605.4</ele>
        <time>2024-07-08T10:36:42Z</time>
      </trkpt>
      <trkpt lat="45.14606" lon="6.11557">
        <ele>2605.4</ele>
        <time>2024-07-08T10:36:43Z</time>
      </trkpt>
      <trkpt lat="45.14606" lon="6.11557">
        <ele>2605.4</ele>
        <time>2024-07-08T10:36:44Z</time>
      </trkpt>
      <trkpt lat="45.14606" lon="6.11557">
        <ele>2605.4</ele>
        <time>2024-07-08T10:36:45Z</time>
      </trkpt>
      <trkpt lat="45.14606" lon="6.11557">
        <ele>2605.4</ele>
        <time>2024-07-08T10:36:46Z</time>
      </trkpt>
      <trkpt lat="45.14606" lon="6.11557">
        <ele>2605.4</ele>
        <time>2024-07-08T10:36:47Z</time>
      </trkpt>
      <trkpt lat="45.14606" lon="6.11557">
        <ele>2605.4</ele>
        <time>2024-07-08T10:36:48Z</time>
      </trkpt>
      <trkpt lat="45.14606" lon="6.11557">
        <ele>2605.4</ele>
        <time>2024-07-08T10:36:49Z</time>
      </trkpt>
      <trkpt lat="45.14606" lon="6.11557">
        <ele>2605.4</ele>
        <time>2024-07-08T10:36:50Z</time>
      </trkpt>
      <trkpt lat="45.14606" lon="6.11557">
        <ele>2605.4</ele>
        <time>2024-07-08T10:36:51Z</time>
      </trkpt>
      <trkpt lat="45.14606" lon="6.11557">
        <ele>2605.4</ele>
        <time>2024-07-08T10:36:52Z</time>
      </trkpt>
      <trkpt lat="45.14606" lon="6.11557">
        <ele>2605.4</ele>
        <time>2024-07-08T10:36:53Z</time>
      </trkpt>
      <trkpt lat="45.14606" lon="6.11557">
        <ele>2605.4</ele>
        <time>2024-07-08T10:36:54Z</time>
      </trkpt>
      <trkpt lat="45.14606" lon="6.11557">
        <ele>2605.4</ele>
        <time>2024-07-08T10:36:55Z</time>
      </trkpt>
      <trkpt lat="45.14606" lon="6.11557">
        <ele>2605.4</ele>
        <time>2024-07-08T10:36:56Z</time>
      </trkpt>
      <trkpt lat="45.14606" lon="6.11557">
        <ele>2605.4</ele>
        <time>2024-07-08T10:36:57Z</time>
      </trkpt>
      <trkpt lat="45.14606" lon="6.11557">
        <ele>2605.4</ele>
        <time>2024-07-08T10:36:58Z</time>
      </trkpt>
      <trkpt lat="45.14606" lon="6.11557">
        <ele>2605.4</ele>
        <time>2024-07-08T10:36:59Z</time>
      </trkpt>
      <trkpt lat="45.14606" lon="6.11557">
        <ele>2605.4</ele>
        <time>2024-07-08T10:37:00Z</time>
      </trkpt>
      <trkpt lat="45.14606" lon="6.11557">
        <ele>2605.4</ele>
        <time>2024-07-08T10:37:01Z</time>
      </trkpt>
      <trkpt lat="45.14606" lon="6.11557">
        <ele>2605.4</ele>
        <time>2024-07-08T10:37:02Z</time>
      </trkpt>
      <trkpt lat="45.14606" lon="6.11557">
        <ele>2605.4</ele>
        <time>2024-07-08T10:37:03Z</time>
      </trkpt>
      <trkpt lat="45.14606" lon="6.11557">
        <ele>2605.4</ele>
        <time>2024-07-08T10:37:04Z</time>
      </trkpt>
      <trkpt lat="45.14606" lon="6.11557">
        <ele>2605.4</ele>
        <time>2024-07-08T10:37:05Z</time>
      </trkpt>
      <trkpt lat="45.14606" lon="6.11557">
        <ele>2605.4</ele>
        <time>2024-07-08T10:37:06Z</time>
      </trkpt>
      <trkpt lat="45.14606" lon="6.11557">
        <ele>2605.4</ele>
        <time>2024-07-08T10:37:07Z</time>
      </trkpt>
      <trkpt lat="45.14606" lon="6.11557">
        <ele>2605.4</ele>
        <time>2024-07-08T10:37:08Z</time>
      </trkpt>
      <trkpt lat="45.14606" lon="6.11557">
        <ele>2605.4</ele>
        <time>2024-07-08T10:37:09Z</time>
      </trkpt>
      <trkpt lat="45.14606" lon="6.11557">
        <ele>2605.4</ele>
        <time>2024-07-08T10:37:10Z</time>
      </trkpt>
      <trkpt lat="45.14606" lon="6.11557">
        <ele>2605.4</ele>
        <time>2024-07-08T10:37:11Z</time>
      </trkpt>
      <trkpt lat="45.14606" lon="6.11557">
        <ele>2605.4</ele>
        <time>2024-07-08T10:37:12Z</time>
      </trkpt>
      <trkpt lat="45.14606" lon="6.11557">
        <ele>2605.4</ele>
        <time>2024-07-08T10:37:13Z</time>
      </trkpt>
      <trkpt lat="45.14606" lon="6.11557">
        <ele>2605.4</ele>
        <time>2024-07-08T10:37:14Z</time>
      </trkpt>
      <trkpt lat="45.14606" lon="6.11557">
        <ele>2605.4</ele>
        <time>2024-07-08T10:37:15Z</time>
      </trkpt>
      <trkpt lat="45.14606" lon="6.11557">
        <ele>2605.4</ele>
        <time>2024-07-08T10:37:16Z</time>
      </trkpt>
      <trkpt lat="45.14606" lon="6.11557">
        <ele>2605.4</ele>
        <time>2024-07-08T10:37:17Z</time>
      </trkpt>
      <trkpt lat="45.14606" lon="6.11557">
        <ele>2605.4</ele>
        <time>2024-07-08T10:37:18Z</time>
      </trkpt>
      <trkpt lat="45.14606" lon="6.11557">
        <ele>2605.4</ele>
        <time>2024-07-08T10:37:19Z</time>
      </trkpt>
      <trkpt lat="45.14606" lon="6.11557">
        <ele>2605.4</ele>
        <time>2024-07-08T10:37:20Z</time>
      </trkpt>
      <trkpt lat="45.14606" lon="6.11557">
        <ele>2605.4</ele>
        <time>2024-07-08T10:37:21Z</time>
      </trkpt>
      <trkpt lat="45.14606" lon="6.11557">
        <ele>2605.4</ele>
        <time>2024-07-08T10:37:22Z</time>
      </trkpt>
      <trkpt lat="45.14606" lon="6.11557">
        <ele>2605.4</ele>
        <time>2024-07-08T10:37:23Z</time>
      </trkpt>
      <trkpt lat="45.14606" lon="6.11557">
        <ele>2605.4</ele>
        <time>2024-07-08T10:37:24Z</time>
      </trkpt>
      <trkpt lat="45.14606" lon="6.11557">
        <ele>2605.4</ele>
        <time>2024-07-08T10:37:25Z</time>
      </trkpt>
      <trkpt lat="45.14606" lon="6.11557">
        <ele>2605.4</ele>
        <time>2024-07-08T10:37:26Z</time>
      </trkpt>
      <trkpt lat="45.14606" lon="6.11557">
        <ele>2605.4</ele>
        <time>2024-07-08T10:37:27Z</time>
      </trkpt>
      <trkpt lat="45.14606" lon="6.11557">
        <ele>2605.4</ele>
        <time>2024-07-08T10:37:28Z</time>
      </trkpt>
      <trkpt lat="45.14606" lon="6.11557">
        <ele>2605.4</ele>
        <time>2024-07-08T10:37:29Z</time>
      </trkpt>
      <trkpt lat="45.14606" lon="6.11557">
        <ele>2605.4</ele>
        <time>2024-07-08T10:37:30Z</time>
      </trkpt>
      <trkpt lat="45.14606" lon="6.11557">
        <ele>2605.4</ele>
        <time>2024-07-08T10:37:31Z</time>
      </trkpt>
      <trkpt lat="45.14606" lon="6.11557">
        <ele>2605.4</ele>
        <time>2024-07-08T10:37:32Z</time>
      </trkpt>
      <trkpt lat="45.14606" lon="6.11557">
        <ele>2605.4</ele>
        <time>2024-07-08T10:37:33Z</time>
      </trkpt>
      <trkpt lat="45.14606" lon="6.11557">
        <ele>2605.4</ele>
        <time>2024-07-08T10:37:34Z</time>
      </trkpt>
      <trkpt lat="45.14606" lon="6.11557">
        <ele>2605.4</ele>
        <time>2024-07-08T10:37:35Z</time>
      </trkpt>
      <trkpt lat="45.14606" lon="6.11557">
        <ele>2605.4</ele>
        <time>2024-07-08T10:37:36Z</time>
      </trkpt>
      <trkpt lat="45.14606" lon="6.11557">
        <ele>2605.4</ele>
        <time>2024-07-08T10:37:37Z</time>
      </trkpt>
      <trkpt lat="45.14606" lon="6.11557">
        <ele>2605.4</ele>
        <time>2024-07-08T10:37:38Z</time>
      </trkpt>
      <trkpt lat="45.14606" lon="6.11557">
        <ele>2605.4</ele>
        <time>2024-07-08T10:37:39Z</time>
      </trkpt>
      <trkpt lat="45.14606" lon="6.11557">
        <ele>2605.4</ele>
        <time>2024-07-08T10:37:40Z</time>
      </trkpt>
      <trkpt lat="45.14606" lon="6.11557">
        <ele>2605.4</ele>
        <time>2024-07-08T10:37:41Z</time>
      </trkpt>
      <trkpt lat="45.14606" lon="6.11557">
        <ele>2605.4</ele>
        <time>2024-07-08T10:37:42Z</time>
      </trkpt>
      <trkpt lat="45.14606" lon="6.11557">
        <ele>2605.4</ele>
        <time>2024-07-08T10:37:43Z</time>
      </trkpt>
      <trkpt lat="45.14606" lon="6.11557">
        <ele>2605.3</ele>
        <time>2024-07-08T10:37:44Z</time>
      </trkpt>
      <trkpt lat="45.14606" lon="6.11557">
        <ele>2605.3</ele>
        <time>2024-07-08T10:37:45Z</time>
      </trkpt>
      <trkpt lat="45.14606" lon="6.11557">
        <ele>2605.3</ele>
        <time>2024-07-08T10:37:46Z</time>
      </trkpt>
      <trkpt lat="45.14606" lon="6.11557">
        <ele>2605.3</ele>
        <time>2024-07-08T10:37:47Z</time>
      </trkpt>
      <trkpt lat="45.14606" lon="6.11557">
        <ele>2605.3</ele>
        <time>2024-07-08T10:37:48Z</time>
      </trkpt>
      <trkpt lat="45.14606" lon="6.11558">
        <ele>2605.3</ele>
        <time>2024-07-08T10:37:49Z</time>
      </trkpt>
      <trkpt lat="45.14606" lon="6.11558">
        <ele>2605.3</ele>
        <time>2024-07-08T10:37:50Z</time>
      </trkpt>
      <trkpt lat="45.14606" lon="6.11558">
        <ele>2605.3</ele>
        <time>2024-07-08T10:37:51Z</time>
      </trkpt>
      <trkpt lat="45.14606" lon="6.11557">
        <ele>2605.2</ele>
        <time>2024-07-08T10:37:52Z</time>
      </trkpt>
      <trkpt lat="45.14606" lon="6.11557">
        <ele>2605.2</ele>
        <time>2024-07-08T10:37:53Z</time>
      </trkpt>
      <trkpt lat="45.14606" lon="6.11557">
        <ele>2605.2</ele>
        <time>2024-07-08T10:37:54Z</time>
      </trkpt>
      <trkpt lat="45.14606" lon="6.11557">
        <ele>2605.2</ele>
        <time>2024-07-08T10:37:55Z</time>
      </trkpt>
      <trkpt lat="45.14606" lon="6.11557">
        <ele>2605.2</ele>
        <time>2024-07-08T10:37:56Z</time>
      </trkpt>
      <trkpt lat="45.14606" lon="6.11557">
        <ele>2605.2</ele>
        <time>2024-07-08T10:37:58Z</time>
      </trkpt>
      <trkpt lat="45.14598" lon="6.11578">
        <ele>2603.8</ele>
        <time>2024-07-08T10:58:48Z</time>
      </trkpt>
      <trkpt lat="45.14596" lon="6.11579">
        <ele>2603.7</ele>
        <time>2024-07-08T10:58:49Z</time>
      </trkpt>
      <trkpt lat="45.14596" lon="6.1158">
        <ele>2603.6</ele>
        <time>2024-07-08T10:58:50Z</time>
      </trkpt>
      <trkpt lat="45.14595" lon="6.1158">
        <ele>2603.5</ele>
        <time>2024-07-08T10:58:51Z</time>
      </trkpt>
      <trkpt lat="45.14595" lon="6.11581">
        <ele>2603.5</ele>
        <time>2024-07-08T10:58:52Z</time>
      </trkpt>
      <trkpt lat="45.14595" lon="6.11581">
        <ele>2603.5</ele>
        <time>2024-07-08T10:58:53Z</time>
      </trkpt>
      <trkpt lat="45.14595" lon="6.11583">
        <ele>2603.4</ele>
        <time>2024-07-08T10:58:54Z</time>
      </trkpt>
      <trkpt lat="45.14595" lon="6.11584">
        <ele>2603.4</ele>
        <time>2024-07-08T10:58:55Z</time>
      </trkpt>
      <trkpt lat="45.14595" lon="6.11585">
        <ele>2603.3</ele>
        <time>2024-07-08T10:58:56Z</time>
      </trkpt>
      <trkpt lat="45.14595" lon="6.11586">
        <ele>2603.3</ele>
        <time>2024-07-08T10:58:57Z</time>
      </trkpt>
      <trkpt lat="45.14594" lon="6.11587">
        <ele>2603.2</ele>
        <time>2024-07-08T10:58:58Z</time>
      </trkpt>
      <trkpt lat="45.14594" lon="6.11588">
        <ele>2603.2</ele>
        <time>2024-07-08T10:58:59Z</time>
      </trkpt>
      <trkpt lat="45.14593" lon="6.11589">
        <ele>2603.1</ele>
        <time>2024-07-08T10:59:00Z</time>
      </trkpt>
      <trkpt lat="45.14591" lon="6.1159">
        <ele>2603</ele>
        <time>2024-07-08T10:59:01Z</time>
      </trkpt>
      <trkpt lat="45.1459" lon="6.11593">
        <ele>2603</ele>
        <time>2024-07-08T10:59:02Z</time>
      </trkpt>
      <trkpt lat="45.14589" lon="6.11593">
        <ele>2602.9</ele>
        <time>2024-07-08T10:59:03Z</time>
      </trkpt>
      <trkpt lat="45.14589" lon="6.11594">
        <ele>2602.9</ele>
        <time>2024-07-08T10:59:04Z</time>
      </trkpt>
      <trkpt lat="45.14589" lon="6.11596">
        <ele>2602.9</ele>
        <time>2024-07-08T10:59:05Z</time>
      </trkpt>
      <trkpt lat="45.14589" lon="6.11598">
        <ele>2602.8</ele>
        <time>2024-07-08T10:59:06Z</time>
      </trkpt>
      <trkpt lat="45.14589" lon="6.11599">
        <ele>2602.8</ele>
        <time>2024-07-08T10:59:07Z</time>
      </trkpt>
      <trkpt lat="45.1459" lon="6.116">
        <ele>2602.7</ele>
        <time>2024-07-08T10:59:08Z</time>
      </trkpt>
      <trkpt lat="45.14591" lon="6.11602">
        <ele>2602.7</ele>
        <time>2024-07-08T10:59:09Z</time>
      </trkpt>
      <trkpt lat="45.14591" lon="6.11603">
        <ele>2602.7</ele>
        <time>2024-07-08T10:59:10Z</time>
      </trkpt>
      <trkpt lat="45.14591" lon="6.11604">
        <ele>2602.7</ele>
        <time>2024-07-08T10:59:11Z</time>
      </trkpt>
      <trkpt lat="45.1459" lon="6.11605">
        <ele>2602.6</ele>
        <time>2024-07-08T10:59:12Z</time>
      </trkpt>
      <trkpt lat="45.1459" lon="6.11606">
        <ele>2602.6</ele>
        <time>2024-07-08T10:59:13Z</time>
      </trkpt>
      <trkpt lat="45.1459" lon="6.11607">
        <ele>2602.6</ele>
        <time>2024-07-08T10:59:14Z</time>
      </trkpt>
      <trkpt lat="45.1459" lon="6.11608">
        <ele>2602.6</ele>
        <time>2024-07-08T10:59:15Z</time>
      </trkpt>
      <trkpt lat="45.1459" lon="6.11609">
        <ele>2602.6</ele>
        <time>2024-07-08T10:59:16Z</time>
      </trkpt>
      <trkpt lat="45.1459" lon="6.1161">
        <ele>2602.6</ele>
        <time>2024-07-08T10:59:17Z</time>
      </trkpt>
      <trkpt lat="45.14591" lon="6.11611">
        <ele>2602.5</ele>
        <time>2024-07-08T10:59:18Z</time>
      </trkpt>
      <trkpt lat="45.14589" lon="6.11612">
        <ele>2602.5</ele>
        <time>2024-07-08T10:59:19Z</time>
      </trkpt>
      <trkpt lat="45.14589" lon="6.11612">
        <ele>2602.5</ele>
        <time>2024-07-08T10:59:20Z</time>
      </trkpt>
      <trkpt lat="45.14588" lon="6.11612">
        <ele>2602.5</ele>
        <time>2024-07-08T10:59:21Z</time>
      </trkpt>
      <trkpt lat="45.14587" lon="6.11613">
        <ele>2602.5</ele>
        <time>2024-07-08T10:59:22Z</time>
      </trkpt>
      <trkpt lat="45.14586" lon="6.11613">
        <ele>2602.5</ele>
        <time>2024-07-08T10:59:23Z</time>
      </trkpt>
      <trkpt lat="45.14585" lon="6.11613">
        <ele>2602.5</ele>
        <time>2024-07-08T10:59:24Z</time>
      </trkpt>
      <trkpt lat="45.14584" lon="6.11614">
        <ele>2602.4</ele>
        <time>2024-07-08T10:59:25Z</time>
      </trkpt>
      <trkpt lat="45.14584" lon="6.11616">
        <ele>2602.4</ele>
        <time>2024-07-08T10:59:26Z</time>
      </trkpt>
      <trkpt lat="45.14583" lon="6.11617">
        <ele>2602.4</ele>
        <time>2024-07-08T10:59:27Z</time>
      </trkpt>
      <trkpt lat="45.14583" lon="6.11618">
        <ele>2602.4</ele>
        <time>2024-07-08T10:59:28Z</time>
      </trkpt>
      <trkpt lat="45.14582" lon="6.1162">
        <ele>2602.4</ele>
        <time>2024-07-08T10:59:29Z</time>
      </trkpt>
      <trkpt lat="45.14582" lon="6.11621">
        <ele>2602.4</ele>
        <time>2024-07-08T10:59:30Z</time>
      </trkpt>
      <trkpt lat="45.14581" lon="6.11623">
        <ele>2602.4</ele>
        <time>2024-07-08T10:59:31Z</time>
      </trkpt>
      <trkpt lat="45.14581" lon="6.11624">
        <ele>2602.3</ele>
        <time>2024-07-08T10:59:32Z</time>
      </trkpt>
      <trkpt lat="45.14581" lon="6.11625">
        <ele>2602.3</ele>
        <time>2024-07-08T10:59:33Z</time>
      </trkpt>
      <trkpt lat="45.14581" lon="6.11626">
        <ele>2602.3</ele>
        <time>2024-07-08T10:59:34Z</time>
      </trkpt>
      <trkpt lat="45.1458" lon="6.11627">
        <ele>2602.3</ele>
        <time>2024-07-08T10:59:35Z</time>
      </trkpt>
      <trkpt lat="45.1458" lon="6.11627">
        <ele>2602.3</ele>
        <time>2024-07-08T10:59:36Z</time>
      </trkpt>
      <trkpt lat="45.14579" lon="6.11628">
        <ele>2602.3</ele>
        <time>2024-07-08T10:59:37Z</time>
      </trkpt>
      <trkpt lat="45.14579" lon="6.11629">
        <ele>2602.3</ele>
        <time>2024-07-08T10:59:38Z</time>
      </trkpt>
      <trkpt lat="45.14579" lon="6.11631">
        <ele>2602.3</ele>
        <time>2024-07-08T10:59:39Z</time>
      </trkpt>
      <trkpt lat="45.14579" lon="6.11632">
        <ele>2602.3</ele>
        <time>2024-07-08T10:59:40Z</time>
      </trkpt>
      <trkpt lat="45.14578" lon="6.11633">
        <ele>2602.3</ele>
        <time>2024-07-08T10:59:41Z</time>
      </trkpt>
      <trkpt lat="45.14578" lon="6.11634">
        <ele>2602.3</ele>
        <time>2024-07-08T10:59:42Z</time>
      </trkpt>
      <trkpt lat="45.14577" lon="6.11635">
        <ele>2602.2</ele>
        <time>2024-07-08T10:59:43Z</time>
      </trkpt>
      <trkpt lat="45.14577" lon="6.11636">
        <ele>2602.2</ele>
        <time>2024-07-08T10:59:44Z</time>
      </trkpt>
      <trkpt lat="45.14576" lon="6.11635">
        <ele>2602.2</ele>
        <time>2024-07-08T10:59:45Z</time>
      </trkpt>
      <trkpt lat="45.14575" lon="6.11635">
        <ele>2602.2</ele>
        <time>2024-07-08T10:59:46Z</time>
      </trkpt>
      <trkpt lat="45.14574" lon="6.11635">
        <ele>2602.2</ele>
        <time>2024-07-08T10:59:47Z</time>
      </trkpt>
      <trkpt lat="45.14573" lon="6.11634">
        <ele>2602.2</ele>
        <time>2024-07-08T10:59:48Z</time>
      </trkpt>
      <trkpt lat="45.14572" lon="6.11634">
        <ele>2602.2</ele>
        <time>2024-07-08T10:59:49Z</time>
      </trkpt>
      <trkpt lat="45.14572" lon="6.11633">
        <ele>2602.2</ele>
        <time>2024-07-08T10:59:50Z</time>
      </trkpt>
      <trkpt lat="45.14571" lon="6.11632">
        <ele>2602.2</ele>
        <time>2024-07-08T10:59:51Z</time>
      </trkpt>
      <trkpt lat="45.1457" lon="6.1163">
        <ele>2602.2</ele>
        <time>2024-07-08T10:59:52Z</time>
      </trkpt>
      <trkpt lat="45.14569" lon="6.11629">
        <ele>2602.2</ele>
        <time>2024-07-08T10:59:53Z</time>
      </trkpt>
      <trkpt lat="45.14568" lon="6.11629">
        <ele>2602.2</ele>
        <time>2024-07-08T10:59:54Z</time>
      </trkpt>
      <trkpt lat="45.14567" lon="6.11629">
        <ele>2602.2</ele>
        <time>2024-07-08T10:59:55Z</time>
      </trkpt>
      <trkpt lat="45.14566" lon="6.1163">
        <ele>2602.2</ele>
        <time>2024-07-08T10:59:56Z</time>
      </trkpt>
      <trkpt lat="45.14564" lon="6.11632">
        <ele>2602.1</ele>
        <time>2024-07-08T10:59:57Z</time>
      </trkpt>
      <trkpt lat="45.14564" lon="6.11633">
        <ele>2602.1</ele>
        <time>2024-07-08T10:59:58Z</time>
      </trkpt>
      <trkpt lat="45.14563" lon="6.11634">
        <ele>2602.1</ele>
        <time>2024-07-08T10:59:59Z</time>
      </trkpt>
      <trkpt lat="45.14563" lon="6.11635">
        <ele>2602.1</ele>
        <time>2024-07-08T11:00:00Z</time>
      </trkpt>
      <trkpt lat="45.14562" lon="6.11636">
        <ele>2602.1</ele>
        <time>2024-07-08T11:00:01Z</time>
      </trkpt>
      <trkpt lat="45.14561" lon="6.11637">
        <ele>2602.1</ele>
        <time>2024-07-08T11:00:02Z</time>
      </trkpt>
      <trkpt lat="45.1456" lon="6.11638">
        <ele>2602.1</ele>
        <time>2024-07-08T11:00:03Z</time>
      </trkpt>
      <trkpt lat="45.14559" lon="6.11638">
        <ele>2602.2</ele>
        <time>2024-07-08T11:00:04Z</time>
      </trkpt>
      <trkpt lat="45.14558" lon="6.11639">
        <ele>2602.2</ele>
        <time>2024-07-08T11:00:05Z</time>
      </trkpt>
      <trkpt lat="45.14556" lon="6.11641">
        <ele>2602.2</ele>
        <time>2024-07-08T11:00:06Z</time>
      </trkpt>
      <trkpt lat="45.14555" lon="6.11641">
        <ele>2602.2</ele>
        <time>2024-07-08T11:00:07Z</time>
      </trkpt>
      <trkpt lat="45.14555" lon="6.11642">
        <ele>2602.2</ele>
        <time>2024-07-08T11:00:08Z</time>
      </trkpt>
      <trkpt lat="45.14554" lon="6.11643">
        <ele>2602.2</ele>
        <time>2024-07-08T11:00:09Z</time>
      </trkpt>
      <trkpt lat="45.14553" lon="6.11644">
        <ele>2602.2</ele>
        <time>2024-07-08T11:00:10Z</time>
      </trkpt>
      <trkpt lat="45.14552" lon="6.11645">
        <ele>2602.2</ele>
        <time>2024-07-08T11:00:11Z</time>
      </trkpt>
      <trkpt lat="45.14551" lon="6.11646">
        <ele>2602.2</ele>
        <time>2024-07-08T11:00:12Z</time>
      </trkpt>
      <trkpt lat="45.1455" lon="6.11646">
        <ele>2602.2</ele>
        <time>2024-07-08T11:00:13Z</time>
      </trkpt>
      <trkpt lat="45.14549" lon="6.11647">
        <ele>2602.2</ele>
        <time>2024-07-08T11:00:14Z</time>
      </trkpt>
      <trkpt lat="45.14549" lon="6.11647">
        <ele>2602.2</ele>
        <time>2024-07-08T11:00:15Z</time>
      </trkpt>
      <trkpt lat="45.14548" lon="6.11648">
        <ele>2602.3</ele>
        <time>2024-07-08T11:00:16Z</time>
      </trkpt>
      <trkpt lat="45.14547" lon="6.1165">
        <ele>2602.3</ele>
        <time>2024-07-08T11:00:17Z</time>
      </trkpt>
      <trkpt lat="45.14547" lon="6.11651">
        <ele>2602.3</ele>
        <time>2024-07-08T11:00:18Z</time>
      </trkpt>
      <trkpt lat="45.14546" lon="6.11652">
        <ele>2602.3</ele>
        <time>2024-07-08T11:00:19Z</time>
      </trkpt>
      <trkpt lat="45.14546" lon="6.11653">
        <ele>2602.3</ele>
        <time>2024-07-08T11:00:20Z</time>
      </trkpt>
      <trkpt lat="45.14544" lon="6.11654">
        <ele>2602.4</ele>
        <time>2024-07-08T11:00:21Z</time>
      </trkpt>
      <trkpt lat="45.14544" lon="6.11655">
        <ele>2602.4</ele>
        <time>2024-07-08T11:00:22Z</time>
      </trkpt>
      <trkpt lat="45.14543" lon="6.11655">
        <ele>2602.4</ele>
        <time>2024-07-08T11:00:23Z</time>
      </trkpt>
      <trkpt lat="45.14542" lon="6.11656">
        <ele>2602.4</ele>
        <time>2024-07-08T11:00:24Z</time>
      </trkpt>
      <trkpt lat="45.14542" lon="6.11657">
        <ele>2602.4</ele>
        <time>2024-07-08T11:00:25Z</time>
      </trkpt>
      <trkpt lat="45.14541" lon="6.11658">
        <ele>2602.5</ele>
        <time>2024-07-08T11:00:26Z</time>
      </trkpt>
      <trkpt lat="45.1454" lon="6.11658">
        <ele>2602.5</ele>
        <time>2024-07-08T11:00:27Z</time>
      </trkpt>
      <trkpt lat="45.14539" lon="6.11659">
        <ele>2602.5</ele>
        <time>2024-07-08T11:00:28Z</time>
      </trkpt>
      <trkpt lat="45.14539" lon="6.1166">
        <ele>2602.5</ele>
        <time>2024-07-08T11:00:29Z</time>
      </trkpt>
      <trkpt lat="45.14538" lon="6.11662">
        <ele>2602.6</ele>
        <time>2024-07-08T11:00:30Z</time>
      </trkpt>
      <trkpt lat="45.14538" lon="6.11663">
        <ele>2602.6</ele>
        <time>2024-07-08T11:00:31Z</time>
      </trkpt>
      <trkpt lat="45.14537" lon="6.11664">
        <ele>2602.6</ele>
        <time>2024-07-08T11:00:32Z</time>
      </trkpt>
      <trkpt lat="45.14537" lon="6.11665">
        <ele>2602.6</ele>
        <time>2024-07-08T11:00:33Z</time>
      </trkpt>
      <trkpt lat="45.14537" lon="6.11667">
        <ele>2602.7</ele>
        <time>2024-07-08T11:00:34Z</time>
      </trkpt>
      <trkpt lat="45.14536" lon="6.11668">
        <ele>2602.7</ele>
        <time>2024-07-08T11:00:35Z</time>
      </trkpt>
      <trkpt lat="45.14536" lon="6.11669">
        <ele>2602.7</ele>
        <time>2024-07-08T11:00:36Z</time>
      </trkpt>
      <trkpt lat="45.14535" lon="6.11671">
        <ele>2602.8</ele>
        <time>2024-07-08T11:00:37Z</time>
      </trkpt>
      <trkpt lat="45.14535" lon="6.11673">
        <ele>2602.8</ele>
        <time>2024-07-08T11:00:38Z</time>
      </trkpt>
      <trkpt lat="45.14535" lon="6.11674">
        <ele>2602.9</ele>
        <time>2024-07-08T11:00:39Z</time>
      </trkpt>
      <trkpt lat="45.14534" lon="6.11676">
        <ele>2602.9</ele>
        <time>2024-07-08T11:00:40Z</time>
      </trkpt>
      <trkpt lat="45.14533" lon="6.11677">
        <ele>2603</ele>
        <time>2024-07-08T11:00:41Z</time>
      </trkpt>
      <trkpt lat="45.14532" lon="6.11678">
        <ele>2603</ele>
        <time>2024-07-08T11:00:42Z</time>
      </trkpt>
      <trkpt lat="45.14531" lon="6.11679">
        <ele>2603.1</ele>
        <time>2024-07-08T11:00:43Z</time>
      </trkpt>
      <trkpt lat="45.1453" lon="6.11679">
        <ele>2603.1</ele>
        <time>2024-07-08T11:00:44Z</time>
      </trkpt>
      <trkpt lat="45.14528" lon="6.1168">
        <ele>2603.2</ele>
        <time>2024-07-08T11:00:45Z</time>
      </trkpt>
      <trkpt lat="45.14527" lon="6.11681">
        <ele>2603.2</ele>
        <time>2024-07-08T11:00:46Z</time>
      </trkpt>
      <trkpt lat="45.14527" lon="6.11681">
        <ele>2603.3</ele>
        <time>2024-07-08T11:00:47Z</time>
      </trkpt>
      <trkpt lat="45.14526" lon="6.11682">
        <ele>2603.3</ele>
        <time>2024-07-08T11:00:48Z</time>
      </trkpt>
      <trkpt lat="45.14525" lon="6.11682">
        <ele>2603.4</ele>
        <time>2024-07-08T11:00:49Z</time>
      </trkpt>
      <trkpt lat="45.14524" lon="6.11683">
        <ele>2603.4</ele>
        <time>2024-07-08T11:00:50Z</time>
      </trkpt>
      <trkpt lat="45.14523" lon="6.11684">
        <ele>2603.5</ele>
        <time>2024-07-08T11:00:51Z</time>
      </trkpt>
      <trkpt lat="45.14522" lon="6.11685">
        <ele>2603.5</ele>
        <time>2024-07-08T11:00:52Z</time>
      </trkpt>
      <trkpt lat="45.14521" lon="6.11685">
        <ele>2603.6</ele>
        <time>2024-07-08T11:00:53Z</time>
      </trkpt>
      <trkpt lat="45.1452" lon="6.11686">
        <ele>2603.7</ele>
        <time>2024-07-08T11:00:54Z</time>
      </trkpt>
      <trkpt lat="45.14519" lon="6.11686">
        <ele>2603.7</ele>
        <time>2024-07-08T11:00:55Z</time>
      </trkpt>
      <trkpt lat="45.14518" lon="6.11686">
        <ele>2603.8</ele>
        <time>2024-07-08T11:00:56Z</time>
      </trkpt>
      <trkpt lat="45.14517" lon="6.11686">
        <ele>2603.8</ele>
        <time>2024-07-08T11:00:57Z</time>
      </trkpt>
      <trkpt lat="45.14516" lon="6.11687">
        <ele>2603.9</ele>
        <time>2024-07-08T11:00:58Z</time>
      </trkpt>
      <trkpt lat="45.14515" lon="6.11687">
        <ele>2603.9</ele>
        <time>2024-07-08T11:00:59Z</time>
      </trkpt>
      <trkpt lat="45.14514" lon="6.11688">
        <ele>2604</ele>
        <time>2024-07-08T11:01:00Z</time>
      </trkpt>
      <trkpt lat="45.14513" lon="6.11689">
        <ele>2604.1</ele>
        <time>2024-07-08T11:01:01Z</time>
      </trkpt>
      <trkpt lat="45.14512" lon="6.1169">
        <ele>2604.1</ele>
        <time>2024-07-08T11:01:02Z</time>
      </trkpt>
      <trkpt lat="45.14511" lon="6.11691">
        <ele>2604.2</ele>
        <time>2024-07-08T11:01:03Z</time>
      </trkpt>
      <trkpt lat="45.14511" lon="6.11692">
        <ele>2604.3</ele>
        <time>2024-07-08T11:01:04Z</time>
      </trkpt>
      <trkpt lat="45.1451" lon="6.11693">
        <ele>2604.3</ele>
        <time>2024-07-08T11:01:05Z</time>
      </trkpt>
      <trkpt lat="45.1451" lon="6.11695">
        <ele>2604.4</ele>
        <time>2024-07-08T11:01:06Z</time>
      </trkpt>
      <trkpt lat="45.14509" lon="6.11696">
        <ele>2604.5</ele>
        <time>2024-07-08T11:01:07Z</time>
      </trkpt>
      <trkpt lat="45.14509" lon="6.11697">
        <ele>2604.5</ele>
        <time>2024-07-08T11:01:08Z</time>
      </trkpt>
      <trkpt lat="45.14508" lon="6.11698">
        <ele>2604.6</ele>
        <time>2024-07-08T11:01:09Z</time>
      </trkpt>
      <trkpt lat="45.14507" lon="6.11699">
        <ele>2604.7</ele>
        <time>2024-07-08T11:01:10Z</time>
      </trkpt>
      <trkpt lat="45.14506" lon="6.11699">
        <ele>2604.7</ele>
        <time>2024-07-08T11:01:11Z</time>
      </trkpt>
      <trkpt lat="45.14506" lon="6.11701">
        <ele>2604.8</ele>
        <time>2024-07-08T11:01:12Z</time>
      </trkpt>
      <trkpt lat="45.14506" lon="6.11702">
        <ele>2604.9</ele>
        <time>2024-07-08T11:01:13Z</time>
      </trkpt>
      <trkpt lat="45.14506" lon="6.11704">
        <ele>2604.9</ele>
        <time>2024-07-08T11:01:14Z</time>
      </trkpt>
      <trkpt lat="45.14506" lon="6.11705">
        <ele>2605</ele>
        <time>2024-07-08T11:01:15Z</time>
      </trkpt>
      <trkpt lat="45.14505" lon="6.11706">
        <ele>2605.1</ele>
        <time>2024-07-08T11:01:16Z</time>
      </trkpt>
      <trkpt lat="45.14505" lon="6.11707">
        <ele>2605.1</ele>
        <time>2024-07-08T11:01:17Z</time>
      </trkpt>
      <trkpt lat="45.14504" lon="6.11708">
        <ele>2605.2</ele>
        <time>2024-07-08T11:01:18Z</time>
      </trkpt>
      <trkpt lat="45.14503" lon="6.11708">
        <ele>2605.3</ele>
        <time>2024-07-08T11:01:19Z</time>
      </trkpt>
      <trkpt lat="45.14502" lon="6.11707">
        <ele>2605.4</ele>
        <time>2024-07-08T11:01:20Z</time>
      </trkpt>
      <trkpt lat="45.14501" lon="6.11706">
        <ele>2605.5</ele>
        <time>2024-07-08T11:01:21Z</time>
      </trkpt>
      <trkpt lat="45.145" lon="6.11706">
        <ele>2605.5</ele>
        <time>2024-07-08T11:01:22Z</time>
      </trkpt>
      <trkpt lat="45.14499" lon="6.11706">
        <ele>2605.6</ele>
        <time>2024-07-08T11:01:23Z</time>
      </trkpt>
      <trkpt lat="45.14498" lon="6.11706">
        <ele>2605.7</ele>
        <time>2024-07-08T11:01:24Z</time>
      </trkpt>
      <trkpt lat="45.14497" lon="6.11706">
        <ele>2605.8</ele>
        <time>2024-07-08T11:01:25Z</time>
      </trkpt>
      <trkpt lat="45.14496" lon="6.11705">
        <ele>2605.9</ele>
        <time>2024-07-08T11:01:26Z</time>
      </trkpt>
      <trkpt lat="45.14495" lon="6.11704">
        <ele>2605.9</ele>
        <time>2024-07-08T11:01:27Z</time>
      </trkpt>
      <trkpt lat="45.14493" lon="6.11703">
        <ele>2606.1</ele>
        <time>2024-07-08T11:01:28Z</time>
      </trkpt>
      <trkpt lat="45.14493" lon="6.11703">
        <ele>2606.2</ele>
        <time>2024-07-08T11:01:29Z</time>
      </trkpt>
      <trkpt lat="45.14492" lon="6.11702">
        <ele>2606.2</ele>
        <time>2024-07-08T11:01:30Z</time>
      </trkpt>
      <trkpt lat="45.1449" lon="6.11702">
        <ele>2606.4</ele>
        <time>2024-07-08T11:01:31Z</time>
      </trkpt>
      <trkpt lat="45.14489" lon="6.11703">
        <ele>2606.5</ele>
        <time>2024-07-08T11:01:32Z</time>
      </trkpt>
      <trkpt lat="45.14489" lon="6.11704">
        <ele>2606.6</ele>
        <time>2024-07-08T11:01:33Z</time>
      </trkpt>
      <trkpt lat="45.14488" lon="6.11708">
        <ele>2606.9</ele>
        <time>2024-07-08T11:01:34Z</time>
      </trkpt>
      <trkpt lat="45.14488" lon="6.1171">
        <ele>2607</ele>
        <time>2024-07-08T11:01:35Z</time>
      </trkpt>
      <trkpt lat="45.14487" lon="6.11711">
        <ele>2607.1</ele>
        <time>2024-07-08T11:01:36Z</time>
      </trkpt>
      <trkpt lat="45.14487" lon="6.11712">
        <ele>2607.2</ele>
        <time>2024-07-08T11:01:37Z</time>
      </trkpt>
      <trkpt lat="45.14487" lon="6.11713">
        <ele>2607.2</ele>
        <time>2024-07-08T11:01:38Z</time>
      </trkpt>
      <trkpt lat="45.14487" lon="6.11714">
        <ele>2607.3</ele>
        <time>2024-07-08T11:01:39Z</time>
      </trkpt>
      <trkpt lat="45.14487" lon="6.11716">
        <ele>2607.5</ele>
        <time>2024-07-08T11:01:40Z</time>
      </trkpt>
      <trkpt lat="45.14486" lon="6.11717">
        <ele>2607.6</ele>
        <time>2024-07-08T11:01:41Z</time>
      </trkpt>
      <trkpt lat="45.14486" lon="6.11718">
        <ele>2607.7</ele>
        <time>2024-07-08T11:01:42Z</time>
      </trkpt>
      <trkpt lat="45.14486" lon="6.11719">
        <ele>2607.7</ele>
        <time>2024-07-08T11:01:43Z</time>
      </trkpt>
      <trkpt lat="45.14487" lon="6.1172">
        <ele>2607.9</ele>
        <time>2024-07-08T11:01:44Z</time>
      </trkpt>
      <trkpt lat="45.14488" lon="6.11721">
        <ele>2608</ele>
        <time>2024-07-08T11:01:45Z</time>
      </trkpt>
      <trkpt lat="45.14488" lon="6.11723">
        <ele>2608.2</ele>
        <time>2024-07-08T11:01:46Z</time>
      </trkpt>
      <trkpt lat="45.14488" lon="6.11724">
        <ele>2608.3</ele>
        <time>2024-07-08T11:01:47Z</time>
      </trkpt>
      <trkpt lat="45.14487" lon="6.11725">
        <ele>2608.5</ele>
        <time>2024-07-08T11:01:48Z</time>
      </trkpt>
      <trkpt lat="45.14486" lon="6.11725">
        <ele>2608.6</ele>
        <time>2024-07-08T11:01:49Z</time>
      </trkpt>
      <trkpt lat="45.14485" lon="6.11725">
        <ele>2608.8</ele>
        <time>2024-07-08T11:01:50Z</time>
      </trkpt>
      <trkpt lat="45.14484" lon="6.11726">
        <ele>2608.9</ele>
        <time>2024-07-08T11:01:51Z</time>
      </trkpt>
      <trkpt lat="45.14483" lon="6.11726">
        <ele>2609.1</ele>
        <time>2024-07-08T11:01:52Z</time>
      </trkpt>
      <trkpt lat="45.14483" lon="6.11726">
        <ele>2609.2</ele>
        <time>2024-07-08T11:01:53Z</time>
      </trkpt>
      <trkpt lat="45.14482" lon="6.11727">
        <ele>2609.3</ele>
        <time>2024-07-08T11:01:54Z</time>
      </trkpt>
      <trkpt lat="45.14482" lon="6.11728">
        <ele>2609.4</ele>
        <time>2024-07-08T11:01:55Z</time>
      </trkpt>
      <trkpt lat="45.14481" lon="6.11729">
        <ele>2609.6</ele>
        <time>2024-07-08T11:01:56Z</time>
      </trkpt>
      <trkpt lat="45.1448" lon="6.11729">
        <ele>2609.7</ele>
        <time>2024-07-08T11:01:57Z</time>
      </trkpt>
      <trkpt lat="45.1448" lon="6.11729">
        <ele>2609.8</ele>
        <time>2024-07-08T11:01:58Z</time>
      </trkpt>
      <trkpt lat="45.14479" lon="6.11729">
        <ele>2610</ele>
        <time>2024-07-08T11:01:59Z</time>
      </trkpt>
      <trkpt lat="45.14479" lon="6.1173">
        <ele>2610.1</ele>
        <time>2024-07-08T11:02:00Z</time>
      </trkpt>
      <trkpt lat="45.14479" lon="6.1173">
        <ele>2610.2</ele>
        <time>2024-07-08T11:02:01Z</time>
      </trkpt>
      <trkpt lat="45.1448" lon="6.11731">
        <ele>2610.3</ele>
        <time>2024-07-08T11:02:02Z</time>
      </trkpt>
      <trkpt lat="45.1448" lon="6.11732">
        <ele>2610.4</ele>
        <time>2024-07-08T11:02:03Z</time>
      </trkpt>
      <trkpt lat="45.1448" lon="6.11733">
        <ele>2610.5</ele>
        <time>2024-07-08T11:02:04Z</time>
      </trkpt>
      <trkpt lat="45.14481" lon="6.11734">
        <ele>2610.6</ele>
        <time>2024-07-08T11:02:05Z</time>
      </trkpt>
      <trkpt lat="45.1448" lon="6.11734">
        <ele>2610.7</ele>
        <time>2024-07-08T11:02:06Z</time>
      </trkpt>
      <trkpt lat="45.1448" lon="6.11734">
        <ele>2610.9</ele>
        <time>2024-07-08T11:02:07Z</time>
      </trkpt>
      <trkpt lat="45.14479" lon="6.11734">
        <ele>2611</ele>
        <time>2024-07-08T11:02:08Z</time>
      </trkpt>
      <trkpt lat="45.14478" lon="6.11735">
        <ele>2611.1</ele>
        <time>2024-07-08T11:02:09Z</time>
      </trkpt>
      <trkpt lat="45.14478" lon="6.11735">
        <ele>2611.2</ele>
        <time>2024-07-08T11:02:10Z</time>
      </trkpt>
      <trkpt lat="45.14478" lon="6.11736">
        <ele>2611.3</ele>
        <time>2024-07-08T11:02:11Z</time>
      </trkpt>
      <trkpt lat="45.14478" lon="6.11736">
        <ele>2611.3</ele>
        <time>2024-07-08T11:02:12Z</time>
      </trkpt>
      <trkpt lat="45.14477" lon="6.11737">
        <ele>2611.4</ele>
        <time>2024-07-08T11:02:13Z</time>
      </trkpt>
      <trkpt lat="45.14477" lon="6.11738">
        <ele>2611.5</ele>
        <time>2024-07-08T11:02:14Z</time>
      </trkpt>
      <trkpt lat="45.14477" lon="6.11739">
        <ele>2611.6</ele>
        <time>2024-07-08T11:02:15Z</time>
      </trkpt>
      <trkpt lat="45.14477" lon="6.1174">
        <ele>2611.7</ele>
        <time>2024-07-08T11:02:16Z</time>
      </trkpt>
      <trkpt lat="45.14477" lon="6.11741">
        <ele>2611.8</ele>
        <time>2024-07-08T11:02:17Z</time>
      </trkpt>
      <trkpt lat="45.14477" lon="6.11742">
        <ele>2612</ele>
        <time>2024-07-08T11:02:18Z</time>
      </trkpt>
      <trkpt lat="45.14476" lon="6.11743">
        <ele>2612.1</ele>
        <time>2024-07-08T11:02:19Z</time>
      </trkpt>
      <trkpt lat="45.14476" lon="6.11744">
        <ele>2612.2</ele>
        <time>2024-07-08T11:02:20Z</time>
      </trkpt>
      <trkpt lat="45.14475" lon="6.11744">
        <ele>2612.3</ele>
        <time>2024-07-08T11:02:21Z</time>
      </trkpt>
      <trkpt lat="45.14475" lon="6.11745">
        <ele>2612.4</ele>
        <time>2024-07-08T11:02:22Z</time>
      </trkpt>
      <trkpt lat="45.14474" lon="6.11745">
        <ele>2612.5</ele>
        <time>2024-07-08T11:02:23Z</time>
      </trkpt>
      <trkpt lat="45.14474" lon="6.11746">
        <ele>2612.7</ele>
        <time>2024-07-08T11:02:24Z</time>
      </trkpt>
      <trkpt lat="45.14474" lon="6.11747">
        <ele>2612.8</ele>
        <time>2024-07-08T11:02:25Z</time>
      </trkpt>
      <trkpt lat="45.14474" lon="6.11748">
        <ele>2612.8</ele>
        <time>2024-07-08T11:02:26Z</time>
      </trkpt>
      <trkpt lat="45.14474" lon="6.11749">
        <ele>2612.9</ele>
        <time>2024-07-08T11:02:27Z</time>
      </trkpt>
      <trkpt lat="45.14474" lon="6.1175">
        <ele>2613</ele>
        <time>2024-07-08T11:02:28Z</time>
      </trkpt>
      <trkpt lat="45.14474" lon="6.11751">
        <ele>2613.2</ele>
        <time>2024-07-08T11:02:29Z</time>
      </trkpt>
      <trkpt lat="45.14475" lon="6.11751">
        <ele>2613.2</ele>
        <time>2024-07-08T11:02:30Z</time>
      </trkpt>
      <trkpt lat="45.14475" lon="6.11752">
        <ele>2613.4</ele>
        <time>2024-07-08T11:02:31Z</time>
      </trkpt>
      <trkpt lat="45.14476" lon="6.11753">
        <ele>2613.5</ele>
        <time>2024-07-08T11:02:32Z</time>
      </trkpt>
      <trkpt lat="45.14476" lon="6.11754">
        <ele>2613.6</ele>
        <time>2024-07-08T11:02:33Z</time>
      </trkpt>
      <trkpt lat="45.14476" lon="6.11756">
        <ele>2613.8</ele>
        <time>2024-07-08T11:02:34Z</time>
      </trkpt>
      <trkpt lat="45.14476" lon="6.11757">
        <ele>2613.9</ele>
        <time>2024-07-08T11:02:35Z</time>
      </trkpt>
      <trkpt lat="45.14476" lon="6.11758">
        <ele>2614</ele>
        <time>2024-07-08T11:02:36Z</time>
      </trkpt>
      <trkpt lat="45.14476" lon="6.11759">
        <ele>2614.1</ele>
        <time>2024-07-08T11:02:37Z</time>
      </trkpt>
      <trkpt lat="45.14475" lon="6.11759">
        <ele>2614.2</ele>
        <time>2024-07-08T11:02:38Z</time>
      </trkpt>
      <trkpt lat="45.14475" lon="6.1176">
        <ele>2614.3</ele>
        <time>2024-07-08T11:02:39Z</time>
      </trkpt>
      <trkpt lat="45.14475" lon="6.11761">
        <ele>2614.3</ele>
        <time>2024-07-08T11:02:40Z</time>
      </trkpt>
      <trkpt lat="45.14474" lon="6.11761">
        <ele>2614.4</ele>
        <time>2024-07-08T11:02:41Z</time>
      </trkpt>
      <trkpt lat="45.14474" lon="6.11761">
        <ele>2614.5</ele>
        <time>2024-07-08T11:02:42Z</time>
      </trkpt>
      <trkpt lat="45.14473" lon="6.11761">
        <ele>2614.6</ele>
        <time>2024-07-08T11:02:43Z</time>
      </trkpt>
      <trkpt lat="45.14472" lon="6.1176">
        <ele>2614.7</ele>
        <time>2024-07-08T11:02:44Z</time>
      </trkpt>
      <trkpt lat="45.14471" lon="6.1176">
        <ele>2614.8</ele>
        <time>2024-07-08T11:02:45Z</time>
      </trkpt>
      <trkpt lat="45.1447" lon="6.1176">
        <ele>2615</ele>
        <time>2024-07-08T11:02:46Z</time>
      </trkpt>
      <trkpt lat="45.1447" lon="6.1176">
        <ele>2615</ele>
        <time>2024-07-08T11:02:47Z</time>
      </trkpt>
      <trkpt lat="45.14469" lon="6.11761">
        <ele>2615.2</ele>
        <time>2024-07-08T11:02:48Z</time>
      </trkpt>
      <trkpt lat="45.14468" lon="6.11762">
        <ele>2615.3</ele>
        <time>2024-07-08T11:02:49Z</time>
      </trkpt>
      <trkpt lat="45.14468" lon="6.11763">
        <ele>2615.4</ele>
        <time>2024-07-08T11:02:50Z</time>
      </trkpt>
      <trkpt lat="45.14467" lon="6.11763">
        <ele>2615.5</ele>
        <time>2024-07-08T11:02:51Z</time>
      </trkpt>
      <trkpt lat="45.14467" lon="6.11764">
        <ele>2615.6</ele>
        <time>2024-07-08T11:02:52Z</time>
      </trkpt>
      <trkpt lat="45.14466" lon="6.11765">
        <ele>2615.8</ele>
        <time>2024-07-08T11:02:53Z</time>
      </trkpt>
      <trkpt lat="45.14465" lon="6.11765">
        <ele>2615.9</ele>
        <time>2024-07-08T11:02:54Z</time>
      </trkpt>
      <trkpt lat="45.14464" lon="6.11766">
        <ele>2616</ele>
        <time>2024-07-08T11:02:55Z</time>
      </trkpt>
      <trkpt lat="45.14464" lon="6.11766">
        <ele>2616.1</ele>
        <time>2024-07-08T11:02:56Z</time>
      </trkpt>
      <trkpt lat="45.14464" lon="6.11765">
        <ele>2616.1</ele>
        <time>2024-07-08T11:02:57Z</time>
      </trkpt>
      <trkpt lat="45.14463" lon="6.11765">
        <ele>2616.2</ele>
        <time>2024-07-08T11:02:58Z</time>
      </trkpt>
      <trkpt lat="45.14462" lon="6.11766">
        <ele>2616.3</ele>
        <time>2024-07-08T11:02:59Z</time>
      </trkpt>
      <trkpt lat="45.14462" lon="6.11767">
        <ele>2616.4</ele>
        <time>2024-07-08T11:03:00Z</time>
      </trkpt>
      <trkpt lat="45.14461" lon="6.11767">
        <ele>2616.5</ele>
        <time>2024-07-08T11:03:01Z</time>
      </trkpt>
      <trkpt lat="45.14461" lon="6.11767">
        <ele>2616.6</ele>
        <time>2024-07-08T11:03:02Z</time>
      </trkpt>
      <trkpt lat="45.1446" lon="6.11767">
        <ele>2616.7</ele>
        <time>2024-07-08T11:03:03Z</time>
      </trkpt>
      <trkpt lat="45.14459" lon="6.11767">
        <ele>2616.8</ele>
        <time>2024-07-08T11:03:04Z</time>
      </trkpt>
      <trkpt lat="45.14458" lon="6.11766">
        <ele>2617</ele>
        <time>2024-07-08T11:03:05Z</time>
      </trkpt>
      <trkpt lat="45.14458" lon="6.11765">
        <ele>2617.2</ele>
        <time>2024-07-08T11:03:06Z</time>
      </trkpt>
      <trkpt lat="45.14457" lon="6.11764">
        <ele>2617.3</ele>
        <time>2024-07-08T11:03:07Z</time>
      </trkpt>
      <trkpt lat="45.14456" lon="6.11763">
        <ele>2617.5</ele>
        <time>2024-07-08T11:03:08Z</time>
      </trkpt>
      <trkpt lat="45.14456" lon="6.11762">
        <ele>2617.6</ele>
        <time>2024-07-08T11:03:09Z</time>
      </trkpt>
      <trkpt lat="45.14456" lon="6.11761">
        <ele>2617.7</ele>
        <time>2024-07-08T11:03:10Z</time>
      </trkpt>
      <trkpt lat="45.14455" lon="6.1176">
        <ele>2617.9</ele>
        <time>2024-07-08T11:03:11Z</time>
      </trkpt>
      <trkpt lat="45.14454" lon="6.1176">
        <ele>2618</ele>
        <time>2024-07-08T11:03:12Z</time>
      </trkpt>
      <trkpt lat="45.14454" lon="6.11759">
        <ele>2618.2</ele>
        <time>2024-07-08T11:03:13Z</time>
      </trkpt>
      <trkpt lat="45.14453" lon="6.11758">
        <ele>2618.3</ele>
        <time>2024-07-08T11:03:14Z</time>
      </trkpt>
      <trkpt lat="45.14452" lon="6.11758">
        <ele>2618.5</ele>
        <time>2024-07-08T11:03:15Z</time>
      </trkpt>
      <trkpt lat="45.14452" lon="6.11757">
        <ele>2618.6</ele>
        <time>2024-07-08T11:03:16Z</time>
      </trkpt>
      <trkpt lat="45.14451" lon="6.11757">
        <ele>2618.8</ele>
        <time>2024-07-08T11:03:17Z</time>
      </trkpt>
      <trkpt lat="45.1445" lon="6.11757">
        <ele>2619</ele>
        <time>2024-07-08T11:03:18Z</time>
      </trkpt>
      <trkpt lat="45.14449" lon="6.11757">
        <ele>2619.1</ele>
        <time>2024-07-08T11:03:19Z</time>
      </trkpt>
      <trkpt lat="45.14448" lon="6.11756">
        <ele>2619.3</ele>
        <time>2024-07-08T11:03:20Z</time>
      </trkpt>
      <trkpt lat="45.14448" lon="6.11756">
        <ele>2619.4</ele>
        <time>2024-07-08T11:03:21Z</time>
      </trkpt>
      <trkpt lat="45.14447" lon="6.11756">
        <ele>2619.5</ele>
        <time>2024-07-08T11:03:22Z</time>
      </trkpt>
      <trkpt lat="45.14447" lon="6.11755">
        <ele>2619.6</ele>
        <time>2024-07-08T11:03:23Z</time>
      </trkpt>
      <trkpt lat="45.14446" lon="6.11756">
        <ele>2619.7</ele>
        <time>2024-07-08T11:03:24Z</time>
      </trkpt>
      <trkpt lat="45.14446" lon="6.11756">
        <ele>2619.8</ele>
        <time>2024-07-08T11:03:25Z</time>
      </trkpt>
      <trkpt lat="45.14446" lon="6.11756">
        <ele>2619.8</ele>
        <time>2024-07-08T11:03:26Z</time>
      </trkpt>
      <trkpt lat="45.14445" lon="6.11756">
        <ele>2619.9</ele>
        <time>2024-07-08T11:03:27Z</time>
      </trkpt>
      <trkpt lat="45.14445" lon="6.11755">
        <ele>2620</ele>
        <time>2024-07-08T11:03:28Z</time>
      </trkpt>
      <trkpt lat="45.14444" lon="6.11755">
        <ele>2620.1</ele>
        <time>2024-07-08T11:03:29Z</time>
      </trkpt>
      <trkpt lat="45.14444" lon="6.11755">
        <ele>2620.2</ele>
        <time>2024-07-08T11:03:30Z</time>
      </trkpt>
      <trkpt lat="45.14443" lon="6.11755">
        <ele>2620.4</ele>
        <time>2024-07-08T11:03:31Z</time>
      </trkpt>
      <trkpt lat="45.14443" lon="6.11755">
        <ele>2620.4</ele>
        <time>2024-07-08T11:03:32Z</time>
      </trkpt>
      <trkpt lat="45.14443" lon="6.11755">
        <ele>2620.5</ele>
        <time>2024-07-08T11:03:33Z</time>
      </trkpt>
      <trkpt lat="45.14442" lon="6.11755">
        <ele>2620.5</ele>
        <time>2024-07-08T11:03:34Z</time>
      </trkpt>
      <trkpt lat="45.14442" lon="6.11755">
        <ele>2620.6</ele>
        <time>2024-07-08T11:03:35Z</time>
      </trkpt>
      <trkpt lat="45.14442" lon="6.11756">
        <ele>2620.7</ele>
        <time>2024-07-08T11:03:36Z</time>
      </trkpt>
      <trkpt lat="45.14442" lon="6.11756">
        <ele>2620.7</ele>
        <time>2024-07-08T11:03:37Z</time>
      </trkpt>
      <trkpt lat="45.14441" lon="6.11757">
        <ele>2620.9</ele>
        <time>2024-07-08T11:03:38Z</time>
      </trkpt>
      <trkpt lat="45.14441" lon="6.11756">
        <ele>2620.9</ele>
        <time>2024-07-08T11:03:39Z</time>
      </trkpt>
      <trkpt lat="45.14441" lon="6.11756">
        <ele>2620.9</ele>
        <time>2024-07-08T11:03:40Z</time>
      </trkpt>
      <trkpt lat="45.14441" lon="6.11757">
        <ele>2620.9</ele>
        <time>2024-07-08T11:03:41Z</time>
      </trkpt>
      <trkpt lat="45.14441" lon="6.11757">
        <ele>2621</ele>
        <time>2024-07-08T11:03:42Z</time>
      </trkpt>
      <trkpt lat="45.1444" lon="6.11757">
        <ele>2621.2</ele>
        <time>2024-07-08T11:03:43Z</time>
      </trkpt>
      <trkpt lat="45.1444" lon="6.11758">
        <ele>2621.3</ele>
        <time>2024-07-08T11:03:44Z</time>
      </trkpt>
      <trkpt lat="45.1444" lon="6.11758">
        <ele>2621.3</ele>
        <time>2024-07-08T11:03:45Z</time>
      </trkpt>
      <trkpt lat="45.14439" lon="6.11759">
        <ele>2621.5</ele>
        <time>2024-07-08T11:03:46Z</time>
      </trkpt>
      <trkpt lat="45.1444" lon="6.1176">
        <ele>2621.5</ele>
        <time>2024-07-08T11:03:47Z</time>
      </trkpt>
      <trkpt lat="45.14439" lon="6.1176">
        <ele>2621.7</ele>
        <time>2024-07-08T11:03:48Z</time>
      </trkpt>
      <trkpt lat="45.14439" lon="6.11761">
        <ele>2621.8</ele>
        <time>2024-07-08T11:03:49Z</time>
      </trkpt>
      <trkpt lat="45.14439" lon="6.11762">
        <ele>2622</ele>
        <time>2024-07-08T11:03:50Z</time>
      </trkpt>
      <trkpt lat="45.1444" lon="6.11764">
        <ele>2622.1</ele>
        <time>2024-07-08T11:03:51Z</time>
      </trkpt>
      <trkpt lat="45.14439" lon="6.11764">
        <ele>2622.2</ele>
        <time>2024-07-08T11:03:52Z</time>
      </trkpt>
      <trkpt lat="45.14439" lon="6.11765">
        <ele>2622.3</ele>
        <time>2024-07-08T11:03:53Z</time>
      </trkpt>
      <trkpt lat="45.14438" lon="6.11765">
        <ele>2622.5</ele>
        <time>2024-07-08T11:03:54Z</time>
      </trkpt>
      <trkpt lat="45.14438" lon="6.11765">
        <ele>2622.6</ele>
        <time>2024-07-08T11:03:55Z</time>
      </trkpt>
      <trkpt lat="45.14438" lon="6.11764">
        <ele>2622.7</ele>
        <time>2024-07-08T11:03:56Z</time>
      </trkpt>
      <trkpt lat="45.14437" lon="6.11764">
        <ele>2622.7</ele>
        <time>2024-07-08T11:03:57Z</time>
      </trkpt>
      <trkpt lat="45.14437" lon="6.11764">
        <ele>2622.8</ele>
        <time>2024-07-08T11:03:58Z</time>
      </trkpt>
      <trkpt lat="45.14437" lon="6.11765">
        <ele>2622.9</ele>
        <time>2024-07-08T11:03:59Z</time>
      </trkpt>
      <trkpt lat="45.14436" lon="6.11765">
        <ele>2623</ele>
        <time>2024-07-08T11:04:00Z</time>
      </trkpt>
      <trkpt lat="45.14436" lon="6.11765">
        <ele>2623.1</ele>
        <time>2024-07-08T11:04:01Z</time>
      </trkpt>
      <trkpt lat="45.14436" lon="6.11766">
        <ele>2623.2</ele>
        <time>2024-07-08T11:04:02Z</time>
      </trkpt>
      <trkpt lat="45.14436" lon="6.11766">
        <ele>2623.2</ele>
        <time>2024-07-08T11:04:03Z</time>
      </trkpt>
      <trkpt lat="45.14435" lon="6.11767">
        <ele>2623.3</ele>
        <time>2024-07-08T11:04:04Z</time>
      </trkpt>
      <trkpt lat="45.14435" lon="6.11767">
        <ele>2623.4</ele>
        <time>2024-07-08T11:04:05Z</time>
      </trkpt>
      <trkpt lat="45.14435" lon="6.11768">
        <ele>2623.4</ele>
        <time>2024-07-08T11:04:06Z</time>
      </trkpt>
      <trkpt lat="45.14435" lon="6.11768">
        <ele>2623.5</ele>
        <time>2024-07-08T11:04:07Z</time>
      </trkpt>
      <trkpt lat="45.14435" lon="6.11768">
        <ele>2623.5</ele>
        <time>2024-07-08T11:04:08Z</time>
      </trkpt>
      <trkpt lat="45.14435" lon="6.11769">
        <ele>2623.6</ele>
        <time>2024-07-08T11:04:09Z</time>
      </trkpt>
      <trkpt lat="45.14435" lon="6.11769">
        <ele>2623.6</ele>
        <time>2024-07-08T11:04:10Z</time>
      </trkpt>
      <trkpt lat="45.14435" lon="6.1177">
        <ele>2623.7</ele>
        <time>2024-07-08T11:04:11Z</time>
      </trkpt>
      <trkpt lat="45.14435" lon="6.11771">
        <ele>2623.8</ele>
        <time>2024-07-08T11:04:12Z</time>
      </trkpt>
      <trkpt lat="45.14435" lon="6.11771">
        <ele>2623.9</ele>
        <time>2024-07-08T11:04:13Z</time>
      </trkpt>
      <trkpt lat="45.14435" lon="6.11771">
        <ele>2623.9</ele>
        <time>2024-07-08T11:04:14Z</time>
      </trkpt>
      <trkpt lat="45.14435" lon="6.11772">
        <ele>2624</ele>
        <time>2024-07-08T11:04:15Z</time>
      </trkpt>
      <trkpt lat="45.14434" lon="6.11773">
        <ele>2624.1</ele>
        <time>2024-07-08T11:04:16Z</time>
      </trkpt>
      <trkpt lat="45.14434" lon="6.11773">
        <ele>2624.2</ele>
        <time>2024-07-08T11:04:17Z</time>
      </trkpt>
      <trkpt lat="45.14433" lon="6.11774">
        <ele>2624.4</ele>
        <time>2024-07-08T11:04:18Z</time>
      </trkpt>
      <trkpt lat="45.14433" lon="6.11774">
        <ele>2624.5</ele>
        <time>2024-07-08T11:04:19Z</time>
      </trkpt>
      <trkpt lat="45.14432" lon="6.11774">
        <ele>2624.6</ele>
        <time>2024-07-08T11:04:20Z</time>
      </trkpt>
      <trkpt lat="45.14431" lon="6.11774">
        <ele>2624.8</ele>
        <time>2024-07-08T11:04:21Z</time>
      </trkpt>
      <trkpt lat="45.1443" lon="6.11774">
        <ele>2624.9</ele>
        <time>2024-07-08T11:04:22Z</time>
      </trkpt>
      <trkpt lat="45.1443" lon="6.11773">
        <ele>2625.1</ele>
        <time>2024-07-08T11:04:23Z</time>
      </trkpt>
      <trkpt lat="45.14429" lon="6.11772">
        <ele>2625.2</ele>
        <time>2024-07-08T11:04:24Z</time>
      </trkpt>
      <trkpt lat="45.14429" lon="6.11771">
        <ele>2625.3</ele>
        <time>2024-07-08T11:04:25Z</time>
      </trkpt>
      <trkpt lat="45.14428" lon="6.11771">
        <ele>2625.5</ele>
        <time>2024-07-08T11:04:26Z</time>
      </trkpt>
      <trkpt lat="45.14427" lon="6.1177">
        <ele>2625.6</ele>
        <time>2024-07-08T11:04:27Z</time>
      </trkpt>
      <trkpt lat="45.14426" lon="6.1177">
        <ele>2625.7</ele>
        <time>2024-07-08T11:04:28Z</time>
      </trkpt>
      <trkpt lat="45.14426" lon="6.1177">
        <ele>2625.8</ele>
        <time>2024-07-08T11:04:29Z</time>
      </trkpt>
      <trkpt lat="45.14425" lon="6.11771">
        <ele>2625.9</ele>
        <time>2024-07-08T11:04:30Z</time>
      </trkpt>
      <trkpt lat="45.14425" lon="6.11771">
        <ele>2626</ele>
        <time>2024-07-08T11:04:31Z</time>
      </trkpt>
      <trkpt lat="45.14424" lon="6.11771">
        <ele>2626.1</ele>
        <time>2024-07-08T11:04:32Z</time>
      </trkpt>
      <trkpt lat="45.14424" lon="6.11772">
        <ele>2626.2</ele>
        <time>2024-07-08T11:04:33Z</time>
      </trkpt>
      <trkpt lat="45.14424" lon="6.11773">
        <ele>2626.3</ele>
        <time>2024-07-08T11:04:34Z</time>
      </trkpt>
      <trkpt lat="45.14423" lon="6.11774">
        <ele>2626.3</ele>
        <time>2024-07-08T11:04:35Z</time>
      </trkpt>
      <trkpt lat="45.14422" lon="6.11774">
        <ele>2626.5</ele>
        <time>2024-07-08T11:04:36Z</time>
      </trkpt>
      <trkpt lat="45.14422" lon="6.11774">
        <ele>2626.6</ele>
        <time>2024-07-08T11:04:37Z</time>
      </trkpt>
      <trkpt lat="45.14421" lon="6.11775">
        <ele>2626.7</ele>
        <time>2024-07-08T11:04:38Z</time>
      </trkpt>
      <trkpt lat="45.14421" lon="6.11775">
        <ele>2626.8</ele>
        <time>2024-07-08T11:04:39Z</time>
      </trkpt>
      <trkpt lat="45.1442" lon="6.11776">
        <ele>2626.9</ele>
        <time>2024-07-08T11:04:40Z</time>
      </trkpt>
      <trkpt lat="45.1442" lon="6.11777">
        <ele>2626.9</ele>
        <time>2024-07-08T11:04:41Z</time>
      </trkpt>
      <trkpt lat="45.1442" lon="6.11778">
        <ele>2627</ele>
        <time>2024-07-08T11:04:42Z</time>
      </trkpt>
      <trkpt lat="45.1442" lon="6.11779">
        <ele>2627.1</ele>
        <time>2024-07-08T11:04:43Z</time>
      </trkpt>
      <trkpt lat="45.1442" lon="6.1178">
        <ele>2627.2</ele>
        <time>2024-07-08T11:04:44Z</time>
      </trkpt>
      <trkpt lat="45.1442" lon="6.11781">
        <ele>2627.2</ele>
        <time>2024-07-08T11:04:45Z</time>
      </trkpt>
      <trkpt lat="45.1442" lon="6.11782">
        <ele>2627.4</ele>
        <time>2024-07-08T11:04:46Z</time>
      </trkpt>
      <trkpt lat="45.1442" lon="6.11783">
        <ele>2627.5</ele>
        <time>2024-07-08T11:04:47Z</time>
      </trkpt>
      <trkpt lat="45.1442" lon="6.11784">
        <ele>2627.6</ele>
        <time>2024-07-08T11:04:48Z</time>
      </trkpt>
      <trkpt lat="45.1442" lon="6.11785">
        <ele>2627.7</ele>
        <time>2024-07-08T11:04:49Z</time>
      </trkpt>
      <trkpt lat="45.14419" lon="6.11786">
        <ele>2627.7</ele>
        <time>2024-07-08T11:04:50Z</time>
      </trkpt>
      <trkpt lat="45.14418" lon="6.11786">
        <ele>2627.8</ele>
        <time>2024-07-08T11:04:51Z</time>
      </trkpt>
      <trkpt lat="45.14418" lon="6.11786">
        <ele>2627.9</ele>
        <time>2024-07-08T11:04:52Z</time>
      </trkpt>
      <trkpt lat="45.14417" lon="6.11786">
        <ele>2628</ele>
        <time>2024-07-08T11:04:53Z</time>
      </trkpt>
      <trkpt lat="45.14417" lon="6.11787">
        <ele>2628</ele>
        <time>2024-07-08T11:04:54Z</time>
      </trkpt>
      <trkpt lat="45.14416" lon="6.11788">
        <ele>2628.2</ele>
        <time>2024-07-08T11:04:55Z</time>
      </trkpt>
      <trkpt lat="45.14416" lon="6.11789">
        <ele>2628.2</ele>
        <time>2024-07-08T11:04:56Z</time>
      </trkpt>
      <trkpt lat="45.14415" lon="6.11789">
        <ele>2628.3</ele>
        <time>2024-07-08T11:04:57Z</time>
      </trkpt>
      <trkpt lat="45.14415" lon="6.1179">
        <ele>2628.4</ele>
        <time>2024-07-08T11:04:58Z</time>
      </trkpt>
      <trkpt lat="45.14414" lon="6.11791">
        <ele>2628.4</ele>
        <time>2024-07-08T11:04:59Z</time>
      </trkpt>
      <trkpt lat="45.14414" lon="6.11791">
        <ele>2628.5</ele>
        <time>2024-07-08T11:05:00Z</time>
      </trkpt>
      <trkpt lat="45.14413" lon="6.11793">
        <ele>2628.6</ele>
        <time>2024-07-08T11:05:01Z</time>
      </trkpt>
      <trkpt lat="45.14413" lon="6.11793">
        <ele>2628.7</ele>
        <time>2024-07-08T11:05:02Z</time>
      </trkpt>
      <trkpt lat="45.14413" lon="6.11795">
        <ele>2628.8</ele>
        <time>2024-07-08T11:05:03Z</time>
      </trkpt>
      <trkpt lat="45.14413" lon="6.11795">
        <ele>2628.8</ele>
        <time>2024-07-08T11:05:04Z</time>
      </trkpt>
      <trkpt lat="45.14413" lon="6.11796">
        <ele>2628.9</ele>
        <time>2024-07-08T11:05:05Z</time>
      </trkpt>
      <trkpt lat="45.14413" lon="6.11798">
        <ele>2629</ele>
        <time>2024-07-08T11:05:06Z</time>
      </trkpt>
      <trkpt lat="45.14412" lon="6.11799">
        <ele>2629.1</ele>
        <time>2024-07-08T11:05:07Z</time>
      </trkpt>
      <trkpt lat="45.14412" lon="6.118">
        <ele>2629.2</ele>
        <time>2024-07-08T11:05:08Z</time>
      </trkpt>
      <trkpt lat="45.14412" lon="6.118">
        <ele>2629.2</ele>
        <time>2024-07-08T11:05:09Z</time>
      </trkpt>
      <trkpt lat="45.14412" lon="6.11801">
        <ele>2629.3</ele>
        <time>2024-07-08T11:05:10Z</time>
      </trkpt>
      <trkpt lat="45.14411" lon="6.11802">
        <ele>2629.4</ele>
        <time>2024-07-08T11:05:11Z</time>
      </trkpt>
      <trkpt lat="45.14411" lon="6.11803">
        <ele>2629.5</ele>
        <time>2024-07-08T11:05:12Z</time>
      </trkpt>
      <trkpt lat="45.1441" lon="6.11803">
        <ele>2629.5</ele>
        <time>2024-07-08T11:05:13Z</time>
      </trkpt>
      <trkpt lat="45.1441" lon="6.11803">
        <ele>2629.6</ele>
        <time>2024-07-08T11:05:14Z</time>
      </trkpt>
      <trkpt lat="45.1441" lon="6.11803">
        <ele>2629.6</ele>
        <time>2024-07-08T11:05:15Z</time>
      </trkpt>
      <trkpt lat="45.1441" lon="6.11804">
        <ele>2629.6</ele>
        <time>2024-07-08T11:05:16Z</time>
      </trkpt>
      <trkpt lat="45.1441" lon="6.11804">
        <ele>2629.6</ele>
        <time>2024-07-08T11:05:17Z</time>
      </trkpt>
      <trkpt lat="45.1441" lon="6.11804">
        <ele>2629.7</ele>
        <time>2024-07-08T11:05:18Z</time>
      </trkpt>
      <trkpt lat="45.1441" lon="6.11805">
        <ele>2629.7</ele>
        <time>2024-07-08T11:05:19Z</time>
      </trkpt>
      <trkpt lat="45.14409" lon="6.11805">
        <ele>2629.8</ele>
        <time>2024-07-08T11:05:20Z</time>
      </trkpt>
      <trkpt lat="45.14409" lon="6.11806">
        <ele>2629.9</ele>
        <time>2024-07-08T11:05:21Z</time>
      </trkpt>
      <trkpt lat="45.14409" lon="6.11807">
        <ele>2629.9</ele>
        <time>2024-07-08T11:05:22Z</time>
      </trkpt>
      <trkpt lat="45.14409" lon="6.11807">
        <ele>2629.9</ele>
        <time>2024-07-08T11:05:23Z</time>
      </trkpt>
      <trkpt lat="45.14409" lon="6.11807">
        <ele>2630</ele>
        <time>2024-07-08T11:05:24Z</time>
      </trkpt>
      <trkpt lat="45.14408" lon="6.11807">
        <ele>2630</ele>
        <time>2024-07-08T11:05:25Z</time>
      </trkpt>
      <trkpt lat="45.14408" lon="6.11807">
        <ele>2630</ele>
        <time>2024-07-08T11:05:26Z</time>
      </trkpt>
      <trkpt lat="45.14408" lon="6.11807">
        <ele>2630.1</ele>
        <time>2024-07-08T11:05:27Z</time>
      </trkpt>
      <trkpt lat="45.14408" lon="6.11807">
        <ele>2630.1</ele>
        <time>2024-07-08T11:05:28Z</time>
      </trkpt>
      <trkpt lat="45.14408" lon="6.11808">
        <ele>2630.2</ele>
        <time>2024-07-08T11:05:29Z</time>
      </trkpt>
      <trkpt lat="45.14407" lon="6.11808">
        <ele>2630.3</ele>
        <time>2024-07-08T11:05:30Z</time>
      </trkpt>
      <trkpt lat="45.14407" lon="6.11809">
        <ele>2630.3</ele>
        <time>2024-07-08T11:05:31Z</time>
      </trkpt>
      <trkpt lat="45.14406" lon="6.11809">
        <ele>2630.4</ele>
        <time>2024-07-08T11:05:32Z</time>
      </trkpt>
      <trkpt lat="45.14406" lon="6.11809">
        <ele>2630.5</ele>
        <time>2024-07-08T11:05:33Z</time>
      </trkpt>
      <trkpt lat="45.14405" lon="6.1181">
        <ele>2630.5</ele>
        <time>2024-07-08T11:05:34Z</time>
      </trkpt>
      <trkpt lat="45.14405" lon="6.1181">
        <ele>2630.6</ele>
        <time>2024-07-08T11:05:35Z</time>
      </trkpt>
      <trkpt lat="45.14405" lon="6.11811">
        <ele>2630.6</ele>
        <time>2024-07-08T11:05:36Z</time>
      </trkpt>
      <trkpt lat="45.14404" lon="6.11811">
        <ele>2630.7</ele>
        <time>2024-07-08T11:05:37Z</time>
      </trkpt>
      <trkpt lat="45.14404" lon="6.11811">
        <ele>2630.7</ele>
        <time>2024-07-08T11:05:38Z</time>
      </trkpt>
      <trkpt lat="45.14404" lon="6.11812">
        <ele>2630.7</ele>
        <time>2024-07-08T11:05:39Z</time>
      </trkpt>
      <trkpt lat="45.14404" lon="6.11812">
        <ele>2630.8</ele>
        <time>2024-07-08T11:05:40Z</time>
      </trkpt>
      <trkpt lat="45.14404" lon="6.11812">
        <ele>2630.8</ele>
        <time>2024-07-08T11:05:41Z</time>
      </trkpt>
      <trkpt lat="45.14404" lon="6.11812">
        <ele>2630.9</ele>
        <time>2024-07-08T11:05:42Z</time>
      </trkpt>
      <trkpt lat="45.14403" lon="6.11812">
        <ele>2630.9</ele>
        <time>2024-07-08T11:05:43Z</time>
      </trkpt>
      <trkpt lat="45.14403" lon="6.11813">
        <ele>2630.9</ele>
        <time>2024-07-08T11:05:44Z</time>
      </trkpt>
      <trkpt lat="45.14403" lon="6.11813">
        <ele>2631</ele>
        <time>2024-07-08T11:05:45Z</time>
      </trkpt>
      <trkpt lat="45.14403" lon="6.11813">
        <ele>2631</ele>
        <time>2024-07-08T11:05:46Z</time>
      </trkpt>
      <trkpt lat="45.14403" lon="6.11814">
        <ele>2631.1</ele>
        <time>2024-07-08T11:05:47Z</time>
      </trkpt>
      <trkpt lat="45.14402" lon="6.11814">
        <ele>2631.1</ele>
        <time>2024-07-08T11:05:48Z</time>
      </trkpt>
      <trkpt lat="45.14402" lon="6.11815">
        <ele>2631.2</ele>
        <time>2024-07-08T11:05:49Z</time>
      </trkpt>
      <trkpt lat="45.14401" lon="6.11815">
        <ele>2631.3</ele>
        <time>2024-07-08T11:05:50Z</time>
      </trkpt>
      <trkpt lat="45.14401" lon="6.11816">
        <ele>2631.4</ele>
        <time>2024-07-08T11:05:51Z</time>
      </trkpt>
      <trkpt lat="45.14401" lon="6.11816">
        <ele>2631.4</ele>
        <time>2024-07-08T11:05:52Z</time>
      </trkpt>
      <trkpt lat="45.14401" lon="6.11817">
        <ele>2631.5</ele>
        <time>2024-07-08T11:05:53Z</time>
      </trkpt>
      <trkpt lat="45.14401" lon="6.11817">
        <ele>2631.5</ele>
        <time>2024-07-08T11:05:54Z</time>
      </trkpt>
      <trkpt lat="45.14401" lon="6.11817">
        <ele>2631.5</ele>
        <time>2024-07-08T11:05:55Z</time>
      </trkpt>
      <trkpt lat="45.14401" lon="6.11817">
        <ele>2631.5</ele>
        <time>2024-07-08T11:05:56Z</time>
      </trkpt>
      <trkpt lat="45.14401" lon="6.11817">
        <ele>2631.6</ele>
        <time>2024-07-08T11:05:57Z</time>
      </trkpt>
      <trkpt lat="45.144" lon="6.11817">
        <ele>2631.6</ele>
        <time>2024-07-08T11:05:58Z</time>
      </trkpt>
      <trkpt lat="45.144" lon="6.11818">
        <ele>2631.7</ele>
        <time>2024-07-08T11:05:59Z</time>
      </trkpt>
      <trkpt lat="45.14399" lon="6.11818">
        <ele>2631.8</ele>
        <time>2024-07-08T11:06:00Z</time>
      </trkpt>
      <trkpt lat="45.14398" lon="6.11818">
        <ele>2631.9</ele>
        <time>2024-07-08T11:06:01Z</time>
      </trkpt>
      <trkpt lat="45.14398" lon="6.11818">
        <ele>2632</ele>
        <time>2024-07-08T11:06:02Z</time>
      </trkpt>
      <trkpt lat="45.14397" lon="6.11818">
        <ele>2632.1</ele>
        <time>2024-07-08T11:06:03Z</time>
      </trkpt>
      <trkpt lat="45.14397" lon="6.11818">
        <ele>2632.1</ele>
        <time>2024-07-08T11:06:04Z</time>
      </trkpt>
      <trkpt lat="45.14396" lon="6.11818">
        <ele>2632.2</ele>
        <time>2024-07-08T11:06:05Z</time>
      </trkpt>
      <trkpt lat="45.14396" lon="6.11818">
        <ele>2632.2</ele>
        <time>2024-07-08T11:06:06Z</time>
      </trkpt>
      <trkpt lat="45.14396" lon="6.11818">
        <ele>2632.3</ele>
        <time>2024-07-08T11:06:07Z</time>
      </trkpt>
      <trkpt lat="45.14395" lon="6.11819">
        <ele>2632.4</ele>
        <time>2024-07-08T11:06:08Z</time>
      </trkpt>
      <trkpt lat="45.14394" lon="6.11819">
        <ele>2632.5</ele>
        <time>2024-07-08T11:06:09Z</time>
      </trkpt>
      <trkpt lat="45.14393" lon="6.11819">
        <ele>2632.7</ele>
        <time>2024-07-08T11:06:10Z</time>
      </trkpt>
      <trkpt lat="45.14392" lon="6.1182">
        <ele>2632.9</ele>
        <time>2024-07-08T11:06:11Z</time>
      </trkpt>
      <trkpt lat="45.14392" lon="6.1182">
        <ele>2633</ele>
        <time>2024-07-08T11:06:12Z</time>
      </trkpt>
      <trkpt lat="45.14391" lon="6.11821">
        <ele>2633.2</ele>
        <time>2024-07-08T11:06:13Z</time>
      </trkpt>
      <trkpt lat="45.1439" lon="6.11822">
        <ele>2633.3</ele>
        <time>2024-07-08T11:06:14Z</time>
      </trkpt>
      <trkpt lat="45.14389" lon="6.11822">
        <ele>2633.5</ele>
        <time>2024-07-08T11:06:15Z</time>
      </trkpt>
      <trkpt lat="45.14388" lon="6.11823">
        <ele>2633.6</ele>
        <time>2024-07-08T11:06:16Z</time>
      </trkpt>
      <trkpt lat="45.14387" lon="6.11823">
        <ele>2633.8</ele>
        <time>2024-07-08T11:06:17Z</time>
      </trkpt>
      <trkpt lat="45.14386" lon="6.11824">
        <ele>2634</ele>
        <time>2024-07-08T11:06:18Z</time>
      </trkpt>
      <trkpt lat="45.14385" lon="6.11824">
        <ele>2634.2</ele>
        <time>2024-07-08T11:06:19Z</time>
      </trkpt>
      <trkpt lat="45.14384" lon="6.11824">
        <ele>2634.4</ele>
        <time>2024-07-08T11:06:20Z</time>
      </trkpt>
      <trkpt lat="45.14383" lon="6.11823">
        <ele>2634.6</ele>
        <time>2024-07-08T11:06:21Z</time>
      </trkpt>
      <trkpt lat="45.14382" lon="6.11822">
        <ele>2634.8</ele>
        <time>2024-07-08T11:06:22Z</time>
      </trkpt>
      <trkpt lat="45.1438" lon="6.11821">
        <ele>2635</ele>
        <time>2024-07-08T11:06:23Z</time>
      </trkpt>
      <trkpt lat="45.14379" lon="6.11821">
        <ele>2635.2</ele>
        <time>2024-07-08T11:06:24Z</time>
      </trkpt>
      <trkpt lat="45.14378" lon="6.11821">
        <ele>2635.4</ele>
        <time>2024-07-08T11:06:25Z</time>
      </trkpt>
      <trkpt lat="45.14377" lon="6.11821">
        <ele>2635.5</ele>
        <time>2024-07-08T11:06:26Z</time>
      </trkpt>
      <trkpt lat="45.14376" lon="6.11821">
        <ele>2635.7</ele>
        <time>2024-07-08T11:06:27Z</time>
      </trkpt>
      <trkpt lat="45.14375" lon="6.1182">
        <ele>2635.9</ele>
        <time>2024-07-08T11:06:28Z</time>
      </trkpt>
      <trkpt lat="45.14374" lon="6.1182">
        <ele>2636</ele>
        <time>2024-07-08T11:06:29Z</time>
      </trkpt>
      <trkpt lat="45.14373" lon="6.11821">
        <ele>2636.2</ele>
        <time>2024-07-08T11:06:30Z</time>
      </trkpt>
      <trkpt lat="45.14372" lon="6.11822">
        <ele>2636.3</ele>
        <time>2024-07-08T11:06:31Z</time>
      </trkpt>
      <trkpt lat="45.14372" lon="6.11823">
        <ele>2636.5</ele>
        <time>2024-07-08T11:06:32Z</time>
      </trkpt>
      <trkpt lat="45.14371" lon="6.11824">
        <ele>2636.7</ele>
        <time>2024-07-08T11:06:33Z</time>
      </trkpt>
      <trkpt lat="45.14371" lon="6.11825">
        <ele>2636.8</ele>
        <time>2024-07-08T11:06:34Z</time>
      </trkpt>
      <trkpt lat="45.14371" lon="6.11826">
        <ele>2637</ele>
        <time>2024-07-08T11:06:35Z</time>
      </trkpt>
      <trkpt lat="45.1437" lon="6.11827">
        <ele>2637.1</ele>
        <time>2024-07-08T11:06:36Z</time>
      </trkpt>
      <trkpt lat="45.1437" lon="6.11828">
        <ele>2637.2</ele>
        <time>2024-07-08T11:06:37Z</time>
      </trkpt>
      <trkpt lat="45.14368" lon="6.11829">
        <ele>2637.4</ele>
        <time>2024-07-08T11:06:38Z</time>
      </trkpt>
      <trkpt lat="45.14368" lon="6.11829">
        <ele>2637.5</ele>
        <time>2024-07-08T11:06:39Z</time>
      </trkpt>
      <trkpt lat="45.14367" lon="6.11829">
        <ele>2637.6</ele>
        <time>2024-07-08T11:06:40Z</time>
      </trkpt>
      <trkpt lat="45.14366" lon="6.1183">
        <ele>2637.7</ele>
        <time>2024-07-08T11:06:41Z</time>
      </trkpt>
      <trkpt lat="45.14366" lon="6.1183">
        <ele>2637.8</ele>
        <time>2024-07-08T11:06:42Z</time>
      </trkpt>
      <trkpt lat="45.14365" lon="6.11831">
        <ele>2637.9</ele>
        <time>2024-07-08T11:06:43Z</time>
      </trkpt>
      <trkpt lat="45.14365" lon="6.11832">
        <ele>2638</ele>
        <time>2024-07-08T11:06:44Z</time>
      </trkpt>
      <trkpt lat="45.14364" lon="6.11832">
        <ele>2638.1</ele>
        <time>2024-07-08T11:06:45Z</time>
      </trkpt>
      <trkpt lat="45.14363" lon="6.11833">
        <ele>2638.3</ele>
        <time>2024-07-08T11:06:46Z</time>
      </trkpt>
      <trkpt lat="45.14363" lon="6.11833">
        <ele>2638.3</ele>
        <time>2024-07-08T11:06:47Z</time>
      </trkpt>
      <trkpt lat="45.14362" lon="6.11834">
        <ele>2638.5</ele>
        <time>2024-07-08T11:06:48Z</time>
      </trkpt>
      <trkpt lat="45.14361" lon="6.11833">
        <ele>2638.6</ele>
        <time>2024-07-08T11:06:49Z</time>
      </trkpt>
      <trkpt lat="45.1436" lon="6.11833">
        <ele>2638.7</ele>
        <time>2024-07-08T11:06:50Z</time>
      </trkpt>
      <trkpt lat="45.14359" lon="6.11833">
        <ele>2638.9</ele>
        <time>2024-07-08T11:06:51Z</time>
      </trkpt>
      <trkpt lat="45.14359" lon="6.11833">
        <ele>2638.9</ele>
        <time>2024-07-08T11:06:52Z</time>
      </trkpt>
      <trkpt lat="45.14358" lon="6.11834">
        <ele>2639</ele>
        <time>2024-07-08T11:06:53Z</time>
      </trkpt>
      <trkpt lat="45.14357" lon="6.11834">
        <ele>2639.1</ele>
        <time>2024-07-08T11:06:54Z</time>
      </trkpt>
      <trkpt lat="45.14357" lon="6.11834">
        <ele>2639.2</ele>
        <time>2024-07-08T11:06:55Z</time>
      </trkpt>
      <trkpt lat="45.14356" lon="6.11834">
        <ele>2639.3</ele>
        <time>2024-07-08T11:06:56Z</time>
      </trkpt>
      <trkpt lat="45.14355" lon="6.11834">
        <ele>2639.4</ele>
        <time>2024-07-08T11:06:57Z</time>
      </trkpt>
      <trkpt lat="45.14354" lon="6.11834">
        <ele>2639.5</ele>
        <time>2024-07-08T11:06:58Z</time>
      </trkpt>
      <trkpt lat="45.14353" lon="6.11834">
        <ele>2639.6</ele>
        <time>2024-07-08T11:06:59Z</time>
      </trkpt>
      <trkpt lat="45.14353" lon="6.11834">
        <ele>2639.7</ele>
        <time>2024-07-08T11:07:00Z</time>
      </trkpt>
      <trkpt lat="45.14352" lon="6.11834">
        <ele>2639.8</ele>
        <time>2024-07-08T11:07:01Z</time>
      </trkpt>
      <trkpt lat="45.14351" lon="6.11834">
        <ele>2639.9</ele>
        <time>2024-07-08T11:07:02Z</time>
      </trkpt>
      <trkpt lat="45.1435" lon="6.11834">
        <ele>2639.9</ele>
        <time>2024-07-08T11:07:03Z</time>
      </trkpt>
      <trkpt lat="45.14349" lon="6.11834">
        <ele>2640</ele>
        <time>2024-07-08T11:07:04Z</time>
      </trkpt>
      <trkpt lat="45.14349" lon="6.11834">
        <ele>2640.1</ele>
        <time>2024-07-08T11:07:05Z</time>
      </trkpt>
      <trkpt lat="45.14348" lon="6.11834">
        <ele>2640.2</ele>
        <time>2024-07-08T11:07:06Z</time>
      </trkpt>
      <trkpt lat="45.14347" lon="6.11834">
        <ele>2640.3</ele>
        <time>2024-07-08T11:07:07Z</time>
      </trkpt>
      <trkpt lat="45.14346" lon="6.11834">
        <ele>2640.3</ele>
        <time>2024-07-08T11:07:08Z</time>
      </trkpt>
      <trkpt lat="45.14345" lon="6.11834">
        <ele>2640.4</ele>
        <time>2024-07-08T11:07:09Z</time>
      </trkpt>
      <trkpt lat="45.14345" lon="6.11835">
        <ele>2640.5</ele>
        <time>2024-07-08T11:07:10Z</time>
      </trkpt>
      <trkpt lat="45.14344" lon="6.11835">
        <ele>2640.6</ele>
        <time>2024-07-08T11:07:11Z</time>
      </trkpt>
      <trkpt lat="45.14344" lon="6.11835">
        <ele>2640.6</ele>
        <time>2024-07-08T11:07:12Z</time>
      </trkpt>
      <trkpt lat="45.14343" lon="6.11836">
        <ele>2640.7</ele>
        <time>2024-07-08T11:07:13Z</time>
      </trkpt>
      <trkpt lat="45.14342" lon="6.11836">
        <ele>2640.7</ele>
        <time>2024-07-08T11:07:14Z</time>
      </trkpt>
      <trkpt lat="45.14342" lon="6.11837">
        <ele>2640.8</ele>
        <time>2024-07-08T11:07:15Z</time>
      </trkpt>
      <trkpt lat="45.14341" lon="6.11837">
        <ele>2640.8</ele>
        <time>2024-07-08T11:07:16Z</time>
      </trkpt>
      <trkpt lat="45.1434" lon="6.11838">
        <ele>2640.9</ele>
        <time>2024-07-08T11:07:17Z</time>
      </trkpt>
      <trkpt lat="45.1434" lon="6.11839">
        <ele>2641</ele>
        <time>2024-07-08T11:07:18Z</time>
      </trkpt>
      <trkpt lat="45.14339" lon="6.11839">
        <ele>2641.1</ele>
        <time>2024-07-08T11:07:19Z</time>
      </trkpt>
      <trkpt lat="45.14338" lon="6.11841">
        <ele>2641.1</ele>
        <time>2024-07-08T11:07:20Z</time>
      </trkpt>
      <trkpt lat="45.14338" lon="6.11842">
        <ele>2641.2</ele>
        <time>2024-07-08T11:07:21Z</time>
      </trkpt>
      <trkpt lat="45.14337" lon="6.11843">
        <ele>2641.3</ele>
        <time>2024-07-08T11:07:22Z</time>
      </trkpt>
      <trkpt lat="45.14336" lon="6.11844">
        <ele>2641.4</ele>
        <time>2024-07-08T11:07:23Z</time>
      </trkpt>
      <trkpt lat="45.14335" lon="6.11845">
        <ele>2641.4</ele>
        <time>2024-07-08T11:07:24Z</time>
      </trkpt>
      <trkpt lat="45.14335" lon="6.11846">
        <ele>2641.5</ele>
        <time>2024-07-08T11:07:25Z</time>
      </trkpt>
      <trkpt lat="45.14334" lon="6.11847">
        <ele>2641.5</ele>
        <time>2024-07-08T11:07:26Z</time>
      </trkpt>
      <trkpt lat="45.14334" lon="6.11847">
        <ele>2641.6</ele>
        <time>2024-07-08T11:07:27Z</time>
      </trkpt>
      <trkpt lat="45.14333" lon="6.11848">
        <ele>2641.6</ele>
        <time>2024-07-08T11:07:28Z</time>
      </trkpt>
      <trkpt lat="45.14332" lon="6.11849">
        <ele>2641.7</ele>
        <time>2024-07-08T11:07:29Z</time>
      </trkpt>
      <trkpt lat="45.14332" lon="6.11849">
        <ele>2641.7</ele>
        <time>2024-07-08T11:07:30Z</time>
      </trkpt>
      <trkpt lat="45.14332" lon="6.11849">
        <ele>2641.7</ele>
        <time>2024-07-08T11:07:31Z</time>
      </trkpt>
      <trkpt lat="45.14332" lon="6.1185">
        <ele>2641.8</ele>
        <time>2024-07-08T11:07:32Z</time>
      </trkpt>
      <trkpt lat="45.14331" lon="6.11851">
        <ele>2641.8</ele>
        <time>2024-07-08T11:07:33Z</time>
      </trkpt>
      <trkpt lat="45.14331" lon="6.11851">
        <ele>2641.9</ele>
        <time>2024-07-08T11:07:34Z</time>
      </trkpt>
      <trkpt lat="45.1433" lon="6.11852">
        <ele>2641.9</ele>
        <time>2024-07-08T11:07:35Z</time>
      </trkpt>
      <trkpt lat="45.14329" lon="6.11853">
        <ele>2642</ele>
        <time>2024-07-08T11:07:36Z</time>
      </trkpt>
      <trkpt lat="45.14328" lon="6.11854">
        <ele>2642</ele>
        <time>2024-07-08T11:07:37Z</time>
      </trkpt>
      <trkpt lat="45.14328" lon="6.11854">
        <ele>2642</ele>
        <time>2024-07-08T11:07:38Z</time>
      </trkpt>
      <trkpt lat="45.14327" lon="6.11855">
        <ele>2642.1</ele>
        <time>2024-07-08T11:07:39Z</time>
      </trkpt>
      <trkpt lat="45.14327" lon="6.11856">
        <ele>2642.1</ele>
        <time>2024-07-08T11:07:40Z</time>
      </trkpt>
      <trkpt lat="45.14326" lon="6.11857">
        <ele>2642.2</ele>
        <time>2024-07-08T11:07:41Z</time>
      </trkpt>
      <trkpt lat="45.14326" lon="6.11857">
        <ele>2642.2</ele>
        <time>2024-07-08T11:07:42Z</time>
      </trkpt>
      <trkpt lat="45.14325" lon="6.11858">
        <ele>2642.2</ele>
        <time>2024-07-08T11:07:43Z</time>
      </trkpt>
      <trkpt lat="45.14325" lon="6.11858">
        <ele>2642.2</ele>
        <time>2024-07-08T11:07:44Z</time>
      </trkpt>
      <trkpt lat="45.14324" lon="6.11858">
        <ele>2642.3</ele>
        <time>2024-07-08T11:07:45Z</time>
      </trkpt>
      <trkpt lat="45.14324" lon="6.11859">
        <ele>2642.3</ele>
        <time>2024-07-08T11:07:46Z</time>
      </trkpt>
      <trkpt lat="45.14324" lon="6.11859">
        <ele>2642.3</ele>
        <time>2024-07-08T11:07:47Z</time>
      </trkpt>
      <trkpt lat="45.14324" lon="6.11859">
        <ele>2642.3</ele>
        <time>2024-07-08T11:07:48Z</time>
      </trkpt>
      <trkpt lat="45.14325" lon="6.11859">
        <ele>2642.3</ele>
        <time>2024-07-08T11:07:49Z</time>
      </trkpt>
      <trkpt lat="45.14325" lon="6.11858">
        <ele>2642.3</ele>
        <time>2024-07-08T11:07:50Z</time>
      </trkpt>
      <trkpt lat="45.14325" lon="6.11858">
        <ele>2642.4</ele>
        <time>2024-07-08T11:07:51Z</time>
      </trkpt>
      <trkpt lat="45.14325" lon="6.11857">
        <ele>2642.4</ele>
        <time>2024-07-08T11:07:52Z</time>
      </trkpt>
      <trkpt lat="45.14325" lon="6.11857">
        <ele>2642.4</ele>
        <time>2024-07-08T11:07:53Z</time>
      </trkpt>
      <trkpt lat="45.14325" lon="6.11857">
        <ele>2642.4</ele>
        <time>2024-07-08T11:07:54Z</time>
      </trkpt>
      <trkpt lat="45.14325" lon="6.11857">
        <ele>2642.4</ele>
        <time>2024-07-08T11:07:55Z</time>
      </trkpt>
      <trkpt lat="45.14325" lon="6.11857">
        <ele>2642.4</ele>
        <time>2024-07-08T11:07:56Z</time>
      </trkpt>
      <trkpt lat="45.14325" lon="6.11857">
        <ele>2642.4</ele>
        <time>2024-07-08T11:07:57Z</time>
      </trkpt>
      <trkpt lat="45.14325" lon="6.11857">
        <ele>2642.4</ele>
        <time>2024-07-08T11:07:58Z</time>
      </trkpt>
      <trkpt lat="45.14324" lon="6.11857">
        <ele>2642.4</ele>
        <time>2024-07-08T11:07:59Z</time>
      </trkpt>
      <trkpt lat="45.14323" lon="6.11857">
        <ele>2642.5</ele>
        <time>2024-07-08T11:08:00Z</time>
      </trkpt>
      <trkpt lat="45.14322" lon="6.11857">
        <ele>2642.5</ele>
        <time>2024-07-08T11:08:01Z</time>
      </trkpt>
      <trkpt lat="45.14322" lon="6.11856">
        <ele>2642.6</ele>
        <time>2024-07-08T11:08:02Z</time>
      </trkpt>
      <trkpt lat="45.1432" lon="6.11855">
        <ele>2642.6</ele>
        <time>2024-07-08T11:08:03Z</time>
      </trkpt>
      <trkpt lat="45.14319" lon="6.11855">
        <ele>2642.7</ele>
        <time>2024-07-08T11:08:04Z</time>
      </trkpt>
      <trkpt lat="45.14318" lon="6.11854">
        <ele>2642.7</ele>
        <time>2024-07-08T11:08:05Z</time>
      </trkpt>
      <trkpt lat="45.14317" lon="6.11854">
        <ele>2642.8</ele>
        <time>2024-07-08T11:08:06Z</time>
      </trkpt>
      <trkpt lat="45.14315" lon="6.11853">
        <ele>2642.9</ele>
        <time>2024-07-08T11:08:07Z</time>
      </trkpt>
      <trkpt lat="45.14314" lon="6.11853">
        <ele>2642.9</ele>
        <time>2024-07-08T11:08:08Z</time>
      </trkpt>
      <trkpt lat="45.14313" lon="6.11853">
        <ele>2642.9</ele>
        <time>2024-07-08T11:08:09Z</time>
      </trkpt>
      <trkpt lat="45.14312" lon="6.11853">
        <ele>2643</ele>
        <time>2024-07-08T11:08:10Z</time>
      </trkpt>
      <trkpt lat="45.14311" lon="6.11853">
        <ele>2643</ele>
        <time>2024-07-08T11:08:11Z</time>
      </trkpt>
      <trkpt lat="45.1431" lon="6.11852">
        <ele>2643</ele>
        <time>2024-07-08T11:08:12Z</time>
      </trkpt>
      <trkpt lat="45.14309" lon="6.11851">
        <ele>2643.1</ele>
        <time>2024-07-08T11:08:13Z</time>
      </trkpt>
      <trkpt lat="45.14309" lon="6.1185">
        <ele>2643.1</ele>
        <time>2024-07-08T11:08:14Z</time>
      </trkpt>
      <trkpt lat="45.14308" lon="6.1185">
        <ele>2643.1</ele>
        <time>2024-07-08T11:08:15Z</time>
      </trkpt>
      <trkpt lat="45.14307" lon="6.11849">
        <ele>2643.1</ele>
        <time>2024-07-08T11:08:16Z</time>
      </trkpt>
      <trkpt lat="45.14307" lon="6.11848">
        <ele>2643.2</ele>
        <time>2024-07-08T11:08:17Z</time>
      </trkpt>
      <trkpt lat="45.14306" lon="6.11847">
        <ele>2643.2</ele>
        <time>2024-07-08T11:08:18Z</time>
      </trkpt>
      <trkpt lat="45.14306" lon="6.11846">
        <ele>2643.2</ele>
        <time>2024-07-08T11:08:19Z</time>
      </trkpt>
      <trkpt lat="45.14305" lon="6.11845">
        <ele>2643.2</ele>
        <time>2024-07-08T11:08:20Z</time>
      </trkpt>
      <trkpt lat="45.14304" lon="6.11844">
        <ele>2643.3</ele>
        <time>2024-07-08T11:08:21Z</time>
      </trkpt>
      <trkpt lat="45.14303" lon="6.11844">
        <ele>2643.3</ele>
        <time>2024-07-08T11:08:22Z</time>
      </trkpt>
      <trkpt lat="45.14303" lon="6.11843">
        <ele>2643.3</ele>
        <time>2024-07-08T11:08:23Z</time>
      </trkpt>
      <trkpt lat="45.14302" lon="6.11843">
        <ele>2643.3</ele>
        <time>2024-07-08T11:08:24Z</time>
      </trkpt>
      <trkpt lat="45.14301" lon="6.11843">
        <ele>2643.3</ele>
        <time>2024-07-08T11:08:25Z</time>
      </trkpt>
      <trkpt lat="45.14301" lon="6.11844">
        <ele>2643.3</ele>
        <time>2024-07-08T11:08:26Z</time>
      </trkpt>
      <trkpt lat="45.143" lon="6.11845">
        <ele>2643.3</ele>
        <time>2024-07-08T11:08:27Z</time>
      </trkpt>
      <trkpt lat="45.143" lon="6.11846">
        <ele>2643.4</ele>
        <time>2024-07-08T11:08:28Z</time>
      </trkpt>
      <trkpt lat="45.14299" lon="6.11845">
        <ele>2643.4</ele>
        <time>2024-07-08T11:08:29Z</time>
      </trkpt>
      <trkpt lat="45.14298" lon="6.11844">
        <ele>2643.4</ele>
        <time>2024-07-08T11:08:30Z</time>
      </trkpt>
      <trkpt lat="45.14298" lon="6.11843">
        <ele>2643.4</ele>
        <time>2024-07-08T11:08:31Z</time>
      </trkpt>
      <trkpt lat="45.14298" lon="6.11842">
        <ele>2643.4</ele>
        <time>2024-07-08T11:08:32Z</time>
      </trkpt>
      <trkpt lat="45.14298" lon="6.11842">
        <ele>2643.4</ele>
        <time>2024-07-08T11:08:33Z</time>
      </trkpt>
      <trkpt lat="45.14298" lon="6.11842">
        <ele>2643.4</ele>
        <time>2024-07-08T11:08:34Z</time>
      </trkpt>
      <trkpt lat="45.14297" lon="6.11842">
        <ele>2643.4</ele>
        <time>2024-07-08T11:08:35Z</time>
      </trkpt>
      <trkpt lat="45.14297" lon="6.11843">
        <ele>2643.4</ele>
        <time>2024-07-08T11:08:36Z</time>
      </trkpt>
      <trkpt lat="45.14297" lon="6.11843">
        <ele>2643.4</ele>
        <time>2024-07-08T11:08:37Z</time>
      </trkpt>
      <trkpt lat="45.14297" lon="6.11843">
        <ele>2643.4</ele>
        <time>2024-07-08T11:08:38Z</time>
      </trkpt>
      <trkpt lat="45.14297" lon="6.11843">
        <ele>2643.4</ele>
        <time>2024-07-08T11:08:39Z</time>
      </trkpt>
      <trkpt lat="45.14297" lon="6.11844">
        <ele>2643.4</ele>
        <time>2024-07-08T11:08:40Z</time>
      </trkpt>
      <trkpt lat="45.14297" lon="6.11844">
        <ele>2643.4</ele>
        <time>2024-07-08T11:08:41Z</time>
      </trkpt>
      <trkpt lat="45.14297" lon="6.11844">
        <ele>2643.4</ele>
        <time>2024-07-08T11:08:42Z</time>
      </trkpt>
      <trkpt lat="45.14297" lon="6.11844">
        <ele>2643.4</ele>
        <time>2024-07-08T11:08:43Z</time>
      </trkpt>
      <trkpt lat="45.14297" lon="6.11844">
        <ele>2643.4</ele>
        <time>2024-07-08T11:08:44Z</time>
      </trkpt>
      <trkpt lat="45.14297" lon="6.11844">
        <ele>2643.4</ele>
        <time>2024-07-08T11:08:45Z</time>
      </trkpt>
      <trkpt lat="45.14297" lon="6.11844">
        <ele>2643.4</ele>
        <time>2024-07-08T11:08:46Z</time>
      </trkpt>
      <trkpt lat="45.14297" lon="6.11845">
        <ele>2643.4</ele>
        <time>2024-07-08T11:08:47Z</time>
      </trkpt>
      <trkpt lat="45.14297" lon="6.11845">
        <ele>2643.4</ele>
        <time>2024-07-08T11:08:48Z</time>
      </trkpt>
      <trkpt lat="45.14297" lon="6.11845">
        <ele>2643.4</ele>
        <time>2024-07-08T11:08:49Z</time>
      </trkpt>
      <trkpt lat="45.14297" lon="6.11845">
        <ele>2643.4</ele>
        <time>2024-07-08T11:08:50Z</time>
      </trkpt>
      <trkpt lat="45.14297" lon="6.11845">
        <ele>2643.4</ele>
        <time>2024-07-08T11:08:51Z</time>
      </trkpt>
      <trkpt lat="45.14297" lon="6.11845">
        <ele>2643.4</ele>
        <time>2024-07-08T11:08:52Z</time>
      </trkpt>
      <trkpt lat="45.14297" lon="6.11844">
        <ele>2643.4</ele>
        <time>2024-07-08T11:08:53Z</time>
      </trkpt>
      <trkpt lat="45.14297" lon="6.11845">
        <ele>2643.4</ele>
        <time>2024-07-08T11:08:54Z</time>
      </trkpt>
      <trkpt lat="45.14297" lon="6.11845">
        <ele>2643.4</ele>
        <time>2024-07-08T11:08:55Z</time>
      </trkpt>
      <trkpt lat="45.14297" lon="6.11845">
        <ele>2643.4</ele>
        <time>2024-07-08T11:08:56Z</time>
      </trkpt>
      <trkpt lat="45.14297" lon="6.11845">
        <ele>2643.4</ele>
        <time>2024-07-08T11:08:57Z</time>
      </trkpt>
      <trkpt lat="45.14296" lon="6.11845">
        <ele>2643.4</ele>
        <time>2024-07-08T11:08:58Z</time>
      </trkpt>
      <trkpt lat="45.14296" lon="6.11845">
        <ele>2643.4</ele>
        <time>2024-07-08T11:08:59Z</time>
      </trkpt>
      <trkpt lat="45.14296" lon="6.11844">
        <ele>2643.4</ele>
        <time>2024-07-08T11:09:00Z</time>
      </trkpt>
      <trkpt lat="45.14296" lon="6.11844">
        <ele>2643.4</ele>
        <time>2024-07-08T11:09:01Z</time>
      </trkpt>
      <trkpt lat="45.14296" lon="6.11844">
        <ele>2643.4</ele>
        <time>2024-07-08T11:09:02Z</time>
      </trkpt>
      <trkpt lat="45.14296" lon="6.11844">
        <ele>2643.4</ele>
        <time>2024-07-08T11:09:03Z</time>
      </trkpt>
      <trkpt lat="45.14296" lon="6.11844">
        <ele>2643.4</ele>
        <time>2024-07-08T11:09:04Z</time>
      </trkpt>
      <trkpt lat="45.14296" lon="6.11844">
        <ele>2643.4</ele>
        <time>2024-07-08T11:09:05Z</time>
      </trkpt>
      <trkpt lat="45.14296" lon="6.11844">
        <ele>2643.4</ele>
        <time>2024-07-08T11:09:06Z</time>
      </trkpt>
      <trkpt lat="45.14296" lon="6.11844">
        <ele>2643.4</ele>
        <time>2024-07-08T11:09:07Z</time>
      </trkpt>
      <trkpt lat="45.14296" lon="6.11844">
        <ele>2643.4</ele>
        <time>2024-07-08T11:09:08Z</time>
      </trkpt>
      <trkpt lat="45.14296" lon="6.11844">
        <ele>2643.4</ele>
        <time>2024-07-08T11:09:09Z</time>
      </trkpt>
      <trkpt lat="45.14296" lon="6.11844">
        <ele>2643.4</ele>
        <time>2024-07-08T11:09:10Z</time>
      </trkpt>
      <trkpt lat="45.14296" lon="6.11844">
        <ele>2643.4</ele>
        <time>2024-07-08T11:09:11Z</time>
      </trkpt>
      <trkpt lat="45.14296" lon="6.11844">
        <ele>2643.4</ele>
        <time>2024-07-08T11:09:12Z</time>
      </trkpt>
      <trkpt lat="45.14296" lon="6.11844">
        <ele>2643.4</ele>
        <time>2024-07-08T11:09:13Z</time>
      </trkpt>
      <trkpt lat="45.14296" lon="6.11844">
        <ele>2643.4</ele>
        <time>2024-07-08T11:09:14Z</time>
      </trkpt>
      <trkpt lat="45.14296" lon="6.11844">
        <ele>2643.4</ele>
        <time>2024-07-08T11:09:15Z</time>
      </trkpt>
      <trkpt lat="45.14296" lon="6.11844">
        <ele>2643.4</ele>
        <time>2024-07-08T11:09:16Z</time>
      </trkpt>
      <trkpt lat="45.14296" lon="6.11844">
        <ele>2643.4</ele>
        <time>2024-07-08T11:09:17Z</time>
      </trkpt>
      <trkpt lat="45.14296" lon="6.11844">
        <ele>2643.4</ele>
        <time>2024-07-08T11:09:18Z</time>
      </trkpt>
      <trkpt lat="45.14296" lon="6.11844">
        <ele>2643.4</ele>
        <time>2024-07-08T11:09:19Z</time>
      </trkpt>
      <trkpt lat="45.14296" lon="6.11844">
        <ele>2643.4</ele>
        <time>2024-07-08T11:09:20Z</time>
      </trkpt>
      <trkpt lat="45.14296" lon="6.11844">
        <ele>2643.4</ele>
        <time>2024-07-08T11:09:21Z</time>
      </trkpt>
      <trkpt lat="45.14296" lon="6.11844">
        <ele>2643.4</ele>
        <time>2024-07-08T11:09:22Z</time>
      </trkpt>
      <trkpt lat="45.14296" lon="6.11844">
        <ele>2643.4</ele>
        <time>2024-07-08T11:09:23Z</time>
      </trkpt>
      <trkpt lat="45.14296" lon="6.11844">
        <ele>2643.4</ele>
        <time>2024-07-08T11:09:24Z</time>
      </trkpt>
      <trkpt lat="45.14296" lon="6.11844">
        <ele>2643.4</ele>
        <time>2024-07-08T11:09:25Z</time>
      </trkpt>
      <trkpt lat="45.14296" lon="6.11844">
        <ele>2643.4</ele>
        <time>2024-07-08T11:09:26Z</time>
      </trkpt>
      <trkpt lat="45.14296" lon="6.11844">
        <ele>2643.4</ele>
        <time>2024-07-08T11:09:27Z</time>
      </trkpt>
      <trkpt lat="45.14296" lon="6.11844">
        <ele>2643.4</ele>
        <time>2024-07-08T11:09:28Z</time>
      </trkpt>
      <trkpt lat="45.14296" lon="6.11844">
        <ele>2643.4</ele>
        <time>2024-07-08T11:09:29Z</time>
      </trkpt>
      <trkpt lat="45.14296" lon="6.11844">
        <ele>2643.3</ele>
        <time>2024-07-08T11:09:30Z</time>
      </trkpt>
      <trkpt lat="45.14296" lon="6.11845">
        <ele>2643.3</ele>
        <time>2024-07-08T11:09:31Z</time>
      </trkpt>
      <trkpt lat="45.14296" lon="6.11845">
        <ele>2643.3</ele>
        <time>2024-07-08T11:09:32Z</time>
      </trkpt>
      <trkpt lat="45.14297" lon="6.11845">
        <ele>2643.3</ele>
        <time>2024-07-08T11:09:33Z</time>
      </trkpt>
      <trkpt lat="45.14297" lon="6.11845">
        <ele>2643.3</ele>
        <time>2024-07-08T11:09:34Z</time>
      </trkpt>
      <trkpt lat="45.14297" lon="6.11845">
        <ele>2643.3</ele>
        <time>2024-07-08T11:09:35Z</time>
      </trkpt>
      <trkpt lat="45.14297" lon="6.11845">
        <ele>2643.3</ele>
        <time>2024-07-08T11:09:36Z</time>
      </trkpt>
      <trkpt lat="45.14297" lon="6.11845">
        <ele>2643.3</ele>
        <time>2024-07-08T11:09:37Z</time>
      </trkpt>
      <trkpt lat="45.14296" lon="6.11844">
        <ele>2643.3</ele>
        <time>2024-07-08T11:09:38Z</time>
      </trkpt>
      <trkpt lat="45.14296" lon="6.11843">
        <ele>2643.3</ele>
        <time>2024-07-08T11:09:39Z</time>
      </trkpt>
      <trkpt lat="45.14295" lon="6.11843">
        <ele>2643.3</ele>
        <time>2024-07-08T11:09:40Z</time>
      </trkpt>
      <trkpt lat="45.14294" lon="6.11843">
        <ele>2643.3</ele>
        <time>2024-07-08T11:09:41Z</time>
      </trkpt>
      <trkpt lat="45.14293" lon="6.11844">
        <ele>2643.3</ele>
        <time>2024-07-08T11:09:42Z</time>
      </trkpt>
      <trkpt lat="45.14293" lon="6.11843">
        <ele>2643.2</ele>
        <time>2024-07-08T11:09:43Z</time>
      </trkpt>
      <trkpt lat="45.14293" lon="6.11842">
        <ele>2643.2</ele>
        <time>2024-07-08T11:09:44Z</time>
      </trkpt>
      <trkpt lat="45.14293" lon="6.11841">
        <ele>2643.2</ele>
        <time>2024-07-08T11:09:45Z</time>
      </trkpt>
      <trkpt lat="45.14294" lon="6.1184">
        <ele>2643.2</ele>
        <time>2024-07-08T11:09:46Z</time>
      </trkpt>
      <trkpt lat="45.14294" lon="6.1184">
        <ele>2643.2</ele>
        <time>2024-07-08T11:09:47Z</time>
      </trkpt>
      <trkpt lat="45.14294" lon="6.1184">
        <ele>2643.2</ele>
        <time>2024-07-08T11:09:48Z</time>
      </trkpt>
      <trkpt lat="45.14294" lon="6.1184">
        <ele>2643.2</ele>
        <time>2024-07-08T11:09:49Z</time>
      </trkpt>
      <trkpt lat="45.14294" lon="6.1184">
        <ele>2643.2</ele>
        <time>2024-07-08T11:09:50Z</time>
      </trkpt>
      <trkpt lat="45.14294" lon="6.1184">
        <ele>2643.2</ele>
        <time>2024-07-08T11:09:51Z</time>
      </trkpt>
      <trkpt lat="45.14295" lon="6.1184">
        <ele>2643.2</ele>
        <time>2024-07-08T11:09:52Z</time>
      </trkpt>
      <trkpt lat="45.14295" lon="6.11841">
        <ele>2643.2</ele>
        <time>2024-07-08T11:09:53Z</time>
      </trkpt>
      <trkpt lat="45.14295" lon="6.11842">
        <ele>2643.1</ele>
        <time>2024-07-08T11:09:54Z</time>
      </trkpt>
      <trkpt lat="45.14294" lon="6.11842">
        <ele>2643.1</ele>
        <time>2024-07-08T11:09:55Z</time>
      </trkpt>
      <trkpt lat="45.14294" lon="6.11843">
        <ele>2643.1</ele>
        <time>2024-07-08T11:09:56Z</time>
      </trkpt>
      <trkpt lat="45.14294" lon="6.11843">
        <ele>2643.1</ele>
        <time>2024-07-08T11:09:57Z</time>
      </trkpt>
      <trkpt lat="45.14294" lon="6.11843">
        <ele>2643.1</ele>
        <time>2024-07-08T11:09:58Z</time>
      </trkpt>
      <trkpt lat="45.14294" lon="6.11843">
        <ele>2643.1</ele>
        <time>2024-07-08T11:09:59Z</time>
      </trkpt>
      <trkpt lat="45.14294" lon="6.11843">
        <ele>2643.1</ele>
        <time>2024-07-08T11:10:00Z</time>
      </trkpt>
      <trkpt lat="45.14294" lon="6.11843">
        <ele>2643.1</ele>
        <time>2024-07-08T11:10:01Z</time>
      </trkpt>
      <trkpt lat="45.14294" lon="6.11843">
        <ele>2643.1</ele>
        <time>2024-07-08T11:10:02Z</time>
      </trkpt>
      <trkpt lat="45.14294" lon="6.11843">
        <ele>2643.1</ele>
        <time>2024-07-08T11:10:03Z</time>
      </trkpt>
      <trkpt lat="45.14294" lon="6.11843">
        <ele>2643.1</ele>
        <time>2024-07-08T11:10:04Z</time>
      </trkpt>
      <trkpt lat="45.14294" lon="6.11843">
        <ele>2643.1</ele>
        <time>2024-07-08T11:10:05Z</time>
      </trkpt>
      <trkpt lat="45.14294" lon="6.11843">
        <ele>2643.1</ele>
        <time>2024-07-08T11:10:06Z</time>
      </trkpt>
      <trkpt lat="45.14294" lon="6.11843">
        <ele>2643.1</ele>
        <time>2024-07-08T11:10:07Z</time>
      </trkpt>
      <trkpt lat="45.14294" lon="6.11843">
        <ele>2643.1</ele>
        <time>2024-07-08T11:10:08Z</time>
      </trkpt>
      <trkpt lat="45.14294" lon="6.11843">
        <ele>2643.1</ele>
        <time>2024-07-08T11:10:09Z</time>
      </trkpt>
      <trkpt lat="45.14294" lon="6.11843">
        <ele>2643.1</ele>
        <time>2024-07-08T11:10:10Z</time>
      </trkpt>
      <trkpt lat="45.14294" lon="6.11844">
        <ele>2643.1</ele>
        <time>2024-07-08T11:10:11Z</time>
      </trkpt>
      <trkpt lat="45.14294" lon="6.11844">
        <ele>2643.1</ele>
        <time>2024-07-08T11:10:12Z</time>
      </trkpt>
      <trkpt lat="45.14294" lon="6.11845">
        <ele>2643</ele>
        <time>2024-07-08T11:10:13Z</time>
      </trkpt>
      <trkpt lat="45.14294" lon="6.11846">
        <ele>2643</ele>
        <time>2024-07-08T11:10:14Z</time>
      </trkpt>
      <trkpt lat="45.14294" lon="6.11846">
        <ele>2643</ele>
        <time>2024-07-08T11:10:15Z</time>
      </trkpt>
      <trkpt lat="45.14295" lon="6.11847">
        <ele>2643</ele>
        <time>2024-07-08T11:10:16Z</time>
      </trkpt>
      <trkpt lat="45.14295" lon="6.11847">
        <ele>2643</ele>
        <time>2024-07-08T11:10:17Z</time>
      </trkpt>
      <trkpt lat="45.14296" lon="6.11846">
        <ele>2642.9</ele>
        <time>2024-07-08T11:10:18Z</time>
      </trkpt>
      <trkpt lat="45.14296" lon="6.11846">
        <ele>2642.9</ele>
        <time>2024-07-08T11:10:19Z</time>
      </trkpt>
      <trkpt lat="45.14296" lon="6.11846">
        <ele>2642.9</ele>
        <time>2024-07-08T11:10:20Z</time>
      </trkpt>
      <trkpt lat="45.14296" lon="6.11847">
        <ele>2642.9</ele>
        <time>2024-07-08T11:10:21Z</time>
      </trkpt>
      <trkpt lat="45.14296" lon="6.11847">
        <ele>2642.9</ele>
        <time>2024-07-08T11:10:22Z</time>
      </trkpt>
      <trkpt lat="45.14296" lon="6.11847">
        <ele>2642.9</ele>
        <time>2024-07-08T11:10:23Z</time>
      </trkpt>
      <trkpt lat="45.14296" lon="6.11847">
        <ele>2642.9</ele>
        <time>2024-07-08T11:10:24Z</time>
      </trkpt>
      <trkpt lat="45.14296" lon="6.11846">
        <ele>2642.9</ele>
        <time>2024-07-08T11:10:25Z</time>
      </trkpt>
      <trkpt lat="45.14296" lon="6.11846">
        <ele>2642.9</ele>
        <time>2024-07-08T11:10:26Z</time>
      </trkpt>
      <trkpt lat="45.14296" lon="6.11846">
        <ele>2642.9</ele>
        <time>2024-07-08T11:10:27Z</time>
      </trkpt>
      <trkpt lat="45.14295" lon="6.11846">
        <ele>2642.9</ele>
        <time>2024-07-08T11:10:28Z</time>
      </trkpt>
      <trkpt lat="45.14295" lon="6.11846">
        <ele>2642.9</ele>
        <time>2024-07-08T11:10:29Z</time>
      </trkpt>
      <trkpt lat="45.14295" lon="6.11846">
        <ele>2642.9</ele>
        <time>2024-07-08T11:10:30Z</time>
      </trkpt>
      <trkpt lat="45.14295" lon="6.11846">
        <ele>2642.9</ele>
        <time>2024-07-08T11:10:31Z</time>
      </trkpt>
      <trkpt lat="45.14295" lon="6.11846">
        <ele>2642.9</ele>
        <time>2024-07-08T11:10:32Z</time>
      </trkpt>
      <trkpt lat="45.14295" lon="6.11846">
        <ele>2642.9</ele>
        <time>2024-07-08T11:10:33Z</time>
      </trkpt>
      <trkpt lat="45.14295" lon="6.11846">
        <ele>2642.8</ele>
        <time>2024-07-08T11:10:34Z</time>
      </trkpt>
      <trkpt lat="45.14295" lon="6.11846">
        <ele>2642.8</ele>
        <time>2024-07-08T11:10:35Z</time>
      </trkpt>
      <trkpt lat="45.14294" lon="6.11845">
        <ele>2642.8</ele>
        <time>2024-07-08T11:10:36Z</time>
      </trkpt>
      <trkpt lat="45.14294" lon="6.11844">
        <ele>2642.8</ele>
        <time>2024-07-08T11:10:37Z</time>
      </trkpt>
      <trkpt lat="45.14294" lon="6.11843">
        <ele>2642.8</ele>
        <time>2024-07-08T11:10:38Z</time>
      </trkpt>
      <trkpt lat="45.14294" lon="6.11843">
        <ele>2642.7</ele>
        <time>2024-07-08T11:10:39Z</time>
      </trkpt>
      <trkpt lat="45.14294" lon="6.11843">
        <ele>2642.7</ele>
        <time>2024-07-08T11:10:40Z</time>
      </trkpt>
      <trkpt lat="45.14294" lon="6.11842">
        <ele>2642.7</ele>
        <time>2024-07-08T11:10:41Z</time>
      </trkpt>
      <trkpt lat="45.14294" lon="6.11842">
        <ele>2642.7</ele>
        <time>2024-07-08T11:10:42Z</time>
      </trkpt>
      <trkpt lat="45.14294" lon="6.11842">
        <ele>2642.7</ele>
        <time>2024-07-08T11:10:43Z</time>
      </trkpt>
      <trkpt lat="45.14294" lon="6.11842">
        <ele>2642.7</ele>
        <time>2024-07-08T11:10:44Z</time>
      </trkpt>
      <trkpt lat="45.14294" lon="6.11842">
        <ele>2642.7</ele>
        <time>2024-07-08T11:10:45Z</time>
      </trkpt>
      <trkpt lat="45.14293" lon="6.11842">
        <ele>2642.7</ele>
        <time>2024-07-08T11:10:46Z</time>
      </trkpt>
      <trkpt lat="45.14293" lon="6.11842">
        <ele>2642.7</ele>
        <time>2024-07-08T11:10:47Z</time>
      </trkpt>
      <trkpt lat="45.14293" lon="6.11842">
        <ele>2642.7</ele>
        <time>2024-07-08T11:10:48Z</time>
      </trkpt>
      <trkpt lat="45.14293" lon="6.11842">
        <ele>2642.7</ele>
        <time>2024-07-08T11:10:49Z</time>
      </trkpt>
      <trkpt lat="45.14293" lon="6.11842">
        <ele>2642.7</ele>
        <time>2024-07-08T11:10:50Z</time>
      </trkpt>
      <trkpt lat="45.14293" lon="6.11842">
        <ele>2642.7</ele>
        <time>2024-07-08T11:10:51Z</time>
      </trkpt>
      <trkpt lat="45.14293" lon="6.11842">
        <ele>2642.7</ele>
        <time>2024-07-08T11:10:52Z</time>
      </trkpt>
      <trkpt lat="45.14293" lon="6.11842">
        <ele>2642.7</ele>
        <time>2024-07-08T11:10:53Z</time>
      </trkpt>
      <trkpt lat="45.14293" lon="6.11842">
        <ele>2642.7</ele>
        <time>2024-07-08T11:10:54Z</time>
      </trkpt>
      <trkpt lat="45.14293" lon="6.11842">
        <ele>2642.7</ele>
        <time>2024-07-08T11:10:55Z</time>
      </trkpt>
      <trkpt lat="45.14293" lon="6.11842">
        <ele>2642.7</ele>
        <time>2024-07-08T11:10:56Z</time>
      </trkpt>
      <trkpt lat="45.14293" lon="6.11841">
        <ele>2642.7</ele>
        <time>2024-07-08T11:10:57Z</time>
      </trkpt>
      <trkpt lat="45.14292" lon="6.11841">
        <ele>2642.6</ele>
        <time>2024-07-08T11:10:58Z</time>
      </trkpt>
      <trkpt lat="45.14292" lon="6.1184">
        <ele>2642.6</ele>
        <time>2024-07-08T11:10:59Z</time>
      </trkpt>
      <trkpt lat="45.14291" lon="6.1184">
        <ele>2642.6</ele>
        <time>2024-07-08T11:11:00Z</time>
      </trkpt>
      <trkpt lat="45.14291" lon="6.11839">
        <ele>2642.6</ele>
        <time>2024-07-08T11:11:01Z</time>
      </trkpt>
      <trkpt lat="45.14291" lon="6.11839">
        <ele>2642.5</ele>
        <time>2024-07-08T11:11:02Z</time>
      </trkpt>
      <trkpt lat="45.14291" lon="6.11839">
        <ele>2642.5</ele>
        <time>2024-07-08T11:11:03Z</time>
      </trkpt>
      <trkpt lat="45.14291" lon="6.11839">
        <ele>2642.5</ele>
        <time>2024-07-08T11:11:04Z</time>
      </trkpt>
      <trkpt lat="45.14291" lon="6.11839">
        <ele>2642.5</ele>
        <time>2024-07-08T11:11:05Z</time>
      </trkpt>
      <trkpt lat="45.14291" lon="6.11839">
        <ele>2642.5</ele>
        <time>2024-07-08T11:11:06Z</time>
      </trkpt>
      <trkpt lat="45.14291" lon="6.11839">
        <ele>2642.5</ele>
        <time>2024-07-08T11:11:07Z</time>
      </trkpt>
      <trkpt lat="45.14291" lon="6.11839">
        <ele>2642.5</ele>
        <time>2024-07-08T11:11:08Z</time>
      </trkpt>
      <trkpt lat="45.14291" lon="6.11839">
        <ele>2642.5</ele>
        <time>2024-07-08T11:11:09Z</time>
      </trkpt>
      <trkpt lat="45.14291" lon="6.11839">
        <ele>2642.5</ele>
        <time>2024-07-08T11:11:10Z</time>
      </trkpt>
      <trkpt lat="45.14291" lon="6.11839">
        <ele>2642.5</ele>
        <time>2024-07-08T11:11:11Z</time>
      </trkpt>
      <trkpt lat="45.14291" lon="6.11839">
        <ele>2642.5</ele>
        <time>2024-07-08T11:11:12Z</time>
      </trkpt>
      <trkpt lat="45.14291" lon="6.11839">
        <ele>2642.5</ele>
        <time>2024-07-08T11:11:13Z</time>
      </trkpt>
      <trkpt lat="45.14291" lon="6.11839">
        <ele>2642.5</ele>
        <time>2024-07-08T11:11:14Z</time>
      </trkpt>
      <trkpt lat="45.14291" lon="6.11839">
        <ele>2642.5</ele>
        <time>2024-07-08T11:11:15Z</time>
      </trkpt>
      <trkpt lat="45.14291" lon="6.11839">
        <ele>2642.5</ele>
        <time>2024-07-08T11:11:16Z</time>
      </trkpt>
      <trkpt lat="45.14291" lon="6.11839">
        <ele>2642.5</ele>
        <time>2024-07-08T11:11:17Z</time>
      </trkpt>
      <trkpt lat="45.14291" lon="6.1184">
        <ele>2642.5</ele>
        <time>2024-07-08T11:11:18Z</time>
      </trkpt>
      <trkpt lat="45.14291" lon="6.1184">
        <ele>2642.5</ele>
        <time>2024-07-08T11:11:19Z</time>
      </trkpt>
      <trkpt lat="45.1429" lon="6.1184">
        <ele>2642.5</ele>
        <time>2024-07-08T11:11:20Z</time>
      </trkpt>
      <trkpt lat="45.14291" lon="6.1184">
        <ele>2642.4</ele>
        <time>2024-07-08T11:11:21Z</time>
      </trkpt>
      <trkpt lat="45.14291" lon="6.1184">
        <ele>2642.4</ele>
        <time>2024-07-08T11:11:22Z</time>
      </trkpt>
      <trkpt lat="45.14291" lon="6.11841">
        <ele>2642.4</ele>
        <time>2024-07-08T11:11:23Z</time>
      </trkpt>
      <trkpt lat="45.14291" lon="6.11841">
        <ele>2642.4</ele>
        <time>2024-07-08T11:11:24Z</time>
      </trkpt>
      <trkpt lat="45.14291" lon="6.11841">
        <ele>2642.4</ele>
        <time>2024-07-08T11:11:25Z</time>
      </trkpt>
      <trkpt lat="45.14291" lon="6.11841">
        <ele>2642.4</ele>
        <time>2024-07-08T11:11:26Z</time>
      </trkpt>
      <trkpt lat="45.14291" lon="6.11842">
        <ele>2642.4</ele>
        <time>2024-07-08T11:11:27Z</time>
      </trkpt>
      <trkpt lat="45.14291" lon="6.11842">
        <ele>2642.4</ele>
        <time>2024-07-08T11:11:28Z</time>
      </trkpt>
      <trkpt lat="45.14291" lon="6.11842">
        <ele>2642.4</ele>
        <time>2024-07-08T11:11:29Z</time>
      </trkpt>
      <trkpt lat="45.14291" lon="6.11843">
        <ele>2642.4</ele>
        <time>2024-07-08T11:11:30Z</time>
      </trkpt>
      <trkpt lat="45.14291" lon="6.11843">
        <ele>2642.4</ele>
        <time>2024-07-08T11:11:31Z</time>
      </trkpt>
      <trkpt lat="45.14291" lon="6.11843">
        <ele>2642.4</ele>
        <time>2024-07-08T11:11:32Z</time>
      </trkpt>
      <trkpt lat="45.14291" lon="6.11844">
        <ele>2642.3</ele>
        <time>2024-07-08T11:11:33Z</time>
      </trkpt>
      <trkpt lat="45.14291" lon="6.11844">
        <ele>2642.3</ele>
        <time>2024-07-08T11:11:34Z</time>
      </trkpt>
      <trkpt lat="45.14291" lon="6.11844">
        <ele>2642.3</ele>
        <time>2024-07-08T11:11:35Z</time>
      </trkpt>
      <trkpt lat="45.14291" lon="6.11845">
        <ele>2642.3</ele>
        <time>2024-07-08T11:11:36Z</time>
      </trkpt>
      <trkpt lat="45.14291" lon="6.11846">
        <ele>2642.3</ele>
        <time>2024-07-08T11:11:37Z</time>
      </trkpt>
      <trkpt lat="45.14291" lon="6.11846">
        <ele>2642.3</ele>
        <time>2024-07-08T11:11:38Z</time>
      </trkpt>
      <trkpt lat="45.14291" lon="6.11846">
        <ele>2642.3</ele>
        <time>2024-07-08T11:11:39Z</time>
      </trkpt>
      <trkpt lat="45.14291" lon="6.11846">
        <ele>2642.3</ele>
        <time>2024-07-08T11:11:40Z</time>
      </trkpt>
      <trkpt lat="45.14291" lon="6.11846">
        <ele>2642.3</ele>
        <time>2024-07-08T11:11:41Z</time>
      </trkpt>
      <trkpt lat="45.14291" lon="6.11846">
        <ele>2642.3</ele>
        <time>2024-07-08T11:11:42Z</time>
      </trkpt>
      <trkpt lat="45.14291" lon="6.11846">
        <ele>2642.3</ele>
        <time>2024-07-08T11:11:43Z</time>
      </trkpt>
      <trkpt lat="45.14291" lon="6.11846">
        <ele>2642.3</ele>
        <time>2024-07-08T11:11:44Z</time>
      </trkpt>
      <trkpt lat="45.14291" lon="6.11846">
        <ele>2642.3</ele>
        <time>2024-07-08T11:11:45Z</time>
      </trkpt>
      <trkpt lat="45.14291" lon="6.11846">
        <ele>2642.3</ele>
        <time>2024-07-08T11:11:46Z</time>
      </trkpt>
      <trkpt lat="45.14291" lon="6.11846">
        <ele>2642.2</ele>
        <time>2024-07-08T11:11:48Z</time>
      </trkpt>
      <trkpt lat="45.14293" lon="6.11854">
        <ele>2642</ele>
        <time>2024-07-08T11:47:07Z</time>
      </trkpt>
      <trkpt lat="45.14293" lon="6.11854">
        <ele>2642</ele>
        <time>2024-07-08T11:47:08Z</time>
      </trkpt>
      <trkpt lat="45.14292" lon="6.11853">
        <ele>2642</ele>
        <time>2024-07-08T11:47:09Z</time>
      </trkpt>
      <trkpt lat="45.14292" lon="6.11853">
        <ele>2642</ele>
        <time>2024-07-08T11:47:10Z</time>
      </trkpt>
      <trkpt lat="45.14293" lon="6.11852">
        <ele>2642</ele>
        <time>2024-07-08T11:47:11Z</time>
      </trkpt>
      <trkpt lat="45.14293" lon="6.11851">
        <ele>2642</ele>
        <time>2024-07-08T11:47:12Z</time>
      </trkpt>
      <trkpt lat="45.14293" lon="6.11851">
        <ele>2642</ele>
        <time>2024-07-08T11:47:13Z</time>
      </trkpt>
      <trkpt lat="45.14293" lon="6.1185">
        <ele>2642</ele>
        <time>2024-07-08T11:47:14Z</time>
      </trkpt>
      <trkpt lat="45.14293" lon="6.1185">
        <ele>2642</ele>
        <time>2024-07-08T11:47:15Z</time>
      </trkpt>
      <trkpt lat="45.14293" lon="6.11849">
        <ele>2642</ele>
        <time>2024-07-08T11:47:16Z</time>
      </trkpt>
      <trkpt lat="45.14293" lon="6.11849">
        <ele>2642</ele>
        <time>2024-07-08T11:47:17Z</time>
      </trkpt>
      <trkpt lat="45.14293" lon="6.11849">
        <ele>2642</ele>
        <time>2024-07-08T11:47:18Z</time>
      </trkpt>
      <trkpt lat="45.14293" lon="6.11848">
        <ele>2642</ele>
        <time>2024-07-08T11:47:19Z</time>
      </trkpt>
      <trkpt lat="45.14293" lon="6.11849">
        <ele>2642</ele>
        <time>2024-07-08T11:47:20Z</time>
      </trkpt>
      <trkpt lat="45.14293" lon="6.11848">
        <ele>2642</ele>
        <time>2024-07-08T11:47:21Z</time>
      </trkpt>
      <trkpt lat="45.14293" lon="6.11848">
        <ele>2642</ele>
        <time>2024-07-08T11:47:22Z</time>
      </trkpt>
      <trkpt lat="45.14293" lon="6.11848">
        <ele>2642</ele>
        <time>2024-07-08T11:47:23Z</time>
      </trkpt>
      <trkpt lat="45.14293" lon="6.11848">
        <ele>2642</ele>
        <time>2024-07-08T11:47:24Z</time>
      </trkpt>
      <trkpt lat="45.14293" lon="6.11848">
        <ele>2642</ele>
        <time>2024-07-08T11:47:25Z</time>
      </trkpt>
      <trkpt lat="45.14293" lon="6.11847">
        <ele>2642</ele>
        <time>2024-07-08T11:47:26Z</time>
      </trkpt>
      <trkpt lat="45.14293" lon="6.11847">
        <ele>2641.9</ele>
        <time>2024-07-08T11:47:27Z</time>
      </trkpt>
      <trkpt lat="45.14293" lon="6.11847">
        <ele>2641.9</ele>
        <time>2024-07-08T11:47:28Z</time>
      </trkpt>
      <trkpt lat="45.14293" lon="6.11847">
        <ele>2641.9</ele>
        <time>2024-07-08T11:47:29Z</time>
      </trkpt>
      <trkpt lat="45.14293" lon="6.11847">
        <ele>2641.9</ele>
        <time>2024-07-08T11:47:30Z</time>
      </trkpt>
      <trkpt lat="45.14293" lon="6.11847">
        <ele>2641.9</ele>
        <time>2024-07-08T11:47:31Z</time>
      </trkpt>
      <trkpt lat="45.14293" lon="6.11847">
        <ele>2641.9</ele>
        <time>2024-07-08T11:47:32Z</time>
      </trkpt>
      <trkpt lat="45.14293" lon="6.11847">
        <ele>2641.9</ele>
        <time>2024-07-08T11:47:33Z</time>
      </trkpt>
      <trkpt lat="45.14293" lon="6.11849">
        <ele>2641.9</ele>
        <time>2024-07-08T11:47:34Z</time>
      </trkpt>
      <trkpt lat="45.14293" lon="6.11851">
        <ele>2641.9</ele>
        <time>2024-07-08T11:47:35Z</time>
      </trkpt>
      <trkpt lat="45.14293" lon="6.11852">
        <ele>2641.9</ele>
        <time>2024-07-08T11:47:36Z</time>
      </trkpt>
      <trkpt lat="45.14292" lon="6.11853">
        <ele>2641.9</ele>
        <time>2024-07-08T11:47:37Z</time>
      </trkpt>
      <trkpt lat="45.14291" lon="6.11855">
        <ele>2641.9</ele>
        <time>2024-07-08T11:47:38Z</time>
      </trkpt>
      <trkpt lat="45.1429" lon="6.11854">
        <ele>2641.9</ele>
        <time>2024-07-08T11:47:39Z</time>
      </trkpt>
      <trkpt lat="45.14289" lon="6.11855">
        <ele>2641.9</ele>
        <time>2024-07-08T11:47:40Z</time>
      </trkpt>
      <trkpt lat="45.14287" lon="6.11855">
        <ele>2641.9</ele>
        <time>2024-07-08T11:47:41Z</time>
      </trkpt>
      <trkpt lat="45.14285" lon="6.11853">
        <ele>2641.9</ele>
        <time>2024-07-08T11:47:42Z</time>
      </trkpt>
      <trkpt lat="45.14283" lon="6.11851">
        <ele>2641.8</ele>
        <time>2024-07-08T11:47:43Z</time>
      </trkpt>
      <trkpt lat="45.14282" lon="6.1185">
        <ele>2641.8</ele>
        <time>2024-07-08T11:47:44Z</time>
      </trkpt>
      <trkpt lat="45.1428" lon="6.11848">
        <ele>2641.8</ele>
        <time>2024-07-08T11:47:45Z</time>
      </trkpt>
      <trkpt lat="45.14279" lon="6.11847">
        <ele>2641.8</ele>
        <time>2024-07-08T11:47:46Z</time>
      </trkpt>
      <trkpt lat="45.14278" lon="6.11843">
        <ele>2641.8</ele>
        <time>2024-07-08T11:47:47Z</time>
      </trkpt>
      <trkpt lat="45.14278" lon="6.11842">
        <ele>2641.8</ele>
        <time>2024-07-08T11:47:48Z</time>
      </trkpt>
      <trkpt lat="45.14277" lon="6.1184">
        <ele>2641.8</ele>
        <time>2024-07-08T11:47:49Z</time>
      </trkpt>
      <trkpt lat="45.14277" lon="6.11838">
        <ele>2641.8</ele>
        <time>2024-07-08T11:47:50Z</time>
      </trkpt>
      <trkpt lat="45.14276" lon="6.11836">
        <ele>2641.8</ele>
        <time>2024-07-08T11:47:51Z</time>
      </trkpt>
      <trkpt lat="45.14275" lon="6.11835">
        <ele>2641.8</ele>
        <time>2024-07-08T11:47:52Z</time>
      </trkpt>
      <trkpt lat="45.14275" lon="6.11833">
        <ele>2641.8</ele>
        <time>2024-07-08T11:47:53Z</time>
      </trkpt>
      <trkpt lat="45.14275" lon="6.11832">
        <ele>2641.8</ele>
        <time>2024-07-08T11:47:54Z</time>
      </trkpt>
      <trkpt lat="45.14274" lon="6.1183">
        <ele>2641.8</ele>
        <time>2024-07-08T11:47:55Z</time>
      </trkpt>
      <trkpt lat="45.14274" lon="6.11828">
        <ele>2641.8</ele>
        <time>2024-07-08T11:47:56Z</time>
      </trkpt>
      <trkpt lat="45.14273" lon="6.11827">
        <ele>2641.8</ele>
        <time>2024-07-08T11:47:57Z</time>
      </trkpt>
      <trkpt lat="45.14273" lon="6.11827">
        <ele>2641.8</ele>
        <time>2024-07-08T11:47:58Z</time>
      </trkpt>
      <trkpt lat="45.14273" lon="6.11826">
        <ele>2641.8</ele>
        <time>2024-07-08T11:47:59Z</time>
      </trkpt>
      <trkpt lat="45.14272" lon="6.11824">
        <ele>2641.8</ele>
        <time>2024-07-08T11:48:00Z</time>
      </trkpt>
      <trkpt lat="45.14272" lon="6.11823">
        <ele>2641.8</ele>
        <time>2024-07-08T11:48:01Z</time>
      </trkpt>
      <trkpt lat="45.14271" lon="6.11822">
        <ele>2641.8</ele>
        <time>2024-07-08T11:48:02Z</time>
      </trkpt>
      <trkpt lat="45.14271" lon="6.1182">
        <ele>2641.8</ele>
        <time>2024-07-08T11:48:03Z</time>
      </trkpt>
      <trkpt lat="45.1427" lon="6.11819">
        <ele>2641.8</ele>
        <time>2024-07-08T11:48:04Z</time>
      </trkpt>
      <trkpt lat="45.14269" lon="6.11818">
        <ele>2641.8</ele>
        <time>2024-07-08T11:48:05Z</time>
      </trkpt>
      <trkpt lat="45.14269" lon="6.11817">
        <ele>2641.8</ele>
        <time>2024-07-08T11:48:06Z</time>
      </trkpt>
      <trkpt lat="45.14268" lon="6.11817">
        <ele>2641.8</ele>
        <time>2024-07-08T11:48:07Z</time>
      </trkpt>
      <trkpt lat="45.14267" lon="6.11815">
        <ele>2641.8</ele>
        <time>2024-07-08T11:48:08Z</time>
      </trkpt>
      <trkpt lat="45.14266" lon="6.11815">
        <ele>2641.8</ele>
        <time>2024-07-08T11:48:09Z</time>
      </trkpt>
      <trkpt lat="45.14265" lon="6.11814">
        <ele>2641.8</ele>
        <time>2024-07-08T11:48:10Z</time>
      </trkpt>
      <trkpt lat="45.14264" lon="6.11813">
        <ele>2641.8</ele>
        <time>2024-07-08T11:48:11Z</time>
      </trkpt>
      <trkpt lat="45.14262" lon="6.11811">
        <ele>2641.8</ele>
        <time>2024-07-08T11:48:12Z</time>
      </trkpt>
      <trkpt lat="45.14262" lon="6.11811">
        <ele>2641.8</ele>
        <time>2024-07-08T11:48:13Z</time>
      </trkpt>
      <trkpt lat="45.14261" lon="6.1181">
        <ele>2641.8</ele>
        <time>2024-07-08T11:48:14Z</time>
      </trkpt>
      <trkpt lat="45.1426" lon="6.11809">
        <ele>2641.8</ele>
        <time>2024-07-08T11:48:15Z</time>
      </trkpt>
      <trkpt lat="45.14259" lon="6.11808">
        <ele>2641.8</ele>
        <time>2024-07-08T11:48:16Z</time>
      </trkpt>
      <trkpt lat="45.14258" lon="6.11807">
        <ele>2641.8</ele>
        <time>2024-07-08T11:48:17Z</time>
      </trkpt>
      <trkpt lat="45.14257" lon="6.11806">
        <ele>2641.8</ele>
        <time>2024-07-08T11:48:18Z</time>
      </trkpt>
      <trkpt lat="45.14256" lon="6.11804">
        <ele>2641.8</ele>
        <time>2024-07-08T11:48:19Z</time>
      </trkpt>
      <trkpt lat="45.14255" lon="6.11802">
        <ele>2641.8</ele>
        <time>2024-07-08T11:48:20Z</time>
      </trkpt>
      <trkpt lat="45.14254" lon="6.11801">
        <ele>2641.8</ele>
        <time>2024-07-08T11:48:21Z</time>
      </trkpt>
      <trkpt lat="45.14253" lon="6.11801">
        <ele>2641.8</ele>
        <time>2024-07-08T11:48:22Z</time>
      </trkpt>
      <trkpt lat="45.14253" lon="6.11799">
        <ele>2641.8</ele>
        <time>2024-07-08T11:48:23Z</time>
      </trkpt>
      <trkpt lat="45.14253" lon="6.11798">
        <ele>2641.8</ele>
        <time>2024-07-08T11:48:24Z</time>
      </trkpt>
      <trkpt lat="45.14253" lon="6.11797">
        <ele>2641.8</ele>
        <time>2024-07-08T11:48:25Z</time>
      </trkpt>
      <trkpt lat="45.14252" lon="6.11796">
        <ele>2641.8</ele>
        <time>2024-07-08T11:48:26Z</time>
      </trkpt>
      <trkpt lat="45.14252" lon="6.11795">
        <ele>2641.8</ele>
        <time>2024-07-08T11:48:27Z</time>
      </trkpt>
      <trkpt lat="45.14252" lon="6.11793">
        <ele>2641.8</ele>
        <time>2024-07-08T11:48:28Z</time>
      </trkpt>
      <trkpt lat="45.14252" lon="6.11792">
        <ele>2641.8</ele>
        <time>2024-07-08T11:48:29Z</time>
      </trkpt>
      <trkpt lat="45.14251" lon="6.11791">
        <ele>2641.8</ele>
        <time>2024-07-08T11:48:30Z</time>
      </trkpt>
      <trkpt lat="45.14251" lon="6.1179">
        <ele>2641.8</ele>
        <time>2024-07-08T11:48:31Z</time>
      </trkpt>
      <trkpt lat="45.1425" lon="6.11789">
        <ele>2641.8</ele>
        <time>2024-07-08T11:48:32Z</time>
      </trkpt>
      <trkpt lat="45.14249" lon="6.11789">
        <ele>2641.8</ele>
        <time>2024-07-08T11:48:33Z</time>
      </trkpt>
      <trkpt lat="45.14247" lon="6.11788">
        <ele>2641.8</ele>
        <time>2024-07-08T11:48:34Z</time>
      </trkpt>
      <trkpt lat="45.14247" lon="6.11788">
        <ele>2641.9</ele>
        <time>2024-07-08T11:48:35Z</time>
      </trkpt>
      <trkpt lat="45.14246" lon="6.11787">
        <ele>2641.9</ele>
        <time>2024-07-08T11:48:36Z</time>
      </trkpt>
      <trkpt lat="45.14246" lon="6.11787">
        <ele>2641.9</ele>
        <time>2024-07-08T11:48:37Z</time>
      </trkpt>
      <trkpt lat="45.14245" lon="6.11787">
        <ele>2641.9</ele>
        <time>2024-07-08T11:48:38Z</time>
      </trkpt>
      <trkpt lat="45.14244" lon="6.11786">
        <ele>2641.9</ele>
        <time>2024-07-08T11:48:39Z</time>
      </trkpt>
      <trkpt lat="45.14243" lon="6.11785">
        <ele>2641.9</ele>
        <time>2024-07-08T11:48:40Z</time>
      </trkpt>
      <trkpt lat="45.14242" lon="6.11785">
        <ele>2641.9</ele>
        <time>2024-07-08T11:48:41Z</time>
      </trkpt>
      <trkpt lat="45.14241" lon="6.11784">
        <ele>2642</ele>
        <time>2024-07-08T11:48:42Z</time>
      </trkpt>
      <trkpt lat="45.1424" lon="6.11784">
        <ele>2642</ele>
        <time>2024-07-08T11:48:43Z</time>
      </trkpt>
      <trkpt lat="45.1424" lon="6.11783">
        <ele>2642</ele>
        <time>2024-07-08T11:48:44Z</time>
      </trkpt>
      <trkpt lat="45.14239" lon="6.11783">
        <ele>2642</ele>
        <time>2024-07-08T11:48:45Z</time>
      </trkpt>
      <trkpt lat="45.14238" lon="6.11782">
        <ele>2642.1</ele>
        <time>2024-07-08T11:48:46Z</time>
      </trkpt>
      <trkpt lat="45.14237" lon="6.11781">
        <ele>2642.1</ele>
        <time>2024-07-08T11:48:47Z</time>
      </trkpt>
      <trkpt lat="45.14237" lon="6.1178">
        <ele>2642.1</ele>
        <time>2024-07-08T11:48:48Z</time>
      </trkpt>
      <trkpt lat="45.14236" lon="6.11779">
        <ele>2642.2</ele>
        <time>2024-07-08T11:48:49Z</time>
      </trkpt>
      <trkpt lat="45.14235" lon="6.11778">
        <ele>2642.2</ele>
        <time>2024-07-08T11:48:50Z</time>
      </trkpt>
      <trkpt lat="45.14235" lon="6.11777">
        <ele>2642.3</ele>
        <time>2024-07-08T11:48:51Z</time>
      </trkpt>
      <trkpt lat="45.14234" lon="6.11777">
        <ele>2642.3</ele>
        <time>2024-07-08T11:48:52Z</time>
      </trkpt>
      <trkpt lat="45.14233" lon="6.11776">
        <ele>2642.4</ele>
        <time>2024-07-08T11:48:53Z</time>
      </trkpt>
      <trkpt lat="45.14231" lon="6.11775">
        <ele>2642.5</ele>
        <time>2024-07-08T11:48:54Z</time>
      </trkpt>
      <trkpt lat="45.1423" lon="6.11772">
        <ele>2642.6</ele>
        <time>2024-07-08T11:48:55Z</time>
      </trkpt>
      <trkpt lat="45.1423" lon="6.11771">
        <ele>2642.6</ele>
        <time>2024-07-08T11:48:56Z</time>
      </trkpt>
      <trkpt lat="45.14229" lon="6.1177">
        <ele>2642.7</ele>
        <time>2024-07-08T11:48:57Z</time>
      </trkpt>
      <trkpt lat="45.14227" lon="6.11768">
        <ele>2642.9</ele>
        <time>2024-07-08T11:48:58Z</time>
      </trkpt>
      <trkpt lat="45.14227" lon="6.11768">
        <ele>2642.9</ele>
        <time>2024-07-08T11:48:59Z</time>
      </trkpt>
      <trkpt lat="45.14226" lon="6.11767">
        <ele>2643</ele>
        <time>2024-07-08T11:49:00Z</time>
      </trkpt>
      <trkpt lat="45.14225" lon="6.11766">
        <ele>2643.1</ele>
        <time>2024-07-08T11:49:01Z</time>
      </trkpt>
      <trkpt lat="45.14224" lon="6.11766">
        <ele>2643.2</ele>
        <time>2024-07-08T11:49:02Z</time>
      </trkpt>
      <trkpt lat="45.14223" lon="6.11765">
        <ele>2643.3</ele>
        <time>2024-07-08T11:49:03Z</time>
      </trkpt>
      <trkpt lat="45.14222" lon="6.11765">
        <ele>2643.4</ele>
        <time>2024-07-08T11:49:04Z</time>
      </trkpt>
      <trkpt lat="45.14221" lon="6.11765">
        <ele>2643.5</ele>
        <time>2024-07-08T11:49:05Z</time>
      </trkpt>
      <trkpt lat="45.1422" lon="6.11765">
        <ele>2643.6</ele>
        <time>2024-07-08T11:49:06Z</time>
      </trkpt>
      <trkpt lat="45.14219" lon="6.11766">
        <ele>2643.6</ele>
        <time>2024-07-08T11:49:07Z</time>
      </trkpt>
      <trkpt lat="45.14217" lon="6.11765">
        <ele>2643.7</ele>
        <time>2024-07-08T11:49:08Z</time>
      </trkpt>
      <trkpt lat="45.14217" lon="6.11765">
        <ele>2643.8</ele>
        <time>2024-07-08T11:49:09Z</time>
      </trkpt>
      <trkpt lat="45.14217" lon="6.11764">
        <ele>2643.8</ele>
        <time>2024-07-08T11:49:10Z</time>
      </trkpt>
      <trkpt lat="45.14216" lon="6.11764">
        <ele>2643.9</ele>
        <time>2024-07-08T11:49:11Z</time>
      </trkpt>
      <trkpt lat="45.14215" lon="6.11764">
        <ele>2643.9</ele>
        <time>2024-07-08T11:49:12Z</time>
      </trkpt>
      <trkpt lat="45.14214" lon="6.11764">
        <ele>2644</ele>
        <time>2024-07-08T11:49:13Z</time>
      </trkpt>
      <trkpt lat="45.14213" lon="6.11764">
        <ele>2644.1</ele>
        <time>2024-07-08T11:49:14Z</time>
      </trkpt>
      <trkpt lat="45.14212" lon="6.11764">
        <ele>2644.1</ele>
        <time>2024-07-08T11:49:15Z</time>
      </trkpt>
      <trkpt lat="45.1421" lon="6.11764">
        <ele>2644.2</ele>
        <time>2024-07-08T11:49:16Z</time>
      </trkpt>
      <trkpt lat="45.1421" lon="6.11764">
        <ele>2644.2</ele>
        <time>2024-07-08T11:49:17Z</time>
      </trkpt>
      <trkpt lat="45.14211" lon="6.11764">
        <ele>2644.3</ele>
        <time>2024-07-08T11:49:18Z</time>
      </trkpt>
      <trkpt lat="45.14211" lon="6.11764">
        <ele>2644.3</ele>
        <time>2024-07-08T11:49:19Z</time>
      </trkpt>
      <trkpt lat="45.14211" lon="6.11763">
        <ele>2644.3</ele>
        <time>2024-07-08T11:49:20Z</time>
      </trkpt>
      <trkpt lat="45.14211" lon="6.11761">
        <ele>2644.3</ele>
        <time>2024-07-08T11:49:21Z</time>
      </trkpt>
      <trkpt lat="45.14211" lon="6.1176">
        <ele>2644.3</ele>
        <time>2024-07-08T11:49:22Z</time>
      </trkpt>
      <trkpt lat="45.1421" lon="6.11759">
        <ele>2644.4</ele>
        <time>2024-07-08T11:49:23Z</time>
      </trkpt>
      <trkpt lat="45.1421" lon="6.11758">
        <ele>2644.4</ele>
        <time>2024-07-08T11:49:24Z</time>
      </trkpt>
      <trkpt lat="45.14209" lon="6.11756">
        <ele>2644.4</ele>
        <time>2024-07-08T11:49:25Z</time>
      </trkpt>
      <trkpt lat="45.14209" lon="6.11755">
        <ele>2644.4</ele>
        <time>2024-07-08T11:49:26Z</time>
      </trkpt>
      <trkpt lat="45.14208" lon="6.11753">
        <ele>2644.4</ele>
        <time>2024-07-08T11:49:27Z</time>
      </trkpt>
      <trkpt lat="45.14207" lon="6.11753">
        <ele>2644.4</ele>
        <time>2024-07-08T11:49:28Z</time>
      </trkpt>
      <trkpt lat="45.14206" lon="6.11753">
        <ele>2644.4</ele>
        <time>2024-07-08T11:49:29Z</time>
      </trkpt>
      <trkpt lat="45.14205" lon="6.11753">
        <ele>2644.4</ele>
        <time>2024-07-08T11:49:30Z</time>
      </trkpt>
      <trkpt lat="45.14204" lon="6.11752">
        <ele>2644.4</ele>
        <time>2024-07-08T11:49:31Z</time>
      </trkpt>
      <trkpt lat="45.14204" lon="6.11752">
        <ele>2644.4</ele>
        <time>2024-07-08T11:49:32Z</time>
      </trkpt>
      <trkpt lat="45.14203" lon="6.11752">
        <ele>2644.4</ele>
        <time>2024-07-08T11:49:33Z</time>
      </trkpt>
      <trkpt lat="45.14203" lon="6.11752">
        <ele>2644.4</ele>
        <time>2024-07-08T11:49:34Z</time>
      </trkpt>
      <trkpt lat="45.14202" lon="6.11753">
        <ele>2644.4</ele>
        <time>2024-07-08T11:49:35Z</time>
      </trkpt>
      <trkpt lat="45.14202" lon="6.11753">
        <ele>2644.4</ele>
        <time>2024-07-08T11:49:36Z</time>
      </trkpt>
      <trkpt lat="45.14201" lon="6.11753">
        <ele>2644.4</ele>
        <time>2024-07-08T11:49:37Z</time>
      </trkpt>
      <trkpt lat="45.14201" lon="6.11752">
        <ele>2644.4</ele>
        <time>2024-07-08T11:49:38Z</time>
      </trkpt>
      <trkpt lat="45.14201" lon="6.11751">
        <ele>2644.5</ele>
        <time>2024-07-08T11:49:39Z</time>
      </trkpt>
      <trkpt lat="45.14201" lon="6.11751">
        <ele>2644.5</ele>
        <time>2024-07-08T11:49:40Z</time>
      </trkpt>
      <trkpt lat="45.142" lon="6.11749">
        <ele>2644.5</ele>
        <time>2024-07-08T11:49:41Z</time>
      </trkpt>
      <trkpt lat="45.142" lon="6.11748">
        <ele>2644.5</ele>
        <time>2024-07-08T11:49:42Z</time>
      </trkpt>
      <trkpt lat="45.142" lon="6.11747">
        <ele>2644.5</ele>
        <time>2024-07-08T11:49:43Z</time>
      </trkpt>
      <trkpt lat="45.14201" lon="6.11746">
        <ele>2644.5</ele>
        <time>2024-07-08T11:49:44Z</time>
      </trkpt>
      <trkpt lat="45.14201" lon="6.11746">
        <ele>2644.6</ele>
        <time>2024-07-08T11:49:45Z</time>
      </trkpt>
      <trkpt lat="45.14201" lon="6.11745">
        <ele>2644.6</ele>
        <time>2024-07-08T11:49:46Z</time>
      </trkpt>
      <trkpt lat="45.142" lon="6.11746">
        <ele>2644.6</ele>
        <time>2024-07-08T11:49:47Z</time>
      </trkpt>
      <trkpt lat="45.142" lon="6.11746">
        <ele>2644.6</ele>
        <time>2024-07-08T11:49:48Z</time>
      </trkpt>
      <trkpt lat="45.142" lon="6.11746">
        <ele>2644.6</ele>
        <time>2024-07-08T11:49:49Z</time>
      </trkpt>
      <trkpt lat="45.142" lon="6.11746">
        <ele>2644.6</ele>
        <time>2024-07-08T11:49:50Z</time>
      </trkpt>
      <trkpt lat="45.142" lon="6.11744">
        <ele>2644.7</ele>
        <time>2024-07-08T11:49:51Z</time>
      </trkpt>
      <trkpt lat="45.14199" lon="6.11744">
        <ele>2644.7</ele>
        <time>2024-07-08T11:49:52Z</time>
      </trkpt>
      <trkpt lat="45.142" lon="6.11744">
        <ele>2644.7</ele>
        <time>2024-07-08T11:49:53Z</time>
      </trkpt>
      <trkpt lat="45.14199" lon="6.11743">
        <ele>2644.7</ele>
        <time>2024-07-08T11:49:54Z</time>
      </trkpt>
      <trkpt lat="45.14199" lon="6.11742">
        <ele>2644.8</ele>
        <time>2024-07-08T11:49:55Z</time>
      </trkpt>
      <trkpt lat="45.14199" lon="6.1174">
        <ele>2644.8</ele>
        <time>2024-07-08T11:49:56Z</time>
      </trkpt>
      <trkpt lat="45.14199" lon="6.11739">
        <ele>2644.9</ele>
        <time>2024-07-08T11:49:57Z</time>
      </trkpt>
      <trkpt lat="45.14198" lon="6.11738">
        <ele>2644.9</ele>
        <time>2024-07-08T11:49:58Z</time>
      </trkpt>
      <trkpt lat="45.14197" lon="6.11737">
        <ele>2645</ele>
        <time>2024-07-08T11:49:59Z</time>
      </trkpt>
      <trkpt lat="45.14196" lon="6.11737">
        <ele>2645</ele>
        <time>2024-07-08T11:50:00Z</time>
      </trkpt>
      <trkpt lat="45.14196" lon="6.11737">
        <ele>2645.1</ele>
        <time>2024-07-08T11:50:01Z</time>
      </trkpt>
      <trkpt lat="45.14194" lon="6.11736">
        <ele>2645.1</ele>
        <time>2024-07-08T11:50:02Z</time>
      </trkpt>
      <trkpt lat="45.14194" lon="6.11736">
        <ele>2645.2</ele>
        <time>2024-07-08T11:50:03Z</time>
      </trkpt>
      <trkpt lat="45.14193" lon="6.11736">
        <ele>2645.2</ele>
        <time>2024-07-08T11:50:04Z</time>
      </trkpt>
      <trkpt lat="45.14192" lon="6.11736">
        <ele>2645.3</ele>
        <time>2024-07-08T11:50:05Z</time>
      </trkpt>
      <trkpt lat="45.14191" lon="6.11735">
        <ele>2645.3</ele>
        <time>2024-07-08T11:50:06Z</time>
      </trkpt>
      <trkpt lat="45.1419" lon="6.11734">
        <ele>2645.4</ele>
        <time>2024-07-08T11:50:07Z</time>
      </trkpt>
      <trkpt lat="45.14189" lon="6.11734">
        <ele>2645.5</ele>
        <time>2024-07-08T11:50:08Z</time>
      </trkpt>
      <trkpt lat="45.14189" lon="6.11733">
        <ele>2645.5</ele>
        <time>2024-07-08T11:50:09Z</time>
      </trkpt>
      <trkpt lat="45.14188" lon="6.11733">
        <ele>2645.6</ele>
        <time>2024-07-08T11:50:10Z</time>
      </trkpt>
      <trkpt lat="45.14187" lon="6.11733">
        <ele>2645.7</ele>
        <time>2024-07-08T11:50:11Z</time>
      </trkpt>
      <trkpt lat="45.14186" lon="6.11732">
        <ele>2645.7</ele>
        <time>2024-07-08T11:50:12Z</time>
      </trkpt>
      <trkpt lat="45.14185" lon="6.11732">
        <ele>2645.7</ele>
        <time>2024-07-08T11:50:13Z</time>
      </trkpt>
      <trkpt lat="45.14184" lon="6.11732">
        <ele>2645.8</ele>
        <time>2024-07-08T11:50:14Z</time>
      </trkpt>
      <trkpt lat="45.14184" lon="6.11732">
        <ele>2645.8</ele>
        <time>2024-07-08T11:50:15Z</time>
      </trkpt>
      <trkpt lat="45.14183" lon="6.11732">
        <ele>2645.9</ele>
        <time>2024-07-08T11:50:16Z</time>
      </trkpt>
      <trkpt lat="45.14182" lon="6.11731">
        <ele>2645.9</ele>
        <time>2024-07-08T11:50:17Z</time>
      </trkpt>
      <trkpt lat="45.14181" lon="6.11731">
        <ele>2646</ele>
        <time>2024-07-08T11:50:18Z</time>
      </trkpt>
      <trkpt lat="45.14181" lon="6.11731">
        <ele>2646</ele>
        <time>2024-07-08T11:50:19Z</time>
      </trkpt>
      <trkpt lat="45.1418" lon="6.1173">
        <ele>2646</ele>
        <time>2024-07-08T11:50:20Z</time>
      </trkpt>
      <trkpt lat="45.14179" lon="6.1173">
        <ele>2646.1</ele>
        <time>2024-07-08T11:50:21Z</time>
      </trkpt>
      <trkpt lat="45.14178" lon="6.11729">
        <ele>2646.1</ele>
        <time>2024-07-08T11:50:22Z</time>
      </trkpt>
      <trkpt lat="45.14177" lon="6.11728">
        <ele>2646.2</ele>
        <time>2024-07-08T11:50:23Z</time>
      </trkpt>
      <trkpt lat="45.14177" lon="6.11728">
        <ele>2646.2</ele>
        <time>2024-07-08T11:50:24Z</time>
      </trkpt>
      <trkpt lat="45.14176" lon="6.11727">
        <ele>2646.2</ele>
        <time>2024-07-08T11:50:25Z</time>
      </trkpt>
      <trkpt lat="45.14175" lon="6.11727">
        <ele>2646.2</ele>
        <time>2024-07-08T11:50:26Z</time>
      </trkpt>
      <trkpt lat="45.14173" lon="6.11726">
        <ele>2646.3</ele>
        <time>2024-07-08T11:50:27Z</time>
      </trkpt>
      <trkpt lat="45.14173" lon="6.11726">
        <ele>2646.3</ele>
        <time>2024-07-08T11:50:28Z</time>
      </trkpt>
      <trkpt lat="45.14172" lon="6.11725">
        <ele>2646.3</ele>
        <time>2024-07-08T11:50:29Z</time>
      </trkpt>
      <trkpt lat="45.14171" lon="6.11725">
        <ele>2646.3</ele>
        <time>2024-07-08T11:50:30Z</time>
      </trkpt>
      <trkpt lat="45.1417" lon="6.11724">
        <ele>2646.3</ele>
        <time>2024-07-08T11:50:31Z</time>
      </trkpt>
      <trkpt lat="45.14169" lon="6.11724">
        <ele>2646.4</ele>
        <time>2024-07-08T11:50:32Z</time>
      </trkpt>
      <trkpt lat="45.14169" lon="6.11723">
        <ele>2646.4</ele>
        <time>2024-07-08T11:50:33Z</time>
      </trkpt>
      <trkpt lat="45.14168" lon="6.11722">
        <ele>2646.4</ele>
        <time>2024-07-08T11:50:34Z</time>
      </trkpt>
      <trkpt lat="45.14166" lon="6.11721">
        <ele>2646.4</ele>
        <time>2024-07-08T11:50:35Z</time>
      </trkpt>
      <trkpt lat="45.14165" lon="6.11721">
        <ele>2646.4</ele>
        <time>2024-07-08T11:50:36Z</time>
      </trkpt>
      <trkpt lat="45.14164" lon="6.1172">
        <ele>2646.4</ele>
        <time>2024-07-08T11:50:37Z</time>
      </trkpt>
      <trkpt lat="45.14163" lon="6.1172">
        <ele>2646.3</ele>
        <time>2024-07-08T11:50:38Z</time>
      </trkpt>
      <trkpt lat="45.14162" lon="6.11719">
        <ele>2646.3</ele>
        <time>2024-07-08T11:50:39Z</time>
      </trkpt>
      <trkpt lat="45.14161" lon="6.11719">
        <ele>2646.3</ele>
        <time>2024-07-08T11:50:40Z</time>
      </trkpt>
      <trkpt lat="45.1416" lon="6.11719">
        <ele>2646.3</ele>
        <time>2024-07-08T11:50:41Z</time>
      </trkpt>
      <trkpt lat="45.14159" lon="6.11719">
        <ele>2646.3</ele>
        <time>2024-07-08T11:50:42Z</time>
      </trkpt>
      <trkpt lat="45.14158" lon="6.11718">
        <ele>2646.2</ele>
        <time>2024-07-08T11:50:43Z</time>
      </trkpt>
      <trkpt lat="45.14158" lon="6.11718">
        <ele>2646.2</ele>
        <time>2024-07-08T11:50:44Z</time>
      </trkpt>
      <trkpt lat="45.14156" lon="6.11718">
        <ele>2646.2</ele>
        <time>2024-07-08T11:50:45Z</time>
      </trkpt>
      <trkpt lat="45.14155" lon="6.11718">
        <ele>2646.1</ele>
        <time>2024-07-08T11:50:46Z</time>
      </trkpt>
      <trkpt lat="45.14155" lon="6.11719">
        <ele>2646.1</ele>
        <time>2024-07-08T11:50:47Z</time>
      </trkpt>
      <trkpt lat="45.14154" lon="6.11719">
        <ele>2646.1</ele>
        <time>2024-07-08T11:50:48Z</time>
      </trkpt>
      <trkpt lat="45.14153" lon="6.11718">
        <ele>2646.1</ele>
        <time>2024-07-08T11:50:49Z</time>
      </trkpt>
      <trkpt lat="45.14152" lon="6.11718">
        <ele>2646</ele>
        <time>2024-07-08T11:50:50Z</time>
      </trkpt>
      <trkpt lat="45.14151" lon="6.11718">
        <ele>2646</ele>
        <time>2024-07-08T11:50:51Z</time>
      </trkpt>
      <trkpt lat="45.14151" lon="6.11718">
        <ele>2646</ele>
        <time>2024-07-08T11:50:52Z</time>
      </trkpt>
      <trkpt lat="45.1415" lon="6.11718">
        <ele>2646</ele>
        <time>2024-07-08T11:50:53Z</time>
      </trkpt>
      <trkpt lat="45.1415" lon="6.11717">
        <ele>2645.9</ele>
        <time>2024-07-08T11:50:54Z</time>
      </trkpt>
      <trkpt lat="45.1415" lon="6.11716">
        <ele>2645.9</ele>
        <time>2024-07-08T11:50:55Z</time>
      </trkpt>
      <trkpt lat="45.14149" lon="6.11715">
        <ele>2645.9</ele>
        <time>2024-07-08T11:50:56Z</time>
      </trkpt>
      <trkpt lat="45.14148" lon="6.11715">
        <ele>2645.9</ele>
        <time>2024-07-08T11:50:57Z</time>
      </trkpt>
      <trkpt lat="45.14147" lon="6.11714">
        <ele>2645.8</ele>
        <time>2024-07-08T11:50:58Z</time>
      </trkpt>
      <trkpt lat="45.14147" lon="6.11713">
        <ele>2645.8</ele>
        <time>2024-07-08T11:50:59Z</time>
      </trkpt>
      <trkpt lat="45.14146" lon="6.11712">
        <ele>2645.8</ele>
        <time>2024-07-08T11:51:00Z</time>
      </trkpt>
      <trkpt lat="45.14145" lon="6.11711">
        <ele>2645.8</ele>
        <time>2024-07-08T11:51:01Z</time>
      </trkpt>
      <trkpt lat="45.14144" lon="6.1171">
        <ele>2645.8</ele>
        <time>2024-07-08T11:51:02Z</time>
      </trkpt>
      <trkpt lat="45.14143" lon="6.11709">
        <ele>2645.7</ele>
        <time>2024-07-08T11:51:03Z</time>
      </trkpt>
      <trkpt lat="45.14143" lon="6.11708">
        <ele>2645.7</ele>
        <time>2024-07-08T11:51:04Z</time>
      </trkpt>
      <trkpt lat="45.14142" lon="6.11707">
        <ele>2645.7</ele>
        <time>2024-07-08T11:51:05Z</time>
      </trkpt>
      <trkpt lat="45.14141" lon="6.11706">
        <ele>2645.7</ele>
        <time>2024-07-08T11:51:06Z</time>
      </trkpt>
      <trkpt lat="45.1414" lon="6.11705">
        <ele>2645.7</ele>
        <time>2024-07-08T11:51:07Z</time>
      </trkpt>
      <trkpt lat="45.14139" lon="6.11704">
        <ele>2645.6</ele>
        <time>2024-07-08T11:51:08Z</time>
      </trkpt>
      <trkpt lat="45.14139" lon="6.11703">
        <ele>2645.6</ele>
        <time>2024-07-08T11:51:09Z</time>
      </trkpt>
      <trkpt lat="45.14138" lon="6.11702">
        <ele>2645.6</ele>
        <time>2024-07-08T11:51:10Z</time>
      </trkpt>
      <trkpt lat="45.14136" lon="6.11701">
        <ele>2645.6</ele>
        <time>2024-07-08T11:51:11Z</time>
      </trkpt>
      <trkpt lat="45.14135" lon="6.11701">
        <ele>2645.6</ele>
        <time>2024-07-08T11:51:12Z</time>
      </trkpt>
      <trkpt lat="45.14135" lon="6.117">
        <ele>2645.5</ele>
        <time>2024-07-08T11:51:13Z</time>
      </trkpt>
      <trkpt lat="45.14133" lon="6.11699">
        <ele>2645.5</ele>
        <time>2024-07-08T11:51:14Z</time>
      </trkpt>
      <trkpt lat="45.14133" lon="6.11699">
        <ele>2645.5</ele>
        <time>2024-07-08T11:51:15Z</time>
      </trkpt>
      <trkpt lat="45.14132" lon="6.11698">
        <ele>2645.4</ele>
        <time>2024-07-08T11:51:16Z</time>
      </trkpt>
      <trkpt lat="45.14131" lon="6.11697">
        <ele>2645.4</ele>
        <time>2024-07-08T11:51:17Z</time>
      </trkpt>
      <trkpt lat="45.1413" lon="6.11696">
        <ele>2645.4</ele>
        <time>2024-07-08T11:51:18Z</time>
      </trkpt>
      <trkpt lat="45.14128" lon="6.11694">
        <ele>2645.3</ele>
        <time>2024-07-08T11:51:19Z</time>
      </trkpt>
      <trkpt lat="45.14127" lon="6.11694">
        <ele>2645.2</ele>
        <time>2024-07-08T11:51:20Z</time>
      </trkpt>
      <trkpt lat="45.14126" lon="6.11693">
        <ele>2645.2</ele>
        <time>2024-07-08T11:51:21Z</time>
      </trkpt>
      <trkpt lat="45.14125" lon="6.11693">
        <ele>2645.2</ele>
        <time>2024-07-08T11:51:22Z</time>
      </trkpt>
      <trkpt lat="45.14125" lon="6.11692">
        <ele>2645.1</ele>
        <time>2024-07-08T11:51:23Z</time>
      </trkpt>
      <trkpt lat="45.14124" lon="6.11691">
        <ele>2645.1</ele>
        <time>2024-07-08T11:51:24Z</time>
      </trkpt>
      <trkpt lat="45.14123" lon="6.11691">
        <ele>2645.1</ele>
        <time>2024-07-08T11:51:25Z</time>
      </trkpt>
      <trkpt lat="45.14122" lon="6.1169">
        <ele>2645</ele>
        <time>2024-07-08T11:51:26Z</time>
      </trkpt>
      <trkpt lat="45.14121" lon="6.11688">
        <ele>2645</ele>
        <time>2024-07-08T11:51:27Z</time>
      </trkpt>
      <trkpt lat="45.1412" lon="6.11687">
        <ele>2644.9</ele>
        <time>2024-07-08T11:51:28Z</time>
      </trkpt>
      <trkpt lat="45.14119" lon="6.11687">
        <ele>2644.9</ele>
        <time>2024-07-08T11:51:29Z</time>
      </trkpt>
      <trkpt lat="45.14117" lon="6.11686">
        <ele>2644.8</ele>
        <time>2024-07-08T11:51:30Z</time>
      </trkpt>
      <trkpt lat="45.14117" lon="6.11685">
        <ele>2644.8</ele>
        <time>2024-07-08T11:51:31Z</time>
      </trkpt>
      <trkpt lat="45.14116" lon="6.11685">
        <ele>2644.7</ele>
        <time>2024-07-08T11:51:32Z</time>
      </trkpt>
      <trkpt lat="45.14116" lon="6.11684">
        <ele>2644.7</ele>
        <time>2024-07-08T11:51:33Z</time>
      </trkpt>
      <trkpt lat="45.14115" lon="6.11683">
        <ele>2644.7</ele>
        <time>2024-07-08T11:51:34Z</time>
      </trkpt>
      <trkpt lat="45.14114" lon="6.11681">
        <ele>2644.6</ele>
        <time>2024-07-08T11:51:35Z</time>
      </trkpt>
      <trkpt lat="45.14113" lon="6.1168">
        <ele>2644.6</ele>
        <time>2024-07-08T11:51:36Z</time>
      </trkpt>
      <trkpt lat="45.14113" lon="6.11679">
        <ele>2644.6</ele>
        <time>2024-07-08T11:51:37Z</time>
      </trkpt>
      <trkpt lat="45.14112" lon="6.11677">
        <ele>2644.5</ele>
        <time>2024-07-08T11:51:38Z</time>
      </trkpt>
      <trkpt lat="45.14111" lon="6.11676">
        <ele>2644.5</ele>
        <time>2024-07-08T11:51:39Z</time>
      </trkpt>
      <trkpt lat="45.14111" lon="6.11675">
        <ele>2644.5</ele>
        <time>2024-07-08T11:51:40Z</time>
      </trkpt>
      <trkpt lat="45.1411" lon="6.11674">
        <ele>2644.5</ele>
        <time>2024-07-08T11:51:41Z</time>
      </trkpt>
      <trkpt lat="45.14109" lon="6.11672">
        <ele>2644.4</ele>
        <time>2024-07-08T11:51:42Z</time>
      </trkpt>
      <trkpt lat="45.14108" lon="6.11672">
        <ele>2644.4</ele>
        <time>2024-07-08T11:51:43Z</time>
      </trkpt>
      <trkpt lat="45.14107" lon="6.11671">
        <ele>2644.4</ele>
        <time>2024-07-08T11:51:44Z</time>
      </trkpt>
      <trkpt lat="45.14105" lon="6.1167">
        <ele>2644.4</ele>
        <time>2024-07-08T11:51:45Z</time>
      </trkpt>
      <trkpt lat="45.14105" lon="6.11669">
        <ele>2644.4</ele>
        <time>2024-07-08T11:51:46Z</time>
      </trkpt>
      <trkpt lat="45.14104" lon="6.11668">
        <ele>2644.4</ele>
        <time>2024-07-08T11:51:47Z</time>
      </trkpt>
      <trkpt lat="45.14102" lon="6.11666">
        <ele>2644.5</ele>
        <time>2024-07-08T11:51:48Z</time>
      </trkpt>
      <trkpt lat="45.14102" lon="6.11666">
        <ele>2644.5</ele>
        <time>2024-07-08T11:51:49Z</time>
      </trkpt>
      <trkpt lat="45.14101" lon="6.11665">
        <ele>2644.5</ele>
        <time>2024-07-08T11:51:50Z</time>
      </trkpt>
      <trkpt lat="45.14099" lon="6.11663">
        <ele>2644.5</ele>
        <time>2024-07-08T11:51:51Z</time>
      </trkpt>
      <trkpt lat="45.14099" lon="6.11662">
        <ele>2644.5</ele>
        <time>2024-07-08T11:51:52Z</time>
      </trkpt>
      <trkpt lat="45.14098" lon="6.11661">
        <ele>2644.5</ele>
        <time>2024-07-08T11:51:53Z</time>
      </trkpt>
      <trkpt lat="45.14097" lon="6.11661">
        <ele>2644.6</ele>
        <time>2024-07-08T11:51:54Z</time>
      </trkpt>
      <trkpt lat="45.14096" lon="6.1166">
        <ele>2644.6</ele>
        <time>2024-07-08T11:51:55Z</time>
      </trkpt>
      <trkpt lat="45.14095" lon="6.1166">
        <ele>2644.6</ele>
        <time>2024-07-08T11:51:56Z</time>
      </trkpt>
      <trkpt lat="45.14094" lon="6.1166">
        <ele>2644.6</ele>
        <time>2024-07-08T11:51:57Z</time>
      </trkpt>
      <trkpt lat="45.14093" lon="6.11659">
        <ele>2644.6</ele>
        <time>2024-07-08T11:51:58Z</time>
      </trkpt>
      <trkpt lat="45.14092" lon="6.11658">
        <ele>2644.7</ele>
        <time>2024-07-08T11:51:59Z</time>
      </trkpt>
      <trkpt lat="45.14091" lon="6.11658">
        <ele>2644.7</ele>
        <time>2024-07-08T11:52:00Z</time>
      </trkpt>
      <trkpt lat="45.1409" lon="6.11657">
        <ele>2644.7</ele>
        <time>2024-07-08T11:52:01Z</time>
      </trkpt>
      <trkpt lat="45.14089" lon="6.11657">
        <ele>2644.7</ele>
        <time>2024-07-08T11:52:02Z</time>
      </trkpt>
      <trkpt lat="45.14088" lon="6.11656">
        <ele>2644.7</ele>
        <time>2024-07-08T11:52:03Z</time>
      </trkpt>
      <trkpt lat="45.14087" lon="6.11655">
        <ele>2644.7</ele>
        <time>2024-07-08T11:52:04Z</time>
      </trkpt>
      <trkpt lat="45.14086" lon="6.11655">
        <ele>2644.8</ele>
        <time>2024-07-08T11:52:05Z</time>
      </trkpt>
      <trkpt lat="45.14085" lon="6.11654">
        <ele>2644.8</ele>
        <time>2024-07-08T11:52:06Z</time>
      </trkpt>
      <trkpt lat="45.14084" lon="6.11653">
        <ele>2644.8</ele>
        <time>2024-07-08T11:52:07Z</time>
      </trkpt>
      <trkpt lat="45.14083" lon="6.11652">
        <ele>2644.8</ele>
        <time>2024-07-08T11:52:08Z</time>
      </trkpt>
      <trkpt lat="45.14082" lon="6.11651">
        <ele>2644.8</ele>
        <time>2024-07-08T11:52:09Z</time>
      </trkpt>
      <trkpt lat="45.14081" lon="6.11651">
        <ele>2644.8</ele>
        <time>2024-07-08T11:52:10Z</time>
      </trkpt>
      <trkpt lat="45.1408" lon="6.1165">
        <ele>2644.8</ele>
        <time>2024-07-08T11:52:11Z</time>
      </trkpt>
      <trkpt lat="45.14079" lon="6.11649">
        <ele>2644.8</ele>
        <time>2024-07-08T11:52:12Z</time>
      </trkpt>
      <trkpt lat="45.14078" lon="6.11649">
        <ele>2644.8</ele>
        <time>2024-07-08T11:52:13Z</time>
      </trkpt>
      <trkpt lat="45.14077" lon="6.11648">
        <ele>2644.8</ele>
        <time>2024-07-08T11:52:14Z</time>
      </trkpt>
      <trkpt lat="45.14076" lon="6.11648">
        <ele>2644.8</ele>
        <time>2024-07-08T11:52:15Z</time>
      </trkpt>
      <trkpt lat="45.14075" lon="6.11647">
        <ele>2644.8</ele>
        <time>2024-07-08T11:52:16Z</time>
      </trkpt>
      <trkpt lat="45.14074" lon="6.11646">
        <ele>2644.8</ele>
        <time>2024-07-08T11:52:17Z</time>
      </trkpt>
      <trkpt lat="45.14072" lon="6.11644">
        <ele>2644.8</ele>
        <time>2024-07-08T11:52:18Z</time>
      </trkpt>
      <trkpt lat="45.14071" lon="6.11644">
        <ele>2644.8</ele>
        <time>2024-07-08T11:52:19Z</time>
      </trkpt>
      <trkpt lat="45.1407" lon="6.11643">
        <ele>2644.8</ele>
        <time>2024-07-08T11:52:20Z</time>
      </trkpt>
      <trkpt lat="45.14069" lon="6.11642">
        <ele>2644.8</ele>
        <time>2024-07-08T11:52:21Z</time>
      </trkpt>
      <trkpt lat="45.14068" lon="6.11641">
        <ele>2644.8</ele>
        <time>2024-07-08T11:52:22Z</time>
      </trkpt>
      <trkpt lat="45.14068" lon="6.1164">
        <ele>2644.8</ele>
        <time>2024-07-08T11:52:23Z</time>
      </trkpt>
      <trkpt lat="45.14066" lon="6.11638">
        <ele>2644.8</ele>
        <time>2024-07-08T11:52:24Z</time>
      </trkpt>
      <trkpt lat="45.14066" lon="6.11637">
        <ele>2644.8</ele>
        <time>2024-07-08T11:52:25Z</time>
      </trkpt>
      <trkpt lat="45.14065" lon="6.11636">
        <ele>2644.8</ele>
        <time>2024-07-08T11:52:26Z</time>
      </trkpt>
      <trkpt lat="45.14064" lon="6.11635">
        <ele>2644.8</ele>
        <time>2024-07-08T11:52:27Z</time>
      </trkpt>
      <trkpt lat="45.14063" lon="6.11634">
        <ele>2644.8</ele>
        <time>2024-07-08T11:52:28Z</time>
      </trkpt>
      <trkpt lat="45.14062" lon="6.11633">
        <ele>2644.8</ele>
        <time>2024-07-08T11:52:29Z</time>
      </trkpt>
      <trkpt lat="45.14061" lon="6.11632">
        <ele>2644.8</ele>
        <time>2024-07-08T11:52:30Z</time>
      </trkpt>
      <trkpt lat="45.1406" lon="6.11631">
        <ele>2644.8</ele>
        <time>2024-07-08T11:52:31Z</time>
      </trkpt>
      <trkpt lat="45.14059" lon="6.1163">
        <ele>2644.8</ele>
        <time>2024-07-08T11:52:32Z</time>
      </trkpt>
      <trkpt lat="45.14059" lon="6.11629">
        <ele>2644.8</ele>
        <time>2024-07-08T11:52:33Z</time>
      </trkpt>
      <trkpt lat="45.14058" lon="6.11628">
        <ele>2644.9</ele>
        <time>2024-07-08T11:52:34Z</time>
      </trkpt>
      <trkpt lat="45.14058" lon="6.11627">
        <ele>2644.9</ele>
        <time>2024-07-08T11:52:35Z</time>
      </trkpt>
      <trkpt lat="45.14057" lon="6.11625">
        <ele>2644.9</ele>
        <time>2024-07-08T11:52:36Z</time>
      </trkpt>
      <trkpt lat="45.14057" lon="6.11624">
        <ele>2644.9</ele>
        <time>2024-07-08T11:52:37Z</time>
      </trkpt>
      <trkpt lat="45.14057" lon="6.11623">
        <ele>2644.9</ele>
        <time>2024-07-08T11:52:38Z</time>
      </trkpt>
      <trkpt lat="45.14057" lon="6.11622">
        <ele>2644.9</ele>
        <time>2024-07-08T11:52:39Z</time>
      </trkpt>
      <trkpt lat="45.14056" lon="6.11621">
        <ele>2645</ele>
        <time>2024-07-08T11:52:40Z</time>
      </trkpt>
      <trkpt lat="45.14055" lon="6.1162">
        <ele>2645</ele>
        <time>2024-07-08T11:52:41Z</time>
      </trkpt>
      <trkpt lat="45.14054" lon="6.11619">
        <ele>2645</ele>
        <time>2024-07-08T11:52:42Z</time>
      </trkpt>
      <trkpt lat="45.14053" lon="6.11618">
        <ele>2645.1</ele>
        <time>2024-07-08T11:52:43Z</time>
      </trkpt>
      <trkpt lat="45.14052" lon="6.11618">
        <ele>2645.1</ele>
        <time>2024-07-08T11:52:44Z</time>
      </trkpt>
      <trkpt lat="45.14051" lon="6.11617">
        <ele>2645.1</ele>
        <time>2024-07-08T11:52:45Z</time>
      </trkpt>
      <trkpt lat="45.1405" lon="6.11616">
        <ele>2645.2</ele>
        <time>2024-07-08T11:52:46Z</time>
      </trkpt>
      <trkpt lat="45.1405" lon="6.11616">
        <ele>2645.2</ele>
        <time>2024-07-08T11:52:47Z</time>
      </trkpt>
      <trkpt lat="45.14049" lon="6.11614">
        <ele>2645.3</ele>
        <time>2024-07-08T11:52:48Z</time>
      </trkpt>
      <trkpt lat="45.14048" lon="6.11614">
        <ele>2645.3</ele>
        <time>2024-07-08T11:52:49Z</time>
      </trkpt>
      <trkpt lat="45.14047" lon="6.11613">
        <ele>2645.3</ele>
        <time>2024-07-08T11:52:50Z</time>
      </trkpt>
      <trkpt lat="45.14046" lon="6.11613">
        <ele>2645.4</ele>
        <time>2024-07-08T11:52:51Z</time>
      </trkpt>
      <trkpt lat="45.14045" lon="6.11612">
        <ele>2645.4</ele>
        <time>2024-07-08T11:52:52Z</time>
      </trkpt>
      <trkpt lat="45.14044" lon="6.11611">
        <ele>2645.5</ele>
        <time>2024-07-08T11:52:53Z</time>
      </trkpt>
      <trkpt lat="45.14044" lon="6.1161">
        <ele>2645.5</ele>
        <time>2024-07-08T11:52:54Z</time>
      </trkpt>
      <trkpt lat="45.14043" lon="6.1161">
        <ele>2645.5</ele>
        <time>2024-07-08T11:52:55Z</time>
      </trkpt>
      <trkpt lat="45.14042" lon="6.11609">
        <ele>2645.6</ele>
        <time>2024-07-08T11:52:56Z</time>
      </trkpt>
      <trkpt lat="45.14041" lon="6.11609">
        <ele>2645.6</ele>
        <time>2024-07-08T11:52:57Z</time>
      </trkpt>
      <trkpt lat="45.14041" lon="6.11608">
        <ele>2645.6</ele>
        <time>2024-07-08T11:52:58Z</time>
      </trkpt>
      <trkpt lat="45.1404" lon="6.11608">
        <ele>2645.7</ele>
        <time>2024-07-08T11:52:59Z</time>
      </trkpt>
      <trkpt lat="45.14039" lon="6.11607">
        <ele>2645.7</ele>
        <time>2024-07-08T11:53:00Z</time>
      </trkpt>
      <trkpt lat="45.14038" lon="6.11606">
        <ele>2645.8</ele>
        <time>2024-07-08T11:53:01Z</time>
      </trkpt>
      <trkpt lat="45.14038" lon="6.11605">
        <ele>2645.8</ele>
        <time>2024-07-08T11:53:02Z</time>
      </trkpt>
      <trkpt lat="45.14038" lon="6.11604">
        <ele>2645.8</ele>
        <time>2024-07-08T11:53:03Z</time>
      </trkpt>
      <trkpt lat="45.14038" lon="6.11603">
        <ele>2645.8</ele>
        <time>2024-07-08T11:53:04Z</time>
      </trkpt>
      <trkpt lat="45.14037" lon="6.11601">
        <ele>2645.9</ele>
        <time>2024-07-08T11:53:05Z</time>
      </trkpt>
      <trkpt lat="45.14037" lon="6.116">
        <ele>2645.9</ele>
        <time>2024-07-08T11:53:06Z</time>
      </trkpt>
      <trkpt lat="45.14037" lon="6.11599">
        <ele>2645.9</ele>
        <time>2024-07-08T11:53:07Z</time>
      </trkpt>
      <trkpt lat="45.14036" lon="6.11598">
        <ele>2645.9</ele>
        <time>2024-07-08T11:53:08Z</time>
      </trkpt>
      <trkpt lat="45.14036" lon="6.11597">
        <ele>2645.9</ele>
        <time>2024-07-08T11:53:09Z</time>
      </trkpt>
      <trkpt lat="45.14035" lon="6.11596">
        <ele>2646</ele>
        <time>2024-07-08T11:53:10Z</time>
      </trkpt>
      <trkpt lat="45.14034" lon="6.11597">
        <ele>2646</ele>
        <time>2024-07-08T11:53:11Z</time>
      </trkpt>
      <trkpt lat="45.14033" lon="6.11597">
        <ele>2646</ele>
        <time>2024-07-08T11:53:12Z</time>
      </trkpt>
      <trkpt lat="45.14032" lon="6.11596">
        <ele>2646</ele>
        <time>2024-07-08T11:53:13Z</time>
      </trkpt>
      <trkpt lat="45.14031" lon="6.11596">
        <ele>2646</ele>
        <time>2024-07-08T11:53:14Z</time>
      </trkpt>
      <trkpt lat="45.14029" lon="6.11596">
        <ele>2646.1</ele>
        <time>2024-07-08T11:53:15Z</time>
      </trkpt>
      <trkpt lat="45.14028" lon="6.11596">
        <ele>2646.1</ele>
        <time>2024-07-08T11:53:16Z</time>
      </trkpt>
      <trkpt lat="45.14027" lon="6.11595">
        <ele>2646.1</ele>
        <time>2024-07-08T11:53:17Z</time>
      </trkpt>
      <trkpt lat="45.14025" lon="6.11595">
        <ele>2646.1</ele>
        <time>2024-07-08T11:53:18Z</time>
      </trkpt>
      <trkpt lat="45.14024" lon="6.11595">
        <ele>2646.1</ele>
        <time>2024-07-08T11:53:19Z</time>
      </trkpt>
      <trkpt lat="45.14023" lon="6.11594">
        <ele>2646.1</ele>
        <time>2024-07-08T11:53:20Z</time>
      </trkpt>
      <trkpt lat="45.14022" lon="6.11594">
        <ele>2646.1</ele>
        <time>2024-07-08T11:53:21Z</time>
      </trkpt>
      <trkpt lat="45.14021" lon="6.11593">
        <ele>2646.1</ele>
        <time>2024-07-08T11:53:22Z</time>
      </trkpt>
      <trkpt lat="45.14019" lon="6.11591">
        <ele>2646.2</ele>
        <time>2024-07-08T11:53:23Z</time>
      </trkpt>
      <trkpt lat="45.14018" lon="6.11591">
        <ele>2646.2</ele>
        <time>2024-07-08T11:53:24Z</time>
      </trkpt>
      <trkpt lat="45.14017" lon="6.1159">
        <ele>2646.2</ele>
        <time>2024-07-08T11:53:25Z</time>
      </trkpt>
      <trkpt lat="45.14015" lon="6.11589">
        <ele>2646.2</ele>
        <time>2024-07-08T11:53:26Z</time>
      </trkpt>
      <trkpt lat="45.14015" lon="6.11589">
        <ele>2646.2</ele>
        <time>2024-07-08T11:53:27Z</time>
      </trkpt>
      <trkpt lat="45.14014" lon="6.11588">
        <ele>2646.2</ele>
        <time>2024-07-08T11:53:28Z</time>
      </trkpt>
      <trkpt lat="45.14012" lon="6.11586">
        <ele>2646.2</ele>
        <time>2024-07-08T11:53:29Z</time>
      </trkpt>
      <trkpt lat="45.14012" lon="6.11586">
        <ele>2646.2</ele>
        <time>2024-07-08T11:53:30Z</time>
      </trkpt>
      <trkpt lat="45.14011" lon="6.11585">
        <ele>2646.2</ele>
        <time>2024-07-08T11:53:31Z</time>
      </trkpt>
      <trkpt lat="45.14009" lon="6.11584">
        <ele>2646.3</ele>
        <time>2024-07-08T11:53:32Z</time>
      </trkpt>
      <trkpt lat="45.14008" lon="6.11584">
        <ele>2646.3</ele>
        <time>2024-07-08T11:53:33Z</time>
      </trkpt>
      <trkpt lat="45.14007" lon="6.11583">
        <ele>2646.3</ele>
        <time>2024-07-08T11:53:34Z</time>
      </trkpt>
      <trkpt lat="45.14006" lon="6.11582">
        <ele>2646.3</ele>
        <time>2024-07-08T11:53:35Z</time>
      </trkpt>
      <trkpt lat="45.14005" lon="6.11581">
        <ele>2646.3</ele>
        <time>2024-07-08T11:53:36Z</time>
      </trkpt>
      <trkpt lat="45.14004" lon="6.1158">
        <ele>2646.3</ele>
        <time>2024-07-08T11:53:37Z</time>
      </trkpt>
      <trkpt lat="45.14003" lon="6.1158">
        <ele>2646.3</ele>
        <time>2024-07-08T11:53:38Z</time>
      </trkpt>
      <trkpt lat="45.14002" lon="6.11579">
        <ele>2646.3</ele>
        <time>2024-07-08T11:53:39Z</time>
      </trkpt>
      <trkpt lat="45.14001" lon="6.11578">
        <ele>2646.3</ele>
        <time>2024-07-08T11:53:40Z</time>
      </trkpt>
      <trkpt lat="45.14" lon="6.11578">
        <ele>2646.3</ele>
        <time>2024-07-08T11:53:41Z</time>
      </trkpt>
      <trkpt lat="45.13999" lon="6.11577">
        <ele>2646.3</ele>
        <time>2024-07-08T11:53:42Z</time>
      </trkpt>
      <trkpt lat="45.13998" lon="6.11576">
        <ele>2646.4</ele>
        <time>2024-07-08T11:53:43Z</time>
      </trkpt>
      <trkpt lat="45.13997" lon="6.11575">
        <ele>2646.4</ele>
        <time>2024-07-08T11:53:44Z</time>
      </trkpt>
      <trkpt lat="45.13996" lon="6.11574">
        <ele>2646.4</ele>
        <time>2024-07-08T11:53:45Z</time>
      </trkpt>
      <trkpt lat="45.13995" lon="6.11574">
        <ele>2646.4</ele>
        <time>2024-07-08T11:53:46Z</time>
      </trkpt>
      <trkpt lat="45.13993" lon="6.11574">
        <ele>2646.4</ele>
        <time>2024-07-08T11:53:47Z</time>
      </trkpt>
      <trkpt lat="45.13993" lon="6.11574">
        <ele>2646.5</ele>
        <time>2024-07-08T11:53:48Z</time>
      </trkpt>
      <trkpt lat="45.13992" lon="6.11574">
        <ele>2646.5</ele>
        <time>2024-07-08T11:53:49Z</time>
      </trkpt>
      <trkpt lat="45.13991" lon="6.11575">
        <ele>2646.5</ele>
        <time>2024-07-08T11:53:50Z</time>
      </trkpt>
      <trkpt lat="45.13991" lon="6.11574">
        <ele>2646.5</ele>
        <time>2024-07-08T11:53:51Z</time>
      </trkpt>
      <trkpt lat="45.1399" lon="6.11574">
        <ele>2646.5</ele>
        <time>2024-07-08T11:53:52Z</time>
      </trkpt>
      <trkpt lat="45.13989" lon="6.11573">
        <ele>2646.5</ele>
        <time>2024-07-08T11:53:53Z</time>
      </trkpt>
      <trkpt lat="45.13988" lon="6.11573">
        <ele>2646.5</ele>
        <time>2024-07-08T11:53:54Z</time>
      </trkpt>
      <trkpt lat="45.13986" lon="6.11573">
        <ele>2646.6</ele>
        <time>2024-07-08T11:53:55Z</time>
      </trkpt>
      <trkpt lat="45.13985" lon="6.11573">
        <ele>2646.6</ele>
        <time>2024-07-08T11:53:56Z</time>
      </trkpt>
      <trkpt lat="45.13984" lon="6.11573">
        <ele>2646.6</ele>
        <time>2024-07-08T11:53:57Z</time>
      </trkpt>
      <trkpt lat="45.13983" lon="6.11572">
        <ele>2646.6</ele>
        <time>2024-07-08T11:53:58Z</time>
      </trkpt>
      <trkpt lat="45.13982" lon="6.11572">
        <ele>2646.6</ele>
        <time>2024-07-08T11:53:59Z</time>
      </trkpt>
      <trkpt lat="45.13981" lon="6.11572">
        <ele>2646.6</ele>
        <time>2024-07-08T11:54:00Z</time>
      </trkpt>
      <trkpt lat="45.1398" lon="6.11572">
        <ele>2646.7</ele>
        <time>2024-07-08T11:54:01Z</time>
      </trkpt>
      <trkpt lat="45.13979" lon="6.11572">
        <ele>2646.7</ele>
        <time>2024-07-08T11:54:02Z</time>
      </trkpt>
      <trkpt lat="45.13978" lon="6.11572">
        <ele>2646.7</ele>
        <time>2024-07-08T11:54:03Z</time>
      </trkpt>
      <trkpt lat="45.13977" lon="6.11572">
        <ele>2646.7</ele>
        <time>2024-07-08T11:54:04Z</time>
      </trkpt>
      <trkpt lat="45.13977" lon="6.11572">
        <ele>2646.7</ele>
        <time>2024-07-08T11:54:05Z</time>
      </trkpt>
      <trkpt lat="45.13976" lon="6.11572">
        <ele>2646.7</ele>
        <time>2024-07-08T11:54:06Z</time>
      </trkpt>
      <trkpt lat="45.13974" lon="6.11572">
        <ele>2646.7</ele>
        <time>2024-07-08T11:54:07Z</time>
      </trkpt>
      <trkpt lat="45.13972" lon="6.11571">
        <ele>2646.7</ele>
        <time>2024-07-08T11:54:08Z</time>
      </trkpt>
      <trkpt lat="45.13971" lon="6.11571">
        <ele>2646.7</ele>
        <time>2024-07-08T11:54:09Z</time>
      </trkpt>
      <trkpt lat="45.13971" lon="6.1157">
        <ele>2646.7</ele>
        <time>2024-07-08T11:54:10Z</time>
      </trkpt>
      <trkpt lat="45.13969" lon="6.1157">
        <ele>2646.7</ele>
        <time>2024-07-08T11:54:11Z</time>
      </trkpt>
      <trkpt lat="45.13968" lon="6.1157">
        <ele>2646.8</ele>
        <time>2024-07-08T11:54:12Z</time>
      </trkpt>
      <trkpt lat="45.13967" lon="6.1157">
        <ele>2646.8</ele>
        <time>2024-07-08T11:54:13Z</time>
      </trkpt>
      <trkpt lat="45.13965" lon="6.1157">
        <ele>2646.8</ele>
        <time>2024-07-08T11:54:14Z</time>
      </trkpt>
      <trkpt lat="45.13964" lon="6.1157">
        <ele>2646.8</ele>
        <time>2024-07-08T11:54:15Z</time>
      </trkpt>
      <trkpt lat="45.13963" lon="6.1157">
        <ele>2646.8</ele>
        <time>2024-07-08T11:54:16Z</time>
      </trkpt>
      <trkpt lat="45.13962" lon="6.1157">
        <ele>2646.8</ele>
        <time>2024-07-08T11:54:17Z</time>
      </trkpt>
      <trkpt lat="45.13961" lon="6.11569">
        <ele>2646.8</ele>
        <time>2024-07-08T11:54:18Z</time>
      </trkpt>
      <trkpt lat="45.1396" lon="6.11569">
        <ele>2646.8</ele>
        <time>2024-07-08T11:54:19Z</time>
      </trkpt>
      <trkpt lat="45.13959" lon="6.11569">
        <ele>2646.8</ele>
        <time>2024-07-08T11:54:20Z</time>
      </trkpt>
      <trkpt lat="45.13958" lon="6.11568">
        <ele>2646.8</ele>
        <time>2024-07-08T11:54:21Z</time>
      </trkpt>
      <trkpt lat="45.13957" lon="6.11568">
        <ele>2646.8</ele>
        <time>2024-07-08T11:54:22Z</time>
      </trkpt>
      <trkpt lat="45.13956" lon="6.11568">
        <ele>2646.8</ele>
        <time>2024-07-08T11:54:23Z</time>
      </trkpt>
      <trkpt lat="45.13955" lon="6.11568">
        <ele>2646.8</ele>
        <time>2024-07-08T11:54:24Z</time>
      </trkpt>
      <trkpt lat="45.13953" lon="6.11566">
        <ele>2646.8</ele>
        <time>2024-07-08T11:54:25Z</time>
      </trkpt>
      <trkpt lat="45.13952" lon="6.11565">
        <ele>2646.8</ele>
        <time>2024-07-08T11:54:26Z</time>
      </trkpt>
      <trkpt lat="45.13952" lon="6.11564">
        <ele>2646.9</ele>
        <time>2024-07-08T11:54:27Z</time>
      </trkpt>
      <trkpt lat="45.13951" lon="6.11563">
        <ele>2646.9</ele>
        <time>2024-07-08T11:54:28Z</time>
      </trkpt>
      <trkpt lat="45.1395" lon="6.11562">
        <ele>2646.9</ele>
        <time>2024-07-08T11:54:29Z</time>
      </trkpt>
      <trkpt lat="45.13949" lon="6.1156">
        <ele>2646.9</ele>
        <time>2024-07-08T11:54:30Z</time>
      </trkpt>
      <trkpt lat="45.13948" lon="6.11559">
        <ele>2646.9</ele>
        <time>2024-07-08T11:54:31Z</time>
      </trkpt>
      <trkpt lat="45.13948" lon="6.11558">
        <ele>2647</ele>
        <time>2024-07-08T11:54:32Z</time>
      </trkpt>
      <trkpt lat="45.13947" lon="6.11557">
        <ele>2647</ele>
        <time>2024-07-08T11:54:33Z</time>
      </trkpt>
      <trkpt lat="45.13945" lon="6.11556">
        <ele>2647</ele>
        <time>2024-07-08T11:54:34Z</time>
      </trkpt>
      <trkpt lat="45.13944" lon="6.11555">
        <ele>2647</ele>
        <time>2024-07-08T11:54:35Z</time>
      </trkpt>
      <trkpt lat="45.13944" lon="6.11554">
        <ele>2647.1</ele>
        <time>2024-07-08T11:54:36Z</time>
      </trkpt>
      <trkpt lat="45.13943" lon="6.11553">
        <ele>2647.1</ele>
        <time>2024-07-08T11:54:37Z</time>
      </trkpt>
      <trkpt lat="45.13943" lon="6.11552">
        <ele>2647.1</ele>
        <time>2024-07-08T11:54:38Z</time>
      </trkpt>
      <trkpt lat="45.13942" lon="6.1155">
        <ele>2647.1</ele>
        <time>2024-07-08T11:54:39Z</time>
      </trkpt>
      <trkpt lat="45.13941" lon="6.11549">
        <ele>2647.1</ele>
        <time>2024-07-08T11:54:40Z</time>
      </trkpt>
      <trkpt lat="45.13941" lon="6.11547">
        <ele>2647.2</ele>
        <time>2024-07-08T11:54:41Z</time>
      </trkpt>
      <trkpt lat="45.1394" lon="6.11546">
        <ele>2647.2</ele>
        <time>2024-07-08T11:54:42Z</time>
      </trkpt>
      <trkpt lat="45.13939" lon="6.11545">
        <ele>2647.2</ele>
        <time>2024-07-08T11:54:43Z</time>
      </trkpt>
      <trkpt lat="45.13938" lon="6.11544">
        <ele>2647.2</ele>
        <time>2024-07-08T11:54:44Z</time>
      </trkpt>
      <trkpt lat="45.13938" lon="6.11543">
        <ele>2647.2</ele>
        <time>2024-07-08T11:54:45Z</time>
      </trkpt>
      <trkpt lat="45.13937" lon="6.11542">
        <ele>2647.3</ele>
        <time>2024-07-08T11:54:46Z</time>
      </trkpt>
      <trkpt lat="45.13936" lon="6.11541">
        <ele>2647.3</ele>
        <time>2024-07-08T11:54:47Z</time>
      </trkpt>
      <trkpt lat="45.13935" lon="6.1154">
        <ele>2647.3</ele>
        <time>2024-07-08T11:54:48Z</time>
      </trkpt>
      <trkpt lat="45.13933" lon="6.11538">
        <ele>2647.3</ele>
        <time>2024-07-08T11:54:49Z</time>
      </trkpt>
      <trkpt lat="45.13933" lon="6.11537">
        <ele>2647.4</ele>
        <time>2024-07-08T11:54:50Z</time>
      </trkpt>
      <trkpt lat="45.13932" lon="6.11537">
        <ele>2647.4</ele>
        <time>2024-07-08T11:54:51Z</time>
      </trkpt>
      <trkpt lat="45.13931" lon="6.11537">
        <ele>2647.4</ele>
        <time>2024-07-08T11:54:52Z</time>
      </trkpt>
      <trkpt lat="45.1393" lon="6.11536">
        <ele>2647.4</ele>
        <time>2024-07-08T11:54:53Z</time>
      </trkpt>
      <trkpt lat="45.13929" lon="6.11536">
        <ele>2647.4</ele>
        <time>2024-07-08T11:54:54Z</time>
      </trkpt>
      <trkpt lat="45.13928" lon="6.11535">
        <ele>2647.4</ele>
        <time>2024-07-08T11:54:55Z</time>
      </trkpt>
      <trkpt lat="45.13927" lon="6.11535">
        <ele>2647.5</ele>
        <time>2024-07-08T11:54:56Z</time>
      </trkpt>
      <trkpt lat="45.13926" lon="6.11534">
        <ele>2647.5</ele>
        <time>2024-07-08T11:54:57Z</time>
      </trkpt>
      <trkpt lat="45.13925" lon="6.11534">
        <ele>2647.5</ele>
        <time>2024-07-08T11:54:58Z</time>
      </trkpt>
      <trkpt lat="45.13923" lon="6.11533">
        <ele>2647.5</ele>
        <time>2024-07-08T11:54:59Z</time>
      </trkpt>
      <trkpt lat="45.13923" lon="6.11533">
        <ele>2647.5</ele>
        <time>2024-07-08T11:55:00Z</time>
      </trkpt>
      <trkpt lat="45.13921" lon="6.11532">
        <ele>2647.6</ele>
        <time>2024-07-08T11:55:01Z</time>
      </trkpt>
      <trkpt lat="45.13921" lon="6.11531">
        <ele>2647.6</ele>
        <time>2024-07-08T11:55:02Z</time>
      </trkpt>
      <trkpt lat="45.1392" lon="6.11531">
        <ele>2647.6</ele>
        <time>2024-07-08T11:55:03Z</time>
      </trkpt>
      <trkpt lat="45.13919" lon="6.11531">
        <ele>2647.6</ele>
        <time>2024-07-08T11:55:04Z</time>
      </trkpt>
      <trkpt lat="45.13918" lon="6.1153">
        <ele>2647.6</ele>
        <time>2024-07-08T11:55:05Z</time>
      </trkpt>
      <trkpt lat="45.13917" lon="6.1153">
        <ele>2647.7</ele>
        <time>2024-07-08T11:55:06Z</time>
      </trkpt>
      <trkpt lat="45.13916" lon="6.11529">
        <ele>2647.7</ele>
        <time>2024-07-08T11:55:07Z</time>
      </trkpt>
      <trkpt lat="45.13916" lon="6.11528">
        <ele>2647.7</ele>
        <time>2024-07-08T11:55:08Z</time>
      </trkpt>
      <trkpt lat="45.13915" lon="6.11527">
        <ele>2647.8</ele>
        <time>2024-07-08T11:55:09Z</time>
      </trkpt>
      <trkpt lat="45.13914" lon="6.11526">
        <ele>2647.8</ele>
        <time>2024-07-08T11:55:10Z</time>
      </trkpt>
      <trkpt lat="45.13912" lon="6.11524">
        <ele>2647.9</ele>
        <time>2024-07-08T11:55:11Z</time>
      </trkpt>
      <trkpt lat="45.13911" lon="6.11523">
        <ele>2647.9</ele>
        <time>2024-07-08T11:55:12Z</time>
      </trkpt>
      <trkpt lat="45.1391" lon="6.11522">
        <ele>2648</ele>
        <time>2024-07-08T11:55:13Z</time>
      </trkpt>
      <trkpt lat="45.13909" lon="6.11521">
        <ele>2648</ele>
        <time>2024-07-08T11:55:14Z</time>
      </trkpt>
      <trkpt lat="45.13908" lon="6.1152">
        <ele>2648.1</ele>
        <time>2024-07-08T11:55:15Z</time>
      </trkpt>
      <trkpt lat="45.13908" lon="6.11519">
        <ele>2648.1</ele>
        <time>2024-07-08T11:55:16Z</time>
      </trkpt>
      <trkpt lat="45.13907" lon="6.11518">
        <ele>2648.2</ele>
        <time>2024-07-08T11:55:17Z</time>
      </trkpt>
      <trkpt lat="45.13906" lon="6.11518">
        <ele>2648.2</ele>
        <time>2024-07-08T11:55:18Z</time>
      </trkpt>
      <trkpt lat="45.13905" lon="6.11518">
        <ele>2648.3</ele>
        <time>2024-07-08T11:55:19Z</time>
      </trkpt>
      <trkpt lat="45.13904" lon="6.11518">
        <ele>2648.3</ele>
        <time>2024-07-08T11:55:20Z</time>
      </trkpt>
      <trkpt lat="45.13903" lon="6.11518">
        <ele>2648.4</ele>
        <time>2024-07-08T11:55:21Z</time>
      </trkpt>
      <trkpt lat="45.13902" lon="6.11517">
        <ele>2648.5</ele>
        <time>2024-07-08T11:55:22Z</time>
      </trkpt>
      <trkpt lat="45.13902" lon="6.11516">
        <ele>2648.5</ele>
        <time>2024-07-08T11:55:23Z</time>
      </trkpt>
      <trkpt lat="45.13901" lon="6.11515">
        <ele>2648.6</ele>
        <time>2024-07-08T11:55:24Z</time>
      </trkpt>
      <trkpt lat="45.139" lon="6.11514">
        <ele>2648.7</ele>
        <time>2024-07-08T11:55:25Z</time>
      </trkpt>
      <trkpt lat="45.13899" lon="6.11514">
        <ele>2648.7</ele>
        <time>2024-07-08T11:55:26Z</time>
      </trkpt>
      <trkpt lat="45.13898" lon="6.11513">
        <ele>2648.8</ele>
        <time>2024-07-08T11:55:27Z</time>
      </trkpt>
      <trkpt lat="45.13898" lon="6.11512">
        <ele>2648.9</ele>
        <time>2024-07-08T11:55:28Z</time>
      </trkpt>
      <trkpt lat="45.13897" lon="6.11512">
        <ele>2648.9</ele>
        <time>2024-07-08T11:55:29Z</time>
      </trkpt>
      <trkpt lat="45.13896" lon="6.11511">
        <ele>2649</ele>
        <time>2024-07-08T11:55:30Z</time>
      </trkpt>
      <trkpt lat="45.13895" lon="6.1151">
        <ele>2649.1</ele>
        <time>2024-07-08T11:55:31Z</time>
      </trkpt>
      <trkpt lat="45.13895" lon="6.11509">
        <ele>2649.2</ele>
        <time>2024-07-08T11:55:32Z</time>
      </trkpt>
      <trkpt lat="45.13894" lon="6.11508">
        <ele>2649.2</ele>
        <time>2024-07-08T11:55:33Z</time>
      </trkpt>
      <trkpt lat="45.13893" lon="6.11507">
        <ele>2649.3</ele>
        <time>2024-07-08T11:55:34Z</time>
      </trkpt>
      <trkpt lat="45.13892" lon="6.11506">
        <ele>2649.4</ele>
        <time>2024-07-08T11:55:35Z</time>
      </trkpt>
      <trkpt lat="45.13892" lon="6.11505">
        <ele>2649.4</ele>
        <time>2024-07-08T11:55:36Z</time>
      </trkpt>
      <trkpt lat="45.13891" lon="6.11504">
        <ele>2649.5</ele>
        <time>2024-07-08T11:55:37Z</time>
      </trkpt>
      <trkpt lat="45.1389" lon="6.11503">
        <ele>2649.6</ele>
        <time>2024-07-08T11:55:38Z</time>
      </trkpt>
      <trkpt lat="45.1389" lon="6.11502">
        <ele>2649.6</ele>
        <time>2024-07-08T11:55:39Z</time>
      </trkpt>
      <trkpt lat="45.13889" lon="6.11501">
        <ele>2649.7</ele>
        <time>2024-07-08T11:55:40Z</time>
      </trkpt>
      <trkpt lat="45.13888" lon="6.115">
        <ele>2649.7</ele>
        <time>2024-07-08T11:55:41Z</time>
      </trkpt>
      <trkpt lat="45.13888" lon="6.11499">
        <ele>2649.8</ele>
        <time>2024-07-08T11:55:42Z</time>
      </trkpt>
      <trkpt lat="45.13887" lon="6.11498">
        <ele>2649.9</ele>
        <time>2024-07-08T11:55:43Z</time>
      </trkpt>
      <trkpt lat="45.13886" lon="6.11497">
        <ele>2649.9</ele>
        <time>2024-07-08T11:55:44Z</time>
      </trkpt>
      <trkpt lat="45.13885" lon="6.11496">
        <ele>2650</ele>
        <time>2024-07-08T11:55:45Z</time>
      </trkpt>
      <trkpt lat="45.13884" lon="6.11495">
        <ele>2650</ele>
        <time>2024-07-08T11:55:46Z</time>
      </trkpt>
      <trkpt lat="45.13884" lon="6.11494">
        <ele>2650</ele>
        <time>2024-07-08T11:55:47Z</time>
      </trkpt>
      <trkpt lat="45.13883" lon="6.11493">
        <ele>2650</ele>
        <time>2024-07-08T11:55:48Z</time>
      </trkpt>
      <trkpt lat="45.13882" lon="6.11492">
        <ele>2650.1</ele>
        <time>2024-07-08T11:55:49Z</time>
      </trkpt>
      <trkpt lat="45.13882" lon="6.11491">
        <ele>2650.1</ele>
        <time>2024-07-08T11:55:50Z</time>
      </trkpt>
      <trkpt lat="45.13881" lon="6.11489">
        <ele>2650.2</ele>
        <time>2024-07-08T11:55:51Z</time>
      </trkpt>
      <trkpt lat="45.13881" lon="6.11488">
        <ele>2650.2</ele>
        <time>2024-07-08T11:55:52Z</time>
      </trkpt>
      <trkpt lat="45.13881" lon="6.11486">
        <ele>2650.2</ele>
        <time>2024-07-08T11:55:53Z</time>
      </trkpt>
      <trkpt lat="45.13881" lon="6.11485">
        <ele>2650.2</ele>
        <time>2024-07-08T11:55:54Z</time>
      </trkpt>
      <trkpt lat="45.1388" lon="6.11483">
        <ele>2650.3</ele>
        <time>2024-07-08T11:55:55Z</time>
      </trkpt>
      <trkpt lat="45.1388" lon="6.11482">
        <ele>2650.3</ele>
        <time>2024-07-08T11:55:56Z</time>
      </trkpt>
      <trkpt lat="45.13879" lon="6.11481">
        <ele>2650.3</ele>
        <time>2024-07-08T11:55:57Z</time>
      </trkpt>
      <trkpt lat="45.13879" lon="6.1148">
        <ele>2650.3</ele>
        <time>2024-07-08T11:55:58Z</time>
      </trkpt>
      <trkpt lat="45.13879" lon="6.11479">
        <ele>2650.3</ele>
        <time>2024-07-08T11:55:59Z</time>
      </trkpt>
      <trkpt lat="45.13878" lon="6.11478">
        <ele>2650.3</ele>
        <time>2024-07-08T11:56:00Z</time>
      </trkpt>
      <trkpt lat="45.13877" lon="6.11477">
        <ele>2650.3</ele>
        <time>2024-07-08T11:56:01Z</time>
      </trkpt>
      <trkpt lat="45.13876" lon="6.11477">
        <ele>2650.3</ele>
        <time>2024-07-08T11:56:02Z</time>
      </trkpt>
      <trkpt lat="45.13875" lon="6.11476">
        <ele>2650.4</ele>
        <time>2024-07-08T11:56:03Z</time>
      </trkpt>
      <trkpt lat="45.13874" lon="6.11475">
        <ele>2650.4</ele>
        <time>2024-07-08T11:56:04Z</time>
      </trkpt>
      <trkpt lat="45.13873" lon="6.11475">
        <ele>2650.4</ele>
        <time>2024-07-08T11:56:05Z</time>
      </trkpt>
      <trkpt lat="45.13872" lon="6.11474">
        <ele>2650.4</ele>
        <time>2024-07-08T11:56:06Z</time>
      </trkpt>
      <trkpt lat="45.13871" lon="6.11473">
        <ele>2650.4</ele>
        <time>2024-07-08T11:56:07Z</time>
      </trkpt>
      <trkpt lat="45.1387" lon="6.11472">
        <ele>2650.4</ele>
        <time>2024-07-08T11:56:08Z</time>
      </trkpt>
      <trkpt lat="45.1387" lon="6.11472">
        <ele>2650.4</ele>
        <time>2024-07-08T11:56:09Z</time>
      </trkpt>
      <trkpt lat="45.13869" lon="6.11471">
        <ele>2650.4</ele>
        <time>2024-07-08T11:56:10Z</time>
      </trkpt>
      <trkpt lat="45.13868" lon="6.11471">
        <ele>2650.4</ele>
        <time>2024-07-08T11:56:11Z</time>
      </trkpt>
      <trkpt lat="45.13867" lon="6.1147">
        <ele>2650.4</ele>
        <time>2024-07-08T11:56:12Z</time>
      </trkpt>
      <trkpt lat="45.13866" lon="6.11469">
        <ele>2650.5</ele>
        <time>2024-07-08T11:56:13Z</time>
      </trkpt>
      <trkpt lat="45.13866" lon="6.11469">
        <ele>2650.5</ele>
        <time>2024-07-08T11:56:14Z</time>
      </trkpt>
      <trkpt lat="45.13865" lon="6.11469">
        <ele>2650.5</ele>
        <time>2024-07-08T11:56:15Z</time>
      </trkpt>
      <trkpt lat="45.13865" lon="6.11468">
        <ele>2650.5</ele>
        <time>2024-07-08T11:56:16Z</time>
      </trkpt>
      <trkpt lat="45.13864" lon="6.11468">
        <ele>2650.5</ele>
        <time>2024-07-08T11:56:17Z</time>
      </trkpt>
      <trkpt lat="45.13863" lon="6.11468">
        <ele>2650.5</ele>
        <time>2024-07-08T11:56:18Z</time>
      </trkpt>
      <trkpt lat="45.13862" lon="6.11468">
        <ele>2650.5</ele>
        <time>2024-07-08T11:56:19Z</time>
      </trkpt>
      <trkpt lat="45.13861" lon="6.11468">
        <ele>2650.5</ele>
        <time>2024-07-08T11:56:20Z</time>
      </trkpt>
      <trkpt lat="45.1386" lon="6.11468">
        <ele>2650.5</ele>
        <time>2024-07-08T11:56:21Z</time>
      </trkpt>
      <trkpt lat="45.13859" lon="6.11468">
        <ele>2650.5</ele>
        <time>2024-07-08T11:56:22Z</time>
      </trkpt>
      <trkpt lat="45.13858" lon="6.11468">
        <ele>2650.5</ele>
        <time>2024-07-08T11:56:23Z</time>
      </trkpt>
      <trkpt lat="45.13857" lon="6.11468">
        <ele>2650.5</ele>
        <time>2024-07-08T11:56:24Z</time>
      </trkpt>
      <trkpt lat="45.13857" lon="6.11468">
        <ele>2650.5</ele>
        <time>2024-07-08T11:56:25Z</time>
      </trkpt>
      <trkpt lat="45.13856" lon="6.11468">
        <ele>2650.5</ele>
        <time>2024-07-08T11:56:26Z</time>
      </trkpt>
      <trkpt lat="45.13855" lon="6.11468">
        <ele>2650.6</ele>
        <time>2024-07-08T11:56:27Z</time>
      </trkpt>
      <trkpt lat="45.13854" lon="6.11468">
        <ele>2650.6</ele>
        <time>2024-07-08T11:56:28Z</time>
      </trkpt>
      <trkpt lat="45.13853" lon="6.11468">
        <ele>2650.6</ele>
        <time>2024-07-08T11:56:29Z</time>
      </trkpt>
      <trkpt lat="45.13852" lon="6.11468">
        <ele>2650.6</ele>
        <time>2024-07-08T11:56:30Z</time>
      </trkpt>
      <trkpt lat="45.13851" lon="6.11468">
        <ele>2650.6</ele>
        <time>2024-07-08T11:56:31Z</time>
      </trkpt>
      <trkpt lat="45.1385" lon="6.11468">
        <ele>2650.6</ele>
        <time>2024-07-08T11:56:32Z</time>
      </trkpt>
      <trkpt lat="45.1385" lon="6.11468">
        <ele>2650.6</ele>
        <time>2024-07-08T11:56:33Z</time>
      </trkpt>
      <trkpt lat="45.13849" lon="6.11469">
        <ele>2650.6</ele>
        <time>2024-07-08T11:56:34Z</time>
      </trkpt>
      <trkpt lat="45.13848" lon="6.11469">
        <ele>2650.6</ele>
        <time>2024-07-08T11:56:35Z</time>
      </trkpt>
      <trkpt lat="45.13847" lon="6.11469">
        <ele>2650.6</ele>
        <time>2024-07-08T11:56:36Z</time>
      </trkpt>
      <trkpt lat="45.13846" lon="6.11469">
        <ele>2650.6</ele>
        <time>2024-07-08T11:56:37Z</time>
      </trkpt>
      <trkpt lat="45.13845" lon="6.11468">
        <ele>2650.6</ele>
        <time>2024-07-08T11:56:38Z</time>
      </trkpt>
      <trkpt lat="45.13844" lon="6.11467">
        <ele>2650.7</ele>
        <time>2024-07-08T11:56:39Z</time>
      </trkpt>
      <trkpt lat="45.13845" lon="6.11465">
        <ele>2650.7</ele>
        <time>2024-07-08T11:56:40Z</time>
      </trkpt>
      <trkpt lat="45.13844" lon="6.11463">
        <ele>2650.7</ele>
        <time>2024-07-08T11:56:41Z</time>
      </trkpt>
      <trkpt lat="45.13844" lon="6.11462">
        <ele>2650.7</ele>
        <time>2024-07-08T11:56:42Z</time>
      </trkpt>
      <trkpt lat="45.13844" lon="6.11461">
        <ele>2650.7</ele>
        <time>2024-07-08T11:56:43Z</time>
      </trkpt>
      <trkpt lat="45.13844" lon="6.11458">
        <ele>2650.8</ele>
        <time>2024-07-08T11:56:44Z</time>
      </trkpt>
      <trkpt lat="45.13843" lon="6.11458">
        <ele>2650.8</ele>
        <time>2024-07-08T11:56:45Z</time>
      </trkpt>
      <trkpt lat="45.13843" lon="6.11457">
        <ele>2650.8</ele>
        <time>2024-07-08T11:56:46Z</time>
      </trkpt>
      <trkpt lat="45.13843" lon="6.11456">
        <ele>2650.8</ele>
        <time>2024-07-08T11:56:47Z</time>
      </trkpt>
      <trkpt lat="45.13842" lon="6.11455">
        <ele>2650.9</ele>
        <time>2024-07-08T11:56:48Z</time>
      </trkpt>
      <trkpt lat="45.13841" lon="6.11455">
        <ele>2650.9</ele>
        <time>2024-07-08T11:56:49Z</time>
      </trkpt>
      <trkpt lat="45.1384" lon="6.11455">
        <ele>2651</ele>
        <time>2024-07-08T11:56:50Z</time>
      </trkpt>
      <trkpt lat="45.13839" lon="6.11454">
        <ele>2651</ele>
        <time>2024-07-08T11:56:51Z</time>
      </trkpt>
      <trkpt lat="45.13838" lon="6.11454">
        <ele>2651</ele>
        <time>2024-07-08T11:56:52Z</time>
      </trkpt>
      <trkpt lat="45.13837" lon="6.11453">
        <ele>2651.1</ele>
        <time>2024-07-08T11:56:53Z</time>
      </trkpt>
      <trkpt lat="45.13837" lon="6.11454">
        <ele>2651.1</ele>
        <time>2024-07-08T11:56:54Z</time>
      </trkpt>
      <trkpt lat="45.13835" lon="6.11454">
        <ele>2651.2</ele>
        <time>2024-07-08T11:56:55Z</time>
      </trkpt>
      <trkpt lat="45.13835" lon="6.11454">
        <ele>2651.2</ele>
        <time>2024-07-08T11:56:56Z</time>
      </trkpt>
      <trkpt lat="45.13834" lon="6.11454">
        <ele>2651.3</ele>
        <time>2024-07-08T11:56:57Z</time>
      </trkpt>
      <trkpt lat="45.13833" lon="6.11454">
        <ele>2651.3</ele>
        <time>2024-07-08T11:56:58Z</time>
      </trkpt>
      <trkpt lat="45.13832" lon="6.11454">
        <ele>2651.3</ele>
        <time>2024-07-08T11:56:59Z</time>
      </trkpt>
      <trkpt lat="45.13831" lon="6.11454">
        <ele>2651.4</ele>
        <time>2024-07-08T11:57:00Z</time>
      </trkpt>
      <trkpt lat="45.13831" lon="6.11453">
        <ele>2651.5</ele>
        <time>2024-07-08T11:57:01Z</time>
      </trkpt>
      <trkpt lat="45.1383" lon="6.11452">
        <ele>2651.5</ele>
        <time>2024-07-08T11:57:02Z</time>
      </trkpt>
      <trkpt lat="45.13829" lon="6.11451">
        <ele>2651.6</ele>
        <time>2024-07-08T11:57:03Z</time>
      </trkpt>
      <trkpt lat="45.13828" lon="6.1145">
        <ele>2651.7</ele>
        <time>2024-07-08T11:57:04Z</time>
      </trkpt>
      <trkpt lat="45.13827" lon="6.11449">
        <ele>2651.8</ele>
        <time>2024-07-08T11:57:05Z</time>
      </trkpt>
      <trkpt lat="45.13827" lon="6.11449">
        <ele>2651.8</ele>
        <time>2024-07-08T11:57:06Z</time>
      </trkpt>
      <trkpt lat="45.13826" lon="6.11449">
        <ele>2651.9</ele>
        <time>2024-07-08T11:57:07Z</time>
      </trkpt>
      <trkpt lat="45.13825" lon="6.1145">
        <ele>2651.9</ele>
        <time>2024-07-08T11:57:08Z</time>
      </trkpt>
      <trkpt lat="45.13825" lon="6.1145">
        <ele>2652</ele>
        <time>2024-07-08T11:57:09Z</time>
      </trkpt>
      <trkpt lat="45.13824" lon="6.1145">
        <ele>2652.1</ele>
        <time>2024-07-08T11:57:10Z</time>
      </trkpt>
      <trkpt lat="45.13823" lon="6.11449">
        <ele>2652.1</ele>
        <time>2024-07-08T11:57:11Z</time>
      </trkpt>
      <trkpt lat="45.13822" lon="6.11449">
        <ele>2652.2</ele>
        <time>2024-07-08T11:57:12Z</time>
      </trkpt>
      <trkpt lat="45.13821" lon="6.11448">
        <ele>2652.3</ele>
        <time>2024-07-08T11:57:13Z</time>
      </trkpt>
      <trkpt lat="45.13821" lon="6.11447">
        <ele>2652.4</ele>
        <time>2024-07-08T11:57:14Z</time>
      </trkpt>
      <trkpt lat="45.1382" lon="6.11446">
        <ele>2652.5</ele>
        <time>2024-07-08T11:57:15Z</time>
      </trkpt>
      <trkpt lat="45.13819" lon="6.11446">
        <ele>2652.6</ele>
        <time>2024-07-08T11:57:16Z</time>
      </trkpt>
      <trkpt lat="45.13818" lon="6.11446">
        <ele>2652.7</ele>
        <time>2024-07-08T11:57:17Z</time>
      </trkpt>
      <trkpt lat="45.13817" lon="6.11445">
        <ele>2652.8</ele>
        <time>2024-07-08T11:57:18Z</time>
      </trkpt>
      <trkpt lat="45.13816" lon="6.11445">
        <ele>2652.9</ele>
        <time>2024-07-08T11:57:19Z</time>
      </trkpt>
      <trkpt lat="45.13815" lon="6.11444">
        <ele>2653</ele>
        <time>2024-07-08T11:57:20Z</time>
      </trkpt>
      <trkpt lat="45.13815" lon="6.11444">
        <ele>2653.1</ele>
        <time>2024-07-08T11:57:21Z</time>
      </trkpt>
      <trkpt lat="45.13814" lon="6.11443">
        <ele>2653.2</ele>
        <time>2024-07-08T11:57:22Z</time>
      </trkpt>
      <trkpt lat="45.13813" lon="6.11443">
        <ele>2653.3</ele>
        <time>2024-07-08T11:57:23Z</time>
      </trkpt>
      <trkpt lat="45.13812" lon="6.11443">
        <ele>2653.4</ele>
        <time>2024-07-08T11:57:24Z</time>
      </trkpt>
      <trkpt lat="45.13811" lon="6.11442">
        <ele>2653.5</ele>
        <time>2024-07-08T11:57:25Z</time>
      </trkpt>
      <trkpt lat="45.1381" lon="6.11441">
        <ele>2653.6</ele>
        <time>2024-07-08T11:57:26Z</time>
      </trkpt>
      <trkpt lat="45.13809" lon="6.11441">
        <ele>2653.7</ele>
        <time>2024-07-08T11:57:27Z</time>
      </trkpt>
      <trkpt lat="45.13809" lon="6.1144">
        <ele>2653.8</ele>
        <time>2024-07-08T11:57:28Z</time>
      </trkpt>
      <trkpt lat="45.13808" lon="6.1144">
        <ele>2653.8</ele>
        <time>2024-07-08T11:57:29Z</time>
      </trkpt>
      <trkpt lat="45.13807" lon="6.1144">
        <ele>2653.9</ele>
        <time>2024-07-08T11:57:30Z</time>
      </trkpt>
      <trkpt lat="45.13805" lon="6.1144">
        <ele>2654</ele>
        <time>2024-07-08T11:57:31Z</time>
      </trkpt>
      <trkpt lat="45.13804" lon="6.11441">
        <ele>2654.1</ele>
        <time>2024-07-08T11:57:32Z</time>
      </trkpt>
      <trkpt lat="45.13803" lon="6.11441">
        <ele>2654.2</ele>
        <time>2024-07-08T11:57:33Z</time>
      </trkpt>
      <trkpt lat="45.13802" lon="6.11442">
        <ele>2654.3</ele>
        <time>2024-07-08T11:57:34Z</time>
      </trkpt>
      <trkpt lat="45.13801" lon="6.11442">
        <ele>2654.4</ele>
        <time>2024-07-08T11:57:35Z</time>
      </trkpt>
      <trkpt lat="45.138" lon="6.11441">
        <ele>2654.4</ele>
        <time>2024-07-08T11:57:36Z</time>
      </trkpt>
      <trkpt lat="45.13799" lon="6.11441">
        <ele>2654.5</ele>
        <time>2024-07-08T11:57:37Z</time>
      </trkpt>
      <trkpt lat="45.13798" lon="6.1144">
        <ele>2654.6</ele>
        <time>2024-07-08T11:57:38Z</time>
      </trkpt>
      <trkpt lat="45.13797" lon="6.1144">
        <ele>2654.6</ele>
        <time>2024-07-08T11:57:39Z</time>
      </trkpt>
      <trkpt lat="45.13796" lon="6.11439">
        <ele>2654.7</ele>
        <time>2024-07-08T11:57:40Z</time>
      </trkpt>
      <trkpt lat="45.13795" lon="6.11438">
        <ele>2654.7</ele>
        <time>2024-07-08T11:57:41Z</time>
      </trkpt>
      <trkpt lat="45.13794" lon="6.11437">
        <ele>2654.8</ele>
        <time>2024-07-08T11:57:42Z</time>
      </trkpt>
      <trkpt lat="45.13794" lon="6.11436">
        <ele>2654.9</ele>
        <time>2024-07-08T11:57:43Z</time>
      </trkpt>
      <trkpt lat="45.13793" lon="6.11434">
        <ele>2654.9</ele>
        <time>2024-07-08T11:57:44Z</time>
      </trkpt>
      <trkpt lat="45.13793" lon="6.11433">
        <ele>2654.9</ele>
        <time>2024-07-08T11:57:45Z</time>
      </trkpt>
      <trkpt lat="45.13792" lon="6.11432">
        <ele>2655</ele>
        <time>2024-07-08T11:57:46Z</time>
      </trkpt>
      <trkpt lat="45.13791" lon="6.11431">
        <ele>2655</ele>
        <time>2024-07-08T11:57:47Z</time>
      </trkpt>
      <trkpt lat="45.1379" lon="6.11431">
        <ele>2655.1</ele>
        <time>2024-07-08T11:57:48Z</time>
      </trkpt>
      <trkpt lat="45.13788" lon="6.1143">
        <ele>2655.1</ele>
        <time>2024-07-08T11:57:49Z</time>
      </trkpt>
      <trkpt lat="45.13787" lon="6.1143">
        <ele>2655.2</ele>
        <time>2024-07-08T11:57:50Z</time>
      </trkpt>
      <trkpt lat="45.13786" lon="6.1143">
        <ele>2655.2</ele>
        <time>2024-07-08T11:57:51Z</time>
      </trkpt>
      <trkpt lat="45.13786" lon="6.1143">
        <ele>2655.3</ele>
        <time>2024-07-08T11:57:52Z</time>
      </trkpt>
      <trkpt lat="45.13785" lon="6.1143">
        <ele>2655.3</ele>
        <time>2024-07-08T11:57:53Z</time>
      </trkpt>
      <trkpt lat="45.13783" lon="6.11429">
        <ele>2655.4</ele>
        <time>2024-07-08T11:57:54Z</time>
      </trkpt>
      <trkpt lat="45.13782" lon="6.11429">
        <ele>2655.5</ele>
        <time>2024-07-08T11:57:55Z</time>
      </trkpt>
      <trkpt lat="45.13781" lon="6.1143">
        <ele>2655.5</ele>
        <time>2024-07-08T11:57:56Z</time>
      </trkpt>
      <trkpt lat="45.1378" lon="6.1143">
        <ele>2655.6</ele>
        <time>2024-07-08T11:57:57Z</time>
      </trkpt>
      <trkpt lat="45.13779" lon="6.1143">
        <ele>2655.6</ele>
        <time>2024-07-08T11:57:58Z</time>
      </trkpt>
      <trkpt lat="45.13778" lon="6.1143">
        <ele>2655.7</ele>
        <time>2024-07-08T11:57:59Z</time>
      </trkpt>
      <trkpt lat="45.13777" lon="6.1143">
        <ele>2655.8</ele>
        <time>2024-07-08T11:58:00Z</time>
      </trkpt>
      <trkpt lat="45.13776" lon="6.1143">
        <ele>2655.8</ele>
        <time>2024-07-08T11:58:01Z</time>
      </trkpt>
      <trkpt lat="45.13775" lon="6.1143">
        <ele>2655.9</ele>
        <time>2024-07-08T11:58:02Z</time>
      </trkpt>
      <trkpt lat="45.13775" lon="6.1143">
        <ele>2656</ele>
        <time>2024-07-08T11:58:03Z</time>
      </trkpt>
      <trkpt lat="45.13773" lon="6.1143">
        <ele>2656.1</ele>
        <time>2024-07-08T11:58:04Z</time>
      </trkpt>
      <trkpt lat="45.13773" lon="6.1143">
        <ele>2656.1</ele>
        <time>2024-07-08T11:58:05Z</time>
      </trkpt>
      <trkpt lat="45.13771" lon="6.11429">
        <ele>2656.2</ele>
        <time>2024-07-08T11:58:06Z</time>
      </trkpt>
      <trkpt lat="45.1377" lon="6.11428">
        <ele>2656.3</ele>
        <time>2024-07-08T11:58:07Z</time>
      </trkpt>
      <trkpt lat="45.1377" lon="6.11427">
        <ele>2656.4</ele>
        <time>2024-07-08T11:58:08Z</time>
      </trkpt>
      <trkpt lat="45.13769" lon="6.11427">
        <ele>2656.5</ele>
        <time>2024-07-08T11:58:09Z</time>
      </trkpt>
      <trkpt lat="45.13768" lon="6.11426">
        <ele>2656.6</ele>
        <time>2024-07-08T11:58:10Z</time>
      </trkpt>
      <trkpt lat="45.13767" lon="6.11425">
        <ele>2656.7</ele>
        <time>2024-07-08T11:58:11Z</time>
      </trkpt>
      <trkpt lat="45.13766" lon="6.11425">
        <ele>2656.8</ele>
        <time>2024-07-08T11:58:12Z</time>
      </trkpt>
      <trkpt lat="45.13765" lon="6.11424">
        <ele>2656.9</ele>
        <time>2024-07-08T11:58:13Z</time>
      </trkpt>
      <trkpt lat="45.13764" lon="6.11423">
        <ele>2657</ele>
        <time>2024-07-08T11:58:14Z</time>
      </trkpt>
      <trkpt lat="45.13763" lon="6.11423">
        <ele>2657.1</ele>
        <time>2024-07-08T11:58:15Z</time>
      </trkpt>
      <trkpt lat="45.13762" lon="6.11422">
        <ele>2657.1</ele>
        <time>2024-07-08T11:58:16Z</time>
      </trkpt>
      <trkpt lat="45.13761" lon="6.11422">
        <ele>2657.2</ele>
        <time>2024-07-08T11:58:17Z</time>
      </trkpt>
      <trkpt lat="45.1376" lon="6.11421">
        <ele>2657.3</ele>
        <time>2024-07-08T11:58:18Z</time>
      </trkpt>
      <trkpt lat="45.13759" lon="6.1142">
        <ele>2657.4</ele>
        <time>2024-07-08T11:58:19Z</time>
      </trkpt>
      <trkpt lat="45.13758" lon="6.11419">
        <ele>2657.5</ele>
        <time>2024-07-08T11:58:20Z</time>
      </trkpt>
      <trkpt lat="45.13758" lon="6.11419">
        <ele>2657.6</ele>
        <time>2024-07-08T11:58:21Z</time>
      </trkpt>
      <trkpt lat="45.13757" lon="6.11418">
        <ele>2657.6</ele>
        <time>2024-07-08T11:58:22Z</time>
      </trkpt>
      <trkpt lat="45.13757" lon="6.11417">
        <ele>2657.6</ele>
        <time>2024-07-08T11:58:23Z</time>
      </trkpt>
      <trkpt lat="45.13756" lon="6.11416">
        <ele>2657.7</ele>
        <time>2024-07-08T11:58:24Z</time>
      </trkpt>
      <trkpt lat="45.13756" lon="6.11415">
        <ele>2657.8</ele>
        <time>2024-07-08T11:58:25Z</time>
      </trkpt>
      <trkpt lat="45.13755" lon="6.11414">
        <ele>2657.8</ele>
        <time>2024-07-08T11:58:26Z</time>
      </trkpt>
      <trkpt lat="45.13754" lon="6.11413">
        <ele>2657.9</ele>
        <time>2024-07-08T11:58:27Z</time>
      </trkpt>
      <trkpt lat="45.13753" lon="6.11412">
        <ele>2658</ele>
        <time>2024-07-08T11:58:28Z</time>
      </trkpt>
      <trkpt lat="45.13753" lon="6.11411">
        <ele>2658</ele>
        <time>2024-07-08T11:58:29Z</time>
      </trkpt>
      <trkpt lat="45.13752" lon="6.11411">
        <ele>2658</ele>
        <time>2024-07-08T11:58:30Z</time>
      </trkpt>
      <trkpt lat="45.13751" lon="6.1141">
        <ele>2658.1</ele>
        <time>2024-07-08T11:58:31Z</time>
      </trkpt>
      <trkpt lat="45.13751" lon="6.11409">
        <ele>2658.1</ele>
        <time>2024-07-08T11:58:32Z</time>
      </trkpt>
      <trkpt lat="45.1375" lon="6.11408">
        <ele>2658.2</ele>
        <time>2024-07-08T11:58:33Z</time>
      </trkpt>
      <trkpt lat="45.13749" lon="6.11407">
        <ele>2658.2</ele>
        <time>2024-07-08T11:58:34Z</time>
      </trkpt>
      <trkpt lat="45.13749" lon="6.11406">
        <ele>2658.3</ele>
        <time>2024-07-08T11:58:35Z</time>
      </trkpt>
      <trkpt lat="45.13748" lon="6.11405">
        <ele>2658.3</ele>
        <time>2024-07-08T11:58:36Z</time>
      </trkpt>
      <trkpt lat="45.13747" lon="6.11404">
        <ele>2658.4</ele>
        <time>2024-07-08T11:58:37Z</time>
      </trkpt>
      <trkpt lat="45.13747" lon="6.11403">
        <ele>2658.4</ele>
        <time>2024-07-08T11:58:38Z</time>
      </trkpt>
      <trkpt lat="45.13746" lon="6.11402">
        <ele>2658.5</ele>
        <time>2024-07-08T11:58:39Z</time>
      </trkpt>
      <trkpt lat="45.13745" lon="6.114">
        <ele>2658.5</ele>
        <time>2024-07-08T11:58:40Z</time>
      </trkpt>
      <trkpt lat="45.13745" lon="6.114">
        <ele>2658.6</ele>
        <time>2024-07-08T11:58:41Z</time>
      </trkpt>
      <trkpt lat="45.13744" lon="6.11399">
        <ele>2658.6</ele>
        <time>2024-07-08T11:58:42Z</time>
      </trkpt>
      <trkpt lat="45.13743" lon="6.11398">
        <ele>2658.7</ele>
        <time>2024-07-08T11:58:43Z</time>
      </trkpt>
      <trkpt lat="45.13743" lon="6.11397">
        <ele>2658.7</ele>
        <time>2024-07-08T11:58:44Z</time>
      </trkpt>
      <trkpt lat="45.13742" lon="6.11397">
        <ele>2658.8</ele>
        <time>2024-07-08T11:58:45Z</time>
      </trkpt>
      <trkpt lat="45.13742" lon="6.11396">
        <ele>2658.8</ele>
        <time>2024-07-08T11:58:46Z</time>
      </trkpt>
      <trkpt lat="45.13741" lon="6.11395">
        <ele>2658.9</ele>
        <time>2024-07-08T11:58:47Z</time>
      </trkpt>
      <trkpt lat="45.13741" lon="6.11393">
        <ele>2658.9</ele>
        <time>2024-07-08T11:58:48Z</time>
      </trkpt>
      <trkpt lat="45.1374" lon="6.11393">
        <ele>2659</ele>
        <time>2024-07-08T11:58:49Z</time>
      </trkpt>
      <trkpt lat="45.13739" lon="6.11392">
        <ele>2659.1</ele>
        <time>2024-07-08T11:58:50Z</time>
      </trkpt>
      <trkpt lat="45.13739" lon="6.11392">
        <ele>2659.1</ele>
        <time>2024-07-08T11:58:51Z</time>
      </trkpt>
      <trkpt lat="45.13738" lon="6.11391">
        <ele>2659.2</ele>
        <time>2024-07-08T11:58:52Z</time>
      </trkpt>
      <trkpt lat="45.13737" lon="6.11391">
        <ele>2659.3</ele>
        <time>2024-07-08T11:58:53Z</time>
      </trkpt>
      <trkpt lat="45.13736" lon="6.1139">
        <ele>2659.4</ele>
        <time>2024-07-08T11:58:54Z</time>
      </trkpt>
      <trkpt lat="45.13735" lon="6.1139">
        <ele>2659.4</ele>
        <time>2024-07-08T11:58:55Z</time>
      </trkpt>
      <trkpt lat="45.13734" lon="6.11389">
        <ele>2659.5</ele>
        <time>2024-07-08T11:58:56Z</time>
      </trkpt>
      <trkpt lat="45.13733" lon="6.11389">
        <ele>2659.6</ele>
        <time>2024-07-08T11:58:57Z</time>
      </trkpt>
      <trkpt lat="45.13732" lon="6.11388">
        <ele>2659.7</ele>
        <time>2024-07-08T11:58:58Z</time>
      </trkpt>
      <trkpt lat="45.13732" lon="6.11387">
        <ele>2659.8</ele>
        <time>2024-07-08T11:58:59Z</time>
      </trkpt>
      <trkpt lat="45.13731" lon="6.11386">
        <ele>2659.8</ele>
        <time>2024-07-08T11:59:00Z</time>
      </trkpt>
      <trkpt lat="45.13731" lon="6.11385">
        <ele>2659.9</ele>
        <time>2024-07-08T11:59:01Z</time>
      </trkpt>
      <trkpt lat="45.1373" lon="6.11384">
        <ele>2660</ele>
        <time>2024-07-08T11:59:02Z</time>
      </trkpt>
      <trkpt lat="45.1373" lon="6.11382">
        <ele>2660.1</ele>
        <time>2024-07-08T11:59:03Z</time>
      </trkpt>
      <trkpt lat="45.1373" lon="6.11381">
        <ele>2660.2</ele>
        <time>2024-07-08T11:59:04Z</time>
      </trkpt>
      <trkpt lat="45.13729" lon="6.1138">
        <ele>2660.3</ele>
        <time>2024-07-08T11:59:05Z</time>
      </trkpt>
      <trkpt lat="45.13729" lon="6.11378">
        <ele>2660.4</ele>
        <time>2024-07-08T11:59:06Z</time>
      </trkpt>
      <trkpt lat="45.13729" lon="6.11377">
        <ele>2660.4</ele>
        <time>2024-07-08T11:59:07Z</time>
      </trkpt>
      <trkpt lat="45.13728" lon="6.11376">
        <ele>2660.5</ele>
        <time>2024-07-08T11:59:08Z</time>
      </trkpt>
      <trkpt lat="45.13728" lon="6.11375">
        <ele>2660.6</ele>
        <time>2024-07-08T11:59:09Z</time>
      </trkpt>
      <trkpt lat="45.13727" lon="6.11375">
        <ele>2660.7</ele>
        <time>2024-07-08T11:59:10Z</time>
      </trkpt>
      <trkpt lat="45.13726" lon="6.11374">
        <ele>2660.8</ele>
        <time>2024-07-08T11:59:11Z</time>
      </trkpt>
      <trkpt lat="45.13725" lon="6.11374">
        <ele>2660.9</ele>
        <time>2024-07-08T11:59:12Z</time>
      </trkpt>
      <trkpt lat="45.13724" lon="6.11374">
        <ele>2661</ele>
        <time>2024-07-08T11:59:13Z</time>
      </trkpt>
      <trkpt lat="45.13723" lon="6.11373">
        <ele>2661.1</ele>
        <time>2024-07-08T11:59:14Z</time>
      </trkpt>
      <trkpt lat="45.13722" lon="6.11373">
        <ele>2661.2</ele>
        <time>2024-07-08T11:59:15Z</time>
      </trkpt>
      <trkpt lat="45.13721" lon="6.11372">
        <ele>2661.3</ele>
        <time>2024-07-08T11:59:16Z</time>
      </trkpt>
      <trkpt lat="45.1372" lon="6.11371">
        <ele>2661.3</ele>
        <time>2024-07-08T11:59:17Z</time>
      </trkpt>
      <trkpt lat="45.1372" lon="6.1137">
        <ele>2661.4</ele>
        <time>2024-07-08T11:59:18Z</time>
      </trkpt>
      <trkpt lat="45.13719" lon="6.11369">
        <ele>2661.5</ele>
        <time>2024-07-08T11:59:19Z</time>
      </trkpt>
      <trkpt lat="45.13718" lon="6.11368">
        <ele>2661.6</ele>
        <time>2024-07-08T11:59:20Z</time>
      </trkpt>
      <trkpt lat="45.13717" lon="6.11367">
        <ele>2661.7</ele>
        <time>2024-07-08T11:59:21Z</time>
      </trkpt>
      <trkpt lat="45.13717" lon="6.11366">
        <ele>2661.8</ele>
        <time>2024-07-08T11:59:22Z</time>
      </trkpt>
      <trkpt lat="45.13716" lon="6.11364">
        <ele>2661.8</ele>
        <time>2024-07-08T11:59:23Z</time>
      </trkpt>
      <trkpt lat="45.13715" lon="6.11363">
        <ele>2661.9</ele>
        <time>2024-07-08T11:59:24Z</time>
      </trkpt>
      <trkpt lat="45.13715" lon="6.11362">
        <ele>2662</ele>
        <time>2024-07-08T11:59:25Z</time>
      </trkpt>
      <trkpt lat="45.13714" lon="6.11361">
        <ele>2662</ele>
        <time>2024-07-08T11:59:26Z</time>
      </trkpt>
      <trkpt lat="45.13714" lon="6.11361">
        <ele>2662.1</ele>
        <time>2024-07-08T11:59:27Z</time>
      </trkpt>
      <trkpt lat="45.13713" lon="6.1136">
        <ele>2662.1</ele>
        <time>2024-07-08T11:59:28Z</time>
      </trkpt>
      <trkpt lat="45.13712" lon="6.1136">
        <ele>2662.2</ele>
        <time>2024-07-08T11:59:29Z</time>
      </trkpt>
      <trkpt lat="45.13711" lon="6.1136">
        <ele>2662.2</ele>
        <time>2024-07-08T11:59:30Z</time>
      </trkpt>
      <trkpt lat="45.1371" lon="6.11359">
        <ele>2662.3</ele>
        <time>2024-07-08T11:59:31Z</time>
      </trkpt>
      <trkpt lat="45.13709" lon="6.11359">
        <ele>2662.3</ele>
        <time>2024-07-08T11:59:32Z</time>
      </trkpt>
      <trkpt lat="45.13709" lon="6.11359">
        <ele>2662.4</ele>
        <time>2024-07-08T11:59:33Z</time>
      </trkpt>
      <trkpt lat="45.13708" lon="6.11358">
        <ele>2662.4</ele>
        <time>2024-07-08T11:59:34Z</time>
      </trkpt>
      <trkpt lat="45.13707" lon="6.11358">
        <ele>2662.4</ele>
        <time>2024-07-08T11:59:35Z</time>
      </trkpt>
      <trkpt lat="45.13706" lon="6.11358">
        <ele>2662.5</ele>
        <time>2024-07-08T11:59:36Z</time>
      </trkpt>
      <trkpt lat="45.13705" lon="6.11358">
        <ele>2662.5</ele>
        <time>2024-07-08T11:59:37Z</time>
      </trkpt>
      <trkpt lat="45.13704" lon="6.11358">
        <ele>2662.6</ele>
        <time>2024-07-08T11:59:38Z</time>
      </trkpt>
      <trkpt lat="45.13704" lon="6.11359">
        <ele>2662.6</ele>
        <time>2024-07-08T11:59:39Z</time>
      </trkpt>
      <trkpt lat="45.13703" lon="6.11359">
        <ele>2662.6</ele>
        <time>2024-07-08T11:59:40Z</time>
      </trkpt>
      <trkpt lat="45.13702" lon="6.11359">
        <ele>2662.7</ele>
        <time>2024-07-08T11:59:41Z</time>
      </trkpt>
      <trkpt lat="45.13701" lon="6.11359">
        <ele>2662.7</ele>
        <time>2024-07-08T11:59:42Z</time>
      </trkpt>
      <trkpt lat="45.13701" lon="6.11359">
        <ele>2662.8</ele>
        <time>2024-07-08T11:59:43Z</time>
      </trkpt>
      <trkpt lat="45.137" lon="6.11358">
        <ele>2662.8</ele>
        <time>2024-07-08T11:59:44Z</time>
      </trkpt>
      <trkpt lat="45.13699" lon="6.11358">
        <ele>2662.9</ele>
        <time>2024-07-08T11:59:45Z</time>
      </trkpt>
      <trkpt lat="45.13699" lon="6.11357">
        <ele>2662.9</ele>
        <time>2024-07-08T11:59:46Z</time>
      </trkpt>
      <trkpt lat="45.13698" lon="6.11356">
        <ele>2662.9</ele>
        <time>2024-07-08T11:59:47Z</time>
      </trkpt>
      <trkpt lat="45.13698" lon="6.11355">
        <ele>2663</ele>
        <time>2024-07-08T11:59:48Z</time>
      </trkpt>
      <trkpt lat="45.13698" lon="6.11354">
        <ele>2663</ele>
        <time>2024-07-08T11:59:49Z</time>
      </trkpt>
      <trkpt lat="45.13697" lon="6.11353">
        <ele>2663.1</ele>
        <time>2024-07-08T11:59:50Z</time>
      </trkpt>
      <trkpt lat="45.13697" lon="6.11353">
        <ele>2663.1</ele>
        <time>2024-07-08T11:59:51Z</time>
      </trkpt>
      <trkpt lat="45.13696" lon="6.11352">
        <ele>2663.2</ele>
        <time>2024-07-08T11:59:52Z</time>
      </trkpt>
      <trkpt lat="45.13696" lon="6.11352">
        <ele>2663.2</ele>
        <time>2024-07-08T11:59:53Z</time>
      </trkpt>
      <trkpt lat="45.13695" lon="6.11352">
        <ele>2663.3</ele>
        <time>2024-07-08T11:59:54Z</time>
      </trkpt>
      <trkpt lat="45.13694" lon="6.11351">
        <ele>2663.3</ele>
        <time>2024-07-08T11:59:55Z</time>
      </trkpt>
      <trkpt lat="45.13694" lon="6.11351">
        <ele>2663.4</ele>
        <time>2024-07-08T11:59:56Z</time>
      </trkpt>
      <trkpt lat="45.13693" lon="6.11351">
        <ele>2663.4</ele>
        <time>2024-07-08T11:59:57Z</time>
      </trkpt>
      <trkpt lat="45.13692" lon="6.11351">
        <ele>2663.5</ele>
        <time>2024-07-08T11:59:58Z</time>
      </trkpt>
      <trkpt lat="45.13692" lon="6.11352">
        <ele>2663.5</ele>
        <time>2024-07-08T11:59:59Z</time>
      </trkpt>
      <trkpt lat="45.13691" lon="6.11352">
        <ele>2663.6</ele>
        <time>2024-07-08T12:00:00Z</time>
      </trkpt>
      <trkpt lat="45.1369" lon="6.11351">
        <ele>2663.6</ele>
        <time>2024-07-08T12:00:01Z</time>
      </trkpt>
      <trkpt lat="45.13689" lon="6.11351">
        <ele>2663.7</ele>
        <time>2024-07-08T12:00:02Z</time>
      </trkpt>
      <trkpt lat="45.13689" lon="6.1135">
        <ele>2663.8</ele>
        <time>2024-07-08T12:00:03Z</time>
      </trkpt>
      <trkpt lat="45.13688" lon="6.1135">
        <ele>2663.8</ele>
        <time>2024-07-08T12:00:04Z</time>
      </trkpt>
      <trkpt lat="45.13687" lon="6.11349">
        <ele>2663.9</ele>
        <time>2024-07-08T12:00:05Z</time>
      </trkpt>
      <trkpt lat="45.13687" lon="6.11349">
        <ele>2664</ele>
        <time>2024-07-08T12:00:06Z</time>
      </trkpt>
      <trkpt lat="45.13686" lon="6.11349">
        <ele>2664.1</ele>
        <time>2024-07-08T12:00:07Z</time>
      </trkpt>
      <trkpt lat="45.13685" lon="6.11349">
        <ele>2664.1</ele>
        <time>2024-07-08T12:00:08Z</time>
      </trkpt>
      <trkpt lat="45.13684" lon="6.11349">
        <ele>2664.2</ele>
        <time>2024-07-08T12:00:09Z</time>
      </trkpt>
      <trkpt lat="45.13684" lon="6.11349">
        <ele>2664.3</ele>
        <time>2024-07-08T12:00:10Z</time>
      </trkpt>
      <trkpt lat="45.13683" lon="6.11349">
        <ele>2664.4</ele>
        <time>2024-07-08T12:00:11Z</time>
      </trkpt>
      <trkpt lat="45.13682" lon="6.11349">
        <ele>2664.5</ele>
        <time>2024-07-08T12:00:12Z</time>
      </trkpt>
      <trkpt lat="45.13681" lon="6.11348">
        <ele>2664.6</ele>
        <time>2024-07-08T12:00:13Z</time>
      </trkpt>
      <trkpt lat="45.1368" lon="6.11348">
        <ele>2664.7</ele>
        <time>2024-07-08T12:00:14Z</time>
      </trkpt>
      <trkpt lat="45.13679" lon="6.11347">
        <ele>2664.8</ele>
        <time>2024-07-08T12:00:15Z</time>
      </trkpt>
      <trkpt lat="45.13678" lon="6.11347">
        <ele>2664.9</ele>
        <time>2024-07-08T12:00:16Z</time>
      </trkpt>
      <trkpt lat="45.13677" lon="6.11347">
        <ele>2665</ele>
        <time>2024-07-08T12:00:17Z</time>
      </trkpt>
      <trkpt lat="45.13677" lon="6.11347">
        <ele>2665</ele>
        <time>2024-07-08T12:00:18Z</time>
      </trkpt>
      <trkpt lat="45.13676" lon="6.11347">
        <ele>2665.1</ele>
        <time>2024-07-08T12:00:19Z</time>
      </trkpt>
      <trkpt lat="45.13675" lon="6.11347">
        <ele>2665.2</ele>
        <time>2024-07-08T12:00:20Z</time>
      </trkpt>
      <trkpt lat="45.13675" lon="6.11346">
        <ele>2665.3</ele>
        <time>2024-07-08T12:00:21Z</time>
      </trkpt>
      <trkpt lat="45.13674" lon="6.11344">
        <ele>2665.5</ele>
        <time>2024-07-08T12:00:22Z</time>
      </trkpt>
      <trkpt lat="45.13674" lon="6.11343">
        <ele>2665.6</ele>
        <time>2024-07-08T12:00:23Z</time>
      </trkpt>
      <trkpt lat="45.13674" lon="6.11342">
        <ele>2665.7</ele>
        <time>2024-07-08T12:00:24Z</time>
      </trkpt>
      <trkpt lat="45.13673" lon="6.11341">
        <ele>2665.8</ele>
        <time>2024-07-08T12:00:25Z</time>
      </trkpt>
      <trkpt lat="45.13673" lon="6.1134">
        <ele>2665.9</ele>
        <time>2024-07-08T12:00:26Z</time>
      </trkpt>
      <trkpt lat="45.13672" lon="6.1134">
        <ele>2666</ele>
        <time>2024-07-08T12:00:27Z</time>
      </trkpt>
      <trkpt lat="45.13671" lon="6.11339">
        <ele>2666.1</ele>
        <time>2024-07-08T12:00:28Z</time>
      </trkpt>
      <trkpt lat="45.13671" lon="6.11339">
        <ele>2666.2</ele>
        <time>2024-07-08T12:00:29Z</time>
      </trkpt>
      <trkpt lat="45.1367" lon="6.11338">
        <ele>2666.3</ele>
        <time>2024-07-08T12:00:30Z</time>
      </trkpt>
      <trkpt lat="45.1367" lon="6.11337">
        <ele>2666.4</ele>
        <time>2024-07-08T12:00:31Z</time>
      </trkpt>
      <trkpt lat="45.13669" lon="6.11336">
        <ele>2666.4</ele>
        <time>2024-07-08T12:00:32Z</time>
      </trkpt>
      <trkpt lat="45.13668" lon="6.11336">
        <ele>2666.5</ele>
        <time>2024-07-08T12:00:33Z</time>
      </trkpt>
      <trkpt lat="45.13668" lon="6.11336">
        <ele>2666.6</ele>
        <time>2024-07-08T12:00:34Z</time>
      </trkpt>
      <trkpt lat="45.13667" lon="6.11336">
        <ele>2666.6</ele>
        <time>2024-07-08T12:00:35Z</time>
      </trkpt>
      <trkpt lat="45.13668" lon="6.11336">
        <ele>2666.7</ele>
        <time>2024-07-08T12:00:36Z</time>
      </trkpt>
      <trkpt lat="45.13668" lon="6.11336">
        <ele>2666.7</ele>
        <time>2024-07-08T12:00:37Z</time>
      </trkpt>
      <trkpt lat="45.13668" lon="6.11336">
        <ele>2666.7</ele>
        <time>2024-07-08T12:00:38Z</time>
      </trkpt>
      <trkpt lat="45.13668" lon="6.11336">
        <ele>2666.7</ele>
        <time>2024-07-08T12:00:39Z</time>
      </trkpt>
      <trkpt lat="45.13668" lon="6.11335">
        <ele>2666.7</ele>
        <time>2024-07-08T12:00:40Z</time>
      </trkpt>
      <trkpt lat="45.13668" lon="6.11335">
        <ele>2666.7</ele>
        <time>2024-07-08T12:00:41Z</time>
      </trkpt>
      <trkpt lat="45.13668" lon="6.11335">
        <ele>2666.7</ele>
        <time>2024-07-08T12:00:42Z</time>
      </trkpt>
      <trkpt lat="45.13668" lon="6.11335">
        <ele>2666.7</ele>
        <time>2024-07-08T12:00:43Z</time>
      </trkpt>
      <trkpt lat="45.13667" lon="6.11335">
        <ele>2666.8</ele>
        <time>2024-07-08T12:00:44Z</time>
      </trkpt>
      <trkpt lat="45.13666" lon="6.11335">
        <ele>2666.9</ele>
        <time>2024-07-08T12:00:45Z</time>
      </trkpt>
      <trkpt lat="45.13665" lon="6.11335">
        <ele>2667</ele>
        <time>2024-07-08T12:00:46Z</time>
      </trkpt>
      <trkpt lat="45.13664" lon="6.11334">
        <ele>2667.1</ele>
        <time>2024-07-08T12:00:47Z</time>
      </trkpt>
      <trkpt lat="45.13663" lon="6.11333">
        <ele>2667.2</ele>
        <time>2024-07-08T12:00:48Z</time>
      </trkpt>
      <trkpt lat="45.13662" lon="6.11332">
        <ele>2667.3</ele>
        <time>2024-07-08T12:00:49Z</time>
      </trkpt>
      <trkpt lat="45.13662" lon="6.11331">
        <ele>2667.3</ele>
        <time>2024-07-08T12:00:50Z</time>
      </trkpt>
      <trkpt lat="45.13661" lon="6.1133">
        <ele>2667.4</ele>
        <time>2024-07-08T12:00:51Z</time>
      </trkpt>
      <trkpt lat="45.13661" lon="6.11329">
        <ele>2667.5</ele>
        <time>2024-07-08T12:00:52Z</time>
      </trkpt>
      <trkpt lat="45.1366" lon="6.11328">
        <ele>2667.6</ele>
        <time>2024-07-08T12:00:53Z</time>
      </trkpt>
      <trkpt lat="45.1366" lon="6.11327">
        <ele>2667.6</ele>
        <time>2024-07-08T12:00:54Z</time>
      </trkpt>
      <trkpt lat="45.13659" lon="6.11327">
        <ele>2667.7</ele>
        <time>2024-07-08T12:00:55Z</time>
      </trkpt>
      <trkpt lat="45.13658" lon="6.11327">
        <ele>2667.7</ele>
        <time>2024-07-08T12:00:56Z</time>
      </trkpt>
      <trkpt lat="45.13658" lon="6.11327">
        <ele>2667.8</ele>
        <time>2024-07-08T12:00:57Z</time>
      </trkpt>
      <trkpt lat="45.13657" lon="6.11327">
        <ele>2667.8</ele>
        <time>2024-07-08T12:00:58Z</time>
      </trkpt>
      <trkpt lat="45.13656" lon="6.11327">
        <ele>2667.9</ele>
        <time>2024-07-08T12:00:59Z</time>
      </trkpt>
      <trkpt lat="45.13656" lon="6.11327">
        <ele>2667.9</ele>
        <time>2024-07-08T12:01:00Z</time>
      </trkpt>
      <trkpt lat="45.13655" lon="6.11326">
        <ele>2668</ele>
        <time>2024-07-08T12:01:01Z</time>
      </trkpt>
      <trkpt lat="45.13655" lon="6.11326">
        <ele>2668</ele>
        <time>2024-07-08T12:01:02Z</time>
      </trkpt>
      <trkpt lat="45.13654" lon="6.11326">
        <ele>2668.1</ele>
        <time>2024-07-08T12:01:03Z</time>
      </trkpt>
      <trkpt lat="45.13653" lon="6.11325">
        <ele>2668.1</ele>
        <time>2024-07-08T12:01:04Z</time>
      </trkpt>
      <trkpt lat="45.13653" lon="6.11324">
        <ele>2668.2</ele>
        <time>2024-07-08T12:01:05Z</time>
      </trkpt>
      <trkpt lat="45.13652" lon="6.11323">
        <ele>2668.3</ele>
        <time>2024-07-08T12:01:06Z</time>
      </trkpt>
      <trkpt lat="45.13652" lon="6.11323">
        <ele>2668.3</ele>
        <time>2024-07-08T12:01:07Z</time>
      </trkpt>
      <trkpt lat="45.13651" lon="6.11324">
        <ele>2668.4</ele>
        <time>2024-07-08T12:01:08Z</time>
      </trkpt>
      <trkpt lat="45.1365" lon="6.11324">
        <ele>2668.5</ele>
        <time>2024-07-08T12:01:09Z</time>
      </trkpt>
      <trkpt lat="45.13649" lon="6.11326">
        <ele>2668.6</ele>
        <time>2024-07-08T12:01:10Z</time>
      </trkpt>
      <trkpt lat="45.13649" lon="6.11328">
        <ele>2668.8</ele>
        <time>2024-07-08T12:01:11Z</time>
      </trkpt>
      <trkpt lat="45.13648" lon="6.11329">
        <ele>2668.9</ele>
        <time>2024-07-08T12:01:12Z</time>
      </trkpt>
      <trkpt lat="45.13648" lon="6.11331">
        <ele>2669</ele>
        <time>2024-07-08T12:01:13Z</time>
      </trkpt>
      <trkpt lat="45.13647" lon="6.11331">
        <ele>2669.1</ele>
        <time>2024-07-08T12:01:14Z</time>
      </trkpt>
      <trkpt lat="45.13646" lon="6.11332">
        <ele>2669.2</ele>
        <time>2024-07-08T12:01:15Z</time>
      </trkpt>
      <trkpt lat="45.13646" lon="6.11332">
        <ele>2669.3</ele>
        <time>2024-07-08T12:01:16Z</time>
      </trkpt>
      <trkpt lat="45.13645" lon="6.11332">
        <ele>2669.4</ele>
        <time>2024-07-08T12:01:17Z</time>
      </trkpt>
      <trkpt lat="45.13644" lon="6.11331">
        <ele>2669.5</ele>
        <time>2024-07-08T12:01:18Z</time>
      </trkpt>
      <trkpt lat="45.13643" lon="6.11331">
        <ele>2669.6</ele>
        <time>2024-07-08T12:01:19Z</time>
      </trkpt>
      <trkpt lat="45.13641" lon="6.11331">
        <ele>2669.8</ele>
        <time>2024-07-08T12:01:20Z</time>
      </trkpt>
      <trkpt lat="45.13641" lon="6.11331">
        <ele>2669.9</ele>
        <time>2024-07-08T12:01:21Z</time>
      </trkpt>
      <trkpt lat="45.13639" lon="6.11331">
        <ele>2670</ele>
        <time>2024-07-08T12:01:22Z</time>
      </trkpt>
      <trkpt lat="45.13638" lon="6.11331">
        <ele>2670.1</ele>
        <time>2024-07-08T12:01:23Z</time>
      </trkpt>
      <trkpt lat="45.13637" lon="6.1133">
        <ele>2670.2</ele>
        <time>2024-07-08T12:01:24Z</time>
      </trkpt>
      <trkpt lat="45.13636" lon="6.1133">
        <ele>2670.3</ele>
        <time>2024-07-08T12:01:25Z</time>
      </trkpt>
      <trkpt lat="45.13635" lon="6.1133">
        <ele>2670.5</ele>
        <time>2024-07-08T12:01:26Z</time>
      </trkpt>
      <trkpt lat="45.13634" lon="6.1133">
        <ele>2670.6</ele>
        <time>2024-07-08T12:01:27Z</time>
      </trkpt>
      <trkpt lat="45.13633" lon="6.1133">
        <ele>2670.7</ele>
        <time>2024-07-08T12:01:28Z</time>
      </trkpt>
      <trkpt lat="45.13632" lon="6.1133">
        <ele>2670.8</ele>
        <time>2024-07-08T12:01:29Z</time>
      </trkpt>
      <trkpt lat="45.13631" lon="6.11329">
        <ele>2671</ele>
        <time>2024-07-08T12:01:30Z</time>
      </trkpt>
      <trkpt lat="45.1363" lon="6.11329">
        <ele>2671.1</ele>
        <time>2024-07-08T12:01:31Z</time>
      </trkpt>
      <trkpt lat="45.13629" lon="6.11328">
        <ele>2671.2</ele>
        <time>2024-07-08T12:01:32Z</time>
      </trkpt>
      <trkpt lat="45.13628" lon="6.11328">
        <ele>2671.3</ele>
        <time>2024-07-08T12:01:33Z</time>
      </trkpt>
      <trkpt lat="45.13627" lon="6.11327">
        <ele>2671.4</ele>
        <time>2024-07-08T12:01:34Z</time>
      </trkpt>
      <trkpt lat="45.13626" lon="6.11326">
        <ele>2671.5</ele>
        <time>2024-07-08T12:01:35Z</time>
      </trkpt>
      <trkpt lat="45.13625" lon="6.11326">
        <ele>2671.6</ele>
        <time>2024-07-08T12:01:36Z</time>
      </trkpt>
      <trkpt lat="45.13624" lon="6.11326">
        <ele>2671.8</ele>
        <time>2024-07-08T12:01:37Z</time>
      </trkpt>
      <trkpt lat="45.13623" lon="6.11327">
        <ele>2671.9</ele>
        <time>2024-07-08T12:01:38Z</time>
      </trkpt>
      <trkpt lat="45.13622" lon="6.11328">
        <ele>2672</ele>
        <time>2024-07-08T12:01:39Z</time>
      </trkpt>
      <trkpt lat="45.13621" lon="6.11329">
        <ele>2672.1</ele>
        <time>2024-07-08T12:01:40Z</time>
      </trkpt>
      <trkpt lat="45.1362" lon="6.11329">
        <ele>2672.2</ele>
        <time>2024-07-08T12:01:41Z</time>
      </trkpt>
      <trkpt lat="45.13619" lon="6.11329">
        <ele>2672.3</ele>
        <time>2024-07-08T12:01:42Z</time>
      </trkpt>
      <trkpt lat="45.13618" lon="6.11328">
        <ele>2672.5</ele>
        <time>2024-07-08T12:01:43Z</time>
      </trkpt>
      <trkpt lat="45.13618" lon="6.11327">
        <ele>2672.6</ele>
        <time>2024-07-08T12:01:44Z</time>
      </trkpt>
      <trkpt lat="45.13617" lon="6.11326">
        <ele>2672.7</ele>
        <time>2024-07-08T12:01:45Z</time>
      </trkpt>
      <trkpt lat="45.13616" lon="6.11325">
        <ele>2672.8</ele>
        <time>2024-07-08T12:01:46Z</time>
      </trkpt>
      <trkpt lat="45.13615" lon="6.11324">
        <ele>2673</ele>
        <time>2024-07-08T12:01:47Z</time>
      </trkpt>
      <trkpt lat="45.13614" lon="6.11324">
        <ele>2673</ele>
        <time>2024-07-08T12:01:48Z</time>
      </trkpt>
      <trkpt lat="45.13614" lon="6.11323">
        <ele>2673.1</ele>
        <time>2024-07-08T12:01:49Z</time>
      </trkpt>
      <trkpt lat="45.13613" lon="6.11322">
        <ele>2673.2</ele>
        <time>2024-07-08T12:01:50Z</time>
      </trkpt>
      <trkpt lat="45.13612" lon="6.11322">
        <ele>2673.3</ele>
        <time>2024-07-08T12:01:51Z</time>
      </trkpt>
      <trkpt lat="45.13612" lon="6.11322">
        <ele>2673.4</ele>
        <time>2024-07-08T12:01:52Z</time>
      </trkpt>
      <trkpt lat="45.13611" lon="6.11321">
        <ele>2673.4</ele>
        <time>2024-07-08T12:01:53Z</time>
      </trkpt>
      <trkpt lat="45.1361" lon="6.11321">
        <ele>2673.5</ele>
        <time>2024-07-08T12:01:54Z</time>
      </trkpt>
      <trkpt lat="45.13609" lon="6.11321">
        <ele>2673.6</ele>
        <time>2024-07-08T12:01:55Z</time>
      </trkpt>
      <trkpt lat="45.13608" lon="6.11321">
        <ele>2673.7</ele>
        <time>2024-07-08T12:01:56Z</time>
      </trkpt>
      <trkpt lat="45.13608" lon="6.11321">
        <ele>2673.8</ele>
        <time>2024-07-08T12:01:57Z</time>
      </trkpt>
      <trkpt lat="45.13607" lon="6.11321">
        <ele>2673.9</ele>
        <time>2024-07-08T12:01:58Z</time>
      </trkpt>
      <trkpt lat="45.13607" lon="6.11321">
        <ele>2673.9</ele>
        <time>2024-07-08T12:01:59Z</time>
      </trkpt>
      <trkpt lat="45.13607" lon="6.1132">
        <ele>2673.9</ele>
        <time>2024-07-08T12:02:00Z</time>
      </trkpt>
      <trkpt lat="45.13607" lon="6.1132">
        <ele>2674</ele>
        <time>2024-07-08T12:02:01Z</time>
      </trkpt>
      <trkpt lat="45.13606" lon="6.11319">
        <ele>2674.1</ele>
        <time>2024-07-08T12:02:02Z</time>
      </trkpt>
      <trkpt lat="45.13606" lon="6.11319">
        <ele>2674.1</ele>
        <time>2024-07-08T12:02:03Z</time>
      </trkpt>
      <trkpt lat="45.13605" lon="6.11319">
        <ele>2674.2</ele>
        <time>2024-07-08T12:02:04Z</time>
      </trkpt>
      <trkpt lat="45.13604" lon="6.11319">
        <ele>2674.3</ele>
        <time>2024-07-08T12:02:05Z</time>
      </trkpt>
      <trkpt lat="45.13603" lon="6.11319">
        <ele>2674.4</ele>
        <time>2024-07-08T12:02:06Z</time>
      </trkpt>
      <trkpt lat="45.13603" lon="6.1132">
        <ele>2674.5</ele>
        <time>2024-07-08T12:02:07Z</time>
      </trkpt>
      <trkpt lat="45.13602" lon="6.11321">
        <ele>2674.6</ele>
        <time>2024-07-08T12:02:08Z</time>
      </trkpt>
      <trkpt lat="45.13602" lon="6.11322">
        <ele>2674.7</ele>
        <time>2024-07-08T12:02:09Z</time>
      </trkpt>
      <trkpt lat="45.13601" lon="6.11323">
        <ele>2674.8</ele>
        <time>2024-07-08T12:02:10Z</time>
      </trkpt>
      <trkpt lat="45.13602" lon="6.11325">
        <ele>2674.9</ele>
        <time>2024-07-08T12:02:11Z</time>
      </trkpt>
      <trkpt lat="45.13601" lon="6.11326">
        <ele>2675</ele>
        <time>2024-07-08T12:02:12Z</time>
      </trkpt>
      <trkpt lat="45.13601" lon="6.11327">
        <ele>2675.1</ele>
        <time>2024-07-08T12:02:13Z</time>
      </trkpt>
      <trkpt lat="45.13601" lon="6.11329">
        <ele>2675.2</ele>
        <time>2024-07-08T12:02:14Z</time>
      </trkpt>
      <trkpt lat="45.136" lon="6.1133">
        <ele>2675.3</ele>
        <time>2024-07-08T12:02:15Z</time>
      </trkpt>
      <trkpt lat="45.136" lon="6.11331">
        <ele>2675.4</ele>
        <time>2024-07-08T12:02:16Z</time>
      </trkpt>
      <trkpt lat="45.13599" lon="6.11332">
        <ele>2675.5</ele>
        <time>2024-07-08T12:02:17Z</time>
      </trkpt>
      <trkpt lat="45.13598" lon="6.11332">
        <ele>2675.6</ele>
        <time>2024-07-08T12:02:18Z</time>
      </trkpt>
      <trkpt lat="45.13597" lon="6.11331">
        <ele>2675.7</ele>
        <time>2024-07-08T12:02:19Z</time>
      </trkpt>
      <trkpt lat="45.13597" lon="6.1133">
        <ele>2675.8</ele>
        <time>2024-07-08T12:02:20Z</time>
      </trkpt>
      <trkpt lat="45.13596" lon="6.11327">
        <ele>2676</ele>
        <time>2024-07-08T12:02:21Z</time>
      </trkpt>
      <trkpt lat="45.13595" lon="6.11326">
        <ele>2676.1</ele>
        <time>2024-07-08T12:02:22Z</time>
      </trkpt>
      <trkpt lat="45.13595" lon="6.11325">
        <ele>2676.2</ele>
        <time>2024-07-08T12:02:23Z</time>
      </trkpt>
      <trkpt lat="45.13595" lon="6.11324">
        <ele>2676.3</ele>
        <time>2024-07-08T12:02:24Z</time>
      </trkpt>
      <trkpt lat="45.13594" lon="6.11323">
        <ele>2676.4</ele>
        <time>2024-07-08T12:02:25Z</time>
      </trkpt>
      <trkpt lat="45.13593" lon="6.11322">
        <ele>2676.4</ele>
        <time>2024-07-08T12:02:26Z</time>
      </trkpt>
      <trkpt lat="45.13593" lon="6.11321">
        <ele>2676.5</ele>
        <time>2024-07-08T12:02:27Z</time>
      </trkpt>
      <trkpt lat="45.13592" lon="6.1132">
        <ele>2676.6</ele>
        <time>2024-07-08T12:02:28Z</time>
      </trkpt>
      <trkpt lat="45.13592" lon="6.11318">
        <ele>2676.7</ele>
        <time>2024-07-08T12:02:29Z</time>
      </trkpt>
      <trkpt lat="45.13592" lon="6.11317">
        <ele>2676.8</ele>
        <time>2024-07-08T12:02:30Z</time>
      </trkpt>
      <trkpt lat="45.13591" lon="6.11316">
        <ele>2676.9</ele>
        <time>2024-07-08T12:02:31Z</time>
      </trkpt>
      <trkpt lat="45.13591" lon="6.11315">
        <ele>2677</ele>
        <time>2024-07-08T12:02:32Z</time>
      </trkpt>
      <trkpt lat="45.1359" lon="6.11314">
        <ele>2677.1</ele>
        <time>2024-07-08T12:02:33Z</time>
      </trkpt>
      <trkpt lat="45.1359" lon="6.11314">
        <ele>2677.1</ele>
        <time>2024-07-08T12:02:34Z</time>
      </trkpt>
      <trkpt lat="45.1359" lon="6.11314">
        <ele>2677.1</ele>
        <time>2024-07-08T12:02:35Z</time>
      </trkpt>
      <trkpt lat="45.13589" lon="6.11313">
        <ele>2677.2</ele>
        <time>2024-07-08T12:02:36Z</time>
      </trkpt>
      <trkpt lat="45.13589" lon="6.11312">
        <ele>2677.3</ele>
        <time>2024-07-08T12:02:37Z</time>
      </trkpt>
      <trkpt lat="45.13589" lon="6.11312">
        <ele>2677.3</ele>
        <time>2024-07-08T12:02:38Z</time>
      </trkpt>
      <trkpt lat="45.13589" lon="6.11312">
        <ele>2677.4</ele>
        <time>2024-07-08T12:02:39Z</time>
      </trkpt>
      <trkpt lat="45.1359" lon="6.11312">
        <ele>2677.4</ele>
        <time>2024-07-08T12:02:40Z</time>
      </trkpt>
      <trkpt lat="45.1359" lon="6.11312">
        <ele>2677.4</ele>
        <time>2024-07-08T12:02:41Z</time>
      </trkpt>
      <trkpt lat="45.1359" lon="6.11313">
        <ele>2677.5</ele>
        <time>2024-07-08T12:02:42Z</time>
      </trkpt>
      <trkpt lat="45.1359" lon="6.11313">
        <ele>2677.5</ele>
        <time>2024-07-08T12:02:43Z</time>
      </trkpt>
      <trkpt lat="45.1359" lon="6.11313">
        <ele>2677.6</ele>
        <time>2024-07-08T12:02:44Z</time>
      </trkpt>
      <trkpt lat="45.13591" lon="6.11313">
        <ele>2677.6</ele>
        <time>2024-07-08T12:02:45Z</time>
      </trkpt>
      <trkpt lat="45.13591" lon="6.11314">
        <ele>2677.6</ele>
        <time>2024-07-08T12:02:46Z</time>
      </trkpt>
      <trkpt lat="45.13591" lon="6.11314">
        <ele>2677.7</ele>
        <time>2024-07-08T12:02:47Z</time>
      </trkpt>
      <trkpt lat="45.13591" lon="6.11314">
        <ele>2677.7</ele>
        <time>2024-07-08T12:02:48Z</time>
      </trkpt>
      <trkpt lat="45.13591" lon="6.11314">
        <ele>2677.7</ele>
        <time>2024-07-08T12:02:49Z</time>
      </trkpt>
      <trkpt lat="45.13591" lon="6.11315">
        <ele>2677.7</ele>
        <time>2024-07-08T12:02:50Z</time>
      </trkpt>
      <trkpt lat="45.13591" lon="6.11315">
        <ele>2677.7</ele>
        <time>2024-07-08T12:02:51Z</time>
      </trkpt>
      <trkpt lat="45.13591" lon="6.11315">
        <ele>2677.8</ele>
        <time>2024-07-08T12:02:52Z</time>
      </trkpt>
      <trkpt lat="45.13591" lon="6.11315">
        <ele>2677.8</ele>
        <time>2024-07-08T12:02:53Z</time>
      </trkpt>
      <trkpt lat="45.13591" lon="6.11315">
        <ele>2677.8</ele>
        <time>2024-07-08T12:02:54Z</time>
      </trkpt>
      <trkpt lat="45.13591" lon="6.11315">
        <ele>2677.8</ele>
        <time>2024-07-08T12:02:55Z</time>
      </trkpt>
      <trkpt lat="45.13591" lon="6.11315">
        <ele>2677.8</ele>
        <time>2024-07-08T12:02:56Z</time>
      </trkpt>
      <trkpt lat="45.13591" lon="6.11316">
        <ele>2677.9</ele>
        <time>2024-07-08T12:02:57Z</time>
      </trkpt>
      <trkpt lat="45.13591" lon="6.11316">
        <ele>2677.9</ele>
        <time>2024-07-08T12:02:58Z</time>
      </trkpt>
      <trkpt lat="45.1359" lon="6.11316">
        <ele>2677.9</ele>
        <time>2024-07-08T12:02:59Z</time>
      </trkpt>
      <trkpt lat="45.1359" lon="6.11315">
        <ele>2677.9</ele>
        <time>2024-07-08T12:03:00Z</time>
      </trkpt>
      <trkpt lat="45.1359" lon="6.11315">
        <ele>2678</ele>
        <time>2024-07-08T12:03:01Z</time>
      </trkpt>
      <trkpt lat="45.1359" lon="6.11314">
        <ele>2678.1</ele>
        <time>2024-07-08T12:03:02Z</time>
      </trkpt>
      <trkpt lat="45.13589" lon="6.11314">
        <ele>2678.2</ele>
        <time>2024-07-08T12:03:03Z</time>
      </trkpt>
      <trkpt lat="45.13588" lon="6.11313">
        <ele>2678.4</ele>
        <time>2024-07-08T12:03:04Z</time>
      </trkpt>
      <trkpt lat="45.13588" lon="6.11313">
        <ele>2678.5</ele>
        <time>2024-07-08T12:03:05Z</time>
      </trkpt>
      <trkpt lat="45.13587" lon="6.11313">
        <ele>2678.7</ele>
        <time>2024-07-08T12:03:06Z</time>
      </trkpt>
      <trkpt lat="45.13586" lon="6.11314">
        <ele>2678.8</ele>
        <time>2024-07-08T12:03:07Z</time>
      </trkpt>
      <trkpt lat="45.13585" lon="6.11314">
        <ele>2678.9</ele>
        <time>2024-07-08T12:03:08Z</time>
      </trkpt>
      <trkpt lat="45.13584" lon="6.11313">
        <ele>2679.1</ele>
        <time>2024-07-08T12:03:09Z</time>
      </trkpt>
      <trkpt lat="45.13584" lon="6.11312">
        <ele>2679.3</ele>
        <time>2024-07-08T12:03:10Z</time>
      </trkpt>
      <trkpt lat="45.13583" lon="6.11312">
        <ele>2679.5</ele>
        <time>2024-07-08T12:03:11Z</time>
      </trkpt>
      <trkpt lat="45.13582" lon="6.11311">
        <ele>2679.7</ele>
        <time>2024-07-08T12:03:12Z</time>
      </trkpt>
      <trkpt lat="45.13581" lon="6.11311">
        <ele>2679.9</ele>
        <time>2024-07-08T12:03:13Z</time>
      </trkpt>
      <trkpt lat="45.1358" lon="6.11312">
        <ele>2680.1</ele>
        <time>2024-07-08T12:03:14Z</time>
      </trkpt>
      <trkpt lat="45.1358" lon="6.11312">
        <ele>2680.2</ele>
        <time>2024-07-08T12:03:15Z</time>
      </trkpt>
      <trkpt lat="45.13579" lon="6.11313">
        <ele>2680.4</ele>
        <time>2024-07-08T12:03:16Z</time>
      </trkpt>
      <trkpt lat="45.13578" lon="6.11314">
        <ele>2680.6</ele>
        <time>2024-07-08T12:03:17Z</time>
      </trkpt>
      <trkpt lat="45.13578" lon="6.11315">
        <ele>2680.8</ele>
        <time>2024-07-08T12:03:18Z</time>
      </trkpt>
      <trkpt lat="45.13577" lon="6.11316">
        <ele>2681</ele>
        <time>2024-07-08T12:03:19Z</time>
      </trkpt>
      <trkpt lat="45.13576" lon="6.11316">
        <ele>2681.2</ele>
        <time>2024-07-08T12:03:20Z</time>
      </trkpt>
      <trkpt lat="45.13576" lon="6.11316">
        <ele>2681.3</ele>
        <time>2024-07-08T12:03:21Z</time>
      </trkpt>
      <trkpt lat="45.13575" lon="6.11317">
        <ele>2681.5</ele>
        <time>2024-07-08T12:03:22Z</time>
      </trkpt>
      <trkpt lat="45.13574" lon="6.11317">
        <ele>2681.6</ele>
        <time>2024-07-08T12:03:23Z</time>
      </trkpt>
      <trkpt lat="45.13574" lon="6.11317">
        <ele>2681.7</ele>
        <time>2024-07-08T12:03:24Z</time>
      </trkpt>
      <trkpt lat="45.13573" lon="6.11317">
        <ele>2681.8</ele>
        <time>2024-07-08T12:03:25Z</time>
      </trkpt>
      <trkpt lat="45.13573" lon="6.11318">
        <ele>2681.9</ele>
        <time>2024-07-08T12:03:26Z</time>
      </trkpt>
      <trkpt lat="45.13572" lon="6.11318">
        <ele>2682.1</ele>
        <time>2024-07-08T12:03:27Z</time>
      </trkpt>
      <trkpt lat="45.13572" lon="6.11318">
        <ele>2682.1</ele>
        <time>2024-07-08T12:03:28Z</time>
      </trkpt>
      <trkpt lat="45.13571" lon="6.11318">
        <ele>2682.2</ele>
        <time>2024-07-08T12:03:29Z</time>
      </trkpt>
      <trkpt lat="45.13571" lon="6.11318">
        <ele>2682.3</ele>
        <time>2024-07-08T12:03:30Z</time>
      </trkpt>
      <trkpt lat="45.1357" lon="6.11318">
        <ele>2682.4</ele>
        <time>2024-07-08T12:03:31Z</time>
      </trkpt>
      <trkpt lat="45.13569" lon="6.11318">
        <ele>2682.5</ele>
        <time>2024-07-08T12:03:32Z</time>
      </trkpt>
      <trkpt lat="45.13569" lon="6.11318">
        <ele>2682.6</ele>
        <time>2024-07-08T12:03:33Z</time>
      </trkpt>
      <trkpt lat="45.13569" lon="6.11318">
        <ele>2682.6</ele>
        <time>2024-07-08T12:03:34Z</time>
      </trkpt>
      <trkpt lat="45.13568" lon="6.11319">
        <ele>2682.7</ele>
        <time>2024-07-08T12:03:35Z</time>
      </trkpt>
      <trkpt lat="45.13568" lon="6.1132">
        <ele>2682.8</ele>
        <time>2024-07-08T12:03:36Z</time>
      </trkpt>
      <trkpt lat="45.13568" lon="6.1132">
        <ele>2682.9</ele>
        <time>2024-07-08T12:03:37Z</time>
      </trkpt>
      <trkpt lat="45.13567" lon="6.11321">
        <ele>2683</ele>
        <time>2024-07-08T12:03:38Z</time>
      </trkpt>
      <trkpt lat="45.13567" lon="6.11322">
        <ele>2683.1</ele>
        <time>2024-07-08T12:03:39Z</time>
      </trkpt>
      <trkpt lat="45.13567" lon="6.11323">
        <ele>2683.2</ele>
        <time>2024-07-08T12:03:40Z</time>
      </trkpt>
      <trkpt lat="45.13567" lon="6.11325">
        <ele>2683.3</ele>
        <time>2024-07-08T12:03:41Z</time>
      </trkpt>
      <trkpt lat="45.13567" lon="6.11326">
        <ele>2683.4</ele>
        <time>2024-07-08T12:03:42Z</time>
      </trkpt>
      <trkpt lat="45.13567" lon="6.11327">
        <ele>2683.4</ele>
        <time>2024-07-08T12:03:43Z</time>
      </trkpt>
      <trkpt lat="45.13567" lon="6.11327">
        <ele>2683.4</ele>
        <time>2024-07-08T12:03:44Z</time>
      </trkpt>
      <trkpt lat="45.13566" lon="6.11329">
        <ele>2683.4</ele>
        <time>2024-07-08T12:03:45Z</time>
      </trkpt>
      <trkpt lat="45.13566" lon="6.11329">
        <ele>2683.5</ele>
        <time>2024-07-08T12:03:46Z</time>
      </trkpt>
      <trkpt lat="45.13565" lon="6.11329">
        <ele>2683.5</ele>
        <time>2024-07-08T12:03:47Z</time>
      </trkpt>
      <trkpt lat="45.13564" lon="6.11328">
        <ele>2683.5</ele>
        <time>2024-07-08T12:03:48Z</time>
      </trkpt>
      <trkpt lat="45.13563" lon="6.11327">
        <ele>2683.5</ele>
        <time>2024-07-08T12:03:49Z</time>
      </trkpt>
      <trkpt lat="45.13562" lon="6.11326">
        <ele>2683.5</ele>
        <time>2024-07-08T12:03:50Z</time>
      </trkpt>
      <trkpt lat="45.13562" lon="6.11325">
        <ele>2683.5</ele>
        <time>2024-07-08T12:03:51Z</time>
      </trkpt>
      <trkpt lat="45.13561" lon="6.11324">
        <ele>2683.4</ele>
        <time>2024-07-08T12:03:52Z</time>
      </trkpt>
      <trkpt lat="45.1356" lon="6.11324">
        <ele>2683.4</ele>
        <time>2024-07-08T12:03:53Z</time>
      </trkpt>
      <trkpt lat="45.1356" lon="6.11323">
        <ele>2683.4</ele>
        <time>2024-07-08T12:03:54Z</time>
      </trkpt>
      <trkpt lat="45.13559" lon="6.11323">
        <ele>2683.4</ele>
        <time>2024-07-08T12:03:55Z</time>
      </trkpt>
      <trkpt lat="45.13558" lon="6.11322">
        <ele>2683.3</ele>
        <time>2024-07-08T12:03:56Z</time>
      </trkpt>
      <trkpt lat="45.13558" lon="6.11321">
        <ele>2683.3</ele>
        <time>2024-07-08T12:03:57Z</time>
      </trkpt>
      <trkpt lat="45.13557" lon="6.11321">
        <ele>2683.2</ele>
        <time>2024-07-08T12:03:58Z</time>
      </trkpt>
      <trkpt lat="45.13557" lon="6.1132">
        <ele>2683.2</ele>
        <time>2024-07-08T12:03:59Z</time>
      </trkpt>
      <trkpt lat="45.13556" lon="6.11319">
        <ele>2683.2</ele>
        <time>2024-07-08T12:04:00Z</time>
      </trkpt>
      <trkpt lat="45.13556" lon="6.11318">
        <ele>2683.1</ele>
        <time>2024-07-08T12:04:01Z</time>
      </trkpt>
      <trkpt lat="45.13556" lon="6.11316">
        <ele>2683.1</ele>
        <time>2024-07-08T12:04:02Z</time>
      </trkpt>
      <trkpt lat="45.13555" lon="6.11315">
        <ele>2683</ele>
        <time>2024-07-08T12:04:03Z</time>
      </trkpt>
      <trkpt lat="45.13555" lon="6.11315">
        <ele>2683</ele>
        <time>2024-07-08T12:04:04Z</time>
      </trkpt>
      <trkpt lat="45.13554" lon="6.11314">
        <ele>2683</ele>
        <time>2024-07-08T12:04:05Z</time>
      </trkpt>
      <trkpt lat="45.13553" lon="6.11313">
        <ele>2682.9</ele>
        <time>2024-07-08T12:04:06Z</time>
      </trkpt>
      <trkpt lat="45.13552" lon="6.11313">
        <ele>2682.9</ele>
        <time>2024-07-08T12:04:07Z</time>
      </trkpt>
      <trkpt lat="45.13551" lon="6.11312">
        <ele>2682.8</ele>
        <time>2024-07-08T12:04:08Z</time>
      </trkpt>
      <trkpt lat="45.1355" lon="6.11312">
        <ele>2682.8</ele>
        <time>2024-07-08T12:04:09Z</time>
      </trkpt>
      <trkpt lat="45.1355" lon="6.11312">
        <ele>2682.8</ele>
        <time>2024-07-08T12:04:10Z</time>
      </trkpt>
      <trkpt lat="45.13549" lon="6.11312">
        <ele>2682.7</ele>
        <time>2024-07-08T12:04:11Z</time>
      </trkpt>
      <trkpt lat="45.13547" lon="6.11312">
        <ele>2682.7</ele>
        <time>2024-07-08T12:04:12Z</time>
      </trkpt>
      <trkpt lat="45.13546" lon="6.11312">
        <ele>2682.7</ele>
        <time>2024-07-08T12:04:13Z</time>
      </trkpt>
      <trkpt lat="45.13545" lon="6.11312">
        <ele>2682.6</ele>
        <time>2024-07-08T12:04:14Z</time>
      </trkpt>
      <trkpt lat="45.13544" lon="6.11313">
        <ele>2682.6</ele>
        <time>2024-07-08T12:04:15Z</time>
      </trkpt>
      <trkpt lat="45.13543" lon="6.11314">
        <ele>2682.6</ele>
        <time>2024-07-08T12:04:16Z</time>
      </trkpt>
      <trkpt lat="45.13542" lon="6.11314">
        <ele>2682.6</ele>
        <time>2024-07-08T12:04:17Z</time>
      </trkpt>
      <trkpt lat="45.13541" lon="6.11315">
        <ele>2682.5</ele>
        <time>2024-07-08T12:04:18Z</time>
      </trkpt>
      <trkpt lat="45.1354" lon="6.11315">
        <ele>2682.5</ele>
        <time>2024-07-08T12:04:19Z</time>
      </trkpt>
      <trkpt lat="45.13539" lon="6.11315">
        <ele>2682.5</ele>
        <time>2024-07-08T12:04:20Z</time>
      </trkpt>
      <trkpt lat="45.13538" lon="6.11315">
        <ele>2682.5</ele>
        <time>2024-07-08T12:04:21Z</time>
      </trkpt>
      <trkpt lat="45.13537" lon="6.11315">
        <ele>2682.5</ele>
        <time>2024-07-08T12:04:22Z</time>
      </trkpt>
      <trkpt lat="45.13535" lon="6.11315">
        <ele>2682.5</ele>
        <time>2024-07-08T12:04:23Z</time>
      </trkpt>
      <trkpt lat="45.13534" lon="6.11314">
        <ele>2682.5</ele>
        <time>2024-07-08T12:04:24Z</time>
      </trkpt>
      <trkpt lat="45.13534" lon="6.11314">
        <ele>2682.5</ele>
        <time>2024-07-08T12:04:25Z</time>
      </trkpt>
      <trkpt lat="45.13532" lon="6.11313">
        <ele>2682.5</ele>
        <time>2024-07-08T12:04:26Z</time>
      </trkpt>
      <trkpt lat="45.13532" lon="6.11312">
        <ele>2682.5</ele>
        <time>2024-07-08T12:04:27Z</time>
      </trkpt>
      <trkpt lat="45.13532" lon="6.11312">
        <ele>2682.6</ele>
        <time>2024-07-08T12:04:28Z</time>
      </trkpt>
      <trkpt lat="45.13531" lon="6.11311">
        <ele>2682.6</ele>
        <time>2024-07-08T12:04:29Z</time>
      </trkpt>
      <trkpt lat="45.13531" lon="6.1131">
        <ele>2682.6</ele>
        <time>2024-07-08T12:04:30Z</time>
      </trkpt>
      <trkpt lat="45.13531" lon="6.11309">
        <ele>2682.6</ele>
        <time>2024-07-08T12:04:31Z</time>
      </trkpt>
      <trkpt lat="45.1353" lon="6.11309">
        <ele>2682.6</ele>
        <time>2024-07-08T12:04:32Z</time>
      </trkpt>
      <trkpt lat="45.13529" lon="6.11307">
        <ele>2682.6</ele>
        <time>2024-07-08T12:04:33Z</time>
      </trkpt>
      <trkpt lat="45.13529" lon="6.11305">
        <ele>2682.7</ele>
        <time>2024-07-08T12:04:34Z</time>
      </trkpt>
      <trkpt lat="45.13528" lon="6.11303">
        <ele>2682.7</ele>
        <time>2024-07-08T12:04:35Z</time>
      </trkpt>
      <trkpt lat="45.13527" lon="6.11301">
        <ele>2682.8</ele>
        <time>2024-07-08T12:04:36Z</time>
      </trkpt>
      <trkpt lat="45.13527" lon="6.11301">
        <ele>2682.8</ele>
        <time>2024-07-08T12:04:37Z</time>
      </trkpt>
      <trkpt lat="45.13526" lon="6.113">
        <ele>2682.8</ele>
        <time>2024-07-08T12:04:38Z</time>
      </trkpt>
      <trkpt lat="45.13524" lon="6.11299">
        <ele>2682.9</ele>
        <time>2024-07-08T12:04:39Z</time>
      </trkpt>
      <trkpt lat="45.13523" lon="6.11298">
        <ele>2682.9</ele>
        <time>2024-07-08T12:04:40Z</time>
      </trkpt>
      <trkpt lat="45.13522" lon="6.11298">
        <ele>2683</ele>
        <time>2024-07-08T12:04:41Z</time>
      </trkpt>
      <trkpt lat="45.13522" lon="6.11298">
        <ele>2683</ele>
        <time>2024-07-08T12:04:42Z</time>
      </trkpt>
      <trkpt lat="45.13521" lon="6.11297">
        <ele>2683.1</ele>
        <time>2024-07-08T12:04:43Z</time>
      </trkpt>
      <trkpt lat="45.1352" lon="6.11296">
        <ele>2683.1</ele>
        <time>2024-07-08T12:04:44Z</time>
      </trkpt>
      <trkpt lat="45.13519" lon="6.11296">
        <ele>2683.1</ele>
        <time>2024-07-08T12:04:45Z</time>
      </trkpt>
      <trkpt lat="45.13518" lon="6.11295">
        <ele>2683.2</ele>
        <time>2024-07-08T12:04:46Z</time>
      </trkpt>
      <trkpt lat="45.13517" lon="6.11294">
        <ele>2683.2</ele>
        <time>2024-07-08T12:04:47Z</time>
      </trkpt>
      <trkpt lat="45.13516" lon="6.11294">
        <ele>2683.3</ele>
        <time>2024-07-08T12:04:48Z</time>
      </trkpt>
      <trkpt lat="45.13515" lon="6.11293">
        <ele>2683.3</ele>
        <time>2024-07-08T12:04:49Z</time>
      </trkpt>
      <trkpt lat="45.13514" lon="6.11293">
        <ele>2683.4</ele>
        <time>2024-07-08T12:04:50Z</time>
      </trkpt>
      <trkpt lat="45.13514" lon="6.11293">
        <ele>2683.4</ele>
        <time>2024-07-08T12:04:51Z</time>
      </trkpt>
      <trkpt lat="45.13513" lon="6.11292">
        <ele>2683.5</ele>
        <time>2024-07-08T12:04:52Z</time>
      </trkpt>
      <trkpt lat="45.13512" lon="6.11291">
        <ele>2683.5</ele>
        <time>2024-07-08T12:04:53Z</time>
      </trkpt>
      <trkpt lat="45.13511" lon="6.1129">
        <ele>2683.6</ele>
        <time>2024-07-08T12:04:54Z</time>
      </trkpt>
      <trkpt lat="45.1351" lon="6.1129">
        <ele>2683.6</ele>
        <time>2024-07-08T12:04:55Z</time>
      </trkpt>
      <trkpt lat="45.13509" lon="6.1129">
        <ele>2683.6</ele>
        <time>2024-07-08T12:04:56Z</time>
      </trkpt>
      <trkpt lat="45.13508" lon="6.11289">
        <ele>2683.7</ele>
        <time>2024-07-08T12:04:57Z</time>
      </trkpt>
      <trkpt lat="45.13507" lon="6.11289">
        <ele>2683.7</ele>
        <time>2024-07-08T12:04:58Z</time>
      </trkpt>
      <trkpt lat="45.13506" lon="6.11289">
        <ele>2683.8</ele>
        <time>2024-07-08T12:04:59Z</time>
      </trkpt>
      <trkpt lat="45.13505" lon="6.11288">
        <ele>2683.8</ele>
        <time>2024-07-08T12:05:00Z</time>
      </trkpt>
      <trkpt lat="45.13505" lon="6.11287">
        <ele>2683.9</ele>
        <time>2024-07-08T12:05:01Z</time>
      </trkpt>
      <trkpt lat="45.13503" lon="6.11287">
        <ele>2683.9</ele>
        <time>2024-07-08T12:05:02Z</time>
      </trkpt>
      <trkpt lat="45.13503" lon="6.11287">
        <ele>2683.9</ele>
        <time>2024-07-08T12:05:03Z</time>
      </trkpt>
      <trkpt lat="45.13501" lon="6.11287">
        <ele>2684</ele>
        <time>2024-07-08T12:05:04Z</time>
      </trkpt>
      <trkpt lat="45.13501" lon="6.11286">
        <ele>2684</ele>
        <time>2024-07-08T12:05:05Z</time>
      </trkpt>
      <trkpt lat="45.135" lon="6.11285">
        <ele>2684.1</ele>
        <time>2024-07-08T12:05:06Z</time>
      </trkpt>
      <trkpt lat="45.13499" lon="6.11284">
        <ele>2684.1</ele>
        <time>2024-07-08T12:05:07Z</time>
      </trkpt>
      <trkpt lat="45.13498" lon="6.11283">
        <ele>2684.1</ele>
        <time>2024-07-08T12:05:08Z</time>
      </trkpt>
      <trkpt lat="45.13497" lon="6.11281">
        <ele>2684.2</ele>
        <time>2024-07-08T12:05:09Z</time>
      </trkpt>
      <trkpt lat="45.13497" lon="6.1128">
        <ele>2684.2</ele>
        <time>2024-07-08T12:05:10Z</time>
      </trkpt>
      <trkpt lat="45.13496" lon="6.11279">
        <ele>2684.2</ele>
        <time>2024-07-08T12:05:11Z</time>
      </trkpt>
      <trkpt lat="45.13496" lon="6.11278">
        <ele>2684.2</ele>
        <time>2024-07-08T12:05:12Z</time>
      </trkpt>
      <trkpt lat="45.13495" lon="6.11276">
        <ele>2684.2</ele>
        <time>2024-07-08T12:05:13Z</time>
      </trkpt>
      <trkpt lat="45.13495" lon="6.11275">
        <ele>2684.3</ele>
        <time>2024-07-08T12:05:14Z</time>
      </trkpt>
      <trkpt lat="45.13494" lon="6.11273">
        <ele>2684.3</ele>
        <time>2024-07-08T12:05:15Z</time>
      </trkpt>
      <trkpt lat="45.13493" lon="6.11272">
        <ele>2684.3</ele>
        <time>2024-07-08T12:05:16Z</time>
      </trkpt>
      <trkpt lat="45.13492" lon="6.11271">
        <ele>2684.3</ele>
        <time>2024-07-08T12:05:17Z</time>
      </trkpt>
      <trkpt lat="45.13491" lon="6.1127">
        <ele>2684.3</ele>
        <time>2024-07-08T12:05:18Z</time>
      </trkpt>
      <trkpt lat="45.13491" lon="6.1127">
        <ele>2684.3</ele>
        <time>2024-07-08T12:05:19Z</time>
      </trkpt>
      <trkpt lat="45.1349" lon="6.11269">
        <ele>2684.3</ele>
        <time>2024-07-08T12:05:20Z</time>
      </trkpt>
      <trkpt lat="45.13489" lon="6.11268">
        <ele>2684.3</ele>
        <time>2024-07-08T12:05:21Z</time>
      </trkpt>
      <trkpt lat="45.13488" lon="6.11267">
        <ele>2684.3</ele>
        <time>2024-07-08T12:05:22Z</time>
      </trkpt>
      <trkpt lat="45.13487" lon="6.11267">
        <ele>2684.3</ele>
        <time>2024-07-08T12:05:23Z</time>
      </trkpt>
      <trkpt lat="45.13486" lon="6.11266">
        <ele>2684.3</ele>
        <time>2024-07-08T12:05:24Z</time>
      </trkpt>
      <trkpt lat="45.13485" lon="6.11266">
        <ele>2684.3</ele>
        <time>2024-07-08T12:05:25Z</time>
      </trkpt>
      <trkpt lat="45.13484" lon="6.11266">
        <ele>2684.3</ele>
        <time>2024-07-08T12:05:26Z</time>
      </trkpt>
      <trkpt lat="45.13483" lon="6.11265">
        <ele>2684.3</ele>
        <time>2024-07-08T12:05:27Z</time>
      </trkpt>
      <trkpt lat="45.13482" lon="6.11265">
        <ele>2684.4</ele>
        <time>2024-07-08T12:05:28Z</time>
      </trkpt>
      <trkpt lat="45.13481" lon="6.11265">
        <ele>2684.4</ele>
        <time>2024-07-08T12:05:29Z</time>
      </trkpt>
      <trkpt lat="45.1348" lon="6.11265">
        <ele>2684.4</ele>
        <time>2024-07-08T12:05:30Z</time>
      </trkpt>
      <trkpt lat="45.13479" lon="6.11265">
        <ele>2684.4</ele>
        <time>2024-07-08T12:05:31Z</time>
      </trkpt>
      <trkpt lat="45.13478" lon="6.11265">
        <ele>2684.4</ele>
        <time>2024-07-08T12:05:32Z</time>
      </trkpt>
      <trkpt lat="45.13477" lon="6.11264">
        <ele>2684.4</ele>
        <time>2024-07-08T12:05:33Z</time>
      </trkpt>
      <trkpt lat="45.13476" lon="6.11263">
        <ele>2684.4</ele>
        <time>2024-07-08T12:05:34Z</time>
      </trkpt>
      <trkpt lat="45.13475" lon="6.11262">
        <ele>2684.5</ele>
        <time>2024-07-08T12:05:35Z</time>
      </trkpt>
      <trkpt lat="45.13475" lon="6.11261">
        <ele>2684.5</ele>
        <time>2024-07-08T12:05:36Z</time>
      </trkpt>
      <trkpt lat="45.13474" lon="6.11259">
        <ele>2684.5</ele>
        <time>2024-07-08T12:05:37Z</time>
      </trkpt>
      <trkpt lat="45.13473" lon="6.11258">
        <ele>2684.6</ele>
        <time>2024-07-08T12:05:38Z</time>
      </trkpt>
      <trkpt lat="45.13473" lon="6.11257">
        <ele>2684.6</ele>
        <time>2024-07-08T12:05:39Z</time>
      </trkpt>
      <trkpt lat="45.13472" lon="6.11255">
        <ele>2684.7</ele>
        <time>2024-07-08T12:05:40Z</time>
      </trkpt>
      <trkpt lat="45.13472" lon="6.11254">
        <ele>2684.7</ele>
        <time>2024-07-08T12:05:41Z</time>
      </trkpt>
      <trkpt lat="45.13472" lon="6.11252">
        <ele>2684.7</ele>
        <time>2024-07-08T12:05:42Z</time>
      </trkpt>
      <trkpt lat="45.13471" lon="6.11251">
        <ele>2684.8</ele>
        <time>2024-07-08T12:05:43Z</time>
      </trkpt>
      <trkpt lat="45.13471" lon="6.1125">
        <ele>2684.8</ele>
        <time>2024-07-08T12:05:44Z</time>
      </trkpt>
      <trkpt lat="45.1347" lon="6.11249">
        <ele>2684.9</ele>
        <time>2024-07-08T12:05:45Z</time>
      </trkpt>
      <trkpt lat="45.13469" lon="6.11248">
        <ele>2684.9</ele>
        <time>2024-07-08T12:05:46Z</time>
      </trkpt>
      <trkpt lat="45.13469" lon="6.11247">
        <ele>2685</ele>
        <time>2024-07-08T12:05:47Z</time>
      </trkpt>
      <trkpt lat="45.13468" lon="6.11246">
        <ele>2685</ele>
        <time>2024-07-08T12:05:48Z</time>
      </trkpt>
      <trkpt lat="45.13468" lon="6.11245">
        <ele>2685.1</ele>
        <time>2024-07-08T12:05:49Z</time>
      </trkpt>
      <trkpt lat="45.13467" lon="6.11246">
        <ele>2685.1</ele>
        <time>2024-07-08T12:05:50Z</time>
      </trkpt>
      <trkpt lat="45.13465" lon="6.11246">
        <ele>2685.2</ele>
        <time>2024-07-08T12:05:51Z</time>
      </trkpt>
      <trkpt lat="45.13464" lon="6.11246">
        <ele>2685.3</ele>
        <time>2024-07-08T12:05:52Z</time>
      </trkpt>
      <trkpt lat="45.13463" lon="6.11245">
        <ele>2685.3</ele>
        <time>2024-07-08T12:05:53Z</time>
      </trkpt>
      <trkpt lat="45.13463" lon="6.11244">
        <ele>2685.4</ele>
        <time>2024-07-08T12:05:54Z</time>
      </trkpt>
      <trkpt lat="45.13462" lon="6.11243">
        <ele>2685.5</ele>
        <time>2024-07-08T12:05:55Z</time>
      </trkpt>
      <trkpt lat="45.13461" lon="6.11242">
        <ele>2685.5</ele>
        <time>2024-07-08T12:05:56Z</time>
      </trkpt>
      <trkpt lat="45.1346" lon="6.11242">
        <ele>2685.6</ele>
        <time>2024-07-08T12:05:57Z</time>
      </trkpt>
      <trkpt lat="45.13459" lon="6.11242">
        <ele>2685.7</ele>
        <time>2024-07-08T12:05:58Z</time>
      </trkpt>
      <trkpt lat="45.13458" lon="6.11241">
        <ele>2685.7</ele>
        <time>2024-07-08T12:05:59Z</time>
      </trkpt>
      <trkpt lat="45.13457" lon="6.11241">
        <ele>2685.8</ele>
        <time>2024-07-08T12:06:00Z</time>
      </trkpt>
      <trkpt lat="45.13456" lon="6.1124">
        <ele>2685.9</ele>
        <time>2024-07-08T12:06:01Z</time>
      </trkpt>
      <trkpt lat="45.13455" lon="6.11239">
        <ele>2685.9</ele>
        <time>2024-07-08T12:06:02Z</time>
      </trkpt>
      <trkpt lat="45.13454" lon="6.11239">
        <ele>2686</ele>
        <time>2024-07-08T12:06:03Z</time>
      </trkpt>
      <trkpt lat="45.13453" lon="6.11238">
        <ele>2686.1</ele>
        <time>2024-07-08T12:06:04Z</time>
      </trkpt>
      <trkpt lat="45.13452" lon="6.11238">
        <ele>2686.2</ele>
        <time>2024-07-08T12:06:05Z</time>
      </trkpt>
      <trkpt lat="45.13451" lon="6.11237">
        <ele>2686.2</ele>
        <time>2024-07-08T12:06:06Z</time>
      </trkpt>
      <trkpt lat="45.1345" lon="6.11237">
        <ele>2686.3</ele>
        <time>2024-07-08T12:06:07Z</time>
      </trkpt>
      <trkpt lat="45.13449" lon="6.11237">
        <ele>2686.3</ele>
        <time>2024-07-08T12:06:08Z</time>
      </trkpt>
      <trkpt lat="45.13448" lon="6.11236">
        <ele>2686.4</ele>
        <time>2024-07-08T12:06:09Z</time>
      </trkpt>
      <trkpt lat="45.13447" lon="6.11236">
        <ele>2686.4</ele>
        <time>2024-07-08T12:06:10Z</time>
      </trkpt>
      <trkpt lat="45.13446" lon="6.11237">
        <ele>2686.5</ele>
        <time>2024-07-08T12:06:11Z</time>
      </trkpt>
      <trkpt lat="45.13446" lon="6.11237">
        <ele>2686.6</ele>
        <time>2024-07-08T12:06:12Z</time>
      </trkpt>
      <trkpt lat="45.13444" lon="6.11235">
        <ele>2686.7</ele>
        <time>2024-07-08T12:06:13Z</time>
      </trkpt>
      <trkpt lat="45.13444" lon="6.11234">
        <ele>2686.7</ele>
        <time>2024-07-08T12:06:14Z</time>
      </trkpt>
      <trkpt lat="45.13443" lon="6.11233">
        <ele>2686.8</ele>
        <time>2024-07-08T12:06:15Z</time>
      </trkpt>
      <trkpt lat="45.13442" lon="6.11231">
        <ele>2686.9</ele>
        <time>2024-07-08T12:06:16Z</time>
      </trkpt>
      <trkpt lat="45.13441" lon="6.1123">
        <ele>2686.9</ele>
        <time>2024-07-08T12:06:17Z</time>
      </trkpt>
      <trkpt lat="45.13441" lon="6.1123">
        <ele>2687</ele>
        <time>2024-07-08T12:06:18Z</time>
      </trkpt>
      <trkpt lat="45.1344" lon="6.11228">
        <ele>2687.1</ele>
        <time>2024-07-08T12:06:19Z</time>
      </trkpt>
      <trkpt lat="45.13439" lon="6.11228">
        <ele>2687.1</ele>
        <time>2024-07-08T12:06:20Z</time>
      </trkpt>
      <trkpt lat="45.13438" lon="6.11227">
        <ele>2687.2</ele>
        <time>2024-07-08T12:06:21Z</time>
      </trkpt>
      <trkpt lat="45.13437" lon="6.11226">
        <ele>2687.2</ele>
        <time>2024-07-08T12:06:22Z</time>
      </trkpt>
      <trkpt lat="45.13436" lon="6.11226">
        <ele>2687.3</ele>
        <time>2024-07-08T12:06:23Z</time>
      </trkpt>
      <trkpt lat="45.13434" lon="6.11226">
        <ele>2687.3</ele>
        <time>2024-07-08T12:06:24Z</time>
      </trkpt>
      <trkpt lat="45.13433" lon="6.11226">
        <ele>2687.4</ele>
        <time>2024-07-08T12:06:25Z</time>
      </trkpt>
      <trkpt lat="45.13432" lon="6.11225">
        <ele>2687.4</ele>
        <time>2024-07-08T12:06:26Z</time>
      </trkpt>
      <trkpt lat="45.13431" lon="6.11224">
        <ele>2687.5</ele>
        <time>2024-07-08T12:06:27Z</time>
      </trkpt>
      <trkpt lat="45.1343" lon="6.11224">
        <ele>2687.5</ele>
        <time>2024-07-08T12:06:28Z</time>
      </trkpt>
      <trkpt lat="45.13429" lon="6.11224">
        <ele>2687.5</ele>
        <time>2024-07-08T12:06:29Z</time>
      </trkpt>
      <trkpt lat="45.13428" lon="6.11223">
        <ele>2687.6</ele>
        <time>2024-07-08T12:06:30Z</time>
      </trkpt>
      <trkpt lat="45.13427" lon="6.11222">
        <ele>2687.6</ele>
        <time>2024-07-08T12:06:31Z</time>
      </trkpt>
      <trkpt lat="45.13427" lon="6.11221">
        <ele>2687.6</ele>
        <time>2024-07-08T12:06:32Z</time>
      </trkpt>
      <trkpt lat="45.13427" lon="6.1122">
        <ele>2687.7</ele>
        <time>2024-07-08T12:06:33Z</time>
      </trkpt>
      <trkpt lat="45.13425" lon="6.11218">
        <ele>2687.7</ele>
        <time>2024-07-08T12:06:34Z</time>
      </trkpt>
      <trkpt lat="45.13425" lon="6.11218">
        <ele>2687.7</ele>
        <time>2024-07-08T12:06:35Z</time>
      </trkpt>
      <trkpt lat="45.13424" lon="6.11217">
        <ele>2687.7</ele>
        <time>2024-07-08T12:06:36Z</time>
      </trkpt>
      <trkpt lat="45.13424" lon="6.11217">
        <ele>2687.8</ele>
        <time>2024-07-08T12:06:37Z</time>
      </trkpt>
      <trkpt lat="45.13423" lon="6.11216">
        <ele>2687.8</ele>
        <time>2024-07-08T12:06:38Z</time>
      </trkpt>
      <trkpt lat="45.13423" lon="6.11215">
        <ele>2687.8</ele>
        <time>2024-07-08T12:06:39Z</time>
      </trkpt>
      <trkpt lat="45.13423" lon="6.11214">
        <ele>2687.8</ele>
        <time>2024-07-08T12:06:40Z</time>
      </trkpt>
      <trkpt lat="45.13424" lon="6.11212">
        <ele>2687.8</ele>
        <time>2024-07-08T12:06:41Z</time>
      </trkpt>
      <trkpt lat="45.13425" lon="6.11211">
        <ele>2687.8</ele>
        <time>2024-07-08T12:06:42Z</time>
      </trkpt>
      <trkpt lat="45.13426" lon="6.1121">
        <ele>2687.9</ele>
        <time>2024-07-08T12:06:43Z</time>
      </trkpt>
      <trkpt lat="45.13426" lon="6.11209">
        <ele>2687.9</ele>
        <time>2024-07-08T12:06:44Z</time>
      </trkpt>
      <trkpt lat="45.13426" lon="6.11207">
        <ele>2687.9</ele>
        <time>2024-07-08T12:06:45Z</time>
      </trkpt>
      <trkpt lat="45.13425" lon="6.11205">
        <ele>2687.9</ele>
        <time>2024-07-08T12:06:46Z</time>
      </trkpt>
      <trkpt lat="45.13424" lon="6.11204">
        <ele>2687.9</ele>
        <time>2024-07-08T12:06:47Z</time>
      </trkpt>
      <trkpt lat="45.13422" lon="6.11203">
        <ele>2687.9</ele>
        <time>2024-07-08T12:06:48Z</time>
      </trkpt>
      <trkpt lat="45.13421" lon="6.11203">
        <ele>2687.9</ele>
        <time>2024-07-08T12:06:49Z</time>
      </trkpt>
      <trkpt lat="45.13421" lon="6.11202">
        <ele>2687.9</ele>
        <time>2024-07-08T12:06:50Z</time>
      </trkpt>
      <trkpt lat="45.1342" lon="6.11202">
        <ele>2687.9</ele>
        <time>2024-07-08T12:06:51Z</time>
      </trkpt>
      <trkpt lat="45.13419" lon="6.11201">
        <ele>2688</ele>
        <time>2024-07-08T12:06:52Z</time>
      </trkpt>
      <trkpt lat="45.13418" lon="6.112">
        <ele>2688</ele>
        <time>2024-07-08T12:06:53Z</time>
      </trkpt>
      <trkpt lat="45.13417" lon="6.112">
        <ele>2688</ele>
        <time>2024-07-08T12:06:54Z</time>
      </trkpt>
      <trkpt lat="45.13416" lon="6.11199">
        <ele>2688</ele>
        <time>2024-07-08T12:06:55Z</time>
      </trkpt>
      <trkpt lat="45.13416" lon="6.11198">
        <ele>2688</ele>
        <time>2024-07-08T12:06:56Z</time>
      </trkpt>
      <trkpt lat="45.13415" lon="6.11196">
        <ele>2688</ele>
        <time>2024-07-08T12:06:57Z</time>
      </trkpt>
      <trkpt lat="45.13414" lon="6.11195">
        <ele>2688</ele>
        <time>2024-07-08T12:06:58Z</time>
      </trkpt>
      <trkpt lat="45.13413" lon="6.11195">
        <ele>2688</ele>
        <time>2024-07-08T12:06:59Z</time>
      </trkpt>
      <trkpt lat="45.13411" lon="6.11194">
        <ele>2688</ele>
        <time>2024-07-08T12:07:00Z</time>
      </trkpt>
      <trkpt lat="45.1341" lon="6.11194">
        <ele>2688</ele>
        <time>2024-07-08T12:07:01Z</time>
      </trkpt>
      <trkpt lat="45.1341" lon="6.11193">
        <ele>2688</ele>
        <time>2024-07-08T12:07:02Z</time>
      </trkpt>
      <trkpt lat="45.13408" lon="6.11192">
        <ele>2688</ele>
        <time>2024-07-08T12:07:03Z</time>
      </trkpt>
      <trkpt lat="45.13407" lon="6.11192">
        <ele>2688</ele>
        <time>2024-07-08T12:07:04Z</time>
      </trkpt>
      <trkpt lat="45.13406" lon="6.11191">
        <ele>2688</ele>
        <time>2024-07-08T12:07:05Z</time>
      </trkpt>
      <trkpt lat="45.13405" lon="6.11191">
        <ele>2688.1</ele>
        <time>2024-07-08T12:07:06Z</time>
      </trkpt>
      <trkpt lat="45.13404" lon="6.1119">
        <ele>2688.1</ele>
        <time>2024-07-08T12:07:07Z</time>
      </trkpt>
      <trkpt lat="45.13403" lon="6.11189">
        <ele>2688.1</ele>
        <time>2024-07-08T12:07:08Z</time>
      </trkpt>
      <trkpt lat="45.13402" lon="6.11188">
        <ele>2688.1</ele>
        <time>2024-07-08T12:07:09Z</time>
      </trkpt>
      <trkpt lat="45.13401" lon="6.11187">
        <ele>2688.1</ele>
        <time>2024-07-08T12:07:10Z</time>
      </trkpt>
      <trkpt lat="45.134" lon="6.11187">
        <ele>2688.1</ele>
        <time>2024-07-08T12:07:11Z</time>
      </trkpt>
      <trkpt lat="45.13399" lon="6.11186">
        <ele>2688.1</ele>
        <time>2024-07-08T12:07:12Z</time>
      </trkpt>
      <trkpt lat="45.13398" lon="6.11186">
        <ele>2688.1</ele>
        <time>2024-07-08T12:07:13Z</time>
      </trkpt>
      <trkpt lat="45.13397" lon="6.11185">
        <ele>2688.1</ele>
        <time>2024-07-08T12:07:14Z</time>
      </trkpt>
      <trkpt lat="45.13396" lon="6.11184">
        <ele>2688</ele>
        <time>2024-07-08T12:07:15Z</time>
      </trkpt>
      <trkpt lat="45.13395" lon="6.11184">
        <ele>2688</ele>
        <time>2024-07-08T12:07:16Z</time>
      </trkpt>
      <trkpt lat="45.13394" lon="6.11184">
        <ele>2688</ele>
        <time>2024-07-08T12:07:17Z</time>
      </trkpt>
      <trkpt lat="45.13392" lon="6.11184">
        <ele>2688</ele>
        <time>2024-07-08T12:07:18Z</time>
      </trkpt>
      <trkpt lat="45.13391" lon="6.11184">
        <ele>2688</ele>
        <time>2024-07-08T12:07:19Z</time>
      </trkpt>
      <trkpt lat="45.1339" lon="6.11184">
        <ele>2688</ele>
        <time>2024-07-08T12:07:20Z</time>
      </trkpt>
      <trkpt lat="45.13389" lon="6.11183">
        <ele>2688</ele>
        <time>2024-07-08T12:07:21Z</time>
      </trkpt>
      <trkpt lat="45.13388" lon="6.11182">
        <ele>2688</ele>
        <time>2024-07-08T12:07:22Z</time>
      </trkpt>
      <trkpt lat="45.13387" lon="6.11182">
        <ele>2687.9</ele>
        <time>2024-07-08T12:07:23Z</time>
      </trkpt>
      <trkpt lat="45.13386" lon="6.11183">
        <ele>2687.9</ele>
        <time>2024-07-08T12:07:24Z</time>
      </trkpt>
      <trkpt lat="45.13385" lon="6.11182">
        <ele>2687.9</ele>
        <time>2024-07-08T12:07:25Z</time>
      </trkpt>
      <trkpt lat="45.13384" lon="6.11182">
        <ele>2687.9</ele>
        <time>2024-07-08T12:07:26Z</time>
      </trkpt>
      <trkpt lat="45.13382" lon="6.11181">
        <ele>2687.8</ele>
        <time>2024-07-08T12:07:27Z</time>
      </trkpt>
      <trkpt lat="45.13381" lon="6.11181">
        <ele>2687.8</ele>
        <time>2024-07-08T12:07:28Z</time>
      </trkpt>
      <trkpt lat="45.1338" lon="6.1118">
        <ele>2687.8</ele>
        <time>2024-07-08T12:07:29Z</time>
      </trkpt>
      <trkpt lat="45.1338" lon="6.11179">
        <ele>2687.8</ele>
        <time>2024-07-08T12:07:30Z</time>
      </trkpt>
      <trkpt lat="45.13379" lon="6.11178">
        <ele>2687.7</ele>
        <time>2024-07-08T12:07:31Z</time>
      </trkpt>
      <trkpt lat="45.13378" lon="6.11177">
        <ele>2687.7</ele>
        <time>2024-07-08T12:07:32Z</time>
      </trkpt>
      <trkpt lat="45.13377" lon="6.11176">
        <ele>2687.7</ele>
        <time>2024-07-08T12:07:33Z</time>
      </trkpt>
      <trkpt lat="45.13376" lon="6.11175">
        <ele>2687.6</ele>
        <time>2024-07-08T12:07:34Z</time>
      </trkpt>
      <trkpt lat="45.13376" lon="6.11174">
        <ele>2687.6</ele>
        <time>2024-07-08T12:07:35Z</time>
      </trkpt>
      <trkpt lat="45.13375" lon="6.11173">
        <ele>2687.6</ele>
        <time>2024-07-08T12:07:36Z</time>
      </trkpt>
      <trkpt lat="45.13374" lon="6.11173">
        <ele>2687.5</ele>
        <time>2024-07-08T12:07:37Z</time>
      </trkpt>
      <trkpt lat="45.13373" lon="6.11172">
        <ele>2687.5</ele>
        <time>2024-07-08T12:07:38Z</time>
      </trkpt>
      <trkpt lat="45.13371" lon="6.11171">
        <ele>2687.4</ele>
        <time>2024-07-08T12:07:39Z</time>
      </trkpt>
      <trkpt lat="45.13371" lon="6.11171">
        <ele>2687.4</ele>
        <time>2024-07-08T12:07:40Z</time>
      </trkpt>
      <trkpt lat="45.1337" lon="6.1117">
        <ele>2687.4</ele>
        <time>2024-07-08T12:07:41Z</time>
      </trkpt>
      <trkpt lat="45.13369" lon="6.11169">
        <ele>2687.3</ele>
        <time>2024-07-08T12:07:42Z</time>
      </trkpt>
      <trkpt lat="45.13368" lon="6.11169">
        <ele>2687.3</ele>
        <time>2024-07-08T12:07:43Z</time>
      </trkpt>
      <trkpt lat="45.13367" lon="6.11169">
        <ele>2687.2</ele>
        <time>2024-07-08T12:07:44Z</time>
      </trkpt>
      <trkpt lat="45.13366" lon="6.11168">
        <ele>2687.2</ele>
        <time>2024-07-08T12:07:45Z</time>
      </trkpt>
      <trkpt lat="45.13364" lon="6.11168">
        <ele>2687.1</ele>
        <time>2024-07-08T12:07:46Z</time>
      </trkpt>
      <trkpt lat="45.13363" lon="6.11167">
        <ele>2687.1</ele>
        <time>2024-07-08T12:07:47Z</time>
      </trkpt>
      <trkpt lat="45.13362" lon="6.11167">
        <ele>2687</ele>
        <time>2024-07-08T12:07:48Z</time>
      </trkpt>
      <trkpt lat="45.13361" lon="6.11166">
        <ele>2687</ele>
        <time>2024-07-08T12:07:49Z</time>
      </trkpt>
      <trkpt lat="45.13361" lon="6.11166">
        <ele>2687</ele>
        <time>2024-07-08T12:07:50Z</time>
      </trkpt>
      <trkpt lat="45.1336" lon="6.11166">
        <ele>2687</ele>
        <time>2024-07-08T12:07:51Z</time>
      </trkpt>
      <trkpt lat="45.13359" lon="6.11166">
        <ele>2686.9</ele>
        <time>2024-07-08T12:07:52Z</time>
      </trkpt>
      <trkpt lat="45.13358" lon="6.11167">
        <ele>2686.9</ele>
        <time>2024-07-08T12:07:53Z</time>
      </trkpt>
      <trkpt lat="45.13357" lon="6.11168">
        <ele>2686.8</ele>
        <time>2024-07-08T12:07:54Z</time>
      </trkpt>
      <trkpt lat="45.13356" lon="6.11169">
        <ele>2686.8</ele>
        <time>2024-07-08T12:07:55Z</time>
      </trkpt>
      <trkpt lat="45.13355" lon="6.11169">
        <ele>2686.8</ele>
        <time>2024-07-08T12:07:56Z</time>
      </trkpt>
      <trkpt lat="45.13354" lon="6.11169">
        <ele>2686.7</ele>
        <time>2024-07-08T12:07:57Z</time>
      </trkpt>
      <trkpt lat="45.13353" lon="6.11168">
        <ele>2686.7</ele>
        <time>2024-07-08T12:07:58Z</time>
      </trkpt>
      <trkpt lat="45.13352" lon="6.11167">
        <ele>2686.6</ele>
        <time>2024-07-08T12:07:59Z</time>
      </trkpt>
      <trkpt lat="45.13351" lon="6.11166">
        <ele>2686.6</ele>
        <time>2024-07-08T12:08:00Z</time>
      </trkpt>
      <trkpt lat="45.1335" lon="6.11165">
        <ele>2686.5</ele>
        <time>2024-07-08T12:08:01Z</time>
      </trkpt>
      <trkpt lat="45.13349" lon="6.11164">
        <ele>2686.5</ele>
        <time>2024-07-08T12:08:02Z</time>
      </trkpt>
      <trkpt lat="45.13348" lon="6.11163">
        <ele>2686.5</ele>
        <time>2024-07-08T12:08:03Z</time>
      </trkpt>
      <trkpt lat="45.13347" lon="6.11163">
        <ele>2686.4</ele>
        <time>2024-07-08T12:08:04Z</time>
      </trkpt>
      <trkpt lat="45.13346" lon="6.11162">
        <ele>2686.4</ele>
        <time>2024-07-08T12:08:05Z</time>
      </trkpt>
      <trkpt lat="45.13345" lon="6.11161">
        <ele>2686.3</ele>
        <time>2024-07-08T12:08:06Z</time>
      </trkpt>
      <trkpt lat="45.13344" lon="6.1116">
        <ele>2686.3</ele>
        <time>2024-07-08T12:08:07Z</time>
      </trkpt>
      <trkpt lat="45.13343" lon="6.1116">
        <ele>2686.3</ele>
        <time>2024-07-08T12:08:08Z</time>
      </trkpt>
      <trkpt lat="45.13343" lon="6.11158">
        <ele>2686.2</ele>
        <time>2024-07-08T12:08:09Z</time>
      </trkpt>
      <trkpt lat="45.13342" lon="6.11157">
        <ele>2686.2</ele>
        <time>2024-07-08T12:08:10Z</time>
      </trkpt>
      <trkpt lat="45.13341" lon="6.11157">
        <ele>2686.2</ele>
        <time>2024-07-08T12:08:11Z</time>
      </trkpt>
      <trkpt lat="45.1334" lon="6.11156">
        <ele>2686.2</ele>
        <time>2024-07-08T12:08:12Z</time>
      </trkpt>
      <trkpt lat="45.13339" lon="6.11156">
        <ele>2686.1</ele>
        <time>2024-07-08T12:08:13Z</time>
      </trkpt>
      <trkpt lat="45.13338" lon="6.11155">
        <ele>2686.1</ele>
        <time>2024-07-08T12:08:14Z</time>
      </trkpt>
      <trkpt lat="45.13338" lon="6.11154">
        <ele>2686.1</ele>
        <time>2024-07-08T12:08:15Z</time>
      </trkpt>
      <trkpt lat="45.13337" lon="6.11153">
        <ele>2686.1</ele>
        <time>2024-07-08T12:08:16Z</time>
      </trkpt>
      <trkpt lat="45.13336" lon="6.11153">
        <ele>2686.1</ele>
        <time>2024-07-08T12:08:17Z</time>
      </trkpt>
      <trkpt lat="45.13335" lon="6.11152">
        <ele>2686</ele>
        <time>2024-07-08T12:08:18Z</time>
      </trkpt>
      <trkpt lat="45.13334" lon="6.11152">
        <ele>2686</ele>
        <time>2024-07-08T12:08:19Z</time>
      </trkpt>
      <trkpt lat="45.13333" lon="6.11151">
        <ele>2686</ele>
        <time>2024-07-08T12:08:20Z</time>
      </trkpt>
      <trkpt lat="45.13332" lon="6.1115">
        <ele>2686</ele>
        <time>2024-07-08T12:08:21Z</time>
      </trkpt>
      <trkpt lat="45.13331" lon="6.1115">
        <ele>2686</ele>
        <time>2024-07-08T12:08:22Z</time>
      </trkpt>
      <trkpt lat="45.1333" lon="6.11149">
        <ele>2686</ele>
        <time>2024-07-08T12:08:23Z</time>
      </trkpt>
      <trkpt lat="45.13329" lon="6.11148">
        <ele>2685.9</ele>
        <time>2024-07-08T12:08:24Z</time>
      </trkpt>
      <trkpt lat="45.13328" lon="6.11148">
        <ele>2685.9</ele>
        <time>2024-07-08T12:08:25Z</time>
      </trkpt>
      <trkpt lat="45.13327" lon="6.11147">
        <ele>2685.9</ele>
        <time>2024-07-08T12:08:26Z</time>
      </trkpt>
      <trkpt lat="45.13326" lon="6.11146">
        <ele>2685.9</ele>
        <time>2024-07-08T12:08:27Z</time>
      </trkpt>
      <trkpt lat="45.13325" lon="6.11145">
        <ele>2685.9</ele>
        <time>2024-07-08T12:08:28Z</time>
      </trkpt>
      <trkpt lat="45.13325" lon="6.11145">
        <ele>2685.9</ele>
        <time>2024-07-08T12:08:29Z</time>
      </trkpt>
      <trkpt lat="45.13324" lon="6.11144">
        <ele>2685.9</ele>
        <time>2024-07-08T12:08:30Z</time>
      </trkpt>
      <trkpt lat="45.13325" lon="6.11144">
        <ele>2685.9</ele>
        <time>2024-07-08T12:08:31Z</time>
      </trkpt>
      <trkpt lat="45.13325" lon="6.11144">
        <ele>2685.9</ele>
        <time>2024-07-08T12:08:32Z</time>
      </trkpt>
      <trkpt lat="45.13325" lon="6.11145">
        <ele>2685.9</ele>
        <time>2024-07-08T12:08:33Z</time>
      </trkpt>
      <trkpt lat="45.13325" lon="6.11145">
        <ele>2685.9</ele>
        <time>2024-07-08T12:08:34Z</time>
      </trkpt>
      <trkpt lat="45.13326" lon="6.11145">
        <ele>2685.9</ele>
        <time>2024-07-08T12:08:35Z</time>
      </trkpt>
      <trkpt lat="45.13325" lon="6.11145">
        <ele>2685.9</ele>
        <time>2024-07-08T12:08:36Z</time>
      </trkpt>
      <trkpt lat="45.13325" lon="6.11145">
        <ele>2685.9</ele>
        <time>2024-07-08T12:08:37Z</time>
      </trkpt>
      <trkpt lat="45.13325" lon="6.11145">
        <ele>2685.9</ele>
        <time>2024-07-08T12:08:38Z</time>
      </trkpt>
      <trkpt lat="45.13325" lon="6.11145">
        <ele>2685.9</ele>
        <time>2024-07-08T12:08:39Z</time>
      </trkpt>
      <trkpt lat="45.13325" lon="6.11145">
        <ele>2685.9</ele>
        <time>2024-07-08T12:08:40Z</time>
      </trkpt>
      <trkpt lat="45.13325" lon="6.11145">
        <ele>2685.9</ele>
        <time>2024-07-08T12:08:41Z</time>
      </trkpt>
      <trkpt lat="45.13325" lon="6.11145">
        <ele>2685.9</ele>
        <time>2024-07-08T12:08:42Z</time>
      </trkpt>
      <trkpt lat="45.13325" lon="6.11144">
        <ele>2685.9</ele>
        <time>2024-07-08T12:08:43Z</time>
      </trkpt>
      <trkpt lat="45.13325" lon="6.11144">
        <ele>2685.9</ele>
        <time>2024-07-08T12:08:44Z</time>
      </trkpt>
      <trkpt lat="45.13324" lon="6.11143">
        <ele>2685.9</ele>
        <time>2024-07-08T12:08:45Z</time>
      </trkpt>
      <trkpt lat="45.13322" lon="6.11143">
        <ele>2685.8</ele>
        <time>2024-07-08T12:08:46Z</time>
      </trkpt>
      <trkpt lat="45.13321" lon="6.11143">
        <ele>2685.8</ele>
        <time>2024-07-08T12:08:47Z</time>
      </trkpt>
      <trkpt lat="45.1332" lon="6.11142">
        <ele>2685.8</ele>
        <time>2024-07-08T12:08:48Z</time>
      </trkpt>
      <trkpt lat="45.13319" lon="6.11142">
        <ele>2685.8</ele>
        <time>2024-07-08T12:08:49Z</time>
      </trkpt>
      <trkpt lat="45.13318" lon="6.11141">
        <ele>2685.8</ele>
        <time>2024-07-08T12:08:50Z</time>
      </trkpt>
      <trkpt lat="45.13317" lon="6.1114">
        <ele>2685.8</ele>
        <time>2024-07-08T12:08:51Z</time>
      </trkpt>
      <trkpt lat="45.13316" lon="6.11139">
        <ele>2685.8</ele>
        <time>2024-07-08T12:08:52Z</time>
      </trkpt>
      <trkpt lat="45.13315" lon="6.11139">
        <ele>2685.7</ele>
        <time>2024-07-08T12:08:53Z</time>
      </trkpt>
      <trkpt lat="45.13315" lon="6.11137">
        <ele>2685.7</ele>
        <time>2024-07-08T12:08:54Z</time>
      </trkpt>
      <trkpt lat="45.13313" lon="6.11137">
        <ele>2685.7</ele>
        <time>2024-07-08T12:08:55Z</time>
      </trkpt>
      <trkpt lat="45.13313" lon="6.11136">
        <ele>2685.7</ele>
        <time>2024-07-08T12:08:56Z</time>
      </trkpt>
      <trkpt lat="45.13312" lon="6.11134">
        <ele>2685.7</ele>
        <time>2024-07-08T12:08:57Z</time>
      </trkpt>
      <trkpt lat="45.13311" lon="6.11134">
        <ele>2685.7</ele>
        <time>2024-07-08T12:08:58Z</time>
      </trkpt>
      <trkpt lat="45.1331" lon="6.11133">
        <ele>2685.7</ele>
        <time>2024-07-08T12:08:59Z</time>
      </trkpt>
      <trkpt lat="45.13309" lon="6.11132">
        <ele>2685.7</ele>
        <time>2024-07-08T12:09:00Z</time>
      </trkpt>
      <trkpt lat="45.13309" lon="6.11131">
        <ele>2685.7</ele>
        <time>2024-07-08T12:09:01Z</time>
      </trkpt>
      <trkpt lat="45.13308" lon="6.11131">
        <ele>2685.6</ele>
        <time>2024-07-08T12:09:02Z</time>
      </trkpt>
      <trkpt lat="45.13306" lon="6.1113">
        <ele>2685.6</ele>
        <time>2024-07-08T12:09:03Z</time>
      </trkpt>
      <trkpt lat="45.13305" lon="6.11129">
        <ele>2685.6</ele>
        <time>2024-07-08T12:09:04Z</time>
      </trkpt>
      <trkpt lat="45.13304" lon="6.11129">
        <ele>2685.6</ele>
        <time>2024-07-08T12:09:05Z</time>
      </trkpt>
      <trkpt lat="45.13304" lon="6.11129">
        <ele>2685.6</ele>
        <time>2024-07-08T12:09:06Z</time>
      </trkpt>
      <trkpt lat="45.13303" lon="6.11128">
        <ele>2685.6</ele>
        <time>2024-07-08T12:09:07Z</time>
      </trkpt>
      <trkpt lat="45.13302" lon="6.11127">
        <ele>2685.5</ele>
        <time>2024-07-08T12:09:08Z</time>
      </trkpt>
      <trkpt lat="45.13301" lon="6.11127">
        <ele>2685.5</ele>
        <time>2024-07-08T12:09:09Z</time>
      </trkpt>
      <trkpt lat="45.133" lon="6.11126">
        <ele>2685.5</ele>
        <time>2024-07-08T12:09:10Z</time>
      </trkpt>
      <trkpt lat="45.13299" lon="6.11125">
        <ele>2685.5</ele>
        <time>2024-07-08T12:09:11Z</time>
      </trkpt>
      <trkpt lat="45.13299" lon="6.11125">
        <ele>2685.5</ele>
        <time>2024-07-08T12:09:12Z</time>
      </trkpt>
      <trkpt lat="45.13297" lon="6.11125">
        <ele>2685.5</ele>
        <time>2024-07-08T12:09:13Z</time>
      </trkpt>
      <trkpt lat="45.13297" lon="6.11124">
        <ele>2685.4</ele>
        <time>2024-07-08T12:09:14Z</time>
      </trkpt>
      <trkpt lat="45.13296" lon="6.11124">
        <ele>2685.4</ele>
        <time>2024-07-08T12:09:15Z</time>
      </trkpt>
      <trkpt lat="45.13295" lon="6.11124">
        <ele>2685.4</ele>
        <time>2024-07-08T12:09:16Z</time>
      </trkpt>
      <trkpt lat="45.13294" lon="6.11123">
        <ele>2685.4</ele>
        <time>2024-07-08T12:09:17Z</time>
      </trkpt>
      <trkpt lat="45.13292" lon="6.11123">
        <ele>2685.4</ele>
        <time>2024-07-08T12:09:18Z</time>
      </trkpt>
      <trkpt lat="45.13292" lon="6.11123">
        <ele>2685.3</ele>
        <time>2024-07-08T12:09:19Z</time>
      </trkpt>
      <trkpt lat="45.13291" lon="6.11123">
        <ele>2685.3</ele>
        <time>2024-07-08T12:09:20Z</time>
      </trkpt>
      <trkpt lat="45.1329" lon="6.11123">
        <ele>2685.3</ele>
        <time>2024-07-08T12:09:21Z</time>
      </trkpt>
      <trkpt lat="45.1329" lon="6.11122">
        <ele>2685.3</ele>
        <time>2024-07-08T12:09:22Z</time>
      </trkpt>
      <trkpt lat="45.13288" lon="6.11122">
        <ele>2685.3</ele>
        <time>2024-07-08T12:09:23Z</time>
      </trkpt>
      <trkpt lat="45.13287" lon="6.11121">
        <ele>2685.3</ele>
        <time>2024-07-08T12:09:24Z</time>
      </trkpt>
      <trkpt lat="45.13286" lon="6.11121">
        <ele>2685.2</ele>
        <time>2024-07-08T12:09:25Z</time>
      </trkpt>
      <trkpt lat="45.13285" lon="6.1112">
        <ele>2685.2</ele>
        <time>2024-07-08T12:09:26Z</time>
      </trkpt>
      <trkpt lat="45.13284" lon="6.1112">
        <ele>2685.2</ele>
        <time>2024-07-08T12:09:27Z</time>
      </trkpt>
      <trkpt lat="45.13283" lon="6.11119">
        <ele>2685.2</ele>
        <time>2024-07-08T12:09:28Z</time>
      </trkpt>
      <trkpt lat="45.13282" lon="6.11118">
        <ele>2685.2</ele>
        <time>2024-07-08T12:09:29Z</time>
      </trkpt>
      <trkpt lat="45.13281" lon="6.11117">
        <ele>2685.1</ele>
        <time>2024-07-08T12:09:30Z</time>
      </trkpt>
      <trkpt lat="45.1328" lon="6.11116">
        <ele>2685.1</ele>
        <time>2024-07-08T12:09:31Z</time>
      </trkpt>
      <trkpt lat="45.13279" lon="6.11115">
        <ele>2685.1</ele>
        <time>2024-07-08T12:09:32Z</time>
      </trkpt>
      <trkpt lat="45.13278" lon="6.11114">
        <ele>2685.1</ele>
        <time>2024-07-08T12:09:33Z</time>
      </trkpt>
      <trkpt lat="45.13277" lon="6.11113">
        <ele>2685.1</ele>
        <time>2024-07-08T12:09:34Z</time>
      </trkpt>
      <trkpt lat="45.13277" lon="6.11113">
        <ele>2685.1</ele>
        <time>2024-07-08T12:09:35Z</time>
      </trkpt>
      <trkpt lat="45.13275" lon="6.11112">
        <ele>2685.1</ele>
        <time>2024-07-08T12:09:36Z</time>
      </trkpt>
      <trkpt lat="45.13275" lon="6.11112">
        <ele>2685.1</ele>
        <time>2024-07-08T12:09:37Z</time>
      </trkpt>
      <trkpt lat="45.13274" lon="6.11112">
        <ele>2685.1</ele>
        <time>2024-07-08T12:09:38Z</time>
      </trkpt>
      <trkpt lat="45.13273" lon="6.11111">
        <ele>2685.1</ele>
        <time>2024-07-08T12:09:39Z</time>
      </trkpt>
      <trkpt lat="45.13272" lon="6.1111">
        <ele>2685.1</ele>
        <time>2024-07-08T12:09:40Z</time>
      </trkpt>
      <trkpt lat="45.13272" lon="6.11109">
        <ele>2685.1</ele>
        <time>2024-07-08T12:09:41Z</time>
      </trkpt>
      <trkpt lat="45.13272" lon="6.11107">
        <ele>2685.1</ele>
        <time>2024-07-08T12:09:42Z</time>
      </trkpt>
      <trkpt lat="45.13272" lon="6.11106">
        <ele>2685.1</ele>
        <time>2024-07-08T12:09:43Z</time>
      </trkpt>
      <trkpt lat="45.13271" lon="6.11104">
        <ele>2685.1</ele>
        <time>2024-07-08T12:09:44Z</time>
      </trkpt>
      <trkpt lat="45.13271" lon="6.11103">
        <ele>2685.1</ele>
        <time>2024-07-08T12:09:45Z</time>
      </trkpt>
      <trkpt lat="45.1327" lon="6.11102">
        <ele>2685.1</ele>
        <time>2024-07-08T12:09:46Z</time>
      </trkpt>
      <trkpt lat="45.1327" lon="6.111">
        <ele>2685.1</ele>
        <time>2024-07-08T12:09:47Z</time>
      </trkpt>
      <trkpt lat="45.1327" lon="6.11098">
        <ele>2685.1</ele>
        <time>2024-07-08T12:09:48Z</time>
      </trkpt>
      <trkpt lat="45.1327" lon="6.11097">
        <ele>2685.1</ele>
        <time>2024-07-08T12:09:49Z</time>
      </trkpt>
      <trkpt lat="45.13269" lon="6.11095">
        <ele>2685.1</ele>
        <time>2024-07-08T12:09:50Z</time>
      </trkpt>
      <trkpt lat="45.13268" lon="6.11094">
        <ele>2685.1</ele>
        <time>2024-07-08T12:09:51Z</time>
      </trkpt>
      <trkpt lat="45.13267" lon="6.11094">
        <ele>2685.2</ele>
        <time>2024-07-08T12:09:52Z</time>
      </trkpt>
      <trkpt lat="45.13265" lon="6.11094">
        <ele>2685.2</ele>
        <time>2024-07-08T12:09:53Z</time>
      </trkpt>
      <trkpt lat="45.13264" lon="6.11094">
        <ele>2685.2</ele>
        <time>2024-07-08T12:09:54Z</time>
      </trkpt>
      <trkpt lat="45.13263" lon="6.11095">
        <ele>2685.2</ele>
        <time>2024-07-08T12:09:55Z</time>
      </trkpt>
      <trkpt lat="45.13262" lon="6.11096">
        <ele>2685.2</ele>
        <time>2024-07-08T12:09:56Z</time>
      </trkpt>
      <trkpt lat="45.13262" lon="6.11098">
        <ele>2685.3</ele>
        <time>2024-07-08T12:09:57Z</time>
      </trkpt>
      <trkpt lat="45.13261" lon="6.11099">
        <ele>2685.3</ele>
        <time>2024-07-08T12:09:58Z</time>
      </trkpt>
      <trkpt lat="45.1326" lon="6.111">
        <ele>2685.3</ele>
        <time>2024-07-08T12:09:59Z</time>
      </trkpt>
      <trkpt lat="45.13259" lon="6.111">
        <ele>2685.3</ele>
        <time>2024-07-08T12:10:00Z</time>
      </trkpt>
      <trkpt lat="45.13258" lon="6.11099">
        <ele>2685.3</ele>
        <time>2024-07-08T12:10:01Z</time>
      </trkpt>
      <trkpt lat="45.13257" lon="6.11098">
        <ele>2685.4</ele>
        <time>2024-07-08T12:10:02Z</time>
      </trkpt>
      <trkpt lat="45.13256" lon="6.11097">
        <ele>2685.4</ele>
        <time>2024-07-08T12:10:03Z</time>
      </trkpt>
      <trkpt lat="45.13256" lon="6.11095">
        <ele>2685.4</ele>
        <time>2024-07-08T12:10:04Z</time>
      </trkpt>
      <trkpt lat="45.13257" lon="6.11093">
        <ele>2685.5</ele>
        <time>2024-07-08T12:10:05Z</time>
      </trkpt>
      <trkpt lat="45.13257" lon="6.11091">
        <ele>2685.5</ele>
        <time>2024-07-08T12:10:06Z</time>
      </trkpt>
      <trkpt lat="45.13257" lon="6.11089">
        <ele>2685.5</ele>
        <time>2024-07-08T12:10:07Z</time>
      </trkpt>
      <trkpt lat="45.13256" lon="6.11088">
        <ele>2685.6</ele>
        <time>2024-07-08T12:10:08Z</time>
      </trkpt>
      <trkpt lat="45.13256" lon="6.11087">
        <ele>2685.6</ele>
        <time>2024-07-08T12:10:09Z</time>
      </trkpt>
      <trkpt lat="45.13256" lon="6.11086">
        <ele>2685.6</ele>
        <time>2024-07-08T12:10:10Z</time>
      </trkpt>
      <trkpt lat="45.13256" lon="6.11084">
        <ele>2685.6</ele>
        <time>2024-07-08T12:10:11Z</time>
      </trkpt>
      <trkpt lat="45.13255" lon="6.11084">
        <ele>2685.6</ele>
        <time>2024-07-08T12:10:12Z</time>
      </trkpt>
      <trkpt lat="45.13255" lon="6.11083">
        <ele>2685.7</ele>
        <time>2024-07-08T12:10:13Z</time>
      </trkpt>
      <trkpt lat="45.13254" lon="6.11082">
        <ele>2685.7</ele>
        <time>2024-07-08T12:10:14Z</time>
      </trkpt>
      <trkpt lat="45.13253" lon="6.11082">
        <ele>2685.7</ele>
        <time>2024-07-08T12:10:15Z</time>
      </trkpt>
      <trkpt lat="45.13253" lon="6.11082">
        <ele>2685.7</ele>
        <time>2024-07-08T12:10:16Z</time>
      </trkpt>
      <trkpt lat="45.13253" lon="6.11081">
        <ele>2685.7</ele>
        <time>2024-07-08T12:10:17Z</time>
      </trkpt>
      <trkpt lat="45.13252" lon="6.1108">
        <ele>2685.8</ele>
        <time>2024-07-08T12:10:18Z</time>
      </trkpt>
      <trkpt lat="45.13251" lon="6.11079">
        <ele>2685.8</ele>
        <time>2024-07-08T12:10:19Z</time>
      </trkpt>
      <trkpt lat="45.13251" lon="6.11079">
        <ele>2685.8</ele>
        <time>2024-07-08T12:10:20Z</time>
      </trkpt>
      <trkpt lat="45.1325" lon="6.11078">
        <ele>2685.8</ele>
        <time>2024-07-08T12:10:21Z</time>
      </trkpt>
      <trkpt lat="45.1325" lon="6.11077">
        <ele>2685.8</ele>
        <time>2024-07-08T12:10:22Z</time>
      </trkpt>
      <trkpt lat="45.13249" lon="6.11077">
        <ele>2685.9</ele>
        <time>2024-07-08T12:10:23Z</time>
      </trkpt>
      <trkpt lat="45.13249" lon="6.11076">
        <ele>2685.9</ele>
        <time>2024-07-08T12:10:24Z</time>
      </trkpt>
      <trkpt lat="45.13248" lon="6.11075">
        <ele>2685.9</ele>
        <time>2024-07-08T12:10:25Z</time>
      </trkpt>
      <trkpt lat="45.13247" lon="6.11075">
        <ele>2685.9</ele>
        <time>2024-07-08T12:10:26Z</time>
      </trkpt>
      <trkpt lat="45.13246" lon="6.11074">
        <ele>2686</ele>
        <time>2024-07-08T12:10:27Z</time>
      </trkpt>
      <trkpt lat="45.13245" lon="6.11074">
        <ele>2686</ele>
        <time>2024-07-08T12:10:28Z</time>
      </trkpt>
      <trkpt lat="45.13244" lon="6.11074">
        <ele>2686</ele>
        <time>2024-07-08T12:10:29Z</time>
      </trkpt>
      <trkpt lat="45.13243" lon="6.11073">
        <ele>2686</ele>
        <time>2024-07-08T12:10:30Z</time>
      </trkpt>
      <trkpt lat="45.13242" lon="6.11073">
        <ele>2686.1</ele>
        <time>2024-07-08T12:10:31Z</time>
      </trkpt>
      <trkpt lat="45.13242" lon="6.11072">
        <ele>2686.1</ele>
        <time>2024-07-08T12:10:32Z</time>
      </trkpt>
      <trkpt lat="45.13241" lon="6.11072">
        <ele>2686.1</ele>
        <time>2024-07-08T12:10:33Z</time>
      </trkpt>
      <trkpt lat="45.1324" lon="6.11073">
        <ele>2686.1</ele>
        <time>2024-07-08T12:10:34Z</time>
      </trkpt>
      <trkpt lat="45.13239" lon="6.11073">
        <ele>2686.1</ele>
        <time>2024-07-08T12:10:35Z</time>
      </trkpt>
      <trkpt lat="45.13238" lon="6.11073">
        <ele>2686.1</ele>
        <time>2024-07-08T12:10:36Z</time>
      </trkpt>
      <trkpt lat="45.13237" lon="6.11073">
        <ele>2686.1</ele>
        <time>2024-07-08T12:10:37Z</time>
      </trkpt>
      <trkpt lat="45.13236" lon="6.11073">
        <ele>2686.1</ele>
        <time>2024-07-08T12:10:38Z</time>
      </trkpt>
      <trkpt lat="45.13235" lon="6.11073">
        <ele>2686.1</ele>
        <time>2024-07-08T12:10:39Z</time>
      </trkpt>
      <trkpt lat="45.13234" lon="6.11073">
        <ele>2686.2</ele>
        <time>2024-07-08T12:10:40Z</time>
      </trkpt>
      <trkpt lat="45.13234" lon="6.11072">
        <ele>2686.2</ele>
        <time>2024-07-08T12:10:41Z</time>
      </trkpt>
      <trkpt lat="45.13233" lon="6.11071">
        <ele>2686.2</ele>
        <time>2024-07-08T12:10:42Z</time>
      </trkpt>
      <trkpt lat="45.13232" lon="6.1107">
        <ele>2686.2</ele>
        <time>2024-07-08T12:10:43Z</time>
      </trkpt>
      <trkpt lat="45.13231" lon="6.11069">
        <ele>2686.2</ele>
        <time>2024-07-08T12:10:44Z</time>
      </trkpt>
      <trkpt lat="45.13231" lon="6.11068">
        <ele>2686.2</ele>
        <time>2024-07-08T12:10:45Z</time>
      </trkpt>
      <trkpt lat="45.1323" lon="6.11067">
        <ele>2686.2</ele>
        <time>2024-07-08T12:10:46Z</time>
      </trkpt>
      <trkpt lat="45.1323" lon="6.11066">
        <ele>2686.2</ele>
        <time>2024-07-08T12:10:47Z</time>
      </trkpt>
      <trkpt lat="45.13229" lon="6.11065">
        <ele>2686.2</ele>
        <time>2024-07-08T12:10:48Z</time>
      </trkpt>
      <trkpt lat="45.13228" lon="6.11065">
        <ele>2686.1</ele>
        <time>2024-07-08T12:10:49Z</time>
      </trkpt>
      <trkpt lat="45.13228" lon="6.11064">
        <ele>2686.1</ele>
        <time>2024-07-08T12:10:50Z</time>
      </trkpt>
      <trkpt lat="45.13227" lon="6.11063">
        <ele>2686.1</ele>
        <time>2024-07-08T12:10:51Z</time>
      </trkpt>
      <trkpt lat="45.13227" lon="6.11063">
        <ele>2686.1</ele>
        <time>2024-07-08T12:10:52Z</time>
      </trkpt>
      <trkpt lat="45.13226" lon="6.11062">
        <ele>2686.1</ele>
        <time>2024-07-08T12:10:53Z</time>
      </trkpt>
      <trkpt lat="45.13225" lon="6.11061">
        <ele>2686.1</ele>
        <time>2024-07-08T12:10:54Z</time>
      </trkpt>
      <trkpt lat="45.13224" lon="6.11061">
        <ele>2686.1</ele>
        <time>2024-07-08T12:10:55Z</time>
      </trkpt>
      <trkpt lat="45.13223" lon="6.1106">
        <ele>2686.1</ele>
        <time>2024-07-08T12:10:56Z</time>
      </trkpt>
      <trkpt lat="45.13222" lon="6.11059">
        <ele>2686.1</ele>
        <time>2024-07-08T12:10:57Z</time>
      </trkpt>
      <trkpt lat="45.13222" lon="6.11058">
        <ele>2686.1</ele>
        <time>2024-07-08T12:10:58Z</time>
      </trkpt>
      <trkpt lat="45.1322" lon="6.11058">
        <ele>2686.1</ele>
        <time>2024-07-08T12:10:59Z</time>
      </trkpt>
      <trkpt lat="45.13219" lon="6.11058">
        <ele>2686.1</ele>
        <time>2024-07-08T12:11:00Z</time>
      </trkpt>
      <trkpt lat="45.13218" lon="6.11058">
        <ele>2686</ele>
        <time>2024-07-08T12:11:01Z</time>
      </trkpt>
      <trkpt lat="45.13218" lon="6.11058">
        <ele>2686</ele>
        <time>2024-07-08T12:11:02Z</time>
      </trkpt>
      <trkpt lat="45.13216" lon="6.11058">
        <ele>2686</ele>
        <time>2024-07-08T12:11:03Z</time>
      </trkpt>
      <trkpt lat="45.13215" lon="6.11058">
        <ele>2686</ele>
        <time>2024-07-08T12:11:04Z</time>
      </trkpt>
      <trkpt lat="45.13215" lon="6.11057">
        <ele>2686</ele>
        <time>2024-07-08T12:11:05Z</time>
      </trkpt>
      <trkpt lat="45.13213" lon="6.11057">
        <ele>2686</ele>
        <time>2024-07-08T12:11:06Z</time>
      </trkpt>
      <trkpt lat="45.13213" lon="6.11056">
        <ele>2686</ele>
        <time>2024-07-08T12:11:07Z</time>
      </trkpt>
      <trkpt lat="45.13212" lon="6.11055">
        <ele>2686</ele>
        <time>2024-07-08T12:11:08Z</time>
      </trkpt>
      <trkpt lat="45.13211" lon="6.11054">
        <ele>2686</ele>
        <time>2024-07-08T12:11:09Z</time>
      </trkpt>
      <trkpt lat="45.1321" lon="6.11053">
        <ele>2686</ele>
        <time>2024-07-08T12:11:10Z</time>
      </trkpt>
      <trkpt lat="45.1321" lon="6.11052">
        <ele>2686</ele>
        <time>2024-07-08T12:11:11Z</time>
      </trkpt>
      <trkpt lat="45.13209" lon="6.11051">
        <ele>2686</ele>
        <time>2024-07-08T12:11:12Z</time>
      </trkpt>
      <trkpt lat="45.13209" lon="6.11051">
        <ele>2686</ele>
        <time>2024-07-08T12:11:13Z</time>
      </trkpt>
      <trkpt lat="45.13208" lon="6.1105">
        <ele>2686</ele>
        <time>2024-07-08T12:11:14Z</time>
      </trkpt>
      <trkpt lat="45.13207" lon="6.1105">
        <ele>2686</ele>
        <time>2024-07-08T12:11:15Z</time>
      </trkpt>
      <trkpt lat="45.13206" lon="6.11049">
        <ele>2686</ele>
        <time>2024-07-08T12:11:16Z</time>
      </trkpt>
      <trkpt lat="45.13206" lon="6.11049">
        <ele>2686</ele>
        <time>2024-07-08T12:11:17Z</time>
      </trkpt>
      <trkpt lat="45.13205" lon="6.11049">
        <ele>2686</ele>
        <time>2024-07-08T12:11:18Z</time>
      </trkpt>
      <trkpt lat="45.13204" lon="6.11048">
        <ele>2686</ele>
        <time>2024-07-08T12:11:19Z</time>
      </trkpt>
      <trkpt lat="45.13203" lon="6.11048">
        <ele>2686</ele>
        <time>2024-07-08T12:11:20Z</time>
      </trkpt>
      <trkpt lat="45.13202" lon="6.11047">
        <ele>2686</ele>
        <time>2024-07-08T12:11:21Z</time>
      </trkpt>
      <trkpt lat="45.13202" lon="6.11047">
        <ele>2686</ele>
        <time>2024-07-08T12:11:22Z</time>
      </trkpt>
      <trkpt lat="45.13201" lon="6.11046">
        <ele>2686</ele>
        <time>2024-07-08T12:11:23Z</time>
      </trkpt>
      <trkpt lat="45.132" lon="6.11046">
        <ele>2686</ele>
        <time>2024-07-08T12:11:24Z</time>
      </trkpt>
      <trkpt lat="45.13199" lon="6.11045">
        <ele>2686.1</ele>
        <time>2024-07-08T12:11:25Z</time>
      </trkpt>
      <trkpt lat="45.13198" lon="6.11045">
        <ele>2686.1</ele>
        <time>2024-07-08T12:11:26Z</time>
      </trkpt>
      <trkpt lat="45.13198" lon="6.11045">
        <ele>2686.1</ele>
        <time>2024-07-08T12:11:27Z</time>
      </trkpt>
      <trkpt lat="45.13197" lon="6.11044">
        <ele>2686.1</ele>
        <time>2024-07-08T12:11:28Z</time>
      </trkpt>
      <trkpt lat="45.13196" lon="6.11044">
        <ele>2686.1</ele>
        <time>2024-07-08T12:11:29Z</time>
      </trkpt>
      <trkpt lat="45.13195" lon="6.11043">
        <ele>2686.1</ele>
        <time>2024-07-08T12:11:30Z</time>
      </trkpt>
      <trkpt lat="45.13194" lon="6.11043">
        <ele>2686.2</ele>
        <time>2024-07-08T12:11:31Z</time>
      </trkpt>
      <trkpt lat="45.13193" lon="6.11043">
        <ele>2686.2</ele>
        <time>2024-07-08T12:11:32Z</time>
      </trkpt>
      <trkpt lat="45.13192" lon="6.11044">
        <ele>2686.2</ele>
        <time>2024-07-08T12:11:33Z</time>
      </trkpt>
      <trkpt lat="45.13191" lon="6.11044">
        <ele>2686.3</ele>
        <time>2024-07-08T12:11:34Z</time>
      </trkpt>
      <trkpt lat="45.1319" lon="6.11044">
        <ele>2686.3</ele>
        <time>2024-07-08T12:11:35Z</time>
      </trkpt>
      <trkpt lat="45.13189" lon="6.11043">
        <ele>2686.3</ele>
        <time>2024-07-08T12:11:36Z</time>
      </trkpt>
      <trkpt lat="45.13188" lon="6.11042">
        <ele>2686.4</ele>
        <time>2024-07-08T12:11:37Z</time>
      </trkpt>
      <trkpt lat="45.13188" lon="6.11041">
        <ele>2686.4</ele>
        <time>2024-07-08T12:11:38Z</time>
      </trkpt>
      <trkpt lat="45.13187" lon="6.1104">
        <ele>2686.4</ele>
        <time>2024-07-08T12:11:39Z</time>
      </trkpt>
      <trkpt lat="45.13186" lon="6.11039">
        <ele>2686.4</ele>
        <time>2024-07-08T12:11:40Z</time>
      </trkpt>
      <trkpt lat="45.13185" lon="6.11039">
        <ele>2686.5</ele>
        <time>2024-07-08T12:11:41Z</time>
      </trkpt>
      <trkpt lat="45.13184" lon="6.11038">
        <ele>2686.5</ele>
        <time>2024-07-08T12:11:42Z</time>
      </trkpt>
      <trkpt lat="45.13183" lon="6.11038">
        <ele>2686.5</ele>
        <time>2024-07-08T12:11:43Z</time>
      </trkpt>
      <trkpt lat="45.13183" lon="6.11037">
        <ele>2686.6</ele>
        <time>2024-07-08T12:11:44Z</time>
      </trkpt>
      <trkpt lat="45.13182" lon="6.11036">
        <ele>2686.6</ele>
        <time>2024-07-08T12:11:45Z</time>
      </trkpt>
      <trkpt lat="45.13181" lon="6.11034">
        <ele>2686.6</ele>
        <time>2024-07-08T12:11:46Z</time>
      </trkpt>
      <trkpt lat="45.13181" lon="6.11033">
        <ele>2686.7</ele>
        <time>2024-07-08T12:11:47Z</time>
      </trkpt>
      <trkpt lat="45.1318" lon="6.11032">
        <ele>2686.7</ele>
        <time>2024-07-08T12:11:48Z</time>
      </trkpt>
      <trkpt lat="45.13179" lon="6.11031">
        <ele>2686.7</ele>
        <time>2024-07-08T12:11:49Z</time>
      </trkpt>
      <trkpt lat="45.13178" lon="6.11031">
        <ele>2686.7</ele>
        <time>2024-07-08T12:11:50Z</time>
      </trkpt>
      <trkpt lat="45.13177" lon="6.11031">
        <ele>2686.8</ele>
        <time>2024-07-08T12:11:51Z</time>
      </trkpt>
      <trkpt lat="45.13175" lon="6.11031">
        <ele>2686.8</ele>
        <time>2024-07-08T12:11:52Z</time>
      </trkpt>
      <trkpt lat="45.13175" lon="6.1103">
        <ele>2686.8</ele>
        <time>2024-07-08T12:11:53Z</time>
      </trkpt>
      <trkpt lat="45.13174" lon="6.1103">
        <ele>2686.8</ele>
        <time>2024-07-08T12:11:54Z</time>
      </trkpt>
      <trkpt lat="45.13173" lon="6.11028">
        <ele>2686.8</ele>
        <time>2024-07-08T12:11:55Z</time>
      </trkpt>
      <trkpt lat="45.13172" lon="6.11028">
        <ele>2686.8</ele>
        <time>2024-07-08T12:11:56Z</time>
      </trkpt>
      <trkpt lat="45.13171" lon="6.11027">
        <ele>2686.8</ele>
        <time>2024-07-08T12:11:57Z</time>
      </trkpt>
      <trkpt lat="45.13171" lon="6.11027">
        <ele>2686.8</ele>
        <time>2024-07-08T12:11:58Z</time>
      </trkpt>
      <trkpt lat="45.1317" lon="6.11027">
        <ele>2686.8</ele>
        <time>2024-07-08T12:11:59Z</time>
      </trkpt>
      <trkpt lat="45.13169" lon="6.11026">
        <ele>2686.8</ele>
        <time>2024-07-08T12:12:00Z</time>
      </trkpt>
      <trkpt lat="45.13169" lon="6.11026">
        <ele>2686.8</ele>
        <time>2024-07-08T12:12:01Z</time>
      </trkpt>
      <trkpt lat="45.13168" lon="6.11025">
        <ele>2686.8</ele>
        <time>2024-07-08T12:12:02Z</time>
      </trkpt>
      <trkpt lat="45.13167" lon="6.11024">
        <ele>2686.8</ele>
        <time>2024-07-08T12:12:03Z</time>
      </trkpt>
      <trkpt lat="45.13166" lon="6.11023">
        <ele>2686.8</ele>
        <time>2024-07-08T12:12:04Z</time>
      </trkpt>
      <trkpt lat="45.13165" lon="6.11022">
        <ele>2686.8</ele>
        <time>2024-07-08T12:12:05Z</time>
      </trkpt>
      <trkpt lat="45.13164" lon="6.11022">
        <ele>2686.8</ele>
        <time>2024-07-08T12:12:06Z</time>
      </trkpt>
      <trkpt lat="45.13163" lon="6.11022">
        <ele>2686.8</ele>
        <time>2024-07-08T12:12:07Z</time>
      </trkpt>
      <trkpt lat="45.13163" lon="6.11021">
        <ele>2686.8</ele>
        <time>2024-07-08T12:12:08Z</time>
      </trkpt>
      <trkpt lat="45.13162" lon="6.11021">
        <ele>2686.8</ele>
        <time>2024-07-08T12:12:09Z</time>
      </trkpt>
      <trkpt lat="45.13161" lon="6.11021">
        <ele>2686.7</ele>
        <time>2024-07-08T12:12:10Z</time>
      </trkpt>
      <trkpt lat="45.1316" lon="6.11021">
        <ele>2686.7</ele>
        <time>2024-07-08T12:12:11Z</time>
      </trkpt>
      <trkpt lat="45.1316" lon="6.11021">
        <ele>2686.7</ele>
        <time>2024-07-08T12:12:12Z</time>
      </trkpt>
      <trkpt lat="45.1316" lon="6.11021">
        <ele>2686.7</ele>
        <time>2024-07-08T12:12:13Z</time>
      </trkpt>
      <trkpt lat="45.1316" lon="6.11022">
        <ele>2686.7</ele>
        <time>2024-07-08T12:12:14Z</time>
      </trkpt>
      <trkpt lat="45.1316" lon="6.11022">
        <ele>2686.7</ele>
        <time>2024-07-08T12:12:15Z</time>
      </trkpt>
      <trkpt lat="45.1316" lon="6.11021">
        <ele>2686.7</ele>
        <time>2024-07-08T12:12:16Z</time>
      </trkpt>
      <trkpt lat="45.13161" lon="6.11021">
        <ele>2686.7</ele>
        <time>2024-07-08T12:12:17Z</time>
      </trkpt>
      <trkpt lat="45.13161" lon="6.11021">
        <ele>2686.7</ele>
        <time>2024-07-08T12:12:18Z</time>
      </trkpt>
      <trkpt lat="45.13161" lon="6.11021">
        <ele>2686.7</ele>
        <time>2024-07-08T12:12:19Z</time>
      </trkpt>
      <trkpt lat="45.13161" lon="6.11021">
        <ele>2686.7</ele>
        <time>2024-07-08T12:12:20Z</time>
      </trkpt>
      <trkpt lat="45.13161" lon="6.11021">
        <ele>2686.7</ele>
        <time>2024-07-08T12:12:21Z</time>
      </trkpt>
      <trkpt lat="45.13161" lon="6.11021">
        <ele>2686.7</ele>
        <time>2024-07-08T12:12:22Z</time>
      </trkpt>
      <trkpt lat="45.13161" lon="6.11021">
        <ele>2686.7</ele>
        <time>2024-07-08T12:12:23Z</time>
      </trkpt>
      <trkpt lat="45.13161" lon="6.11021">
        <ele>2686.7</ele>
        <time>2024-07-08T12:12:24Z</time>
      </trkpt>
      <trkpt lat="45.13161" lon="6.11021">
        <ele>2686.7</ele>
        <time>2024-07-08T12:12:25Z</time>
      </trkpt>
      <trkpt lat="45.13161" lon="6.11021">
        <ele>2686.7</ele>
        <time>2024-07-08T12:12:26Z</time>
      </trkpt>
      <trkpt lat="45.13161" lon="6.11021">
        <ele>2686.7</ele>
        <time>2024-07-08T12:12:27Z</time>
      </trkpt>
      <trkpt lat="45.13161" lon="6.11021">
        <ele>2686.7</ele>
        <time>2024-07-08T12:12:28Z</time>
      </trkpt>
      <trkpt lat="45.13161" lon="6.11021">
        <ele>2686.7</ele>
        <time>2024-07-08T12:12:29Z</time>
      </trkpt>
      <trkpt lat="45.13161" lon="6.11021">
        <ele>2686.7</ele>
        <time>2024-07-08T12:12:30Z</time>
      </trkpt>
      <trkpt lat="45.13161" lon="6.11021">
        <ele>2686.7</ele>
        <time>2024-07-08T12:12:31Z</time>
      </trkpt>
      <trkpt lat="45.13161" lon="6.11021">
        <ele>2686.7</ele>
        <time>2024-07-08T12:12:32Z</time>
      </trkpt>
      <trkpt lat="45.13161" lon="6.11021">
        <ele>2686.7</ele>
        <time>2024-07-08T12:12:33Z</time>
      </trkpt>
      <trkpt lat="45.13161" lon="6.11021">
        <ele>2686.7</ele>
        <time>2024-07-08T12:12:34Z</time>
      </trkpt>
      <trkpt lat="45.13161" lon="6.11021">
        <ele>2686.7</ele>
        <time>2024-07-08T12:12:35Z</time>
      </trkpt>
      <trkpt lat="45.13162" lon="6.1102">
        <ele>2686.7</ele>
        <time>2024-07-08T12:12:36Z</time>
      </trkpt>
      <trkpt lat="45.13162" lon="6.1102">
        <ele>2686.7</ele>
        <time>2024-07-08T12:12:37Z</time>
      </trkpt>
      <trkpt lat="45.13161" lon="6.11017">
        <ele>2686.7</ele>
        <time>2024-07-08T12:12:38Z</time>
      </trkpt>
      <trkpt lat="45.1316" lon="6.11014">
        <ele>2686.7</ele>
        <time>2024-07-08T12:12:39Z</time>
      </trkpt>
      <trkpt lat="45.1316" lon="6.11014">
        <ele>2686.6</ele>
        <time>2024-07-08T12:12:40Z</time>
      </trkpt>
      <trkpt lat="45.13159" lon="6.11014">
        <ele>2686.6</ele>
        <time>2024-07-08T12:12:41Z</time>
      </trkpt>
      <trkpt lat="45.13159" lon="6.11014">
        <ele>2686.6</ele>
        <time>2024-07-08T12:12:42Z</time>
      </trkpt>
      <trkpt lat="45.13159" lon="6.11014">
        <ele>2686.6</ele>
        <time>2024-07-08T12:12:43Z</time>
      </trkpt>
      <trkpt lat="45.13158" lon="6.11018">
        <ele>2686.6</ele>
        <time>2024-07-08T12:12:44Z</time>
      </trkpt>
      <trkpt lat="45.13158" lon="6.11018">
        <ele>2686.6</ele>
        <time>2024-07-08T12:12:45Z</time>
      </trkpt>
      <trkpt lat="45.13158" lon="6.11018">
        <ele>2686.6</ele>
        <time>2024-07-08T12:12:46Z</time>
      </trkpt>
      <trkpt lat="45.13158" lon="6.11019">
        <ele>2686.6</ele>
        <time>2024-07-08T12:12:47Z</time>
      </trkpt>
      <trkpt lat="45.13158" lon="6.1102">
        <ele>2686.6</ele>
        <time>2024-07-08T12:12:48Z</time>
      </trkpt>
      <trkpt lat="45.13158" lon="6.11021">
        <ele>2686.6</ele>
        <time>2024-07-08T12:12:49Z</time>
      </trkpt>
      <trkpt lat="45.13158" lon="6.11021">
        <ele>2686.6</ele>
        <time>2024-07-08T12:12:50Z</time>
      </trkpt>
      <trkpt lat="45.13158" lon="6.11021">
        <ele>2686.6</ele>
        <time>2024-07-08T12:12:51Z</time>
      </trkpt>
      <trkpt lat="45.13158" lon="6.11022">
        <ele>2686.6</ele>
        <time>2024-07-08T12:12:52Z</time>
      </trkpt>
      <trkpt lat="45.13158" lon="6.11022">
        <ele>2686.6</ele>
        <time>2024-07-08T12:12:53Z</time>
      </trkpt>
      <trkpt lat="45.13158" lon="6.11022">
        <ele>2686.6</ele>
        <time>2024-07-08T12:12:54Z</time>
      </trkpt>
      <trkpt lat="45.13158" lon="6.11022">
        <ele>2686.6</ele>
        <time>2024-07-08T12:12:55Z</time>
      </trkpt>
      <trkpt lat="45.13158" lon="6.11022">
        <ele>2686.6</ele>
        <time>2024-07-08T12:12:56Z</time>
      </trkpt>
      <trkpt lat="45.13158" lon="6.11022">
        <ele>2686.6</ele>
        <time>2024-07-08T12:12:57Z</time>
      </trkpt>
      <trkpt lat="45.13158" lon="6.11021">
        <ele>2686.6</ele>
        <time>2024-07-08T12:12:58Z</time>
      </trkpt>
      <trkpt lat="45.13158" lon="6.11021">
        <ele>2686.6</ele>
        <time>2024-07-08T12:12:59Z</time>
      </trkpt>
      <trkpt lat="45.13157" lon="6.1102">
        <ele>2686.6</ele>
        <time>2024-07-08T12:13:00Z</time>
      </trkpt>
      <trkpt lat="45.13157" lon="6.1102">
        <ele>2686.6</ele>
        <time>2024-07-08T12:13:01Z</time>
      </trkpt>
      <trkpt lat="45.13157" lon="6.11019">
        <ele>2686.6</ele>
        <time>2024-07-08T12:13:02Z</time>
      </trkpt>
      <trkpt lat="45.13157" lon="6.11019">
        <ele>2686.6</ele>
        <time>2024-07-08T12:13:03Z</time>
      </trkpt>
      <trkpt lat="45.13157" lon="6.11019">
        <ele>2686.6</ele>
        <time>2024-07-08T12:13:04Z</time>
      </trkpt>
      <trkpt lat="45.13157" lon="6.11019">
        <ele>2686.6</ele>
        <time>2024-07-08T12:13:05Z</time>
      </trkpt>
      <trkpt lat="45.13157" lon="6.11019">
        <ele>2686.6</ele>
        <time>2024-07-08T12:13:06Z</time>
      </trkpt>
      <trkpt lat="45.13157" lon="6.11019">
        <ele>2686.6</ele>
        <time>2024-07-08T12:13:07Z</time>
      </trkpt>
      <trkpt lat="45.13157" lon="6.11019">
        <ele>2686.6</ele>
        <time>2024-07-08T12:13:08Z</time>
      </trkpt>
      <trkpt lat="45.13157" lon="6.11019">
        <ele>2686.6</ele>
        <time>2024-07-08T12:13:09Z</time>
      </trkpt>
      <trkpt lat="45.13157" lon="6.11019">
        <ele>2686.6</ele>
        <time>2024-07-08T12:13:10Z</time>
      </trkpt>
      <trkpt lat="45.13157" lon="6.11019">
        <ele>2686.6</ele>
        <time>2024-07-08T12:13:11Z</time>
      </trkpt>
      <trkpt lat="45.13157" lon="6.11019">
        <ele>2686.6</ele>
        <time>2024-07-08T12:13:12Z</time>
      </trkpt>
      <trkpt lat="45.13157" lon="6.11019">
        <ele>2686.6</ele>
        <time>2024-07-08T12:13:13Z</time>
      </trkpt>
      <trkpt lat="45.13157" lon="6.11019">
        <ele>2686.6</ele>
        <time>2024-07-08T12:13:14Z</time>
      </trkpt>
      <trkpt lat="45.13157" lon="6.11019">
        <ele>2686.6</ele>
        <time>2024-07-08T12:13:15Z</time>
      </trkpt>
      <trkpt lat="45.13157" lon="6.11019">
        <ele>2686.6</ele>
        <time>2024-07-08T12:13:16Z</time>
      </trkpt>
      <trkpt lat="45.13157" lon="6.11019">
        <ele>2686.6</ele>
        <time>2024-07-08T12:13:17Z</time>
      </trkpt>
      <trkpt lat="45.13157" lon="6.11019">
        <ele>2686.6</ele>
        <time>2024-07-08T12:13:18Z</time>
      </trkpt>
      <trkpt lat="45.13157" lon="6.11019">
        <ele>2686.6</ele>
        <time>2024-07-08T12:13:19Z</time>
      </trkpt>
      <trkpt lat="45.13157" lon="6.11019">
        <ele>2686.6</ele>
        <time>2024-07-08T12:13:20Z</time>
      </trkpt>
      <trkpt lat="45.13157" lon="6.11019">
        <ele>2686.6</ele>
        <time>2024-07-08T12:13:21Z</time>
      </trkpt>
      <trkpt lat="45.13156" lon="6.11019">
        <ele>2686.6</ele>
        <time>2024-07-08T12:13:22Z</time>
      </trkpt>
      <trkpt lat="45.13156" lon="6.11019">
        <ele>2686.6</ele>
        <time>2024-07-08T12:13:23Z</time>
      </trkpt>
      <trkpt lat="45.13156" lon="6.11018">
        <ele>2686.6</ele>
        <time>2024-07-08T12:13:24Z</time>
      </trkpt>
      <trkpt lat="45.13155" lon="6.11018">
        <ele>2686.6</ele>
        <time>2024-07-08T12:13:25Z</time>
      </trkpt>
      <trkpt lat="45.13153" lon="6.11018">
        <ele>2686.6</ele>
        <time>2024-07-08T12:13:26Z</time>
      </trkpt>
      <trkpt lat="45.13152" lon="6.11018">
        <ele>2686.6</ele>
        <time>2024-07-08T12:13:27Z</time>
      </trkpt>
      <trkpt lat="45.13151" lon="6.11017">
        <ele>2686.6</ele>
        <time>2024-07-08T12:13:28Z</time>
      </trkpt>
      <trkpt lat="45.1315" lon="6.11016">
        <ele>2686.6</ele>
        <time>2024-07-08T12:13:29Z</time>
      </trkpt>
      <trkpt lat="45.13148" lon="6.11015">
        <ele>2686.5</ele>
        <time>2024-07-08T12:13:30Z</time>
      </trkpt>
      <trkpt lat="45.13147" lon="6.11014">
        <ele>2686.5</ele>
        <time>2024-07-08T12:13:31Z</time>
      </trkpt>
      <trkpt lat="45.13146" lon="6.11013">
        <ele>2686.5</ele>
        <time>2024-07-08T12:13:32Z</time>
      </trkpt>
      <trkpt lat="45.13145" lon="6.11013">
        <ele>2686.5</ele>
        <time>2024-07-08T12:13:33Z</time>
      </trkpt>
      <trkpt lat="45.13144" lon="6.11012">
        <ele>2686.5</ele>
        <time>2024-07-08T12:13:34Z</time>
      </trkpt>
      <trkpt lat="45.13143" lon="6.11011">
        <ele>2686.4</ele>
        <time>2024-07-08T12:13:35Z</time>
      </trkpt>
      <trkpt lat="45.13142" lon="6.11011">
        <ele>2686.4</ele>
        <time>2024-07-08T12:13:36Z</time>
      </trkpt>
      <trkpt lat="45.1314" lon="6.11009">
        <ele>2686.4</ele>
        <time>2024-07-08T12:13:37Z</time>
      </trkpt>
      <trkpt lat="45.1314" lon="6.11009">
        <ele>2686.3</ele>
        <time>2024-07-08T12:13:38Z</time>
      </trkpt>
      <trkpt lat="45.13139" lon="6.11008">
        <ele>2686.3</ele>
        <time>2024-07-08T12:13:39Z</time>
      </trkpt>
      <trkpt lat="45.13139" lon="6.11008">
        <ele>2686.3</ele>
        <time>2024-07-08T12:13:40Z</time>
      </trkpt>
      <trkpt lat="45.13138" lon="6.11007">
        <ele>2686.3</ele>
        <time>2024-07-08T12:13:41Z</time>
      </trkpt>
      <trkpt lat="45.13137" lon="6.11006">
        <ele>2686.2</ele>
        <time>2024-07-08T12:13:42Z</time>
      </trkpt>
      <trkpt lat="45.13136" lon="6.11006">
        <ele>2686.2</ele>
        <time>2024-07-08T12:13:43Z</time>
      </trkpt>
      <trkpt lat="45.13136" lon="6.11005">
        <ele>2686.2</ele>
        <time>2024-07-08T12:13:44Z</time>
      </trkpt>
      <trkpt lat="45.13135" lon="6.11004">
        <ele>2686.1</ele>
        <time>2024-07-08T12:13:45Z</time>
      </trkpt>
      <trkpt lat="45.13134" lon="6.11004">
        <ele>2686.1</ele>
        <time>2024-07-08T12:13:46Z</time>
      </trkpt>
      <trkpt lat="45.13134" lon="6.11004">
        <ele>2686.1</ele>
        <time>2024-07-08T12:13:47Z</time>
      </trkpt>
      <trkpt lat="45.13133" lon="6.11004">
        <ele>2686.1</ele>
        <time>2024-07-08T12:13:48Z</time>
      </trkpt>
      <trkpt lat="45.13133" lon="6.11004">
        <ele>2686.1</ele>
        <time>2024-07-08T12:13:49Z</time>
      </trkpt>
      <trkpt lat="45.13132" lon="6.11004">
        <ele>2686</ele>
        <time>2024-07-08T12:13:50Z</time>
      </trkpt>
      <trkpt lat="45.13131" lon="6.11003">
        <ele>2686</ele>
        <time>2024-07-08T12:13:51Z</time>
      </trkpt>
      <trkpt lat="45.13131" lon="6.11003">
        <ele>2686</ele>
        <time>2024-07-08T12:13:52Z</time>
      </trkpt>
      <trkpt lat="45.1313" lon="6.11002">
        <ele>2686</ele>
        <time>2024-07-08T12:13:53Z</time>
      </trkpt>
      <trkpt lat="45.13129" lon="6.11002">
        <ele>2686</ele>
        <time>2024-07-08T12:13:54Z</time>
      </trkpt>
      <trkpt lat="45.13129" lon="6.11002">
        <ele>2685.9</ele>
        <time>2024-07-08T12:13:55Z</time>
      </trkpt>
      <trkpt lat="45.13128" lon="6.11002">
        <ele>2685.9</ele>
        <time>2024-07-08T12:13:56Z</time>
      </trkpt>
      <trkpt lat="45.13127" lon="6.11002">
        <ele>2685.9</ele>
        <time>2024-07-08T12:13:57Z</time>
      </trkpt>
      <trkpt lat="45.13126" lon="6.11001">
        <ele>2685.9</ele>
        <time>2024-07-08T12:13:58Z</time>
      </trkpt>
      <trkpt lat="45.13126" lon="6.11001">
        <ele>2685.9</ele>
        <time>2024-07-08T12:13:59Z</time>
      </trkpt>
      <trkpt lat="45.13125" lon="6.11001">
        <ele>2685.9</ele>
        <time>2024-07-08T12:14:00Z</time>
      </trkpt>
      <trkpt lat="45.13124" lon="6.11001">
        <ele>2685.9</ele>
        <time>2024-07-08T12:14:01Z</time>
      </trkpt>
      <trkpt lat="45.13124" lon="6.11001">
        <ele>2685.9</ele>
        <time>2024-07-08T12:14:02Z</time>
      </trkpt>
      <trkpt lat="45.13123" lon="6.11001">
        <ele>2685.9</ele>
        <time>2024-07-08T12:14:03Z</time>
      </trkpt>
      <trkpt lat="45.13123" lon="6.11001">
        <ele>2685.9</ele>
        <time>2024-07-08T12:14:04Z</time>
      </trkpt>
      <trkpt lat="45.13122" lon="6.11001">
        <ele>2685.8</ele>
        <time>2024-07-08T12:14:05Z</time>
      </trkpt>
      <trkpt lat="45.13121" lon="6.11">
        <ele>2685.8</ele>
        <time>2024-07-08T12:14:06Z</time>
      </trkpt>
      <trkpt lat="45.13121" lon="6.11">
        <ele>2685.8</ele>
        <time>2024-07-08T12:14:07Z</time>
      </trkpt>
      <trkpt lat="45.1312" lon="6.10999">
        <ele>2685.9</ele>
        <time>2024-07-08T12:14:08Z</time>
      </trkpt>
      <trkpt lat="45.1312" lon="6.10998">
        <ele>2685.9</ele>
        <time>2024-07-08T12:14:09Z</time>
      </trkpt>
      <trkpt lat="45.13119" lon="6.10997">
        <ele>2685.9</ele>
        <time>2024-07-08T12:14:10Z</time>
      </trkpt>
      <trkpt lat="45.1312" lon="6.10996">
        <ele>2685.9</ele>
        <time>2024-07-08T12:14:11Z</time>
      </trkpt>
      <trkpt lat="45.1312" lon="6.10997">
        <ele>2685.9</ele>
        <time>2024-07-08T12:14:12Z</time>
      </trkpt>
      <trkpt lat="45.1312" lon="6.10997">
        <ele>2685.9</ele>
        <time>2024-07-08T12:14:13Z</time>
      </trkpt>
      <trkpt lat="45.13121" lon="6.10997">
        <ele>2685.9</ele>
        <time>2024-07-08T12:14:14Z</time>
      </trkpt>
      <trkpt lat="45.13121" lon="6.10997">
        <ele>2685.9</ele>
        <time>2024-07-08T12:14:15Z</time>
      </trkpt>
      <trkpt lat="45.13121" lon="6.10995">
        <ele>2685.9</ele>
        <time>2024-07-08T12:14:16Z</time>
      </trkpt>
      <trkpt lat="45.13121" lon="6.10994">
        <ele>2685.9</ele>
        <time>2024-07-08T12:14:17Z</time>
      </trkpt>
      <trkpt lat="45.1312" lon="6.10992">
        <ele>2686</ele>
        <time>2024-07-08T12:14:18Z</time>
      </trkpt>
      <trkpt lat="45.1312" lon="6.10991">
        <ele>2686</ele>
        <time>2024-07-08T12:14:19Z</time>
      </trkpt>
      <trkpt lat="45.1312" lon="6.10989">
        <ele>2686</ele>
        <time>2024-07-08T12:14:20Z</time>
      </trkpt>
      <trkpt lat="45.13121" lon="6.10988">
        <ele>2686.1</ele>
        <time>2024-07-08T12:14:21Z</time>
      </trkpt>
      <trkpt lat="45.13121" lon="6.10987">
        <ele>2686.1</ele>
        <time>2024-07-08T12:14:22Z</time>
      </trkpt>
      <trkpt lat="45.1312" lon="6.10987">
        <ele>2686.1</ele>
        <time>2024-07-08T12:14:23Z</time>
      </trkpt>
      <trkpt lat="45.13121" lon="6.10986">
        <ele>2686.2</ele>
        <time>2024-07-08T12:14:24Z</time>
      </trkpt>
      <trkpt lat="45.13121" lon="6.10985">
        <ele>2686.2</ele>
        <time>2024-07-08T12:14:25Z</time>
      </trkpt>
      <trkpt lat="45.13122" lon="6.10985">
        <ele>2686.2</ele>
        <time>2024-07-08T12:14:26Z</time>
      </trkpt>
      <trkpt lat="45.13122" lon="6.10985">
        <ele>2686.2</ele>
        <time>2024-07-08T12:14:27Z</time>
      </trkpt>
      <trkpt lat="45.13123" lon="6.10986">
        <ele>2686.3</ele>
        <time>2024-07-08T12:14:28Z</time>
      </trkpt>
      <trkpt lat="45.13124" lon="6.10986">
        <ele>2686.3</ele>
        <time>2024-07-08T12:14:29Z</time>
      </trkpt>
      <trkpt lat="45.13124" lon="6.10986">
        <ele>2686.3</ele>
        <time>2024-07-08T12:14:30Z</time>
      </trkpt>
      <trkpt lat="45.13125" lon="6.10985">
        <ele>2686.4</ele>
        <time>2024-07-08T12:14:31Z</time>
      </trkpt>
      <trkpt lat="45.13125" lon="6.10984">
        <ele>2686.4</ele>
        <time>2024-07-08T12:14:32Z</time>
      </trkpt>
      <trkpt lat="45.13125" lon="6.10983">
        <ele>2686.4</ele>
        <time>2024-07-08T12:14:33Z</time>
      </trkpt>
      <trkpt lat="45.13126" lon="6.10983">
        <ele>2686.5</ele>
        <time>2024-07-08T12:14:34Z</time>
      </trkpt>
      <trkpt lat="45.13126" lon="6.10982">
        <ele>2686.5</ele>
        <time>2024-07-08T12:14:35Z</time>
      </trkpt>
      <trkpt lat="45.13126" lon="6.10981">
        <ele>2686.5</ele>
        <time>2024-07-08T12:14:36Z</time>
      </trkpt>
      <trkpt lat="45.13126" lon="6.1098">
        <ele>2686.5</ele>
        <time>2024-07-08T12:14:37Z</time>
      </trkpt>
      <trkpt lat="45.13125" lon="6.10979">
        <ele>2686.6</ele>
        <time>2024-07-08T12:14:38Z</time>
      </trkpt>
      <trkpt lat="45.13125" lon="6.10979">
        <ele>2686.6</ele>
        <time>2024-07-08T12:14:39Z</time>
      </trkpt>
      <trkpt lat="45.13124" lon="6.10978">
        <ele>2686.6</ele>
        <time>2024-07-08T12:14:40Z</time>
      </trkpt>
      <trkpt lat="45.13124" lon="6.10977">
        <ele>2686.6</ele>
        <time>2024-07-08T12:14:41Z</time>
      </trkpt>
      <trkpt lat="45.13124" lon="6.10976">
        <ele>2686.7</ele>
        <time>2024-07-08T12:14:42Z</time>
      </trkpt>
      <trkpt lat="45.13124" lon="6.10975">
        <ele>2686.7</ele>
        <time>2024-07-08T12:14:43Z</time>
      </trkpt>
      <trkpt lat="45.13124" lon="6.10975">
        <ele>2686.7</ele>
        <time>2024-07-08T12:14:44Z</time>
      </trkpt>
      <trkpt lat="45.13124" lon="6.10974">
        <ele>2686.7</ele>
        <time>2024-07-08T12:14:45Z</time>
      </trkpt>
      <trkpt lat="45.13124" lon="6.10974">
        <ele>2686.7</ele>
        <time>2024-07-08T12:14:46Z</time>
      </trkpt>
      <trkpt lat="45.13124" lon="6.10973">
        <ele>2686.7</ele>
        <time>2024-07-08T12:14:47Z</time>
      </trkpt>
      <trkpt lat="45.13123" lon="6.10973">
        <ele>2686.7</ele>
        <time>2024-07-08T12:14:48Z</time>
      </trkpt>
      <trkpt lat="45.13122" lon="6.10972">
        <ele>2686.7</ele>
        <time>2024-07-08T12:14:49Z</time>
      </trkpt>
      <trkpt lat="45.13122" lon="6.10971">
        <ele>2686.7</ele>
        <time>2024-07-08T12:14:50Z</time>
      </trkpt>
      <trkpt lat="45.13122" lon="6.10971">
        <ele>2686.7</ele>
        <time>2024-07-08T12:14:51Z</time>
      </trkpt>
      <trkpt lat="45.13122" lon="6.1097">
        <ele>2686.7</ele>
        <time>2024-07-08T12:14:52Z</time>
      </trkpt>
      <trkpt lat="45.13122" lon="6.1097">
        <ele>2686.7</ele>
        <time>2024-07-08T12:14:53Z</time>
      </trkpt>
      <trkpt lat="45.13122" lon="6.1097">
        <ele>2686.7</ele>
        <time>2024-07-08T12:14:54Z</time>
      </trkpt>
      <trkpt lat="45.13122" lon="6.1097">
        <ele>2686.7</ele>
        <time>2024-07-08T12:14:55Z</time>
      </trkpt>
      <trkpt lat="45.13122" lon="6.10969">
        <ele>2686.7</ele>
        <time>2024-07-08T12:14:56Z</time>
      </trkpt>
      <trkpt lat="45.13122" lon="6.10969">
        <ele>2686.7</ele>
        <time>2024-07-08T12:14:57Z</time>
      </trkpt>
      <trkpt lat="45.13122" lon="6.10968">
        <ele>2686.6</ele>
        <time>2024-07-08T12:14:58Z</time>
      </trkpt>
      <trkpt lat="45.13121" lon="6.10968">
        <ele>2686.6</ele>
        <time>2024-07-08T12:14:59Z</time>
      </trkpt>
      <trkpt lat="45.13121" lon="6.10967">
        <ele>2686.6</ele>
        <time>2024-07-08T12:15:00Z</time>
      </trkpt>
      <trkpt lat="45.1312" lon="6.10966">
        <ele>2686.6</ele>
        <time>2024-07-08T12:15:01Z</time>
      </trkpt>
      <trkpt lat="45.1312" lon="6.10966">
        <ele>2686.5</ele>
        <time>2024-07-08T12:15:02Z</time>
      </trkpt>
      <trkpt lat="45.1312" lon="6.10965">
        <ele>2686.5</ele>
        <time>2024-07-08T12:15:03Z</time>
      </trkpt>
      <trkpt lat="45.1312" lon="6.10965">
        <ele>2686.5</ele>
        <time>2024-07-08T12:15:04Z</time>
      </trkpt>
      <trkpt lat="45.13119" lon="6.10964">
        <ele>2686.5</ele>
        <time>2024-07-08T12:15:05Z</time>
      </trkpt>
      <trkpt lat="45.13119" lon="6.10963">
        <ele>2686.4</ele>
        <time>2024-07-08T12:15:06Z</time>
      </trkpt>
      <trkpt lat="45.13118" lon="6.10963">
        <ele>2686.4</ele>
        <time>2024-07-08T12:15:07Z</time>
      </trkpt>
      <trkpt lat="45.13118" lon="6.10962">
        <ele>2686.4</ele>
        <time>2024-07-08T12:15:08Z</time>
      </trkpt>
      <trkpt lat="45.13118" lon="6.10961">
        <ele>2686.3</ele>
        <time>2024-07-08T12:15:09Z</time>
      </trkpt>
      <trkpt lat="45.13117" lon="6.1096">
        <ele>2686.2</ele>
        <time>2024-07-08T12:15:10Z</time>
      </trkpt>
      <trkpt lat="45.13117" lon="6.10959">
        <ele>2686.2</ele>
        <time>2024-07-08T12:15:11Z</time>
      </trkpt>
      <trkpt lat="45.13117" lon="6.10958">
        <ele>2686.1</ele>
        <time>2024-07-08T12:15:12Z</time>
      </trkpt>
      <trkpt lat="45.13117" lon="6.10957">
        <ele>2686</ele>
        <time>2024-07-08T12:15:13Z</time>
      </trkpt>
      <trkpt lat="45.13118" lon="6.10956">
        <ele>2685.9</ele>
        <time>2024-07-08T12:15:14Z</time>
      </trkpt>
      <trkpt lat="45.13118" lon="6.10955">
        <ele>2685.9</ele>
        <time>2024-07-08T12:15:15Z</time>
      </trkpt>
      <trkpt lat="45.13117" lon="6.10954">
        <ele>2685.8</ele>
        <time>2024-07-08T12:15:16Z</time>
      </trkpt>
      <trkpt lat="45.13117" lon="6.10954">
        <ele>2685.8</ele>
        <time>2024-07-08T12:15:17Z</time>
      </trkpt>
      <trkpt lat="45.13116" lon="6.10953">
        <ele>2685.7</ele>
        <time>2024-07-08T12:15:18Z</time>
      </trkpt>
      <trkpt lat="45.13116" lon="6.10952">
        <ele>2685.6</ele>
        <time>2024-07-08T12:15:19Z</time>
      </trkpt>
      <trkpt lat="45.13116" lon="6.10952">
        <ele>2685.6</ele>
        <time>2024-07-08T12:15:20Z</time>
      </trkpt>
      <trkpt lat="45.13115" lon="6.10952">
        <ele>2685.5</ele>
        <time>2024-07-08T12:15:21Z</time>
      </trkpt>
      <trkpt lat="45.13114" lon="6.10952">
        <ele>2685.4</ele>
        <time>2024-07-08T12:15:22Z</time>
      </trkpt>
      <trkpt lat="45.13113" lon="6.10951">
        <ele>2685.3</ele>
        <time>2024-07-08T12:15:23Z</time>
      </trkpt>
      <trkpt lat="45.13113" lon="6.1095">
        <ele>2685.2</ele>
        <time>2024-07-08T12:15:24Z</time>
      </trkpt>
      <trkpt lat="45.13112" lon="6.10949">
        <ele>2685.1</ele>
        <time>2024-07-08T12:15:25Z</time>
      </trkpt>
      <trkpt lat="45.13112" lon="6.10948">
        <ele>2685</ele>
        <time>2024-07-08T12:15:26Z</time>
      </trkpt>
      <trkpt lat="45.13111" lon="6.10948">
        <ele>2684.9</ele>
        <time>2024-07-08T12:15:27Z</time>
      </trkpt>
      <trkpt lat="45.1311" lon="6.10948">
        <ele>2684.8</ele>
        <time>2024-07-08T12:15:28Z</time>
      </trkpt>
      <trkpt lat="45.13109" lon="6.10949">
        <ele>2684.7</ele>
        <time>2024-07-08T12:15:29Z</time>
      </trkpt>
      <trkpt lat="45.1311" lon="6.1095">
        <ele>2684.6</ele>
        <time>2024-07-08T12:15:30Z</time>
      </trkpt>
      <trkpt lat="45.1311" lon="6.1095">
        <ele>2684.6</ele>
        <time>2024-07-08T12:15:31Z</time>
      </trkpt>
      <trkpt lat="45.1311" lon="6.1095">
        <ele>2684.5</ele>
        <time>2024-07-08T12:15:32Z</time>
      </trkpt>
      <trkpt lat="45.1311" lon="6.1095">
        <ele>2684.5</ele>
        <time>2024-07-08T12:15:33Z</time>
      </trkpt>
      <trkpt lat="45.13111" lon="6.1095">
        <ele>2684.5</ele>
        <time>2024-07-08T12:15:34Z</time>
      </trkpt>
      <trkpt lat="45.13111" lon="6.1095">
        <ele>2684.4</ele>
        <time>2024-07-08T12:15:35Z</time>
      </trkpt>
      <trkpt lat="45.13111" lon="6.1095">
        <ele>2684.4</ele>
        <time>2024-07-08T12:15:36Z</time>
      </trkpt>
      <trkpt lat="45.1311" lon="6.10949">
        <ele>2684.3</ele>
        <time>2024-07-08T12:15:37Z</time>
      </trkpt>
      <trkpt lat="45.13109" lon="6.10948">
        <ele>2684.2</ele>
        <time>2024-07-08T12:15:38Z</time>
      </trkpt>
      <trkpt lat="45.13108" lon="6.10948">
        <ele>2684.1</ele>
        <time>2024-07-08T12:15:39Z</time>
      </trkpt>
      <trkpt lat="45.13107" lon="6.10947">
        <ele>2684</ele>
        <time>2024-07-08T12:15:40Z</time>
      </trkpt>
      <trkpt lat="45.13107" lon="6.10946">
        <ele>2683.9</ele>
        <time>2024-07-08T12:15:41Z</time>
      </trkpt>
      <trkpt lat="45.13106" lon="6.10946">
        <ele>2683.8</ele>
        <time>2024-07-08T12:15:42Z</time>
      </trkpt>
      <trkpt lat="45.13105" lon="6.10945">
        <ele>2683.8</ele>
        <time>2024-07-08T12:15:43Z</time>
      </trkpt>
      <trkpt lat="45.13104" lon="6.10944">
        <ele>2683.7</ele>
        <time>2024-07-08T12:15:44Z</time>
      </trkpt>
      <trkpt lat="45.13103" lon="6.10944">
        <ele>2683.6</ele>
        <time>2024-07-08T12:15:45Z</time>
      </trkpt>
      <trkpt lat="45.13103" lon="6.10943">
        <ele>2683.6</ele>
        <time>2024-07-08T12:15:46Z</time>
      </trkpt>
      <trkpt lat="45.13102" lon="6.10943">
        <ele>2683.5</ele>
        <time>2024-07-08T12:15:47Z</time>
      </trkpt>
      <trkpt lat="45.13101" lon="6.10942">
        <ele>2683.4</ele>
        <time>2024-07-08T12:15:48Z</time>
      </trkpt>
      <trkpt lat="45.13101" lon="6.10941">
        <ele>2683.4</ele>
        <time>2024-07-08T12:15:49Z</time>
      </trkpt>
      <trkpt lat="45.13101" lon="6.1094">
        <ele>2683.4</ele>
        <time>2024-07-08T12:15:50Z</time>
      </trkpt>
      <trkpt lat="45.131" lon="6.10939">
        <ele>2683.3</ele>
        <time>2024-07-08T12:15:51Z</time>
      </trkpt>
      <trkpt lat="45.131" lon="6.10938">
        <ele>2683.3</ele>
        <time>2024-07-08T12:15:52Z</time>
      </trkpt>
      <trkpt lat="45.13099" lon="6.10938">
        <ele>2683.3</ele>
        <time>2024-07-08T12:15:53Z</time>
      </trkpt>
      <trkpt lat="45.13099" lon="6.10937">
        <ele>2683.2</ele>
        <time>2024-07-08T12:15:54Z</time>
      </trkpt>
      <trkpt lat="45.13098" lon="6.10937">
        <ele>2683.2</ele>
        <time>2024-07-08T12:15:55Z</time>
      </trkpt>
      <trkpt lat="45.13097" lon="6.10936">
        <ele>2683.2</ele>
        <time>2024-07-08T12:15:56Z</time>
      </trkpt>
      <trkpt lat="45.13097" lon="6.10935">
        <ele>2683.2</ele>
        <time>2024-07-08T12:15:57Z</time>
      </trkpt>
      <trkpt lat="45.13097" lon="6.10935">
        <ele>2683.2</ele>
        <time>2024-07-08T12:15:58Z</time>
      </trkpt>
      <trkpt lat="45.13096" lon="6.10934">
        <ele>2683.2</ele>
        <time>2024-07-08T12:15:59Z</time>
      </trkpt>
      <trkpt lat="45.13096" lon="6.10933">
        <ele>2683.1</ele>
        <time>2024-07-08T12:16:00Z</time>
      </trkpt>
      <trkpt lat="45.13095" lon="6.10932">
        <ele>2683.1</ele>
        <time>2024-07-08T12:16:01Z</time>
      </trkpt>
      <trkpt lat="45.13094" lon="6.10932">
        <ele>2683.1</ele>
        <time>2024-07-08T12:16:02Z</time>
      </trkpt>
      <trkpt lat="45.13094" lon="6.10931">
        <ele>2683.1</ele>
        <time>2024-07-08T12:16:03Z</time>
      </trkpt>
      <trkpt lat="45.13093" lon="6.1093">
        <ele>2683.1</ele>
        <time>2024-07-08T12:16:04Z</time>
      </trkpt>
      <trkpt lat="45.13093" lon="6.1093">
        <ele>2683.1</ele>
        <time>2024-07-08T12:16:05Z</time>
      </trkpt>
      <trkpt lat="45.13092" lon="6.1093">
        <ele>2683.1</ele>
        <time>2024-07-08T12:16:06Z</time>
      </trkpt>
      <trkpt lat="45.13091" lon="6.1093">
        <ele>2683.1</ele>
        <time>2024-07-08T12:16:07Z</time>
      </trkpt>
      <trkpt lat="45.13091" lon="6.1093">
        <ele>2683.1</ele>
        <time>2024-07-08T12:16:08Z</time>
      </trkpt>
      <trkpt lat="45.1309" lon="6.1093">
        <ele>2683.1</ele>
        <time>2024-07-08T12:16:09Z</time>
      </trkpt>
      <trkpt lat="45.1309" lon="6.1093">
        <ele>2683.1</ele>
        <time>2024-07-08T12:16:10Z</time>
      </trkpt>
      <trkpt lat="45.1309" lon="6.1093">
        <ele>2683.1</ele>
        <time>2024-07-08T12:16:11Z</time>
      </trkpt>
      <trkpt lat="45.1309" lon="6.1093">
        <ele>2683.1</ele>
        <time>2024-07-08T12:16:12Z</time>
      </trkpt>
      <trkpt lat="45.13089" lon="6.1093">
        <ele>2683.2</ele>
        <time>2024-07-08T12:16:13Z</time>
      </trkpt>
      <trkpt lat="45.13089" lon="6.10929">
        <ele>2683.2</ele>
        <time>2024-07-08T12:16:14Z</time>
      </trkpt>
      <trkpt lat="45.13089" lon="6.10929">
        <ele>2683.2</ele>
        <time>2024-07-08T12:16:15Z</time>
      </trkpt>
      <trkpt lat="45.13089" lon="6.10928">
        <ele>2683.2</ele>
        <time>2024-07-08T12:16:16Z</time>
      </trkpt>
      <trkpt lat="45.13089" lon="6.10928">
        <ele>2683.2</ele>
        <time>2024-07-08T12:16:17Z</time>
      </trkpt>
      <trkpt lat="45.13088" lon="6.10928">
        <ele>2683.2</ele>
        <time>2024-07-08T12:16:18Z</time>
      </trkpt>
      <trkpt lat="45.13087" lon="6.10928">
        <ele>2683.2</ele>
        <time>2024-07-08T12:16:19Z</time>
      </trkpt>
      <trkpt lat="45.13087" lon="6.10928">
        <ele>2683.2</ele>
        <time>2024-07-08T12:16:20Z</time>
      </trkpt>
      <trkpt lat="45.13086" lon="6.10928">
        <ele>2683.3</ele>
        <time>2024-07-08T12:16:21Z</time>
      </trkpt>
      <trkpt lat="45.13085" lon="6.10928">
        <ele>2683.3</ele>
        <time>2024-07-08T12:16:22Z</time>
      </trkpt>
      <trkpt lat="45.13085" lon="6.10928">
        <ele>2683.3</ele>
        <time>2024-07-08T12:16:23Z</time>
      </trkpt>
      <trkpt lat="45.13084" lon="6.10928">
        <ele>2683.3</ele>
        <time>2024-07-08T12:16:24Z</time>
      </trkpt>
      <trkpt lat="45.13083" lon="6.10928">
        <ele>2683.4</ele>
        <time>2024-07-08T12:16:25Z</time>
      </trkpt>
      <trkpt lat="45.13083" lon="6.10928">
        <ele>2683.4</ele>
        <time>2024-07-08T12:16:26Z</time>
      </trkpt>
      <trkpt lat="45.13082" lon="6.10928">
        <ele>2683.4</ele>
        <time>2024-07-08T12:16:27Z</time>
      </trkpt>
      <trkpt lat="45.13082" lon="6.10928">
        <ele>2683.4</ele>
        <time>2024-07-08T12:16:28Z</time>
      </trkpt>
      <trkpt lat="45.13082" lon="6.10928">
        <ele>2683.4</ele>
        <time>2024-07-08T12:16:29Z</time>
      </trkpt>
      <trkpt lat="45.13082" lon="6.10929">
        <ele>2683.4</ele>
        <time>2024-07-08T12:16:30Z</time>
      </trkpt>
      <trkpt lat="45.13081" lon="6.10929">
        <ele>2683.5</ele>
        <time>2024-07-08T12:16:31Z</time>
      </trkpt>
      <trkpt lat="45.13081" lon="6.10929">
        <ele>2683.5</ele>
        <time>2024-07-08T12:16:32Z</time>
      </trkpt>
      <trkpt lat="45.13081" lon="6.10929">
        <ele>2683.5</ele>
        <time>2024-07-08T12:16:33Z</time>
      </trkpt>
      <trkpt lat="45.1308" lon="6.1093">
        <ele>2683.5</ele>
        <time>2024-07-08T12:16:34Z</time>
      </trkpt>
      <trkpt lat="45.1308" lon="6.1093">
        <ele>2683.6</ele>
        <time>2024-07-08T12:16:35Z</time>
      </trkpt>
      <trkpt lat="45.13079" lon="6.1093">
        <ele>2683.6</ele>
        <time>2024-07-08T12:16:36Z</time>
      </trkpt>
      <trkpt lat="45.13079" lon="6.1093">
        <ele>2683.6</ele>
        <time>2024-07-08T12:16:37Z</time>
      </trkpt>
      <trkpt lat="45.13078" lon="6.1093">
        <ele>2683.6</ele>
        <time>2024-07-08T12:16:38Z</time>
      </trkpt>
      <trkpt lat="45.13078" lon="6.1093">
        <ele>2683.7</ele>
        <time>2024-07-08T12:16:39Z</time>
      </trkpt>
      <trkpt lat="45.13078" lon="6.1093">
        <ele>2683.7</ele>
        <time>2024-07-08T12:16:40Z</time>
      </trkpt>
      <trkpt lat="45.13077" lon="6.10931">
        <ele>2683.7</ele>
        <time>2024-07-08T12:16:41Z</time>
      </trkpt>
      <trkpt lat="45.13077" lon="6.10931">
        <ele>2683.7</ele>
        <time>2024-07-08T12:16:42Z</time>
      </trkpt>
      <trkpt lat="45.13076" lon="6.10931">
        <ele>2683.8</ele>
        <time>2024-07-08T12:16:43Z</time>
      </trkpt>
      <trkpt lat="45.13076" lon="6.10931">
        <ele>2683.8</ele>
        <time>2024-07-08T12:16:44Z</time>
      </trkpt>
      <trkpt lat="45.13075" lon="6.10931">
        <ele>2683.8</ele>
        <time>2024-07-08T12:16:45Z</time>
      </trkpt>
      <trkpt lat="45.13075" lon="6.10932">
        <ele>2683.8</ele>
        <time>2024-07-08T12:16:46Z</time>
      </trkpt>
      <trkpt lat="45.13075" lon="6.10932">
        <ele>2683.9</ele>
        <time>2024-07-08T12:16:47Z</time>
      </trkpt>
      <trkpt lat="45.13074" lon="6.10932">
        <ele>2683.9</ele>
        <time>2024-07-08T12:16:48Z</time>
      </trkpt>
      <trkpt lat="45.13074" lon="6.10932">
        <ele>2683.9</ele>
        <time>2024-07-08T12:16:49Z</time>
      </trkpt>
      <trkpt lat="45.13073" lon="6.10932">
        <ele>2684</ele>
        <time>2024-07-08T12:16:50Z</time>
      </trkpt>
      <trkpt lat="45.13073" lon="6.10931">
        <ele>2684</ele>
        <time>2024-07-08T12:16:51Z</time>
      </trkpt>
      <trkpt lat="45.13072" lon="6.10931">
        <ele>2684.1</ele>
        <time>2024-07-08T12:16:52Z</time>
      </trkpt>
      <trkpt lat="45.13071" lon="6.10931">
        <ele>2684.1</ele>
        <time>2024-07-08T12:16:53Z</time>
      </trkpt>
      <trkpt lat="45.13071" lon="6.10931">
        <ele>2684.1</ele>
        <time>2024-07-08T12:16:54Z</time>
      </trkpt>
      <trkpt lat="45.1307" lon="6.10931">
        <ele>2684.2</ele>
        <time>2024-07-08T12:16:55Z</time>
      </trkpt>
      <trkpt lat="45.1307" lon="6.10931">
        <ele>2684.2</ele>
        <time>2024-07-08T12:16:56Z</time>
      </trkpt>
      <trkpt lat="45.13069" lon="6.1093">
        <ele>2684.3</ele>
        <time>2024-07-08T12:16:57Z</time>
      </trkpt>
      <trkpt lat="45.13068" lon="6.1093">
        <ele>2684.4</ele>
        <time>2024-07-08T12:16:58Z</time>
      </trkpt>
      <trkpt lat="45.13068" lon="6.1093">
        <ele>2684.4</ele>
        <time>2024-07-08T12:16:59Z</time>
      </trkpt>
      <trkpt lat="45.13067" lon="6.10929">
        <ele>2684.4</ele>
        <time>2024-07-08T12:17:00Z</time>
      </trkpt>
      <trkpt lat="45.13067" lon="6.10929">
        <ele>2684.5</ele>
        <time>2024-07-08T12:17:01Z</time>
      </trkpt>
      <trkpt lat="45.13067" lon="6.10929">
        <ele>2684.5</ele>
        <time>2024-07-08T12:17:02Z</time>
      </trkpt>
      <trkpt lat="45.13067" lon="6.10928">
        <ele>2684.5</ele>
        <time>2024-07-08T12:17:03Z</time>
      </trkpt>
      <trkpt lat="45.13067" lon="6.10929">
        <ele>2684.5</ele>
        <time>2024-07-08T12:17:04Z</time>
      </trkpt>
      <trkpt lat="45.13067" lon="6.10928">
        <ele>2684.5</ele>
        <time>2024-07-08T12:17:05Z</time>
      </trkpt>
      <trkpt lat="45.13067" lon="6.10928">
        <ele>2684.6</ele>
        <time>2024-07-08T12:17:06Z</time>
      </trkpt>
      <trkpt lat="45.13067" lon="6.10928">
        <ele>2684.6</ele>
        <time>2024-07-08T12:17:07Z</time>
      </trkpt>
      <trkpt lat="45.13067" lon="6.10928">
        <ele>2684.6</ele>
        <time>2024-07-08T12:17:08Z</time>
      </trkpt>
      <trkpt lat="45.13067" lon="6.10928">
        <ele>2684.6</ele>
        <time>2024-07-08T12:17:09Z</time>
      </trkpt>
      <trkpt lat="45.13066" lon="6.10927">
        <ele>2684.7</ele>
        <time>2024-07-08T12:17:10Z</time>
      </trkpt>
      <trkpt lat="45.13066" lon="6.10927">
        <ele>2684.7</ele>
        <time>2024-07-08T12:17:11Z</time>
      </trkpt>
      <trkpt lat="45.13066" lon="6.10928">
        <ele>2684.7</ele>
        <time>2024-07-08T12:17:12Z</time>
      </trkpt>
      <trkpt lat="45.13065" lon="6.10928">
        <ele>2684.8</ele>
        <time>2024-07-08T12:17:13Z</time>
      </trkpt>
      <trkpt lat="45.13065" lon="6.10928">
        <ele>2684.8</ele>
        <time>2024-07-08T12:17:14Z</time>
      </trkpt>
      <trkpt lat="45.13064" lon="6.10928">
        <ele>2684.9</ele>
        <time>2024-07-08T12:17:15Z</time>
      </trkpt>
      <trkpt lat="45.13063" lon="6.10928">
        <ele>2684.9</ele>
        <time>2024-07-08T12:17:16Z</time>
      </trkpt>
      <trkpt lat="45.13063" lon="6.10929">
        <ele>2685</ele>
        <time>2024-07-08T12:17:17Z</time>
      </trkpt>
      <trkpt lat="45.13062" lon="6.10929">
        <ele>2685</ele>
        <time>2024-07-08T12:17:18Z</time>
      </trkpt>
      <trkpt lat="45.13061" lon="6.10929">
        <ele>2685.1</ele>
        <time>2024-07-08T12:17:19Z</time>
      </trkpt>
      <trkpt lat="45.13061" lon="6.10929">
        <ele>2685.2</ele>
        <time>2024-07-08T12:17:20Z</time>
      </trkpt>
      <trkpt lat="45.1306" lon="6.10928">
        <ele>2685.2</ele>
        <time>2024-07-08T12:17:21Z</time>
      </trkpt>
      <trkpt lat="45.1306" lon="6.10928">
        <ele>2685.3</ele>
        <time>2024-07-08T12:17:22Z</time>
      </trkpt>
      <trkpt lat="45.13059" lon="6.10927">
        <ele>2685.3</ele>
        <time>2024-07-08T12:17:23Z</time>
      </trkpt>
      <trkpt lat="45.13059" lon="6.10927">
        <ele>2685.4</ele>
        <time>2024-07-08T12:17:24Z</time>
      </trkpt>
      <trkpt lat="45.13058" lon="6.10927">
        <ele>2685.4</ele>
        <time>2024-07-08T12:17:25Z</time>
      </trkpt>
      <trkpt lat="45.13058" lon="6.10926">
        <ele>2685.5</ele>
        <time>2024-07-08T12:17:26Z</time>
      </trkpt>
      <trkpt lat="45.13058" lon="6.10926">
        <ele>2685.5</ele>
        <time>2024-07-08T12:17:27Z</time>
      </trkpt>
      <trkpt lat="45.13057" lon="6.10926">
        <ele>2685.6</ele>
        <time>2024-07-08T12:17:28Z</time>
      </trkpt>
      <trkpt lat="45.13057" lon="6.10926">
        <ele>2685.6</ele>
        <time>2024-07-08T12:17:29Z</time>
      </trkpt>
      <trkpt lat="45.13057" lon="6.10926">
        <ele>2685.6</ele>
        <time>2024-07-08T12:17:30Z</time>
      </trkpt>
      <trkpt lat="45.13056" lon="6.10927">
        <ele>2685.7</ele>
        <time>2024-07-08T12:17:31Z</time>
      </trkpt>
      <trkpt lat="45.13056" lon="6.10926">
        <ele>2685.7</ele>
        <time>2024-07-08T12:17:32Z</time>
      </trkpt>
      <trkpt lat="45.13055" lon="6.10926">
        <ele>2685.8</ele>
        <time>2024-07-08T12:17:33Z</time>
      </trkpt>
      <trkpt lat="45.13055" lon="6.10926">
        <ele>2685.9</ele>
        <time>2024-07-08T12:17:34Z</time>
      </trkpt>
      <trkpt lat="45.13055" lon="6.10925">
        <ele>2685.9</ele>
        <time>2024-07-08T12:17:35Z</time>
      </trkpt>
      <trkpt lat="45.13054" lon="6.10924">
        <ele>2686</ele>
        <time>2024-07-08T12:17:36Z</time>
      </trkpt>
      <trkpt lat="45.13054" lon="6.10924">
        <ele>2686.1</ele>
        <time>2024-07-08T12:17:37Z</time>
      </trkpt>
      <trkpt lat="45.13054" lon="6.10924">
        <ele>2686.1</ele>
        <time>2024-07-08T12:17:38Z</time>
      </trkpt>
      <trkpt lat="45.13054" lon="6.10924">
        <ele>2686.1</ele>
        <time>2024-07-08T12:17:39Z</time>
      </trkpt>
      <trkpt lat="45.13054" lon="6.10924">
        <ele>2686.2</ele>
        <time>2024-07-08T12:17:40Z</time>
      </trkpt>
      <trkpt lat="45.13054" lon="6.10924">
        <ele>2686.2</ele>
        <time>2024-07-08T12:17:41Z</time>
      </trkpt>
      <trkpt lat="45.13054" lon="6.10924">
        <ele>2686.2</ele>
        <time>2024-07-08T12:17:42Z</time>
      </trkpt>
      <trkpt lat="45.13054" lon="6.10923">
        <ele>2686.2</ele>
        <time>2024-07-08T12:17:43Z</time>
      </trkpt>
      <trkpt lat="45.13054" lon="6.10923">
        <ele>2686.3</ele>
        <time>2024-07-08T12:17:44Z</time>
      </trkpt>
      <trkpt lat="45.13053" lon="6.10922">
        <ele>2686.4</ele>
        <time>2024-07-08T12:17:45Z</time>
      </trkpt>
      <trkpt lat="45.13052" lon="6.10921">
        <ele>2686.5</ele>
        <time>2024-07-08T12:17:46Z</time>
      </trkpt>
      <trkpt lat="45.13052" lon="6.1092">
        <ele>2686.6</ele>
        <time>2024-07-08T12:17:47Z</time>
      </trkpt>
      <trkpt lat="45.13051" lon="6.10919">
        <ele>2686.7</ele>
        <time>2024-07-08T12:17:48Z</time>
      </trkpt>
      <trkpt lat="45.13051" lon="6.10918">
        <ele>2686.9</ele>
        <time>2024-07-08T12:17:49Z</time>
      </trkpt>
      <trkpt lat="45.1305" lon="6.10918">
        <ele>2687</ele>
        <time>2024-07-08T12:17:50Z</time>
      </trkpt>
      <trkpt lat="45.13049" lon="6.10917">
        <ele>2687.1</ele>
        <time>2024-07-08T12:17:51Z</time>
      </trkpt>
      <trkpt lat="45.13048" lon="6.10917">
        <ele>2687.2</ele>
        <time>2024-07-08T12:17:52Z</time>
      </trkpt>
      <trkpt lat="45.13047" lon="6.10917">
        <ele>2687.4</ele>
        <time>2024-07-08T12:17:53Z</time>
      </trkpt>
      <trkpt lat="45.13046" lon="6.10916">
        <ele>2687.5</ele>
        <time>2024-07-08T12:17:54Z</time>
      </trkpt>
      <trkpt lat="45.13045" lon="6.10916">
        <ele>2687.7</ele>
        <time>2024-07-08T12:17:55Z</time>
      </trkpt>
      <trkpt lat="45.13044" lon="6.10916">
        <ele>2687.8</ele>
        <time>2024-07-08T12:17:56Z</time>
      </trkpt>
      <trkpt lat="45.13043" lon="6.10915">
        <ele>2687.9</ele>
        <time>2024-07-08T12:17:57Z</time>
      </trkpt>
      <trkpt lat="45.13043" lon="6.10915">
        <ele>2688</ele>
        <time>2024-07-08T12:17:58Z</time>
      </trkpt>
      <trkpt lat="45.13042" lon="6.10914">
        <ele>2688.2</ele>
        <time>2024-07-08T12:17:59Z</time>
      </trkpt>
      <trkpt lat="45.13041" lon="6.10914">
        <ele>2688.3</ele>
        <time>2024-07-08T12:18:00Z</time>
      </trkpt>
      <trkpt lat="45.1304" lon="6.10913">
        <ele>2688.4</ele>
        <time>2024-07-08T12:18:01Z</time>
      </trkpt>
      <trkpt lat="45.13039" lon="6.10913">
        <ele>2688.6</ele>
        <time>2024-07-08T12:18:02Z</time>
      </trkpt>
      <trkpt lat="45.13039" lon="6.10913">
        <ele>2688.7</ele>
        <time>2024-07-08T12:18:03Z</time>
      </trkpt>
      <trkpt lat="45.13038" lon="6.10912">
        <ele>2688.9</ele>
        <time>2024-07-08T12:18:04Z</time>
      </trkpt>
      <trkpt lat="45.13037" lon="6.10912">
        <ele>2689</ele>
        <time>2024-07-08T12:18:05Z</time>
      </trkpt>
      <trkpt lat="45.13036" lon="6.10912">
        <ele>2689.2</ele>
        <time>2024-07-08T12:18:06Z</time>
      </trkpt>
      <trkpt lat="45.13035" lon="6.10911">
        <ele>2689.3</ele>
        <time>2024-07-08T12:18:07Z</time>
      </trkpt>
      <trkpt lat="45.13034" lon="6.10911">
        <ele>2689.4</ele>
        <time>2024-07-08T12:18:08Z</time>
      </trkpt>
      <trkpt lat="45.13033" lon="6.10911">
        <ele>2689.6</ele>
        <time>2024-07-08T12:18:09Z</time>
      </trkpt>
      <trkpt lat="45.13032" lon="6.1091">
        <ele>2689.8</ele>
        <time>2024-07-08T12:18:10Z</time>
      </trkpt>
      <trkpt lat="45.13031" lon="6.1091">
        <ele>2689.9</ele>
        <time>2024-07-08T12:18:11Z</time>
      </trkpt>
      <trkpt lat="45.1303" lon="6.1091">
        <ele>2690</ele>
        <time>2024-07-08T12:18:12Z</time>
      </trkpt>
      <trkpt lat="45.13029" lon="6.1091">
        <ele>2690.1</ele>
        <time>2024-07-08T12:18:13Z</time>
      </trkpt>
      <trkpt lat="45.13029" lon="6.1091">
        <ele>2690.3</ele>
        <time>2024-07-08T12:18:14Z</time>
      </trkpt>
      <trkpt lat="45.13027" lon="6.1091">
        <ele>2690.4</ele>
        <time>2024-07-08T12:18:15Z</time>
      </trkpt>
      <trkpt lat="45.13027" lon="6.1091">
        <ele>2690.5</ele>
        <time>2024-07-08T12:18:16Z</time>
      </trkpt>
      <trkpt lat="45.13026" lon="6.1091">
        <ele>2690.6</ele>
        <time>2024-07-08T12:18:17Z</time>
      </trkpt>
      <trkpt lat="45.13025" lon="6.10911">
        <ele>2690.7</ele>
        <time>2024-07-08T12:18:18Z</time>
      </trkpt>
      <trkpt lat="45.13024" lon="6.10911">
        <ele>2690.9</ele>
        <time>2024-07-08T12:18:19Z</time>
      </trkpt>
      <trkpt lat="45.13023" lon="6.10911">
        <ele>2691</ele>
        <time>2024-07-08T12:18:20Z</time>
      </trkpt>
      <trkpt lat="45.13022" lon="6.10911">
        <ele>2691.1</ele>
        <time>2024-07-08T12:18:21Z</time>
      </trkpt>
      <trkpt lat="45.13021" lon="6.10911">
        <ele>2691.2</ele>
        <time>2024-07-08T12:18:22Z</time>
      </trkpt>
      <trkpt lat="45.13021" lon="6.10911">
        <ele>2691.3</ele>
        <time>2024-07-08T12:18:23Z</time>
      </trkpt>
      <trkpt lat="45.1302" lon="6.10911">
        <ele>2691.4</ele>
        <time>2024-07-08T12:18:24Z</time>
      </trkpt>
      <trkpt lat="45.13019" lon="6.10911">
        <ele>2691.5</ele>
        <time>2024-07-08T12:18:25Z</time>
      </trkpt>
      <trkpt lat="45.13018" lon="6.10911">
        <ele>2691.6</ele>
        <time>2024-07-08T12:18:26Z</time>
      </trkpt>
      <trkpt lat="45.13017" lon="6.10911">
        <ele>2691.6</ele>
        <time>2024-07-08T12:18:27Z</time>
      </trkpt>
      <trkpt lat="45.13017" lon="6.10911">
        <ele>2691.7</ele>
        <time>2024-07-08T12:18:28Z</time>
      </trkpt>
      <trkpt lat="45.13016" lon="6.10911">
        <ele>2691.8</ele>
        <time>2024-07-08T12:18:29Z</time>
      </trkpt>
      <trkpt lat="45.13015" lon="6.10911">
        <ele>2691.9</ele>
        <time>2024-07-08T12:18:30Z</time>
      </trkpt>
      <trkpt lat="45.13014" lon="6.10911">
        <ele>2692</ele>
        <time>2024-07-08T12:18:31Z</time>
      </trkpt>
      <trkpt lat="45.13013" lon="6.10912">
        <ele>2692.1</ele>
        <time>2024-07-08T12:18:32Z</time>
      </trkpt>
      <trkpt lat="45.13013" lon="6.10912">
        <ele>2692.2</ele>
        <time>2024-07-08T12:18:33Z</time>
      </trkpt>
      <trkpt lat="45.13012" lon="6.10911">
        <ele>2692.2</ele>
        <time>2024-07-08T12:18:34Z</time>
      </trkpt>
      <trkpt lat="45.13011" lon="6.10911">
        <ele>2692.3</ele>
        <time>2024-07-08T12:18:35Z</time>
      </trkpt>
      <trkpt lat="45.13011" lon="6.10911">
        <ele>2692.4</ele>
        <time>2024-07-08T12:18:36Z</time>
      </trkpt>
      <trkpt lat="45.1301" lon="6.10911">
        <ele>2692.5</ele>
        <time>2024-07-08T12:18:37Z</time>
      </trkpt>
      <trkpt lat="45.13009" lon="6.10911">
        <ele>2692.6</ele>
        <time>2024-07-08T12:18:38Z</time>
      </trkpt>
      <trkpt lat="45.13008" lon="6.10912">
        <ele>2692.7</ele>
        <time>2024-07-08T12:18:39Z</time>
      </trkpt>
      <trkpt lat="45.13007" lon="6.10912">
        <ele>2692.8</ele>
        <time>2024-07-08T12:18:40Z</time>
      </trkpt>
      <trkpt lat="45.13006" lon="6.10912">
        <ele>2692.9</ele>
        <time>2024-07-08T12:18:41Z</time>
      </trkpt>
      <trkpt lat="45.13006" lon="6.10912">
        <ele>2692.9</ele>
        <time>2024-07-08T12:18:42Z</time>
      </trkpt>
      <trkpt lat="45.13005" lon="6.10912">
        <ele>2693</ele>
        <time>2024-07-08T12:18:43Z</time>
      </trkpt>
      <trkpt lat="45.13004" lon="6.10912">
        <ele>2693.1</ele>
        <time>2024-07-08T12:18:44Z</time>
      </trkpt>
      <trkpt lat="45.13003" lon="6.10912">
        <ele>2693.2</ele>
        <time>2024-07-08T12:18:45Z</time>
      </trkpt>
      <trkpt lat="45.13003" lon="6.10913">
        <ele>2693.3</ele>
        <time>2024-07-08T12:18:46Z</time>
      </trkpt>
      <trkpt lat="45.13002" lon="6.10913">
        <ele>2693.4</ele>
        <time>2024-07-08T12:18:47Z</time>
      </trkpt>
      <trkpt lat="45.13001" lon="6.10913">
        <ele>2693.5</ele>
        <time>2024-07-08T12:18:48Z</time>
      </trkpt>
      <trkpt lat="45.13001" lon="6.10913">
        <ele>2693.6</ele>
        <time>2024-07-08T12:18:49Z</time>
      </trkpt>
      <trkpt lat="45.13" lon="6.10914">
        <ele>2693.7</ele>
        <time>2024-07-08T12:18:50Z</time>
      </trkpt>
      <trkpt lat="45.12999" lon="6.10914">
        <ele>2693.8</ele>
        <time>2024-07-08T12:18:51Z</time>
      </trkpt>
      <trkpt lat="45.12999" lon="6.10914">
        <ele>2693.9</ele>
        <time>2024-07-08T12:18:52Z</time>
      </trkpt>
      <trkpt lat="45.12997" lon="6.10914">
        <ele>2694.1</ele>
        <time>2024-07-08T12:18:53Z</time>
      </trkpt>
      <trkpt lat="45.12996" lon="6.10915">
        <ele>2694.1</ele>
        <time>2024-07-08T12:18:54Z</time>
      </trkpt>
      <trkpt lat="45.12996" lon="6.10915">
        <ele>2694.2</ele>
        <time>2024-07-08T12:18:55Z</time>
      </trkpt>
      <trkpt lat="45.12995" lon="6.10915">
        <ele>2694.3</ele>
        <time>2024-07-08T12:18:56Z</time>
      </trkpt>
      <trkpt lat="45.12994" lon="6.10915">
        <ele>2694.4</ele>
        <time>2024-07-08T12:18:57Z</time>
      </trkpt>
      <trkpt lat="45.12993" lon="6.10916">
        <ele>2694.5</ele>
        <time>2024-07-08T12:18:58Z</time>
      </trkpt>
      <trkpt lat="45.12992" lon="6.10916">
        <ele>2694.6</ele>
        <time>2024-07-08T12:18:59Z</time>
      </trkpt>
      <trkpt lat="45.12992" lon="6.10916">
        <ele>2694.7</ele>
        <time>2024-07-08T12:19:00Z</time>
      </trkpt>
      <trkpt lat="45.12991" lon="6.10917">
        <ele>2694.8</ele>
        <time>2024-07-08T12:19:01Z</time>
      </trkpt>
      <trkpt lat="45.1299" lon="6.10917">
        <ele>2694.9</ele>
        <time>2024-07-08T12:19:02Z</time>
      </trkpt>
      <trkpt lat="45.12989" lon="6.10918">
        <ele>2695</ele>
        <time>2024-07-08T12:19:03Z</time>
      </trkpt>
      <trkpt lat="45.12989" lon="6.10918">
        <ele>2695</ele>
        <time>2024-07-08T12:19:04Z</time>
      </trkpt>
      <trkpt lat="45.12988" lon="6.10919">
        <ele>2695.1</ele>
        <time>2024-07-08T12:19:05Z</time>
      </trkpt>
      <trkpt lat="45.12987" lon="6.1092">
        <ele>2695.2</ele>
        <time>2024-07-08T12:19:06Z</time>
      </trkpt>
      <trkpt lat="45.12987" lon="6.1092">
        <ele>2695.3</ele>
        <time>2024-07-08T12:19:07Z</time>
      </trkpt>
      <trkpt lat="45.12986" lon="6.10921">
        <ele>2695.4</ele>
        <time>2024-07-08T12:19:08Z</time>
      </trkpt>
      <trkpt lat="45.12985" lon="6.10921">
        <ele>2695.4</ele>
        <time>2024-07-08T12:19:09Z</time>
      </trkpt>
      <trkpt lat="45.12984" lon="6.10922">
        <ele>2695.5</ele>
        <time>2024-07-08T12:19:10Z</time>
      </trkpt>
      <trkpt lat="45.12984" lon="6.10922">
        <ele>2695.6</ele>
        <time>2024-07-08T12:19:11Z</time>
      </trkpt>
      <trkpt lat="45.12983" lon="6.10923">
        <ele>2695.6</ele>
        <time>2024-07-08T12:19:12Z</time>
      </trkpt>
      <trkpt lat="45.12982" lon="6.10923">
        <ele>2695.7</ele>
        <time>2024-07-08T12:19:13Z</time>
      </trkpt>
      <trkpt lat="45.12982" lon="6.10923">
        <ele>2695.8</ele>
        <time>2024-07-08T12:19:14Z</time>
      </trkpt>
      <trkpt lat="45.12981" lon="6.10923">
        <ele>2695.9</ele>
        <time>2024-07-08T12:19:15Z</time>
      </trkpt>
      <trkpt lat="45.1298" lon="6.10923">
        <ele>2696</ele>
        <time>2024-07-08T12:19:16Z</time>
      </trkpt>
      <trkpt lat="45.12979" lon="6.10922">
        <ele>2696</ele>
        <time>2024-07-08T12:19:17Z</time>
      </trkpt>
      <trkpt lat="45.12979" lon="6.10922">
        <ele>2696.1</ele>
        <time>2024-07-08T12:19:18Z</time>
      </trkpt>
      <trkpt lat="45.12978" lon="6.10922">
        <ele>2696.2</ele>
        <time>2024-07-08T12:19:19Z</time>
      </trkpt>
      <trkpt lat="45.12977" lon="6.10923">
        <ele>2696.3</ele>
        <time>2024-07-08T12:19:20Z</time>
      </trkpt>
      <trkpt lat="45.12976" lon="6.10923">
        <ele>2696.4</ele>
        <time>2024-07-08T12:19:21Z</time>
      </trkpt>
      <trkpt lat="45.12976" lon="6.10923">
        <ele>2696.4</ele>
        <time>2024-07-08T12:19:22Z</time>
      </trkpt>
      <trkpt lat="45.12975" lon="6.10924">
        <ele>2696.5</ele>
        <time>2024-07-08T12:19:23Z</time>
      </trkpt>
      <trkpt lat="45.12974" lon="6.10924">
        <ele>2696.7</ele>
        <time>2024-07-08T12:19:24Z</time>
      </trkpt>
      <trkpt lat="45.12973" lon="6.10925">
        <ele>2696.7</ele>
        <time>2024-07-08T12:19:25Z</time>
      </trkpt>
      <trkpt lat="45.12973" lon="6.10926">
        <ele>2696.8</ele>
        <time>2024-07-08T12:19:26Z</time>
      </trkpt>
      <trkpt lat="45.12972" lon="6.10926">
        <ele>2696.9</ele>
        <time>2024-07-08T12:19:27Z</time>
      </trkpt>
      <trkpt lat="45.12971" lon="6.10926">
        <ele>2697</ele>
        <time>2024-07-08T12:19:28Z</time>
      </trkpt>
      <trkpt lat="45.1297" lon="6.10927">
        <ele>2697.1</ele>
        <time>2024-07-08T12:19:29Z</time>
      </trkpt>
      <trkpt lat="45.1297" lon="6.10927">
        <ele>2697.1</ele>
        <time>2024-07-08T12:19:30Z</time>
      </trkpt>
      <trkpt lat="45.12969" lon="6.10927">
        <ele>2697.2</ele>
        <time>2024-07-08T12:19:31Z</time>
      </trkpt>
      <trkpt lat="45.12968" lon="6.10928">
        <ele>2697.3</ele>
        <time>2024-07-08T12:19:32Z</time>
      </trkpt>
      <trkpt lat="45.12968" lon="6.10929">
        <ele>2697.4</ele>
        <time>2024-07-08T12:19:33Z</time>
      </trkpt>
      <trkpt lat="45.12967" lon="6.1093">
        <ele>2697.6</ele>
        <time>2024-07-08T12:19:34Z</time>
      </trkpt>
      <trkpt lat="45.12967" lon="6.10932">
        <ele>2697.7</ele>
        <time>2024-07-08T12:19:35Z</time>
      </trkpt>
      <trkpt lat="45.12966" lon="6.10932">
        <ele>2697.8</ele>
        <time>2024-07-08T12:19:36Z</time>
      </trkpt>
      <trkpt lat="45.12965" lon="6.10933">
        <ele>2698</ele>
        <time>2024-07-08T12:19:37Z</time>
      </trkpt>
      <trkpt lat="45.12965" lon="6.10934">
        <ele>2698.1</ele>
        <time>2024-07-08T12:19:38Z</time>
      </trkpt>
      <trkpt lat="45.12964" lon="6.10935">
        <ele>2698.3</ele>
        <time>2024-07-08T12:19:39Z</time>
      </trkpt>
      <trkpt lat="45.12964" lon="6.10937">
        <ele>2698.4</ele>
        <time>2024-07-08T12:19:40Z</time>
      </trkpt>
      <trkpt lat="45.12964" lon="6.10938">
        <ele>2698.6</ele>
        <time>2024-07-08T12:19:41Z</time>
      </trkpt>
      <trkpt lat="45.12963" lon="6.10939">
        <ele>2698.8</ele>
        <time>2024-07-08T12:19:42Z</time>
      </trkpt>
      <trkpt lat="45.12962" lon="6.10939">
        <ele>2699</ele>
        <time>2024-07-08T12:19:43Z</time>
      </trkpt>
      <trkpt lat="45.12961" lon="6.10938">
        <ele>2699.1</ele>
        <time>2024-07-08T12:19:44Z</time>
      </trkpt>
      <trkpt lat="45.1296" lon="6.10938">
        <ele>2699.3</ele>
        <time>2024-07-08T12:19:45Z</time>
      </trkpt>
      <trkpt lat="45.12959" lon="6.10938">
        <ele>2699.5</ele>
        <time>2024-07-08T12:19:46Z</time>
      </trkpt>
      <trkpt lat="45.12958" lon="6.10937">
        <ele>2699.8</ele>
        <time>2024-07-08T12:19:47Z</time>
      </trkpt>
      <trkpt lat="45.12957" lon="6.10937">
        <ele>2699.9</ele>
        <time>2024-07-08T12:19:48Z</time>
      </trkpt>
      <trkpt lat="45.12956" lon="6.10937">
        <ele>2700</ele>
        <time>2024-07-08T12:19:49Z</time>
      </trkpt>
      <trkpt lat="45.12956" lon="6.10937">
        <ele>2700.2</ele>
        <time>2024-07-08T12:19:50Z</time>
      </trkpt>
      <trkpt lat="45.12955" lon="6.10937">
        <ele>2700.4</ele>
        <time>2024-07-08T12:19:51Z</time>
      </trkpt>
      <trkpt lat="45.12954" lon="6.10937">
        <ele>2700.6</ele>
        <time>2024-07-08T12:19:52Z</time>
      </trkpt>
      <trkpt lat="45.12953" lon="6.10938">
        <ele>2700.8</ele>
        <time>2024-07-08T12:19:53Z</time>
      </trkpt>
      <trkpt lat="45.12952" lon="6.10939">
        <ele>2701</ele>
        <time>2024-07-08T12:19:54Z</time>
      </trkpt>
      <trkpt lat="45.12951" lon="6.10939">
        <ele>2701.2</ele>
        <time>2024-07-08T12:19:55Z</time>
      </trkpt>
      <trkpt lat="45.1295" lon="6.1094">
        <ele>2701.3</ele>
        <time>2024-07-08T12:19:56Z</time>
      </trkpt>
      <trkpt lat="45.12949" lon="6.1094">
        <ele>2701.5</ele>
        <time>2024-07-08T12:19:57Z</time>
      </trkpt>
      <trkpt lat="45.12948" lon="6.1094">
        <ele>2701.7</ele>
        <time>2024-07-08T12:19:58Z</time>
      </trkpt>
      <trkpt lat="45.12947" lon="6.1094">
        <ele>2701.9</ele>
        <time>2024-07-08T12:19:59Z</time>
      </trkpt>
      <trkpt lat="45.12946" lon="6.1094">
        <ele>2702.1</ele>
        <time>2024-07-08T12:20:00Z</time>
      </trkpt>
      <trkpt lat="45.12945" lon="6.1094">
        <ele>2702.2</ele>
        <time>2024-07-08T12:20:01Z</time>
      </trkpt>
      <trkpt lat="45.12944" lon="6.1094">
        <ele>2702.5</ele>
        <time>2024-07-08T12:20:02Z</time>
      </trkpt>
      <trkpt lat="45.12943" lon="6.1094">
        <ele>2702.6</ele>
        <time>2024-07-08T12:20:03Z</time>
      </trkpt>
      <trkpt lat="45.12942" lon="6.10941">
        <ele>2702.8</ele>
        <time>2024-07-08T12:20:04Z</time>
      </trkpt>
      <trkpt lat="45.12941" lon="6.10942">
        <ele>2703</ele>
        <time>2024-07-08T12:20:05Z</time>
      </trkpt>
      <trkpt lat="45.1294" lon="6.10943">
        <ele>2703.1</ele>
        <time>2024-07-08T12:20:06Z</time>
      </trkpt>
      <trkpt lat="45.1294" lon="6.10944">
        <ele>2703.3</ele>
        <time>2024-07-08T12:20:07Z</time>
      </trkpt>
      <trkpt lat="45.12939" lon="6.10944">
        <ele>2703.4</ele>
        <time>2024-07-08T12:20:08Z</time>
      </trkpt>
      <trkpt lat="45.12938" lon="6.10944">
        <ele>2703.5</ele>
        <time>2024-07-08T12:20:09Z</time>
      </trkpt>
      <trkpt lat="45.12937" lon="6.10945">
        <ele>2703.7</ele>
        <time>2024-07-08T12:20:10Z</time>
      </trkpt>
      <trkpt lat="45.12936" lon="6.10945">
        <ele>2703.8</ele>
        <time>2024-07-08T12:20:11Z</time>
      </trkpt>
      <trkpt lat="45.12935" lon="6.10945">
        <ele>2704</ele>
        <time>2024-07-08T12:20:12Z</time>
      </trkpt>
      <trkpt lat="45.12934" lon="6.10945">
        <ele>2704.1</ele>
        <time>2024-07-08T12:20:13Z</time>
      </trkpt>
      <trkpt lat="45.12933" lon="6.10946">
        <ele>2704.3</ele>
        <time>2024-07-08T12:20:14Z</time>
      </trkpt>
      <trkpt lat="45.12932" lon="6.10947">
        <ele>2704.4</ele>
        <time>2024-07-08T12:20:15Z</time>
      </trkpt>
      <trkpt lat="45.12932" lon="6.10948">
        <ele>2704.5</ele>
        <time>2024-07-08T12:20:16Z</time>
      </trkpt>
      <trkpt lat="45.12931" lon="6.10948">
        <ele>2704.6</ele>
        <time>2024-07-08T12:20:17Z</time>
      </trkpt>
      <trkpt lat="45.1293" lon="6.10949">
        <ele>2704.7</ele>
        <time>2024-07-08T12:20:18Z</time>
      </trkpt>
      <trkpt lat="45.12929" lon="6.10949">
        <ele>2704.8</ele>
        <time>2024-07-08T12:20:19Z</time>
      </trkpt>
      <trkpt lat="45.12928" lon="6.10949">
        <ele>2704.9</ele>
        <time>2024-07-08T12:20:20Z</time>
      </trkpt>
      <trkpt lat="45.12928" lon="6.1095">
        <ele>2705</ele>
        <time>2024-07-08T12:20:21Z</time>
      </trkpt>
      <trkpt lat="45.12927" lon="6.1095">
        <ele>2705.1</ele>
        <time>2024-07-08T12:20:22Z</time>
      </trkpt>
      <trkpt lat="45.12926" lon="6.10949">
        <ele>2705.2</ele>
        <time>2024-07-08T12:20:23Z</time>
      </trkpt>
      <trkpt lat="45.12925" lon="6.10949">
        <ele>2705.2</ele>
        <time>2024-07-08T12:20:24Z</time>
      </trkpt>
      <trkpt lat="45.12924" lon="6.10948">
        <ele>2705.3</ele>
        <time>2024-07-08T12:20:25Z</time>
      </trkpt>
      <trkpt lat="45.12924" lon="6.10947">
        <ele>2705.4</ele>
        <time>2024-07-08T12:20:26Z</time>
      </trkpt>
      <trkpt lat="45.12923" lon="6.10946">
        <ele>2705.5</ele>
        <time>2024-07-08T12:20:27Z</time>
      </trkpt>
      <trkpt lat="45.12922" lon="6.10945">
        <ele>2705.6</ele>
        <time>2024-07-08T12:20:28Z</time>
      </trkpt>
      <trkpt lat="45.12921" lon="6.10945">
        <ele>2705.7</ele>
        <time>2024-07-08T12:20:29Z</time>
      </trkpt>
      <trkpt lat="45.1292" lon="6.10945">
        <ele>2705.8</ele>
        <time>2024-07-08T12:20:30Z</time>
      </trkpt>
      <trkpt lat="45.1292" lon="6.10944">
        <ele>2705.9</ele>
        <time>2024-07-08T12:20:31Z</time>
      </trkpt>
      <trkpt lat="45.12919" lon="6.10944">
        <ele>2706</ele>
        <time>2024-07-08T12:20:32Z</time>
      </trkpt>
      <trkpt lat="45.12918" lon="6.10945">
        <ele>2706.1</ele>
        <time>2024-07-08T12:20:33Z</time>
      </trkpt>
      <trkpt lat="45.12917" lon="6.10945">
        <ele>2706.1</ele>
        <time>2024-07-08T12:20:34Z</time>
      </trkpt>
      <trkpt lat="45.12916" lon="6.10945">
        <ele>2706.2</ele>
        <time>2024-07-08T12:20:35Z</time>
      </trkpt>
      <trkpt lat="45.12915" lon="6.10945">
        <ele>2706.3</ele>
        <time>2024-07-08T12:20:36Z</time>
      </trkpt>
      <trkpt lat="45.12914" lon="6.10945">
        <ele>2706.4</ele>
        <time>2024-07-08T12:20:37Z</time>
      </trkpt>
      <trkpt lat="45.12913" lon="6.10945">
        <ele>2706.5</ele>
        <time>2024-07-08T12:20:38Z</time>
      </trkpt>
      <trkpt lat="45.12913" lon="6.10945">
        <ele>2706.6</ele>
        <time>2024-07-08T12:20:39Z</time>
      </trkpt>
      <trkpt lat="45.12912" lon="6.10946">
        <ele>2706.7</ele>
        <time>2024-07-08T12:20:40Z</time>
      </trkpt>
      <trkpt lat="45.12911" lon="6.10946">
        <ele>2706.7</ele>
        <time>2024-07-08T12:20:41Z</time>
      </trkpt>
      <trkpt lat="45.1291" lon="6.10947">
        <ele>2706.8</ele>
        <time>2024-07-08T12:20:42Z</time>
      </trkpt>
      <trkpt lat="45.12909" lon="6.10947">
        <ele>2706.9</ele>
        <time>2024-07-08T12:20:43Z</time>
      </trkpt>
      <trkpt lat="45.12908" lon="6.10948">
        <ele>2707</ele>
        <time>2024-07-08T12:20:44Z</time>
      </trkpt>
      <trkpt lat="45.12907" lon="6.10948">
        <ele>2707.1</ele>
        <time>2024-07-08T12:20:45Z</time>
      </trkpt>
      <trkpt lat="45.12906" lon="6.10949">
        <ele>2707.1</ele>
        <time>2024-07-08T12:20:46Z</time>
      </trkpt>
      <trkpt lat="45.12906" lon="6.10949">
        <ele>2707.2</ele>
        <time>2024-07-08T12:20:47Z</time>
      </trkpt>
      <trkpt lat="45.12905" lon="6.10949">
        <ele>2707.3</ele>
        <time>2024-07-08T12:20:48Z</time>
      </trkpt>
      <trkpt lat="45.12904" lon="6.1095">
        <ele>2707.3</ele>
        <time>2024-07-08T12:20:49Z</time>
      </trkpt>
      <trkpt lat="45.12903" lon="6.1095">
        <ele>2707.4</ele>
        <time>2024-07-08T12:20:50Z</time>
      </trkpt>
      <trkpt lat="45.12902" lon="6.10951">
        <ele>2707.5</ele>
        <time>2024-07-08T12:20:51Z</time>
      </trkpt>
      <trkpt lat="45.12901" lon="6.10951">
        <ele>2707.5</ele>
        <time>2024-07-08T12:20:52Z</time>
      </trkpt>
      <trkpt lat="45.12901" lon="6.10951">
        <ele>2707.6</ele>
        <time>2024-07-08T12:20:53Z</time>
      </trkpt>
      <trkpt lat="45.129" lon="6.10951">
        <ele>2707.6</ele>
        <time>2024-07-08T12:20:54Z</time>
      </trkpt>
      <trkpt lat="45.129" lon="6.10951">
        <ele>2707.7</ele>
        <time>2024-07-08T12:20:55Z</time>
      </trkpt>
      <trkpt lat="45.12899" lon="6.10952">
        <ele>2707.7</ele>
        <time>2024-07-08T12:20:56Z</time>
      </trkpt>
      <trkpt lat="45.12898" lon="6.10952">
        <ele>2707.7</ele>
        <time>2024-07-08T12:20:57Z</time>
      </trkpt>
      <trkpt lat="45.12898" lon="6.10952">
        <ele>2707.8</ele>
        <time>2024-07-08T12:20:58Z</time>
      </trkpt>
      <trkpt lat="45.12898" lon="6.10952">
        <ele>2707.8</ele>
        <time>2024-07-08T12:20:59Z</time>
      </trkpt>
      <trkpt lat="45.12898" lon="6.10952">
        <ele>2707.8</ele>
        <time>2024-07-08T12:21:00Z</time>
      </trkpt>
      <trkpt lat="45.12898" lon="6.10952">
        <ele>2707.8</ele>
        <time>2024-07-08T12:21:01Z</time>
      </trkpt>
      <trkpt lat="45.12897" lon="6.10952">
        <ele>2707.9</ele>
        <time>2024-07-08T12:21:02Z</time>
      </trkpt>
      <trkpt lat="45.12897" lon="6.10952">
        <ele>2707.9</ele>
        <time>2024-07-08T12:21:03Z</time>
      </trkpt>
      <trkpt lat="45.12896" lon="6.10952">
        <ele>2707.9</ele>
        <time>2024-07-08T12:21:04Z</time>
      </trkpt>
      <trkpt lat="45.12895" lon="6.10952">
        <ele>2708</ele>
        <time>2024-07-08T12:21:05Z</time>
      </trkpt>
      <trkpt lat="45.12894" lon="6.10952">
        <ele>2708</ele>
        <time>2024-07-08T12:21:06Z</time>
      </trkpt>
      <trkpt lat="45.12893" lon="6.10954">
        <ele>2708.1</ele>
        <time>2024-07-08T12:21:07Z</time>
      </trkpt>
      <trkpt lat="45.12892" lon="6.10954">
        <ele>2708.1</ele>
        <time>2024-07-08T12:21:08Z</time>
      </trkpt>
      <trkpt lat="45.12891" lon="6.10955">
        <ele>2708.2</ele>
        <time>2024-07-08T12:21:09Z</time>
      </trkpt>
      <trkpt lat="45.12891" lon="6.10955">
        <ele>2708.2</ele>
        <time>2024-07-08T12:21:10Z</time>
      </trkpt>
      <trkpt lat="45.1289" lon="6.10955">
        <ele>2708.2</ele>
        <time>2024-07-08T12:21:11Z</time>
      </trkpt>
      <trkpt lat="45.12889" lon="6.10956">
        <ele>2708.3</ele>
        <time>2024-07-08T12:21:12Z</time>
      </trkpt>
      <trkpt lat="45.12888" lon="6.10956">
        <ele>2708.3</ele>
        <time>2024-07-08T12:21:13Z</time>
      </trkpt>
      <trkpt lat="45.12887" lon="6.10957">
        <ele>2708.3</ele>
        <time>2024-07-08T12:21:14Z</time>
      </trkpt>
      <trkpt lat="45.12887" lon="6.10957">
        <ele>2708.3</ele>
        <time>2024-07-08T12:21:15Z</time>
      </trkpt>
      <trkpt lat="45.12886" lon="6.10957">
        <ele>2708.4</ele>
        <time>2024-07-08T12:21:16Z</time>
      </trkpt>
      <trkpt lat="45.12885" lon="6.10958">
        <ele>2708.4</ele>
        <time>2024-07-08T12:21:17Z</time>
      </trkpt>
      <trkpt lat="45.12885" lon="6.10958">
        <ele>2708.4</ele>
        <time>2024-07-08T12:21:18Z</time>
      </trkpt>
      <trkpt lat="45.12884" lon="6.10959">
        <ele>2708.4</ele>
        <time>2024-07-08T12:21:19Z</time>
      </trkpt>
      <trkpt lat="45.12883" lon="6.1096">
        <ele>2708.5</ele>
        <time>2024-07-08T12:21:20Z</time>
      </trkpt>
      <trkpt lat="45.12883" lon="6.1096">
        <ele>2708.5</ele>
        <time>2024-07-08T12:21:21Z</time>
      </trkpt>
      <trkpt lat="45.12882" lon="6.10961">
        <ele>2708.5</ele>
        <time>2024-07-08T12:21:22Z</time>
      </trkpt>
      <trkpt lat="45.12881" lon="6.10962">
        <ele>2708.5</ele>
        <time>2024-07-08T12:21:23Z</time>
      </trkpt>
      <trkpt lat="45.12881" lon="6.10962">
        <ele>2708.6</ele>
        <time>2024-07-08T12:21:24Z</time>
      </trkpt>
      <trkpt lat="45.1288" lon="6.10963">
        <ele>2708.7</ele>
        <time>2024-07-08T12:21:25Z</time>
      </trkpt>
      <trkpt lat="45.1288" lon="6.10964">
        <ele>2708.8</ele>
        <time>2024-07-08T12:21:26Z</time>
      </trkpt>
      <trkpt lat="45.12879" lon="6.10964">
        <ele>2709</ele>
        <time>2024-07-08T12:21:27Z</time>
      </trkpt>
      <trkpt lat="45.12879" lon="6.10965">
        <ele>2709.1</ele>
        <time>2024-07-08T12:21:28Z</time>
      </trkpt>
      <trkpt lat="45.12878" lon="6.10966">
        <ele>2709.2</ele>
        <time>2024-07-08T12:21:29Z</time>
      </trkpt>
      <trkpt lat="45.12878" lon="6.10966">
        <ele>2709.3</ele>
        <time>2024-07-08T12:21:30Z</time>
      </trkpt>
      <trkpt lat="45.12877" lon="6.10967">
        <ele>2709.4</ele>
        <time>2024-07-08T12:21:31Z</time>
      </trkpt>
      <trkpt lat="45.12877" lon="6.10968">
        <ele>2709.6</ele>
        <time>2024-07-08T12:21:32Z</time>
      </trkpt>
      <trkpt lat="45.12876" lon="6.10969">
        <ele>2709.7</ele>
        <time>2024-07-08T12:21:33Z</time>
      </trkpt>
      <trkpt lat="45.12876" lon="6.1097">
        <ele>2709.9</ele>
        <time>2024-07-08T12:21:34Z</time>
      </trkpt>
      <trkpt lat="45.12876" lon="6.10971">
        <ele>2710.1</ele>
        <time>2024-07-08T12:21:35Z</time>
      </trkpt>
      <trkpt lat="45.12875" lon="6.10972">
        <ele>2710.3</ele>
        <time>2024-07-08T12:21:36Z</time>
      </trkpt>
      <trkpt lat="45.12875" lon="6.10973">
        <ele>2710.4</ele>
        <time>2024-07-08T12:21:37Z</time>
      </trkpt>
      <trkpt lat="45.12874" lon="6.10974">
        <ele>2710.6</ele>
        <time>2024-07-08T12:21:38Z</time>
      </trkpt>
      <trkpt lat="45.12874" lon="6.10975">
        <ele>2710.8</ele>
        <time>2024-07-08T12:21:39Z</time>
      </trkpt>
      <trkpt lat="45.12873" lon="6.10975">
        <ele>2710.9</ele>
        <time>2024-07-08T12:21:40Z</time>
      </trkpt>
      <trkpt lat="45.12873" lon="6.10976">
        <ele>2711</ele>
        <time>2024-07-08T12:21:41Z</time>
      </trkpt>
      <trkpt lat="45.12873" lon="6.10976">
        <ele>2711.1</ele>
        <time>2024-07-08T12:21:42Z</time>
      </trkpt>
      <trkpt lat="45.12873" lon="6.10977">
        <ele>2711.3</ele>
        <time>2024-07-08T12:21:43Z</time>
      </trkpt>
      <trkpt lat="45.12873" lon="6.10978">
        <ele>2711.4</ele>
        <time>2024-07-08T12:21:44Z</time>
      </trkpt>
      <trkpt lat="45.12872" lon="6.10979">
        <ele>2711.5</ele>
        <time>2024-07-08T12:21:45Z</time>
      </trkpt>
      <trkpt lat="45.12872" lon="6.10979">
        <ele>2711.7</ele>
        <time>2024-07-08T12:21:46Z</time>
      </trkpt>
      <trkpt lat="45.12872" lon="6.1098">
        <ele>2711.9</ele>
        <time>2024-07-08T12:21:47Z</time>
      </trkpt>
      <trkpt lat="45.12871" lon="6.10981">
        <ele>2712.1</ele>
        <time>2024-07-08T12:21:48Z</time>
      </trkpt>
      <trkpt lat="45.12871" lon="6.10982">
        <ele>2712.2</ele>
        <time>2024-07-08T12:21:49Z</time>
      </trkpt>
      <trkpt lat="45.12871" lon="6.10983">
        <ele>2712.4</ele>
        <time>2024-07-08T12:21:50Z</time>
      </trkpt>
      <trkpt lat="45.1287" lon="6.10984">
        <ele>2712.6</ele>
        <time>2024-07-08T12:21:51Z</time>
      </trkpt>
      <trkpt lat="45.1287" lon="6.10984">
        <ele>2712.7</ele>
        <time>2024-07-08T12:21:52Z</time>
      </trkpt>
      <trkpt lat="45.12869" lon="6.10985">
        <ele>2712.9</ele>
        <time>2024-07-08T12:21:53Z</time>
      </trkpt>
      <trkpt lat="45.12869" lon="6.10985">
        <ele>2713.1</ele>
        <time>2024-07-08T12:21:54Z</time>
      </trkpt>
      <trkpt lat="45.12868" lon="6.10986">
        <ele>2713.3</ele>
        <time>2024-07-08T12:21:55Z</time>
      </trkpt>
      <trkpt lat="45.12867" lon="6.10987">
        <ele>2713.5</ele>
        <time>2024-07-08T12:21:56Z</time>
      </trkpt>
      <trkpt lat="45.12867" lon="6.10986">
        <ele>2713.6</ele>
        <time>2024-07-08T12:21:57Z</time>
      </trkpt>
      <trkpt lat="45.12866" lon="6.10986">
        <ele>2713.8</ele>
        <time>2024-07-08T12:21:58Z</time>
      </trkpt>
      <trkpt lat="45.12866" lon="6.10985">
        <ele>2714</ele>
        <time>2024-07-08T12:21:59Z</time>
      </trkpt>
      <trkpt lat="45.12865" lon="6.10983">
        <ele>2714.3</ele>
        <time>2024-07-08T12:22:00Z</time>
      </trkpt>
      <trkpt lat="45.12865" lon="6.10982">
        <ele>2714.5</ele>
        <time>2024-07-08T12:22:01Z</time>
      </trkpt>
      <trkpt lat="45.12864" lon="6.10981">
        <ele>2714.7</ele>
        <time>2024-07-08T12:22:02Z</time>
      </trkpt>
      <trkpt lat="45.12864" lon="6.1098">
        <ele>2714.9</ele>
        <time>2024-07-08T12:22:03Z</time>
      </trkpt>
      <trkpt lat="45.12863" lon="6.1098">
        <ele>2715</ele>
        <time>2024-07-08T12:22:04Z</time>
      </trkpt>
      <trkpt lat="45.12862" lon="6.10979">
        <ele>2715.2</ele>
        <time>2024-07-08T12:22:05Z</time>
      </trkpt>
      <trkpt lat="45.12862" lon="6.10979">
        <ele>2715.4</ele>
        <time>2024-07-08T12:22:06Z</time>
      </trkpt>
      <trkpt lat="45.12861" lon="6.10979">
        <ele>2715.5</ele>
        <time>2024-07-08T12:22:07Z</time>
      </trkpt>
      <trkpt lat="45.1286" lon="6.10979">
        <ele>2715.6</ele>
        <time>2024-07-08T12:22:08Z</time>
      </trkpt>
      <trkpt lat="45.1286" lon="6.10979">
        <ele>2715.7</ele>
        <time>2024-07-08T12:22:09Z</time>
      </trkpt>
      <trkpt lat="45.12859" lon="6.10979">
        <ele>2715.9</ele>
        <time>2024-07-08T12:22:10Z</time>
      </trkpt>
      <trkpt lat="45.12858" lon="6.10979">
        <ele>2716</ele>
        <time>2024-07-08T12:22:11Z</time>
      </trkpt>
      <trkpt lat="45.12858" lon="6.10979">
        <ele>2716.1</ele>
        <time>2024-07-08T12:22:12Z</time>
      </trkpt>
      <trkpt lat="45.12857" lon="6.10979">
        <ele>2716.2</ele>
        <time>2024-07-08T12:22:13Z</time>
      </trkpt>
      <trkpt lat="45.12857" lon="6.10978">
        <ele>2716.3</ele>
        <time>2024-07-08T12:22:14Z</time>
      </trkpt>
      <trkpt lat="45.12857" lon="6.10977">
        <ele>2716.4</ele>
        <time>2024-07-08T12:22:15Z</time>
      </trkpt>
      <trkpt lat="45.12858" lon="6.10977">
        <ele>2716.5</ele>
        <time>2024-07-08T12:22:16Z</time>
      </trkpt>
      <trkpt lat="45.12858" lon="6.10977">
        <ele>2716.5</ele>
        <time>2024-07-08T12:22:17Z</time>
      </trkpt>
      <trkpt lat="45.12857" lon="6.10977">
        <ele>2716.5</ele>
        <time>2024-07-08T12:22:18Z</time>
      </trkpt>
      <trkpt lat="45.12857" lon="6.10977">
        <ele>2716.6</ele>
        <time>2024-07-08T12:22:19Z</time>
      </trkpt>
      <trkpt lat="45.12856" lon="6.10977">
        <ele>2716.7</ele>
        <time>2024-07-08T12:22:20Z</time>
      </trkpt>
      <trkpt lat="45.12855" lon="6.10977">
        <ele>2716.9</ele>
        <time>2024-07-08T12:22:21Z</time>
      </trkpt>
      <trkpt lat="45.12854" lon="6.10977">
        <ele>2717.1</ele>
        <time>2024-07-08T12:22:22Z</time>
      </trkpt>
      <trkpt lat="45.12853" lon="6.10977">
        <ele>2717.3</ele>
        <time>2024-07-08T12:22:23Z</time>
      </trkpt>
      <trkpt lat="45.12852" lon="6.10977">
        <ele>2717.4</ele>
        <time>2024-07-08T12:22:24Z</time>
      </trkpt>
      <trkpt lat="45.12851" lon="6.10978">
        <ele>2717.5</ele>
        <time>2024-07-08T12:22:25Z</time>
      </trkpt>
      <trkpt lat="45.1285" lon="6.10978">
        <ele>2717.7</ele>
        <time>2024-07-08T12:22:26Z</time>
      </trkpt>
      <trkpt lat="45.1285" lon="6.10979">
        <ele>2717.8</ele>
        <time>2024-07-08T12:22:27Z</time>
      </trkpt>
      <trkpt lat="45.12849" lon="6.1098">
        <ele>2717.9</ele>
        <time>2024-07-08T12:22:28Z</time>
      </trkpt>
      <trkpt lat="45.12849" lon="6.10981">
        <ele>2718</ele>
        <time>2024-07-08T12:22:29Z</time>
      </trkpt>
      <trkpt lat="45.12848" lon="6.10982">
        <ele>2718.1</ele>
        <time>2024-07-08T12:22:30Z</time>
      </trkpt>
      <trkpt lat="45.12847" lon="6.10982">
        <ele>2718.3</ele>
        <time>2024-07-08T12:22:31Z</time>
      </trkpt>
      <trkpt lat="45.12846" lon="6.10983">
        <ele>2718.4</ele>
        <time>2024-07-08T12:22:32Z</time>
      </trkpt>
      <trkpt lat="45.12845" lon="6.10984">
        <ele>2718.6</ele>
        <time>2024-07-08T12:22:33Z</time>
      </trkpt>
      <trkpt lat="45.12845" lon="6.10985">
        <ele>2718.7</ele>
        <time>2024-07-08T12:22:34Z</time>
      </trkpt>
      <trkpt lat="45.12844" lon="6.10985">
        <ele>2718.8</ele>
        <time>2024-07-08T12:22:35Z</time>
      </trkpt>
      <trkpt lat="45.12843" lon="6.10986">
        <ele>2719</ele>
        <time>2024-07-08T12:22:36Z</time>
      </trkpt>
      <trkpt lat="45.12842" lon="6.10987">
        <ele>2719.1</ele>
        <time>2024-07-08T12:22:37Z</time>
      </trkpt>
      <trkpt lat="45.12842" lon="6.10987">
        <ele>2719.2</ele>
        <time>2024-07-08T12:22:38Z</time>
      </trkpt>
      <trkpt lat="45.12841" lon="6.10988">
        <ele>2719.3</ele>
        <time>2024-07-08T12:22:39Z</time>
      </trkpt>
      <trkpt lat="45.1284" lon="6.10988">
        <ele>2719.3</ele>
        <time>2024-07-08T12:22:40Z</time>
      </trkpt>
      <trkpt lat="45.1284" lon="6.10989">
        <ele>2719.4</ele>
        <time>2024-07-08T12:22:41Z</time>
      </trkpt>
      <trkpt lat="45.12839" lon="6.1099">
        <ele>2719.5</ele>
        <time>2024-07-08T12:22:42Z</time>
      </trkpt>
      <trkpt lat="45.12838" lon="6.1099">
        <ele>2719.6</ele>
        <time>2024-07-08T12:22:43Z</time>
      </trkpt>
      <trkpt lat="45.12838" lon="6.10991">
        <ele>2719.7</ele>
        <time>2024-07-08T12:22:44Z</time>
      </trkpt>
      <trkpt lat="45.12837" lon="6.10992">
        <ele>2719.8</ele>
        <time>2024-07-08T12:22:45Z</time>
      </trkpt>
      <trkpt lat="45.12836" lon="6.10993">
        <ele>2719.9</ele>
        <time>2024-07-08T12:22:46Z</time>
      </trkpt>
      <trkpt lat="45.12836" lon="6.10993">
        <ele>2720</ele>
        <time>2024-07-08T12:22:47Z</time>
      </trkpt>
      <trkpt lat="45.12835" lon="6.10994">
        <ele>2720.1</ele>
        <time>2024-07-08T12:22:48Z</time>
      </trkpt>
      <trkpt lat="45.12835" lon="6.10995">
        <ele>2720.2</ele>
        <time>2024-07-08T12:22:49Z</time>
      </trkpt>
      <trkpt lat="45.12834" lon="6.10996">
        <ele>2720.3</ele>
        <time>2024-07-08T12:22:50Z</time>
      </trkpt>
      <trkpt lat="45.12833" lon="6.10996">
        <ele>2720.4</ele>
        <time>2024-07-08T12:22:51Z</time>
      </trkpt>
      <trkpt lat="45.12833" lon="6.10996">
        <ele>2720.4</ele>
        <time>2024-07-08T12:22:52Z</time>
      </trkpt>
      <trkpt lat="45.12832" lon="6.10996">
        <ele>2720.5</ele>
        <time>2024-07-08T12:22:53Z</time>
      </trkpt>
      <trkpt lat="45.1283" lon="6.10996">
        <ele>2720.6</ele>
        <time>2024-07-08T12:22:54Z</time>
      </trkpt>
      <trkpt lat="45.1283" lon="6.10997">
        <ele>2720.7</ele>
        <time>2024-07-08T12:22:55Z</time>
      </trkpt>
      <trkpt lat="45.12829" lon="6.10997">
        <ele>2720.7</ele>
        <time>2024-07-08T12:22:56Z</time>
      </trkpt>
      <trkpt lat="45.12828" lon="6.10998">
        <ele>2720.8</ele>
        <time>2024-07-08T12:22:57Z</time>
      </trkpt>
      <trkpt lat="45.12828" lon="6.10998">
        <ele>2720.9</ele>
        <time>2024-07-08T12:22:58Z</time>
      </trkpt>
      <trkpt lat="45.12827" lon="6.10999">
        <ele>2721</ele>
        <time>2024-07-08T12:22:59Z</time>
      </trkpt>
      <trkpt lat="45.12826" lon="6.10998">
        <ele>2721</ele>
        <time>2024-07-08T12:23:00Z</time>
      </trkpt>
      <trkpt lat="45.12826" lon="6.10998">
        <ele>2721.1</ele>
        <time>2024-07-08T12:23:01Z</time>
      </trkpt>
      <trkpt lat="45.12825" lon="6.10999">
        <ele>2721.1</ele>
        <time>2024-07-08T12:23:02Z</time>
      </trkpt>
      <trkpt lat="45.12824" lon="6.10999">
        <ele>2721.2</ele>
        <time>2024-07-08T12:23:03Z</time>
      </trkpt>
      <trkpt lat="45.12823" lon="6.10999">
        <ele>2721.2</ele>
        <time>2024-07-08T12:23:04Z</time>
      </trkpt>
      <trkpt lat="45.12822" lon="6.11">
        <ele>2721.3</ele>
        <time>2024-07-08T12:23:05Z</time>
      </trkpt>
      <trkpt lat="45.12822" lon="6.11001">
        <ele>2721.3</ele>
        <time>2024-07-08T12:23:06Z</time>
      </trkpt>
      <trkpt lat="45.12821" lon="6.11001">
        <ele>2721.4</ele>
        <time>2024-07-08T12:23:07Z</time>
      </trkpt>
      <trkpt lat="45.12821" lon="6.11001">
        <ele>2721.4</ele>
        <time>2024-07-08T12:23:08Z</time>
      </trkpt>
      <trkpt lat="45.1282" lon="6.11002">
        <ele>2721.4</ele>
        <time>2024-07-08T12:23:09Z</time>
      </trkpt>
      <trkpt lat="45.1282" lon="6.11002">
        <ele>2721.4</ele>
        <time>2024-07-08T12:23:10Z</time>
      </trkpt>
      <trkpt lat="45.12819" lon="6.11002">
        <ele>2721.5</ele>
        <time>2024-07-08T12:23:11Z</time>
      </trkpt>
      <trkpt lat="45.12818" lon="6.11002">
        <ele>2721.5</ele>
        <time>2024-07-08T12:23:12Z</time>
      </trkpt>
      <trkpt lat="45.12817" lon="6.11002">
        <ele>2721.5</ele>
        <time>2024-07-08T12:23:13Z</time>
      </trkpt>
      <trkpt lat="45.12817" lon="6.11002">
        <ele>2721.6</ele>
        <time>2024-07-08T12:23:14Z</time>
      </trkpt>
      <trkpt lat="45.12816" lon="6.11002">
        <ele>2721.6</ele>
        <time>2024-07-08T12:23:15Z</time>
      </trkpt>
      <trkpt lat="45.12816" lon="6.11003">
        <ele>2721.6</ele>
        <time>2024-07-08T12:23:16Z</time>
      </trkpt>
      <trkpt lat="45.12815" lon="6.11003">
        <ele>2721.7</ele>
        <time>2024-07-08T12:23:17Z</time>
      </trkpt>
      <trkpt lat="45.12814" lon="6.11003">
        <ele>2721.7</ele>
        <time>2024-07-08T12:23:18Z</time>
      </trkpt>
      <trkpt lat="45.12812" lon="6.11003">
        <ele>2721.7</ele>
        <time>2024-07-08T12:23:19Z</time>
      </trkpt>
      <trkpt lat="45.12812" lon="6.11003">
        <ele>2721.7</ele>
        <time>2024-07-08T12:23:20Z</time>
      </trkpt>
      <trkpt lat="45.12811" lon="6.11003">
        <ele>2721.8</ele>
        <time>2024-07-08T12:23:21Z</time>
      </trkpt>
      <trkpt lat="45.1281" lon="6.11003">
        <ele>2721.8</ele>
        <time>2024-07-08T12:23:22Z</time>
      </trkpt>
      <trkpt lat="45.12809" lon="6.11003">
        <ele>2721.8</ele>
        <time>2024-07-08T12:23:23Z</time>
      </trkpt>
      <trkpt lat="45.12808" lon="6.11003">
        <ele>2721.8</ele>
        <time>2024-07-08T12:23:24Z</time>
      </trkpt>
      <trkpt lat="45.12807" lon="6.11003">
        <ele>2721.9</ele>
        <time>2024-07-08T12:23:25Z</time>
      </trkpt>
      <trkpt lat="45.12806" lon="6.11003">
        <ele>2721.9</ele>
        <time>2024-07-08T12:23:26Z</time>
      </trkpt>
      <trkpt lat="45.12805" lon="6.11003">
        <ele>2721.9</ele>
        <time>2024-07-08T12:23:27Z</time>
      </trkpt>
      <trkpt lat="45.12804" lon="6.11002">
        <ele>2721.9</ele>
        <time>2024-07-08T12:23:28Z</time>
      </trkpt>
      <trkpt lat="45.12802" lon="6.11002">
        <ele>2722</ele>
        <time>2024-07-08T12:23:29Z</time>
      </trkpt>
      <trkpt lat="45.12801" lon="6.11001">
        <ele>2722</ele>
        <time>2024-07-08T12:23:30Z</time>
      </trkpt>
      <trkpt lat="45.128" lon="6.11001">
        <ele>2722</ele>
        <time>2024-07-08T12:23:31Z</time>
      </trkpt>
      <trkpt lat="45.12799" lon="6.11002">
        <ele>2722.1</ele>
        <time>2024-07-08T12:23:32Z</time>
      </trkpt>
      <trkpt lat="45.12799" lon="6.11002">
        <ele>2722.1</ele>
        <time>2024-07-08T12:23:33Z</time>
      </trkpt>
      <trkpt lat="45.12798" lon="6.11001">
        <ele>2722.1</ele>
        <time>2024-07-08T12:23:34Z</time>
      </trkpt>
      <trkpt lat="45.12796" lon="6.11">
        <ele>2722.1</ele>
        <time>2024-07-08T12:23:35Z</time>
      </trkpt>
      <trkpt lat="45.12795" lon="6.11">
        <ele>2722.2</ele>
        <time>2024-07-08T12:23:36Z</time>
      </trkpt>
      <trkpt lat="45.12795" lon="6.10999">
        <ele>2722.2</ele>
        <time>2024-07-08T12:23:37Z</time>
      </trkpt>
      <trkpt lat="45.12794" lon="6.10999">
        <ele>2722.2</ele>
        <time>2024-07-08T12:23:38Z</time>
      </trkpt>
      <trkpt lat="45.12793" lon="6.10998">
        <ele>2722.3</ele>
        <time>2024-07-08T12:23:39Z</time>
      </trkpt>
      <trkpt lat="45.12792" lon="6.10998">
        <ele>2722.3</ele>
        <time>2024-07-08T12:23:40Z</time>
      </trkpt>
      <trkpt lat="45.12791" lon="6.10997">
        <ele>2722.3</ele>
        <time>2024-07-08T12:23:41Z</time>
      </trkpt>
      <trkpt lat="45.12791" lon="6.10997">
        <ele>2722.3</ele>
        <time>2024-07-08T12:23:42Z</time>
      </trkpt>
      <trkpt lat="45.12789" lon="6.10997">
        <ele>2722.4</ele>
        <time>2024-07-08T12:23:43Z</time>
      </trkpt>
      <trkpt lat="45.12788" lon="6.10997">
        <ele>2722.4</ele>
        <time>2024-07-08T12:23:44Z</time>
      </trkpt>
      <trkpt lat="45.12788" lon="6.10997">
        <ele>2722.4</ele>
        <time>2024-07-08T12:23:45Z</time>
      </trkpt>
      <trkpt lat="45.12787" lon="6.10998">
        <ele>2722.5</ele>
        <time>2024-07-08T12:23:46Z</time>
      </trkpt>
      <trkpt lat="45.12786" lon="6.10998">
        <ele>2722.5</ele>
        <time>2024-07-08T12:23:47Z</time>
      </trkpt>
      <trkpt lat="45.12785" lon="6.10999">
        <ele>2722.5</ele>
        <time>2024-07-08T12:23:48Z</time>
      </trkpt>
      <trkpt lat="45.12783" lon="6.10999">
        <ele>2722.6</ele>
        <time>2024-07-08T12:23:49Z</time>
      </trkpt>
      <trkpt lat="45.12783" lon="6.10999">
        <ele>2722.6</ele>
        <time>2024-07-08T12:23:50Z</time>
      </trkpt>
      <trkpt lat="45.12782" lon="6.11">
        <ele>2722.6</ele>
        <time>2024-07-08T12:23:51Z</time>
      </trkpt>
      <trkpt lat="45.12781" lon="6.11">
        <ele>2722.7</ele>
        <time>2024-07-08T12:23:52Z</time>
      </trkpt>
      <trkpt lat="45.1278" lon="6.11">
        <ele>2722.7</ele>
        <time>2024-07-08T12:23:53Z</time>
      </trkpt>
      <trkpt lat="45.12779" lon="6.11001">
        <ele>2722.7</ele>
        <time>2024-07-08T12:23:54Z</time>
      </trkpt>
      <trkpt lat="45.12779" lon="6.11001">
        <ele>2722.7</ele>
        <time>2024-07-08T12:23:55Z</time>
      </trkpt>
      <trkpt lat="45.12778" lon="6.11002">
        <ele>2722.8</ele>
        <time>2024-07-08T12:23:56Z</time>
      </trkpt>
      <trkpt lat="45.12777" lon="6.11002">
        <ele>2722.8</ele>
        <time>2024-07-08T12:23:57Z</time>
      </trkpt>
      <trkpt lat="45.12776" lon="6.11001">
        <ele>2722.8</ele>
        <time>2024-07-08T12:23:58Z</time>
      </trkpt>
      <trkpt lat="45.12775" lon="6.11">
        <ele>2722.8</ele>
        <time>2024-07-08T12:23:59Z</time>
      </trkpt>
      <trkpt lat="45.12774" lon="6.11">
        <ele>2722.9</ele>
        <time>2024-07-08T12:24:00Z</time>
      </trkpt>
      <trkpt lat="45.12773" lon="6.11">
        <ele>2722.9</ele>
        <time>2024-07-08T12:24:01Z</time>
      </trkpt>
      <trkpt lat="45.12771" lon="6.11">
        <ele>2722.9</ele>
        <time>2024-07-08T12:24:02Z</time>
      </trkpt>
      <trkpt lat="45.1277" lon="6.11">
        <ele>2722.9</ele>
        <time>2024-07-08T12:24:03Z</time>
      </trkpt>
      <trkpt lat="45.12769" lon="6.11">
        <ele>2723</ele>
        <time>2024-07-08T12:24:04Z</time>
      </trkpt>
      <trkpt lat="45.12769" lon="6.11">
        <ele>2723</ele>
        <time>2024-07-08T12:24:05Z</time>
      </trkpt>
      <trkpt lat="45.12768" lon="6.11">
        <ele>2723</ele>
        <time>2024-07-08T12:24:06Z</time>
      </trkpt>
      <trkpt lat="45.12767" lon="6.11">
        <ele>2723</ele>
        <time>2024-07-08T12:24:07Z</time>
      </trkpt>
      <trkpt lat="45.12766" lon="6.11">
        <ele>2723</ele>
        <time>2024-07-08T12:24:08Z</time>
      </trkpt>
      <trkpt lat="45.12764" lon="6.11">
        <ele>2723.1</ele>
        <time>2024-07-08T12:24:09Z</time>
      </trkpt>
      <trkpt lat="45.12764" lon="6.11">
        <ele>2723.1</ele>
        <time>2024-07-08T12:24:10Z</time>
      </trkpt>
      <trkpt lat="45.12763" lon="6.11">
        <ele>2723.1</ele>
        <time>2024-07-08T12:24:11Z</time>
      </trkpt>
      <trkpt lat="45.12762" lon="6.11001">
        <ele>2723.1</ele>
        <time>2024-07-08T12:24:12Z</time>
      </trkpt>
      <trkpt lat="45.12761" lon="6.11001">
        <ele>2723.1</ele>
        <time>2024-07-08T12:24:13Z</time>
      </trkpt>
      <trkpt lat="45.1276" lon="6.11002">
        <ele>2723</ele>
        <time>2024-07-08T12:24:14Z</time>
      </trkpt>
      <trkpt lat="45.1276" lon="6.11003">
        <ele>2722.9</ele>
        <time>2024-07-08T12:24:15Z</time>
      </trkpt>
      <trkpt lat="45.1276" lon="6.11003">
        <ele>2722.9</ele>
        <time>2024-07-08T12:24:16Z</time>
      </trkpt>
      <trkpt lat="45.1276" lon="6.11003">
        <ele>2722.9</ele>
        <time>2024-07-08T12:24:17Z</time>
      </trkpt>
      <trkpt lat="45.1276" lon="6.11003">
        <ele>2722.9</ele>
        <time>2024-07-08T12:24:18Z</time>
      </trkpt>
      <trkpt lat="45.1276" lon="6.11003">
        <ele>2722.8</ele>
        <time>2024-07-08T12:24:19Z</time>
      </trkpt>
      <trkpt lat="45.1276" lon="6.11003">
        <ele>2722.8</ele>
        <time>2024-07-08T12:24:20Z</time>
      </trkpt>
      <trkpt lat="45.1276" lon="6.11003">
        <ele>2722.8</ele>
        <time>2024-07-08T12:24:21Z</time>
      </trkpt>
      <trkpt lat="45.1276" lon="6.11003">
        <ele>2722.8</ele>
        <time>2024-07-08T12:24:22Z</time>
      </trkpt>
      <trkpt lat="45.1276" lon="6.11003">
        <ele>2722.8</ele>
        <time>2024-07-08T12:24:23Z</time>
      </trkpt>
      <trkpt lat="45.12759" lon="6.11003">
        <ele>2722.8</ele>
        <time>2024-07-08T12:24:24Z</time>
      </trkpt>
      <trkpt lat="45.1276" lon="6.11003">
        <ele>2722.8</ele>
        <time>2024-07-08T12:24:25Z</time>
      </trkpt>
      <trkpt lat="45.1276" lon="6.11003">
        <ele>2722.7</ele>
        <time>2024-07-08T12:24:26Z</time>
      </trkpt>
      <trkpt lat="45.1276" lon="6.11003">
        <ele>2722.7</ele>
        <time>2024-07-08T12:24:27Z</time>
      </trkpt>
      <trkpt lat="45.1276" lon="6.11003">
        <ele>2722.7</ele>
        <time>2024-07-08T12:24:28Z</time>
      </trkpt>
      <trkpt lat="45.1276" lon="6.11003">
        <ele>2722.7</ele>
        <time>2024-07-08T12:24:29Z</time>
      </trkpt>
      <trkpt lat="45.1276" lon="6.11003">
        <ele>2722.7</ele>
        <time>2024-07-08T12:24:30Z</time>
      </trkpt>
      <trkpt lat="45.1276" lon="6.11003">
        <ele>2722.7</ele>
        <time>2024-07-08T12:24:31Z</time>
      </trkpt>
      <trkpt lat="45.1276" lon="6.11002">
        <ele>2722.7</ele>
        <time>2024-07-08T12:24:32Z</time>
      </trkpt>
      <trkpt lat="45.1276" lon="6.11002">
        <ele>2722.7</ele>
        <time>2024-07-08T12:24:33Z</time>
      </trkpt>
      <trkpt lat="45.1276" lon="6.11002">
        <ele>2722.7</ele>
        <time>2024-07-08T12:24:34Z</time>
      </trkpt>
      <trkpt lat="45.1276" lon="6.11002">
        <ele>2722.7</ele>
        <time>2024-07-08T12:24:35Z</time>
      </trkpt>
      <trkpt lat="45.1276" lon="6.11002">
        <ele>2722.6</ele>
        <time>2024-07-08T12:24:36Z</time>
      </trkpt>
      <trkpt lat="45.1276" lon="6.11001">
        <ele>2722.5</ele>
        <time>2024-07-08T12:24:37Z</time>
      </trkpt>
      <trkpt lat="45.1276" lon="6.11002">
        <ele>2722.5</ele>
        <time>2024-07-08T12:24:38Z</time>
      </trkpt>
      <trkpt lat="45.1276" lon="6.11002">
        <ele>2722.5</ele>
        <time>2024-07-08T12:24:39Z</time>
      </trkpt>
      <trkpt lat="45.1276" lon="6.11001">
        <ele>2722.5</ele>
        <time>2024-07-08T12:24:40Z</time>
      </trkpt>
      <trkpt lat="45.12759" lon="6.11001">
        <ele>2722.4</ele>
        <time>2024-07-08T12:24:41Z</time>
      </trkpt>
      <trkpt lat="45.12759" lon="6.11001">
        <ele>2722.4</ele>
        <time>2024-07-08T12:24:42Z</time>
      </trkpt>
      <trkpt lat="45.12759" lon="6.11001">
        <ele>2722.4</ele>
        <time>2024-07-08T12:24:43Z</time>
      </trkpt>
      <trkpt lat="45.12759" lon="6.11001">
        <ele>2722.4</ele>
        <time>2024-07-08T12:24:44Z</time>
      </trkpt>
      <trkpt lat="45.12759" lon="6.11001">
        <ele>2722.4</ele>
        <time>2024-07-08T12:24:45Z</time>
      </trkpt>
      <trkpt lat="45.12759" lon="6.11001">
        <ele>2722.4</ele>
        <time>2024-07-08T12:24:46Z</time>
      </trkpt>
      <trkpt lat="45.12759" lon="6.11001">
        <ele>2722.4</ele>
        <time>2024-07-08T12:24:47Z</time>
      </trkpt>
      <trkpt lat="45.12759" lon="6.11001">
        <ele>2722.4</ele>
        <time>2024-07-08T12:24:48Z</time>
      </trkpt>
      <trkpt lat="45.12759" lon="6.11001">
        <ele>2722.4</ele>
        <time>2024-07-08T12:24:49Z</time>
      </trkpt>
      <trkpt lat="45.12759" lon="6.11">
        <ele>2722.4</ele>
        <time>2024-07-08T12:24:50Z</time>
      </trkpt>
      <trkpt lat="45.12759" lon="6.11">
        <ele>2722.4</ele>
        <time>2024-07-08T12:24:51Z</time>
      </trkpt>
      <trkpt lat="45.12759" lon="6.11001">
        <ele>2722.3</ele>
        <time>2024-07-08T12:24:52Z</time>
      </trkpt>
      <trkpt lat="45.12759" lon="6.11001">
        <ele>2722.3</ele>
        <time>2024-07-08T12:24:53Z</time>
      </trkpt>
      <trkpt lat="45.12759" lon="6.11001">
        <ele>2722.3</ele>
        <time>2024-07-08T12:24:54Z</time>
      </trkpt>
      <trkpt lat="45.12759" lon="6.11001">
        <ele>2722.3</ele>
        <time>2024-07-08T12:24:55Z</time>
      </trkpt>
      <trkpt lat="45.12759" lon="6.11001">
        <ele>2722.3</ele>
        <time>2024-07-08T12:24:56Z</time>
      </trkpt>
      <trkpt lat="45.12759" lon="6.11001">
        <ele>2722.3</ele>
        <time>2024-07-08T12:24:57Z</time>
      </trkpt>
      <trkpt lat="45.12759" lon="6.11001">
        <ele>2722.3</ele>
        <time>2024-07-08T12:24:58Z</time>
      </trkpt>
      <trkpt lat="45.12759" lon="6.11001">
        <ele>2722.3</ele>
        <time>2024-07-08T12:24:59Z</time>
      </trkpt>
      <trkpt lat="45.12759" lon="6.11001">
        <ele>2722.3</ele>
        <time>2024-07-08T12:25:00Z</time>
      </trkpt>
      <trkpt lat="45.12759" lon="6.11001">
        <ele>2722.3</ele>
        <time>2024-07-08T12:25:01Z</time>
      </trkpt>
      <trkpt lat="45.12759" lon="6.11001">
        <ele>2722.3</ele>
        <time>2024-07-08T12:25:02Z</time>
      </trkpt>
      <trkpt lat="45.12759" lon="6.11001">
        <ele>2722.3</ele>
        <time>2024-07-08T12:25:03Z</time>
      </trkpt>
      <trkpt lat="45.1276" lon="6.11001">
        <ele>2722.2</ele>
        <time>2024-07-08T12:25:04Z</time>
      </trkpt>
      <trkpt lat="45.1276" lon="6.11001">
        <ele>2722.2</ele>
        <time>2024-07-08T12:25:05Z</time>
      </trkpt>
      <trkpt lat="45.1276" lon="6.11001">
        <ele>2722.2</ele>
        <time>2024-07-08T12:25:06Z</time>
      </trkpt>
      <trkpt lat="45.1276" lon="6.11001">
        <ele>2722.2</ele>
        <time>2024-07-08T12:25:07Z</time>
      </trkpt>
      <trkpt lat="45.1276" lon="6.11001">
        <ele>2722.2</ele>
        <time>2024-07-08T12:25:08Z</time>
      </trkpt>
      <trkpt lat="45.1276" lon="6.11001">
        <ele>2722.2</ele>
        <time>2024-07-08T12:25:09Z</time>
      </trkpt>
      <trkpt lat="45.1276" lon="6.11001">
        <ele>2722.2</ele>
        <time>2024-07-08T12:25:10Z</time>
      </trkpt>
      <trkpt lat="45.1276" lon="6.11001">
        <ele>2722.2</ele>
        <time>2024-07-08T12:25:11Z</time>
      </trkpt>
      <trkpt lat="45.1276" lon="6.11001">
        <ele>2722.2</ele>
        <time>2024-07-08T12:25:12Z</time>
      </trkpt>
      <trkpt lat="45.1276" lon="6.11">
        <ele>2722.2</ele>
        <time>2024-07-08T12:25:13Z</time>
      </trkpt>
      <trkpt lat="45.1276" lon="6.11">
        <ele>2722.2</ele>
        <time>2024-07-08T12:25:14Z</time>
      </trkpt>
      <trkpt lat="45.1276" lon="6.11">
        <ele>2722.2</ele>
        <time>2024-07-08T12:25:15Z</time>
      </trkpt>
      <trkpt lat="45.1276" lon="6.11">
        <ele>2722.2</ele>
        <time>2024-07-08T12:25:16Z</time>
      </trkpt>
      <trkpt lat="45.1276" lon="6.11">
        <ele>2722.2</ele>
        <time>2024-07-08T12:25:17Z</time>
      </trkpt>
      <trkpt lat="45.1276" lon="6.11001">
        <ele>2722.2</ele>
        <time>2024-07-08T12:25:18Z</time>
      </trkpt>
      <trkpt lat="45.1276" lon="6.11001">
        <ele>2722.2</ele>
        <time>2024-07-08T12:25:19Z</time>
      </trkpt>
      <trkpt lat="45.1276" lon="6.11001">
        <ele>2722.2</ele>
        <time>2024-07-08T12:25:20Z</time>
      </trkpt>
      <trkpt lat="45.1276" lon="6.11001">
        <ele>2722.2</ele>
        <time>2024-07-08T12:25:21Z</time>
      </trkpt>
      <trkpt lat="45.1276" lon="6.11001">
        <ele>2722.2</ele>
        <time>2024-07-08T12:25:22Z</time>
      </trkpt>
      <trkpt lat="45.1276" lon="6.11001">
        <ele>2722.2</ele>
        <time>2024-07-08T12:25:23Z</time>
      </trkpt>
      <trkpt lat="45.1276" lon="6.11001">
        <ele>2722.1</ele>
        <time>2024-07-08T12:25:24Z</time>
      </trkpt>
      <trkpt lat="45.1276" lon="6.11001">
        <ele>2722.1</ele>
        <time>2024-07-08T12:25:25Z</time>
      </trkpt>
      <trkpt lat="45.1276" lon="6.11001">
        <ele>2722.1</ele>
        <time>2024-07-08T12:25:26Z</time>
      </trkpt>
      <trkpt lat="45.1276" lon="6.11001">
        <ele>2722.1</ele>
        <time>2024-07-08T12:25:27Z</time>
      </trkpt>
      <trkpt lat="45.1276" lon="6.11001">
        <ele>2722.1</ele>
        <time>2024-07-08T12:25:28Z</time>
      </trkpt>
      <trkpt lat="45.1276" lon="6.11001">
        <ele>2722.1</ele>
        <time>2024-07-08T12:25:29Z</time>
      </trkpt>
      <trkpt lat="45.1276" lon="6.11001">
        <ele>2722.1</ele>
        <time>2024-07-08T12:25:30Z</time>
      </trkpt>
      <trkpt lat="45.1276" lon="6.11001">
        <ele>2722.1</ele>
        <time>2024-07-08T12:25:31Z</time>
      </trkpt>
      <trkpt lat="45.1276" lon="6.11001">
        <ele>2722.1</ele>
        <time>2024-07-08T12:25:32Z</time>
      </trkpt>
      <trkpt lat="45.1276" lon="6.11001">
        <ele>2722.1</ele>
        <time>2024-07-08T12:25:33Z</time>
      </trkpt>
      <trkpt lat="45.1276" lon="6.11001">
        <ele>2722.1</ele>
        <time>2024-07-08T12:25:34Z</time>
      </trkpt>
      <trkpt lat="45.1276" lon="6.11001">
        <ele>2722.1</ele>
        <time>2024-07-08T12:25:35Z</time>
      </trkpt>
      <trkpt lat="45.1276" lon="6.11001">
        <ele>2722.1</ele>
        <time>2024-07-08T12:25:36Z</time>
      </trkpt>
      <trkpt lat="45.1276" lon="6.11001">
        <ele>2722.1</ele>
        <time>2024-07-08T12:25:37Z</time>
      </trkpt>
      <trkpt lat="45.1276" lon="6.11001">
        <ele>2722.1</ele>
        <time>2024-07-08T12:25:38Z</time>
      </trkpt>
      <trkpt lat="45.1276" lon="6.11001">
        <ele>2722.1</ele>
        <time>2024-07-08T12:25:39Z</time>
      </trkpt>
      <trkpt lat="45.1276" lon="6.11001">
        <ele>2722.1</ele>
        <time>2024-07-08T12:25:40Z</time>
      </trkpt>
      <trkpt lat="45.1276" lon="6.11001">
        <ele>2722.1</ele>
        <time>2024-07-08T12:25:41Z</time>
      </trkpt>
      <trkpt lat="45.1276" lon="6.11001">
        <ele>2722.1</ele>
        <time>2024-07-08T12:25:42Z</time>
      </trkpt>
      <trkpt lat="45.1276" lon="6.11001">
        <ele>2722.1</ele>
        <time>2024-07-08T12:25:43Z</time>
      </trkpt>
      <trkpt lat="45.1276" lon="6.11001">
        <ele>2722.1</ele>
        <time>2024-07-08T12:25:44Z</time>
      </trkpt>
      <trkpt lat="45.1276" lon="6.11001">
        <ele>2722.1</ele>
        <time>2024-07-08T12:25:45Z</time>
      </trkpt>
      <trkpt lat="45.1276" lon="6.11001">
        <ele>2722.1</ele>
        <time>2024-07-08T12:25:46Z</time>
      </trkpt>
      <trkpt lat="45.1276" lon="6.11001">
        <ele>2722.1</ele>
        <time>2024-07-08T12:25:47Z</time>
      </trkpt>
      <trkpt lat="45.1276" lon="6.11001">
        <ele>2722.1</ele>
        <time>2024-07-08T12:25:48Z</time>
      </trkpt>
      <trkpt lat="45.1276" lon="6.11001">
        <ele>2722.1</ele>
        <time>2024-07-08T12:25:49Z</time>
      </trkpt>
      <trkpt lat="45.1276" lon="6.11001">
        <ele>2722.1</ele>
        <time>2024-07-08T12:25:50Z</time>
      </trkpt>
      <trkpt lat="45.1276" lon="6.11001">
        <ele>2722.1</ele>
        <time>2024-07-08T12:25:51Z</time>
      </trkpt>
      <trkpt lat="45.1276" lon="6.11001">
        <ele>2722.1</ele>
        <time>2024-07-08T12:25:52Z</time>
      </trkpt>
      <trkpt lat="45.1276" lon="6.11001">
        <ele>2722.1</ele>
        <time>2024-07-08T12:25:53Z</time>
      </trkpt>
      <trkpt lat="45.1276" lon="6.11001">
        <ele>2722.1</ele>
        <time>2024-07-08T12:25:54Z</time>
      </trkpt>
      <trkpt lat="45.1276" lon="6.11001">
        <ele>2722.1</ele>
        <time>2024-07-08T12:25:55Z</time>
      </trkpt>
      <trkpt lat="45.1276" lon="6.11001">
        <ele>2722.1</ele>
        <time>2024-07-08T12:25:56Z</time>
      </trkpt>
      <trkpt lat="45.1276" lon="6.11001">
        <ele>2722.1</ele>
        <time>2024-07-08T12:25:57Z</time>
      </trkpt>
      <trkpt lat="45.12759" lon="6.11001">
        <ele>2722.1</ele>
        <time>2024-07-08T12:25:58Z</time>
      </trkpt>
      <trkpt lat="45.12759" lon="6.11001">
        <ele>2722.1</ele>
        <time>2024-07-08T12:25:59Z</time>
      </trkpt>
      <trkpt lat="45.12759" lon="6.11001">
        <ele>2722.1</ele>
        <time>2024-07-08T12:26:00Z</time>
      </trkpt>
      <trkpt lat="45.12759" lon="6.11001">
        <ele>2722.1</ele>
        <time>2024-07-08T12:26:01Z</time>
      </trkpt>
      <trkpt lat="45.12759" lon="6.11001">
        <ele>2722.1</ele>
        <time>2024-07-08T12:26:02Z</time>
      </trkpt>
      <trkpt lat="45.12759" lon="6.11001">
        <ele>2722.1</ele>
        <time>2024-07-08T12:26:03Z</time>
      </trkpt>
      <trkpt lat="45.12759" lon="6.11001">
        <ele>2722.1</ele>
        <time>2024-07-08T12:26:05Z</time>
      </trkpt>
      <trkpt lat="45.12759" lon="6.11001">
        <ele>2722.1</ele>
        <time>2024-07-08T12:26:06Z</time>
      </trkpt>
      <trkpt lat="45.12759" lon="6.11001">
        <ele>2722.1</ele>
        <time>2024-07-08T12:26:07Z</time>
      </trkpt>
      <trkpt lat="45.12759" lon="6.11001">
        <ele>2722.1</ele>
        <time>2024-07-08T12:26:08Z</time>
      </trkpt>
      <trkpt lat="45.12759" lon="6.11001">
        <ele>2722.1</ele>
        <time>2024-07-08T12:26:09Z</time>
      </trkpt>
      <trkpt lat="45.1276" lon="6.11001">
        <ele>2722</ele>
        <time>2024-07-08T12:26:10Z</time>
      </trkpt>
      <trkpt lat="45.1276" lon="6.11002">
        <ele>2722</ele>
        <time>2024-07-08T12:26:11Z</time>
      </trkpt>
      <trkpt lat="45.1276" lon="6.11002">
        <ele>2722</ele>
        <time>2024-07-08T12:26:12Z</time>
      </trkpt>
      <trkpt lat="45.1276" lon="6.11002">
        <ele>2722</ele>
        <time>2024-07-08T12:26:13Z</time>
      </trkpt>
      <trkpt lat="45.12759" lon="6.11002">
        <ele>2722</ele>
        <time>2024-07-08T12:26:14Z</time>
      </trkpt>
      <trkpt lat="45.12759" lon="6.11002">
        <ele>2722</ele>
        <time>2024-07-08T12:26:15Z</time>
      </trkpt>
      <trkpt lat="45.12759" lon="6.11002">
        <ele>2721.9</ele>
        <time>2024-07-08T12:26:16Z</time>
      </trkpt>
      <trkpt lat="45.12758" lon="6.11002">
        <ele>2721.9</ele>
        <time>2024-07-08T12:26:17Z</time>
      </trkpt>
      <trkpt lat="45.12758" lon="6.11001">
        <ele>2721.8</ele>
        <time>2024-07-08T12:26:18Z</time>
      </trkpt>
      <trkpt lat="45.12758" lon="6.11001">
        <ele>2721.8</ele>
        <time>2024-07-08T12:26:19Z</time>
      </trkpt>
      <trkpt lat="45.12758" lon="6.11001">
        <ele>2721.8</ele>
        <time>2024-07-08T12:26:20Z</time>
      </trkpt>
      <trkpt lat="45.12758" lon="6.11001">
        <ele>2721.8</ele>
        <time>2024-07-08T12:26:21Z</time>
      </trkpt>
      <trkpt lat="45.12758" lon="6.11001">
        <ele>2721.8</ele>
        <time>2024-07-08T12:26:22Z</time>
      </trkpt>
      <trkpt lat="45.12758" lon="6.11001">
        <ele>2721.8</ele>
        <time>2024-07-08T12:26:23Z</time>
      </trkpt>
      <trkpt lat="45.12758" lon="6.11001">
        <ele>2721.8</ele>
        <time>2024-07-08T12:26:24Z</time>
      </trkpt>
      <trkpt lat="45.12758" lon="6.11001">
        <ele>2721.8</ele>
        <time>2024-07-08T12:26:25Z</time>
      </trkpt>
      <trkpt lat="45.12758" lon="6.11001">
        <ele>2721.8</ele>
        <time>2024-07-08T12:26:26Z</time>
      </trkpt>
      <trkpt lat="45.12758" lon="6.11001">
        <ele>2721.8</ele>
        <time>2024-07-08T12:26:27Z</time>
      </trkpt>
      <trkpt lat="45.12758" lon="6.11001">
        <ele>2721.8</ele>
        <time>2024-07-08T12:26:28Z</time>
      </trkpt>
      <trkpt lat="45.12758" lon="6.11001">
        <ele>2721.8</ele>
        <time>2024-07-08T12:26:29Z</time>
      </trkpt>
      <trkpt lat="45.12758" lon="6.11001">
        <ele>2721.8</ele>
        <time>2024-07-08T12:26:30Z</time>
      </trkpt>
      <trkpt lat="45.12758" lon="6.11001">
        <ele>2721.8</ele>
        <time>2024-07-08T12:26:31Z</time>
      </trkpt>
      <trkpt lat="45.12758" lon="6.11001">
        <ele>2721.8</ele>
        <time>2024-07-08T12:26:32Z</time>
      </trkpt>
      <trkpt lat="45.12758" lon="6.11001">
        <ele>2721.8</ele>
        <time>2024-07-08T12:26:33Z</time>
      </trkpt>
      <trkpt lat="45.12758" lon="6.11001">
        <ele>2721.8</ele>
        <time>2024-07-08T12:26:34Z</time>
      </trkpt>
      <trkpt lat="45.12758" lon="6.11001">
        <ele>2721.8</ele>
        <time>2024-07-08T12:26:35Z</time>
      </trkpt>
      <trkpt lat="45.12759" lon="6.11001">
        <ele>2721.8</ele>
        <time>2024-07-08T12:26:36Z</time>
      </trkpt>
      <trkpt lat="45.12759" lon="6.11001">
        <ele>2721.8</ele>
        <time>2024-07-08T12:26:37Z</time>
      </trkpt>
      <trkpt lat="45.12759" lon="6.11">
        <ele>2721.7</ele>
        <time>2024-07-08T12:26:38Z</time>
      </trkpt>
      <trkpt lat="45.12759" lon="6.11">
        <ele>2721.7</ele>
        <time>2024-07-08T12:26:39Z</time>
      </trkpt>
      <trkpt lat="45.12759" lon="6.11">
        <ele>2721.7</ele>
        <time>2024-07-08T12:26:40Z</time>
      </trkpt>
      <trkpt lat="45.12759" lon="6.11">
        <ele>2721.7</ele>
        <time>2024-07-08T12:26:41Z</time>
      </trkpt>
      <trkpt lat="45.12759" lon="6.11">
        <ele>2721.7</ele>
        <time>2024-07-08T12:26:43Z</time>
      </trkpt>
      <trkpt lat="45.12759" lon="6.11">
        <ele>2721.7</ele>
        <time>2024-07-08T12:26:44Z</time>
      </trkpt>
      <trkpt lat="45.12759" lon="6.11">
        <ele>2721.7</ele>
        <time>2024-07-08T12:26:45Z</time>
      </trkpt>
      <trkpt lat="45.12759" lon="6.11">
        <ele>2721.7</ele>
        <time>2024-07-08T12:26:46Z</time>
      </trkpt>
      <trkpt lat="45.12759" lon="6.11">
        <ele>2721.7</ele>
        <time>2024-07-08T12:26:47Z</time>
      </trkpt>
      <trkpt lat="45.12759" lon="6.11">
        <ele>2721.7</ele>
        <time>2024-07-08T12:26:48Z</time>
      </trkpt>
      <trkpt lat="45.12759" lon="6.11">
        <ele>2721.7</ele>
        <time>2024-07-08T12:26:49Z</time>
      </trkpt>
      <trkpt lat="45.12759" lon="6.11">
        <ele>2721.7</ele>
        <time>2024-07-08T12:26:50Z</time>
      </trkpt>
      <trkpt lat="45.12759" lon="6.11">
        <ele>2721.7</ele>
        <time>2024-07-08T12:26:51Z</time>
      </trkpt>
      <trkpt lat="45.12759" lon="6.11">
        <ele>2721.7</ele>
        <time>2024-07-08T12:26:52Z</time>
      </trkpt>
      <trkpt lat="45.12759" lon="6.11">
        <ele>2721.6</ele>
        <time>2024-07-08T12:26:53Z</time>
      </trkpt>
      <trkpt lat="45.12759" lon="6.11">
        <ele>2721.6</ele>
        <time>2024-07-08T12:26:54Z</time>
      </trkpt>
      <trkpt lat="45.12759" lon="6.11">
        <ele>2721.6</ele>
        <time>2024-07-08T12:26:55Z</time>
      </trkpt>
      <trkpt lat="45.12759" lon="6.11">
        <ele>2721.6</ele>
        <time>2024-07-08T12:26:56Z</time>
      </trkpt>
      <trkpt lat="45.12759" lon="6.11">
        <ele>2721.6</ele>
        <time>2024-07-08T12:26:57Z</time>
      </trkpt>
      <trkpt lat="45.12759" lon="6.11">
        <ele>2721.6</ele>
        <time>2024-07-08T12:26:58Z</time>
      </trkpt>
      <trkpt lat="45.12759" lon="6.11">
        <ele>2721.6</ele>
        <time>2024-07-08T12:26:59Z</time>
      </trkpt>
      <trkpt lat="45.12759" lon="6.11">
        <ele>2721.6</ele>
        <time>2024-07-08T12:27:00Z</time>
      </trkpt>
      <trkpt lat="45.12759" lon="6.11">
        <ele>2721.6</ele>
        <time>2024-07-08T12:27:01Z</time>
      </trkpt>
      <trkpt lat="45.12759" lon="6.11">
        <ele>2721.6</ele>
        <time>2024-07-08T12:27:02Z</time>
      </trkpt>
      <trkpt lat="45.12759" lon="6.11">
        <ele>2721.6</ele>
        <time>2024-07-08T12:27:03Z</time>
      </trkpt>
      <trkpt lat="45.12759" lon="6.11">
        <ele>2721.6</ele>
        <time>2024-07-08T12:27:04Z</time>
      </trkpt>
      <trkpt lat="45.12759" lon="6.11">
        <ele>2721.6</ele>
        <time>2024-07-08T12:27:05Z</time>
      </trkpt>
      <trkpt lat="45.12759" lon="6.11">
        <ele>2721.6</ele>
        <time>2024-07-08T12:27:06Z</time>
      </trkpt>
      <trkpt lat="45.12759" lon="6.11">
        <ele>2721.5</ele>
        <time>2024-07-08T12:27:07Z</time>
      </trkpt>
      <trkpt lat="45.12758" lon="6.10999">
        <ele>2721.5</ele>
        <time>2024-07-08T12:27:08Z</time>
      </trkpt>
      <trkpt lat="45.12758" lon="6.10999">
        <ele>2721.5</ele>
        <time>2024-07-08T12:27:09Z</time>
      </trkpt>
      <trkpt lat="45.12758" lon="6.11">
        <ele>2721.4</ele>
        <time>2024-07-08T12:27:10Z</time>
      </trkpt>
      <trkpt lat="45.12758" lon="6.11">
        <ele>2721.4</ele>
        <time>2024-07-08T12:27:11Z</time>
      </trkpt>
      <trkpt lat="45.12757" lon="6.11">
        <ele>2721.3</ele>
        <time>2024-07-08T12:27:12Z</time>
      </trkpt>
      <trkpt lat="45.12756" lon="6.10999">
        <ele>2721.2</ele>
        <time>2024-07-08T12:27:13Z</time>
      </trkpt>
      <trkpt lat="45.12756" lon="6.10999">
        <ele>2721.2</ele>
        <time>2024-07-08T12:27:14Z</time>
      </trkpt>
      <trkpt lat="45.12756" lon="6.10999">
        <ele>2721.2</ele>
        <time>2024-07-08T12:27:15Z</time>
      </trkpt>
      <trkpt lat="45.12756" lon="6.11">
        <ele>2721.2</ele>
        <time>2024-07-08T12:27:16Z</time>
      </trkpt>
      <trkpt lat="45.12756" lon="6.11">
        <ele>2721.1</ele>
        <time>2024-07-08T12:27:17Z</time>
      </trkpt>
      <trkpt lat="45.12756" lon="6.11">
        <ele>2721.1</ele>
        <time>2024-07-08T12:27:18Z</time>
      </trkpt>
      <trkpt lat="45.12756" lon="6.11">
        <ele>2721.1</ele>
        <time>2024-07-08T12:27:19Z</time>
      </trkpt>
      <trkpt lat="45.12756" lon="6.11">
        <ele>2721.1</ele>
        <time>2024-07-08T12:27:20Z</time>
      </trkpt>
      <trkpt lat="45.12756" lon="6.11">
        <ele>2721.1</ele>
        <time>2024-07-08T12:27:21Z</time>
      </trkpt>
      <trkpt lat="45.12756" lon="6.11">
        <ele>2721.1</ele>
        <time>2024-07-08T12:27:22Z</time>
      </trkpt>
      <trkpt lat="45.12756" lon="6.11">
        <ele>2721.1</ele>
        <time>2024-07-08T12:27:23Z</time>
      </trkpt>
      <trkpt lat="45.12756" lon="6.11">
        <ele>2721.1</ele>
        <time>2024-07-08T12:27:24Z</time>
      </trkpt>
      <trkpt lat="45.12756" lon="6.11">
        <ele>2721.1</ele>
        <time>2024-07-08T12:27:25Z</time>
      </trkpt>
      <trkpt lat="45.12756" lon="6.11">
        <ele>2721.1</ele>
        <time>2024-07-08T12:27:26Z</time>
      </trkpt>
      <trkpt lat="45.12756" lon="6.11">
        <ele>2721.1</ele>
        <time>2024-07-08T12:27:27Z</time>
      </trkpt>
      <trkpt lat="45.12756" lon="6.11">
        <ele>2721.1</ele>
        <time>2024-07-08T12:27:28Z</time>
      </trkpt>
      <trkpt lat="45.12756" lon="6.11">
        <ele>2721.1</ele>
        <time>2024-07-08T12:27:29Z</time>
      </trkpt>
      <trkpt lat="45.12756" lon="6.11">
        <ele>2721.1</ele>
        <time>2024-07-08T12:27:30Z</time>
      </trkpt>
      <trkpt lat="45.12756" lon="6.11">
        <ele>2721.1</ele>
        <time>2024-07-08T12:27:31Z</time>
      </trkpt>
      <trkpt lat="45.12756" lon="6.11">
        <ele>2721.1</ele>
        <time>2024-07-08T12:27:32Z</time>
      </trkpt>
      <trkpt lat="45.12756" lon="6.11">
        <ele>2721.1</ele>
        <time>2024-07-08T12:27:33Z</time>
      </trkpt>
      <trkpt lat="45.12756" lon="6.11">
        <ele>2721.1</ele>
        <time>2024-07-08T12:27:34Z</time>
      </trkpt>
      <trkpt lat="45.12756" lon="6.11">
        <ele>2721.1</ele>
        <time>2024-07-08T12:27:35Z</time>
      </trkpt>
      <trkpt lat="45.12756" lon="6.11">
        <ele>2721.2</ele>
        <time>2024-07-08T12:27:36Z</time>
      </trkpt>
      <trkpt lat="45.12756" lon="6.11001">
        <ele>2721.2</ele>
        <time>2024-07-08T12:27:37Z</time>
      </trkpt>
      <trkpt lat="45.12755" lon="6.11001">
        <ele>2721.2</ele>
        <time>2024-07-08T12:27:38Z</time>
      </trkpt>
      <trkpt lat="45.12755" lon="6.11001">
        <ele>2721.2</ele>
        <time>2024-07-08T12:27:39Z</time>
      </trkpt>
      <trkpt lat="45.12755" lon="6.11001">
        <ele>2721.2</ele>
        <time>2024-07-08T12:27:40Z</time>
      </trkpt>
      <trkpt lat="45.12755" lon="6.11001">
        <ele>2721.2</ele>
        <time>2024-07-08T12:27:41Z</time>
      </trkpt>
      <trkpt lat="45.12755" lon="6.11001">
        <ele>2721.2</ele>
        <time>2024-07-08T12:27:42Z</time>
      </trkpt>
      <trkpt lat="45.12755" lon="6.11001">
        <ele>2721.2</ele>
        <time>2024-07-08T12:27:43Z</time>
      </trkpt>
      <trkpt lat="45.12755" lon="6.11001">
        <ele>2721.2</ele>
        <time>2024-07-08T12:27:44Z</time>
      </trkpt>
      <trkpt lat="45.12755" lon="6.11001">
        <ele>2721.2</ele>
        <time>2024-07-08T12:27:45Z</time>
      </trkpt>
      <trkpt lat="45.12755" lon="6.11001">
        <ele>2721.2</ele>
        <time>2024-07-08T12:27:46Z</time>
      </trkpt>
      <trkpt lat="45.12755" lon="6.11001">
        <ele>2721.2</ele>
        <time>2024-07-08T12:27:47Z</time>
      </trkpt>
      <trkpt lat="45.12755" lon="6.11001">
        <ele>2721.2</ele>
        <time>2024-07-08T12:27:48Z</time>
      </trkpt>
      <trkpt lat="45.12755" lon="6.11001">
        <ele>2721.2</ele>
        <time>2024-07-08T12:27:49Z</time>
      </trkpt>
      <trkpt lat="45.12755" lon="6.11001">
        <ele>2721.2</ele>
        <time>2024-07-08T12:27:50Z</time>
      </trkpt>
      <trkpt lat="45.12755" lon="6.11001">
        <ele>2721.2</ele>
        <time>2024-07-08T12:27:51Z</time>
      </trkpt>
      <trkpt lat="45.12755" lon="6.11001">
        <ele>2721.2</ele>
        <time>2024-07-08T12:27:52Z</time>
      </trkpt>
      <trkpt lat="45.12755" lon="6.11001">
        <ele>2721.2</ele>
        <time>2024-07-08T12:27:53Z</time>
      </trkpt>
      <trkpt lat="45.12755" lon="6.11001">
        <ele>2721.2</ele>
        <time>2024-07-08T12:27:54Z</time>
      </trkpt>
      <trkpt lat="45.12755" lon="6.11001">
        <ele>2721.2</ele>
        <time>2024-07-08T12:27:55Z</time>
      </trkpt>
      <trkpt lat="45.12755" lon="6.11001">
        <ele>2721.2</ele>
        <time>2024-07-08T12:27:56Z</time>
      </trkpt>
      <trkpt lat="45.12755" lon="6.11001">
        <ele>2721.2</ele>
        <time>2024-07-08T12:27:57Z</time>
      </trkpt>
      <trkpt lat="45.12755" lon="6.11001">
        <ele>2721.2</ele>
        <time>2024-07-08T12:27:58Z</time>
      </trkpt>
      <trkpt lat="45.12755" lon="6.11001">
        <ele>2721.2</ele>
        <time>2024-07-08T12:27:59Z</time>
      </trkpt>
      <trkpt lat="45.12755" lon="6.11001">
        <ele>2721.2</ele>
        <time>2024-07-08T12:28:00Z</time>
      </trkpt>
      <trkpt lat="45.12755" lon="6.11001">
        <ele>2721.2</ele>
        <time>2024-07-08T12:28:01Z</time>
      </trkpt>
      <trkpt lat="45.12755" lon="6.11001">
        <ele>2721.2</ele>
        <time>2024-07-08T12:28:02Z</time>
      </trkpt>
      <trkpt lat="45.12755" lon="6.11001">
        <ele>2721.2</ele>
        <time>2024-07-08T12:28:03Z</time>
      </trkpt>
      <trkpt lat="45.12755" lon="6.11001">
        <ele>2721.2</ele>
        <time>2024-07-08T12:28:04Z</time>
      </trkpt>
      <trkpt lat="45.12755" lon="6.11001">
        <ele>2721.2</ele>
        <time>2024-07-08T12:28:05Z</time>
      </trkpt>
      <trkpt lat="45.12755" lon="6.11001">
        <ele>2721.2</ele>
        <time>2024-07-08T12:28:06Z</time>
      </trkpt>
      <trkpt lat="45.12755" lon="6.11001">
        <ele>2721.2</ele>
        <time>2024-07-08T12:28:07Z</time>
      </trkpt>
      <trkpt lat="45.12755" lon="6.11001">
        <ele>2721.2</ele>
        <time>2024-07-08T12:28:08Z</time>
      </trkpt>
      <trkpt lat="45.12755" lon="6.11001">
        <ele>2721.2</ele>
        <time>2024-07-08T12:28:09Z</time>
      </trkpt>
      <trkpt lat="45.12755" lon="6.11001">
        <ele>2721.2</ele>
        <time>2024-07-08T12:28:10Z</time>
      </trkpt>
      <trkpt lat="45.12755" lon="6.11001">
        <ele>2721.2</ele>
        <time>2024-07-08T12:28:11Z</time>
      </trkpt>
      <trkpt lat="45.12755" lon="6.11">
        <ele>2721.3</ele>
        <time>2024-07-08T12:28:12Z</time>
      </trkpt>
      <trkpt lat="45.12756" lon="6.11">
        <ele>2721.3</ele>
        <time>2024-07-08T12:28:13Z</time>
      </trkpt>
      <trkpt lat="45.12756" lon="6.11">
        <ele>2721.4</ele>
        <time>2024-07-08T12:28:14Z</time>
      </trkpt>
      <trkpt lat="45.12756" lon="6.10999">
        <ele>2721.4</ele>
        <time>2024-07-08T12:28:15Z</time>
      </trkpt>
      <trkpt lat="45.12756" lon="6.10999">
        <ele>2721.4</ele>
        <time>2024-07-08T12:28:16Z</time>
      </trkpt>
      <trkpt lat="45.12757" lon="6.10998">
        <ele>2721.5</ele>
        <time>2024-07-08T12:28:17Z</time>
      </trkpt>
      <trkpt lat="45.12757" lon="6.10998">
        <ele>2721.5</ele>
        <time>2024-07-08T12:28:18Z</time>
      </trkpt>
      <trkpt lat="45.12757" lon="6.10997">
        <ele>2721.6</ele>
        <time>2024-07-08T12:28:19Z</time>
      </trkpt>
      <trkpt lat="45.12757" lon="6.10997">
        <ele>2721.6</ele>
        <time>2024-07-08T12:28:20Z</time>
      </trkpt>
      <trkpt lat="45.12758" lon="6.10997">
        <ele>2721.6</ele>
        <time>2024-07-08T12:28:21Z</time>
      </trkpt>
      <trkpt lat="45.12758" lon="6.10996">
        <ele>2721.7</ele>
        <time>2024-07-08T12:28:22Z</time>
      </trkpt>
      <trkpt lat="45.12758" lon="6.10996">
        <ele>2721.7</ele>
        <time>2024-07-08T12:28:23Z</time>
      </trkpt>
      <trkpt lat="45.12758" lon="6.10995">
        <ele>2721.8</ele>
        <time>2024-07-08T12:28:24Z</time>
      </trkpt>
      <trkpt lat="45.12758" lon="6.10995">
        <ele>2721.8</ele>
        <time>2024-07-08T12:28:25Z</time>
      </trkpt>
      <trkpt lat="45.12759" lon="6.10995">
        <ele>2721.9</ele>
        <time>2024-07-08T12:28:26Z</time>
      </trkpt>
      <trkpt lat="45.12759" lon="6.10994">
        <ele>2721.9</ele>
        <time>2024-07-08T12:28:27Z</time>
      </trkpt>
      <trkpt lat="45.12759" lon="6.10994">
        <ele>2721.9</ele>
        <time>2024-07-08T12:28:28Z</time>
      </trkpt>
      <trkpt lat="45.12759" lon="6.10993">
        <ele>2722</ele>
        <time>2024-07-08T12:28:29Z</time>
      </trkpt>
      <trkpt lat="45.1276" lon="6.10993">
        <ele>2722</ele>
        <time>2024-07-08T12:28:30Z</time>
      </trkpt>
      <trkpt lat="45.1276" lon="6.10992">
        <ele>2722.1</ele>
        <time>2024-07-08T12:28:31Z</time>
      </trkpt>
      <trkpt lat="45.1276" lon="6.10992">
        <ele>2722.1</ele>
        <time>2024-07-08T12:28:32Z</time>
      </trkpt>
      <trkpt lat="45.1276" lon="6.10992">
        <ele>2722.1</ele>
        <time>2024-07-08T12:28:33Z</time>
      </trkpt>
      <trkpt lat="45.12761" lon="6.10991">
        <ele>2722.2</ele>
        <time>2024-07-08T12:28:34Z</time>
      </trkpt>
      <trkpt lat="45.12761" lon="6.10991">
        <ele>2722.2</ele>
        <time>2024-07-08T12:28:35Z</time>
      </trkpt>
      <trkpt lat="45.12761" lon="6.1099">
        <ele>2722.3</ele>
        <time>2024-07-08T12:28:36Z</time>
      </trkpt>
      <trkpt lat="45.12761" lon="6.1099">
        <ele>2722.3</ele>
        <time>2024-07-08T12:28:37Z</time>
      </trkpt>
      <trkpt lat="45.12762" lon="6.10989">
        <ele>2722.4</ele>
        <time>2024-07-08T12:28:38Z</time>
      </trkpt>
      <trkpt lat="45.12762" lon="6.10989">
        <ele>2722.4</ele>
        <time>2024-07-08T12:28:39Z</time>
      </trkpt>
      <trkpt lat="45.12762" lon="6.10989">
        <ele>2722.5</ele>
        <time>2024-07-08T12:28:40Z</time>
      </trkpt>
      <trkpt lat="45.12762" lon="6.10988">
        <ele>2722.5</ele>
        <time>2024-07-08T12:28:41Z</time>
      </trkpt>
      <trkpt lat="45.12763" lon="6.10988">
        <ele>2722.6</ele>
        <time>2024-07-08T12:28:42Z</time>
      </trkpt>
      <trkpt lat="45.12763" lon="6.10987">
        <ele>2722.6</ele>
        <time>2024-07-08T12:28:43Z</time>
      </trkpt>
      <trkpt lat="45.12763" lon="6.10987">
        <ele>2722.6</ele>
        <time>2024-07-08T12:28:44Z</time>
      </trkpt>
      <trkpt lat="45.12763" lon="6.10986">
        <ele>2722.7</ele>
        <time>2024-07-08T12:28:45Z</time>
      </trkpt>
      <trkpt lat="45.12763" lon="6.10986">
        <ele>2722.7</ele>
        <time>2024-07-08T12:28:46Z</time>
      </trkpt>
      <trkpt lat="45.12764" lon="6.10986">
        <ele>2722.8</ele>
        <time>2024-07-08T12:28:47Z</time>
      </trkpt>
      <trkpt lat="45.12764" lon="6.10985">
        <ele>2722.8</ele>
        <time>2024-07-08T12:28:48Z</time>
      </trkpt>
      <trkpt lat="45.12764" lon="6.10985">
        <ele>2722.9</ele>
        <time>2024-07-08T12:28:49Z</time>
      </trkpt>
      <trkpt lat="45.12764" lon="6.10984">
        <ele>2722.9</ele>
        <time>2024-07-08T12:28:50Z</time>
      </trkpt>
      <trkpt lat="45.12765" lon="6.10984">
        <ele>2723</ele>
        <time>2024-07-08T12:28:51Z</time>
      </trkpt>
      <trkpt lat="45.12765" lon="6.10983">
        <ele>2723</ele>
        <time>2024-07-08T12:28:52Z</time>
      </trkpt>
      <trkpt lat="45.12765" lon="6.10983">
        <ele>2723.1</ele>
        <time>2024-07-08T12:28:53Z</time>
      </trkpt>
      <trkpt lat="45.12765" lon="6.10983">
        <ele>2723.1</ele>
        <time>2024-07-08T12:28:54Z</time>
      </trkpt>
      <trkpt lat="45.12766" lon="6.10982">
        <ele>2723.1</ele>
        <time>2024-07-08T12:28:55Z</time>
      </trkpt>
      <trkpt lat="45.12766" lon="6.10982">
        <ele>2723.2</ele>
        <time>2024-07-08T12:28:56Z</time>
      </trkpt>
      <trkpt lat="45.12766" lon="6.10981">
        <ele>2723.2</ele>
        <time>2024-07-08T12:28:57Z</time>
      </trkpt>
      <trkpt lat="45.12766" lon="6.10981">
        <ele>2723.3</ele>
        <time>2024-07-08T12:28:58Z</time>
      </trkpt>
      <trkpt lat="45.12767" lon="6.10981">
        <ele>2723.3</ele>
        <time>2024-07-08T12:28:59Z</time>
      </trkpt>
      <trkpt lat="45.12767" lon="6.1098">
        <ele>2723.4</ele>
        <time>2024-07-08T12:29:00Z</time>
      </trkpt>
      <trkpt lat="45.12767" lon="6.1098">
        <ele>2723.4</ele>
        <time>2024-07-08T12:29:01Z</time>
      </trkpt>
      <trkpt lat="45.12767" lon="6.10979">
        <ele>2723.5</ele>
        <time>2024-07-08T12:29:02Z</time>
      </trkpt>
      <trkpt lat="45.12767" lon="6.10979">
        <ele>2723.5</ele>
        <time>2024-07-08T12:29:03Z</time>
      </trkpt>
      <trkpt lat="45.12768" lon="6.10978">
        <ele>2723.6</ele>
        <time>2024-07-08T12:29:04Z</time>
      </trkpt>
      <trkpt lat="45.12768" lon="6.10978">
        <ele>2723.6</ele>
        <time>2024-07-08T12:29:05Z</time>
      </trkpt>
      <trkpt lat="45.12768" lon="6.10978">
        <ele>2723.7</ele>
        <time>2024-07-08T12:29:06Z</time>
      </trkpt>
      <trkpt lat="45.12768" lon="6.10977">
        <ele>2723.7</ele>
        <time>2024-07-08T12:29:07Z</time>
      </trkpt>
      <trkpt lat="45.12769" lon="6.10977">
        <ele>2723.8</ele>
        <time>2024-07-08T12:29:08Z</time>
      </trkpt>
      <trkpt lat="45.12769" lon="6.10976">
        <ele>2723.8</ele>
        <time>2024-07-08T12:29:09Z</time>
      </trkpt>
      <trkpt lat="45.12769" lon="6.10976">
        <ele>2723.9</ele>
        <time>2024-07-08T12:29:10Z</time>
      </trkpt>
      <trkpt lat="45.12769" lon="6.10975">
        <ele>2723.9</ele>
        <time>2024-07-08T12:29:11Z</time>
      </trkpt>
      <trkpt lat="45.1277" lon="6.10975">
        <ele>2724</ele>
        <time>2024-07-08T12:29:12Z</time>
      </trkpt>
      <trkpt lat="45.1277" lon="6.10975">
        <ele>2724</ele>
        <time>2024-07-08T12:29:13Z</time>
      </trkpt>
      <trkpt lat="45.1277" lon="6.10974">
        <ele>2724.1</ele>
        <time>2024-07-08T12:29:14Z</time>
      </trkpt>
      <trkpt lat="45.1277" lon="6.10974">
        <ele>2724.1</ele>
        <time>2024-07-08T12:29:15Z</time>
      </trkpt>
      <trkpt lat="45.12771" lon="6.10973">
        <ele>2724.2</ele>
        <time>2024-07-08T12:29:16Z</time>
      </trkpt>
      <trkpt lat="45.12771" lon="6.10973">
        <ele>2724.2</ele>
        <time>2024-07-08T12:29:17Z</time>
      </trkpt>
      <trkpt lat="45.12771" lon="6.10972">
        <ele>2724.3</ele>
        <time>2024-07-08T12:29:18Z</time>
      </trkpt>
      <trkpt lat="45.12771" lon="6.10972">
        <ele>2724.3</ele>
        <time>2024-07-08T12:29:19Z</time>
      </trkpt>
      <trkpt lat="45.12772" lon="6.10972">
        <ele>2724.4</ele>
        <time>2024-07-08T12:29:20Z</time>
      </trkpt>
      <trkpt lat="45.12772" lon="6.10971">
        <ele>2724.4</ele>
        <time>2024-07-08T12:29:21Z</time>
      </trkpt>
      <trkpt lat="45.12772" lon="6.10971">
        <ele>2724.5</ele>
        <time>2024-07-08T12:29:22Z</time>
      </trkpt>
      <trkpt lat="45.12772" lon="6.1097">
        <ele>2724.5</ele>
        <time>2024-07-08T12:29:23Z</time>
      </trkpt>
      <trkpt lat="45.12772" lon="6.1097">
        <ele>2724.6</ele>
        <time>2024-07-08T12:29:24Z</time>
      </trkpt>
      <trkpt lat="45.12773" lon="6.10969">
        <ele>2724.7</ele>
        <time>2024-07-08T12:29:25Z</time>
      </trkpt>
      <trkpt lat="45.12773" lon="6.10969">
        <ele>2724.7</ele>
        <time>2024-07-08T12:29:26Z</time>
      </trkpt>
      <trkpt lat="45.12773" lon="6.10969">
        <ele>2724.8</ele>
        <time>2024-07-08T12:29:27Z</time>
      </trkpt>
      <trkpt lat="45.12773" lon="6.10968">
        <ele>2724.8</ele>
        <time>2024-07-08T12:29:28Z</time>
      </trkpt>
      <trkpt lat="45.12774" lon="6.10968">
        <ele>2724.9</ele>
        <time>2024-07-08T12:29:29Z</time>
      </trkpt>
      <trkpt lat="45.12774" lon="6.10967">
        <ele>2724.9</ele>
        <time>2024-07-08T12:29:30Z</time>
      </trkpt>
      <trkpt lat="45.12774" lon="6.10967">
        <ele>2725</ele>
        <time>2024-07-08T12:29:31Z</time>
      </trkpt>
      <trkpt lat="45.12774" lon="6.10967">
        <ele>2725</ele>
        <time>2024-07-08T12:29:32Z</time>
      </trkpt>
      <trkpt lat="45.12775" lon="6.10966">
        <ele>2725.1</ele>
        <time>2024-07-08T12:29:33Z</time>
      </trkpt>
      <trkpt lat="45.12775" lon="6.10966">
        <ele>2725.1</ele>
        <time>2024-07-08T12:29:34Z</time>
      </trkpt>
      <trkpt lat="45.12775" lon="6.10965">
        <ele>2725.2</ele>
        <time>2024-07-08T12:29:35Z</time>
      </trkpt>
      <trkpt lat="45.12775" lon="6.10965">
        <ele>2725.2</ele>
        <time>2024-07-08T12:29:36Z</time>
      </trkpt>
      <trkpt lat="45.12776" lon="6.10964">
        <ele>2725.3</ele>
        <time>2024-07-08T12:29:37Z</time>
      </trkpt>
      <trkpt lat="45.12776" lon="6.10964">
        <ele>2725.4</ele>
        <time>2024-07-08T12:29:38Z</time>
      </trkpt>
      <trkpt lat="45.12776" lon="6.10964">
        <ele>2725.4</ele>
        <time>2024-07-08T12:29:39Z</time>
      </trkpt>
      <trkpt lat="45.12776" lon="6.10963">
        <ele>2725.5</ele>
        <time>2024-07-08T12:29:40Z</time>
      </trkpt>
      <trkpt lat="45.12776" lon="6.10963">
        <ele>2725.5</ele>
        <time>2024-07-08T12:29:41Z</time>
      </trkpt>
      <trkpt lat="45.12777" lon="6.10962">
        <ele>2725.6</ele>
        <time>2024-07-08T12:29:42Z</time>
      </trkpt>
      <trkpt lat="45.12777" lon="6.10962">
        <ele>2725.6</ele>
        <time>2024-07-08T12:29:43Z</time>
      </trkpt>
      <trkpt lat="45.12777" lon="6.10961">
        <ele>2725.7</ele>
        <time>2024-07-08T12:29:44Z</time>
      </trkpt>
      <trkpt lat="45.12777" lon="6.10961">
        <ele>2725.7</ele>
        <time>2024-07-08T12:29:45Z</time>
      </trkpt>
      <trkpt lat="45.12778" lon="6.10961">
        <ele>2725.8</ele>
        <time>2024-07-08T12:29:46Z</time>
      </trkpt>
      <trkpt lat="45.12778" lon="6.1096">
        <ele>2725.8</ele>
        <time>2024-07-08T12:29:47Z</time>
      </trkpt>
      <trkpt lat="45.12778" lon="6.1096">
        <ele>2725.9</ele>
        <time>2024-07-08T12:29:49Z</time>
      </trkpt>
      <trkpt lat="45.12778" lon="6.10959">
        <ele>2725.9</ele>
        <time>2024-07-08T12:29:50Z</time>
      </trkpt>
      <trkpt lat="45.12779" lon="6.10959">
        <ele>2726</ele>
        <time>2024-07-08T12:29:51Z</time>
      </trkpt>
      <trkpt lat="45.12779" lon="6.10958">
        <ele>2726</ele>
        <time>2024-07-08T12:29:52Z</time>
      </trkpt>
      <trkpt lat="45.12779" lon="6.10958">
        <ele>2726.1</ele>
        <time>2024-07-08T12:29:53Z</time>
      </trkpt>
      <trkpt lat="45.12779" lon="6.10958">
        <ele>2726.2</ele>
        <time>2024-07-08T12:29:54Z</time>
      </trkpt>
      <trkpt lat="45.1278" lon="6.10957">
        <ele>2726.2</ele>
        <time>2024-07-08T12:29:55Z</time>
      </trkpt>
      <trkpt lat="45.1278" lon="6.10957">
        <ele>2726.3</ele>
        <time>2024-07-08T12:29:56Z</time>
      </trkpt>
      <trkpt lat="45.1278" lon="6.10956">
        <ele>2726.3</ele>
        <time>2024-07-08T12:35:31Z</time>
      </trkpt>
      <trkpt lat="45.1278" lon="6.10956">
        <ele>2726.4</ele>
        <time>2024-07-08T12:35:32Z</time>
      </trkpt>
      <trkpt lat="45.12777" lon="6.10955">
        <ele>2726.9</ele>
        <time>2024-07-08T12:35:33Z</time>
      </trkpt>
      <trkpt lat="45.12776" lon="6.10953">
        <ele>2727.1</ele>
        <time>2024-07-08T12:35:34Z</time>
      </trkpt>
      <trkpt lat="45.12776" lon="6.10952">
        <ele>2727.2</ele>
        <time>2024-07-08T12:35:35Z</time>
      </trkpt>
      <trkpt lat="45.12775" lon="6.10951">
        <ele>2727.4</ele>
        <time>2024-07-08T12:35:36Z</time>
      </trkpt>
      <trkpt lat="45.12775" lon="6.10951">
        <ele>2727.4</ele>
        <time>2024-07-08T12:35:37Z</time>
      </trkpt>
      <trkpt lat="45.12775" lon="6.10951">
        <ele>2727.5</ele>
        <time>2024-07-08T12:35:38Z</time>
      </trkpt>
      <trkpt lat="45.12775" lon="6.1095">
        <ele>2727.5</ele>
        <time>2024-07-08T12:35:39Z</time>
      </trkpt>
      <trkpt lat="45.12776" lon="6.10951">
        <ele>2727.5</ele>
        <time>2024-07-08T12:35:40Z</time>
      </trkpt>
      <trkpt lat="45.12776" lon="6.10951">
        <ele>2727.5</ele>
        <time>2024-07-08T12:35:41Z</time>
      </trkpt>
      <trkpt lat="45.12776" lon="6.1095">
        <ele>2727.7</ele>
        <time>2024-07-08T12:35:42Z</time>
      </trkpt>
      <trkpt lat="45.12777" lon="6.10948">
        <ele>2727.9</ele>
        <time>2024-07-08T12:35:43Z</time>
      </trkpt>
      <trkpt lat="45.12777" lon="6.10947">
        <ele>2728</ele>
        <time>2024-07-08T12:35:44Z</time>
      </trkpt>
      <trkpt lat="45.12778" lon="6.10945">
        <ele>2728.2</ele>
        <time>2024-07-08T12:35:45Z</time>
      </trkpt>
      <trkpt lat="45.12778" lon="6.10944">
        <ele>2728.4</ele>
        <time>2024-07-08T12:35:46Z</time>
      </trkpt>
      <trkpt lat="45.12779" lon="6.10944">
        <ele>2728.4</ele>
        <time>2024-07-08T12:35:47Z</time>
      </trkpt>
      <trkpt lat="45.12779" lon="6.10944">
        <ele>2728.5</ele>
        <time>2024-07-08T12:35:48Z</time>
      </trkpt>
      <trkpt lat="45.12779" lon="6.10945">
        <ele>2728.6</ele>
        <time>2024-07-08T12:35:49Z</time>
      </trkpt>
      <trkpt lat="45.12779" lon="6.10944">
        <ele>2728.6</ele>
        <time>2024-07-08T12:35:50Z</time>
      </trkpt>
      <trkpt lat="45.12778" lon="6.10945">
        <ele>2728.7</ele>
        <time>2024-07-08T12:35:51Z</time>
      </trkpt>
      <trkpt lat="45.12778" lon="6.10945">
        <ele>2728.8</ele>
        <time>2024-07-08T12:35:52Z</time>
      </trkpt>
      <trkpt lat="45.12778" lon="6.10945">
        <ele>2728.9</ele>
        <time>2024-07-08T12:35:53Z</time>
      </trkpt>
      <trkpt lat="45.12777" lon="6.10944">
        <ele>2729</ele>
        <time>2024-07-08T12:35:54Z</time>
      </trkpt>
      <trkpt lat="45.12776" lon="6.10943">
        <ele>2729.2</ele>
        <time>2024-07-08T12:35:55Z</time>
      </trkpt>
      <trkpt lat="45.12775" lon="6.10942">
        <ele>2729.4</ele>
        <time>2024-07-08T12:35:56Z</time>
      </trkpt>
      <trkpt lat="45.12775" lon="6.1094">
        <ele>2729.6</ele>
        <time>2024-07-08T12:35:57Z</time>
      </trkpt>
      <trkpt lat="45.12777" lon="6.10939">
        <ele>2729.9</ele>
        <time>2024-07-08T12:35:58Z</time>
      </trkpt>
      <trkpt lat="45.12778" lon="6.10937">
        <ele>2730.1</ele>
        <time>2024-07-08T12:35:59Z</time>
      </trkpt>
      <trkpt lat="45.1278" lon="6.10937">
        <ele>2730.5</ele>
        <time>2024-07-08T12:36:00Z</time>
      </trkpt>
      <trkpt lat="45.12781" lon="6.10936">
        <ele>2730.8</ele>
        <time>2024-07-08T12:36:01Z</time>
      </trkpt>
      <trkpt lat="45.12783" lon="6.10935">
        <ele>2731</ele>
        <time>2024-07-08T12:36:02Z</time>
      </trkpt>
      <trkpt lat="45.12784" lon="6.10934">
        <ele>2731.2</ele>
        <time>2024-07-08T12:36:03Z</time>
      </trkpt>
      <trkpt lat="45.12784" lon="6.10933">
        <ele>2731.4</ele>
        <time>2024-07-08T12:36:04Z</time>
      </trkpt>
      <trkpt lat="45.12785" lon="6.10933">
        <ele>2731.5</ele>
        <time>2024-07-08T12:36:05Z</time>
      </trkpt>
      <trkpt lat="45.12786" lon="6.10932">
        <ele>2731.7</ele>
        <time>2024-07-08T12:36:06Z</time>
      </trkpt>
      <trkpt lat="45.12786" lon="6.10931">
        <ele>2731.9</ele>
        <time>2024-07-08T12:36:07Z</time>
      </trkpt>
      <trkpt lat="45.12787" lon="6.1093">
        <ele>2732</ele>
        <time>2024-07-08T12:36:08Z</time>
      </trkpt>
      <trkpt lat="45.12788" lon="6.1093">
        <ele>2732.2</ele>
        <time>2024-07-08T12:36:09Z</time>
      </trkpt>
      <trkpt lat="45.12788" lon="6.10929">
        <ele>2732.3</ele>
        <time>2024-07-08T12:36:10Z</time>
      </trkpt>
      <trkpt lat="45.12789" lon="6.10928">
        <ele>2732.5</ele>
        <time>2024-07-08T12:36:11Z</time>
      </trkpt>
      <trkpt lat="45.1279" lon="6.10928">
        <ele>2732.6</ele>
        <time>2024-07-08T12:36:12Z</time>
      </trkpt>
      <trkpt lat="45.1279" lon="6.10927">
        <ele>2732.7</ele>
        <time>2024-07-08T12:36:13Z</time>
      </trkpt>
      <trkpt lat="45.12791" lon="6.10927">
        <ele>2732.8</ele>
        <time>2024-07-08T12:36:14Z</time>
      </trkpt>
      <trkpt lat="45.12792" lon="6.10926">
        <ele>2733</ele>
        <time>2024-07-08T12:36:15Z</time>
      </trkpt>
      <trkpt lat="45.12792" lon="6.10926">
        <ele>2733.1</ele>
        <time>2024-07-08T12:36:16Z</time>
      </trkpt>
      <trkpt lat="45.12793" lon="6.10925">
        <ele>2733.2</ele>
        <time>2024-07-08T12:36:17Z</time>
      </trkpt>
      <trkpt lat="45.12792" lon="6.10924">
        <ele>2733.4</ele>
        <time>2024-07-08T12:36:18Z</time>
      </trkpt>
      <trkpt lat="45.12791" lon="6.10923">
        <ele>2733.5</ele>
        <time>2024-07-08T12:36:19Z</time>
      </trkpt>
      <trkpt lat="45.12791" lon="6.10923">
        <ele>2733.6</ele>
        <time>2024-07-08T12:36:20Z</time>
      </trkpt>
      <trkpt lat="45.12791" lon="6.10924">
        <ele>2733.7</ele>
        <time>2024-07-08T12:36:21Z</time>
      </trkpt>
      <trkpt lat="45.12791" lon="6.10924">
        <ele>2733.8</ele>
        <time>2024-07-08T12:36:22Z</time>
      </trkpt>
      <trkpt lat="45.12791" lon="6.10924">
        <ele>2733.8</ele>
        <time>2024-07-08T12:36:23Z</time>
      </trkpt>
      <trkpt lat="45.12791" lon="6.10924">
        <ele>2733.8</ele>
        <time>2024-07-08T12:36:24Z</time>
      </trkpt>
      <trkpt lat="45.12791" lon="6.10924">
        <ele>2733.8</ele>
        <time>2024-07-08T12:36:25Z</time>
      </trkpt>
      <trkpt lat="45.12791" lon="6.10924">
        <ele>2733.8</ele>
        <time>2024-07-08T12:36:26Z</time>
      </trkpt>
      <trkpt lat="45.12791" lon="6.10924">
        <ele>2733.8</ele>
        <time>2024-07-08T12:36:27Z</time>
      </trkpt>
      <trkpt lat="45.12791" lon="6.10924">
        <ele>2733.9</ele>
        <time>2024-07-08T12:36:28Z</time>
      </trkpt>
      <trkpt lat="45.12791" lon="6.10923">
        <ele>2733.9</ele>
        <time>2024-07-08T12:36:29Z</time>
      </trkpt>
      <trkpt lat="45.12791" lon="6.10923">
        <ele>2733.9</ele>
        <time>2024-07-08T12:36:30Z</time>
      </trkpt>
      <trkpt lat="45.12791" lon="6.10923">
        <ele>2733.9</ele>
        <time>2024-07-08T12:36:31Z</time>
      </trkpt>
      <trkpt lat="45.12791" lon="6.10923">
        <ele>2733.9</ele>
        <time>2024-07-08T12:36:32Z</time>
      </trkpt>
      <trkpt lat="45.12791" lon="6.10923">
        <ele>2734</ele>
        <time>2024-07-08T12:36:33Z</time>
      </trkpt>
      <trkpt lat="45.12791" lon="6.10922">
        <ele>2734</ele>
        <time>2024-07-08T12:36:34Z</time>
      </trkpt>
      <trkpt lat="45.12791" lon="6.10922">
        <ele>2734.1</ele>
        <time>2024-07-08T12:36:35Z</time>
      </trkpt>
      <trkpt lat="45.12792" lon="6.10921">
        <ele>2734.2</ele>
        <time>2024-07-08T12:36:36Z</time>
      </trkpt>
      <trkpt lat="45.12792" lon="6.10921">
        <ele>2734.2</ele>
        <time>2024-07-08T12:36:37Z</time>
      </trkpt>
      <trkpt lat="45.12792" lon="6.10921">
        <ele>2734.2</ele>
        <time>2024-07-08T12:36:38Z</time>
      </trkpt>
      <trkpt lat="45.12792" lon="6.10921">
        <ele>2734.3</ele>
        <time>2024-07-08T12:36:39Z</time>
      </trkpt>
      <trkpt lat="45.12792" lon="6.10921">
        <ele>2734.3</ele>
        <time>2024-07-08T12:36:40Z</time>
      </trkpt>
      <trkpt lat="45.12792" lon="6.10921">
        <ele>2734.3</ele>
        <time>2024-07-08T12:36:41Z</time>
      </trkpt>
      <trkpt lat="45.12793" lon="6.1092">
        <ele>2734.4</ele>
        <time>2024-07-08T12:36:42Z</time>
      </trkpt>
      <trkpt lat="45.12793" lon="6.1092">
        <ele>2734.4</ele>
        <time>2024-07-08T12:36:43Z</time>
      </trkpt>
      <trkpt lat="45.12793" lon="6.1092">
        <ele>2734.4</ele>
        <time>2024-07-08T12:36:44Z</time>
      </trkpt>
      <trkpt lat="45.12793" lon="6.1092">
        <ele>2734.4</ele>
        <time>2024-07-08T12:36:45Z</time>
      </trkpt>
      <trkpt lat="45.12793" lon="6.1092">
        <ele>2734.5</ele>
        <time>2024-07-08T12:36:46Z</time>
      </trkpt>
      <trkpt lat="45.12793" lon="6.10919">
        <ele>2734.5</ele>
        <time>2024-07-08T12:36:47Z</time>
      </trkpt>
      <trkpt lat="45.12794" lon="6.10919">
        <ele>2734.6</ele>
        <time>2024-07-08T12:36:48Z</time>
      </trkpt>
      <trkpt lat="45.12794" lon="6.10919">
        <ele>2734.6</ele>
        <time>2024-07-08T12:36:49Z</time>
      </trkpt>
      <trkpt lat="45.12794" lon="6.10919">
        <ele>2734.6</ele>
        <time>2024-07-08T12:36:50Z</time>
      </trkpt>
      <trkpt lat="45.12794" lon="6.10919">
        <ele>2734.7</ele>
        <time>2024-07-08T12:36:51Z</time>
      </trkpt>
      <trkpt lat="45.12794" lon="6.10919">
        <ele>2734.7</ele>
        <time>2024-07-08T12:36:52Z</time>
      </trkpt>
      <trkpt lat="45.12794" lon="6.10919">
        <ele>2734.7</ele>
        <time>2024-07-08T12:36:53Z</time>
      </trkpt>
      <trkpt lat="45.12794" lon="6.10918">
        <ele>2734.7</ele>
        <time>2024-07-08T12:36:54Z</time>
      </trkpt>
      <trkpt lat="45.12795" lon="6.10917">
        <ele>2734.8</ele>
        <time>2024-07-08T12:36:55Z</time>
      </trkpt>
      <trkpt lat="45.12795" lon="6.10917">
        <ele>2734.9</ele>
        <time>2024-07-08T12:36:56Z</time>
      </trkpt>
      <trkpt lat="45.12795" lon="6.10915">
        <ele>2735</ele>
        <time>2024-07-08T12:36:57Z</time>
      </trkpt>
      <trkpt lat="45.12795" lon="6.10914">
        <ele>2735.2</ele>
        <time>2024-07-08T12:36:58Z</time>
      </trkpt>
      <trkpt lat="45.12795" lon="6.10913">
        <ele>2735.3</ele>
        <time>2024-07-08T12:36:59Z</time>
      </trkpt>
      <trkpt lat="45.12795" lon="6.10911">
        <ele>2735.4</ele>
        <time>2024-07-08T12:37:00Z</time>
      </trkpt>
      <trkpt lat="45.12795" lon="6.1091">
        <ele>2735.5</ele>
        <time>2024-07-08T12:37:01Z</time>
      </trkpt>
      <trkpt lat="45.12795" lon="6.10909">
        <ele>2735.7</ele>
        <time>2024-07-08T12:37:02Z</time>
      </trkpt>
      <trkpt lat="45.12794" lon="6.10907">
        <ele>2735.9</ele>
        <time>2024-07-08T12:37:03Z</time>
      </trkpt>
      <trkpt lat="45.12794" lon="6.10906">
        <ele>2736</ele>
        <time>2024-07-08T12:37:04Z</time>
      </trkpt>
      <trkpt lat="45.12793" lon="6.10905">
        <ele>2736.1</ele>
        <time>2024-07-08T12:37:05Z</time>
      </trkpt>
      <trkpt lat="45.12793" lon="6.10904">
        <ele>2736.2</ele>
        <time>2024-07-08T12:37:06Z</time>
      </trkpt>
      <trkpt lat="45.12792" lon="6.10904">
        <ele>2736.3</ele>
        <time>2024-07-08T12:37:07Z</time>
      </trkpt>
      <trkpt lat="45.12791" lon="6.10903">
        <ele>2736.4</ele>
        <time>2024-07-08T12:37:08Z</time>
      </trkpt>
      <trkpt lat="45.1279" lon="6.10903">
        <ele>2736.5</ele>
        <time>2024-07-08T12:37:09Z</time>
      </trkpt>
      <trkpt lat="45.1279" lon="6.10903">
        <ele>2736.6</ele>
        <time>2024-07-08T12:37:10Z</time>
      </trkpt>
      <trkpt lat="45.12789" lon="6.10902">
        <ele>2736.8</ele>
        <time>2024-07-08T12:37:11Z</time>
      </trkpt>
      <trkpt lat="45.12788" lon="6.10901">
        <ele>2736.8</ele>
        <time>2024-07-08T12:37:12Z</time>
      </trkpt>
      <trkpt lat="45.12788" lon="6.10901">
        <ele>2736.9</ele>
        <time>2024-07-08T12:37:13Z</time>
      </trkpt>
      <trkpt lat="45.12787" lon="6.109">
        <ele>2737</ele>
        <time>2024-07-08T12:37:14Z</time>
      </trkpt>
      <trkpt lat="45.12786" lon="6.10901">
        <ele>2737.1</ele>
        <time>2024-07-08T12:37:15Z</time>
      </trkpt>
      <trkpt lat="45.12785" lon="6.10901">
        <ele>2737.3</ele>
        <time>2024-07-08T12:37:16Z</time>
      </trkpt>
      <trkpt lat="45.12785" lon="6.10901">
        <ele>2737.4</ele>
        <time>2024-07-08T12:37:17Z</time>
      </trkpt>
      <trkpt lat="45.12784" lon="6.10901">
        <ele>2737.5</ele>
        <time>2024-07-08T12:37:18Z</time>
      </trkpt>
      <trkpt lat="45.12783" lon="6.10901">
        <ele>2737.6</ele>
        <time>2024-07-08T12:37:19Z</time>
      </trkpt>
      <trkpt lat="45.12782" lon="6.10901">
        <ele>2737.7</ele>
        <time>2024-07-08T12:37:20Z</time>
      </trkpt>
      <trkpt lat="45.12781" lon="6.109">
        <ele>2737.8</ele>
        <time>2024-07-08T12:37:21Z</time>
      </trkpt>
      <trkpt lat="45.12781" lon="6.109">
        <ele>2737.9</ele>
        <time>2024-07-08T12:37:22Z</time>
      </trkpt>
      <trkpt lat="45.1278" lon="6.109">
        <ele>2738</ele>
        <time>2024-07-08T12:37:23Z</time>
      </trkpt>
      <trkpt lat="45.12779" lon="6.10899">
        <ele>2738.1</ele>
        <time>2024-07-08T12:37:24Z</time>
      </trkpt>
      <trkpt lat="45.12779" lon="6.10899">
        <ele>2738.2</ele>
        <time>2024-07-08T12:37:25Z</time>
      </trkpt>
      <trkpt lat="45.12778" lon="6.10899">
        <ele>2738.3</ele>
        <time>2024-07-08T12:37:26Z</time>
      </trkpt>
      <trkpt lat="45.12777" lon="6.10898">
        <ele>2738.5</ele>
        <time>2024-07-08T12:37:27Z</time>
      </trkpt>
      <trkpt lat="45.12776" lon="6.10898">
        <ele>2738.6</ele>
        <time>2024-07-08T12:37:28Z</time>
      </trkpt>
      <trkpt lat="45.12775" lon="6.10897">
        <ele>2738.7</ele>
        <time>2024-07-08T12:37:29Z</time>
      </trkpt>
      <trkpt lat="45.12774" lon="6.10896">
        <ele>2738.9</ele>
        <time>2024-07-08T12:37:30Z</time>
      </trkpt>
      <trkpt lat="45.12774" lon="6.10895">
        <ele>2739</ele>
        <time>2024-07-08T12:37:31Z</time>
      </trkpt>
      <trkpt lat="45.12773" lon="6.10895">
        <ele>2739.1</ele>
        <time>2024-07-08T12:37:32Z</time>
      </trkpt>
      <trkpt lat="45.12772" lon="6.10894">
        <ele>2739.3</ele>
        <time>2024-07-08T12:37:33Z</time>
      </trkpt>
      <trkpt lat="45.12771" lon="6.10893">
        <ele>2739.4</ele>
        <time>2024-07-08T12:37:34Z</time>
      </trkpt>
      <trkpt lat="45.12771" lon="6.10893">
        <ele>2739.5</ele>
        <time>2024-07-08T12:37:35Z</time>
      </trkpt>
      <trkpt lat="45.1277" lon="6.10892">
        <ele>2739.6</ele>
        <time>2024-07-08T12:37:36Z</time>
      </trkpt>
      <trkpt lat="45.1277" lon="6.10892">
        <ele>2739.7</ele>
        <time>2024-07-08T12:37:37Z</time>
      </trkpt>
      <trkpt lat="45.1277" lon="6.10891">
        <ele>2739.8</ele>
        <time>2024-07-08T12:37:38Z</time>
      </trkpt>
      <trkpt lat="45.12769" lon="6.1089">
        <ele>2739.9</ele>
        <time>2024-07-08T12:37:39Z</time>
      </trkpt>
      <trkpt lat="45.12769" lon="6.10889">
        <ele>2740.1</ele>
        <time>2024-07-08T12:37:40Z</time>
      </trkpt>
      <trkpt lat="45.12768" lon="6.10887">
        <ele>2740.2</ele>
        <time>2024-07-08T12:37:41Z</time>
      </trkpt>
      <trkpt lat="45.12768" lon="6.10886">
        <ele>2740.3</ele>
        <time>2024-07-08T12:37:42Z</time>
      </trkpt>
      <trkpt lat="45.12768" lon="6.10886">
        <ele>2740.4</ele>
        <time>2024-07-08T12:37:43Z</time>
      </trkpt>
      <trkpt lat="45.12767" lon="6.10885">
        <ele>2740.6</ele>
        <time>2024-07-08T12:37:44Z</time>
      </trkpt>
      <trkpt lat="45.12767" lon="6.10884">
        <ele>2740.7</ele>
        <time>2024-07-08T12:37:45Z</time>
      </trkpt>
      <trkpt lat="45.12767" lon="6.10883">
        <ele>2740.8</ele>
        <time>2024-07-08T12:37:46Z</time>
      </trkpt>
      <trkpt lat="45.12766" lon="6.10882">
        <ele>2740.9</ele>
        <time>2024-07-08T12:37:47Z</time>
      </trkpt>
      <trkpt lat="45.12766" lon="6.10882">
        <ele>2740.9</ele>
        <time>2024-07-08T12:37:48Z</time>
      </trkpt>
      <trkpt lat="45.12766" lon="6.10881">
        <ele>2741</ele>
        <time>2024-07-08T12:37:49Z</time>
      </trkpt>
      <trkpt lat="45.12765" lon="6.1088">
        <ele>2741.2</ele>
        <time>2024-07-08T12:37:50Z</time>
      </trkpt>
      <trkpt lat="45.12765" lon="6.10879">
        <ele>2741.3</ele>
        <time>2024-07-08T12:37:51Z</time>
      </trkpt>
      <trkpt lat="45.12764" lon="6.10878">
        <ele>2741.4</ele>
        <time>2024-07-08T12:37:52Z</time>
      </trkpt>
      <trkpt lat="45.12764" lon="6.10877">
        <ele>2741.5</ele>
        <time>2024-07-08T12:37:53Z</time>
      </trkpt>
      <trkpt lat="45.12764" lon="6.10877">
        <ele>2741.6</ele>
        <time>2024-07-08T12:37:54Z</time>
      </trkpt>
      <trkpt lat="45.12763" lon="6.10876">
        <ele>2741.7</ele>
        <time>2024-07-08T12:37:55Z</time>
      </trkpt>
      <trkpt lat="45.12763" lon="6.10875">
        <ele>2741.9</ele>
        <time>2024-07-08T12:37:56Z</time>
      </trkpt>
      <trkpt lat="45.12762" lon="6.10873">
        <ele>2742.1</ele>
        <time>2024-07-08T12:37:57Z</time>
      </trkpt>
      <trkpt lat="45.12762" lon="6.10872">
        <ele>2742.2</ele>
        <time>2024-07-08T12:37:58Z</time>
      </trkpt>
      <trkpt lat="45.12761" lon="6.10871">
        <ele>2742.4</ele>
        <time>2024-07-08T12:37:59Z</time>
      </trkpt>
      <trkpt lat="45.12761" lon="6.10869">
        <ele>2742.6</ele>
        <time>2024-07-08T12:38:00Z</time>
      </trkpt>
      <trkpt lat="45.1276" lon="6.10868">
        <ele>2742.7</ele>
        <time>2024-07-08T12:38:01Z</time>
      </trkpt>
      <trkpt lat="45.1276" lon="6.10867">
        <ele>2742.9</ele>
        <time>2024-07-08T12:38:02Z</time>
      </trkpt>
      <trkpt lat="45.12759" lon="6.10866">
        <ele>2743.1</ele>
        <time>2024-07-08T12:38:03Z</time>
      </trkpt>
      <trkpt lat="45.12759" lon="6.10865">
        <ele>2743.2</ele>
        <time>2024-07-08T12:38:04Z</time>
      </trkpt>
      <trkpt lat="45.12758" lon="6.10864">
        <ele>2743.4</ele>
        <time>2024-07-08T12:38:05Z</time>
      </trkpt>
      <trkpt lat="45.12758" lon="6.10863">
        <ele>2743.5</ele>
        <time>2024-07-08T12:38:06Z</time>
      </trkpt>
      <trkpt lat="45.12757" lon="6.10863">
        <ele>2743.7</ele>
        <time>2024-07-08T12:38:07Z</time>
      </trkpt>
      <trkpt lat="45.12757" lon="6.10862">
        <ele>2743.8</ele>
        <time>2024-07-08T12:38:08Z</time>
      </trkpt>
      <trkpt lat="45.12756" lon="6.10861">
        <ele>2743.9</ele>
        <time>2024-07-08T12:38:09Z</time>
      </trkpt>
      <trkpt lat="45.12755" lon="6.1086">
        <ele>2744.1</ele>
        <time>2024-07-08T12:38:10Z</time>
      </trkpt>
      <trkpt lat="45.12755" lon="6.1086">
        <ele>2744.2</ele>
        <time>2024-07-08T12:38:11Z</time>
      </trkpt>
      <trkpt lat="45.12754" lon="6.1086">
        <ele>2744.3</ele>
        <time>2024-07-08T12:38:12Z</time>
      </trkpt>
      <trkpt lat="45.12753" lon="6.10859">
        <ele>2744.5</ele>
        <time>2024-07-08T12:38:13Z</time>
      </trkpt>
      <trkpt lat="45.12753" lon="6.10859">
        <ele>2744.5</ele>
        <time>2024-07-08T12:38:14Z</time>
      </trkpt>
      <trkpt lat="45.12752" lon="6.10858">
        <ele>2744.7</ele>
        <time>2024-07-08T12:38:15Z</time>
      </trkpt>
      <trkpt lat="45.12752" lon="6.10857">
        <ele>2744.8</ele>
        <time>2024-07-08T12:38:16Z</time>
      </trkpt>
      <trkpt lat="45.12751" lon="6.10856">
        <ele>2744.9</ele>
        <time>2024-07-08T12:38:17Z</time>
      </trkpt>
      <trkpt lat="45.12751" lon="6.10855">
        <ele>2745.1</ele>
        <time>2024-07-08T12:38:18Z</time>
      </trkpt>
      <trkpt lat="45.1275" lon="6.10854">
        <ele>2745.3</ele>
        <time>2024-07-08T12:38:19Z</time>
      </trkpt>
      <trkpt lat="45.1275" lon="6.10853">
        <ele>2745.4</ele>
        <time>2024-07-08T12:38:20Z</time>
      </trkpt>
      <trkpt lat="45.12749" lon="6.10853">
        <ele>2745.5</ele>
        <time>2024-07-08T12:38:21Z</time>
      </trkpt>
      <trkpt lat="45.12748" lon="6.10852">
        <ele>2745.6</ele>
        <time>2024-07-08T12:38:22Z</time>
      </trkpt>
      <trkpt lat="45.12748" lon="6.10853">
        <ele>2745.8</ele>
        <time>2024-07-08T12:38:23Z</time>
      </trkpt>
      <trkpt lat="45.12747" lon="6.10852">
        <ele>2745.9</ele>
        <time>2024-07-08T12:38:24Z</time>
      </trkpt>
      <trkpt lat="45.12746" lon="6.10852">
        <ele>2746.1</ele>
        <time>2024-07-08T12:38:25Z</time>
      </trkpt>
      <trkpt lat="45.12746" lon="6.10851">
        <ele>2746.2</ele>
        <time>2024-07-08T12:38:26Z</time>
      </trkpt>
      <trkpt lat="45.12745" lon="6.1085">
        <ele>2746.3</ele>
        <time>2024-07-08T12:38:27Z</time>
      </trkpt>
      <trkpt lat="45.12744" lon="6.10849">
        <ele>2746.5</ele>
        <time>2024-07-08T12:38:28Z</time>
      </trkpt>
      <trkpt lat="45.12744" lon="6.10847">
        <ele>2746.7</ele>
        <time>2024-07-08T12:38:29Z</time>
      </trkpt>
      <trkpt lat="45.12744" lon="6.10847">
        <ele>2746.7</ele>
        <time>2024-07-08T12:38:30Z</time>
      </trkpt>
      <trkpt lat="45.12743" lon="6.10846">
        <ele>2746.9</ele>
        <time>2024-07-08T12:38:31Z</time>
      </trkpt>
      <trkpt lat="45.12743" lon="6.10846">
        <ele>2747</ele>
        <time>2024-07-08T12:38:32Z</time>
      </trkpt>
      <trkpt lat="45.12742" lon="6.10845">
        <ele>2747.1</ele>
        <time>2024-07-08T12:38:33Z</time>
      </trkpt>
      <trkpt lat="45.12741" lon="6.10844">
        <ele>2747.3</ele>
        <time>2024-07-08T12:38:34Z</time>
      </trkpt>
      <trkpt lat="45.12741" lon="6.10843">
        <ele>2747.4</ele>
        <time>2024-07-08T12:38:35Z</time>
      </trkpt>
      <trkpt lat="45.1274" lon="6.10842">
        <ele>2747.5</ele>
        <time>2024-07-08T12:38:36Z</time>
      </trkpt>
      <trkpt lat="45.1274" lon="6.10842">
        <ele>2747.6</ele>
        <time>2024-07-08T12:38:37Z</time>
      </trkpt>
      <trkpt lat="45.1274" lon="6.10841">
        <ele>2747.7</ele>
        <time>2024-07-08T12:38:38Z</time>
      </trkpt>
      <trkpt lat="45.12739" lon="6.1084">
        <ele>2747.8</ele>
        <time>2024-07-08T12:38:39Z</time>
      </trkpt>
      <trkpt lat="45.12739" lon="6.10839">
        <ele>2747.9</ele>
        <time>2024-07-08T12:38:40Z</time>
      </trkpt>
      <trkpt lat="45.12739" lon="6.10839">
        <ele>2748</ele>
        <time>2024-07-08T12:38:41Z</time>
      </trkpt>
      <trkpt lat="45.12739" lon="6.10838">
        <ele>2748</ele>
        <time>2024-07-08T12:38:42Z</time>
      </trkpt>
      <trkpt lat="45.12738" lon="6.10837">
        <ele>2748.2</ele>
        <time>2024-07-08T12:38:43Z</time>
      </trkpt>
      <trkpt lat="45.12737" lon="6.10837">
        <ele>2748.3</ele>
        <time>2024-07-08T12:38:44Z</time>
      </trkpt>
      <trkpt lat="45.12737" lon="6.10836">
        <ele>2748.4</ele>
        <time>2024-07-08T12:38:45Z</time>
      </trkpt>
      <trkpt lat="45.12736" lon="6.10834">
        <ele>2748.6</ele>
        <time>2024-07-08T12:38:46Z</time>
      </trkpt>
      <trkpt lat="45.12736" lon="6.10833">
        <ele>2748.7</ele>
        <time>2024-07-08T12:38:47Z</time>
      </trkpt>
      <trkpt lat="45.12735" lon="6.10832">
        <ele>2748.9</ele>
        <time>2024-07-08T12:38:48Z</time>
      </trkpt>
      <trkpt lat="45.12736" lon="6.10831">
        <ele>2749</ele>
        <time>2024-07-08T12:38:49Z</time>
      </trkpt>
      <trkpt lat="45.12736" lon="6.1083">
        <ele>2749.1</ele>
        <time>2024-07-08T12:38:50Z</time>
      </trkpt>
      <trkpt lat="45.12736" lon="6.10829">
        <ele>2749.2</ele>
        <time>2024-07-08T12:38:51Z</time>
      </trkpt>
      <trkpt lat="45.12736" lon="6.10828">
        <ele>2749.3</ele>
        <time>2024-07-08T12:38:52Z</time>
      </trkpt>
      <trkpt lat="45.12737" lon="6.10827">
        <ele>2749.4</ele>
        <time>2024-07-08T12:38:53Z</time>
      </trkpt>
      <trkpt lat="45.12737" lon="6.10826">
        <ele>2749.5</ele>
        <time>2024-07-08T12:38:54Z</time>
      </trkpt>
      <trkpt lat="45.12738" lon="6.10825">
        <ele>2749.6</ele>
        <time>2024-07-08T12:38:55Z</time>
      </trkpt>
      <trkpt lat="45.12738" lon="6.10824">
        <ele>2749.7</ele>
        <time>2024-07-08T12:38:56Z</time>
      </trkpt>
      <trkpt lat="45.12738" lon="6.10823">
        <ele>2749.9</ele>
        <time>2024-07-08T12:38:57Z</time>
      </trkpt>
      <trkpt lat="45.12738" lon="6.10821">
        <ele>2750</ele>
        <time>2024-07-08T12:38:58Z</time>
      </trkpt>
      <trkpt lat="45.12738" lon="6.1082">
        <ele>2750.1</ele>
        <time>2024-07-08T12:38:59Z</time>
      </trkpt>
      <trkpt lat="45.12738" lon="6.10819">
        <ele>2750.2</ele>
        <time>2024-07-08T12:39:00Z</time>
      </trkpt>
      <trkpt lat="45.12738" lon="6.10818">
        <ele>2750.3</ele>
        <time>2024-07-08T12:39:01Z</time>
      </trkpt>
      <trkpt lat="45.12738" lon="6.10817">
        <ele>2750.4</ele>
        <time>2024-07-08T12:39:02Z</time>
      </trkpt>
      <trkpt lat="45.12738" lon="6.10816">
        <ele>2750.5</ele>
        <time>2024-07-08T12:39:03Z</time>
      </trkpt>
      <trkpt lat="45.12739" lon="6.10815">
        <ele>2750.6</ele>
        <time>2024-07-08T12:39:04Z</time>
      </trkpt>
      <trkpt lat="45.12739" lon="6.10814">
        <ele>2750.7</ele>
        <time>2024-07-08T12:39:05Z</time>
      </trkpt>
      <trkpt lat="45.1274" lon="6.10814">
        <ele>2750.8</ele>
        <time>2024-07-08T12:39:06Z</time>
      </trkpt>
      <trkpt lat="45.1274" lon="6.10814">
        <ele>2750.8</ele>
        <time>2024-07-08T12:39:07Z</time>
      </trkpt>
      <trkpt lat="45.12741" lon="6.10813">
        <ele>2750.9</ele>
        <time>2024-07-08T12:39:08Z</time>
      </trkpt>
      <trkpt lat="45.12741" lon="6.10813">
        <ele>2751</ele>
        <time>2024-07-08T12:39:09Z</time>
      </trkpt>
      <trkpt lat="45.12741" lon="6.10814">
        <ele>2751</ele>
        <time>2024-07-08T12:39:10Z</time>
      </trkpt>
      <trkpt lat="45.12742" lon="6.10813">
        <ele>2751.1</ele>
        <time>2024-07-08T12:39:11Z</time>
      </trkpt>
      <trkpt lat="45.12743" lon="6.10813">
        <ele>2751.2</ele>
        <time>2024-07-08T12:39:12Z</time>
      </trkpt>
      <trkpt lat="45.12743" lon="6.10813">
        <ele>2751.2</ele>
        <time>2024-07-08T12:39:13Z</time>
      </trkpt>
      <trkpt lat="45.12744" lon="6.10813">
        <ele>2751.3</ele>
        <time>2024-07-08T12:39:14Z</time>
      </trkpt>
      <trkpt lat="45.12744" lon="6.10813">
        <ele>2751.4</ele>
        <time>2024-07-08T12:39:15Z</time>
      </trkpt>
      <trkpt lat="45.12745" lon="6.10814">
        <ele>2751.4</ele>
        <time>2024-07-08T12:39:16Z</time>
      </trkpt>
      <trkpt lat="45.12745" lon="6.10814">
        <ele>2751.5</ele>
        <time>2024-07-08T12:39:17Z</time>
      </trkpt>
      <trkpt lat="45.12746" lon="6.10814">
        <ele>2751.5</ele>
        <time>2024-07-08T12:39:18Z</time>
      </trkpt>
      <trkpt lat="45.12746" lon="6.10815">
        <ele>2751.6</ele>
        <time>2024-07-08T12:39:19Z</time>
      </trkpt>
      <trkpt lat="45.12747" lon="6.10815">
        <ele>2751.7</ele>
        <time>2024-07-08T12:39:20Z</time>
      </trkpt>
      <trkpt lat="45.12747" lon="6.10816">
        <ele>2751.8</ele>
        <time>2024-07-08T12:39:21Z</time>
      </trkpt>
      <trkpt lat="45.12748" lon="6.10816">
        <ele>2751.8</ele>
        <time>2024-07-08T12:39:22Z</time>
      </trkpt>
      <trkpt lat="45.12748" lon="6.10816">
        <ele>2751.9</ele>
        <time>2024-07-08T12:39:23Z</time>
      </trkpt>
      <trkpt lat="45.12749" lon="6.10817">
        <ele>2752</ele>
        <time>2024-07-08T12:39:24Z</time>
      </trkpt>
      <trkpt lat="45.1275" lon="6.10816">
        <ele>2752.1</ele>
        <time>2024-07-08T12:39:25Z</time>
      </trkpt>
      <trkpt lat="45.12751" lon="6.10816">
        <ele>2752.2</ele>
        <time>2024-07-08T12:39:26Z</time>
      </trkpt>
      <trkpt lat="45.12751" lon="6.10816">
        <ele>2752.3</ele>
        <time>2024-07-08T12:39:27Z</time>
      </trkpt>
      <trkpt lat="45.12752" lon="6.10816">
        <ele>2752.4</ele>
        <time>2024-07-08T12:39:28Z</time>
      </trkpt>
      <trkpt lat="45.12753" lon="6.10816">
        <ele>2752.4</ele>
        <time>2024-07-08T12:39:29Z</time>
      </trkpt>
      <trkpt lat="45.12753" lon="6.10816">
        <ele>2752.5</ele>
        <time>2024-07-08T12:39:30Z</time>
      </trkpt>
      <trkpt lat="45.12754" lon="6.10817">
        <ele>2752.6</ele>
        <time>2024-07-08T12:39:31Z</time>
      </trkpt>
      <trkpt lat="45.12755" lon="6.10817">
        <ele>2752.7</ele>
        <time>2024-07-08T12:39:32Z</time>
      </trkpt>
      <trkpt lat="45.12756" lon="6.10817">
        <ele>2752.8</ele>
        <time>2024-07-08T12:39:33Z</time>
      </trkpt>
      <trkpt lat="45.12757" lon="6.10817">
        <ele>2752.9</ele>
        <time>2024-07-08T12:39:34Z</time>
      </trkpt>
      <trkpt lat="45.12758" lon="6.10817">
        <ele>2753</ele>
        <time>2024-07-08T12:39:35Z</time>
      </trkpt>
      <trkpt lat="45.12758" lon="6.10817">
        <ele>2753.1</ele>
        <time>2024-07-08T12:39:36Z</time>
      </trkpt>
      <trkpt lat="45.12759" lon="6.10817">
        <ele>2753.2</ele>
        <time>2024-07-08T12:39:37Z</time>
      </trkpt>
      <trkpt lat="45.1276" lon="6.10818">
        <ele>2753.3</ele>
        <time>2024-07-08T12:39:38Z</time>
      </trkpt>
      <trkpt lat="45.12761" lon="6.10818">
        <ele>2753.5</ele>
        <time>2024-07-08T12:39:39Z</time>
      </trkpt>
      <trkpt lat="45.12762" lon="6.10818">
        <ele>2753.6</ele>
        <time>2024-07-08T12:39:40Z</time>
      </trkpt>
      <trkpt lat="45.12763" lon="6.10818">
        <ele>2753.7</ele>
        <time>2024-07-08T12:39:41Z</time>
      </trkpt>
      <trkpt lat="45.12764" lon="6.10819">
        <ele>2753.8</ele>
        <time>2024-07-08T12:39:42Z</time>
      </trkpt>
      <trkpt lat="45.12764" lon="6.10819">
        <ele>2753.9</ele>
        <time>2024-07-08T12:39:43Z</time>
      </trkpt>
      <trkpt lat="45.12765" lon="6.10819">
        <ele>2754</ele>
        <time>2024-07-08T12:39:44Z</time>
      </trkpt>
      <trkpt lat="45.12766" lon="6.10819">
        <ele>2754.2</ele>
        <time>2024-07-08T12:39:45Z</time>
      </trkpt>
      <trkpt lat="45.12767" lon="6.1082">
        <ele>2754.3</ele>
        <time>2024-07-08T12:39:46Z</time>
      </trkpt>
      <trkpt lat="45.12768" lon="6.1082">
        <ele>2754.4</ele>
        <time>2024-07-08T12:39:47Z</time>
      </trkpt>
      <trkpt lat="45.12769" lon="6.1082">
        <ele>2754.6</ele>
        <time>2024-07-08T12:39:48Z</time>
      </trkpt>
      <trkpt lat="45.1277" lon="6.1082">
        <ele>2754.7</ele>
        <time>2024-07-08T12:39:49Z</time>
      </trkpt>
      <trkpt lat="45.12771" lon="6.10821">
        <ele>2754.8</ele>
        <time>2024-07-08T12:39:50Z</time>
      </trkpt>
      <trkpt lat="45.12771" lon="6.10821">
        <ele>2754.9</ele>
        <time>2024-07-08T12:39:51Z</time>
      </trkpt>
      <trkpt lat="45.12772" lon="6.10821">
        <ele>2755</ele>
        <time>2024-07-08T12:39:52Z</time>
      </trkpt>
      <trkpt lat="45.12773" lon="6.10821">
        <ele>2755.2</ele>
        <time>2024-07-08T12:39:53Z</time>
      </trkpt>
      <trkpt lat="45.12774" lon="6.10821">
        <ele>2755.2</ele>
        <time>2024-07-08T12:39:54Z</time>
      </trkpt>
      <trkpt lat="45.12774" lon="6.10821">
        <ele>2755.4</ele>
        <time>2024-07-08T12:39:55Z</time>
      </trkpt>
      <trkpt lat="45.12775" lon="6.10822">
        <ele>2755.5</ele>
        <time>2024-07-08T12:39:56Z</time>
      </trkpt>
      <trkpt lat="45.12776" lon="6.10822">
        <ele>2755.6</ele>
        <time>2024-07-08T12:39:57Z</time>
      </trkpt>
      <trkpt lat="45.12777" lon="6.10823">
        <ele>2755.7</ele>
        <time>2024-07-08T12:39:58Z</time>
      </trkpt>
      <trkpt lat="45.12777" lon="6.10823">
        <ele>2755.9</ele>
        <time>2024-07-08T12:39:59Z</time>
      </trkpt>
      <trkpt lat="45.12778" lon="6.10823">
        <ele>2756</ele>
        <time>2024-07-08T12:40:00Z</time>
      </trkpt>
      <trkpt lat="45.12779" lon="6.10824">
        <ele>2756.1</ele>
        <time>2024-07-08T12:40:01Z</time>
      </trkpt>
      <trkpt lat="45.12779" lon="6.10825">
        <ele>2756.3</ele>
        <time>2024-07-08T12:40:02Z</time>
      </trkpt>
      <trkpt lat="45.1278" lon="6.10825">
        <ele>2756.4</ele>
        <time>2024-07-08T12:40:03Z</time>
      </trkpt>
      <trkpt lat="45.12781" lon="6.10825">
        <ele>2756.6</ele>
        <time>2024-07-08T12:40:04Z</time>
      </trkpt>
      <trkpt lat="45.12782" lon="6.10825">
        <ele>2756.7</ele>
        <time>2024-07-08T12:40:05Z</time>
      </trkpt>
      <trkpt lat="45.12783" lon="6.10825">
        <ele>2756.9</ele>
        <time>2024-07-08T12:40:06Z</time>
      </trkpt>
      <trkpt lat="45.12784" lon="6.10825">
        <ele>2757.1</ele>
        <time>2024-07-08T12:40:07Z</time>
      </trkpt>
      <trkpt lat="45.12785" lon="6.10825">
        <ele>2757.2</ele>
        <time>2024-07-08T12:40:08Z</time>
      </trkpt>
      <trkpt lat="45.12786" lon="6.10825">
        <ele>2757.4</ele>
        <time>2024-07-08T12:40:09Z</time>
      </trkpt>
      <trkpt lat="45.12787" lon="6.10825">
        <ele>2757.6</ele>
        <time>2024-07-08T12:40:10Z</time>
      </trkpt>
      <trkpt lat="45.12788" lon="6.10825">
        <ele>2757.8</ele>
        <time>2024-07-08T12:40:11Z</time>
      </trkpt>
      <trkpt lat="45.1279" lon="6.10825">
        <ele>2758</ele>
        <time>2024-07-08T12:40:12Z</time>
      </trkpt>
      <trkpt lat="45.12791" lon="6.10825">
        <ele>2758.1</ele>
        <time>2024-07-08T12:40:13Z</time>
      </trkpt>
      <trkpt lat="45.12791" lon="6.10825">
        <ele>2758.3</ele>
        <time>2024-07-08T12:40:14Z</time>
      </trkpt>
      <trkpt lat="45.12792" lon="6.10825">
        <ele>2758.4</ele>
        <time>2024-07-08T12:40:15Z</time>
      </trkpt>
      <trkpt lat="45.12793" lon="6.10826">
        <ele>2758.5</ele>
        <time>2024-07-08T12:40:16Z</time>
      </trkpt>
      <trkpt lat="45.12793" lon="6.10826">
        <ele>2758.6</ele>
        <time>2024-07-08T12:40:17Z</time>
      </trkpt>
      <trkpt lat="45.12794" lon="6.10827">
        <ele>2758.8</ele>
        <time>2024-07-08T12:40:18Z</time>
      </trkpt>
      <trkpt lat="45.12794" lon="6.10827">
        <ele>2758.8</ele>
        <time>2024-07-08T12:40:19Z</time>
      </trkpt>
      <trkpt lat="45.12795" lon="6.10827">
        <ele>2758.9</ele>
        <time>2024-07-08T12:40:20Z</time>
      </trkpt>
      <trkpt lat="45.12796" lon="6.10828">
        <ele>2759.1</ele>
        <time>2024-07-08T12:40:21Z</time>
      </trkpt>
      <trkpt lat="45.12796" lon="6.10828">
        <ele>2759.2</ele>
        <time>2024-07-08T12:40:22Z</time>
      </trkpt>
      <trkpt lat="45.12797" lon="6.10828">
        <ele>2759.3</ele>
        <time>2024-07-08T12:40:23Z</time>
      </trkpt>
      <trkpt lat="45.12797" lon="6.10828">
        <ele>2759.4</ele>
        <time>2024-07-08T12:40:24Z</time>
      </trkpt>
      <trkpt lat="45.12798" lon="6.10828">
        <ele>2759.5</ele>
        <time>2024-07-08T12:40:25Z</time>
      </trkpt>
      <trkpt lat="45.12799" lon="6.10828">
        <ele>2759.6</ele>
        <time>2024-07-08T12:40:26Z</time>
      </trkpt>
      <trkpt lat="45.12799" lon="6.10828">
        <ele>2759.6</ele>
        <time>2024-07-08T12:40:27Z</time>
      </trkpt>
      <trkpt lat="45.12799" lon="6.10828">
        <ele>2759.7</ele>
        <time>2024-07-08T12:40:28Z</time>
      </trkpt>
      <trkpt lat="45.128" lon="6.10828">
        <ele>2759.8</ele>
        <time>2024-07-08T12:40:29Z</time>
      </trkpt>
      <trkpt lat="45.12801" lon="6.10827">
        <ele>2759.9</ele>
        <time>2024-07-08T12:40:30Z</time>
      </trkpt>
      <trkpt lat="45.12802" lon="6.10827">
        <ele>2760.1</ele>
        <time>2024-07-08T12:40:31Z</time>
      </trkpt>
      <trkpt lat="45.12802" lon="6.10827">
        <ele>2760.2</ele>
        <time>2024-07-08T12:40:32Z</time>
      </trkpt>
      <trkpt lat="45.12803" lon="6.10827">
        <ele>2760.3</ele>
        <time>2024-07-08T12:40:33Z</time>
      </trkpt>
      <trkpt lat="45.12804" lon="6.10826">
        <ele>2760.5</ele>
        <time>2024-07-08T12:40:34Z</time>
      </trkpt>
      <trkpt lat="45.12805" lon="6.10826">
        <ele>2760.6</ele>
        <time>2024-07-08T12:40:35Z</time>
      </trkpt>
      <trkpt lat="45.12806" lon="6.10825">
        <ele>2760.8</ele>
        <time>2024-07-08T12:40:36Z</time>
      </trkpt>
      <trkpt lat="45.12807" lon="6.10825">
        <ele>2760.9</ele>
        <time>2024-07-08T12:40:37Z</time>
      </trkpt>
      <trkpt lat="45.12807" lon="6.10825">
        <ele>2761</ele>
        <time>2024-07-08T12:40:38Z</time>
      </trkpt>
      <trkpt lat="45.12807" lon="6.10825">
        <ele>2761.1</ele>
        <time>2024-07-08T12:40:39Z</time>
      </trkpt>
      <trkpt lat="45.12807" lon="6.10825">
        <ele>2761.1</ele>
        <time>2024-07-08T12:40:40Z</time>
      </trkpt>
      <trkpt lat="45.12808" lon="6.10825">
        <ele>2761.1</ele>
        <time>2024-07-08T12:40:41Z</time>
      </trkpt>
      <trkpt lat="45.12808" lon="6.10825">
        <ele>2761.1</ele>
        <time>2024-07-08T12:40:42Z</time>
      </trkpt>
      <trkpt lat="45.12808" lon="6.10825">
        <ele>2761.1</ele>
        <time>2024-07-08T12:40:43Z</time>
      </trkpt>
      <trkpt lat="45.12808" lon="6.10825">
        <ele>2761.1</ele>
        <time>2024-07-08T12:40:44Z</time>
      </trkpt>
      <trkpt lat="45.12808" lon="6.10825">
        <ele>2761.1</ele>
        <time>2024-07-08T12:40:45Z</time>
      </trkpt>
      <trkpt lat="45.12808" lon="6.10825">
        <ele>2761.1</ele>
        <time>2024-07-08T12:40:46Z</time>
      </trkpt>
      <trkpt lat="45.12808" lon="6.10825">
        <ele>2761.2</ele>
        <time>2024-07-08T12:40:47Z</time>
      </trkpt>
      <trkpt lat="45.12808" lon="6.10825">
        <ele>2761.2</ele>
        <time>2024-07-08T12:40:48Z</time>
      </trkpt>
      <trkpt lat="45.12808" lon="6.10825">
        <ele>2761.2</ele>
        <time>2024-07-08T12:40:49Z</time>
      </trkpt>
      <trkpt lat="45.12808" lon="6.10825">
        <ele>2761.2</ele>
        <time>2024-07-08T12:40:50Z</time>
      </trkpt>
      <trkpt lat="45.12808" lon="6.10825">
        <ele>2761.2</ele>
        <time>2024-07-08T12:40:51Z</time>
      </trkpt>
      <trkpt lat="45.12808" lon="6.10825">
        <ele>2761.2</ele>
        <time>2024-07-08T12:40:52Z</time>
      </trkpt>
      <trkpt lat="45.12808" lon="6.10825">
        <ele>2761.3</ele>
        <time>2024-07-08T12:40:53Z</time>
      </trkpt>
      <trkpt lat="45.12809" lon="6.10824">
        <ele>2761.3</ele>
        <time>2024-07-08T12:40:54Z</time>
      </trkpt>
      <trkpt lat="45.12809" lon="6.10824">
        <ele>2761.3</ele>
        <time>2024-07-08T12:40:55Z</time>
      </trkpt>
      <trkpt lat="45.12809" lon="6.10824">
        <ele>2761.3</ele>
        <time>2024-07-08T12:40:56Z</time>
      </trkpt>
      <trkpt lat="45.12809" lon="6.10824">
        <ele>2761.3</ele>
        <time>2024-07-08T12:40:57Z</time>
      </trkpt>
      <trkpt lat="45.12809" lon="6.10824">
        <ele>2761.3</ele>
        <time>2024-07-08T12:40:59Z</time>
      </trkpt>
      <trkpt lat="45.12809" lon="6.10824">
        <ele>2761.3</ele>
        <time>2024-07-08T12:41:00Z</time>
      </trkpt>
      <trkpt lat="45.12809" lon="6.10824">
        <ele>2761.3</ele>
        <time>2024-07-08T12:41:01Z</time>
      </trkpt>
      <trkpt lat="45.12809" lon="6.10824">
        <ele>2761.4</ele>
        <time>2024-07-08T12:41:02Z</time>
      </trkpt>
      <trkpt lat="45.12809" lon="6.10824">
        <ele>2761.4</ele>
        <time>2024-07-08T12:41:03Z</time>
      </trkpt>
      <trkpt lat="45.12809" lon="6.10824">
        <ele>2761.4</ele>
        <time>2024-07-08T12:41:04Z</time>
      </trkpt>
      <trkpt lat="45.12809" lon="6.10824">
        <ele>2761.4</ele>
        <time>2024-07-08T12:41:05Z</time>
      </trkpt>
      <trkpt lat="45.12809" lon="6.10824">
        <ele>2761.4</ele>
        <time>2024-07-08T12:41:06Z</time>
      </trkpt>
      <trkpt lat="45.12809" lon="6.10824">
        <ele>2761.4</ele>
        <time>2024-07-08T12:41:07Z</time>
      </trkpt>
      <trkpt lat="45.12809" lon="6.10824">
        <ele>2761.4</ele>
        <time>2024-07-08T12:41:08Z</time>
      </trkpt>
      <trkpt lat="45.1281" lon="6.10824">
        <ele>2761.5</ele>
        <time>2024-07-08T12:41:09Z</time>
      </trkpt>
      <trkpt lat="45.1281" lon="6.10824">
        <ele>2761.5</ele>
        <time>2024-07-08T12:41:10Z</time>
      </trkpt>
      <trkpt lat="45.1281" lon="6.10824">
        <ele>2761.5</ele>
        <time>2024-07-08T12:41:11Z</time>
      </trkpt>
      <trkpt lat="45.1281" lon="6.10824">
        <ele>2761.5</ele>
        <time>2024-07-08T12:41:12Z</time>
      </trkpt>
      <trkpt lat="45.1281" lon="6.10824">
        <ele>2761.5</ele>
        <time>2024-07-08T12:41:13Z</time>
      </trkpt>
      <trkpt lat="45.1281" lon="6.10824">
        <ele>2761.5</ele>
        <time>2024-07-08T12:41:14Z</time>
      </trkpt>
      <trkpt lat="45.1281" lon="6.10824">
        <ele>2761.5</ele>
        <time>2024-07-08T12:41:15Z</time>
      </trkpt>
      <trkpt lat="45.1281" lon="6.10824">
        <ele>2761.5</ele>
        <time>2024-07-08T12:41:16Z</time>
      </trkpt>
      <trkpt lat="45.1281" lon="6.10824">
        <ele>2761.6</ele>
        <time>2024-07-08T12:41:17Z</time>
      </trkpt>
      <trkpt lat="45.1281" lon="6.10824">
        <ele>2761.6</ele>
        <time>2024-07-08T12:41:18Z</time>
      </trkpt>
      <trkpt lat="45.1281" lon="6.10824">
        <ele>2761.6</ele>
        <time>2024-07-08T12:41:19Z</time>
      </trkpt>
      <trkpt lat="45.1281" lon="6.10824">
        <ele>2761.6</ele>
        <time>2024-07-08T12:41:20Z</time>
      </trkpt>
      <trkpt lat="45.1281" lon="6.10824">
        <ele>2761.6</ele>
        <time>2024-07-08T12:41:21Z</time>
      </trkpt>
      <trkpt lat="45.12812" lon="6.10822">
        <ele>2761.9</ele>
        <time>2024-07-08T12:41:22Z</time>
      </trkpt>
      <trkpt lat="45.12812" lon="6.1082">
        <ele>2762.1</ele>
        <time>2024-07-08T12:41:23Z</time>
      </trkpt>
      <trkpt lat="45.12813" lon="6.10818">
        <ele>2762.5</ele>
        <time>2024-07-08T12:41:24Z</time>
      </trkpt>
      <trkpt lat="45.12814" lon="6.10816">
        <ele>2762.6</ele>
        <time>2024-07-08T12:41:25Z</time>
      </trkpt>
      <trkpt lat="45.12814" lon="6.10815">
        <ele>2762.8</ele>
        <time>2024-07-08T12:41:26Z</time>
      </trkpt>
      <trkpt lat="45.12814" lon="6.10813">
        <ele>2763.1</ele>
        <time>2024-07-08T12:41:27Z</time>
      </trkpt>
      <trkpt lat="45.12814" lon="6.10811">
        <ele>2763.2</ele>
        <time>2024-07-08T12:41:28Z</time>
      </trkpt>
      <trkpt lat="45.12814" lon="6.1081">
        <ele>2763.4</ele>
        <time>2024-07-08T12:41:29Z</time>
      </trkpt>
      <trkpt lat="45.12813" lon="6.10808">
        <ele>2763.6</ele>
        <time>2024-07-08T12:41:30Z</time>
      </trkpt>
      <trkpt lat="45.12813" lon="6.10807">
        <ele>2763.8</ele>
        <time>2024-07-08T12:41:31Z</time>
      </trkpt>
      <trkpt lat="45.12812" lon="6.10806">
        <ele>2764</ele>
        <time>2024-07-08T12:41:32Z</time>
      </trkpt>
      <trkpt lat="45.12811" lon="6.10805">
        <ele>2764.1</ele>
        <time>2024-07-08T12:41:33Z</time>
      </trkpt>
      <trkpt lat="45.1281" lon="6.10805">
        <ele>2764.2</ele>
        <time>2024-07-08T12:41:34Z</time>
      </trkpt>
      <trkpt lat="45.1281" lon="6.10804">
        <ele>2764.4</ele>
        <time>2024-07-08T12:41:35Z</time>
      </trkpt>
      <trkpt lat="45.12809" lon="6.10804">
        <ele>2764.5</ele>
        <time>2024-07-08T12:41:36Z</time>
      </trkpt>
      <trkpt lat="45.12808" lon="6.10803">
        <ele>2764.7</ele>
        <time>2024-07-08T12:41:37Z</time>
      </trkpt>
      <trkpt lat="45.12808" lon="6.10802">
        <ele>2764.8</ele>
        <time>2024-07-08T12:41:38Z</time>
      </trkpt>
      <trkpt lat="45.12807" lon="6.10802">
        <ele>2764.9</ele>
        <time>2024-07-08T12:41:39Z</time>
      </trkpt>
      <trkpt lat="45.12806" lon="6.10801">
        <ele>2765</ele>
        <time>2024-07-08T12:41:40Z</time>
      </trkpt>
      <trkpt lat="45.12805" lon="6.10801">
        <ele>2765.2</ele>
        <time>2024-07-08T12:41:41Z</time>
      </trkpt>
      <trkpt lat="45.12804" lon="6.108">
        <ele>2765.4</ele>
        <time>2024-07-08T12:41:42Z</time>
      </trkpt>
      <trkpt lat="45.12803" lon="6.108">
        <ele>2765.5</ele>
        <time>2024-07-08T12:41:43Z</time>
      </trkpt>
      <trkpt lat="45.12803" lon="6.108">
        <ele>2765.6</ele>
        <time>2024-07-08T12:41:44Z</time>
      </trkpt>
      <trkpt lat="45.12802" lon="6.10799">
        <ele>2765.7</ele>
        <time>2024-07-08T12:41:45Z</time>
      </trkpt>
      <trkpt lat="45.12801" lon="6.10799">
        <ele>2765.9</ele>
        <time>2024-07-08T12:41:46Z</time>
      </trkpt>
      <trkpt lat="45.128" lon="6.10798">
        <ele>2766.1</ele>
        <time>2024-07-08T12:41:47Z</time>
      </trkpt>
      <trkpt lat="45.12799" lon="6.10798">
        <ele>2766.3</ele>
        <time>2024-07-08T12:41:48Z</time>
      </trkpt>
      <trkpt lat="45.12799" lon="6.10797">
        <ele>2766.4</ele>
        <time>2024-07-08T12:41:49Z</time>
      </trkpt>
      <trkpt lat="45.12798" lon="6.10796">
        <ele>2766.6</ele>
        <time>2024-07-08T12:41:50Z</time>
      </trkpt>
      <trkpt lat="45.12796" lon="6.10796">
        <ele>2766.8</ele>
        <time>2024-07-08T12:41:51Z</time>
      </trkpt>
      <trkpt lat="45.12796" lon="6.10795">
        <ele>2766.9</ele>
        <time>2024-07-08T12:41:52Z</time>
      </trkpt>
      <trkpt lat="45.12795" lon="6.10794">
        <ele>2767.1</ele>
        <time>2024-07-08T12:41:53Z</time>
      </trkpt>
      <trkpt lat="45.12794" lon="6.10794">
        <ele>2767.2</ele>
        <time>2024-07-08T12:41:54Z</time>
      </trkpt>
      <trkpt lat="45.12793" lon="6.10793">
        <ele>2767.4</ele>
        <time>2024-07-08T12:41:55Z</time>
      </trkpt>
      <trkpt lat="45.12792" lon="6.10793">
        <ele>2767.6</ele>
        <time>2024-07-08T12:41:56Z</time>
      </trkpt>
      <trkpt lat="45.12792" lon="6.10792">
        <ele>2767.7</ele>
        <time>2024-07-08T12:41:57Z</time>
      </trkpt>
      <trkpt lat="45.12791" lon="6.10792">
        <ele>2767.8</ele>
        <time>2024-07-08T12:41:58Z</time>
      </trkpt>
      <trkpt lat="45.1279" lon="6.10791">
        <ele>2768</ele>
        <time>2024-07-08T12:41:59Z</time>
      </trkpt>
      <trkpt lat="45.12789" lon="6.1079">
        <ele>2768.2</ele>
        <time>2024-07-08T12:42:00Z</time>
      </trkpt>
      <trkpt lat="45.12788" lon="6.10789">
        <ele>2768.4</ele>
        <time>2024-07-08T12:42:01Z</time>
      </trkpt>
      <trkpt lat="45.12788" lon="6.10788">
        <ele>2768.5</ele>
        <time>2024-07-08T12:42:02Z</time>
      </trkpt>
      <trkpt lat="45.12787" lon="6.10788">
        <ele>2768.7</ele>
        <time>2024-07-08T12:42:03Z</time>
      </trkpt>
      <trkpt lat="45.12786" lon="6.10787">
        <ele>2768.8</ele>
        <time>2024-07-08T12:42:04Z</time>
      </trkpt>
      <trkpt lat="45.12785" lon="6.10787">
        <ele>2769</ele>
        <time>2024-07-08T12:42:05Z</time>
      </trkpt>
      <trkpt lat="45.12784" lon="6.10787">
        <ele>2769.2</ele>
        <time>2024-07-08T12:42:06Z</time>
      </trkpt>
      <trkpt lat="45.12784" lon="6.10787">
        <ele>2769.3</ele>
        <time>2024-07-08T12:42:07Z</time>
      </trkpt>
      <trkpt lat="45.12783" lon="6.10787">
        <ele>2769.4</ele>
        <time>2024-07-08T12:42:08Z</time>
      </trkpt>
      <trkpt lat="45.12782" lon="6.10786">
        <ele>2769.6</ele>
        <time>2024-07-08T12:42:09Z</time>
      </trkpt>
      <trkpt lat="45.12781" lon="6.10785">
        <ele>2769.8</ele>
        <time>2024-07-08T12:42:10Z</time>
      </trkpt>
      <trkpt lat="45.12781" lon="6.10783">
        <ele>2770</ele>
        <time>2024-07-08T12:42:11Z</time>
      </trkpt>
      <trkpt lat="45.12781" lon="6.10782">
        <ele>2770.1</ele>
        <time>2024-07-08T12:42:12Z</time>
      </trkpt>
      <trkpt lat="45.1278" lon="6.10781">
        <ele>2770.2</ele>
        <time>2024-07-08T12:42:13Z</time>
      </trkpt>
      <trkpt lat="45.1278" lon="6.1078">
        <ele>2770.3</ele>
        <time>2024-07-08T12:42:14Z</time>
      </trkpt>
      <trkpt lat="45.1278" lon="6.10779">
        <ele>2770.4</ele>
        <time>2024-07-08T12:42:15Z</time>
      </trkpt>
      <trkpt lat="45.1278" lon="6.10778">
        <ele>2770.5</ele>
        <time>2024-07-08T12:42:16Z</time>
      </trkpt>
      <trkpt lat="45.1278" lon="6.10777">
        <ele>2770.7</ele>
        <time>2024-07-08T12:42:17Z</time>
      </trkpt>
      <trkpt lat="45.12781" lon="6.10776">
        <ele>2770.8</ele>
        <time>2024-07-08T12:42:18Z</time>
      </trkpt>
      <trkpt lat="45.12781" lon="6.10775">
        <ele>2770.9</ele>
        <time>2024-07-08T12:42:19Z</time>
      </trkpt>
      <trkpt lat="45.12783" lon="6.10774">
        <ele>2771.1</ele>
        <time>2024-07-08T12:42:20Z</time>
      </trkpt>
      <trkpt lat="45.12783" lon="6.10773">
        <ele>2771.2</ele>
        <time>2024-07-08T12:42:21Z</time>
      </trkpt>
      <trkpt lat="45.12785" lon="6.10773">
        <ele>2771.3</ele>
        <time>2024-07-08T12:42:22Z</time>
      </trkpt>
      <trkpt lat="45.12786" lon="6.10773">
        <ele>2771.5</ele>
        <time>2024-07-08T12:42:23Z</time>
      </trkpt>
      <trkpt lat="45.12787" lon="6.10773">
        <ele>2771.6</ele>
        <time>2024-07-08T12:42:24Z</time>
      </trkpt>
      <trkpt lat="45.12788" lon="6.10773">
        <ele>2771.7</ele>
        <time>2024-07-08T12:42:25Z</time>
      </trkpt>
      <trkpt lat="45.12788" lon="6.10773">
        <ele>2771.8</ele>
        <time>2024-07-08T12:42:26Z</time>
      </trkpt>
      <trkpt lat="45.12789" lon="6.10773">
        <ele>2771.9</ele>
        <time>2024-07-08T12:42:27Z</time>
      </trkpt>
      <trkpt lat="45.1279" lon="6.10773">
        <ele>2772</ele>
        <time>2024-07-08T12:42:28Z</time>
      </trkpt>
      <trkpt lat="45.12791" lon="6.10774">
        <ele>2772.1</ele>
        <time>2024-07-08T12:42:29Z</time>
      </trkpt>
      <trkpt lat="45.12791" lon="6.10775">
        <ele>2772.2</ele>
        <time>2024-07-08T12:42:30Z</time>
      </trkpt>
      <trkpt lat="45.12792" lon="6.10775">
        <ele>2772.2</ele>
        <time>2024-07-08T12:42:31Z</time>
      </trkpt>
      <trkpt lat="45.12793" lon="6.10776">
        <ele>2772.3</ele>
        <time>2024-07-08T12:42:32Z</time>
      </trkpt>
      <trkpt lat="45.12794" lon="6.10776">
        <ele>2772.4</ele>
        <time>2024-07-08T12:42:33Z</time>
      </trkpt>
      <trkpt lat="45.12794" lon="6.10776">
        <ele>2772.5</ele>
        <time>2024-07-08T12:42:34Z</time>
      </trkpt>
      <trkpt lat="45.12795" lon="6.10777">
        <ele>2772.6</ele>
        <time>2024-07-08T12:42:35Z</time>
      </trkpt>
      <trkpt lat="45.12796" lon="6.10777">
        <ele>2772.7</ele>
        <time>2024-07-08T12:42:36Z</time>
      </trkpt>
      <trkpt lat="45.12798" lon="6.10778">
        <ele>2772.9</ele>
        <time>2024-07-08T12:42:37Z</time>
      </trkpt>
      <trkpt lat="45.12798" lon="6.10778">
        <ele>2773</ele>
        <time>2024-07-08T12:42:38Z</time>
      </trkpt>
      <trkpt lat="45.12799" lon="6.10778">
        <ele>2773</ele>
        <time>2024-07-08T12:42:39Z</time>
      </trkpt>
      <trkpt lat="45.128" lon="6.10778">
        <ele>2773.1</ele>
        <time>2024-07-08T12:42:40Z</time>
      </trkpt>
      <trkpt lat="45.12801" lon="6.10779">
        <ele>2773.3</ele>
        <time>2024-07-08T12:42:41Z</time>
      </trkpt>
      <trkpt lat="45.12802" lon="6.10779">
        <ele>2773.3</ele>
        <time>2024-07-08T12:42:42Z</time>
      </trkpt>
      <trkpt lat="45.12802" lon="6.10779">
        <ele>2773.4</ele>
        <time>2024-07-08T12:42:43Z</time>
      </trkpt>
      <trkpt lat="45.12803" lon="6.10779">
        <ele>2773.5</ele>
        <time>2024-07-08T12:42:44Z</time>
      </trkpt>
      <trkpt lat="45.12804" lon="6.10778">
        <ele>2773.6</ele>
        <time>2024-07-08T12:42:45Z</time>
      </trkpt>
      <trkpt lat="45.12805" lon="6.10778">
        <ele>2773.7</ele>
        <time>2024-07-08T12:42:46Z</time>
      </trkpt>
      <trkpt lat="45.12806" lon="6.10778">
        <ele>2773.8</ele>
        <time>2024-07-08T12:42:47Z</time>
      </trkpt>
      <trkpt lat="45.12806" lon="6.10777">
        <ele>2773.9</ele>
        <time>2024-07-08T12:42:48Z</time>
      </trkpt>
      <trkpt lat="45.12807" lon="6.10777">
        <ele>2774</ele>
        <time>2024-07-08T12:42:49Z</time>
      </trkpt>
      <trkpt lat="45.12808" lon="6.10777">
        <ele>2774.1</ele>
        <time>2024-07-08T12:42:50Z</time>
      </trkpt>
      <trkpt lat="45.12809" lon="6.10777">
        <ele>2774.2</ele>
        <time>2024-07-08T12:42:51Z</time>
      </trkpt>
      <trkpt lat="45.12809" lon="6.10777">
        <ele>2774.2</ele>
        <time>2024-07-08T12:42:52Z</time>
      </trkpt>
      <trkpt lat="45.1281" lon="6.10777">
        <ele>2774.3</ele>
        <time>2024-07-08T12:42:53Z</time>
      </trkpt>
      <trkpt lat="45.12811" lon="6.10777">
        <ele>2774.4</ele>
        <time>2024-07-08T12:42:54Z</time>
      </trkpt>
      <trkpt lat="45.12812" lon="6.10777">
        <ele>2774.5</ele>
        <time>2024-07-08T12:42:55Z</time>
      </trkpt>
      <trkpt lat="45.12813" lon="6.10777">
        <ele>2774.6</ele>
        <time>2024-07-08T12:42:56Z</time>
      </trkpt>
      <trkpt lat="45.12813" lon="6.10777">
        <ele>2774.6</ele>
        <time>2024-07-08T12:42:57Z</time>
      </trkpt>
      <trkpt lat="45.12814" lon="6.10777">
        <ele>2774.7</ele>
        <time>2024-07-08T12:42:58Z</time>
      </trkpt>
      <trkpt lat="45.12815" lon="6.10777">
        <ele>2774.8</ele>
        <time>2024-07-08T12:42:59Z</time>
      </trkpt>
      <trkpt lat="45.12816" lon="6.10777">
        <ele>2774.9</ele>
        <time>2024-07-08T12:43:00Z</time>
      </trkpt>
      <trkpt lat="45.12816" lon="6.10777">
        <ele>2775</ele>
        <time>2024-07-08T12:43:01Z</time>
      </trkpt>
      <trkpt lat="45.12817" lon="6.10777">
        <ele>2775.1</ele>
        <time>2024-07-08T12:43:02Z</time>
      </trkpt>
      <trkpt lat="45.12818" lon="6.10777">
        <ele>2775.2</ele>
        <time>2024-07-08T12:43:03Z</time>
      </trkpt>
      <trkpt lat="45.12819" lon="6.10777">
        <ele>2775.3</ele>
        <time>2024-07-08T12:43:04Z</time>
      </trkpt>
      <trkpt lat="45.1282" lon="6.10777">
        <ele>2775.5</ele>
        <time>2024-07-08T12:43:05Z</time>
      </trkpt>
      <trkpt lat="45.12821" lon="6.10777">
        <ele>2775.5</ele>
        <time>2024-07-08T12:43:06Z</time>
      </trkpt>
      <trkpt lat="45.12822" lon="6.10778">
        <ele>2775.6</ele>
        <time>2024-07-08T12:43:07Z</time>
      </trkpt>
      <trkpt lat="45.12823" lon="6.10778">
        <ele>2775.8</ele>
        <time>2024-07-08T12:43:08Z</time>
      </trkpt>
      <trkpt lat="45.12823" lon="6.10778">
        <ele>2775.9</ele>
        <time>2024-07-08T12:43:09Z</time>
      </trkpt>
      <trkpt lat="45.12824" lon="6.10778">
        <ele>2776</ele>
        <time>2024-07-08T12:43:10Z</time>
      </trkpt>
      <trkpt lat="45.12825" lon="6.10778">
        <ele>2776.1</ele>
        <time>2024-07-08T12:43:11Z</time>
      </trkpt>
      <trkpt lat="45.12826" lon="6.10778">
        <ele>2776.2</ele>
        <time>2024-07-08T12:43:12Z</time>
      </trkpt>
      <trkpt lat="45.12827" lon="6.10778">
        <ele>2776.3</ele>
        <time>2024-07-08T12:43:13Z</time>
      </trkpt>
      <trkpt lat="45.12827" lon="6.10778">
        <ele>2776.4</ele>
        <time>2024-07-08T12:43:14Z</time>
      </trkpt>
      <trkpt lat="45.12828" lon="6.10778">
        <ele>2776.5</ele>
        <time>2024-07-08T12:43:15Z</time>
      </trkpt>
      <trkpt lat="45.12829" lon="6.10778">
        <ele>2776.7</ele>
        <time>2024-07-08T12:43:16Z</time>
      </trkpt>
      <trkpt lat="45.1283" lon="6.10777">
        <ele>2776.8</ele>
        <time>2024-07-08T12:43:17Z</time>
      </trkpt>
      <trkpt lat="45.12831" lon="6.10777">
        <ele>2776.9</ele>
        <time>2024-07-08T12:43:18Z</time>
      </trkpt>
      <trkpt lat="45.12832" lon="6.10777">
        <ele>2777</ele>
        <time>2024-07-08T12:43:19Z</time>
      </trkpt>
      <trkpt lat="45.12833" lon="6.10777">
        <ele>2777.2</ele>
        <time>2024-07-08T12:43:20Z</time>
      </trkpt>
      <trkpt lat="45.12834" lon="6.10777">
        <ele>2777.3</ele>
        <time>2024-07-08T12:43:21Z</time>
      </trkpt>
      <trkpt lat="45.12834" lon="6.10777">
        <ele>2777.4</ele>
        <time>2024-07-08T12:43:22Z</time>
      </trkpt>
      <trkpt lat="45.12835" lon="6.10776">
        <ele>2777.6</ele>
        <time>2024-07-08T12:43:23Z</time>
      </trkpt>
      <trkpt lat="45.12836" lon="6.10776">
        <ele>2777.7</ele>
        <time>2024-07-08T12:43:24Z</time>
      </trkpt>
      <trkpt lat="45.12837" lon="6.10775">
        <ele>2777.8</ele>
        <time>2024-07-08T12:43:25Z</time>
      </trkpt>
      <trkpt lat="45.12837" lon="6.10774">
        <ele>2777.9</ele>
        <time>2024-07-08T12:43:26Z</time>
      </trkpt>
      <trkpt lat="45.12838" lon="6.10773">
        <ele>2778</ele>
        <time>2024-07-08T12:43:27Z</time>
      </trkpt>
      <trkpt lat="45.12838" lon="6.10771">
        <ele>2778.3</ele>
        <time>2024-07-08T12:43:28Z</time>
      </trkpt>
      <trkpt lat="45.12838" lon="6.1077">
        <ele>2778.4</ele>
        <time>2024-07-08T12:43:29Z</time>
      </trkpt>
      <trkpt lat="45.12838" lon="6.10769">
        <ele>2778.5</ele>
        <time>2024-07-08T12:43:30Z</time>
      </trkpt>
      <trkpt lat="45.12838" lon="6.10768">
        <ele>2778.6</ele>
        <time>2024-07-08T12:43:31Z</time>
      </trkpt>
      <trkpt lat="45.12837" lon="6.10767">
        <ele>2778.7</ele>
        <time>2024-07-08T12:43:32Z</time>
      </trkpt>
      <trkpt lat="45.12836" lon="6.10766">
        <ele>2778.9</ele>
        <time>2024-07-08T12:43:33Z</time>
      </trkpt>
      <trkpt lat="45.12835" lon="6.10766">
        <ele>2779</ele>
        <time>2024-07-08T12:43:34Z</time>
      </trkpt>
      <trkpt lat="45.12834" lon="6.10766">
        <ele>2779.2</ele>
        <time>2024-07-08T12:43:35Z</time>
      </trkpt>
      <trkpt lat="45.12833" lon="6.10766">
        <ele>2779.4</ele>
        <time>2024-07-08T12:43:36Z</time>
      </trkpt>
      <trkpt lat="45.12832" lon="6.10766">
        <ele>2779.5</ele>
        <time>2024-07-08T12:43:37Z</time>
      </trkpt>
      <trkpt lat="45.12831" lon="6.10766">
        <ele>2779.6</ele>
        <time>2024-07-08T12:43:38Z</time>
      </trkpt>
      <trkpt lat="45.1283" lon="6.10766">
        <ele>2779.8</ele>
        <time>2024-07-08T12:43:39Z</time>
      </trkpt>
      <trkpt lat="45.12829" lon="6.10765">
        <ele>2779.9</ele>
        <time>2024-07-08T12:43:40Z</time>
      </trkpt>
      <trkpt lat="45.12828" lon="6.10765">
        <ele>2780</ele>
        <time>2024-07-08T12:43:41Z</time>
      </trkpt>
      <trkpt lat="45.12828" lon="6.10765">
        <ele>2780</ele>
        <time>2024-07-08T12:43:42Z</time>
      </trkpt>
      <trkpt lat="45.12828" lon="6.10764">
        <ele>2780.2</ele>
        <time>2024-07-08T12:43:43Z</time>
      </trkpt>
      <trkpt lat="45.12827" lon="6.10764">
        <ele>2780.3</ele>
        <time>2024-07-08T12:43:44Z</time>
      </trkpt>
      <trkpt lat="45.12826" lon="6.10763">
        <ele>2780.4</ele>
        <time>2024-07-08T12:43:45Z</time>
      </trkpt>
      <trkpt lat="45.12825" lon="6.10763">
        <ele>2780.5</ele>
        <time>2024-07-08T12:43:46Z</time>
      </trkpt>
      <trkpt lat="45.12825" lon="6.10762">
        <ele>2780.6</ele>
        <time>2024-07-08T12:43:47Z</time>
      </trkpt>
      <trkpt lat="45.12824" lon="6.10762">
        <ele>2780.7</ele>
        <time>2024-07-08T12:43:48Z</time>
      </trkpt>
      <trkpt lat="45.12823" lon="6.10762">
        <ele>2780.8</ele>
        <time>2024-07-08T12:43:49Z</time>
      </trkpt>
      <trkpt lat="45.12823" lon="6.10762">
        <ele>2780.9</ele>
        <time>2024-07-08T12:43:50Z</time>
      </trkpt>
      <trkpt lat="45.12822" lon="6.10761">
        <ele>2781</ele>
        <time>2024-07-08T12:43:51Z</time>
      </trkpt>
      <trkpt lat="45.12821" lon="6.10761">
        <ele>2781.1</ele>
        <time>2024-07-08T12:43:52Z</time>
      </trkpt>
      <trkpt lat="45.12821" lon="6.1076">
        <ele>2781.2</ele>
        <time>2024-07-08T12:43:53Z</time>
      </trkpt>
      <trkpt lat="45.1282" lon="6.1076">
        <ele>2781.4</ele>
        <time>2024-07-08T12:43:54Z</time>
      </trkpt>
      <trkpt lat="45.12819" lon="6.1076">
        <ele>2781.5</ele>
        <time>2024-07-08T12:43:55Z</time>
      </trkpt>
      <trkpt lat="45.12819" lon="6.1076">
        <ele>2781.6</ele>
        <time>2024-07-08T12:43:56Z</time>
      </trkpt>
      <trkpt lat="45.12818" lon="6.10759">
        <ele>2781.7</ele>
        <time>2024-07-08T12:43:57Z</time>
      </trkpt>
      <trkpt lat="45.12817" lon="6.10759">
        <ele>2781.8</ele>
        <time>2024-07-08T12:43:58Z</time>
      </trkpt>
      <trkpt lat="45.12816" lon="6.10759">
        <ele>2781.9</ele>
        <time>2024-07-08T12:43:59Z</time>
      </trkpt>
      <trkpt lat="45.12816" lon="6.10759">
        <ele>2782.1</ele>
        <time>2024-07-08T12:44:00Z</time>
      </trkpt>
      <trkpt lat="45.12815" lon="6.10758">
        <ele>2782.2</ele>
        <time>2024-07-08T12:44:01Z</time>
      </trkpt>
      <trkpt lat="45.12814" lon="6.10758">
        <ele>2782.4</ele>
        <time>2024-07-08T12:44:02Z</time>
      </trkpt>
      <trkpt lat="45.12814" lon="6.10757">
        <ele>2782.5</ele>
        <time>2024-07-08T12:44:03Z</time>
      </trkpt>
      <trkpt lat="45.12813" lon="6.10755">
        <ele>2782.7</ele>
        <time>2024-07-08T12:44:04Z</time>
      </trkpt>
      <trkpt lat="45.12812" lon="6.10755">
        <ele>2782.8</ele>
        <time>2024-07-08T12:44:05Z</time>
      </trkpt>
      <trkpt lat="45.12812" lon="6.10754">
        <ele>2782.9</ele>
        <time>2024-07-08T12:44:06Z</time>
      </trkpt>
      <trkpt lat="45.12811" lon="6.10753">
        <ele>2783.1</ele>
        <time>2024-07-08T12:44:07Z</time>
      </trkpt>
      <trkpt lat="45.1281" lon="6.10752">
        <ele>2783.3</ele>
        <time>2024-07-08T12:44:08Z</time>
      </trkpt>
      <trkpt lat="45.1281" lon="6.10751">
        <ele>2783.4</ele>
        <time>2024-07-08T12:44:09Z</time>
      </trkpt>
      <trkpt lat="45.12809" lon="6.1075">
        <ele>2783.5</ele>
        <time>2024-07-08T12:44:10Z</time>
      </trkpt>
      <trkpt lat="45.12809" lon="6.10749">
        <ele>2783.6</ele>
        <time>2024-07-08T12:44:11Z</time>
      </trkpt>
      <trkpt lat="45.12808" lon="6.10748">
        <ele>2783.8</ele>
        <time>2024-07-08T12:44:12Z</time>
      </trkpt>
      <trkpt lat="45.12808" lon="6.10747">
        <ele>2783.9</ele>
        <time>2024-07-08T12:44:13Z</time>
      </trkpt>
      <trkpt lat="45.12808" lon="6.10745">
        <ele>2784.2</ele>
        <time>2024-07-08T12:44:14Z</time>
      </trkpt>
      <trkpt lat="45.12808" lon="6.10744">
        <ele>2784.3</ele>
        <time>2024-07-08T12:44:15Z</time>
      </trkpt>
      <trkpt lat="45.12808" lon="6.10743">
        <ele>2784.4</ele>
        <time>2024-07-08T12:44:16Z</time>
      </trkpt>
      <trkpt lat="45.12807" lon="6.10742">
        <ele>2784.5</ele>
        <time>2024-07-08T12:44:17Z</time>
      </trkpt>
      <trkpt lat="45.12807" lon="6.1074">
        <ele>2784.7</ele>
        <time>2024-07-08T12:44:18Z</time>
      </trkpt>
      <trkpt lat="45.12807" lon="6.1074">
        <ele>2784.8</ele>
        <time>2024-07-08T12:44:19Z</time>
      </trkpt>
      <trkpt lat="45.12807" lon="6.10738">
        <ele>2784.9</ele>
        <time>2024-07-08T12:44:20Z</time>
      </trkpt>
      <trkpt lat="45.12807" lon="6.10737">
        <ele>2785</ele>
        <time>2024-07-08T12:44:21Z</time>
      </trkpt>
      <trkpt lat="45.12808" lon="6.10735">
        <ele>2785.3</ele>
        <time>2024-07-08T12:44:22Z</time>
      </trkpt>
      <trkpt lat="45.12808" lon="6.10734">
        <ele>2785.4</ele>
        <time>2024-07-08T12:44:23Z</time>
      </trkpt>
      <trkpt lat="45.12808" lon="6.10733">
        <ele>2785.5</ele>
        <time>2024-07-08T12:44:24Z</time>
      </trkpt>
      <trkpt lat="45.12808" lon="6.10732">
        <ele>2785.6</ele>
        <time>2024-07-08T12:44:25Z</time>
      </trkpt>
      <trkpt lat="45.12809" lon="6.10731">
        <ele>2785.8</ele>
        <time>2024-07-08T12:44:26Z</time>
      </trkpt>
      <trkpt lat="45.12809" lon="6.1073">
        <ele>2785.9</ele>
        <time>2024-07-08T12:44:27Z</time>
      </trkpt>
      <trkpt lat="45.1281" lon="6.10729">
        <ele>2786</ele>
        <time>2024-07-08T12:44:28Z</time>
      </trkpt>
      <trkpt lat="45.1281" lon="6.10728">
        <ele>2786.2</ele>
        <time>2024-07-08T12:44:29Z</time>
      </trkpt>
      <trkpt lat="45.12811" lon="6.10727">
        <ele>2786.3</ele>
        <time>2024-07-08T12:44:30Z</time>
      </trkpt>
      <trkpt lat="45.12811" lon="6.10727">
        <ele>2786.5</ele>
        <time>2024-07-08T12:44:31Z</time>
      </trkpt>
      <trkpt lat="45.12812" lon="6.10726">
        <ele>2786.6</ele>
        <time>2024-07-08T12:44:32Z</time>
      </trkpt>
      <trkpt lat="45.12813" lon="6.10726">
        <ele>2786.7</ele>
        <time>2024-07-08T12:44:33Z</time>
      </trkpt>
      <trkpt lat="45.12813" lon="6.10726">
        <ele>2786.9</ele>
        <time>2024-07-08T12:44:34Z</time>
      </trkpt>
      <trkpt lat="45.12814" lon="6.10725">
        <ele>2787</ele>
        <time>2024-07-08T12:44:35Z</time>
      </trkpt>
      <trkpt lat="45.12815" lon="6.10726">
        <ele>2787.1</ele>
        <time>2024-07-08T12:44:36Z</time>
      </trkpt>
      <trkpt lat="45.12816" lon="6.10726">
        <ele>2787.2</ele>
        <time>2024-07-08T12:44:37Z</time>
      </trkpt>
      <trkpt lat="45.12816" lon="6.10726">
        <ele>2787.4</ele>
        <time>2024-07-08T12:44:38Z</time>
      </trkpt>
      <trkpt lat="45.12817" lon="6.10726">
        <ele>2787.5</ele>
        <time>2024-07-08T12:44:39Z</time>
      </trkpt>
      <trkpt lat="45.12818" lon="6.10726">
        <ele>2787.6</ele>
        <time>2024-07-08T12:44:40Z</time>
      </trkpt>
      <trkpt lat="45.12818" lon="6.10726">
        <ele>2787.7</ele>
        <time>2024-07-08T12:44:41Z</time>
      </trkpt>
      <trkpt lat="45.12818" lon="6.10727">
        <ele>2787.8</ele>
        <time>2024-07-08T12:44:42Z</time>
      </trkpt>
      <trkpt lat="45.12819" lon="6.10727">
        <ele>2787.9</ele>
        <time>2024-07-08T12:44:43Z</time>
      </trkpt>
      <trkpt lat="45.1282" lon="6.10727">
        <ele>2788</ele>
        <time>2024-07-08T12:44:44Z</time>
      </trkpt>
      <trkpt lat="45.1282" lon="6.10727">
        <ele>2788.1</ele>
        <time>2024-07-08T12:44:45Z</time>
      </trkpt>
      <trkpt lat="45.12821" lon="6.10726">
        <ele>2788.2</ele>
        <time>2024-07-08T12:44:46Z</time>
      </trkpt>
      <trkpt lat="45.12821" lon="6.10726">
        <ele>2788.3</ele>
        <time>2024-07-08T12:44:47Z</time>
      </trkpt>
      <trkpt lat="45.12822" lon="6.10726">
        <ele>2788.4</ele>
        <time>2024-07-08T12:44:48Z</time>
      </trkpt>
      <trkpt lat="45.12822" lon="6.10726">
        <ele>2788.5</ele>
        <time>2024-07-08T12:44:49Z</time>
      </trkpt>
      <trkpt lat="45.12822" lon="6.10726">
        <ele>2788.5</ele>
        <time>2024-07-08T12:44:50Z</time>
      </trkpt>
      <trkpt lat="45.12823" lon="6.10725">
        <ele>2788.6</ele>
        <time>2024-07-08T12:44:51Z</time>
      </trkpt>
      <trkpt lat="45.12823" lon="6.10725">
        <ele>2788.7</ele>
        <time>2024-07-08T12:44:52Z</time>
      </trkpt>
      <trkpt lat="45.12824" lon="6.10725">
        <ele>2788.8</ele>
        <time>2024-07-08T12:44:53Z</time>
      </trkpt>
      <trkpt lat="45.12825" lon="6.10724">
        <ele>2788.9</ele>
        <time>2024-07-08T12:44:54Z</time>
      </trkpt>
      <trkpt lat="45.12825" lon="6.10724">
        <ele>2789.1</ele>
        <time>2024-07-08T12:44:55Z</time>
      </trkpt>
      <trkpt lat="45.12826" lon="6.10723">
        <ele>2789.3</ele>
        <time>2024-07-08T12:44:56Z</time>
      </trkpt>
      <trkpt lat="45.12827" lon="6.10723">
        <ele>2789.3</ele>
        <time>2024-07-08T12:44:57Z</time>
      </trkpt>
      <trkpt lat="45.12827" lon="6.10722">
        <ele>2789.5</ele>
        <time>2024-07-08T12:44:58Z</time>
      </trkpt>
      <trkpt lat="45.12828" lon="6.10722">
        <ele>2789.6</ele>
        <time>2024-07-08T12:44:59Z</time>
      </trkpt>
      <trkpt lat="45.12828" lon="6.10722">
        <ele>2789.7</ele>
        <time>2024-07-08T12:45:00Z</time>
      </trkpt>
      <trkpt lat="45.12829" lon="6.10722">
        <ele>2789.9</ele>
        <time>2024-07-08T12:45:01Z</time>
      </trkpt>
      <trkpt lat="45.1283" lon="6.10721">
        <ele>2790</ele>
        <time>2024-07-08T12:45:02Z</time>
      </trkpt>
      <trkpt lat="45.1283" lon="6.1072">
        <ele>2790.1</ele>
        <time>2024-07-08T12:45:03Z</time>
      </trkpt>
      <trkpt lat="45.12831" lon="6.10719">
        <ele>2790.3</ele>
        <time>2024-07-08T12:45:04Z</time>
      </trkpt>
      <trkpt lat="45.12831" lon="6.10718">
        <ele>2790.4</ele>
        <time>2024-07-08T12:45:05Z</time>
      </trkpt>
      <trkpt lat="45.12831" lon="6.10716">
        <ele>2790.6</ele>
        <time>2024-07-08T12:45:06Z</time>
      </trkpt>
      <trkpt lat="45.1283" lon="6.10715">
        <ele>2790.8</ele>
        <time>2024-07-08T12:45:07Z</time>
      </trkpt>
      <trkpt lat="45.1283" lon="6.10714">
        <ele>2790.9</ele>
        <time>2024-07-08T12:45:08Z</time>
      </trkpt>
      <trkpt lat="45.12829" lon="6.10713">
        <ele>2791</ele>
        <time>2024-07-08T12:45:09Z</time>
      </trkpt>
      <trkpt lat="45.12829" lon="6.10712">
        <ele>2791.2</ele>
        <time>2024-07-08T12:45:10Z</time>
      </trkpt>
      <trkpt lat="45.12829" lon="6.10711">
        <ele>2791.3</ele>
        <time>2024-07-08T12:45:11Z</time>
      </trkpt>
      <trkpt lat="45.12829" lon="6.1071">
        <ele>2791.4</ele>
        <time>2024-07-08T12:45:12Z</time>
      </trkpt>
      <trkpt lat="45.12829" lon="6.10709">
        <ele>2791.5</ele>
        <time>2024-07-08T12:45:13Z</time>
      </trkpt>
      <trkpt lat="45.12829" lon="6.10708">
        <ele>2791.7</ele>
        <time>2024-07-08T12:45:14Z</time>
      </trkpt>
      <trkpt lat="45.12829" lon="6.10708">
        <ele>2791.7</ele>
        <time>2024-07-08T12:45:15Z</time>
      </trkpt>
      <trkpt lat="45.12829" lon="6.10706">
        <ele>2791.8</ele>
        <time>2024-07-08T12:45:16Z</time>
      </trkpt>
      <trkpt lat="45.12828" lon="6.10706">
        <ele>2791.9</ele>
        <time>2024-07-08T12:45:17Z</time>
      </trkpt>
      <trkpt lat="45.12828" lon="6.10706">
        <ele>2791.9</ele>
        <time>2024-07-08T12:45:18Z</time>
      </trkpt>
      <trkpt lat="45.12828" lon="6.10704">
        <ele>2792</ele>
        <time>2024-07-08T12:45:19Z</time>
      </trkpt>
      <trkpt lat="45.12828" lon="6.10704">
        <ele>2792.1</ele>
        <time>2024-07-08T12:45:20Z</time>
      </trkpt>
      <trkpt lat="45.12827" lon="6.10703">
        <ele>2792.2</ele>
        <time>2024-07-08T12:45:21Z</time>
      </trkpt>
      <trkpt lat="45.12828" lon="6.10702">
        <ele>2792.3</ele>
        <time>2024-07-08T12:45:22Z</time>
      </trkpt>
      <trkpt lat="45.12827" lon="6.10701">
        <ele>2792.3</ele>
        <time>2024-07-08T12:45:23Z</time>
      </trkpt>
      <trkpt lat="45.12827" lon="6.107">
        <ele>2792.5</ele>
        <time>2024-07-08T12:45:24Z</time>
      </trkpt>
      <trkpt lat="45.12827" lon="6.10699">
        <ele>2792.5</ele>
        <time>2024-07-08T12:45:25Z</time>
      </trkpt>
      <trkpt lat="45.12827" lon="6.10698">
        <ele>2792.6</ele>
        <time>2024-07-08T12:45:26Z</time>
      </trkpt>
      <trkpt lat="45.12827" lon="6.10697">
        <ele>2792.7</ele>
        <time>2024-07-08T12:45:27Z</time>
      </trkpt>
      <trkpt lat="45.12828" lon="6.10696">
        <ele>2792.8</ele>
        <time>2024-07-08T12:45:28Z</time>
      </trkpt>
      <trkpt lat="45.12828" lon="6.10694">
        <ele>2792.9</ele>
        <time>2024-07-08T12:45:29Z</time>
      </trkpt>
      <trkpt lat="45.12829" lon="6.10694">
        <ele>2793</ele>
        <time>2024-07-08T12:45:30Z</time>
      </trkpt>
      <trkpt lat="45.12829" lon="6.10693">
        <ele>2793</ele>
        <time>2024-07-08T12:45:31Z</time>
      </trkpt>
      <trkpt lat="45.1283" lon="6.10692">
        <ele>2793.1</ele>
        <time>2024-07-08T12:45:32Z</time>
      </trkpt>
      <trkpt lat="45.1283" lon="6.10691">
        <ele>2793.2</ele>
        <time>2024-07-08T12:45:33Z</time>
      </trkpt>
      <trkpt lat="45.1283" lon="6.1069">
        <ele>2793.2</ele>
        <time>2024-07-08T12:45:34Z</time>
      </trkpt>
      <trkpt lat="45.12831" lon="6.10689">
        <ele>2793.3</ele>
        <time>2024-07-08T12:45:35Z</time>
      </trkpt>
      <trkpt lat="45.12831" lon="6.10688">
        <ele>2793.4</ele>
        <time>2024-07-08T12:45:36Z</time>
      </trkpt>
      <trkpt lat="45.12831" lon="6.10687">
        <ele>2793.4</ele>
        <time>2024-07-08T12:45:37Z</time>
      </trkpt>
      <trkpt lat="45.12831" lon="6.10685">
        <ele>2793.5</ele>
        <time>2024-07-08T12:45:38Z</time>
      </trkpt>
      <trkpt lat="45.12831" lon="6.10684">
        <ele>2793.5</ele>
        <time>2024-07-08T12:45:39Z</time>
      </trkpt>
      <trkpt lat="45.12831" lon="6.10683">
        <ele>2793.6</ele>
        <time>2024-07-08T12:45:40Z</time>
      </trkpt>
      <trkpt lat="45.12831" lon="6.10682">
        <ele>2793.6</ele>
        <time>2024-07-08T12:45:41Z</time>
      </trkpt>
      <trkpt lat="45.12831" lon="6.1068">
        <ele>2793.7</ele>
        <time>2024-07-08T12:45:42Z</time>
      </trkpt>
      <trkpt lat="45.1283" lon="6.10679">
        <ele>2793.7</ele>
        <time>2024-07-08T12:45:43Z</time>
      </trkpt>
      <trkpt lat="45.1283" lon="6.10677">
        <ele>2793.8</ele>
        <time>2024-07-08T12:45:44Z</time>
      </trkpt>
      <trkpt lat="45.1283" lon="6.10676">
        <ele>2793.9</ele>
        <time>2024-07-08T12:45:45Z</time>
      </trkpt>
      <trkpt lat="45.1283" lon="6.10675">
        <ele>2793.9</ele>
        <time>2024-07-08T12:45:46Z</time>
      </trkpt>
      <trkpt lat="45.1283" lon="6.10674">
        <ele>2793.9</ele>
        <time>2024-07-08T12:45:47Z</time>
      </trkpt>
      <trkpt lat="45.1283" lon="6.10673">
        <ele>2794</ele>
        <time>2024-07-08T12:45:48Z</time>
      </trkpt>
      <trkpt lat="45.1283" lon="6.10672">
        <ele>2794</ele>
        <time>2024-07-08T12:45:49Z</time>
      </trkpt>
      <trkpt lat="45.1283" lon="6.1067">
        <ele>2794</ele>
        <time>2024-07-08T12:45:50Z</time>
      </trkpt>
      <trkpt lat="45.1283" lon="6.10669">
        <ele>2794.1</ele>
        <time>2024-07-08T12:45:51Z</time>
      </trkpt>
      <trkpt lat="45.1283" lon="6.10668">
        <ele>2794.1</ele>
        <time>2024-07-08T12:45:52Z</time>
      </trkpt>
      <trkpt lat="45.1283" lon="6.10666">
        <ele>2794.2</ele>
        <time>2024-07-08T12:45:53Z</time>
      </trkpt>
      <trkpt lat="45.12831" lon="6.10665">
        <ele>2794.2</ele>
        <time>2024-07-08T12:45:54Z</time>
      </trkpt>
      <trkpt lat="45.12831" lon="6.10664">
        <ele>2794.2</ele>
        <time>2024-07-08T12:45:55Z</time>
      </trkpt>
      <trkpt lat="45.12831" lon="6.10662">
        <ele>2794.3</ele>
        <time>2024-07-08T12:45:56Z</time>
      </trkpt>
      <trkpt lat="45.12831" lon="6.10661">
        <ele>2794.3</ele>
        <time>2024-07-08T12:45:57Z</time>
      </trkpt>
      <trkpt lat="45.12832" lon="6.1066">
        <ele>2794.3</ele>
        <time>2024-07-08T12:45:58Z</time>
      </trkpt>
      <trkpt lat="45.12832" lon="6.10659">
        <ele>2794.4</ele>
        <time>2024-07-08T12:45:59Z</time>
      </trkpt>
      <trkpt lat="45.12832" lon="6.10657">
        <ele>2794.4</ele>
        <time>2024-07-08T12:46:00Z</time>
      </trkpt>
      <trkpt lat="45.12833" lon="6.10655">
        <ele>2794.4</ele>
        <time>2024-07-08T12:46:01Z</time>
      </trkpt>
      <trkpt lat="45.12833" lon="6.10654">
        <ele>2794.4</ele>
        <time>2024-07-08T12:46:02Z</time>
      </trkpt>
      <trkpt lat="45.12833" lon="6.10653">
        <ele>2794.5</ele>
        <time>2024-07-08T12:46:03Z</time>
      </trkpt>
      <trkpt lat="45.12833" lon="6.10652">
        <ele>2794.5</ele>
        <time>2024-07-08T12:46:04Z</time>
      </trkpt>
      <trkpt lat="45.12833" lon="6.10649">
        <ele>2794.5</ele>
        <time>2024-07-08T12:46:05Z</time>
      </trkpt>
      <trkpt lat="45.12833" lon="6.10647">
        <ele>2794.5</ele>
        <time>2024-07-08T12:46:06Z</time>
      </trkpt>
      <trkpt lat="45.12834" lon="6.10646">
        <ele>2794.6</ele>
        <time>2024-07-08T12:46:07Z</time>
      </trkpt>
      <trkpt lat="45.12834" lon="6.10645">
        <ele>2794.6</ele>
        <time>2024-07-08T12:46:08Z</time>
      </trkpt>
      <trkpt lat="45.12835" lon="6.10643">
        <ele>2794.6</ele>
        <time>2024-07-08T12:46:09Z</time>
      </trkpt>
      <trkpt lat="45.12836" lon="6.10642">
        <ele>2794.6</ele>
        <time>2024-07-08T12:46:10Z</time>
      </trkpt>
      <trkpt lat="45.12836" lon="6.10641">
        <ele>2794.6</ele>
        <time>2024-07-08T12:46:11Z</time>
      </trkpt>
      <trkpt lat="45.12837" lon="6.1064">
        <ele>2794.6</ele>
        <time>2024-07-08T12:46:12Z</time>
      </trkpt>
      <trkpt lat="45.12838" lon="6.10639">
        <ele>2794.6</ele>
        <time>2024-07-08T12:46:13Z</time>
      </trkpt>
      <trkpt lat="45.12838" lon="6.10638">
        <ele>2794.6</ele>
        <time>2024-07-08T12:46:14Z</time>
      </trkpt>
      <trkpt lat="45.12839" lon="6.10637">
        <ele>2794.6</ele>
        <time>2024-07-08T12:46:15Z</time>
      </trkpt>
      <trkpt lat="45.12839" lon="6.10636">
        <ele>2794.6</ele>
        <time>2024-07-08T12:46:16Z</time>
      </trkpt>
      <trkpt lat="45.12839" lon="6.10634">
        <ele>2794.6</ele>
        <time>2024-07-08T12:46:17Z</time>
      </trkpt>
      <trkpt lat="45.1284" lon="6.10632">
        <ele>2794.6</ele>
        <time>2024-07-08T12:46:18Z</time>
      </trkpt>
      <trkpt lat="45.1284" lon="6.10631">
        <ele>2794.6</ele>
        <time>2024-07-08T12:46:19Z</time>
      </trkpt>
      <trkpt lat="45.1284" lon="6.10629">
        <ele>2794.6</ele>
        <time>2024-07-08T12:46:20Z</time>
      </trkpt>
      <trkpt lat="45.12839" lon="6.10628">
        <ele>2794.6</ele>
        <time>2024-07-08T12:46:21Z</time>
      </trkpt>
      <trkpt lat="45.12839" lon="6.10627">
        <ele>2794.6</ele>
        <time>2024-07-08T12:46:22Z</time>
      </trkpt>
      <trkpt lat="45.12838" lon="6.10626">
        <ele>2794.6</ele>
        <time>2024-07-08T12:46:23Z</time>
      </trkpt>
      <trkpt lat="45.12838" lon="6.10625">
        <ele>2794.5</ele>
        <time>2024-07-08T12:46:24Z</time>
      </trkpt>
      <trkpt lat="45.12838" lon="6.10624">
        <ele>2794.5</ele>
        <time>2024-07-08T12:46:25Z</time>
      </trkpt>
      <trkpt lat="45.12838" lon="6.10622">
        <ele>2794.5</ele>
        <time>2024-07-08T12:46:26Z</time>
      </trkpt>
      <trkpt lat="45.12838" lon="6.10621">
        <ele>2794.5</ele>
        <time>2024-07-08T12:46:27Z</time>
      </trkpt>
      <trkpt lat="45.12838" lon="6.1062">
        <ele>2794.5</ele>
        <time>2024-07-08T12:46:28Z</time>
      </trkpt>
      <trkpt lat="45.12838" lon="6.10619">
        <ele>2794.5</ele>
        <time>2024-07-08T12:46:29Z</time>
      </trkpt>
      <trkpt lat="45.12838" lon="6.10617">
        <ele>2794.5</ele>
        <time>2024-07-08T12:46:30Z</time>
      </trkpt>
      <trkpt lat="45.12837" lon="6.10616">
        <ele>2794.5</ele>
        <time>2024-07-08T12:46:31Z</time>
      </trkpt>
      <trkpt lat="45.12837" lon="6.10615">
        <ele>2794.4</ele>
        <time>2024-07-08T12:46:32Z</time>
      </trkpt>
      <trkpt lat="45.12838" lon="6.10613">
        <ele>2794.4</ele>
        <time>2024-07-08T12:46:33Z</time>
      </trkpt>
      <trkpt lat="45.12839" lon="6.10612">
        <ele>2794.4</ele>
        <time>2024-07-08T12:46:34Z</time>
      </trkpt>
      <trkpt lat="45.12839" lon="6.10611">
        <ele>2794.4</ele>
        <time>2024-07-08T12:46:35Z</time>
      </trkpt>
      <trkpt lat="45.12841" lon="6.10609">
        <ele>2794.3</ele>
        <time>2024-07-08T12:46:36Z</time>
      </trkpt>
      <trkpt lat="45.12842" lon="6.10608">
        <ele>2794.3</ele>
        <time>2024-07-08T12:46:37Z</time>
      </trkpt>
      <trkpt lat="45.12843" lon="6.10607">
        <ele>2794.3</ele>
        <time>2024-07-08T12:46:38Z</time>
      </trkpt>
      <trkpt lat="45.12844" lon="6.10606">
        <ele>2794.2</ele>
        <time>2024-07-08T12:46:39Z</time>
      </trkpt>
      <trkpt lat="45.12845" lon="6.10605">
        <ele>2794.2</ele>
        <time>2024-07-08T12:46:40Z</time>
      </trkpt>
      <trkpt lat="45.12846" lon="6.10604">
        <ele>2794.2</ele>
        <time>2024-07-08T12:46:41Z</time>
      </trkpt>
      <trkpt lat="45.12847" lon="6.10603">
        <ele>2794.1</ele>
        <time>2024-07-08T12:46:42Z</time>
      </trkpt>
      <trkpt lat="45.12848" lon="6.10602">
        <ele>2794.1</ele>
        <time>2024-07-08T12:46:43Z</time>
      </trkpt>
      <trkpt lat="45.12849" lon="6.10601">
        <ele>2794</ele>
        <time>2024-07-08T12:46:44Z</time>
      </trkpt>
      <trkpt lat="45.12849" lon="6.106">
        <ele>2794</ele>
        <time>2024-07-08T12:46:45Z</time>
      </trkpt>
      <trkpt lat="45.1285" lon="6.10598">
        <ele>2794</ele>
        <time>2024-07-08T12:46:46Z</time>
      </trkpt>
      <trkpt lat="45.1285" lon="6.10597">
        <ele>2793.9</ele>
        <time>2024-07-08T12:46:47Z</time>
      </trkpt>
      <trkpt lat="45.12851" lon="6.10596">
        <ele>2793.9</ele>
        <time>2024-07-08T12:46:48Z</time>
      </trkpt>
      <trkpt lat="45.12851" lon="6.10594">
        <ele>2793.8</ele>
        <time>2024-07-08T12:46:49Z</time>
      </trkpt>
      <trkpt lat="45.12852" lon="6.10593">
        <ele>2793.8</ele>
        <time>2024-07-08T12:46:50Z</time>
      </trkpt>
      <trkpt lat="45.12852" lon="6.10591">
        <ele>2793.8</ele>
        <time>2024-07-08T12:46:51Z</time>
      </trkpt>
      <trkpt lat="45.12852" lon="6.1059">
        <ele>2793.7</ele>
        <time>2024-07-08T12:46:52Z</time>
      </trkpt>
      <trkpt lat="45.12851" lon="6.10589">
        <ele>2793.7</ele>
        <time>2024-07-08T12:46:53Z</time>
      </trkpt>
      <trkpt lat="45.12851" lon="6.10588">
        <ele>2793.6</ele>
        <time>2024-07-08T12:46:54Z</time>
      </trkpt>
      <trkpt lat="45.12851" lon="6.10587">
        <ele>2793.6</ele>
        <time>2024-07-08T12:46:55Z</time>
      </trkpt>
      <trkpt lat="45.1285" lon="6.10585">
        <ele>2793.5</ele>
        <time>2024-07-08T12:46:56Z</time>
      </trkpt>
      <trkpt lat="45.1285" lon="6.10583">
        <ele>2793.5</ele>
        <time>2024-07-08T12:46:57Z</time>
      </trkpt>
      <trkpt lat="45.1285" lon="6.10582">
        <ele>2793.5</ele>
        <time>2024-07-08T12:46:58Z</time>
      </trkpt>
      <trkpt lat="45.1285" lon="6.10579">
        <ele>2793.4</ele>
        <time>2024-07-08T12:46:59Z</time>
      </trkpt>
      <trkpt lat="45.12849" lon="6.10578">
        <ele>2793.3</ele>
        <time>2024-07-08T12:47:00Z</time>
      </trkpt>
      <trkpt lat="45.12849" lon="6.10577">
        <ele>2793.2</ele>
        <time>2024-07-08T12:47:01Z</time>
      </trkpt>
      <trkpt lat="45.12848" lon="6.10574">
        <ele>2792.9</ele>
        <time>2024-07-08T12:47:02Z</time>
      </trkpt>
      <trkpt lat="45.12848" lon="6.10573">
        <ele>2792.7</ele>
        <time>2024-07-08T12:47:03Z</time>
      </trkpt>
      <trkpt lat="45.12847" lon="6.10572">
        <ele>2792.6</ele>
        <time>2024-07-08T12:47:04Z</time>
      </trkpt>
      <trkpt lat="45.12847" lon="6.10571">
        <ele>2792.5</ele>
        <time>2024-07-08T12:47:05Z</time>
      </trkpt>
      <trkpt lat="45.12846" lon="6.1057">
        <ele>2792.3</ele>
        <time>2024-07-08T12:47:06Z</time>
      </trkpt>
      <trkpt lat="45.12846" lon="6.10568">
        <ele>2792.1</ele>
        <time>2024-07-08T12:47:07Z</time>
      </trkpt>
      <trkpt lat="45.12846" lon="6.10566">
        <ele>2792</ele>
        <time>2024-07-08T12:47:08Z</time>
      </trkpt>
      <trkpt lat="45.12845" lon="6.10565">
        <ele>2791.8</ele>
        <time>2024-07-08T12:47:09Z</time>
      </trkpt>
      <trkpt lat="45.12844" lon="6.10564">
        <ele>2791.6</ele>
        <time>2024-07-08T12:47:10Z</time>
      </trkpt>
      <trkpt lat="45.12844" lon="6.10563">
        <ele>2791.5</ele>
        <time>2024-07-08T12:47:11Z</time>
      </trkpt>
      <trkpt lat="45.12843" lon="6.10562">
        <ele>2791.3</ele>
        <time>2024-07-08T12:47:12Z</time>
      </trkpt>
      <trkpt lat="45.12842" lon="6.1056">
        <ele>2791.1</ele>
        <time>2024-07-08T12:47:13Z</time>
      </trkpt>
      <trkpt lat="45.12842" lon="6.10558">
        <ele>2790.8</ele>
        <time>2024-07-08T12:47:14Z</time>
      </trkpt>
      <trkpt lat="45.12842" lon="6.10556">
        <ele>2790.5</ele>
        <time>2024-07-08T12:47:15Z</time>
      </trkpt>
      <trkpt lat="45.12842" lon="6.10555">
        <ele>2790.3</ele>
        <time>2024-07-08T12:47:16Z</time>
      </trkpt>
      <trkpt lat="45.12842" lon="6.10552">
        <ele>2789.7</ele>
        <time>2024-07-08T12:47:17Z</time>
      </trkpt>
      <trkpt lat="45.12842" lon="6.10551">
        <ele>2789.5</ele>
        <time>2024-07-08T12:47:18Z</time>
      </trkpt>
      <trkpt lat="45.12842" lon="6.1055">
        <ele>2789.4</ele>
        <time>2024-07-08T12:47:19Z</time>
      </trkpt>
      <trkpt lat="45.12842" lon="6.10549">
        <ele>2789.2</ele>
        <time>2024-07-08T12:47:20Z</time>
      </trkpt>
      <trkpt lat="45.12842" lon="6.10548">
        <ele>2788.9</ele>
        <time>2024-07-08T12:47:21Z</time>
      </trkpt>
      <trkpt lat="45.12842" lon="6.10546">
        <ele>2788.6</ele>
        <time>2024-07-08T12:47:22Z</time>
      </trkpt>
      <trkpt lat="45.12842" lon="6.10545">
        <ele>2788.4</ele>
        <time>2024-07-08T12:47:23Z</time>
      </trkpt>
      <trkpt lat="45.12842" lon="6.10543">
        <ele>2788.2</ele>
        <time>2024-07-08T12:47:24Z</time>
      </trkpt>
      <trkpt lat="45.12841" lon="6.10542">
        <ele>2787.9</ele>
        <time>2024-07-08T12:47:25Z</time>
      </trkpt>
      <trkpt lat="45.12841" lon="6.1054">
        <ele>2787.6</ele>
        <time>2024-07-08T12:47:26Z</time>
      </trkpt>
      <trkpt lat="45.12841" lon="6.10539">
        <ele>2787.4</ele>
        <time>2024-07-08T12:47:27Z</time>
      </trkpt>
      <trkpt lat="45.12841" lon="6.10537">
        <ele>2787.1</ele>
        <time>2024-07-08T12:47:28Z</time>
      </trkpt>
      <trkpt lat="45.1284" lon="6.10536">
        <ele>2786.8</ele>
        <time>2024-07-08T12:47:29Z</time>
      </trkpt>
      <trkpt lat="45.1284" lon="6.10534">
        <ele>2786.5</ele>
        <time>2024-07-08T12:47:30Z</time>
      </trkpt>
      <trkpt lat="45.12839" lon="6.10533">
        <ele>2786.2</ele>
        <time>2024-07-08T12:47:31Z</time>
      </trkpt>
      <trkpt lat="45.12839" lon="6.10531">
        <ele>2786</ele>
        <time>2024-07-08T12:47:32Z</time>
      </trkpt>
      <trkpt lat="45.12839" lon="6.1053">
        <ele>2785.7</ele>
        <time>2024-07-08T12:47:33Z</time>
      </trkpt>
      <trkpt lat="45.12838" lon="6.10529">
        <ele>2785.5</ele>
        <time>2024-07-08T12:47:34Z</time>
      </trkpt>
      <trkpt lat="45.12839" lon="6.10528">
        <ele>2785.2</ele>
        <time>2024-07-08T12:47:35Z</time>
      </trkpt>
      <trkpt lat="45.12839" lon="6.10527">
        <ele>2785</ele>
        <time>2024-07-08T12:47:36Z</time>
      </trkpt>
      <trkpt lat="45.12839" lon="6.10525">
        <ele>2784.7</ele>
        <time>2024-07-08T12:47:37Z</time>
      </trkpt>
      <trkpt lat="45.12839" lon="6.10524">
        <ele>2784.5</ele>
        <time>2024-07-08T12:47:38Z</time>
      </trkpt>
      <trkpt lat="45.1284" lon="6.10523">
        <ele>2784.2</ele>
        <time>2024-07-08T12:47:39Z</time>
      </trkpt>
      <trkpt lat="45.1284" lon="6.10521">
        <ele>2783.9</ele>
        <time>2024-07-08T12:47:40Z</time>
      </trkpt>
      <trkpt lat="45.1284" lon="6.1052">
        <ele>2783.7</ele>
        <time>2024-07-08T12:47:41Z</time>
      </trkpt>
      <trkpt lat="45.1284" lon="6.10518">
        <ele>2783.3</ele>
        <time>2024-07-08T12:47:42Z</time>
      </trkpt>
      <trkpt lat="45.12839" lon="6.10517">
        <ele>2783</ele>
        <time>2024-07-08T12:47:43Z</time>
      </trkpt>
      <trkpt lat="45.12839" lon="6.10515">
        <ele>2782.8</ele>
        <time>2024-07-08T12:47:44Z</time>
      </trkpt>
      <trkpt lat="45.1284" lon="6.10514">
        <ele>2782.5</ele>
        <time>2024-07-08T12:47:45Z</time>
      </trkpt>
      <trkpt lat="45.12839" lon="6.10513">
        <ele>2782.3</ele>
        <time>2024-07-08T12:47:46Z</time>
      </trkpt>
      <trkpt lat="45.12839" lon="6.10512">
        <ele>2782.1</ele>
        <time>2024-07-08T12:47:47Z</time>
      </trkpt>
      <trkpt lat="45.12839" lon="6.1051">
        <ele>2781.8</ele>
        <time>2024-07-08T12:47:48Z</time>
      </trkpt>
      <trkpt lat="45.12838" lon="6.10509">
        <ele>2781.5</ele>
        <time>2024-07-08T12:47:49Z</time>
      </trkpt>
      <trkpt lat="45.12838" lon="6.10508">
        <ele>2781.1</ele>
        <time>2024-07-08T12:47:50Z</time>
      </trkpt>
      <trkpt lat="45.12837" lon="6.10507">
        <ele>2780.8</ele>
        <time>2024-07-08T12:47:51Z</time>
      </trkpt>
      <trkpt lat="45.12837" lon="6.10506">
        <ele>2780.6</ele>
        <time>2024-07-08T12:47:52Z</time>
      </trkpt>
      <trkpt lat="45.12837" lon="6.10504">
        <ele>2780.3</ele>
        <time>2024-07-08T12:47:53Z</time>
      </trkpt>
      <trkpt lat="45.12837" lon="6.10503">
        <ele>2780.1</ele>
        <time>2024-07-08T12:47:54Z</time>
      </trkpt>
      <trkpt lat="45.12837" lon="6.10502">
        <ele>2779.8</ele>
        <time>2024-07-08T12:47:55Z</time>
      </trkpt>
      <trkpt lat="45.12836" lon="6.10501">
        <ele>2779.7</ele>
        <time>2024-07-08T12:47:56Z</time>
      </trkpt>
      <trkpt lat="45.12836" lon="6.10501">
        <ele>2779.5</ele>
        <time>2024-07-08T12:47:57Z</time>
      </trkpt>
      <trkpt lat="45.12836" lon="6.10499">
        <ele>2779.1</ele>
        <time>2024-07-08T12:47:58Z</time>
      </trkpt>
      <trkpt lat="45.12836" lon="6.10499">
        <ele>2779.1</ele>
        <time>2024-07-08T12:47:59Z</time>
      </trkpt>
      <trkpt lat="45.12836" lon="6.10498">
        <ele>2779</ele>
        <time>2024-07-08T12:48:00Z</time>
      </trkpt>
      <trkpt lat="45.12836" lon="6.10499">
        <ele>2778.8</ele>
        <time>2024-07-08T12:48:01Z</time>
      </trkpt>
      <trkpt lat="45.12836" lon="6.105">
        <ele>2778.6</ele>
        <time>2024-07-08T12:48:02Z</time>
      </trkpt>
      <trkpt lat="45.12836" lon="6.105">
        <ele>2778.5</ele>
        <time>2024-07-08T12:48:03Z</time>
      </trkpt>
      <trkpt lat="45.12836" lon="6.10501">
        <ele>2778.4</ele>
        <time>2024-07-08T12:48:04Z</time>
      </trkpt>
      <trkpt lat="45.12836" lon="6.10501">
        <ele>2778.4</ele>
        <time>2024-07-08T12:48:05Z</time>
      </trkpt>
      <trkpt lat="45.12836" lon="6.10501">
        <ele>2778.3</ele>
        <time>2024-07-08T12:48:06Z</time>
      </trkpt>
      <trkpt lat="45.12836" lon="6.10501">
        <ele>2778.3</ele>
        <time>2024-07-08T12:48:07Z</time>
      </trkpt>
      <trkpt lat="45.12836" lon="6.10501">
        <ele>2778.3</ele>
        <time>2024-07-08T12:48:08Z</time>
      </trkpt>
      <trkpt lat="45.12836" lon="6.10501">
        <ele>2778.3</ele>
        <time>2024-07-08T12:48:09Z</time>
      </trkpt>
      <trkpt lat="45.12836" lon="6.10501">
        <ele>2778.2</ele>
        <time>2024-07-08T12:48:10Z</time>
      </trkpt>
      <trkpt lat="45.12836" lon="6.10501">
        <ele>2778.2</ele>
        <time>2024-07-08T12:48:11Z</time>
      </trkpt>
      <trkpt lat="45.12836" lon="6.10501">
        <ele>2778.2</ele>
        <time>2024-07-08T12:48:12Z</time>
      </trkpt>
      <trkpt lat="45.12836" lon="6.10501">
        <ele>2778.2</ele>
        <time>2024-07-08T12:48:13Z</time>
      </trkpt>
      <trkpt lat="45.12836" lon="6.10501">
        <ele>2778.1</ele>
        <time>2024-07-08T12:48:14Z</time>
      </trkpt>
      <trkpt lat="45.12836" lon="6.10502">
        <ele>2778</ele>
        <time>2024-07-08T12:48:15Z</time>
      </trkpt>
      <trkpt lat="45.12836" lon="6.10502">
        <ele>2778</ele>
        <time>2024-07-08T12:48:16Z</time>
      </trkpt>
      <trkpt lat="45.12836" lon="6.10502">
        <ele>2778</ele>
        <time>2024-07-08T12:48:17Z</time>
      </trkpt>
      <trkpt lat="45.12836" lon="6.10502">
        <ele>2777.9</ele>
        <time>2024-07-08T12:48:18Z</time>
      </trkpt>
      <trkpt lat="45.12836" lon="6.10502">
        <ele>2777.9</ele>
        <time>2024-07-08T12:48:19Z</time>
      </trkpt>
      <trkpt lat="45.12836" lon="6.10503">
        <ele>2777.9</ele>
        <time>2024-07-08T12:48:20Z</time>
      </trkpt>
      <trkpt lat="45.12836" lon="6.10503">
        <ele>2777.8</ele>
        <time>2024-07-08T12:48:21Z</time>
      </trkpt>
      <trkpt lat="45.12836" lon="6.10503">
        <ele>2777.8</ele>
        <time>2024-07-08T12:48:22Z</time>
      </trkpt>
      <trkpt lat="45.12836" lon="6.10503">
        <ele>2777.8</ele>
        <time>2024-07-08T12:48:23Z</time>
      </trkpt>
      <trkpt lat="45.12836" lon="6.10503">
        <ele>2777.8</ele>
        <time>2024-07-08T12:48:24Z</time>
      </trkpt>
      <trkpt lat="45.12836" lon="6.10503">
        <ele>2777.7</ele>
        <time>2024-07-08T12:48:25Z</time>
      </trkpt>
      <trkpt lat="45.12836" lon="6.10503">
        <ele>2777.6</ele>
        <time>2024-07-08T12:48:26Z</time>
      </trkpt>
      <trkpt lat="45.12836" lon="6.10503">
        <ele>2777.6</ele>
        <time>2024-07-08T12:48:27Z</time>
      </trkpt>
      <trkpt lat="45.12836" lon="6.10503">
        <ele>2777.6</ele>
        <time>2024-07-08T12:48:28Z</time>
      </trkpt>
      <trkpt lat="45.12836" lon="6.10503">
        <ele>2777.6</ele>
        <time>2024-07-08T12:48:29Z</time>
      </trkpt>
      <trkpt lat="45.12836" lon="6.10503">
        <ele>2777.6</ele>
        <time>2024-07-08T12:48:30Z</time>
      </trkpt>
      <trkpt lat="45.12836" lon="6.10503">
        <ele>2777.6</ele>
        <time>2024-07-08T12:48:31Z</time>
      </trkpt>
      <trkpt lat="45.12836" lon="6.10503">
        <ele>2777.6</ele>
        <time>2024-07-08T12:48:32Z</time>
      </trkpt>
      <trkpt lat="45.12836" lon="6.10503">
        <ele>2777.6</ele>
        <time>2024-07-08T12:48:33Z</time>
      </trkpt>
      <trkpt lat="45.12836" lon="6.10503">
        <ele>2777.6</ele>
        <time>2024-07-08T12:48:34Z</time>
      </trkpt>
      <trkpt lat="45.12836" lon="6.10503">
        <ele>2777.6</ele>
        <time>2024-07-08T12:48:35Z</time>
      </trkpt>
      <trkpt lat="45.12837" lon="6.10504">
        <ele>2777.6</ele>
        <time>2024-07-08T12:48:36Z</time>
      </trkpt>
      <trkpt lat="45.12837" lon="6.10504">
        <ele>2777.6</ele>
        <time>2024-07-08T12:48:37Z</time>
      </trkpt>
      <trkpt lat="45.12837" lon="6.10504">
        <ele>2777.6</ele>
        <time>2024-07-08T12:48:38Z</time>
      </trkpt>
      <trkpt lat="45.12837" lon="6.10504">
        <ele>2777.6</ele>
        <time>2024-07-08T12:48:39Z</time>
      </trkpt>
      <trkpt lat="45.12837" lon="6.10504">
        <ele>2777.6</ele>
        <time>2024-07-08T12:48:40Z</time>
      </trkpt>
      <trkpt lat="45.12837" lon="6.10504">
        <ele>2777.6</ele>
        <time>2024-07-08T12:48:41Z</time>
      </trkpt>
      <trkpt lat="45.12837" lon="6.10504">
        <ele>2777.5</ele>
        <time>2024-07-08T12:48:42Z</time>
      </trkpt>
      <trkpt lat="45.12837" lon="6.10504">
        <ele>2777.4</ele>
        <time>2024-07-08T12:48:43Z</time>
      </trkpt>
      <trkpt lat="45.12837" lon="6.10504">
        <ele>2777.4</ele>
        <time>2024-07-08T12:48:44Z</time>
      </trkpt>
      <trkpt lat="45.12837" lon="6.10504">
        <ele>2777.4</ele>
        <time>2024-07-08T12:48:45Z</time>
      </trkpt>
      <trkpt lat="45.12837" lon="6.10504">
        <ele>2777.4</ele>
        <time>2024-07-08T12:48:46Z</time>
      </trkpt>
      <trkpt lat="45.12837" lon="6.10504">
        <ele>2777.4</ele>
        <time>2024-07-08T12:48:47Z</time>
      </trkpt>
      <trkpt lat="45.12837" lon="6.10504">
        <ele>2777.4</ele>
        <time>2024-07-08T12:48:48Z</time>
      </trkpt>
      <trkpt lat="45.12837" lon="6.10504">
        <ele>2777.4</ele>
        <time>2024-07-08T12:48:49Z</time>
      </trkpt>
      <trkpt lat="45.12837" lon="6.10504">
        <ele>2777.4</ele>
        <time>2024-07-08T12:48:50Z</time>
      </trkpt>
      <trkpt lat="45.12837" lon="6.10504">
        <ele>2777.3</ele>
        <time>2024-07-08T12:48:51Z</time>
      </trkpt>
      <trkpt lat="45.12837" lon="6.10504">
        <ele>2777.3</ele>
        <time>2024-07-08T12:48:52Z</time>
      </trkpt>
      <trkpt lat="45.12837" lon="6.10504">
        <ele>2777.3</ele>
        <time>2024-07-08T12:48:53Z</time>
      </trkpt>
      <trkpt lat="45.12837" lon="6.10504">
        <ele>2777.3</ele>
        <time>2024-07-08T12:48:54Z</time>
      </trkpt>
      <trkpt lat="45.12837" lon="6.10504">
        <ele>2777.3</ele>
        <time>2024-07-08T12:48:55Z</time>
      </trkpt>
      <trkpt lat="45.12837" lon="6.10504">
        <ele>2777.3</ele>
        <time>2024-07-08T12:48:56Z</time>
      </trkpt>
      <trkpt lat="45.12837" lon="6.10504">
        <ele>2777.3</ele>
        <time>2024-07-08T12:48:57Z</time>
      </trkpt>
      <trkpt lat="45.12837" lon="6.10504">
        <ele>2777.3</ele>
        <time>2024-07-08T12:48:58Z</time>
      </trkpt>
      <trkpt lat="45.12837" lon="6.10504">
        <ele>2777.3</ele>
        <time>2024-07-08T12:48:59Z</time>
      </trkpt>
      <trkpt lat="45.12837" lon="6.10504">
        <ele>2777.3</ele>
        <time>2024-07-08T12:49:00Z</time>
      </trkpt>
      <trkpt lat="45.12837" lon="6.10504">
        <ele>2777.3</ele>
        <time>2024-07-08T12:49:01Z</time>
      </trkpt>
      <trkpt lat="45.12837" lon="6.10504">
        <ele>2777.3</ele>
        <time>2024-07-08T12:49:02Z</time>
      </trkpt>
      <trkpt lat="45.12837" lon="6.10504">
        <ele>2777.3</ele>
        <time>2024-07-08T12:49:03Z</time>
      </trkpt>
      <trkpt lat="45.12837" lon="6.10504">
        <ele>2777.3</ele>
        <time>2024-07-08T12:49:04Z</time>
      </trkpt>
      <trkpt lat="45.12837" lon="6.10504">
        <ele>2777.3</ele>
        <time>2024-07-08T12:49:05Z</time>
      </trkpt>
      <trkpt lat="45.12837" lon="6.10504">
        <ele>2777.3</ele>
        <time>2024-07-08T12:49:06Z</time>
      </trkpt>
      <trkpt lat="45.12837" lon="6.10504">
        <ele>2777.3</ele>
        <time>2024-07-08T12:49:07Z</time>
      </trkpt>
      <trkpt lat="45.12837" lon="6.10504">
        <ele>2777.3</ele>
        <time>2024-07-08T12:49:08Z</time>
      </trkpt>
      <trkpt lat="45.12837" lon="6.10504">
        <ele>2777.3</ele>
        <time>2024-07-08T12:49:09Z</time>
      </trkpt>
      <trkpt lat="45.12837" lon="6.10504">
        <ele>2777.3</ele>
        <time>2024-07-08T12:49:10Z</time>
      </trkpt>
      <trkpt lat="45.12837" lon="6.10504">
        <ele>2777.3</ele>
        <time>2024-07-08T12:49:11Z</time>
      </trkpt>
      <trkpt lat="45.12837" lon="6.10504">
        <ele>2777.3</ele>
        <time>2024-07-08T12:49:12Z</time>
      </trkpt>
      <trkpt lat="45.12837" lon="6.10504">
        <ele>2777.3</ele>
        <time>2024-07-08T12:49:13Z</time>
      </trkpt>
      <trkpt lat="45.12837" lon="6.10504">
        <ele>2777.3</ele>
        <time>2024-07-08T12:49:14Z</time>
      </trkpt>
      <trkpt lat="45.12837" lon="6.10505">
        <ele>2777.1</ele>
        <time>2024-07-08T12:49:15Z</time>
      </trkpt>
      <trkpt lat="45.12837" lon="6.10505">
        <ele>2777</ele>
        <time>2024-07-08T12:49:16Z</time>
      </trkpt>
      <trkpt lat="45.12837" lon="6.10505">
        <ele>2777</ele>
        <time>2024-07-08T12:49:17Z</time>
      </trkpt>
      <trkpt lat="45.12837" lon="6.10505">
        <ele>2777</ele>
        <time>2024-07-08T12:49:18Z</time>
      </trkpt>
      <trkpt lat="45.12837" lon="6.10505">
        <ele>2776.9</ele>
        <time>2024-07-08T12:49:19Z</time>
      </trkpt>
      <trkpt lat="45.12837" lon="6.10505">
        <ele>2776.9</ele>
        <time>2024-07-08T12:49:20Z</time>
      </trkpt>
      <trkpt lat="45.12837" lon="6.10506">
        <ele>2776.8</ele>
        <time>2024-07-08T12:49:21Z</time>
      </trkpt>
      <trkpt lat="45.12837" lon="6.10506">
        <ele>2776.7</ele>
        <time>2024-07-08T12:49:22Z</time>
      </trkpt>
      <trkpt lat="45.12837" lon="6.10506">
        <ele>2776.6</ele>
        <time>2024-07-08T12:49:23Z</time>
      </trkpt>
      <trkpt lat="45.12837" lon="6.10507">
        <ele>2776.5</ele>
        <time>2024-07-08T12:49:24Z</time>
      </trkpt>
      <trkpt lat="45.12838" lon="6.10507">
        <ele>2776.4</ele>
        <time>2024-07-08T12:49:25Z</time>
      </trkpt>
      <trkpt lat="45.12838" lon="6.10507">
        <ele>2776.3</ele>
        <time>2024-07-08T12:49:26Z</time>
      </trkpt>
      <trkpt lat="45.12838" lon="6.10508">
        <ele>2776.2</ele>
        <time>2024-07-08T12:49:27Z</time>
      </trkpt>
      <trkpt lat="45.12837" lon="6.10508">
        <ele>2776</ele>
        <time>2024-07-08T12:49:28Z</time>
      </trkpt>
      <trkpt lat="45.12837" lon="6.10509">
        <ele>2775.8</ele>
        <time>2024-07-08T12:49:29Z</time>
      </trkpt>
      <trkpt lat="45.12838" lon="6.1051">
        <ele>2775.7</ele>
        <time>2024-07-08T12:49:30Z</time>
      </trkpt>
      <trkpt lat="45.12838" lon="6.1051">
        <ele>2775.6</ele>
        <time>2024-07-08T12:49:31Z</time>
      </trkpt>
      <trkpt lat="45.12838" lon="6.1051">
        <ele>2775.6</ele>
        <time>2024-07-08T12:49:32Z</time>
      </trkpt>
      <trkpt lat="45.12838" lon="6.1051">
        <ele>2775.5</ele>
        <time>2024-07-08T12:49:33Z</time>
      </trkpt>
      <trkpt lat="45.12837" lon="6.10511">
        <ele>2775.4</ele>
        <time>2024-07-08T12:49:34Z</time>
      </trkpt>
      <trkpt lat="45.12837" lon="6.10511">
        <ele>2775.2</ele>
        <time>2024-07-08T12:49:35Z</time>
      </trkpt>
      <trkpt lat="45.12836" lon="6.10511">
        <ele>2775.1</ele>
        <time>2024-07-08T12:49:36Z</time>
      </trkpt>
      <trkpt lat="45.12836" lon="6.10511">
        <ele>2775</ele>
        <time>2024-07-08T12:49:37Z</time>
      </trkpt>
      <trkpt lat="45.12836" lon="6.10511">
        <ele>2775</ele>
        <time>2024-07-08T12:49:38Z</time>
      </trkpt>
      <trkpt lat="45.12836" lon="6.10511">
        <ele>2775</ele>
        <time>2024-07-08T12:49:39Z</time>
      </trkpt>
      <trkpt lat="45.12836" lon="6.10511">
        <ele>2775</ele>
        <time>2024-07-08T12:49:40Z</time>
      </trkpt>
      <trkpt lat="45.12836" lon="6.10511">
        <ele>2775</ele>
        <time>2024-07-08T12:49:41Z</time>
      </trkpt>
      <trkpt lat="45.12836" lon="6.10511">
        <ele>2775</ele>
        <time>2024-07-08T12:49:42Z</time>
      </trkpt>
      <trkpt lat="45.12836" lon="6.10511">
        <ele>2774.9</ele>
        <time>2024-07-08T12:49:43Z</time>
      </trkpt>
      <trkpt lat="45.12836" lon="6.10511">
        <ele>2774.9</ele>
        <time>2024-07-08T12:49:44Z</time>
      </trkpt>
      <trkpt lat="45.12836" lon="6.10511">
        <ele>2774.8</ele>
        <time>2024-07-08T12:49:45Z</time>
      </trkpt>
      <trkpt lat="45.12836" lon="6.1051">
        <ele>2774.7</ele>
        <time>2024-07-08T12:49:46Z</time>
      </trkpt>
      <trkpt lat="45.12836" lon="6.1051">
        <ele>2774.6</ele>
        <time>2024-07-08T12:49:47Z</time>
      </trkpt>
      <trkpt lat="45.12836" lon="6.1051">
        <ele>2774.6</ele>
        <time>2024-07-08T12:49:48Z</time>
      </trkpt>
      <trkpt lat="45.12836" lon="6.1051">
        <ele>2774.6</ele>
        <time>2024-07-08T12:49:49Z</time>
      </trkpt>
      <trkpt lat="45.12836" lon="6.1051">
        <ele>2774.6</ele>
        <time>2024-07-08T12:49:50Z</time>
      </trkpt>
      <trkpt lat="45.12836" lon="6.1051">
        <ele>2774.6</ele>
        <time>2024-07-08T12:49:51Z</time>
      </trkpt>
      <trkpt lat="45.12836" lon="6.1051">
        <ele>2774.6</ele>
        <time>2024-07-08T12:49:52Z</time>
      </trkpt>
      <trkpt lat="45.12836" lon="6.1051">
        <ele>2774.5</ele>
        <time>2024-07-08T12:49:53Z</time>
      </trkpt>
      <trkpt lat="45.12836" lon="6.1051">
        <ele>2774.4</ele>
        <time>2024-07-08T12:49:54Z</time>
      </trkpt>
      <trkpt lat="45.12836" lon="6.1051">
        <ele>2774.4</ele>
        <time>2024-07-08T12:49:55Z</time>
      </trkpt>
      <trkpt lat="45.12836" lon="6.1051">
        <ele>2774.4</ele>
        <time>2024-07-08T12:49:56Z</time>
      </trkpt>
      <trkpt lat="45.12836" lon="6.1051">
        <ele>2774.4</ele>
        <time>2024-07-08T12:49:57Z</time>
      </trkpt>
      <trkpt lat="45.12836" lon="6.1051">
        <ele>2774.4</ele>
        <time>2024-07-08T12:49:58Z</time>
      </trkpt>
      <trkpt lat="45.12836" lon="6.1051">
        <ele>2774.3</ele>
        <time>2024-07-08T12:49:59Z</time>
      </trkpt>
      <trkpt lat="45.12836" lon="6.1051">
        <ele>2774.3</ele>
        <time>2024-07-08T12:50:00Z</time>
      </trkpt>
      <trkpt lat="45.12836" lon="6.1051">
        <ele>2774.3</ele>
        <time>2024-07-08T12:50:01Z</time>
      </trkpt>
      <trkpt lat="45.12836" lon="6.10509">
        <ele>2774.3</ele>
        <time>2024-07-08T12:50:02Z</time>
      </trkpt>
      <trkpt lat="45.12836" lon="6.10509">
        <ele>2774.1</ele>
        <time>2024-07-08T12:50:03Z</time>
      </trkpt>
      <trkpt lat="45.12837" lon="6.10509">
        <ele>2774</ele>
        <time>2024-07-08T12:50:04Z</time>
      </trkpt>
      <trkpt lat="45.12837" lon="6.10508">
        <ele>2773.8</ele>
        <time>2024-07-08T12:50:05Z</time>
      </trkpt>
      <trkpt lat="45.12837" lon="6.10507">
        <ele>2773.6</ele>
        <time>2024-07-08T12:50:06Z</time>
      </trkpt>
      <trkpt lat="45.12837" lon="6.10506">
        <ele>2773.4</ele>
        <time>2024-07-08T12:50:07Z</time>
      </trkpt>
      <trkpt lat="45.12837" lon="6.10506">
        <ele>2773.4</ele>
        <time>2024-07-08T12:50:08Z</time>
      </trkpt>
      <trkpt lat="45.12837" lon="6.10506">
        <ele>2773.3</ele>
        <time>2024-07-08T12:50:09Z</time>
      </trkpt>
      <trkpt lat="45.12837" lon="6.10507">
        <ele>2773.3</ele>
        <time>2024-07-08T12:50:10Z</time>
      </trkpt>
      <trkpt lat="45.12838" lon="6.10507">
        <ele>2773.2</ele>
        <time>2024-07-08T12:50:11Z</time>
      </trkpt>
      <trkpt lat="45.12838" lon="6.10507">
        <ele>2773.1</ele>
        <time>2024-07-08T12:50:12Z</time>
      </trkpt>
      <trkpt lat="45.12838" lon="6.10507">
        <ele>2773</ele>
        <time>2024-07-08T12:50:13Z</time>
      </trkpt>
      <trkpt lat="45.12838" lon="6.10507">
        <ele>2772.9</ele>
        <time>2024-07-08T12:50:14Z</time>
      </trkpt>
      <trkpt lat="45.12838" lon="6.10507">
        <ele>2772.9</ele>
        <time>2024-07-08T12:50:15Z</time>
      </trkpt>
      <trkpt lat="45.12838" lon="6.10507">
        <ele>2772.8</ele>
        <time>2024-07-08T12:50:16Z</time>
      </trkpt>
      <trkpt lat="45.12838" lon="6.10507">
        <ele>2772.8</ele>
        <time>2024-07-08T12:50:17Z</time>
      </trkpt>
      <trkpt lat="45.12838" lon="6.10507">
        <ele>2772.8</ele>
        <time>2024-07-08T12:50:18Z</time>
      </trkpt>
      <trkpt lat="45.12838" lon="6.10506">
        <ele>2772.6</ele>
        <time>2024-07-08T12:50:19Z</time>
      </trkpt>
      <trkpt lat="45.12839" lon="6.10506">
        <ele>2772.6</ele>
        <time>2024-07-08T12:50:20Z</time>
      </trkpt>
      <trkpt lat="45.12839" lon="6.10506">
        <ele>2772.6</ele>
        <time>2024-07-08T12:50:21Z</time>
      </trkpt>
      <trkpt lat="45.12839" lon="6.10506">
        <ele>2772.6</ele>
        <time>2024-07-08T12:50:22Z</time>
      </trkpt>
      <trkpt lat="45.12839" lon="6.10506">
        <ele>2772.5</ele>
        <time>2024-07-08T12:50:23Z</time>
      </trkpt>
      <trkpt lat="45.12839" lon="6.10506">
        <ele>2772.5</ele>
        <time>2024-07-08T12:50:24Z</time>
      </trkpt>
      <trkpt lat="45.12839" lon="6.10506">
        <ele>2772.5</ele>
        <time>2024-07-08T12:50:25Z</time>
      </trkpt>
      <trkpt lat="45.12839" lon="6.10506">
        <ele>2772.5</ele>
        <time>2024-07-08T12:50:26Z</time>
      </trkpt>
      <trkpt lat="45.12839" lon="6.10506">
        <ele>2772.4</ele>
        <time>2024-07-08T12:50:27Z</time>
      </trkpt>
      <trkpt lat="45.12839" lon="6.10506">
        <ele>2772.4</ele>
        <time>2024-07-08T12:50:28Z</time>
      </trkpt>
      <trkpt lat="45.12839" lon="6.10506">
        <ele>2772.4</ele>
        <time>2024-07-08T12:50:29Z</time>
      </trkpt>
      <trkpt lat="45.12839" lon="6.10506">
        <ele>2772.4</ele>
        <time>2024-07-08T12:50:30Z</time>
      </trkpt>
      <trkpt lat="45.12839" lon="6.10506">
        <ele>2772.3</ele>
        <time>2024-07-08T12:50:31Z</time>
      </trkpt>
      <trkpt lat="45.12839" lon="6.10506">
        <ele>2772.3</ele>
        <time>2024-07-08T12:50:32Z</time>
      </trkpt>
      <trkpt lat="45.12839" lon="6.10506">
        <ele>2772.3</ele>
        <time>2024-07-08T12:50:33Z</time>
      </trkpt>
      <trkpt lat="45.12839" lon="6.10506">
        <ele>2772.3</ele>
        <time>2024-07-08T12:50:34Z</time>
      </trkpt>
      <trkpt lat="45.12839" lon="6.10506">
        <ele>2772.3</ele>
        <time>2024-07-08T12:50:35Z</time>
      </trkpt>
      <trkpt lat="45.12839" lon="6.10506">
        <ele>2772.3</ele>
        <time>2024-07-08T12:50:36Z</time>
      </trkpt>
      <trkpt lat="45.12839" lon="6.10506">
        <ele>2772.3</ele>
        <time>2024-07-08T12:50:37Z</time>
      </trkpt>
      <trkpt lat="45.12839" lon="6.10506">
        <ele>2772.3</ele>
        <time>2024-07-08T12:50:38Z</time>
      </trkpt>
      <trkpt lat="45.12839" lon="6.10506">
        <ele>2772.3</ele>
        <time>2024-07-08T12:50:39Z</time>
      </trkpt>
      <trkpt lat="45.12839" lon="6.10506">
        <ele>2772.3</ele>
        <time>2024-07-08T12:50:40Z</time>
      </trkpt>
      <trkpt lat="45.12839" lon="6.10506">
        <ele>2772.2</ele>
        <time>2024-07-08T12:50:41Z</time>
      </trkpt>
      <trkpt lat="45.12839" lon="6.10506">
        <ele>2772.2</ele>
        <time>2024-07-08T12:50:42Z</time>
      </trkpt>
      <trkpt lat="45.12838" lon="6.10506">
        <ele>2772.1</ele>
        <time>2024-07-08T12:50:43Z</time>
      </trkpt>
      <trkpt lat="45.12838" lon="6.10506">
        <ele>2772.1</ele>
        <time>2024-07-08T12:50:44Z</time>
      </trkpt>
      <trkpt lat="45.12838" lon="6.10506">
        <ele>2772.1</ele>
        <time>2024-07-08T12:50:45Z</time>
      </trkpt>
      <trkpt lat="45.12838" lon="6.10506">
        <ele>2772.1</ele>
        <time>2024-07-08T12:50:46Z</time>
      </trkpt>
      <trkpt lat="45.12838" lon="6.10506">
        <ele>2772.1</ele>
        <time>2024-07-08T12:50:47Z</time>
      </trkpt>
      <trkpt lat="45.12839" lon="6.10506">
        <ele>2772.1</ele>
        <time>2024-07-08T12:50:48Z</time>
      </trkpt>
      <trkpt lat="45.12839" lon="6.10506">
        <ele>2772.1</ele>
        <time>2024-07-08T12:50:49Z</time>
      </trkpt>
      <trkpt lat="45.12839" lon="6.10506">
        <ele>2772.1</ele>
        <time>2024-07-08T12:50:50Z</time>
      </trkpt>
      <trkpt lat="45.12839" lon="6.10506">
        <ele>2772.1</ele>
        <time>2024-07-08T12:50:51Z</time>
      </trkpt>
      <trkpt lat="45.12839" lon="6.10506">
        <ele>2772.1</ele>
        <time>2024-07-08T12:50:52Z</time>
      </trkpt>
      <trkpt lat="45.12839" lon="6.10506">
        <ele>2772.1</ele>
        <time>2024-07-08T12:50:53Z</time>
      </trkpt>
      <trkpt lat="45.12839" lon="6.10506">
        <ele>2772.1</ele>
        <time>2024-07-08T12:50:54Z</time>
      </trkpt>
      <trkpt lat="45.12839" lon="6.10506">
        <ele>2772.1</ele>
        <time>2024-07-08T12:50:55Z</time>
      </trkpt>
      <trkpt lat="45.12839" lon="6.10506">
        <ele>2772.1</ele>
        <time>2024-07-08T12:50:56Z</time>
      </trkpt>
      <trkpt lat="45.12839" lon="6.10506">
        <ele>2772.1</ele>
        <time>2024-07-08T12:50:57Z</time>
      </trkpt>
      <trkpt lat="45.12839" lon="6.10506">
        <ele>2772.1</ele>
        <time>2024-07-08T12:50:58Z</time>
      </trkpt>
      <trkpt lat="45.12839" lon="6.10506">
        <ele>2772.1</ele>
        <time>2024-07-08T12:50:59Z</time>
      </trkpt>
      <trkpt lat="45.12838" lon="6.10506">
        <ele>2772</ele>
        <time>2024-07-08T12:51:00Z</time>
      </trkpt>
      <trkpt lat="45.12838" lon="6.10506">
        <ele>2772</ele>
        <time>2024-07-08T12:51:01Z</time>
      </trkpt>
      <trkpt lat="45.12838" lon="6.10506">
        <ele>2771.9</ele>
        <time>2024-07-08T12:51:02Z</time>
      </trkpt>
      <trkpt lat="45.12838" lon="6.10506">
        <ele>2771.9</ele>
        <time>2024-07-08T12:51:03Z</time>
      </trkpt>
      <trkpt lat="45.12838" lon="6.10506">
        <ele>2771.9</ele>
        <time>2024-07-08T12:51:04Z</time>
      </trkpt>
      <trkpt lat="45.12838" lon="6.10506">
        <ele>2771.9</ele>
        <time>2024-07-08T12:51:05Z</time>
      </trkpt>
      <trkpt lat="45.12838" lon="6.10506">
        <ele>2771.9</ele>
        <time>2024-07-08T12:51:06Z</time>
      </trkpt>
      <trkpt lat="45.12838" lon="6.10507">
        <ele>2771.8</ele>
        <time>2024-07-08T12:51:07Z</time>
      </trkpt>
      <trkpt lat="45.12839" lon="6.10507">
        <ele>2771.7</ele>
        <time>2024-07-08T12:51:08Z</time>
      </trkpt>
      <trkpt lat="45.12839" lon="6.10507">
        <ele>2771.7</ele>
        <time>2024-07-08T12:51:09Z</time>
      </trkpt>
      <trkpt lat="45.12839" lon="6.10507">
        <ele>2771.7</ele>
        <time>2024-07-08T12:51:10Z</time>
      </trkpt>
      <trkpt lat="45.12839" lon="6.10507">
        <ele>2771.7</ele>
        <time>2024-07-08T12:51:11Z</time>
      </trkpt>
      <trkpt lat="45.12839" lon="6.10507">
        <ele>2771.7</ele>
        <time>2024-07-08T12:51:12Z</time>
      </trkpt>
      <trkpt lat="45.12839" lon="6.10507">
        <ele>2771.7</ele>
        <time>2024-07-08T12:51:13Z</time>
      </trkpt>
      <trkpt lat="45.12839" lon="6.10507">
        <ele>2771.7</ele>
        <time>2024-07-08T12:51:14Z</time>
      </trkpt>
      <trkpt lat="45.12839" lon="6.10507">
        <ele>2771.7</ele>
        <time>2024-07-08T12:51:15Z</time>
      </trkpt>
      <trkpt lat="45.12839" lon="6.10507">
        <ele>2771.7</ele>
        <time>2024-07-08T12:51:16Z</time>
      </trkpt>
      <trkpt lat="45.12839" lon="6.10507">
        <ele>2771.6</ele>
        <time>2024-07-08T12:51:17Z</time>
      </trkpt>
      <trkpt lat="45.12838" lon="6.10507">
        <ele>2771.6</ele>
        <time>2024-07-08T12:51:18Z</time>
      </trkpt>
      <trkpt lat="45.12838" lon="6.10507">
        <ele>2771.6</ele>
        <time>2024-07-08T12:51:19Z</time>
      </trkpt>
      <trkpt lat="45.12838" lon="6.10507">
        <ele>2771.6</ele>
        <time>2024-07-08T12:51:20Z</time>
      </trkpt>
      <trkpt lat="45.12838" lon="6.10507">
        <ele>2771.6</ele>
        <time>2024-07-08T12:51:21Z</time>
      </trkpt>
      <trkpt lat="45.12838" lon="6.10507">
        <ele>2771.6</ele>
        <time>2024-07-08T12:51:22Z</time>
      </trkpt>
      <trkpt lat="45.12838" lon="6.10507">
        <ele>2771.5</ele>
        <time>2024-07-08T12:51:23Z</time>
      </trkpt>
      <trkpt lat="45.12838" lon="6.10507">
        <ele>2771.4</ele>
        <time>2024-07-08T12:51:24Z</time>
      </trkpt>
      <trkpt lat="45.12838" lon="6.10507">
        <ele>2771.3</ele>
        <time>2024-07-08T12:51:25Z</time>
      </trkpt>
      <trkpt lat="45.12838" lon="6.10507">
        <ele>2771.3</ele>
        <time>2024-07-08T12:51:26Z</time>
      </trkpt>
      <trkpt lat="45.12837" lon="6.10507">
        <ele>2771.2</ele>
        <time>2024-07-08T12:51:27Z</time>
      </trkpt>
      <trkpt lat="45.12837" lon="6.10507">
        <ele>2771.2</ele>
        <time>2024-07-08T12:51:28Z</time>
      </trkpt>
      <trkpt lat="45.12837" lon="6.10507">
        <ele>2771.2</ele>
        <time>2024-07-08T12:51:29Z</time>
      </trkpt>
      <trkpt lat="45.12837" lon="6.10507">
        <ele>2771.2</ele>
        <time>2024-07-08T12:51:30Z</time>
      </trkpt>
      <trkpt lat="45.12837" lon="6.10507">
        <ele>2771.2</ele>
        <time>2024-07-08T12:51:31Z</time>
      </trkpt>
      <trkpt lat="45.12837" lon="6.10507">
        <ele>2771.2</ele>
        <time>2024-07-08T12:51:32Z</time>
      </trkpt>
      <trkpt lat="45.12837" lon="6.10507">
        <ele>2771.2</ele>
        <time>2024-07-08T12:51:33Z</time>
      </trkpt>
      <trkpt lat="45.12837" lon="6.10508">
        <ele>2771.2</ele>
        <time>2024-07-08T12:51:34Z</time>
      </trkpt>
      <trkpt lat="45.12837" lon="6.10508">
        <ele>2771.2</ele>
        <time>2024-07-08T12:51:35Z</time>
      </trkpt>
      <trkpt lat="45.12837" lon="6.10508">
        <ele>2771.1</ele>
        <time>2024-07-08T12:51:36Z</time>
      </trkpt>
      <trkpt lat="45.12837" lon="6.10508">
        <ele>2771.1</ele>
        <time>2024-07-08T12:51:37Z</time>
      </trkpt>
      <trkpt lat="45.12837" lon="6.10509">
        <ele>2770.9</ele>
        <time>2024-07-08T12:51:38Z</time>
      </trkpt>
      <trkpt lat="45.12837" lon="6.10509">
        <ele>2770.8</ele>
        <time>2024-07-08T12:51:39Z</time>
      </trkpt>
      <trkpt lat="45.12838" lon="6.10509">
        <ele>2770.8</ele>
        <time>2024-07-08T12:51:40Z</time>
      </trkpt>
      <trkpt lat="45.12838" lon="6.10509">
        <ele>2770.8</ele>
        <time>2024-07-08T12:51:41Z</time>
      </trkpt>
      <trkpt lat="45.12838" lon="6.10509">
        <ele>2770.8</ele>
        <time>2024-07-08T12:51:42Z</time>
      </trkpt>
      <trkpt lat="45.12838" lon="6.10509">
        <ele>2770.8</ele>
        <time>2024-07-08T12:51:43Z</time>
      </trkpt>
      <trkpt lat="45.12838" lon="6.10509">
        <ele>2770.8</ele>
        <time>2024-07-08T12:51:44Z</time>
      </trkpt>
      <trkpt lat="45.12838" lon="6.10509">
        <ele>2770.8</ele>
        <time>2024-07-08T12:51:45Z</time>
      </trkpt>
      <trkpt lat="45.12838" lon="6.10509">
        <ele>2770.6</ele>
        <time>2024-07-08T12:51:46Z</time>
      </trkpt>
      <trkpt lat="45.12838" lon="6.10509">
        <ele>2770.6</ele>
        <time>2024-07-08T12:51:47Z</time>
      </trkpt>
      <trkpt lat="45.12838" lon="6.10509">
        <ele>2770.6</ele>
        <time>2024-07-08T12:51:48Z</time>
      </trkpt>
      <trkpt lat="45.12838" lon="6.10509">
        <ele>2770.6</ele>
        <time>2024-07-08T12:51:49Z</time>
      </trkpt>
      <trkpt lat="45.12838" lon="6.10509">
        <ele>2770.5</ele>
        <time>2024-07-08T12:51:50Z</time>
      </trkpt>
      <trkpt lat="45.12838" lon="6.10509">
        <ele>2770.5</ele>
        <time>2024-07-08T12:51:51Z</time>
      </trkpt>
      <trkpt lat="45.12838" lon="6.10509">
        <ele>2770.4</ele>
        <time>2024-07-08T12:51:52Z</time>
      </trkpt>
      <trkpt lat="45.12839" lon="6.10508">
        <ele>2770.2</ele>
        <time>2024-07-08T12:51:53Z</time>
      </trkpt>
      <trkpt lat="45.12839" lon="6.10508">
        <ele>2770.2</ele>
        <time>2024-07-08T12:51:54Z</time>
      </trkpt>
      <trkpt lat="45.12839" lon="6.10508">
        <ele>2770.2</ele>
        <time>2024-07-08T12:51:56Z</time>
      </trkpt>
      <trkpt lat="45.12839" lon="6.10508">
        <ele>2770.1</ele>
        <time>2024-07-08T12:51:57Z</time>
      </trkpt>
      <trkpt lat="45.1387" lon="6.09377">
        <ele>2041.1</ele>
        <time>2024-07-08T13:11:11Z</time>
      </trkpt>
      <trkpt lat="45.1387" lon="6.09377">
        <ele>2041.1</ele>
        <time>2024-07-08T13:11:12Z</time>
      </trkpt>
      <trkpt lat="45.1387" lon="6.09377">
        <ele>2041.1</ele>
        <time>2024-07-08T13:11:13Z</time>
      </trkpt>
      <trkpt lat="45.13869" lon="6.09377">
        <ele>2041.1</ele>
        <time>2024-07-08T13:11:14Z</time>
      </trkpt>
      <trkpt lat="45.13869" lon="6.09377">
        <ele>2041</ele>
        <time>2024-07-08T13:11:15Z</time>
      </trkpt>
      <trkpt lat="45.13869" lon="6.09378">
        <ele>2041</ele>
        <time>2024-07-08T13:11:16Z</time>
      </trkpt>
      <trkpt lat="45.13869" lon="6.09378">
        <ele>2041</ele>
        <time>2024-07-08T13:11:17Z</time>
      </trkpt>
      <trkpt lat="45.13869" lon="6.09379">
        <ele>2041</ele>
        <time>2024-07-08T13:11:18Z</time>
      </trkpt>
      <trkpt lat="45.13869" lon="6.09379">
        <ele>2041</ele>
        <time>2024-07-08T13:11:19Z</time>
      </trkpt>
      <trkpt lat="45.13869" lon="6.09379">
        <ele>2041</ele>
        <time>2024-07-08T13:11:20Z</time>
      </trkpt>
      <trkpt lat="45.13869" lon="6.09379">
        <ele>2041</ele>
        <time>2024-07-08T13:11:21Z</time>
      </trkpt>
      <trkpt lat="45.1387" lon="6.09378">
        <ele>2041</ele>
        <time>2024-07-08T13:11:22Z</time>
      </trkpt>
      <trkpt lat="45.1387" lon="6.09378">
        <ele>2041</ele>
        <time>2024-07-08T13:11:23Z</time>
      </trkpt>
      <trkpt lat="45.1387" lon="6.09378">
        <ele>2040.9</ele>
        <time>2024-07-08T13:11:24Z</time>
      </trkpt>
      <trkpt lat="45.1387" lon="6.09378">
        <ele>2040.9</ele>
        <time>2024-07-08T13:11:25Z</time>
      </trkpt>
      <trkpt lat="45.1387" lon="6.09378">
        <ele>2040.9</ele>
        <time>2024-07-08T13:11:26Z</time>
      </trkpt>
      <trkpt lat="45.1387" lon="6.09378">
        <ele>2040.9</ele>
        <time>2024-07-08T13:11:27Z</time>
      </trkpt>
      <trkpt lat="45.1387" lon="6.09378">
        <ele>2040.9</ele>
        <time>2024-07-08T13:11:28Z</time>
      </trkpt>
      <trkpt lat="45.1387" lon="6.09378">
        <ele>2040.9</ele>
        <time>2024-07-08T13:11:29Z</time>
      </trkpt>
      <trkpt lat="45.1387" lon="6.09378">
        <ele>2040.9</ele>
        <time>2024-07-08T13:11:30Z</time>
      </trkpt>
      <trkpt lat="45.1387" lon="6.09378">
        <ele>2040.9</ele>
        <time>2024-07-08T13:11:31Z</time>
      </trkpt>
      <trkpt lat="45.1387" lon="6.09378">
        <ele>2040.9</ele>
        <time>2024-07-08T13:11:32Z</time>
      </trkpt>
      <trkpt lat="45.1387" lon="6.09378">
        <ele>2040.9</ele>
        <time>2024-07-08T13:11:33Z</time>
      </trkpt>
      <trkpt lat="45.13869" lon="6.09378">
        <ele>2040.9</ele>
        <time>2024-07-08T13:11:34Z</time>
      </trkpt>
      <trkpt lat="45.13868" lon="6.09377">
        <ele>2040.8</ele>
        <time>2024-07-08T13:11:35Z</time>
      </trkpt>
      <trkpt lat="45.13867" lon="6.09377">
        <ele>2040.8</ele>
        <time>2024-07-08T13:11:36Z</time>
      </trkpt>
      <trkpt lat="45.13866" lon="6.09376">
        <ele>2040.8</ele>
        <time>2024-07-08T13:11:37Z</time>
      </trkpt>
      <trkpt lat="45.13865" lon="6.09375">
        <ele>2040.7</ele>
        <time>2024-07-08T13:11:38Z</time>
      </trkpt>
      <trkpt lat="45.13864" lon="6.09375">
        <ele>2040.6</ele>
        <time>2024-07-08T13:11:39Z</time>
      </trkpt>
      <trkpt lat="45.13863" lon="6.09375">
        <ele>2040.6</ele>
        <time>2024-07-08T13:11:40Z</time>
      </trkpt>
      <trkpt lat="45.13863" lon="6.09374">
        <ele>2040.5</ele>
        <time>2024-07-08T13:11:41Z</time>
      </trkpt>
      <trkpt lat="45.13862" lon="6.09374">
        <ele>2040.5</ele>
        <time>2024-07-08T13:11:42Z</time>
      </trkpt>
      <trkpt lat="45.13861" lon="6.09373">
        <ele>2040.4</ele>
        <time>2024-07-08T13:11:43Z</time>
      </trkpt>
      <trkpt lat="45.1386" lon="6.09372">
        <ele>2040.4</ele>
        <time>2024-07-08T13:11:44Z</time>
      </trkpt>
      <trkpt lat="45.13859" lon="6.09372">
        <ele>2040.3</ele>
        <time>2024-07-08T13:11:45Z</time>
      </trkpt>
      <trkpt lat="45.13858" lon="6.09372">
        <ele>2040.2</ele>
        <time>2024-07-08T13:11:46Z</time>
      </trkpt>
      <trkpt lat="45.13857" lon="6.09372">
        <ele>2040.2</ele>
        <time>2024-07-08T13:11:47Z</time>
      </trkpt>
      <trkpt lat="45.13856" lon="6.09372">
        <ele>2040.2</ele>
        <time>2024-07-08T13:11:48Z</time>
      </trkpt>
      <trkpt lat="45.13856" lon="6.09373">
        <ele>2040.1</ele>
        <time>2024-07-08T13:11:49Z</time>
      </trkpt>
      <trkpt lat="45.13855" lon="6.09373">
        <ele>2040.1</ele>
        <time>2024-07-08T13:11:50Z</time>
      </trkpt>
      <trkpt lat="45.13855" lon="6.09373">
        <ele>2040.1</ele>
        <time>2024-07-08T13:11:51Z</time>
      </trkpt>
      <trkpt lat="45.13855" lon="6.09373">
        <ele>2040</ele>
        <time>2024-07-08T13:11:52Z</time>
      </trkpt>
      <trkpt lat="45.13854" lon="6.09373">
        <ele>2040</ele>
        <time>2024-07-08T13:11:53Z</time>
      </trkpt>
      <trkpt lat="45.13853" lon="6.09373">
        <ele>2040</ele>
        <time>2024-07-08T13:11:54Z</time>
      </trkpt>
      <trkpt lat="45.13853" lon="6.09372">
        <ele>2039.9</ele>
        <time>2024-07-08T13:11:55Z</time>
      </trkpt>
      <trkpt lat="45.13851" lon="6.09372">
        <ele>2039.8</ele>
        <time>2024-07-08T13:11:56Z</time>
      </trkpt>
      <trkpt lat="45.1385" lon="6.09372">
        <ele>2039.8</ele>
        <time>2024-07-08T13:11:57Z</time>
      </trkpt>
      <trkpt lat="45.13849" lon="6.09373">
        <ele>2039.7</ele>
        <time>2024-07-08T13:11:58Z</time>
      </trkpt>
      <trkpt lat="45.13848" lon="6.09373">
        <ele>2039.6</ele>
        <time>2024-07-08T13:11:59Z</time>
      </trkpt>
      <trkpt lat="45.13847" lon="6.09373">
        <ele>2039.6</ele>
        <time>2024-07-08T13:12:00Z</time>
      </trkpt>
      <trkpt lat="45.13846" lon="6.09373">
        <ele>2039.5</ele>
        <time>2024-07-08T13:12:01Z</time>
      </trkpt>
      <trkpt lat="45.13845" lon="6.09373">
        <ele>2039.4</ele>
        <time>2024-07-08T13:12:02Z</time>
      </trkpt>
      <trkpt lat="45.13844" lon="6.09372">
        <ele>2039.4</ele>
        <time>2024-07-08T13:12:03Z</time>
      </trkpt>
      <trkpt lat="45.13843" lon="6.09373">
        <ele>2039.3</ele>
        <time>2024-07-08T13:12:04Z</time>
      </trkpt>
      <trkpt lat="45.13842" lon="6.09373">
        <ele>2039.2</ele>
        <time>2024-07-08T13:12:05Z</time>
      </trkpt>
      <trkpt lat="45.13841" lon="6.09372">
        <ele>2039.2</ele>
        <time>2024-07-08T13:12:06Z</time>
      </trkpt>
      <trkpt lat="45.13841" lon="6.09373">
        <ele>2039.1</ele>
        <time>2024-07-08T13:12:07Z</time>
      </trkpt>
      <trkpt lat="45.1384" lon="6.09373">
        <ele>2039</ele>
        <time>2024-07-08T13:12:08Z</time>
      </trkpt>
      <trkpt lat="45.13839" lon="6.09375">
        <ele>2038.9</ele>
        <time>2024-07-08T13:12:09Z</time>
      </trkpt>
      <trkpt lat="45.13838" lon="6.09376">
        <ele>2038.9</ele>
        <time>2024-07-08T13:12:10Z</time>
      </trkpt>
      <trkpt lat="45.13837" lon="6.09376">
        <ele>2038.8</ele>
        <time>2024-07-08T13:12:11Z</time>
      </trkpt>
      <trkpt lat="45.13837" lon="6.09376">
        <ele>2038.8</ele>
        <time>2024-07-08T13:12:12Z</time>
      </trkpt>
      <trkpt lat="45.13836" lon="6.09376">
        <ele>2038.7</ele>
        <time>2024-07-08T13:12:13Z</time>
      </trkpt>
      <trkpt lat="45.13836" lon="6.09377">
        <ele>2038.7</ele>
        <time>2024-07-08T13:12:14Z</time>
      </trkpt>
      <trkpt lat="45.13836" lon="6.09377">
        <ele>2038.7</ele>
        <time>2024-07-08T13:12:15Z</time>
      </trkpt>
      <trkpt lat="45.13836" lon="6.09378">
        <ele>2038.7</ele>
        <time>2024-07-08T13:12:16Z</time>
      </trkpt>
      <trkpt lat="45.13836" lon="6.09378">
        <ele>2038.6</ele>
        <time>2024-07-08T13:12:17Z</time>
      </trkpt>
      <trkpt lat="45.13836" lon="6.09379">
        <ele>2038.6</ele>
        <time>2024-07-08T13:12:18Z</time>
      </trkpt>
      <trkpt lat="45.13835" lon="6.0938">
        <ele>2038.5</ele>
        <time>2024-07-08T13:12:19Z</time>
      </trkpt>
      <trkpt lat="45.13835" lon="6.0938">
        <ele>2038.5</ele>
        <time>2024-07-08T13:12:20Z</time>
      </trkpt>
      <trkpt lat="45.13834" lon="6.09381">
        <ele>2038.5</ele>
        <time>2024-07-08T13:12:21Z</time>
      </trkpt>
      <trkpt lat="45.13833" lon="6.0938">
        <ele>2038.4</ele>
        <time>2024-07-08T13:12:22Z</time>
      </trkpt>
      <trkpt lat="45.13832" lon="6.0938">
        <ele>2038.3</ele>
        <time>2024-07-08T13:12:23Z</time>
      </trkpt>
      <trkpt lat="45.1383" lon="6.0938">
        <ele>2038.2</ele>
        <time>2024-07-08T13:12:24Z</time>
      </trkpt>
      <trkpt lat="45.13829" lon="6.0938">
        <ele>2038.1</ele>
        <time>2024-07-08T13:12:25Z</time>
      </trkpt>
      <trkpt lat="45.13827" lon="6.0938">
        <ele>2038</ele>
        <time>2024-07-08T13:12:26Z</time>
      </trkpt>
      <trkpt lat="45.13826" lon="6.0938">
        <ele>2038</ele>
        <time>2024-07-08T13:12:27Z</time>
      </trkpt>
      <trkpt lat="45.13825" lon="6.09379">
        <ele>2037.9</ele>
        <time>2024-07-08T13:12:28Z</time>
      </trkpt>
      <trkpt lat="45.13823" lon="6.09378">
        <ele>2037.8</ele>
        <time>2024-07-08T13:12:29Z</time>
      </trkpt>
      <trkpt lat="45.13822" lon="6.09378">
        <ele>2037.8</ele>
        <time>2024-07-08T13:12:30Z</time>
      </trkpt>
      <trkpt lat="45.13822" lon="6.09378">
        <ele>2037.7</ele>
        <time>2024-07-08T13:12:31Z</time>
      </trkpt>
      <trkpt lat="45.13819" lon="6.09377">
        <ele>2037.7</ele>
        <time>2024-07-08T13:12:32Z</time>
      </trkpt>
      <trkpt lat="45.13818" lon="6.09377">
        <ele>2037.6</ele>
        <time>2024-07-08T13:12:33Z</time>
      </trkpt>
      <trkpt lat="45.13818" lon="6.09377">
        <ele>2037.6</ele>
        <time>2024-07-08T13:12:34Z</time>
      </trkpt>
      <trkpt lat="45.13816" lon="6.09377">
        <ele>2037.6</ele>
        <time>2024-07-08T13:12:35Z</time>
      </trkpt>
      <trkpt lat="45.13816" lon="6.09377">
        <ele>2037.6</ele>
        <time>2024-07-08T13:12:36Z</time>
      </trkpt>
      <trkpt lat="45.13814" lon="6.09377">
        <ele>2037.6</ele>
        <time>2024-07-08T13:12:37Z</time>
      </trkpt>
      <trkpt lat="45.13813" lon="6.09376">
        <ele>2037.6</ele>
        <time>2024-07-08T13:12:38Z</time>
      </trkpt>
      <trkpt lat="45.13812" lon="6.09375">
        <ele>2037.6</ele>
        <time>2024-07-08T13:12:39Z</time>
      </trkpt>
      <trkpt lat="45.13811" lon="6.09374">
        <ele>2037.6</ele>
        <time>2024-07-08T13:12:40Z</time>
      </trkpt>
      <trkpt lat="45.1381" lon="6.09373">
        <ele>2037.6</ele>
        <time>2024-07-08T13:12:41Z</time>
      </trkpt>
      <trkpt lat="45.13809" lon="6.09372">
        <ele>2037.6</ele>
        <time>2024-07-08T13:12:42Z</time>
      </trkpt>
      <trkpt lat="45.13807" lon="6.09372">
        <ele>2037.6</ele>
        <time>2024-07-08T13:12:43Z</time>
      </trkpt>
      <trkpt lat="45.13806" lon="6.09372">
        <ele>2037.6</ele>
        <time>2024-07-08T13:12:44Z</time>
      </trkpt>
      <trkpt lat="45.13803" lon="6.09372">
        <ele>2037.7</ele>
        <time>2024-07-08T13:12:45Z</time>
      </trkpt>
      <trkpt lat="45.13802" lon="6.09372">
        <ele>2037.7</ele>
        <time>2024-07-08T13:12:46Z</time>
      </trkpt>
      <trkpt lat="45.138" lon="6.09373">
        <ele>2037.8</ele>
        <time>2024-07-08T13:12:47Z</time>
      </trkpt>
      <trkpt lat="45.13799" lon="6.09372">
        <ele>2037.8</ele>
        <time>2024-07-08T13:12:48Z</time>
      </trkpt>
      <trkpt lat="45.13799" lon="6.0937">
        <ele>2037.9</ele>
        <time>2024-07-08T13:12:49Z</time>
      </trkpt>
      <trkpt lat="45.13798" lon="6.09371">
        <ele>2037.9</ele>
        <time>2024-07-08T13:12:50Z</time>
      </trkpt>
      <trkpt lat="45.13797" lon="6.0937">
        <ele>2038</ele>
        <time>2024-07-08T13:12:51Z</time>
      </trkpt>
      <trkpt lat="45.13796" lon="6.0937">
        <ele>2038</ele>
        <time>2024-07-08T13:12:52Z</time>
      </trkpt>
      <trkpt lat="45.13794" lon="6.09369">
        <ele>2038.1</ele>
        <time>2024-07-08T13:12:53Z</time>
      </trkpt>
      <trkpt lat="45.13794" lon="6.09369">
        <ele>2038.1</ele>
        <time>2024-07-08T13:12:54Z</time>
      </trkpt>
      <trkpt lat="45.13793" lon="6.09369">
        <ele>2038.2</ele>
        <time>2024-07-08T13:12:55Z</time>
      </trkpt>
      <trkpt lat="45.13791" lon="6.09369">
        <ele>2038.2</ele>
        <time>2024-07-08T13:12:56Z</time>
      </trkpt>
      <trkpt lat="45.1379" lon="6.09369">
        <ele>2038.3</ele>
        <time>2024-07-08T13:12:57Z</time>
      </trkpt>
      <trkpt lat="45.13788" lon="6.09368">
        <ele>2038.4</ele>
        <time>2024-07-08T13:12:58Z</time>
      </trkpt>
      <trkpt lat="45.13788" lon="6.09367">
        <ele>2038.5</ele>
        <time>2024-07-08T13:12:59Z</time>
      </trkpt>
      <trkpt lat="45.13787" lon="6.09367">
        <ele>2038.5</ele>
        <time>2024-07-08T13:13:00Z</time>
      </trkpt>
      <trkpt lat="45.13785" lon="6.09366">
        <ele>2038.6</ele>
        <time>2024-07-08T13:13:01Z</time>
      </trkpt>
      <trkpt lat="45.13785" lon="6.09366">
        <ele>2038.7</ele>
        <time>2024-07-08T13:13:02Z</time>
      </trkpt>
      <trkpt lat="45.13783" lon="6.09367">
        <ele>2038.8</ele>
        <time>2024-07-08T13:13:03Z</time>
      </trkpt>
      <trkpt lat="45.13781" lon="6.09366">
        <ele>2038.9</ele>
        <time>2024-07-08T13:13:04Z</time>
      </trkpt>
      <trkpt lat="45.13781" lon="6.09366">
        <ele>2039</ele>
        <time>2024-07-08T13:13:05Z</time>
      </trkpt>
      <trkpt lat="45.1378" lon="6.09365">
        <ele>2039</ele>
        <time>2024-07-08T13:13:06Z</time>
      </trkpt>
      <trkpt lat="45.13779" lon="6.09365">
        <ele>2039.1</ele>
        <time>2024-07-08T13:13:07Z</time>
      </trkpt>
      <trkpt lat="45.13778" lon="6.09364">
        <ele>2039.2</ele>
        <time>2024-07-08T13:13:08Z</time>
      </trkpt>
      <trkpt lat="45.13776" lon="6.09364">
        <ele>2039.3</ele>
        <time>2024-07-08T13:13:09Z</time>
      </trkpt>
      <trkpt lat="45.13775" lon="6.09363">
        <ele>2039.4</ele>
        <time>2024-07-08T13:13:10Z</time>
      </trkpt>
      <trkpt lat="45.13774" lon="6.09363">
        <ele>2039.5</ele>
        <time>2024-07-08T13:13:11Z</time>
      </trkpt>
      <trkpt lat="45.13773" lon="6.09362">
        <ele>2039.6</ele>
        <time>2024-07-08T13:13:12Z</time>
      </trkpt>
      <trkpt lat="45.13773" lon="6.09361">
        <ele>2039.6</ele>
        <time>2024-07-08T13:13:13Z</time>
      </trkpt>
      <trkpt lat="45.13772" lon="6.09361">
        <ele>2039.7</ele>
        <time>2024-07-08T13:13:14Z</time>
      </trkpt>
      <trkpt lat="45.13771" lon="6.0936">
        <ele>2039.8</ele>
        <time>2024-07-08T13:13:15Z</time>
      </trkpt>
      <trkpt lat="45.1377" lon="6.09358">
        <ele>2039.9</ele>
        <time>2024-07-08T13:13:16Z</time>
      </trkpt>
      <trkpt lat="45.13769" lon="6.09357">
        <ele>2040</ele>
        <time>2024-07-08T13:13:17Z</time>
      </trkpt>
      <trkpt lat="45.13768" lon="6.09357">
        <ele>2040.1</ele>
        <time>2024-07-08T13:13:18Z</time>
      </trkpt>
      <trkpt lat="45.13766" lon="6.09355">
        <ele>2040.2</ele>
        <time>2024-07-08T13:13:19Z</time>
      </trkpt>
      <trkpt lat="45.13765" lon="6.09355">
        <ele>2040.3</ele>
        <time>2024-07-08T13:13:20Z</time>
      </trkpt>
      <trkpt lat="45.13765" lon="6.09354">
        <ele>2040.3</ele>
        <time>2024-07-08T13:13:21Z</time>
      </trkpt>
      <trkpt lat="45.13764" lon="6.09354">
        <ele>2040.4</ele>
        <time>2024-07-08T13:13:22Z</time>
      </trkpt>
      <trkpt lat="45.13762" lon="6.09353">
        <ele>2040.5</ele>
        <time>2024-07-08T13:13:23Z</time>
      </trkpt>
      <trkpt lat="45.13761" lon="6.09352">
        <ele>2040.6</ele>
        <time>2024-07-08T13:13:24Z</time>
      </trkpt>
      <trkpt lat="45.1376" lon="6.09352">
        <ele>2040.6</ele>
        <time>2024-07-08T13:13:25Z</time>
      </trkpt>
      <trkpt lat="45.13759" lon="6.09351">
        <ele>2040.7</ele>
        <time>2024-07-08T13:13:26Z</time>
      </trkpt>
      <trkpt lat="45.13759" lon="6.0935">
        <ele>2040.8</ele>
        <time>2024-07-08T13:13:27Z</time>
      </trkpt>
      <trkpt lat="45.13758" lon="6.09349">
        <ele>2040.9</ele>
        <time>2024-07-08T13:13:28Z</time>
      </trkpt>
      <trkpt lat="45.13757" lon="6.09348">
        <ele>2040.9</ele>
        <time>2024-07-08T13:13:29Z</time>
      </trkpt>
      <trkpt lat="45.13755" lon="6.09348">
        <ele>2041</ele>
        <time>2024-07-08T13:13:30Z</time>
      </trkpt>
      <trkpt lat="45.13754" lon="6.09347">
        <ele>2041.1</ele>
        <time>2024-07-08T13:13:31Z</time>
      </trkpt>
      <trkpt lat="45.13753" lon="6.09347">
        <ele>2041.1</ele>
        <time>2024-07-08T13:13:32Z</time>
      </trkpt>
      <trkpt lat="45.13752" lon="6.09347">
        <ele>2041.2</ele>
        <time>2024-07-08T13:13:33Z</time>
      </trkpt>
      <trkpt lat="45.13751" lon="6.09346">
        <ele>2041.3</ele>
        <time>2024-07-08T13:13:34Z</time>
      </trkpt>
      <trkpt lat="45.1375" lon="6.09346">
        <ele>2041.3</ele>
        <time>2024-07-08T13:13:35Z</time>
      </trkpt>
      <trkpt lat="45.13749" lon="6.09346">
        <ele>2041.4</ele>
        <time>2024-07-08T13:13:36Z</time>
      </trkpt>
      <trkpt lat="45.13748" lon="6.09346">
        <ele>2041.4</ele>
        <time>2024-07-08T13:13:37Z</time>
      </trkpt>
      <trkpt lat="45.13747" lon="6.09346">
        <ele>2041.5</ele>
        <time>2024-07-08T13:13:38Z</time>
      </trkpt>
      <trkpt lat="45.13746" lon="6.09346">
        <ele>2041.6</ele>
        <time>2024-07-08T13:13:39Z</time>
      </trkpt>
      <trkpt lat="45.13745" lon="6.09346">
        <ele>2041.6</ele>
        <time>2024-07-08T13:13:40Z</time>
      </trkpt>
      <trkpt lat="45.13743" lon="6.09346">
        <ele>2041.7</ele>
        <time>2024-07-08T13:13:41Z</time>
      </trkpt>
      <trkpt lat="45.13742" lon="6.09346">
        <ele>2041.7</ele>
        <time>2024-07-08T13:13:42Z</time>
      </trkpt>
      <trkpt lat="45.1374" lon="6.09346">
        <ele>2041.8</ele>
        <time>2024-07-08T13:13:43Z</time>
      </trkpt>
      <trkpt lat="45.13739" lon="6.09346">
        <ele>2041.9</ele>
        <time>2024-07-08T13:13:44Z</time>
      </trkpt>
      <trkpt lat="45.13739" lon="6.09346">
        <ele>2041.9</ele>
        <time>2024-07-08T13:13:45Z</time>
      </trkpt>
      <trkpt lat="45.13737" lon="6.09346">
        <ele>2042</ele>
        <time>2024-07-08T13:13:46Z</time>
      </trkpt>
      <trkpt lat="45.13736" lon="6.09346">
        <ele>2042</ele>
        <time>2024-07-08T13:13:47Z</time>
      </trkpt>
      <trkpt lat="45.13735" lon="6.09347">
        <ele>2042.1</ele>
        <time>2024-07-08T13:13:48Z</time>
      </trkpt>
      <trkpt lat="45.13734" lon="6.09347">
        <ele>2042.1</ele>
        <time>2024-07-08T13:13:49Z</time>
      </trkpt>
      <trkpt lat="45.13733" lon="6.09347">
        <ele>2042.2</ele>
        <time>2024-07-08T13:13:50Z</time>
      </trkpt>
      <trkpt lat="45.13732" lon="6.09346">
        <ele>2042.3</ele>
        <time>2024-07-08T13:13:51Z</time>
      </trkpt>
      <trkpt lat="45.13731" lon="6.09346">
        <ele>2042.3</ele>
        <time>2024-07-08T13:13:52Z</time>
      </trkpt>
      <trkpt lat="45.1373" lon="6.09346">
        <ele>2042.3</ele>
        <time>2024-07-08T13:13:53Z</time>
      </trkpt>
      <trkpt lat="45.13729" lon="6.09346">
        <ele>2042.4</ele>
        <time>2024-07-08T13:13:54Z</time>
      </trkpt>
      <trkpt lat="45.13728" lon="6.09345">
        <ele>2042.4</ele>
        <time>2024-07-08T13:13:55Z</time>
      </trkpt>
      <trkpt lat="45.13727" lon="6.09345">
        <ele>2042.5</ele>
        <time>2024-07-08T13:13:56Z</time>
      </trkpt>
      <trkpt lat="45.13726" lon="6.09345">
        <ele>2042.5</ele>
        <time>2024-07-08T13:13:57Z</time>
      </trkpt>
      <trkpt lat="45.13725" lon="6.09344">
        <ele>2042.5</ele>
        <time>2024-07-08T13:13:58Z</time>
      </trkpt>
      <trkpt lat="45.13724" lon="6.09344">
        <ele>2042.6</ele>
        <time>2024-07-08T13:13:59Z</time>
      </trkpt>
      <trkpt lat="45.13722" lon="6.09344">
        <ele>2042.6</ele>
        <time>2024-07-08T13:14:00Z</time>
      </trkpt>
      <trkpt lat="45.13721" lon="6.09344">
        <ele>2042.6</ele>
        <time>2024-07-08T13:14:01Z</time>
      </trkpt>
      <trkpt lat="45.1372" lon="6.09344">
        <ele>2042.6</ele>
        <time>2024-07-08T13:14:02Z</time>
      </trkpt>
      <trkpt lat="45.13719" lon="6.09345">
        <ele>2042.6</ele>
        <time>2024-07-08T13:14:03Z</time>
      </trkpt>
      <trkpt lat="45.13718" lon="6.09345">
        <ele>2042.6</ele>
        <time>2024-07-08T13:14:04Z</time>
      </trkpt>
      <trkpt lat="45.13717" lon="6.09345">
        <ele>2042.6</ele>
        <time>2024-07-08T13:14:05Z</time>
      </trkpt>
      <trkpt lat="45.13716" lon="6.09345">
        <ele>2042.6</ele>
        <time>2024-07-08T13:14:06Z</time>
      </trkpt>
      <trkpt lat="45.13715" lon="6.09345">
        <ele>2042.5</ele>
        <time>2024-07-08T13:14:07Z</time>
      </trkpt>
      <trkpt lat="45.13714" lon="6.09345">
        <ele>2042.5</ele>
        <time>2024-07-08T13:14:08Z</time>
      </trkpt>
      <trkpt lat="45.13713" lon="6.09344">
        <ele>2042.5</ele>
        <time>2024-07-08T13:14:09Z</time>
      </trkpt>
      <trkpt lat="45.13712" lon="6.09343">
        <ele>2042.4</ele>
        <time>2024-07-08T13:14:10Z</time>
      </trkpt>
      <trkpt lat="45.13711" lon="6.09342">
        <ele>2042.3</ele>
        <time>2024-07-08T13:14:11Z</time>
      </trkpt>
      <trkpt lat="45.1371" lon="6.09342">
        <ele>2042.3</ele>
        <time>2024-07-08T13:14:12Z</time>
      </trkpt>
      <trkpt lat="45.13709" lon="6.09341">
        <ele>2042.2</ele>
        <time>2024-07-08T13:14:13Z</time>
      </trkpt>
      <trkpt lat="45.13708" lon="6.09341">
        <ele>2042.2</ele>
        <time>2024-07-08T13:14:14Z</time>
      </trkpt>
      <trkpt lat="45.13707" lon="6.0934">
        <ele>2042.1</ele>
        <time>2024-07-08T13:14:15Z</time>
      </trkpt>
      <trkpt lat="45.13706" lon="6.0934">
        <ele>2042</ele>
        <time>2024-07-08T13:14:16Z</time>
      </trkpt>
      <trkpt lat="45.13705" lon="6.0934">
        <ele>2041.9</ele>
        <time>2024-07-08T13:14:17Z</time>
      </trkpt>
      <trkpt lat="45.13704" lon="6.0934">
        <ele>2041.9</ele>
        <time>2024-07-08T13:14:18Z</time>
      </trkpt>
      <trkpt lat="45.13703" lon="6.09339">
        <ele>2041.8</ele>
        <time>2024-07-08T13:14:19Z</time>
      </trkpt>
      <trkpt lat="45.13702" lon="6.09339">
        <ele>2041.7</ele>
        <time>2024-07-08T13:14:20Z</time>
      </trkpt>
      <trkpt lat="45.13701" lon="6.09339">
        <ele>2041.6</ele>
        <time>2024-07-08T13:14:21Z</time>
      </trkpt>
      <trkpt lat="45.137" lon="6.09339">
        <ele>2041.6</ele>
        <time>2024-07-08T13:14:22Z</time>
      </trkpt>
      <trkpt lat="45.13699" lon="6.09339">
        <ele>2041.5</ele>
        <time>2024-07-08T13:14:23Z</time>
      </trkpt>
      <trkpt lat="45.13698" lon="6.09339">
        <ele>2041.4</ele>
        <time>2024-07-08T13:14:24Z</time>
      </trkpt>
      <trkpt lat="45.13697" lon="6.0934">
        <ele>2041.4</ele>
        <time>2024-07-08T13:14:25Z</time>
      </trkpt>
      <trkpt lat="45.13696" lon="6.09339">
        <ele>2041.3</ele>
        <time>2024-07-08T13:14:26Z</time>
      </trkpt>
      <trkpt lat="45.13695" lon="6.0934">
        <ele>2041.3</ele>
        <time>2024-07-08T13:14:27Z</time>
      </trkpt>
      <trkpt lat="45.13694" lon="6.09339">
        <ele>2041.2</ele>
        <time>2024-07-08T13:14:28Z</time>
      </trkpt>
      <trkpt lat="45.13692" lon="6.0934">
        <ele>2041.2</ele>
        <time>2024-07-08T13:14:29Z</time>
      </trkpt>
      <trkpt lat="45.13691" lon="6.09339">
        <ele>2041.1</ele>
        <time>2024-07-08T13:14:30Z</time>
      </trkpt>
      <trkpt lat="45.1369" lon="6.09339">
        <ele>2041.1</ele>
        <time>2024-07-08T13:14:31Z</time>
      </trkpt>
      <trkpt lat="45.13689" lon="6.09338">
        <ele>2041.1</ele>
        <time>2024-07-08T13:14:32Z</time>
      </trkpt>
      <trkpt lat="45.13688" lon="6.09338">
        <ele>2041.1</ele>
        <time>2024-07-08T13:14:33Z</time>
      </trkpt>
      <trkpt lat="45.13686" lon="6.09338">
        <ele>2041.1</ele>
        <time>2024-07-08T13:14:34Z</time>
      </trkpt>
      <trkpt lat="45.13685" lon="6.09337">
        <ele>2041.1</ele>
        <time>2024-07-08T13:14:35Z</time>
      </trkpt>
      <trkpt lat="45.13684" lon="6.09337">
        <ele>2041.1</ele>
        <time>2024-07-08T13:14:36Z</time>
      </trkpt>
      <trkpt lat="45.13683" lon="6.09337">
        <ele>2041.1</ele>
        <time>2024-07-08T13:14:37Z</time>
      </trkpt>
      <trkpt lat="45.13682" lon="6.09338">
        <ele>2041.1</ele>
        <time>2024-07-08T13:14:38Z</time>
      </trkpt>
      <trkpt lat="45.1368" lon="6.09338">
        <ele>2041.1</ele>
        <time>2024-07-08T13:14:39Z</time>
      </trkpt>
      <trkpt lat="45.13679" lon="6.09339">
        <ele>2041.2</ele>
        <time>2024-07-08T13:14:40Z</time>
      </trkpt>
      <trkpt lat="45.13677" lon="6.09339">
        <ele>2041.2</ele>
        <time>2024-07-08T13:14:41Z</time>
      </trkpt>
      <trkpt lat="45.13676" lon="6.09339">
        <ele>2041.3</ele>
        <time>2024-07-08T13:14:42Z</time>
      </trkpt>
      <trkpt lat="45.13675" lon="6.09339">
        <ele>2041.3</ele>
        <time>2024-07-08T13:14:43Z</time>
      </trkpt>
      <trkpt lat="45.13674" lon="6.0934">
        <ele>2041.4</ele>
        <time>2024-07-08T13:14:44Z</time>
      </trkpt>
      <trkpt lat="45.13672" lon="6.09341">
        <ele>2041.5</ele>
        <time>2024-07-08T13:14:45Z</time>
      </trkpt>
      <trkpt lat="45.13671" lon="6.09341">
        <ele>2041.6</ele>
        <time>2024-07-08T13:14:46Z</time>
      </trkpt>
      <trkpt lat="45.1367" lon="6.09341">
        <ele>2041.7</ele>
        <time>2024-07-08T13:14:47Z</time>
      </trkpt>
      <trkpt lat="45.13668" lon="6.09341">
        <ele>2041.8</ele>
        <time>2024-07-08T13:14:48Z</time>
      </trkpt>
      <trkpt lat="45.13667" lon="6.09341">
        <ele>2041.9</ele>
        <time>2024-07-08T13:14:49Z</time>
      </trkpt>
      <trkpt lat="45.13667" lon="6.09342">
        <ele>2042</ele>
        <time>2024-07-08T13:14:50Z</time>
      </trkpt>
      <trkpt lat="45.13666" lon="6.09342">
        <ele>2042.1</ele>
        <time>2024-07-08T13:14:51Z</time>
      </trkpt>
      <trkpt lat="45.13664" lon="6.09342">
        <ele>2042.2</ele>
        <time>2024-07-08T13:14:52Z</time>
      </trkpt>
      <trkpt lat="45.13663" lon="6.09342">
        <ele>2042.3</ele>
        <time>2024-07-08T13:14:53Z</time>
      </trkpt>
      <trkpt lat="45.13661" lon="6.09342">
        <ele>2042.6</ele>
        <time>2024-07-08T13:14:54Z</time>
      </trkpt>
      <trkpt lat="45.1366" lon="6.09342">
        <ele>2042.7</ele>
        <time>2024-07-08T13:14:55Z</time>
      </trkpt>
      <trkpt lat="45.13659" lon="6.09342">
        <ele>2042.7</ele>
        <time>2024-07-08T13:14:56Z</time>
      </trkpt>
      <trkpt lat="45.13658" lon="6.09342">
        <ele>2042.9</ele>
        <time>2024-07-08T13:14:57Z</time>
      </trkpt>
      <trkpt lat="45.13657" lon="6.09341">
        <ele>2043</ele>
        <time>2024-07-08T13:14:58Z</time>
      </trkpt>
      <trkpt lat="45.13657" lon="6.09341">
        <ele>2043.1</ele>
        <time>2024-07-08T13:14:59Z</time>
      </trkpt>
      <trkpt lat="45.13656" lon="6.0934">
        <ele>2043.2</ele>
        <time>2024-07-08T13:15:00Z</time>
      </trkpt>
      <trkpt lat="45.13655" lon="6.09339">
        <ele>2043.3</ele>
        <time>2024-07-08T13:15:01Z</time>
      </trkpt>
      <trkpt lat="45.13654" lon="6.09337">
        <ele>2043.4</ele>
        <time>2024-07-08T13:15:02Z</time>
      </trkpt>
      <trkpt lat="45.13653" lon="6.09339">
        <ele>2043.5</ele>
        <time>2024-07-08T13:15:03Z</time>
      </trkpt>
      <trkpt lat="45.13651" lon="6.09339">
        <ele>2043.7</ele>
        <time>2024-07-08T13:15:04Z</time>
      </trkpt>
      <trkpt lat="45.1365" lon="6.0934">
        <ele>2043.7</ele>
        <time>2024-07-08T13:15:05Z</time>
      </trkpt>
      <trkpt lat="45.13649" lon="6.0934">
        <ele>2043.8</ele>
        <time>2024-07-08T13:15:06Z</time>
      </trkpt>
      <trkpt lat="45.13648" lon="6.0934">
        <ele>2043.9</ele>
        <time>2024-07-08T13:15:07Z</time>
      </trkpt>
      <trkpt lat="45.13647" lon="6.0934">
        <ele>2044</ele>
        <time>2024-07-08T13:15:08Z</time>
      </trkpt>
      <trkpt lat="45.13646" lon="6.0934">
        <ele>2044</ele>
        <time>2024-07-08T13:15:09Z</time>
      </trkpt>
      <trkpt lat="45.13645" lon="6.0934">
        <ele>2044.1</ele>
        <time>2024-07-08T13:15:10Z</time>
      </trkpt>
      <trkpt lat="45.13644" lon="6.09341">
        <ele>2044.2</ele>
        <time>2024-07-08T13:15:11Z</time>
      </trkpt>
      <trkpt lat="45.13643" lon="6.09341">
        <ele>2044.2</ele>
        <time>2024-07-08T13:15:12Z</time>
      </trkpt>
      <trkpt lat="45.13642" lon="6.09342">
        <ele>2044.3</ele>
        <time>2024-07-08T13:15:13Z</time>
      </trkpt>
      <trkpt lat="45.13641" lon="6.09343">
        <ele>2044.3</ele>
        <time>2024-07-08T13:15:14Z</time>
      </trkpt>
      <trkpt lat="45.1364" lon="6.09343">
        <ele>2044.4</ele>
        <time>2024-07-08T13:15:15Z</time>
      </trkpt>
      <trkpt lat="45.13639" lon="6.09343">
        <ele>2044.4</ele>
        <time>2024-07-08T13:15:16Z</time>
      </trkpt>
      <trkpt lat="45.13638" lon="6.09343">
        <ele>2044.4</ele>
        <time>2024-07-08T13:15:17Z</time>
      </trkpt>
      <trkpt lat="45.13637" lon="6.09342">
        <ele>2044.4</ele>
        <time>2024-07-08T13:15:18Z</time>
      </trkpt>
      <trkpt lat="45.13636" lon="6.09341">
        <ele>2044.4</ele>
        <time>2024-07-08T13:15:19Z</time>
      </trkpt>
      <trkpt lat="45.13635" lon="6.09341">
        <ele>2044.3</ele>
        <time>2024-07-08T13:15:20Z</time>
      </trkpt>
      <trkpt lat="45.13634" lon="6.0934">
        <ele>2044.3</ele>
        <time>2024-07-08T13:15:21Z</time>
      </trkpt>
      <trkpt lat="45.13633" lon="6.0934">
        <ele>2044.3</ele>
        <time>2024-07-08T13:15:22Z</time>
      </trkpt>
      <trkpt lat="45.13632" lon="6.0934">
        <ele>2044.3</ele>
        <time>2024-07-08T13:15:23Z</time>
      </trkpt>
      <trkpt lat="45.13631" lon="6.0934">
        <ele>2044.2</ele>
        <time>2024-07-08T13:15:24Z</time>
      </trkpt>
      <trkpt lat="45.1363" lon="6.09341">
        <ele>2044.2</ele>
        <time>2024-07-08T13:15:25Z</time>
      </trkpt>
      <trkpt lat="45.13629" lon="6.09341">
        <ele>2044.2</ele>
        <time>2024-07-08T13:15:26Z</time>
      </trkpt>
      <trkpt lat="45.13628" lon="6.09341">
        <ele>2044.1</ele>
        <time>2024-07-08T13:15:27Z</time>
      </trkpt>
      <trkpt lat="45.13627" lon="6.09341">
        <ele>2044.1</ele>
        <time>2024-07-08T13:15:28Z</time>
      </trkpt>
      <trkpt lat="45.13626" lon="6.09341">
        <ele>2044</ele>
        <time>2024-07-08T13:15:29Z</time>
      </trkpt>
      <trkpt lat="45.13625" lon="6.09341">
        <ele>2043.9</ele>
        <time>2024-07-08T13:15:30Z</time>
      </trkpt>
      <trkpt lat="45.13624" lon="6.09341">
        <ele>2043.9</ele>
        <time>2024-07-08T13:15:31Z</time>
      </trkpt>
      <trkpt lat="45.13623" lon="6.09342">
        <ele>2043.8</ele>
        <time>2024-07-08T13:15:32Z</time>
      </trkpt>
      <trkpt lat="45.13621" lon="6.09342">
        <ele>2043.7</ele>
        <time>2024-07-08T13:15:33Z</time>
      </trkpt>
      <trkpt lat="45.13619" lon="6.09341">
        <ele>2043.5</ele>
        <time>2024-07-08T13:15:34Z</time>
      </trkpt>
      <trkpt lat="45.13618" lon="6.09341">
        <ele>2043.4</ele>
        <time>2024-07-08T13:15:35Z</time>
      </trkpt>
      <trkpt lat="45.13618" lon="6.0934">
        <ele>2043.3</ele>
        <time>2024-07-08T13:15:36Z</time>
      </trkpt>
      <trkpt lat="45.13617" lon="6.0934">
        <ele>2043.2</ele>
        <time>2024-07-08T13:15:37Z</time>
      </trkpt>
      <trkpt lat="45.13616" lon="6.0934">
        <ele>2043.1</ele>
        <time>2024-07-08T13:15:38Z</time>
      </trkpt>
      <trkpt lat="45.13615" lon="6.0934">
        <ele>2042.9</ele>
        <time>2024-07-08T13:15:39Z</time>
      </trkpt>
      <trkpt lat="45.13614" lon="6.09339">
        <ele>2042.8</ele>
        <time>2024-07-08T13:15:40Z</time>
      </trkpt>
      <trkpt lat="45.13613" lon="6.09339">
        <ele>2042.6</ele>
        <time>2024-07-08T13:15:41Z</time>
      </trkpt>
      <trkpt lat="45.13612" lon="6.09339">
        <ele>2042.5</ele>
        <time>2024-07-08T13:15:42Z</time>
      </trkpt>
      <trkpt lat="45.13611" lon="6.09339">
        <ele>2042.4</ele>
        <time>2024-07-08T13:15:43Z</time>
      </trkpt>
      <trkpt lat="45.13609" lon="6.09338">
        <ele>2042.2</ele>
        <time>2024-07-08T13:15:44Z</time>
      </trkpt>
      <trkpt lat="45.13608" lon="6.09338">
        <ele>2042</ele>
        <time>2024-07-08T13:15:45Z</time>
      </trkpt>
      <trkpt lat="45.13606" lon="6.09338">
        <ele>2041.7</ele>
        <time>2024-07-08T13:15:46Z</time>
      </trkpt>
      <trkpt lat="45.13606" lon="6.09338">
        <ele>2041.6</ele>
        <time>2024-07-08T13:15:47Z</time>
      </trkpt>
      <trkpt lat="45.13605" lon="6.09338">
        <ele>2041.5</ele>
        <time>2024-07-08T13:15:48Z</time>
      </trkpt>
      <trkpt lat="45.13603" lon="6.09337">
        <ele>2041.2</ele>
        <time>2024-07-08T13:15:49Z</time>
      </trkpt>
      <trkpt lat="45.13602" lon="6.09337">
        <ele>2041.1</ele>
        <time>2024-07-08T13:15:50Z</time>
      </trkpt>
      <trkpt lat="45.13601" lon="6.09337">
        <ele>2041</ele>
        <time>2024-07-08T13:15:51Z</time>
      </trkpt>
      <trkpt lat="45.13599" lon="6.09335">
        <ele>2040.7</ele>
        <time>2024-07-08T13:15:52Z</time>
      </trkpt>
      <trkpt lat="45.13598" lon="6.09334">
        <ele>2040.6</ele>
        <time>2024-07-08T13:15:53Z</time>
      </trkpt>
      <trkpt lat="45.13597" lon="6.09334">
        <ele>2040.5</ele>
        <time>2024-07-08T13:15:54Z</time>
      </trkpt>
      <trkpt lat="45.13597" lon="6.09333">
        <ele>2040.4</ele>
        <time>2024-07-08T13:15:55Z</time>
      </trkpt>
      <trkpt lat="45.13595" lon="6.09332">
        <ele>2040.2</ele>
        <time>2024-07-08T13:15:56Z</time>
      </trkpt>
      <trkpt lat="45.13594" lon="6.09332">
        <ele>2040.1</ele>
        <time>2024-07-08T13:15:57Z</time>
      </trkpt>
      <trkpt lat="45.13593" lon="6.09331">
        <ele>2040</ele>
        <time>2024-07-08T13:15:58Z</time>
      </trkpt>
      <trkpt lat="45.13591" lon="6.09331">
        <ele>2039.9</ele>
        <time>2024-07-08T13:15:59Z</time>
      </trkpt>
      <trkpt lat="45.13591" lon="6.09332">
        <ele>2039.8</ele>
        <time>2024-07-08T13:16:00Z</time>
      </trkpt>
      <trkpt lat="45.13589" lon="6.09331">
        <ele>2039.7</ele>
        <time>2024-07-08T13:16:01Z</time>
      </trkpt>
      <trkpt lat="45.13588" lon="6.09331">
        <ele>2039.6</ele>
        <time>2024-07-08T13:16:02Z</time>
      </trkpt>
      <trkpt lat="45.13587" lon="6.0933">
        <ele>2039.6</ele>
        <time>2024-07-08T13:16:03Z</time>
      </trkpt>
      <trkpt lat="45.13586" lon="6.09329">
        <ele>2039.5</ele>
        <time>2024-07-08T13:16:04Z</time>
      </trkpt>
      <trkpt lat="45.13585" lon="6.09329">
        <ele>2039.4</ele>
        <time>2024-07-08T13:16:05Z</time>
      </trkpt>
      <trkpt lat="45.13584" lon="6.09328">
        <ele>2039.4</ele>
        <time>2024-07-08T13:16:06Z</time>
      </trkpt>
      <trkpt lat="45.13583" lon="6.09328">
        <ele>2039.3</ele>
        <time>2024-07-08T13:16:07Z</time>
      </trkpt>
      <trkpt lat="45.13582" lon="6.09328">
        <ele>2039.2</ele>
        <time>2024-07-08T13:16:08Z</time>
      </trkpt>
      <trkpt lat="45.1358" lon="6.09328">
        <ele>2039.1</ele>
        <time>2024-07-08T13:16:09Z</time>
      </trkpt>
      <trkpt lat="45.1358" lon="6.09328">
        <ele>2039.1</ele>
        <time>2024-07-08T13:16:10Z</time>
      </trkpt>
      <trkpt lat="45.13579" lon="6.09328">
        <ele>2039.1</ele>
        <time>2024-07-08T13:16:11Z</time>
      </trkpt>
      <trkpt lat="45.13577" lon="6.09328">
        <ele>2039</ele>
        <time>2024-07-08T13:16:12Z</time>
      </trkpt>
      <trkpt lat="45.13576" lon="6.09328">
        <ele>2039</ele>
        <time>2024-07-08T13:16:13Z</time>
      </trkpt>
      <trkpt lat="45.13575" lon="6.09328">
        <ele>2039</ele>
        <time>2024-07-08T13:16:14Z</time>
      </trkpt>
      <trkpt lat="45.13574" lon="6.09328">
        <ele>2039</ele>
        <time>2024-07-08T13:16:15Z</time>
      </trkpt>
      <trkpt lat="45.13573" lon="6.09328">
        <ele>2038.9</ele>
        <time>2024-07-08T13:16:16Z</time>
      </trkpt>
      <trkpt lat="45.13572" lon="6.09327">
        <ele>2038.9</ele>
        <time>2024-07-08T13:16:17Z</time>
      </trkpt>
      <trkpt lat="45.13572" lon="6.09328">
        <ele>2038.9</ele>
        <time>2024-07-08T13:16:18Z</time>
      </trkpt>
      <trkpt lat="45.13571" lon="6.0933">
        <ele>2038.9</ele>
        <time>2024-07-08T13:16:19Z</time>
      </trkpt>
      <trkpt lat="45.1357" lon="6.09331">
        <ele>2038.9</ele>
        <time>2024-07-08T13:16:20Z</time>
      </trkpt>
      <trkpt lat="45.13568" lon="6.09332">
        <ele>2038.8</ele>
        <time>2024-07-08T13:16:21Z</time>
      </trkpt>
      <trkpt lat="45.13568" lon="6.09332">
        <ele>2038.8</ele>
        <time>2024-07-08T13:16:22Z</time>
      </trkpt>
      <trkpt lat="45.13567" lon="6.09332">
        <ele>2038.8</ele>
        <time>2024-07-08T13:16:23Z</time>
      </trkpt>
      <trkpt lat="45.13565" lon="6.09332">
        <ele>2038.8</ele>
        <time>2024-07-08T13:16:24Z</time>
      </trkpt>
      <trkpt lat="45.13564" lon="6.09332">
        <ele>2038.8</ele>
        <time>2024-07-08T13:16:25Z</time>
      </trkpt>
      <trkpt lat="45.13563" lon="6.09331">
        <ele>2038.8</ele>
        <time>2024-07-08T13:16:26Z</time>
      </trkpt>
      <trkpt lat="45.13561" lon="6.0933">
        <ele>2038.8</ele>
        <time>2024-07-08T13:16:27Z</time>
      </trkpt>
      <trkpt lat="45.13561" lon="6.0933">
        <ele>2038.8</ele>
        <time>2024-07-08T13:16:28Z</time>
      </trkpt>
      <trkpt lat="45.1356" lon="6.09329">
        <ele>2038.8</ele>
        <time>2024-07-08T13:16:29Z</time>
      </trkpt>
      <trkpt lat="45.13559" lon="6.09329">
        <ele>2038.8</ele>
        <time>2024-07-08T13:16:30Z</time>
      </trkpt>
      <trkpt lat="45.13558" lon="6.09329">
        <ele>2038.9</ele>
        <time>2024-07-08T13:16:31Z</time>
      </trkpt>
      <trkpt lat="45.13557" lon="6.09329">
        <ele>2038.9</ele>
        <time>2024-07-08T13:16:32Z</time>
      </trkpt>
      <trkpt lat="45.13556" lon="6.09329">
        <ele>2038.9</ele>
        <time>2024-07-08T13:16:33Z</time>
      </trkpt>
      <trkpt lat="45.13554" lon="6.09328">
        <ele>2038.9</ele>
        <time>2024-07-08T13:16:34Z</time>
      </trkpt>
      <trkpt lat="45.13554" lon="6.09328">
        <ele>2038.9</ele>
        <time>2024-07-08T13:16:35Z</time>
      </trkpt>
      <trkpt lat="45.13553" lon="6.09327">
        <ele>2038.9</ele>
        <time>2024-07-08T13:16:36Z</time>
      </trkpt>
      <trkpt lat="45.13552" lon="6.09326">
        <ele>2039</ele>
        <time>2024-07-08T13:16:37Z</time>
      </trkpt>
      <trkpt lat="45.13551" lon="6.09325">
        <ele>2039</ele>
        <time>2024-07-08T13:16:38Z</time>
      </trkpt>
      <trkpt lat="45.13549" lon="6.09324">
        <ele>2039</ele>
        <time>2024-07-08T13:16:39Z</time>
      </trkpt>
      <trkpt lat="45.13548" lon="6.09323">
        <ele>2039.1</ele>
        <time>2024-07-08T13:16:40Z</time>
      </trkpt>
      <trkpt lat="45.13547" lon="6.09323">
        <ele>2039.1</ele>
        <time>2024-07-08T13:16:41Z</time>
      </trkpt>
      <trkpt lat="45.13546" lon="6.09322">
        <ele>2039.1</ele>
        <time>2024-07-08T13:16:42Z</time>
      </trkpt>
      <trkpt lat="45.13545" lon="6.09321">
        <ele>2039.2</ele>
        <time>2024-07-08T13:16:43Z</time>
      </trkpt>
      <trkpt lat="45.13544" lon="6.0932">
        <ele>2039.2</ele>
        <time>2024-07-08T13:16:44Z</time>
      </trkpt>
      <trkpt lat="45.13543" lon="6.0932">
        <ele>2039.2</ele>
        <time>2024-07-08T13:16:45Z</time>
      </trkpt>
      <trkpt lat="45.13542" lon="6.0932">
        <ele>2039.3</ele>
        <time>2024-07-08T13:16:46Z</time>
      </trkpt>
      <trkpt lat="45.1354" lon="6.0932">
        <ele>2039.3</ele>
        <time>2024-07-08T13:16:47Z</time>
      </trkpt>
      <trkpt lat="45.13539" lon="6.09319">
        <ele>2039.3</ele>
        <time>2024-07-08T13:16:48Z</time>
      </trkpt>
      <trkpt lat="45.13538" lon="6.09319">
        <ele>2039.4</ele>
        <time>2024-07-08T13:16:49Z</time>
      </trkpt>
      <trkpt lat="45.13537" lon="6.0932">
        <ele>2039.4</ele>
        <time>2024-07-08T13:16:50Z</time>
      </trkpt>
      <trkpt lat="45.13536" lon="6.0932">
        <ele>2039.4</ele>
        <time>2024-07-08T13:16:51Z</time>
      </trkpt>
      <trkpt lat="45.13535" lon="6.09319">
        <ele>2039.4</ele>
        <time>2024-07-08T13:16:52Z</time>
      </trkpt>
      <trkpt lat="45.13533" lon="6.09318">
        <ele>2039.4</ele>
        <time>2024-07-08T13:16:53Z</time>
      </trkpt>
      <trkpt lat="45.13533" lon="6.09317">
        <ele>2039.4</ele>
        <time>2024-07-08T13:16:54Z</time>
      </trkpt>
      <trkpt lat="45.13532" lon="6.09316">
        <ele>2039.5</ele>
        <time>2024-07-08T13:16:55Z</time>
      </trkpt>
      <trkpt lat="45.13531" lon="6.09314">
        <ele>2039.5</ele>
        <time>2024-07-08T13:16:56Z</time>
      </trkpt>
      <trkpt lat="45.1353" lon="6.09313">
        <ele>2039.5</ele>
        <time>2024-07-08T13:16:57Z</time>
      </trkpt>
      <trkpt lat="45.13529" lon="6.09313">
        <ele>2039.5</ele>
        <time>2024-07-08T13:16:58Z</time>
      </trkpt>
      <trkpt lat="45.13528" lon="6.09312">
        <ele>2039.5</ele>
        <time>2024-07-08T13:16:59Z</time>
      </trkpt>
      <trkpt lat="45.13527" lon="6.09312">
        <ele>2039.6</ele>
        <time>2024-07-08T13:17:00Z</time>
      </trkpt>
      <trkpt lat="45.13526" lon="6.09311">
        <ele>2039.6</ele>
        <time>2024-07-08T13:17:01Z</time>
      </trkpt>
      <trkpt lat="45.13525" lon="6.09311">
        <ele>2039.6</ele>
        <time>2024-07-08T13:17:02Z</time>
      </trkpt>
      <trkpt lat="45.13524" lon="6.09311">
        <ele>2039.6</ele>
        <time>2024-07-08T13:17:03Z</time>
      </trkpt>
      <trkpt lat="45.13523" lon="6.09311">
        <ele>2039.6</ele>
        <time>2024-07-08T13:17:04Z</time>
      </trkpt>
      <trkpt lat="45.13522" lon="6.0931">
        <ele>2039.6</ele>
        <time>2024-07-08T13:17:05Z</time>
      </trkpt>
      <trkpt lat="45.13521" lon="6.09309">
        <ele>2039.7</ele>
        <time>2024-07-08T13:17:06Z</time>
      </trkpt>
      <trkpt lat="45.1352" lon="6.09308">
        <ele>2039.7</ele>
        <time>2024-07-08T13:17:07Z</time>
      </trkpt>
      <trkpt lat="45.13519" lon="6.09307">
        <ele>2039.7</ele>
        <time>2024-07-08T13:17:08Z</time>
      </trkpt>
      <trkpt lat="45.13518" lon="6.09307">
        <ele>2039.7</ele>
        <time>2024-07-08T13:17:09Z</time>
      </trkpt>
      <trkpt lat="45.13517" lon="6.09306">
        <ele>2039.8</ele>
        <time>2024-07-08T13:17:10Z</time>
      </trkpt>
      <trkpt lat="45.13516" lon="6.09305">
        <ele>2039.8</ele>
        <time>2024-07-08T13:17:11Z</time>
      </trkpt>
      <trkpt lat="45.13515" lon="6.09305">
        <ele>2039.9</ele>
        <time>2024-07-08T13:17:12Z</time>
      </trkpt>
      <trkpt lat="45.13514" lon="6.09305">
        <ele>2039.9</ele>
        <time>2024-07-08T13:17:13Z</time>
      </trkpt>
      <trkpt lat="45.13513" lon="6.09305">
        <ele>2039.9</ele>
        <time>2024-07-08T13:17:14Z</time>
      </trkpt>
      <trkpt lat="45.13512" lon="6.09304">
        <ele>2040</ele>
        <time>2024-07-08T13:17:15Z</time>
      </trkpt>
      <trkpt lat="45.13511" lon="6.09303">
        <ele>2040</ele>
        <time>2024-07-08T13:17:16Z</time>
      </trkpt>
      <trkpt lat="45.13511" lon="6.09303">
        <ele>2040.1</ele>
        <time>2024-07-08T13:17:17Z</time>
      </trkpt>
      <trkpt lat="45.1351" lon="6.09302">
        <ele>2040.1</ele>
        <time>2024-07-08T13:17:18Z</time>
      </trkpt>
      <trkpt lat="45.13509" lon="6.09303">
        <ele>2040.2</ele>
        <time>2024-07-08T13:17:19Z</time>
      </trkpt>
      <trkpt lat="45.13509" lon="6.09305">
        <ele>2040.2</ele>
        <time>2024-07-08T13:17:20Z</time>
      </trkpt>
      <trkpt lat="45.13508" lon="6.09305">
        <ele>2040.2</ele>
        <time>2024-07-08T13:17:21Z</time>
      </trkpt>
      <trkpt lat="45.13509" lon="6.09305">
        <ele>2040.3</ele>
        <time>2024-07-08T13:17:22Z</time>
      </trkpt>
      <trkpt lat="45.13508" lon="6.09305">
        <ele>2040.3</ele>
        <time>2024-07-08T13:17:23Z</time>
      </trkpt>
      <trkpt lat="45.13508" lon="6.09306">
        <ele>2040.3</ele>
        <time>2024-07-08T13:17:24Z</time>
      </trkpt>
      <trkpt lat="45.13508" lon="6.09306">
        <ele>2040.3</ele>
        <time>2024-07-08T13:17:25Z</time>
      </trkpt>
      <trkpt lat="45.13506" lon="6.09307">
        <ele>2040.4</ele>
        <time>2024-07-08T13:17:26Z</time>
      </trkpt>
      <trkpt lat="45.13505" lon="6.09306">
        <ele>2040.5</ele>
        <time>2024-07-08T13:17:27Z</time>
      </trkpt>
      <trkpt lat="45.13505" lon="6.09306">
        <ele>2040.5</ele>
        <time>2024-07-08T13:17:28Z</time>
      </trkpt>
      <trkpt lat="45.13503" lon="6.09305">
        <ele>2040.6</ele>
        <time>2024-07-08T13:17:29Z</time>
      </trkpt>
      <trkpt lat="45.13503" lon="6.09304">
        <ele>2040.6</ele>
        <time>2024-07-08T13:17:30Z</time>
      </trkpt>
      <trkpt lat="45.13502" lon="6.09303">
        <ele>2040.7</ele>
        <time>2024-07-08T13:17:31Z</time>
      </trkpt>
      <trkpt lat="45.13501" lon="6.09303">
        <ele>2040.7</ele>
        <time>2024-07-08T13:17:32Z</time>
      </trkpt>
      <trkpt lat="45.135" lon="6.09303">
        <ele>2040.8</ele>
        <time>2024-07-08T13:17:33Z</time>
      </trkpt>
      <trkpt lat="45.13498" lon="6.09301">
        <ele>2040.9</ele>
        <time>2024-07-08T13:17:34Z</time>
      </trkpt>
      <trkpt lat="45.13497" lon="6.09301">
        <ele>2041</ele>
        <time>2024-07-08T13:17:35Z</time>
      </trkpt>
      <trkpt lat="45.13497" lon="6.093">
        <ele>2041</ele>
        <time>2024-07-08T13:17:36Z</time>
      </trkpt>
      <trkpt lat="45.13496" lon="6.09299">
        <ele>2041.1</ele>
        <time>2024-07-08T13:17:37Z</time>
      </trkpt>
      <trkpt lat="45.13495" lon="6.09298">
        <ele>2041.1</ele>
        <time>2024-07-08T13:17:38Z</time>
      </trkpt>
      <trkpt lat="45.13494" lon="6.09297">
        <ele>2041.2</ele>
        <time>2024-07-08T13:17:39Z</time>
      </trkpt>
      <trkpt lat="45.13493" lon="6.09296">
        <ele>2041.2</ele>
        <time>2024-07-08T13:17:40Z</time>
      </trkpt>
      <trkpt lat="45.13492" lon="6.09295">
        <ele>2041.3</ele>
        <time>2024-07-08T13:17:41Z</time>
      </trkpt>
      <trkpt lat="45.13491" lon="6.09295">
        <ele>2041.3</ele>
        <time>2024-07-08T13:17:42Z</time>
      </trkpt>
      <trkpt lat="45.1349" lon="6.09292">
        <ele>2041.3</ele>
        <time>2024-07-08T13:17:43Z</time>
      </trkpt>
      <trkpt lat="45.1349" lon="6.09291">
        <ele>2041.3</ele>
        <time>2024-07-08T13:17:44Z</time>
      </trkpt>
      <trkpt lat="45.1349" lon="6.0929">
        <ele>2041.3</ele>
        <time>2024-07-08T13:17:45Z</time>
      </trkpt>
      <trkpt lat="45.13488" lon="6.09287">
        <ele>2041.3</ele>
        <time>2024-07-08T13:17:46Z</time>
      </trkpt>
      <trkpt lat="45.13487" lon="6.09287">
        <ele>2041.3</ele>
        <time>2024-07-08T13:17:47Z</time>
      </trkpt>
      <trkpt lat="45.13487" lon="6.09287">
        <ele>2041.3</ele>
        <time>2024-07-08T13:17:48Z</time>
      </trkpt>
      <trkpt lat="45.13484" lon="6.09286">
        <ele>2041.3</ele>
        <time>2024-07-08T13:17:49Z</time>
      </trkpt>
      <trkpt lat="45.13483" lon="6.09286">
        <ele>2041.3</ele>
        <time>2024-07-08T13:17:50Z</time>
      </trkpt>
      <trkpt lat="45.13483" lon="6.09286">
        <ele>2041.2</ele>
        <time>2024-07-08T13:17:51Z</time>
      </trkpt>
      <trkpt lat="45.13481" lon="6.09288">
        <ele>2041.2</ele>
        <time>2024-07-08T13:17:52Z</time>
      </trkpt>
      <trkpt lat="45.13481" lon="6.09289">
        <ele>2041.1</ele>
        <time>2024-07-08T13:17:53Z</time>
      </trkpt>
      <trkpt lat="45.1348" lon="6.09291">
        <ele>2041.1</ele>
        <time>2024-07-08T13:17:54Z</time>
      </trkpt>
      <trkpt lat="45.1348" lon="6.09292">
        <ele>2041</ele>
        <time>2024-07-08T13:17:55Z</time>
      </trkpt>
      <trkpt lat="45.13479" lon="6.09294">
        <ele>2040.9</ele>
        <time>2024-07-08T13:17:56Z</time>
      </trkpt>
      <trkpt lat="45.13478" lon="6.09295">
        <ele>2040.9</ele>
        <time>2024-07-08T13:17:57Z</time>
      </trkpt>
      <trkpt lat="45.13478" lon="6.09297">
        <ele>2040.8</ele>
        <time>2024-07-08T13:17:58Z</time>
      </trkpt>
      <trkpt lat="45.13477" lon="6.09297">
        <ele>2040.7</ele>
        <time>2024-07-08T13:17:59Z</time>
      </trkpt>
      <trkpt lat="45.13475" lon="6.09297">
        <ele>2040.6</ele>
        <time>2024-07-08T13:18:00Z</time>
      </trkpt>
      <trkpt lat="45.13474" lon="6.09297">
        <ele>2040.6</ele>
        <time>2024-07-08T13:18:01Z</time>
      </trkpt>
      <trkpt lat="45.13473" lon="6.09297">
        <ele>2040.6</ele>
        <time>2024-07-08T13:18:02Z</time>
      </trkpt>
      <trkpt lat="45.13472" lon="6.09298">
        <ele>2040.5</ele>
        <time>2024-07-08T13:18:03Z</time>
      </trkpt>
      <trkpt lat="45.13472" lon="6.09299">
        <ele>2040.5</ele>
        <time>2024-07-08T13:18:04Z</time>
      </trkpt>
      <trkpt lat="45.1347" lon="6.09299">
        <ele>2040.4</ele>
        <time>2024-07-08T13:18:05Z</time>
      </trkpt>
      <trkpt lat="45.13469" lon="6.09299">
        <ele>2040.4</ele>
        <time>2024-07-08T13:18:06Z</time>
      </trkpt>
      <trkpt lat="45.13467" lon="6.09298">
        <ele>2040.4</ele>
        <time>2024-07-08T13:18:07Z</time>
      </trkpt>
      <trkpt lat="45.13466" lon="6.09297">
        <ele>2040.4</ele>
        <time>2024-07-08T13:18:08Z</time>
      </trkpt>
      <trkpt lat="45.13465" lon="6.09296">
        <ele>2040.4</ele>
        <time>2024-07-08T13:18:09Z</time>
      </trkpt>
      <trkpt lat="45.13464" lon="6.09296">
        <ele>2040.4</ele>
        <time>2024-07-08T13:18:10Z</time>
      </trkpt>
      <trkpt lat="45.13463" lon="6.09296">
        <ele>2040.4</ele>
        <time>2024-07-08T13:18:11Z</time>
      </trkpt>
      <trkpt lat="45.13462" lon="6.09297">
        <ele>2040.4</ele>
        <time>2024-07-08T13:18:12Z</time>
      </trkpt>
      <trkpt lat="45.13461" lon="6.09296">
        <ele>2040.4</ele>
        <time>2024-07-08T13:18:13Z</time>
      </trkpt>
      <trkpt lat="45.1346" lon="6.09296">
        <ele>2040.4</ele>
        <time>2024-07-08T13:18:14Z</time>
      </trkpt>
      <trkpt lat="45.13459" lon="6.09296">
        <ele>2040.5</ele>
        <time>2024-07-08T13:18:15Z</time>
      </trkpt>
      <trkpt lat="45.13458" lon="6.09296">
        <ele>2040.5</ele>
        <time>2024-07-08T13:18:16Z</time>
      </trkpt>
      <trkpt lat="45.13457" lon="6.09297">
        <ele>2040.6</ele>
        <time>2024-07-08T13:18:17Z</time>
      </trkpt>
      <trkpt lat="45.13456" lon="6.09297">
        <ele>2040.6</ele>
        <time>2024-07-08T13:18:18Z</time>
      </trkpt>
      <trkpt lat="45.13455" lon="6.09296">
        <ele>2040.6</ele>
        <time>2024-07-08T13:18:19Z</time>
      </trkpt>
      <trkpt lat="45.13454" lon="6.09296">
        <ele>2040.7</ele>
        <time>2024-07-08T13:18:20Z</time>
      </trkpt>
      <trkpt lat="45.13454" lon="6.09296">
        <ele>2040.7</ele>
        <time>2024-07-08T13:18:21Z</time>
      </trkpt>
      <trkpt lat="45.13453" lon="6.09295">
        <ele>2040.8</ele>
        <time>2024-07-08T13:18:22Z</time>
      </trkpt>
      <trkpt lat="45.13452" lon="6.09295">
        <ele>2040.8</ele>
        <time>2024-07-08T13:18:23Z</time>
      </trkpt>
      <trkpt lat="45.13451" lon="6.09295">
        <ele>2040.9</ele>
        <time>2024-07-08T13:18:24Z</time>
      </trkpt>
      <trkpt lat="45.1345" lon="6.09294">
        <ele>2041</ele>
        <time>2024-07-08T13:18:25Z</time>
      </trkpt>
      <trkpt lat="45.13449" lon="6.09294">
        <ele>2041</ele>
        <time>2024-07-08T13:18:26Z</time>
      </trkpt>
      <trkpt lat="45.13448" lon="6.09294">
        <ele>2041.1</ele>
        <time>2024-07-08T13:18:27Z</time>
      </trkpt>
      <trkpt lat="45.13447" lon="6.09294">
        <ele>2041.2</ele>
        <time>2024-07-08T13:18:28Z</time>
      </trkpt>
      <trkpt lat="45.13446" lon="6.09293">
        <ele>2041.3</ele>
        <time>2024-07-08T13:18:29Z</time>
      </trkpt>
      <trkpt lat="45.13445" lon="6.09293">
        <ele>2041.4</ele>
        <time>2024-07-08T13:18:30Z</time>
      </trkpt>
      <trkpt lat="45.13444" lon="6.09292">
        <ele>2041.5</ele>
        <time>2024-07-08T13:18:31Z</time>
      </trkpt>
      <trkpt lat="45.13443" lon="6.0929">
        <ele>2041.6</ele>
        <time>2024-07-08T13:18:32Z</time>
      </trkpt>
      <trkpt lat="45.13443" lon="6.09289">
        <ele>2041.7</ele>
        <time>2024-07-08T13:18:33Z</time>
      </trkpt>
      <trkpt lat="45.13442" lon="6.09288">
        <ele>2041.8</ele>
        <time>2024-07-08T13:18:34Z</time>
      </trkpt>
      <trkpt lat="45.13441" lon="6.09287">
        <ele>2041.9</ele>
        <time>2024-07-08T13:18:35Z</time>
      </trkpt>
      <trkpt lat="45.1344" lon="6.09286">
        <ele>2042</ele>
        <time>2024-07-08T13:18:36Z</time>
      </trkpt>
      <trkpt lat="45.1344" lon="6.09285">
        <ele>2042.1</ele>
        <time>2024-07-08T13:18:37Z</time>
      </trkpt>
      <trkpt lat="45.13438" lon="6.09284">
        <ele>2042.3</ele>
        <time>2024-07-08T13:18:38Z</time>
      </trkpt>
      <trkpt lat="45.13438" lon="6.09283">
        <ele>2042.4</ele>
        <time>2024-07-08T13:18:39Z</time>
      </trkpt>
      <trkpt lat="45.13437" lon="6.09283">
        <ele>2042.5</ele>
        <time>2024-07-08T13:18:40Z</time>
      </trkpt>
      <trkpt lat="45.13436" lon="6.09282">
        <ele>2042.6</ele>
        <time>2024-07-08T13:18:41Z</time>
      </trkpt>
      <trkpt lat="45.13435" lon="6.09281">
        <ele>2042.7</ele>
        <time>2024-07-08T13:18:42Z</time>
      </trkpt>
      <trkpt lat="45.13434" lon="6.0928">
        <ele>2042.9</ele>
        <time>2024-07-08T13:18:43Z</time>
      </trkpt>
      <trkpt lat="45.13433" lon="6.0928">
        <ele>2042.9</ele>
        <time>2024-07-08T13:18:44Z</time>
      </trkpt>
      <trkpt lat="45.13432" lon="6.09279">
        <ele>2043</ele>
        <time>2024-07-08T13:18:45Z</time>
      </trkpt>
      <trkpt lat="45.13432" lon="6.09279">
        <ele>2043</ele>
        <time>2024-07-08T13:18:46Z</time>
      </trkpt>
      <trkpt lat="45.13431" lon="6.09278">
        <ele>2043.1</ele>
        <time>2024-07-08T13:18:47Z</time>
      </trkpt>
      <trkpt lat="45.1343" lon="6.09278">
        <ele>2043.2</ele>
        <time>2024-07-08T13:18:48Z</time>
      </trkpt>
      <trkpt lat="45.13429" lon="6.09278">
        <ele>2043.3</ele>
        <time>2024-07-08T13:18:49Z</time>
      </trkpt>
      <trkpt lat="45.13428" lon="6.09277">
        <ele>2043.5</ele>
        <time>2024-07-08T13:18:50Z</time>
      </trkpt>
      <trkpt lat="45.13427" lon="6.09277">
        <ele>2043.6</ele>
        <time>2024-07-08T13:18:51Z</time>
      </trkpt>
      <trkpt lat="45.13426" lon="6.09276">
        <ele>2043.7</ele>
        <time>2024-07-08T13:18:52Z</time>
      </trkpt>
      <trkpt lat="45.13425" lon="6.09275">
        <ele>2043.8</ele>
        <time>2024-07-08T13:18:53Z</time>
      </trkpt>
      <trkpt lat="45.13424" lon="6.09275">
        <ele>2043.9</ele>
        <time>2024-07-08T13:18:54Z</time>
      </trkpt>
      <trkpt lat="45.13423" lon="6.09274">
        <ele>2043.9</ele>
        <time>2024-07-08T13:18:55Z</time>
      </trkpt>
      <trkpt lat="45.13421" lon="6.09273">
        <ele>2044.1</ele>
        <time>2024-07-08T13:18:56Z</time>
      </trkpt>
      <trkpt lat="45.1342" lon="6.09273">
        <ele>2044.1</ele>
        <time>2024-07-08T13:18:57Z</time>
      </trkpt>
      <trkpt lat="45.1342" lon="6.09273">
        <ele>2044.2</ele>
        <time>2024-07-08T13:18:58Z</time>
      </trkpt>
      <trkpt lat="45.13419" lon="6.09273">
        <ele>2044.2</ele>
        <time>2024-07-08T13:18:59Z</time>
      </trkpt>
      <trkpt lat="45.13418" lon="6.09273">
        <ele>2044.3</ele>
        <time>2024-07-08T13:19:00Z</time>
      </trkpt>
      <trkpt lat="45.13417" lon="6.09273">
        <ele>2044.4</ele>
        <time>2024-07-08T13:19:01Z</time>
      </trkpt>
      <trkpt lat="45.13416" lon="6.09273">
        <ele>2044.5</ele>
        <time>2024-07-08T13:19:02Z</time>
      </trkpt>
      <trkpt lat="45.13415" lon="6.09273">
        <ele>2044.5</ele>
        <time>2024-07-08T13:19:03Z</time>
      </trkpt>
      <trkpt lat="45.13414" lon="6.09273">
        <ele>2044.6</ele>
        <time>2024-07-08T13:19:04Z</time>
      </trkpt>
      <trkpt lat="45.13413" lon="6.09273">
        <ele>2044.6</ele>
        <time>2024-07-08T13:19:05Z</time>
      </trkpt>
      <trkpt lat="45.13413" lon="6.09273">
        <ele>2044.7</ele>
        <time>2024-07-08T13:19:06Z</time>
      </trkpt>
      <trkpt lat="45.13412" lon="6.09273">
        <ele>2044.8</ele>
        <time>2024-07-08T13:19:07Z</time>
      </trkpt>
      <trkpt lat="45.13411" lon="6.09274">
        <ele>2044.8</ele>
        <time>2024-07-08T13:19:08Z</time>
      </trkpt>
      <trkpt lat="45.1341" lon="6.09274">
        <ele>2044.9</ele>
        <time>2024-07-08T13:19:09Z</time>
      </trkpt>
      <trkpt lat="45.13409" lon="6.09275">
        <ele>2045</ele>
        <time>2024-07-08T13:19:10Z</time>
      </trkpt>
      <trkpt lat="45.13408" lon="6.09275">
        <ele>2045.1</ele>
        <time>2024-07-08T13:19:11Z</time>
      </trkpt>
      <trkpt lat="45.13407" lon="6.09275">
        <ele>2045.2</ele>
        <time>2024-07-08T13:19:12Z</time>
      </trkpt>
      <trkpt lat="45.13406" lon="6.09275">
        <ele>2045.3</ele>
        <time>2024-07-08T13:19:13Z</time>
      </trkpt>
      <trkpt lat="45.13405" lon="6.09276">
        <ele>2045.4</ele>
        <time>2024-07-08T13:19:14Z</time>
      </trkpt>
      <trkpt lat="45.13404" lon="6.09276">
        <ele>2045.5</ele>
        <time>2024-07-08T13:19:15Z</time>
      </trkpt>
      <trkpt lat="45.13403" lon="6.09277">
        <ele>2045.6</ele>
        <time>2024-07-08T13:19:16Z</time>
      </trkpt>
      <trkpt lat="45.13402" lon="6.09277">
        <ele>2045.7</ele>
        <time>2024-07-08T13:19:17Z</time>
      </trkpt>
      <trkpt lat="45.13402" lon="6.09278">
        <ele>2045.8</ele>
        <time>2024-07-08T13:19:18Z</time>
      </trkpt>
      <trkpt lat="45.13401" lon="6.09278">
        <ele>2045.9</ele>
        <time>2024-07-08T13:19:19Z</time>
      </trkpt>
      <trkpt lat="45.134" lon="6.09279">
        <ele>2046</ele>
        <time>2024-07-08T13:19:20Z</time>
      </trkpt>
      <trkpt lat="45.13399" lon="6.0928">
        <ele>2046.1</ele>
        <time>2024-07-08T13:19:21Z</time>
      </trkpt>
      <trkpt lat="45.13399" lon="6.09281">
        <ele>2046.2</ele>
        <time>2024-07-08T13:19:22Z</time>
      </trkpt>
      <trkpt lat="45.13399" lon="6.09283">
        <ele>2046.4</ele>
        <time>2024-07-08T13:19:23Z</time>
      </trkpt>
      <trkpt lat="45.13399" lon="6.09284">
        <ele>2046.5</ele>
        <time>2024-07-08T13:19:24Z</time>
      </trkpt>
      <trkpt lat="45.13399" lon="6.09285">
        <ele>2046.6</ele>
        <time>2024-07-08T13:19:25Z</time>
      </trkpt>
      <trkpt lat="45.13399" lon="6.09286">
        <ele>2046.7</ele>
        <time>2024-07-08T13:19:26Z</time>
      </trkpt>
      <trkpt lat="45.13399" lon="6.09287">
        <ele>2046.8</ele>
        <time>2024-07-08T13:19:27Z</time>
      </trkpt>
      <trkpt lat="45.134" lon="6.09288">
        <ele>2047</ele>
        <time>2024-07-08T13:19:28Z</time>
      </trkpt>
      <trkpt lat="45.134" lon="6.0929">
        <ele>2047.2</ele>
        <time>2024-07-08T13:19:29Z</time>
      </trkpt>
      <trkpt lat="45.134" lon="6.09291">
        <ele>2047.3</ele>
        <time>2024-07-08T13:19:30Z</time>
      </trkpt>
      <trkpt lat="45.13401" lon="6.09292">
        <ele>2047.5</ele>
        <time>2024-07-08T13:19:31Z</time>
      </trkpt>
      <trkpt lat="45.13401" lon="6.09293">
        <ele>2047.6</ele>
        <time>2024-07-08T13:19:32Z</time>
      </trkpt>
      <trkpt lat="45.13401" lon="6.09294">
        <ele>2047.7</ele>
        <time>2024-07-08T13:19:33Z</time>
      </trkpt>
      <trkpt lat="45.13401" lon="6.09295">
        <ele>2047.8</ele>
        <time>2024-07-08T13:19:34Z</time>
      </trkpt>
      <trkpt lat="45.13401" lon="6.09296">
        <ele>2048</ele>
        <time>2024-07-08T13:19:35Z</time>
      </trkpt>
      <trkpt lat="45.13401" lon="6.09298">
        <ele>2048.2</ele>
        <time>2024-07-08T13:19:36Z</time>
      </trkpt>
      <trkpt lat="45.13401" lon="6.09299">
        <ele>2048.3</ele>
        <time>2024-07-08T13:19:37Z</time>
      </trkpt>
      <trkpt lat="45.13401" lon="6.09299">
        <ele>2048.4</ele>
        <time>2024-07-08T13:19:38Z</time>
      </trkpt>
      <trkpt lat="45.13401" lon="6.09301">
        <ele>2048.5</ele>
        <time>2024-07-08T13:19:39Z</time>
      </trkpt>
      <trkpt lat="45.13401" lon="6.09302">
        <ele>2048.7</ele>
        <time>2024-07-08T13:19:40Z</time>
      </trkpt>
      <trkpt lat="45.13401" lon="6.09303">
        <ele>2048.8</ele>
        <time>2024-07-08T13:19:41Z</time>
      </trkpt>
      <trkpt lat="45.13401" lon="6.09302">
        <ele>2048.8</ele>
        <time>2024-07-08T13:19:42Z</time>
      </trkpt>
      <trkpt lat="45.13401" lon="6.09303">
        <ele>2048.9</ele>
        <time>2024-07-08T13:19:43Z</time>
      </trkpt>
      <trkpt lat="45.134" lon="6.09304">
        <ele>2049</ele>
        <time>2024-07-08T13:19:44Z</time>
      </trkpt>
      <trkpt lat="45.13399" lon="6.09304">
        <ele>2049.2</ele>
        <time>2024-07-08T13:19:45Z</time>
      </trkpt>
      <trkpt lat="45.13399" lon="6.09304">
        <ele>2049.3</ele>
        <time>2024-07-08T13:19:46Z</time>
      </trkpt>
      <trkpt lat="45.13398" lon="6.09304">
        <ele>2049.4</ele>
        <time>2024-07-08T13:19:47Z</time>
      </trkpt>
      <trkpt lat="45.13397" lon="6.09304">
        <ele>2049.6</ele>
        <time>2024-07-08T13:19:48Z</time>
      </trkpt>
      <trkpt lat="45.13396" lon="6.09304">
        <ele>2049.7</ele>
        <time>2024-07-08T13:19:49Z</time>
      </trkpt>
      <trkpt lat="45.13396" lon="6.09303">
        <ele>2049.9</ele>
        <time>2024-07-08T13:19:50Z</time>
      </trkpt>
      <trkpt lat="45.13395" lon="6.09301">
        <ele>2050.2</ele>
        <time>2024-07-08T13:19:51Z</time>
      </trkpt>
      <trkpt lat="45.13394" lon="6.093">
        <ele>2050.5</ele>
        <time>2024-07-08T13:19:52Z</time>
      </trkpt>
      <trkpt lat="45.13393" lon="6.09299">
        <ele>2050.6</ele>
        <time>2024-07-08T13:19:53Z</time>
      </trkpt>
      <trkpt lat="45.13392" lon="6.09299">
        <ele>2050.7</ele>
        <time>2024-07-08T13:19:54Z</time>
      </trkpt>
      <trkpt lat="45.13392" lon="6.09299">
        <ele>2050.9</ele>
        <time>2024-07-08T13:19:55Z</time>
      </trkpt>
      <trkpt lat="45.13391" lon="6.09298">
        <ele>2051</ele>
        <time>2024-07-08T13:19:56Z</time>
      </trkpt>
      <trkpt lat="45.1339" lon="6.09298">
        <ele>2051.1</ele>
        <time>2024-07-08T13:19:57Z</time>
      </trkpt>
      <trkpt lat="45.13389" lon="6.09297">
        <ele>2051.3</ele>
        <time>2024-07-08T13:19:58Z</time>
      </trkpt>
      <trkpt lat="45.13389" lon="6.09296">
        <ele>2051.5</ele>
        <time>2024-07-08T13:19:59Z</time>
      </trkpt>
      <trkpt lat="45.13388" lon="6.09294">
        <ele>2051.7</ele>
        <time>2024-07-08T13:20:00Z</time>
      </trkpt>
      <trkpt lat="45.13387" lon="6.09294">
        <ele>2051.9</ele>
        <time>2024-07-08T13:20:01Z</time>
      </trkpt>
      <trkpt lat="45.13386" lon="6.09293">
        <ele>2052</ele>
        <time>2024-07-08T13:20:02Z</time>
      </trkpt>
      <trkpt lat="45.13385" lon="6.09292">
        <ele>2052.2</ele>
        <time>2024-07-08T13:20:03Z</time>
      </trkpt>
      <trkpt lat="45.13384" lon="6.09292">
        <ele>2052.4</ele>
        <time>2024-07-08T13:20:04Z</time>
      </trkpt>
      <trkpt lat="45.13383" lon="6.09291">
        <ele>2052.6</ele>
        <time>2024-07-08T13:20:05Z</time>
      </trkpt>
      <trkpt lat="45.13382" lon="6.09291">
        <ele>2052.8</ele>
        <time>2024-07-08T13:20:06Z</time>
      </trkpt>
      <trkpt lat="45.13381" lon="6.0929">
        <ele>2053</ele>
        <time>2024-07-08T13:20:07Z</time>
      </trkpt>
      <trkpt lat="45.1338" lon="6.09289">
        <ele>2053.2</ele>
        <time>2024-07-08T13:20:08Z</time>
      </trkpt>
      <trkpt lat="45.1338" lon="6.09287">
        <ele>2053.4</ele>
        <time>2024-07-08T13:20:09Z</time>
      </trkpt>
      <trkpt lat="45.13379" lon="6.09286">
        <ele>2053.6</ele>
        <time>2024-07-08T13:20:10Z</time>
      </trkpt>
      <trkpt lat="45.13379" lon="6.09285">
        <ele>2053.7</ele>
        <time>2024-07-08T13:20:11Z</time>
      </trkpt>
      <trkpt lat="45.13378" lon="6.09283">
        <ele>2053.9</ele>
        <time>2024-07-08T13:20:12Z</time>
      </trkpt>
      <trkpt lat="45.13378" lon="6.09282">
        <ele>2054.1</ele>
        <time>2024-07-08T13:20:13Z</time>
      </trkpt>
      <trkpt lat="45.13377" lon="6.09281">
        <ele>2054.2</ele>
        <time>2024-07-08T13:20:14Z</time>
      </trkpt>
      <trkpt lat="45.13377" lon="6.0928">
        <ele>2054.4</ele>
        <time>2024-07-08T13:20:15Z</time>
      </trkpt>
      <trkpt lat="45.13376" lon="6.0928">
        <ele>2054.5</ele>
        <time>2024-07-08T13:20:16Z</time>
      </trkpt>
      <trkpt lat="45.13375" lon="6.09279">
        <ele>2054.6</ele>
        <time>2024-07-08T13:20:17Z</time>
      </trkpt>
      <trkpt lat="45.13374" lon="6.09278">
        <ele>2054.8</ele>
        <time>2024-07-08T13:20:18Z</time>
      </trkpt>
      <trkpt lat="45.13373" lon="6.09278">
        <ele>2055</ele>
        <time>2024-07-08T13:20:19Z</time>
      </trkpt>
      <trkpt lat="45.13373" lon="6.09279">
        <ele>2055.1</ele>
        <time>2024-07-08T13:20:20Z</time>
      </trkpt>
      <trkpt lat="45.13372" lon="6.0928">
        <ele>2055.3</ele>
        <time>2024-07-08T13:20:21Z</time>
      </trkpt>
      <trkpt lat="45.13372" lon="6.09281">
        <ele>2055.4</ele>
        <time>2024-07-08T13:20:22Z</time>
      </trkpt>
      <trkpt lat="45.13371" lon="6.09283">
        <ele>2055.6</ele>
        <time>2024-07-08T13:20:23Z</time>
      </trkpt>
      <trkpt lat="45.13371" lon="6.09284">
        <ele>2055.8</ele>
        <time>2024-07-08T13:20:24Z</time>
      </trkpt>
      <trkpt lat="45.13371" lon="6.09286">
        <ele>2056</ele>
        <time>2024-07-08T13:20:25Z</time>
      </trkpt>
      <trkpt lat="45.13371" lon="6.09287">
        <ele>2056.2</ele>
        <time>2024-07-08T13:20:26Z</time>
      </trkpt>
      <trkpt lat="45.13372" lon="6.09289">
        <ele>2056.4</ele>
        <time>2024-07-08T13:20:27Z</time>
      </trkpt>
      <trkpt lat="45.13372" lon="6.0929">
        <ele>2056.5</ele>
        <time>2024-07-08T13:20:28Z</time>
      </trkpt>
      <trkpt lat="45.13373" lon="6.09292">
        <ele>2056.8</ele>
        <time>2024-07-08T13:20:29Z</time>
      </trkpt>
      <trkpt lat="45.13373" lon="6.09293">
        <ele>2056.9</ele>
        <time>2024-07-08T13:20:30Z</time>
      </trkpt>
      <trkpt lat="45.13373" lon="6.09295">
        <ele>2057</ele>
        <time>2024-07-08T13:20:31Z</time>
      </trkpt>
      <trkpt lat="45.13373" lon="6.09296">
        <ele>2057.2</ele>
        <time>2024-07-08T13:20:32Z</time>
      </trkpt>
      <trkpt lat="45.13371" lon="6.09297">
        <ele>2057.4</ele>
        <time>2024-07-08T13:20:33Z</time>
      </trkpt>
      <trkpt lat="45.13369" lon="6.09297">
        <ele>2057.8</ele>
        <time>2024-07-08T13:20:34Z</time>
      </trkpt>
      <trkpt lat="45.13368" lon="6.09297">
        <ele>2057.9</ele>
        <time>2024-07-08T13:20:35Z</time>
      </trkpt>
      <trkpt lat="45.13368" lon="6.09296">
        <ele>2058</ele>
        <time>2024-07-08T13:20:36Z</time>
      </trkpt>
      <trkpt lat="45.13366" lon="6.09295">
        <ele>2058.4</ele>
        <time>2024-07-08T13:20:37Z</time>
      </trkpt>
      <trkpt lat="45.13365" lon="6.09294">
        <ele>2058.5</ele>
        <time>2024-07-08T13:20:38Z</time>
      </trkpt>
      <trkpt lat="45.13364" lon="6.09294">
        <ele>2058.7</ele>
        <time>2024-07-08T13:20:39Z</time>
      </trkpt>
      <trkpt lat="45.13364" lon="6.09293">
        <ele>2058.8</ele>
        <time>2024-07-08T13:20:40Z</time>
      </trkpt>
      <trkpt lat="45.13363" lon="6.09292">
        <ele>2059</ele>
        <time>2024-07-08T13:20:41Z</time>
      </trkpt>
      <trkpt lat="45.13362" lon="6.09291">
        <ele>2059.2</ele>
        <time>2024-07-08T13:20:42Z</time>
      </trkpt>
      <trkpt lat="45.13361" lon="6.09291">
        <ele>2059.3</ele>
        <time>2024-07-08T13:20:43Z</time>
      </trkpt>
      <trkpt lat="45.13361" lon="6.0929">
        <ele>2059.5</ele>
        <time>2024-07-08T13:20:44Z</time>
      </trkpt>
      <trkpt lat="45.1336" lon="6.0929">
        <ele>2059.6</ele>
        <time>2024-07-08T13:20:45Z</time>
      </trkpt>
      <trkpt lat="45.13359" lon="6.0929">
        <ele>2059.7</ele>
        <time>2024-07-08T13:20:46Z</time>
      </trkpt>
      <trkpt lat="45.13358" lon="6.0929">
        <ele>2059.8</ele>
        <time>2024-07-08T13:20:47Z</time>
      </trkpt>
      <trkpt lat="45.13358" lon="6.09291">
        <ele>2060</ele>
        <time>2024-07-08T13:20:48Z</time>
      </trkpt>
      <trkpt lat="45.13357" lon="6.09291">
        <ele>2060.1</ele>
        <time>2024-07-08T13:20:49Z</time>
      </trkpt>
      <trkpt lat="45.13356" lon="6.09293">
        <ele>2060.3</ele>
        <time>2024-07-08T13:20:50Z</time>
      </trkpt>
      <trkpt lat="45.13356" lon="6.09294">
        <ele>2060.5</ele>
        <time>2024-07-08T13:20:51Z</time>
      </trkpt>
      <trkpt lat="45.13355" lon="6.09295">
        <ele>2060.6</ele>
        <time>2024-07-08T13:20:52Z</time>
      </trkpt>
      <trkpt lat="45.13355" lon="6.09296">
        <ele>2060.7</ele>
        <time>2024-07-08T13:20:53Z</time>
      </trkpt>
      <trkpt lat="45.13356" lon="6.09297">
        <ele>2060.8</ele>
        <time>2024-07-08T13:20:54Z</time>
      </trkpt>
      <trkpt lat="45.13356" lon="6.09298">
        <ele>2060.9</ele>
        <time>2024-07-08T13:20:55Z</time>
      </trkpt>
      <trkpt lat="45.13356" lon="6.09299">
        <ele>2061.1</ele>
        <time>2024-07-08T13:20:56Z</time>
      </trkpt>
      <trkpt lat="45.13356" lon="6.093">
        <ele>2061.2</ele>
        <time>2024-07-08T13:20:57Z</time>
      </trkpt>
      <trkpt lat="45.13357" lon="6.09302">
        <ele>2061.4</ele>
        <time>2024-07-08T13:20:58Z</time>
      </trkpt>
      <trkpt lat="45.13358" lon="6.09305">
        <ele>2061.7</ele>
        <time>2024-07-08T13:20:59Z</time>
      </trkpt>
      <trkpt lat="45.13359" lon="6.09306">
        <ele>2061.8</ele>
        <time>2024-07-08T13:21:00Z</time>
      </trkpt>
      <trkpt lat="45.13359" lon="6.09307">
        <ele>2061.9</ele>
        <time>2024-07-08T13:21:01Z</time>
      </trkpt>
      <trkpt lat="45.13358" lon="6.0931">
        <ele>2062.2</ele>
        <time>2024-07-08T13:21:02Z</time>
      </trkpt>
      <trkpt lat="45.13357" lon="6.09311">
        <ele>2062.3</ele>
        <time>2024-07-08T13:21:03Z</time>
      </trkpt>
      <trkpt lat="45.13357" lon="6.09312">
        <ele>2062.3</ele>
        <time>2024-07-08T13:21:04Z</time>
      </trkpt>
      <trkpt lat="45.13357" lon="6.09313">
        <ele>2062.4</ele>
        <time>2024-07-08T13:21:05Z</time>
      </trkpt>
      <trkpt lat="45.13356" lon="6.09313">
        <ele>2062.5</ele>
        <time>2024-07-08T13:21:06Z</time>
      </trkpt>
      <trkpt lat="45.13355" lon="6.09315">
        <ele>2062.6</ele>
        <time>2024-07-08T13:21:07Z</time>
      </trkpt>
      <trkpt lat="45.13355" lon="6.09316">
        <ele>2062.7</ele>
        <time>2024-07-08T13:21:08Z</time>
      </trkpt>
      <trkpt lat="45.13355" lon="6.09317">
        <ele>2062.8</ele>
        <time>2024-07-08T13:21:09Z</time>
      </trkpt>
      <trkpt lat="45.13354" lon="6.09319">
        <ele>2062.9</ele>
        <time>2024-07-08T13:21:10Z</time>
      </trkpt>
      <trkpt lat="45.13354" lon="6.09322">
        <ele>2063.1</ele>
        <time>2024-07-08T13:21:11Z</time>
      </trkpt>
      <trkpt lat="45.13355" lon="6.09323">
        <ele>2063.2</ele>
        <time>2024-07-08T13:21:13Z</time>
      </trkpt>
      <trkpt lat="45.13355" lon="6.09325">
        <ele>2063.3</ele>
        <time>2024-07-08T13:21:14Z</time>
      </trkpt>
      <trkpt lat="45.13355" lon="6.09326">
        <ele>2063.3</ele>
        <time>2024-07-08T13:21:15Z</time>
      </trkpt>
      <trkpt lat="45.13355" lon="6.09328">
        <ele>2063.4</ele>
        <time>2024-07-08T13:21:16Z</time>
      </trkpt>
      <trkpt lat="45.13354" lon="6.09329">
        <ele>2063.5</ele>
        <time>2024-07-08T13:21:17Z</time>
      </trkpt>
      <trkpt lat="45.13354" lon="6.09331">
        <ele>2063.6</ele>
        <time>2024-07-08T13:21:18Z</time>
      </trkpt>
      <trkpt lat="45.13353" lon="6.09332">
        <ele>2063.7</ele>
        <time>2024-07-08T13:21:19Z</time>
      </trkpt>
      <trkpt lat="45.13352" lon="6.09333">
        <ele>2063.7</ele>
        <time>2024-07-08T13:21:20Z</time>
      </trkpt>
      <trkpt lat="45.1335" lon="6.09334">
        <ele>2063.9</ele>
        <time>2024-07-08T13:21:21Z</time>
      </trkpt>
      <trkpt lat="45.13349" lon="6.09334">
        <ele>2064</ele>
        <time>2024-07-08T13:21:22Z</time>
      </trkpt>
      <trkpt lat="45.13348" lon="6.09333">
        <ele>2064</ele>
        <time>2024-07-08T13:21:23Z</time>
      </trkpt>
      <trkpt lat="45.13347" lon="6.09333">
        <ele>2064.1</ele>
        <time>2024-07-08T13:21:24Z</time>
      </trkpt>
      <trkpt lat="45.13346" lon="6.09333">
        <ele>2064.2</ele>
        <time>2024-07-08T13:21:25Z</time>
      </trkpt>
      <trkpt lat="45.13345" lon="6.09333">
        <ele>2064.3</ele>
        <time>2024-07-08T13:21:26Z</time>
      </trkpt>
      <trkpt lat="45.13344" lon="6.09333">
        <ele>2064.3</ele>
        <time>2024-07-08T13:21:27Z</time>
      </trkpt>
      <trkpt lat="45.13343" lon="6.09333">
        <ele>2064.4</ele>
        <time>2024-07-08T13:21:28Z</time>
      </trkpt>
      <trkpt lat="45.13342" lon="6.09333">
        <ele>2064.5</ele>
        <time>2024-07-08T13:21:29Z</time>
      </trkpt>
      <trkpt lat="45.13341" lon="6.09333">
        <ele>2064.6</ele>
        <time>2024-07-08T13:21:30Z</time>
      </trkpt>
      <trkpt lat="45.1334" lon="6.09332">
        <ele>2064.6</ele>
        <time>2024-07-08T13:21:31Z</time>
      </trkpt>
      <trkpt lat="45.13339" lon="6.09332">
        <ele>2064.7</ele>
        <time>2024-07-08T13:21:32Z</time>
      </trkpt>
      <trkpt lat="45.13338" lon="6.09331">
        <ele>2064.8</ele>
        <time>2024-07-08T13:21:33Z</time>
      </trkpt>
      <trkpt lat="45.13337" lon="6.0933">
        <ele>2064.9</ele>
        <time>2024-07-08T13:21:34Z</time>
      </trkpt>
      <trkpt lat="45.13336" lon="6.09329">
        <ele>2065</ele>
        <time>2024-07-08T13:21:35Z</time>
      </trkpt>
      <trkpt lat="45.13335" lon="6.09327">
        <ele>2065.1</ele>
        <time>2024-07-08T13:21:36Z</time>
      </trkpt>
      <trkpt lat="45.13335" lon="6.09326">
        <ele>2065.1</ele>
        <time>2024-07-08T13:21:37Z</time>
      </trkpt>
      <trkpt lat="45.13335" lon="6.09325">
        <ele>2065.2</ele>
        <time>2024-07-08T13:21:38Z</time>
      </trkpt>
      <trkpt lat="45.13334" lon="6.09324">
        <ele>2065.3</ele>
        <time>2024-07-08T13:21:39Z</time>
      </trkpt>
      <trkpt lat="45.13333" lon="6.09323">
        <ele>2065.4</ele>
        <time>2024-07-08T13:21:40Z</time>
      </trkpt>
      <trkpt lat="45.13332" lon="6.09323">
        <ele>2065.4</ele>
        <time>2024-07-08T13:21:41Z</time>
      </trkpt>
      <trkpt lat="45.13331" lon="6.09323">
        <ele>2065.5</ele>
        <time>2024-07-08T13:21:42Z</time>
      </trkpt>
      <trkpt lat="45.1333" lon="6.09322">
        <ele>2065.6</ele>
        <time>2024-07-08T13:21:43Z</time>
      </trkpt>
      <trkpt lat="45.13329" lon="6.09321">
        <ele>2065.7</ele>
        <time>2024-07-08T13:21:44Z</time>
      </trkpt>
      <trkpt lat="45.13327" lon="6.0932">
        <ele>2065.8</ele>
        <time>2024-07-08T13:21:45Z</time>
      </trkpt>
      <trkpt lat="45.13327" lon="6.09321">
        <ele>2065.8</ele>
        <time>2024-07-08T13:21:46Z</time>
      </trkpt>
      <trkpt lat="45.13326" lon="6.0932">
        <ele>2065.9</ele>
        <time>2024-07-08T13:21:47Z</time>
      </trkpt>
      <trkpt lat="45.13325" lon="6.0932">
        <ele>2066</ele>
        <time>2024-07-08T13:21:48Z</time>
      </trkpt>
      <trkpt lat="45.13324" lon="6.0932">
        <ele>2066.1</ele>
        <time>2024-07-08T13:21:49Z</time>
      </trkpt>
      <trkpt lat="45.13323" lon="6.09321">
        <ele>2066.2</ele>
        <time>2024-07-08T13:21:50Z</time>
      </trkpt>
      <trkpt lat="45.13322" lon="6.0932">
        <ele>2066.2</ele>
        <time>2024-07-08T13:21:51Z</time>
      </trkpt>
      <trkpt lat="45.13321" lon="6.0932">
        <ele>2066.3</ele>
        <time>2024-07-08T13:21:52Z</time>
      </trkpt>
      <trkpt lat="45.1332" lon="6.09319">
        <ele>2066.3</ele>
        <time>2024-07-08T13:21:53Z</time>
      </trkpt>
      <trkpt lat="45.13319" lon="6.09319">
        <ele>2066.4</ele>
        <time>2024-07-08T13:21:54Z</time>
      </trkpt>
      <trkpt lat="45.13318" lon="6.09318">
        <ele>2066.4</ele>
        <time>2024-07-08T13:21:55Z</time>
      </trkpt>
      <trkpt lat="45.13317" lon="6.09318">
        <ele>2066.5</ele>
        <time>2024-07-08T13:21:56Z</time>
      </trkpt>
      <trkpt lat="45.13316" lon="6.09317">
        <ele>2066.6</ele>
        <time>2024-07-08T13:21:57Z</time>
      </trkpt>
      <trkpt lat="45.13314" lon="6.09317">
        <ele>2066.6</ele>
        <time>2024-07-08T13:21:58Z</time>
      </trkpt>
      <trkpt lat="45.13314" lon="6.09317">
        <ele>2066.6</ele>
        <time>2024-07-08T13:21:59Z</time>
      </trkpt>
      <trkpt lat="45.13313" lon="6.09316">
        <ele>2066.7</ele>
        <time>2024-07-08T13:22:00Z</time>
      </trkpt>
      <trkpt lat="45.13312" lon="6.09315">
        <ele>2066.7</ele>
        <time>2024-07-08T13:22:01Z</time>
      </trkpt>
      <trkpt lat="45.1331" lon="6.09314">
        <ele>2066.8</ele>
        <time>2024-07-08T13:22:02Z</time>
      </trkpt>
      <trkpt lat="45.13309" lon="6.09314">
        <ele>2066.8</ele>
        <time>2024-07-08T13:22:03Z</time>
      </trkpt>
      <trkpt lat="45.13308" lon="6.09314">
        <ele>2066.9</ele>
        <time>2024-07-08T13:22:04Z</time>
      </trkpt>
      <trkpt lat="45.13307" lon="6.09312">
        <ele>2066.9</ele>
        <time>2024-07-08T13:22:05Z</time>
      </trkpt>
      <trkpt lat="45.13306" lon="6.09311">
        <ele>2067</ele>
        <time>2024-07-08T13:22:06Z</time>
      </trkpt>
      <trkpt lat="45.13305" lon="6.0931">
        <ele>2067</ele>
        <time>2024-07-08T13:22:07Z</time>
      </trkpt>
      <trkpt lat="45.13305" lon="6.09309">
        <ele>2067</ele>
        <time>2024-07-08T13:22:08Z</time>
      </trkpt>
      <trkpt lat="45.13304" lon="6.09309">
        <ele>2067.1</ele>
        <time>2024-07-08T13:22:09Z</time>
      </trkpt>
      <trkpt lat="45.13302" lon="6.09308">
        <ele>2067.1</ele>
        <time>2024-07-08T13:22:10Z</time>
      </trkpt>
      <trkpt lat="45.13301" lon="6.09307">
        <ele>2067.1</ele>
        <time>2024-07-08T13:22:11Z</time>
      </trkpt>
      <trkpt lat="45.133" lon="6.09306">
        <ele>2067.2</ele>
        <time>2024-07-08T13:22:12Z</time>
      </trkpt>
      <trkpt lat="45.133" lon="6.09305">
        <ele>2067.2</ele>
        <time>2024-07-08T13:22:13Z</time>
      </trkpt>
      <trkpt lat="45.13299" lon="6.09304">
        <ele>2067.3</ele>
        <time>2024-07-08T13:22:14Z</time>
      </trkpt>
      <trkpt lat="45.13298" lon="6.09304">
        <ele>2067.3</ele>
        <time>2024-07-08T13:22:15Z</time>
      </trkpt>
      <trkpt lat="45.13297" lon="6.09304">
        <ele>2067.3</ele>
        <time>2024-07-08T13:22:16Z</time>
      </trkpt>
      <trkpt lat="45.13296" lon="6.09304">
        <ele>2067.4</ele>
        <time>2024-07-08T13:22:17Z</time>
      </trkpt>
      <trkpt lat="45.13295" lon="6.09304">
        <ele>2067.4</ele>
        <time>2024-07-08T13:22:18Z</time>
      </trkpt>
      <trkpt lat="45.13293" lon="6.09304">
        <ele>2067.4</ele>
        <time>2024-07-08T13:22:19Z</time>
      </trkpt>
      <trkpt lat="45.13293" lon="6.09304">
        <ele>2067.5</ele>
        <time>2024-07-08T13:22:20Z</time>
      </trkpt>
      <trkpt lat="45.13291" lon="6.09303">
        <ele>2067.5</ele>
        <time>2024-07-08T13:22:21Z</time>
      </trkpt>
      <trkpt lat="45.13291" lon="6.09303">
        <ele>2067.5</ele>
        <time>2024-07-08T13:22:22Z</time>
      </trkpt>
      <trkpt lat="45.1329" lon="6.09302">
        <ele>2067.5</ele>
        <time>2024-07-08T13:22:23Z</time>
      </trkpt>
      <trkpt lat="45.13289" lon="6.09302">
        <ele>2067.6</ele>
        <time>2024-07-08T13:22:24Z</time>
      </trkpt>
      <trkpt lat="45.13288" lon="6.09302">
        <ele>2067.6</ele>
        <time>2024-07-08T13:22:25Z</time>
      </trkpt>
      <trkpt lat="45.13287" lon="6.09301">
        <ele>2067.6</ele>
        <time>2024-07-08T13:22:26Z</time>
      </trkpt>
      <trkpt lat="45.13286" lon="6.093">
        <ele>2067.6</ele>
        <time>2024-07-08T13:22:27Z</time>
      </trkpt>
      <trkpt lat="45.13285" lon="6.09299">
        <ele>2067.6</ele>
        <time>2024-07-08T13:22:28Z</time>
      </trkpt>
      <trkpt lat="45.13284" lon="6.09297">
        <ele>2067.6</ele>
        <time>2024-07-08T13:22:29Z</time>
      </trkpt>
      <trkpt lat="45.13283" lon="6.09296">
        <ele>2067.6</ele>
        <time>2024-07-08T13:22:30Z</time>
      </trkpt>
      <trkpt lat="45.13283" lon="6.09295">
        <ele>2067.5</ele>
        <time>2024-07-08T13:22:31Z</time>
      </trkpt>
      <trkpt lat="45.13281" lon="6.09292">
        <ele>2067.4</ele>
        <time>2024-07-08T13:22:32Z</time>
      </trkpt>
      <trkpt lat="45.13281" lon="6.09291">
        <ele>2067.4</ele>
        <time>2024-07-08T13:22:33Z</time>
      </trkpt>
      <trkpt lat="45.1328" lon="6.0929">
        <ele>2067.4</ele>
        <time>2024-07-08T13:22:34Z</time>
      </trkpt>
      <trkpt lat="45.13279" lon="6.09288">
        <ele>2067.2</ele>
        <time>2024-07-08T13:22:35Z</time>
      </trkpt>
      <trkpt lat="45.13279" lon="6.09287">
        <ele>2067.2</ele>
        <time>2024-07-08T13:22:36Z</time>
      </trkpt>
      <trkpt lat="45.13278" lon="6.09286">
        <ele>2067.1</ele>
        <time>2024-07-08T13:22:37Z</time>
      </trkpt>
      <trkpt lat="45.13278" lon="6.09286">
        <ele>2067.1</ele>
        <time>2024-07-08T13:22:38Z</time>
      </trkpt>
      <trkpt lat="45.13277" lon="6.09284">
        <ele>2066.9</ele>
        <time>2024-07-08T13:22:39Z</time>
      </trkpt>
      <trkpt lat="45.13276" lon="6.09283">
        <ele>2066.9</ele>
        <time>2024-07-08T13:22:40Z</time>
      </trkpt>
      <trkpt lat="45.13275" lon="6.09282">
        <ele>2066.8</ele>
        <time>2024-07-08T13:22:41Z</time>
      </trkpt>
      <trkpt lat="45.13274" lon="6.09282">
        <ele>2066.6</ele>
        <time>2024-07-08T13:22:42Z</time>
      </trkpt>
      <trkpt lat="45.13273" lon="6.09282">
        <ele>2066.6</ele>
        <time>2024-07-08T13:22:43Z</time>
      </trkpt>
      <trkpt lat="45.13272" lon="6.09281">
        <ele>2066.4</ele>
        <time>2024-07-08T13:22:44Z</time>
      </trkpt>
      <trkpt lat="45.13272" lon="6.09279">
        <ele>2066.3</ele>
        <time>2024-07-08T13:22:45Z</time>
      </trkpt>
      <trkpt lat="45.13271" lon="6.09278">
        <ele>2066.2</ele>
        <time>2024-07-08T13:22:46Z</time>
      </trkpt>
      <trkpt lat="45.13271" lon="6.09275">
        <ele>2066</ele>
        <time>2024-07-08T13:22:47Z</time>
      </trkpt>
      <trkpt lat="45.13271" lon="6.09274">
        <ele>2065.9</ele>
        <time>2024-07-08T13:22:48Z</time>
      </trkpt>
      <trkpt lat="45.1327" lon="6.09273">
        <ele>2065.8</ele>
        <time>2024-07-08T13:22:49Z</time>
      </trkpt>
      <trkpt lat="45.1327" lon="6.09272">
        <ele>2065.8</ele>
        <time>2024-07-08T13:22:50Z</time>
      </trkpt>
      <trkpt lat="45.1327" lon="6.09271">
        <ele>2065.7</ele>
        <time>2024-07-08T13:22:51Z</time>
      </trkpt>
      <trkpt lat="45.13269" lon="6.0927">
        <ele>2065.5</ele>
        <time>2024-07-08T13:22:52Z</time>
      </trkpt>
      <trkpt lat="45.13267" lon="6.09267">
        <ele>2065.3</ele>
        <time>2024-07-08T13:22:53Z</time>
      </trkpt>
      <trkpt lat="45.13267" lon="6.09266">
        <ele>2065.2</ele>
        <time>2024-07-08T13:22:54Z</time>
      </trkpt>
      <trkpt lat="45.13266" lon="6.09264">
        <ele>2065.1</ele>
        <time>2024-07-08T13:22:55Z</time>
      </trkpt>
      <trkpt lat="45.13267" lon="6.09264">
        <ele>2065.1</ele>
        <time>2024-07-08T13:22:56Z</time>
      </trkpt>
      <trkpt lat="45.13267" lon="6.09262">
        <ele>2065</ele>
        <time>2024-07-08T13:22:57Z</time>
      </trkpt>
      <trkpt lat="45.13266" lon="6.09261">
        <ele>2064.9</ele>
        <time>2024-07-08T13:22:58Z</time>
      </trkpt>
      <trkpt lat="45.13266" lon="6.0926">
        <ele>2064.9</ele>
        <time>2024-07-08T13:22:59Z</time>
      </trkpt>
      <trkpt lat="45.13264" lon="6.09258">
        <ele>2064.7</ele>
        <time>2024-07-08T13:23:00Z</time>
      </trkpt>
      <trkpt lat="45.13263" lon="6.09257">
        <ele>2064.7</ele>
        <time>2024-07-08T13:23:01Z</time>
      </trkpt>
      <trkpt lat="45.13262" lon="6.09256">
        <ele>2064.6</ele>
        <time>2024-07-08T13:23:02Z</time>
      </trkpt>
      <trkpt lat="45.13261" lon="6.09254">
        <ele>2064.6</ele>
        <time>2024-07-08T13:23:03Z</time>
      </trkpt>
      <trkpt lat="45.1326" lon="6.09254">
        <ele>2064.5</ele>
        <time>2024-07-08T13:23:04Z</time>
      </trkpt>
      <trkpt lat="45.13258" lon="6.09254">
        <ele>2064.5</ele>
        <time>2024-07-08T13:23:05Z</time>
      </trkpt>
      <trkpt lat="45.13257" lon="6.09254">
        <ele>2064.5</ele>
        <time>2024-07-08T13:23:06Z</time>
      </trkpt>
      <trkpt lat="45.13256" lon="6.09254">
        <ele>2064.4</ele>
        <time>2024-07-08T13:23:07Z</time>
      </trkpt>
      <trkpt lat="45.13255" lon="6.09254">
        <ele>2064.4</ele>
        <time>2024-07-08T13:23:08Z</time>
      </trkpt>
      <trkpt lat="45.13254" lon="6.09254">
        <ele>2064.4</ele>
        <time>2024-07-08T13:23:09Z</time>
      </trkpt>
      <trkpt lat="45.13253" lon="6.09255">
        <ele>2064.4</ele>
        <time>2024-07-08T13:23:10Z</time>
      </trkpt>
      <trkpt lat="45.13252" lon="6.09256">
        <ele>2064.4</ele>
        <time>2024-07-08T13:23:11Z</time>
      </trkpt>
      <trkpt lat="45.13251" lon="6.09256">
        <ele>2064.4</ele>
        <time>2024-07-08T13:23:12Z</time>
      </trkpt>
      <trkpt lat="45.1325" lon="6.09255">
        <ele>2064.4</ele>
        <time>2024-07-08T13:23:13Z</time>
      </trkpt>
      <trkpt lat="45.13249" lon="6.09254">
        <ele>2064.5</ele>
        <time>2024-07-08T13:23:14Z</time>
      </trkpt>
      <trkpt lat="45.13248" lon="6.09253">
        <ele>2064.5</ele>
        <time>2024-07-08T13:23:15Z</time>
      </trkpt>
      <trkpt lat="45.13247" lon="6.09253">
        <ele>2064.5</ele>
        <time>2024-07-08T13:23:16Z</time>
      </trkpt>
      <trkpt lat="45.13246" lon="6.09252">
        <ele>2064.7</ele>
        <time>2024-07-08T13:23:17Z</time>
      </trkpt>
      <trkpt lat="45.13245" lon="6.09252">
        <ele>2064.8</ele>
        <time>2024-07-08T13:23:18Z</time>
      </trkpt>
      <trkpt lat="45.13244" lon="6.09252">
        <ele>2064.9</ele>
        <time>2024-07-08T13:23:19Z</time>
      </trkpt>
      <trkpt lat="45.13243" lon="6.09253">
        <ele>2065.1</ele>
        <time>2024-07-08T13:23:20Z</time>
      </trkpt>
      <trkpt lat="45.13242" lon="6.09254">
        <ele>2065.2</ele>
        <time>2024-07-08T13:23:21Z</time>
      </trkpt>
      <trkpt lat="45.13242" lon="6.09255">
        <ele>2065.4</ele>
        <time>2024-07-08T13:23:22Z</time>
      </trkpt>
      <trkpt lat="45.1324" lon="6.09257">
        <ele>2065.6</ele>
        <time>2024-07-08T13:23:23Z</time>
      </trkpt>
      <trkpt lat="45.1324" lon="6.09258">
        <ele>2065.8</ele>
        <time>2024-07-08T13:23:24Z</time>
      </trkpt>
      <trkpt lat="45.13239" lon="6.0926">
        <ele>2065.9</ele>
        <time>2024-07-08T13:23:25Z</time>
      </trkpt>
      <trkpt lat="45.13238" lon="6.09261">
        <ele>2066.1</ele>
        <time>2024-07-08T13:23:26Z</time>
      </trkpt>
      <trkpt lat="45.13237" lon="6.09262">
        <ele>2066.3</ele>
        <time>2024-07-08T13:23:27Z</time>
      </trkpt>
      <trkpt lat="45.13236" lon="6.09263">
        <ele>2066.6</ele>
        <time>2024-07-08T13:23:28Z</time>
      </trkpt>
      <trkpt lat="45.13235" lon="6.09263">
        <ele>2066.7</ele>
        <time>2024-07-08T13:23:29Z</time>
      </trkpt>
      <trkpt lat="45.13234" lon="6.09263">
        <ele>2066.9</ele>
        <time>2024-07-08T13:23:30Z</time>
      </trkpt>
      <trkpt lat="45.13232" lon="6.09264">
        <ele>2067.2</ele>
        <time>2024-07-08T13:23:31Z</time>
      </trkpt>
      <trkpt lat="45.13231" lon="6.09264">
        <ele>2067.4</ele>
        <time>2024-07-08T13:23:32Z</time>
      </trkpt>
      <trkpt lat="45.1323" lon="6.09264">
        <ele>2067.6</ele>
        <time>2024-07-08T13:23:33Z</time>
      </trkpt>
      <trkpt lat="45.13229" lon="6.09264">
        <ele>2067.7</ele>
        <time>2024-07-08T13:23:34Z</time>
      </trkpt>
      <trkpt lat="45.13228" lon="6.09264">
        <ele>2067.8</ele>
        <time>2024-07-08T13:23:35Z</time>
      </trkpt>
      <trkpt lat="45.13227" lon="6.09265">
        <ele>2068.1</ele>
        <time>2024-07-08T13:23:36Z</time>
      </trkpt>
      <trkpt lat="45.13226" lon="6.09266">
        <ele>2068.2</ele>
        <time>2024-07-08T13:23:37Z</time>
      </trkpt>
      <trkpt lat="45.13225" lon="6.09267">
        <ele>2068.5</ele>
        <time>2024-07-08T13:23:38Z</time>
      </trkpt>
      <trkpt lat="45.13224" lon="6.09267">
        <ele>2068.6</ele>
        <time>2024-07-08T13:23:39Z</time>
      </trkpt>
      <trkpt lat="45.13224" lon="6.09267">
        <ele>2068.8</ele>
        <time>2024-07-08T13:23:40Z</time>
      </trkpt>
      <trkpt lat="45.13222" lon="6.09267">
        <ele>2069</ele>
        <time>2024-07-08T13:23:41Z</time>
      </trkpt>
      <trkpt lat="45.13221" lon="6.09268">
        <ele>2069.2</ele>
        <time>2024-07-08T13:23:42Z</time>
      </trkpt>
      <trkpt lat="45.13219" lon="6.09268">
        <ele>2069.5</ele>
        <time>2024-07-08T13:23:43Z</time>
      </trkpt>
      <trkpt lat="45.13219" lon="6.09268">
        <ele>2069.6</ele>
        <time>2024-07-08T13:23:44Z</time>
      </trkpt>
      <trkpt lat="45.13218" lon="6.09268">
        <ele>2069.7</ele>
        <time>2024-07-08T13:23:45Z</time>
      </trkpt>
      <trkpt lat="45.13218" lon="6.09268">
        <ele>2069.8</ele>
        <time>2024-07-08T13:23:46Z</time>
      </trkpt>
      <trkpt lat="45.13217" lon="6.09268">
        <ele>2070</ele>
        <time>2024-07-08T13:23:47Z</time>
      </trkpt>
      <trkpt lat="45.13216" lon="6.09267">
        <ele>2070.2</ele>
        <time>2024-07-08T13:23:48Z</time>
      </trkpt>
      <trkpt lat="45.13215" lon="6.09266">
        <ele>2070.3</ele>
        <time>2024-07-08T13:23:49Z</time>
      </trkpt>
      <trkpt lat="45.13214" lon="6.09266">
        <ele>2070.5</ele>
        <time>2024-07-08T13:23:50Z</time>
      </trkpt>
      <trkpt lat="45.13214" lon="6.09265">
        <ele>2070.7</ele>
        <time>2024-07-08T13:23:51Z</time>
      </trkpt>
      <trkpt lat="45.13213" lon="6.09264">
        <ele>2070.9</ele>
        <time>2024-07-08T13:23:52Z</time>
      </trkpt>
      <trkpt lat="45.13212" lon="6.09262">
        <ele>2071.1</ele>
        <time>2024-07-08T13:23:53Z</time>
      </trkpt>
      <trkpt lat="45.13211" lon="6.09261">
        <ele>2071.3</ele>
        <time>2024-07-08T13:23:54Z</time>
      </trkpt>
      <trkpt lat="45.13211" lon="6.0926">
        <ele>2071.4</ele>
        <time>2024-07-08T13:23:55Z</time>
      </trkpt>
      <trkpt lat="45.1321" lon="6.0926">
        <ele>2071.6</ele>
        <time>2024-07-08T13:23:56Z</time>
      </trkpt>
      <trkpt lat="45.13209" lon="6.09259">
        <ele>2071.7</ele>
        <time>2024-07-08T13:23:57Z</time>
      </trkpt>
      <trkpt lat="45.13208" lon="6.09259">
        <ele>2072</ele>
        <time>2024-07-08T13:23:58Z</time>
      </trkpt>
      <trkpt lat="45.13207" lon="6.09258">
        <ele>2072.1</ele>
        <time>2024-07-08T13:23:59Z</time>
      </trkpt>
      <trkpt lat="45.13206" lon="6.09258">
        <ele>2072.2</ele>
        <time>2024-07-08T13:24:00Z</time>
      </trkpt>
      <trkpt lat="45.13205" lon="6.09259">
        <ele>2072.4</ele>
        <time>2024-07-08T13:24:01Z</time>
      </trkpt>
      <trkpt lat="45.13205" lon="6.0926">
        <ele>2072.6</ele>
        <time>2024-07-08T13:24:02Z</time>
      </trkpt>
      <trkpt lat="45.13204" lon="6.0926">
        <ele>2072.8</ele>
        <time>2024-07-08T13:24:03Z</time>
      </trkpt>
      <trkpt lat="45.13202" lon="6.0926">
        <ele>2072.9</ele>
        <time>2024-07-08T13:24:04Z</time>
      </trkpt>
      <trkpt lat="45.13202" lon="6.09261">
        <ele>2073.1</ele>
        <time>2024-07-08T13:24:05Z</time>
      </trkpt>
      <trkpt lat="45.13201" lon="6.09261">
        <ele>2073.2</ele>
        <time>2024-07-08T13:24:06Z</time>
      </trkpt>
      <trkpt lat="45.132" lon="6.09261">
        <ele>2073.4</ele>
        <time>2024-07-08T13:24:07Z</time>
      </trkpt>
      <trkpt lat="45.13199" lon="6.09261">
        <ele>2073.5</ele>
        <time>2024-07-08T13:24:08Z</time>
      </trkpt>
      <trkpt lat="45.13198" lon="6.0926">
        <ele>2073.7</ele>
        <time>2024-07-08T13:24:09Z</time>
      </trkpt>
      <trkpt lat="45.13197" lon="6.0926">
        <ele>2073.8</ele>
        <time>2024-07-08T13:24:10Z</time>
      </trkpt>
      <trkpt lat="45.13196" lon="6.0926">
        <ele>2074</ele>
        <time>2024-07-08T13:24:11Z</time>
      </trkpt>
      <trkpt lat="45.13195" lon="6.0926">
        <ele>2074.2</ele>
        <time>2024-07-08T13:24:12Z</time>
      </trkpt>
      <trkpt lat="45.13194" lon="6.0926">
        <ele>2074.4</ele>
        <time>2024-07-08T13:24:13Z</time>
      </trkpt>
      <trkpt lat="45.13193" lon="6.09261">
        <ele>2074.5</ele>
        <time>2024-07-08T13:24:14Z</time>
      </trkpt>
      <trkpt lat="45.13192" lon="6.09261">
        <ele>2074.7</ele>
        <time>2024-07-08T13:24:15Z</time>
      </trkpt>
      <trkpt lat="45.13191" lon="6.09261">
        <ele>2074.8</ele>
        <time>2024-07-08T13:24:16Z</time>
      </trkpt>
      <trkpt lat="45.1319" lon="6.09261">
        <ele>2075</ele>
        <time>2024-07-08T13:24:17Z</time>
      </trkpt>
      <trkpt lat="45.13189" lon="6.09261">
        <ele>2075.1</ele>
        <time>2024-07-08T13:24:18Z</time>
      </trkpt>
      <trkpt lat="45.13187" lon="6.09261">
        <ele>2075.4</ele>
        <time>2024-07-08T13:24:19Z</time>
      </trkpt>
      <trkpt lat="45.13187" lon="6.09261">
        <ele>2075.5</ele>
        <time>2024-07-08T13:24:20Z</time>
      </trkpt>
      <trkpt lat="45.13186" lon="6.09261">
        <ele>2075.6</ele>
        <time>2024-07-08T13:24:21Z</time>
      </trkpt>
      <trkpt lat="45.13185" lon="6.09261">
        <ele>2075.7</ele>
        <time>2024-07-08T13:24:22Z</time>
      </trkpt>
      <trkpt lat="45.13185" lon="6.09261">
        <ele>2075.8</ele>
        <time>2024-07-08T13:24:23Z</time>
      </trkpt>
      <trkpt lat="45.13184" lon="6.0926">
        <ele>2076</ele>
        <time>2024-07-08T13:24:24Z</time>
      </trkpt>
      <trkpt lat="45.13183" lon="6.0926">
        <ele>2076.1</ele>
        <time>2024-07-08T13:24:25Z</time>
      </trkpt>
      <trkpt lat="45.13182" lon="6.09259">
        <ele>2076.2</ele>
        <time>2024-07-08T13:24:26Z</time>
      </trkpt>
      <trkpt lat="45.13181" lon="6.09258">
        <ele>2076.4</ele>
        <time>2024-07-08T13:24:27Z</time>
      </trkpt>
      <trkpt lat="45.13181" lon="6.09258">
        <ele>2076.4</ele>
        <time>2024-07-08T13:24:28Z</time>
      </trkpt>
      <trkpt lat="45.1318" lon="6.09257">
        <ele>2076.5</ele>
        <time>2024-07-08T13:24:29Z</time>
      </trkpt>
      <trkpt lat="45.1318" lon="6.09256">
        <ele>2076.7</ele>
        <time>2024-07-08T13:24:30Z</time>
      </trkpt>
      <trkpt lat="45.13179" lon="6.09255">
        <ele>2076.8</ele>
        <time>2024-07-08T13:24:31Z</time>
      </trkpt>
      <trkpt lat="45.13179" lon="6.09253">
        <ele>2077</ele>
        <time>2024-07-08T13:24:32Z</time>
      </trkpt>
      <trkpt lat="45.13179" lon="6.09252">
        <ele>2077.1</ele>
        <time>2024-07-08T13:24:33Z</time>
      </trkpt>
      <trkpt lat="45.13179" lon="6.0925">
        <ele>2077.3</ele>
        <time>2024-07-08T13:24:34Z</time>
      </trkpt>
      <trkpt lat="45.13179" lon="6.09249">
        <ele>2077.4</ele>
        <time>2024-07-08T13:24:35Z</time>
      </trkpt>
      <trkpt lat="45.13179" lon="6.09248">
        <ele>2077.4</ele>
        <time>2024-07-08T13:24:36Z</time>
      </trkpt>
      <trkpt lat="45.13178" lon="6.09247">
        <ele>2077.5</ele>
        <time>2024-07-08T13:24:37Z</time>
      </trkpt>
      <trkpt lat="45.13178" lon="6.09246">
        <ele>2077.7</ele>
        <time>2024-07-08T13:24:38Z</time>
      </trkpt>
      <trkpt lat="45.13177" lon="6.09246">
        <ele>2077.7</ele>
        <time>2024-07-08T13:24:39Z</time>
      </trkpt>
      <trkpt lat="45.13176" lon="6.09246">
        <ele>2077.8</ele>
        <time>2024-07-08T13:24:40Z</time>
      </trkpt>
      <trkpt lat="45.13175" lon="6.09245">
        <ele>2077.9</ele>
        <time>2024-07-08T13:24:41Z</time>
      </trkpt>
      <trkpt lat="45.13175" lon="6.09245">
        <ele>2078</ele>
        <time>2024-07-08T13:24:42Z</time>
      </trkpt>
      <trkpt lat="45.13174" lon="6.09245">
        <ele>2078.1</ele>
        <time>2024-07-08T13:24:43Z</time>
      </trkpt>
      <trkpt lat="45.13173" lon="6.09246">
        <ele>2078.2</ele>
        <time>2024-07-08T13:24:44Z</time>
      </trkpt>
      <trkpt lat="45.13172" lon="6.09246">
        <ele>2078.3</ele>
        <time>2024-07-08T13:24:45Z</time>
      </trkpt>
      <trkpt lat="45.13171" lon="6.09246">
        <ele>2078.4</ele>
        <time>2024-07-08T13:24:46Z</time>
      </trkpt>
      <trkpt lat="45.1317" lon="6.09246">
        <ele>2078.6</ele>
        <time>2024-07-08T13:24:47Z</time>
      </trkpt>
      <trkpt lat="45.13169" lon="6.09246">
        <ele>2078.6</ele>
        <time>2024-07-08T13:24:48Z</time>
      </trkpt>
      <trkpt lat="45.13168" lon="6.09246">
        <ele>2078.7</ele>
        <time>2024-07-08T13:24:49Z</time>
      </trkpt>
      <trkpt lat="45.13167" lon="6.09246">
        <ele>2078.9</ele>
        <time>2024-07-08T13:24:50Z</time>
      </trkpt>
      <trkpt lat="45.13166" lon="6.09247">
        <ele>2079</ele>
        <time>2024-07-08T13:24:51Z</time>
      </trkpt>
      <trkpt lat="45.13166" lon="6.09247">
        <ele>2079.1</ele>
        <time>2024-07-08T13:24:52Z</time>
      </trkpt>
      <trkpt lat="45.13164" lon="6.09247">
        <ele>2079.2</ele>
        <time>2024-07-08T13:24:53Z</time>
      </trkpt>
      <trkpt lat="45.13164" lon="6.09247">
        <ele>2079.3</ele>
        <time>2024-07-08T13:24:54Z</time>
      </trkpt>
      <trkpt lat="45.13162" lon="6.09247">
        <ele>2079.4</ele>
        <time>2024-07-08T13:24:55Z</time>
      </trkpt>
      <trkpt lat="45.13162" lon="6.09247">
        <ele>2079.5</ele>
        <time>2024-07-08T13:24:56Z</time>
      </trkpt>
      <trkpt lat="45.1316" lon="6.09247">
        <ele>2079.7</ele>
        <time>2024-07-08T13:24:57Z</time>
      </trkpt>
      <trkpt lat="45.1316" lon="6.09247">
        <ele>2079.7</ele>
        <time>2024-07-08T13:24:58Z</time>
      </trkpt>
      <trkpt lat="45.13158" lon="6.09247">
        <ele>2079.9</ele>
        <time>2024-07-08T13:24:59Z</time>
      </trkpt>
      <trkpt lat="45.13157" lon="6.09247">
        <ele>2080</ele>
        <time>2024-07-08T13:25:00Z</time>
      </trkpt>
      <trkpt lat="45.13156" lon="6.09247">
        <ele>2080</ele>
        <time>2024-07-08T13:25:01Z</time>
      </trkpt>
      <trkpt lat="45.13156" lon="6.09247">
        <ele>2080.1</ele>
        <time>2024-07-08T13:25:02Z</time>
      </trkpt>
      <trkpt lat="45.13155" lon="6.09247">
        <ele>2080.2</ele>
        <time>2024-07-08T13:25:03Z</time>
      </trkpt>
      <trkpt lat="45.13155" lon="6.09247">
        <ele>2080.2</ele>
        <time>2024-07-08T13:25:04Z</time>
      </trkpt>
      <trkpt lat="45.13154" lon="6.09247">
        <ele>2080.3</ele>
        <time>2024-07-08T13:25:05Z</time>
      </trkpt>
      <trkpt lat="45.13153" lon="6.09247">
        <ele>2080.4</ele>
        <time>2024-07-08T13:25:06Z</time>
      </trkpt>
      <trkpt lat="45.13151" lon="6.09248">
        <ele>2080.5</ele>
        <time>2024-07-08T13:25:07Z</time>
      </trkpt>
      <trkpt lat="45.13151" lon="6.09248">
        <ele>2080.6</ele>
        <time>2024-07-08T13:25:08Z</time>
      </trkpt>
      <trkpt lat="45.1315" lon="6.09249">
        <ele>2080.6</ele>
        <time>2024-07-08T13:25:09Z</time>
      </trkpt>
      <trkpt lat="45.13149" lon="6.09249">
        <ele>2080.7</ele>
        <time>2024-07-08T13:25:10Z</time>
      </trkpt>
      <trkpt lat="45.13148" lon="6.09249">
        <ele>2080.8</ele>
        <time>2024-07-08T13:25:11Z</time>
      </trkpt>
      <trkpt lat="45.13147" lon="6.09248">
        <ele>2080.9</ele>
        <time>2024-07-08T13:25:12Z</time>
      </trkpt>
      <trkpt lat="45.13146" lon="6.09247">
        <ele>2080.9</ele>
        <time>2024-07-08T13:25:13Z</time>
      </trkpt>
      <trkpt lat="45.13145" lon="6.09246">
        <ele>2081</ele>
        <time>2024-07-08T13:25:14Z</time>
      </trkpt>
      <trkpt lat="45.13144" lon="6.09246">
        <ele>2081</ele>
        <time>2024-07-08T13:25:15Z</time>
      </trkpt>
      <trkpt lat="45.13143" lon="6.09245">
        <ele>2081.1</ele>
        <time>2024-07-08T13:25:16Z</time>
      </trkpt>
      <trkpt lat="45.13142" lon="6.09244">
        <ele>2081.2</ele>
        <time>2024-07-08T13:25:17Z</time>
      </trkpt>
      <trkpt lat="45.1314" lon="6.09243">
        <ele>2081.2</ele>
        <time>2024-07-08T13:25:18Z</time>
      </trkpt>
      <trkpt lat="45.1314" lon="6.09243">
        <ele>2081.2</ele>
        <time>2024-07-08T13:25:19Z</time>
      </trkpt>
      <trkpt lat="45.13139" lon="6.09242">
        <ele>2081.3</ele>
        <time>2024-07-08T13:25:20Z</time>
      </trkpt>
      <trkpt lat="45.13138" lon="6.09242">
        <ele>2081.3</ele>
        <time>2024-07-08T13:25:21Z</time>
      </trkpt>
      <trkpt lat="45.13137" lon="6.09241">
        <ele>2081.3</ele>
        <time>2024-07-08T13:25:22Z</time>
      </trkpt>
      <trkpt lat="45.13136" lon="6.0924">
        <ele>2081.3</ele>
        <time>2024-07-08T13:25:23Z</time>
      </trkpt>
      <trkpt lat="45.13135" lon="6.0924">
        <ele>2081.4</ele>
        <time>2024-07-08T13:25:24Z</time>
      </trkpt>
      <trkpt lat="45.13134" lon="6.09238">
        <ele>2081.4</ele>
        <time>2024-07-08T13:25:25Z</time>
      </trkpt>
      <trkpt lat="45.13133" lon="6.09237">
        <ele>2081.4</ele>
        <time>2024-07-08T13:25:26Z</time>
      </trkpt>
      <trkpt lat="45.13132" lon="6.09236">
        <ele>2081.4</ele>
        <time>2024-07-08T13:25:27Z</time>
      </trkpt>
      <trkpt lat="45.13132" lon="6.09236">
        <ele>2081.4</ele>
        <time>2024-07-08T13:25:28Z</time>
      </trkpt>
      <trkpt lat="45.13131" lon="6.09235">
        <ele>2081.5</ele>
        <time>2024-07-08T13:25:29Z</time>
      </trkpt>
      <trkpt lat="45.13131" lon="6.09234">
        <ele>2081.5</ele>
        <time>2024-07-08T13:25:30Z</time>
      </trkpt>
      <trkpt lat="45.13129" lon="6.09233">
        <ele>2081.5</ele>
        <time>2024-07-08T13:25:31Z</time>
      </trkpt>
      <trkpt lat="45.13128" lon="6.09232">
        <ele>2081.5</ele>
        <time>2024-07-08T13:25:32Z</time>
      </trkpt>
      <trkpt lat="45.13128" lon="6.09231">
        <ele>2081.5</ele>
        <time>2024-07-08T13:25:33Z</time>
      </trkpt>
      <trkpt lat="45.13127" lon="6.0923">
        <ele>2081.6</ele>
        <time>2024-07-08T13:25:34Z</time>
      </trkpt>
      <trkpt lat="45.13126" lon="6.09229">
        <ele>2081.6</ele>
        <time>2024-07-08T13:25:35Z</time>
      </trkpt>
      <trkpt lat="45.13125" lon="6.09228">
        <ele>2081.6</ele>
        <time>2024-07-08T13:25:36Z</time>
      </trkpt>
      <trkpt lat="45.13124" lon="6.09227">
        <ele>2081.7</ele>
        <time>2024-07-08T13:25:37Z</time>
      </trkpt>
      <trkpt lat="45.13123" lon="6.09226">
        <ele>2081.7</ele>
        <time>2024-07-08T13:25:38Z</time>
      </trkpt>
      <trkpt lat="45.13122" lon="6.09225">
        <ele>2081.7</ele>
        <time>2024-07-08T13:25:39Z</time>
      </trkpt>
      <trkpt lat="45.13121" lon="6.09225">
        <ele>2081.8</ele>
        <time>2024-07-08T13:25:40Z</time>
      </trkpt>
      <trkpt lat="45.1312" lon="6.09224">
        <ele>2081.8</ele>
        <time>2024-07-08T13:25:41Z</time>
      </trkpt>
      <trkpt lat="45.13119" lon="6.09223">
        <ele>2081.9</ele>
        <time>2024-07-08T13:25:42Z</time>
      </trkpt>
      <trkpt lat="45.13118" lon="6.09222">
        <ele>2081.9</ele>
        <time>2024-07-08T13:25:43Z</time>
      </trkpt>
      <trkpt lat="45.13117" lon="6.09221">
        <ele>2082</ele>
        <time>2024-07-08T13:25:44Z</time>
      </trkpt>
      <trkpt lat="45.13116" lon="6.09221">
        <ele>2082</ele>
        <time>2024-07-08T13:25:45Z</time>
      </trkpt>
      <trkpt lat="45.13116" lon="6.0922">
        <ele>2082</ele>
        <time>2024-07-08T13:25:46Z</time>
      </trkpt>
      <trkpt lat="45.13114" lon="6.09219">
        <ele>2082.1</ele>
        <time>2024-07-08T13:25:47Z</time>
      </trkpt>
      <trkpt lat="45.13113" lon="6.09218">
        <ele>2082.1</ele>
        <time>2024-07-08T13:25:48Z</time>
      </trkpt>
      <trkpt lat="45.13113" lon="6.09217">
        <ele>2082.2</ele>
        <time>2024-07-08T13:25:49Z</time>
      </trkpt>
      <trkpt lat="45.13112" lon="6.09217">
        <ele>2082.2</ele>
        <time>2024-07-08T13:25:50Z</time>
      </trkpt>
      <trkpt lat="45.13111" lon="6.09216">
        <ele>2082.3</ele>
        <time>2024-07-08T13:25:51Z</time>
      </trkpt>
      <trkpt lat="45.1311" lon="6.09215">
        <ele>2082.3</ele>
        <time>2024-07-08T13:25:52Z</time>
      </trkpt>
      <trkpt lat="45.13109" lon="6.09214">
        <ele>2082.4</ele>
        <time>2024-07-08T13:25:53Z</time>
      </trkpt>
      <trkpt lat="45.13108" lon="6.09214">
        <ele>2082.4</ele>
        <time>2024-07-08T13:25:54Z</time>
      </trkpt>
      <trkpt lat="45.13107" lon="6.09213">
        <ele>2082.4</ele>
        <time>2024-07-08T13:25:55Z</time>
      </trkpt>
      <trkpt lat="45.13106" lon="6.09212">
        <ele>2082.5</ele>
        <time>2024-07-08T13:25:56Z</time>
      </trkpt>
      <trkpt lat="45.13105" lon="6.09211">
        <ele>2082.5</ele>
        <time>2024-07-08T13:25:57Z</time>
      </trkpt>
      <trkpt lat="45.13105" lon="6.0921">
        <ele>2082.6</ele>
        <time>2024-07-08T13:25:58Z</time>
      </trkpt>
      <trkpt lat="45.13104" lon="6.09209">
        <ele>2082.6</ele>
        <time>2024-07-08T13:25:59Z</time>
      </trkpt>
      <trkpt lat="45.13103" lon="6.09207">
        <ele>2082.6</ele>
        <time>2024-07-08T13:26:00Z</time>
      </trkpt>
      <trkpt lat="45.13103" lon="6.09206">
        <ele>2082.6</ele>
        <time>2024-07-08T13:26:01Z</time>
      </trkpt>
      <trkpt lat="45.13102" lon="6.09204">
        <ele>2082.7</ele>
        <time>2024-07-08T13:26:02Z</time>
      </trkpt>
      <trkpt lat="45.13102" lon="6.09203">
        <ele>2082.7</ele>
        <time>2024-07-08T13:26:03Z</time>
      </trkpt>
      <trkpt lat="45.13101" lon="6.09201">
        <ele>2082.7</ele>
        <time>2024-07-08T13:26:04Z</time>
      </trkpt>
      <trkpt lat="45.13101" lon="6.092">
        <ele>2082.7</ele>
        <time>2024-07-08T13:26:05Z</time>
      </trkpt>
      <trkpt lat="45.13101" lon="6.09199">
        <ele>2082.7</ele>
        <time>2024-07-08T13:26:06Z</time>
      </trkpt>
      <trkpt lat="45.131" lon="6.09197">
        <ele>2082.7</ele>
        <time>2024-07-08T13:26:07Z</time>
      </trkpt>
      <trkpt lat="45.13099" lon="6.09196">
        <ele>2082.7</ele>
        <time>2024-07-08T13:26:08Z</time>
      </trkpt>
      <trkpt lat="45.13099" lon="6.09194">
        <ele>2082.7</ele>
        <time>2024-07-08T13:26:09Z</time>
      </trkpt>
      <trkpt lat="45.13098" lon="6.09193">
        <ele>2082.7</ele>
        <time>2024-07-08T13:26:10Z</time>
      </trkpt>
      <trkpt lat="45.13098" lon="6.09192">
        <ele>2082.7</ele>
        <time>2024-07-08T13:26:11Z</time>
      </trkpt>
      <trkpt lat="45.13097" lon="6.0919">
        <ele>2082.7</ele>
        <time>2024-07-08T13:26:12Z</time>
      </trkpt>
      <trkpt lat="45.13097" lon="6.0919">
        <ele>2082.7</ele>
        <time>2024-07-08T13:26:13Z</time>
      </trkpt>
      <trkpt lat="45.13095" lon="6.09188">
        <ele>2082.6</ele>
        <time>2024-07-08T13:26:14Z</time>
      </trkpt>
      <trkpt lat="45.13094" lon="6.09188">
        <ele>2082.6</ele>
        <time>2024-07-08T13:26:15Z</time>
      </trkpt>
      <trkpt lat="45.13093" lon="6.09187">
        <ele>2082.5</ele>
        <time>2024-07-08T13:26:16Z</time>
      </trkpt>
      <trkpt lat="45.13092" lon="6.09186">
        <ele>2082.5</ele>
        <time>2024-07-08T13:26:17Z</time>
      </trkpt>
      <trkpt lat="45.13091" lon="6.09186">
        <ele>2082.4</ele>
        <time>2024-07-08T13:26:18Z</time>
      </trkpt>
      <trkpt lat="45.1309" lon="6.09185">
        <ele>2082.4</ele>
        <time>2024-07-08T13:26:19Z</time>
      </trkpt>
      <trkpt lat="45.13088" lon="6.09183">
        <ele>2082.3</ele>
        <time>2024-07-08T13:26:20Z</time>
      </trkpt>
      <trkpt lat="45.13088" lon="6.09183">
        <ele>2082.2</ele>
        <time>2024-07-08T13:26:21Z</time>
      </trkpt>
      <trkpt lat="45.13087" lon="6.09183">
        <ele>2082.2</ele>
        <time>2024-07-08T13:26:22Z</time>
      </trkpt>
      <trkpt lat="45.13085" lon="6.09181">
        <ele>2082.1</ele>
        <time>2024-07-08T13:26:23Z</time>
      </trkpt>
      <trkpt lat="45.13084" lon="6.0918">
        <ele>2082.1</ele>
        <time>2024-07-08T13:26:24Z</time>
      </trkpt>
      <trkpt lat="45.13084" lon="6.0918">
        <ele>2082.1</ele>
        <time>2024-07-08T13:26:25Z</time>
      </trkpt>
      <trkpt lat="45.13082" lon="6.09178">
        <ele>2082.1</ele>
        <time>2024-07-08T13:26:26Z</time>
      </trkpt>
      <trkpt lat="45.13081" lon="6.09177">
        <ele>2082.1</ele>
        <time>2024-07-08T13:26:27Z</time>
      </trkpt>
      <trkpt lat="45.13081" lon="6.09176">
        <ele>2082.1</ele>
        <time>2024-07-08T13:26:28Z</time>
      </trkpt>
      <trkpt lat="45.13079" lon="6.09174">
        <ele>2082.1</ele>
        <time>2024-07-08T13:26:29Z</time>
      </trkpt>
      <trkpt lat="45.13078" lon="6.09174">
        <ele>2082.2</ele>
        <time>2024-07-08T13:26:30Z</time>
      </trkpt>
      <trkpt lat="45.13078" lon="6.09173">
        <ele>2082.2</ele>
        <time>2024-07-08T13:26:31Z</time>
      </trkpt>
      <trkpt lat="45.13077" lon="6.09172">
        <ele>2082.2</ele>
        <time>2024-07-08T13:26:32Z</time>
      </trkpt>
      <trkpt lat="45.13076" lon="6.09171">
        <ele>2082.3</ele>
        <time>2024-07-08T13:26:33Z</time>
      </trkpt>
      <trkpt lat="45.13075" lon="6.0917">
        <ele>2082.4</ele>
        <time>2024-07-08T13:26:34Z</time>
      </trkpt>
      <trkpt lat="45.13074" lon="6.09169">
        <ele>2082.4</ele>
        <time>2024-07-08T13:26:35Z</time>
      </trkpt>
      <trkpt lat="45.13073" lon="6.09169">
        <ele>2082.5</ele>
        <time>2024-07-08T13:26:36Z</time>
      </trkpt>
      <trkpt lat="45.13071" lon="6.09168">
        <ele>2082.6</ele>
        <time>2024-07-08T13:26:37Z</time>
      </trkpt>
      <trkpt lat="45.13069" lon="6.09167">
        <ele>2082.8</ele>
        <time>2024-07-08T13:26:38Z</time>
      </trkpt>
      <trkpt lat="45.13069" lon="6.09167">
        <ele>2082.9</ele>
        <time>2024-07-08T13:26:39Z</time>
      </trkpt>
      <trkpt lat="45.13068" lon="6.09166">
        <ele>2083</ele>
        <time>2024-07-08T13:26:40Z</time>
      </trkpt>
      <trkpt lat="45.13067" lon="6.09166">
        <ele>2083.1</ele>
        <time>2024-07-08T13:26:41Z</time>
      </trkpt>
      <trkpt lat="45.13066" lon="6.09165">
        <ele>2083.2</ele>
        <time>2024-07-08T13:26:42Z</time>
      </trkpt>
      <trkpt lat="45.13065" lon="6.09165">
        <ele>2083.4</ele>
        <time>2024-07-08T13:26:43Z</time>
      </trkpt>
      <trkpt lat="45.13064" lon="6.09164">
        <ele>2083.5</ele>
        <time>2024-07-08T13:26:44Z</time>
      </trkpt>
      <trkpt lat="45.13063" lon="6.09163">
        <ele>2083.6</ele>
        <time>2024-07-08T13:26:45Z</time>
      </trkpt>
      <trkpt lat="45.13062" lon="6.09162">
        <ele>2083.8</ele>
        <time>2024-07-08T13:26:46Z</time>
      </trkpt>
      <trkpt lat="45.13061" lon="6.09161">
        <ele>2084</ele>
        <time>2024-07-08T13:26:47Z</time>
      </trkpt>
      <trkpt lat="45.1306" lon="6.0916">
        <ele>2084.1</ele>
        <time>2024-07-08T13:26:48Z</time>
      </trkpt>
      <trkpt lat="45.1306" lon="6.09159">
        <ele>2084.3</ele>
        <time>2024-07-08T13:26:49Z</time>
      </trkpt>
      <trkpt lat="45.13059" lon="6.09158">
        <ele>2084.5</ele>
        <time>2024-07-08T13:26:50Z</time>
      </trkpt>
      <trkpt lat="45.13058" lon="6.09157">
        <ele>2084.7</ele>
        <time>2024-07-08T13:26:51Z</time>
      </trkpt>
      <trkpt lat="45.13057" lon="6.09156">
        <ele>2084.8</ele>
        <time>2024-07-08T13:26:52Z</time>
      </trkpt>
      <trkpt lat="45.13055" lon="6.09155">
        <ele>2085.1</ele>
        <time>2024-07-08T13:26:53Z</time>
      </trkpt>
      <trkpt lat="45.13055" lon="6.09154">
        <ele>2085.2</ele>
        <time>2024-07-08T13:26:54Z</time>
      </trkpt>
      <trkpt lat="45.13054" lon="6.09153">
        <ele>2085.4</ele>
        <time>2024-07-08T13:26:55Z</time>
      </trkpt>
      <trkpt lat="45.13053" lon="6.09152">
        <ele>2085.5</ele>
        <time>2024-07-08T13:26:56Z</time>
      </trkpt>
      <trkpt lat="45.13052" lon="6.09152">
        <ele>2085.7</ele>
        <time>2024-07-08T13:26:57Z</time>
      </trkpt>
      <trkpt lat="45.13051" lon="6.09151">
        <ele>2085.8</ele>
        <time>2024-07-08T13:26:58Z</time>
      </trkpt>
      <trkpt lat="45.1305" lon="6.09151">
        <ele>2085.9</ele>
        <time>2024-07-08T13:26:59Z</time>
      </trkpt>
      <trkpt lat="45.13049" lon="6.09151">
        <ele>2086.1</ele>
        <time>2024-07-08T13:27:00Z</time>
      </trkpt>
      <trkpt lat="45.13048" lon="6.0915">
        <ele>2086.2</ele>
        <time>2024-07-08T13:27:01Z</time>
      </trkpt>
      <trkpt lat="45.13046" lon="6.09149">
        <ele>2086.4</ele>
        <time>2024-07-08T13:27:02Z</time>
      </trkpt>
      <trkpt lat="45.13046" lon="6.09149">
        <ele>2086.5</ele>
        <time>2024-07-08T13:27:03Z</time>
      </trkpt>
      <trkpt lat="45.13045" lon="6.09149">
        <ele>2086.6</ele>
        <time>2024-07-08T13:27:04Z</time>
      </trkpt>
      <trkpt lat="45.13044" lon="6.09148">
        <ele>2086.6</ele>
        <time>2024-07-08T13:27:05Z</time>
      </trkpt>
      <trkpt lat="45.13043" lon="6.09148">
        <ele>2086.8</ele>
        <time>2024-07-08T13:27:06Z</time>
      </trkpt>
      <trkpt lat="45.13042" lon="6.09147">
        <ele>2086.8</ele>
        <time>2024-07-08T13:27:07Z</time>
      </trkpt>
      <trkpt lat="45.13041" lon="6.09147">
        <ele>2086.9</ele>
        <time>2024-07-08T13:27:08Z</time>
      </trkpt>
      <trkpt lat="45.1304" lon="6.09146">
        <ele>2087</ele>
        <time>2024-07-08T13:27:09Z</time>
      </trkpt>
      <trkpt lat="45.1304" lon="6.09145">
        <ele>2087.1</ele>
        <time>2024-07-08T13:27:10Z</time>
      </trkpt>
      <trkpt lat="45.13039" lon="6.09144">
        <ele>2087.3</ele>
        <time>2024-07-08T13:27:11Z</time>
      </trkpt>
      <trkpt lat="45.13038" lon="6.09142">
        <ele>2087.4</ele>
        <time>2024-07-08T13:27:12Z</time>
      </trkpt>
      <trkpt lat="45.13038" lon="6.09141">
        <ele>2087.5</ele>
        <time>2024-07-08T13:27:13Z</time>
      </trkpt>
      <trkpt lat="45.13037" lon="6.09139">
        <ele>2087.6</ele>
        <time>2024-07-08T13:27:14Z</time>
      </trkpt>
      <trkpt lat="45.13037" lon="6.09138">
        <ele>2087.8</ele>
        <time>2024-07-08T13:27:15Z</time>
      </trkpt>
      <trkpt lat="45.13036" lon="6.09136">
        <ele>2088</ele>
        <time>2024-07-08T13:27:16Z</time>
      </trkpt>
      <trkpt lat="45.13035" lon="6.09134">
        <ele>2088.1</ele>
        <time>2024-07-08T13:27:17Z</time>
      </trkpt>
      <trkpt lat="45.13035" lon="6.09133">
        <ele>2088.2</ele>
        <time>2024-07-08T13:27:18Z</time>
      </trkpt>
      <trkpt lat="45.13034" lon="6.09132">
        <ele>2088.3</ele>
        <time>2024-07-08T13:27:19Z</time>
      </trkpt>
      <trkpt lat="45.13034" lon="6.09131">
        <ele>2088.4</ele>
        <time>2024-07-08T13:27:20Z</time>
      </trkpt>
      <trkpt lat="45.13033" lon="6.09129">
        <ele>2088.6</ele>
        <time>2024-07-08T13:27:21Z</time>
      </trkpt>
      <trkpt lat="45.13033" lon="6.09128">
        <ele>2088.7</ele>
        <time>2024-07-08T13:27:22Z</time>
      </trkpt>
      <trkpt lat="45.13032" lon="6.09127">
        <ele>2088.8</ele>
        <time>2024-07-08T13:27:23Z</time>
      </trkpt>
      <trkpt lat="45.13031" lon="6.09125">
        <ele>2089.1</ele>
        <time>2024-07-08T13:27:24Z</time>
      </trkpt>
      <trkpt lat="45.13031" lon="6.09124">
        <ele>2089.2</ele>
        <time>2024-07-08T13:27:25Z</time>
      </trkpt>
      <trkpt lat="45.1303" lon="6.09122">
        <ele>2089.3</ele>
        <time>2024-07-08T13:27:26Z</time>
      </trkpt>
      <trkpt lat="45.13029" lon="6.09122">
        <ele>2089.4</ele>
        <time>2024-07-08T13:27:27Z</time>
      </trkpt>
      <trkpt lat="45.13028" lon="6.09122">
        <ele>2089.5</ele>
        <time>2024-07-08T13:27:28Z</time>
      </trkpt>
      <trkpt lat="45.13026" lon="6.09122">
        <ele>2089.8</ele>
        <time>2024-07-08T13:27:29Z</time>
      </trkpt>
      <trkpt lat="45.13025" lon="6.09123">
        <ele>2089.9</ele>
        <time>2024-07-08T13:27:30Z</time>
      </trkpt>
      <trkpt lat="45.13024" lon="6.09123">
        <ele>2089.9</ele>
        <time>2024-07-08T13:27:31Z</time>
      </trkpt>
      <trkpt lat="45.13023" lon="6.09126">
        <ele>2090.2</ele>
        <time>2024-07-08T13:27:32Z</time>
      </trkpt>
      <trkpt lat="45.13023" lon="6.09127">
        <ele>2090.3</ele>
        <time>2024-07-08T13:27:33Z</time>
      </trkpt>
      <trkpt lat="45.13022" lon="6.09128">
        <ele>2090.4</ele>
        <time>2024-07-08T13:27:34Z</time>
      </trkpt>
      <trkpt lat="45.13022" lon="6.0913">
        <ele>2090.5</ele>
        <time>2024-07-08T13:27:35Z</time>
      </trkpt>
      <trkpt lat="45.13022" lon="6.09132">
        <ele>2090.7</ele>
        <time>2024-07-08T13:27:36Z</time>
      </trkpt>
      <trkpt lat="45.13022" lon="6.09133">
        <ele>2090.8</ele>
        <time>2024-07-08T13:27:37Z</time>
      </trkpt>
      <trkpt lat="45.13022" lon="6.09134">
        <ele>2090.9</ele>
        <time>2024-07-08T13:27:38Z</time>
      </trkpt>
      <trkpt lat="45.13021" lon="6.09136">
        <ele>2091.1</ele>
        <time>2024-07-08T13:27:39Z</time>
      </trkpt>
      <trkpt lat="45.13021" lon="6.09137">
        <ele>2091.2</ele>
        <time>2024-07-08T13:27:40Z</time>
      </trkpt>
      <trkpt lat="45.13021" lon="6.0914">
        <ele>2091.5</ele>
        <time>2024-07-08T13:27:41Z</time>
      </trkpt>
      <trkpt lat="45.1302" lon="6.09141">
        <ele>2091.6</ele>
        <time>2024-07-08T13:27:42Z</time>
      </trkpt>
      <trkpt lat="45.1302" lon="6.09143">
        <ele>2091.8</ele>
        <time>2024-07-08T13:27:43Z</time>
      </trkpt>
      <trkpt lat="45.13019" lon="6.09145">
        <ele>2092.1</ele>
        <time>2024-07-08T13:27:44Z</time>
      </trkpt>
      <trkpt lat="45.13018" lon="6.09146">
        <ele>2092.3</ele>
        <time>2024-07-08T13:27:45Z</time>
      </trkpt>
      <trkpt lat="45.13018" lon="6.09148">
        <ele>2092.4</ele>
        <time>2024-07-08T13:27:46Z</time>
      </trkpt>
      <trkpt lat="45.13018" lon="6.09149">
        <ele>2092.7</ele>
        <time>2024-07-08T13:27:47Z</time>
      </trkpt>
      <trkpt lat="45.13018" lon="6.09151">
        <ele>2092.8</ele>
        <time>2024-07-08T13:27:48Z</time>
      </trkpt>
      <trkpt lat="45.13018" lon="6.09153">
        <ele>2093</ele>
        <time>2024-07-08T13:27:49Z</time>
      </trkpt>
      <trkpt lat="45.13018" lon="6.09154">
        <ele>2093.2</ele>
        <time>2024-07-08T13:27:50Z</time>
      </trkpt>
      <trkpt lat="45.13017" lon="6.09156">
        <ele>2093.4</ele>
        <time>2024-07-08T13:27:51Z</time>
      </trkpt>
      <trkpt lat="45.13017" lon="6.09157">
        <ele>2093.5</ele>
        <time>2024-07-08T13:27:52Z</time>
      </trkpt>
      <trkpt lat="45.13016" lon="6.09158">
        <ele>2093.7</ele>
        <time>2024-07-08T13:27:53Z</time>
      </trkpt>
      <trkpt lat="45.13015" lon="6.0916">
        <ele>2094</ele>
        <time>2024-07-08T13:27:54Z</time>
      </trkpt>
      <trkpt lat="45.13014" lon="6.09161">
        <ele>2094.1</ele>
        <time>2024-07-08T13:27:55Z</time>
      </trkpt>
      <trkpt lat="45.13013" lon="6.09162">
        <ele>2094.3</ele>
        <time>2024-07-08T13:27:56Z</time>
      </trkpt>
      <trkpt lat="45.13012" lon="6.09162">
        <ele>2094.4</ele>
        <time>2024-07-08T13:27:57Z</time>
      </trkpt>
      <trkpt lat="45.13011" lon="6.09161">
        <ele>2094.6</ele>
        <time>2024-07-08T13:27:58Z</time>
      </trkpt>
      <trkpt lat="45.1301" lon="6.0916">
        <ele>2094.7</ele>
        <time>2024-07-08T13:27:59Z</time>
      </trkpt>
      <trkpt lat="45.13009" lon="6.0916">
        <ele>2094.9</ele>
        <time>2024-07-08T13:28:00Z</time>
      </trkpt>
      <trkpt lat="45.13008" lon="6.09158">
        <ele>2095.1</ele>
        <time>2024-07-08T13:28:01Z</time>
      </trkpt>
      <trkpt lat="45.13007" lon="6.09158">
        <ele>2095.3</ele>
        <time>2024-07-08T13:28:02Z</time>
      </trkpt>
      <trkpt lat="45.13006" lon="6.09156">
        <ele>2095.5</ele>
        <time>2024-07-08T13:28:03Z</time>
      </trkpt>
      <trkpt lat="45.13005" lon="6.09155">
        <ele>2095.7</ele>
        <time>2024-07-08T13:28:04Z</time>
      </trkpt>
      <trkpt lat="45.13004" lon="6.09154">
        <ele>2095.8</ele>
        <time>2024-07-08T13:28:05Z</time>
      </trkpt>
      <trkpt lat="45.13004" lon="6.09153">
        <ele>2095.9</ele>
        <time>2024-07-08T13:28:06Z</time>
      </trkpt>
      <trkpt lat="45.13003" lon="6.09153">
        <ele>2096.1</ele>
        <time>2024-07-08T13:28:07Z</time>
      </trkpt>
      <trkpt lat="45.13002" lon="6.09152">
        <ele>2096.2</ele>
        <time>2024-07-08T13:28:08Z</time>
      </trkpt>
      <trkpt lat="45.13001" lon="6.09151">
        <ele>2096.4</ele>
        <time>2024-07-08T13:28:09Z</time>
      </trkpt>
      <trkpt lat="45.13" lon="6.09151">
        <ele>2096.5</ele>
        <time>2024-07-08T13:28:10Z</time>
      </trkpt>
      <trkpt lat="45.12999" lon="6.09151">
        <ele>2096.6</ele>
        <time>2024-07-08T13:28:11Z</time>
      </trkpt>
      <trkpt lat="45.12998" lon="6.09151">
        <ele>2096.7</ele>
        <time>2024-07-08T13:28:12Z</time>
      </trkpt>
      <trkpt lat="45.12997" lon="6.0915">
        <ele>2096.8</ele>
        <time>2024-07-08T13:28:13Z</time>
      </trkpt>
      <trkpt lat="45.12997" lon="6.09149">
        <ele>2096.9</ele>
        <time>2024-07-08T13:28:14Z</time>
      </trkpt>
      <trkpt lat="45.12996" lon="6.09149">
        <ele>2097</ele>
        <time>2024-07-08T13:28:15Z</time>
      </trkpt>
      <trkpt lat="45.12994" lon="6.09148">
        <ele>2097.2</ele>
        <time>2024-07-08T13:28:16Z</time>
      </trkpt>
      <trkpt lat="45.12994" lon="6.09148">
        <ele>2097.3</ele>
        <time>2024-07-08T13:28:17Z</time>
      </trkpt>
      <trkpt lat="45.12993" lon="6.09147">
        <ele>2097.4</ele>
        <time>2024-07-08T13:28:18Z</time>
      </trkpt>
      <trkpt lat="45.12992" lon="6.09147">
        <ele>2097.4</ele>
        <time>2024-07-08T13:28:19Z</time>
      </trkpt>
      <trkpt lat="45.12991" lon="6.09147">
        <ele>2097.5</ele>
        <time>2024-07-08T13:28:20Z</time>
      </trkpt>
      <trkpt lat="45.1299" lon="6.09146">
        <ele>2097.7</ele>
        <time>2024-07-08T13:28:21Z</time>
      </trkpt>
      <trkpt lat="45.12989" lon="6.09146">
        <ele>2097.7</ele>
        <time>2024-07-08T13:28:22Z</time>
      </trkpt>
      <trkpt lat="45.12988" lon="6.09146">
        <ele>2097.8</ele>
        <time>2024-07-08T13:28:23Z</time>
      </trkpt>
      <trkpt lat="45.12987" lon="6.09146">
        <ele>2097.9</ele>
        <time>2024-07-08T13:28:24Z</time>
      </trkpt>
      <trkpt lat="45.12987" lon="6.09147">
        <ele>2097.9</ele>
        <time>2024-07-08T13:28:25Z</time>
      </trkpt>
      <trkpt lat="45.12985" lon="6.09147">
        <ele>2098.1</ele>
        <time>2024-07-08T13:28:26Z</time>
      </trkpt>
      <trkpt lat="45.12984" lon="6.09147">
        <ele>2098.1</ele>
        <time>2024-07-08T13:28:27Z</time>
      </trkpt>
      <trkpt lat="45.12983" lon="6.09147">
        <ele>2098.2</ele>
        <time>2024-07-08T13:28:28Z</time>
      </trkpt>
      <trkpt lat="45.12982" lon="6.09148">
        <ele>2098.3</ele>
        <time>2024-07-08T13:28:29Z</time>
      </trkpt>
      <trkpt lat="45.12981" lon="6.09148">
        <ele>2098.4</ele>
        <time>2024-07-08T13:28:30Z</time>
      </trkpt>
      <trkpt lat="45.1298" lon="6.09149">
        <ele>2098.5</ele>
        <time>2024-07-08T13:28:31Z</time>
      </trkpt>
      <trkpt lat="45.1298" lon="6.09151">
        <ele>2098.6</ele>
        <time>2024-07-08T13:28:32Z</time>
      </trkpt>
      <trkpt lat="45.12979" lon="6.09152">
        <ele>2098.7</ele>
        <time>2024-07-08T13:28:33Z</time>
      </trkpt>
      <trkpt lat="45.12978" lon="6.09153">
        <ele>2098.8</ele>
        <time>2024-07-08T13:28:34Z</time>
      </trkpt>
      <trkpt lat="45.12978" lon="6.09154">
        <ele>2098.9</ele>
        <time>2024-07-08T13:28:35Z</time>
      </trkpt>
      <trkpt lat="45.12977" lon="6.09155">
        <ele>2099</ele>
        <time>2024-07-08T13:28:36Z</time>
      </trkpt>
      <trkpt lat="45.12976" lon="6.09155">
        <ele>2099.1</ele>
        <time>2024-07-08T13:28:37Z</time>
      </trkpt>
      <trkpt lat="45.12975" lon="6.09156">
        <ele>2099.2</ele>
        <time>2024-07-08T13:28:38Z</time>
      </trkpt>
      <trkpt lat="45.12974" lon="6.09156">
        <ele>2099.3</ele>
        <time>2024-07-08T13:28:39Z</time>
      </trkpt>
      <trkpt lat="45.12973" lon="6.09157">
        <ele>2099.4</ele>
        <time>2024-07-08T13:28:40Z</time>
      </trkpt>
      <trkpt lat="45.12971" lon="6.09157">
        <ele>2099.5</ele>
        <time>2024-07-08T13:28:41Z</time>
      </trkpt>
      <trkpt lat="45.1297" lon="6.09158">
        <ele>2099.6</ele>
        <time>2024-07-08T13:28:42Z</time>
      </trkpt>
      <trkpt lat="45.12969" lon="6.09158">
        <ele>2099.7</ele>
        <time>2024-07-08T13:28:43Z</time>
      </trkpt>
      <trkpt lat="45.12968" lon="6.09158">
        <ele>2099.8</ele>
        <time>2024-07-08T13:28:44Z</time>
      </trkpt>
      <trkpt lat="45.12967" lon="6.09159">
        <ele>2100</ele>
        <time>2024-07-08T13:28:45Z</time>
      </trkpt>
      <trkpt lat="45.12966" lon="6.0916">
        <ele>2100.1</ele>
        <time>2024-07-08T13:28:46Z</time>
      </trkpt>
      <trkpt lat="45.12965" lon="6.0916">
        <ele>2100.2</ele>
        <time>2024-07-08T13:28:47Z</time>
      </trkpt>
      <trkpt lat="45.12964" lon="6.0916">
        <ele>2100.3</ele>
        <time>2024-07-08T13:28:48Z</time>
      </trkpt>
      <trkpt lat="45.12963" lon="6.0916">
        <ele>2100.4</ele>
        <time>2024-07-08T13:28:49Z</time>
      </trkpt>
      <trkpt lat="45.12962" lon="6.09161">
        <ele>2100.5</ele>
        <time>2024-07-08T13:28:50Z</time>
      </trkpt>
      <trkpt lat="45.1296" lon="6.09161">
        <ele>2100.7</ele>
        <time>2024-07-08T13:28:51Z</time>
      </trkpt>
      <trkpt lat="45.12959" lon="6.09161">
        <ele>2100.8</ele>
        <time>2024-07-08T13:28:52Z</time>
      </trkpt>
      <trkpt lat="45.12958" lon="6.09161">
        <ele>2100.9</ele>
        <time>2024-07-08T13:28:53Z</time>
      </trkpt>
      <trkpt lat="45.12956" lon="6.09161">
        <ele>2101.1</ele>
        <time>2024-07-08T13:28:54Z</time>
      </trkpt>
      <trkpt lat="45.12955" lon="6.09161">
        <ele>2101.2</ele>
        <time>2024-07-08T13:28:55Z</time>
      </trkpt>
      <trkpt lat="45.12954" lon="6.09161">
        <ele>2101.3</ele>
        <time>2024-07-08T13:28:56Z</time>
      </trkpt>
      <trkpt lat="45.12953" lon="6.09161">
        <ele>2101.3</ele>
        <time>2024-07-08T13:28:57Z</time>
      </trkpt>
      <trkpt lat="45.12952" lon="6.09161">
        <ele>2101.5</ele>
        <time>2024-07-08T13:28:58Z</time>
      </trkpt>
      <trkpt lat="45.12951" lon="6.09161">
        <ele>2101.6</ele>
        <time>2024-07-08T13:28:59Z</time>
      </trkpt>
      <trkpt lat="45.1295" lon="6.09161">
        <ele>2101.7</ele>
        <time>2024-07-08T13:29:00Z</time>
      </trkpt>
      <trkpt lat="45.12949" lon="6.09161">
        <ele>2101.8</ele>
        <time>2024-07-08T13:29:01Z</time>
      </trkpt>
      <trkpt lat="45.12948" lon="6.0916">
        <ele>2101.8</ele>
        <time>2024-07-08T13:29:02Z</time>
      </trkpt>
      <trkpt lat="45.12947" lon="6.0916">
        <ele>2101.9</ele>
        <time>2024-07-08T13:29:03Z</time>
      </trkpt>
      <trkpt lat="45.12946" lon="6.0916">
        <ele>2102</ele>
        <time>2024-07-08T13:29:04Z</time>
      </trkpt>
      <trkpt lat="45.12944" lon="6.0916">
        <ele>2102.1</ele>
        <time>2024-07-08T13:29:05Z</time>
      </trkpt>
      <trkpt lat="45.12942" lon="6.0916">
        <ele>2102.3</ele>
        <time>2024-07-08T13:29:06Z</time>
      </trkpt>
      <trkpt lat="45.12941" lon="6.0916">
        <ele>2102.3</ele>
        <time>2024-07-08T13:29:07Z</time>
      </trkpt>
      <trkpt lat="45.12941" lon="6.0916">
        <ele>2102.3</ele>
        <time>2024-07-08T13:29:08Z</time>
      </trkpt>
      <trkpt lat="45.12939" lon="6.0916">
        <ele>2102.4</ele>
        <time>2024-07-08T13:29:09Z</time>
      </trkpt>
      <trkpt lat="45.12938" lon="6.09159">
        <ele>2102.5</ele>
        <time>2024-07-08T13:29:10Z</time>
      </trkpt>
      <trkpt lat="45.12936" lon="6.09158">
        <ele>2102.6</ele>
        <time>2024-07-08T13:29:11Z</time>
      </trkpt>
      <trkpt lat="45.12935" lon="6.09158">
        <ele>2102.6</ele>
        <time>2024-07-08T13:29:12Z</time>
      </trkpt>
      <trkpt lat="45.12934" lon="6.09158">
        <ele>2102.6</ele>
        <time>2024-07-08T13:29:13Z</time>
      </trkpt>
      <trkpt lat="45.12932" lon="6.09157">
        <ele>2102.7</ele>
        <time>2024-07-08T13:29:14Z</time>
      </trkpt>
      <trkpt lat="45.12931" lon="6.09157">
        <ele>2102.7</ele>
        <time>2024-07-08T13:29:15Z</time>
      </trkpt>
      <trkpt lat="45.1293" lon="6.09157">
        <ele>2102.7</ele>
        <time>2024-07-08T13:29:16Z</time>
      </trkpt>
      <trkpt lat="45.12929" lon="6.09157">
        <ele>2102.8</ele>
        <time>2024-07-08T13:29:17Z</time>
      </trkpt>
      <trkpt lat="45.12928" lon="6.09156">
        <ele>2102.8</ele>
        <time>2024-07-08T13:29:18Z</time>
      </trkpt>
      <trkpt lat="45.12927" lon="6.09156">
        <ele>2102.8</ele>
        <time>2024-07-08T13:29:19Z</time>
      </trkpt>
      <trkpt lat="45.12926" lon="6.09155">
        <ele>2102.8</ele>
        <time>2024-07-08T13:29:20Z</time>
      </trkpt>
      <trkpt lat="45.12924" lon="6.09155">
        <ele>2102.8</ele>
        <time>2024-07-08T13:29:21Z</time>
      </trkpt>
      <trkpt lat="45.12923" lon="6.09154">
        <ele>2102.8</ele>
        <time>2024-07-08T13:29:22Z</time>
      </trkpt>
      <trkpt lat="45.12922" lon="6.09154">
        <ele>2102.8</ele>
        <time>2024-07-08T13:29:23Z</time>
      </trkpt>
      <trkpt lat="45.12921" lon="6.09154">
        <ele>2102.9</ele>
        <time>2024-07-08T13:29:24Z</time>
      </trkpt>
      <trkpt lat="45.1292" lon="6.09153">
        <ele>2102.9</ele>
        <time>2024-07-08T13:29:25Z</time>
      </trkpt>
      <trkpt lat="45.12918" lon="6.09153">
        <ele>2102.9</ele>
        <time>2024-07-08T13:29:26Z</time>
      </trkpt>
      <trkpt lat="45.12917" lon="6.09152">
        <ele>2102.9</ele>
        <time>2024-07-08T13:29:27Z</time>
      </trkpt>
      <trkpt lat="45.12916" lon="6.09152">
        <ele>2102.9</ele>
        <time>2024-07-08T13:29:28Z</time>
      </trkpt>
      <trkpt lat="45.12915" lon="6.09152">
        <ele>2102.9</ele>
        <time>2024-07-08T13:29:29Z</time>
      </trkpt>
      <trkpt lat="45.12914" lon="6.09151">
        <ele>2102.9</ele>
        <time>2024-07-08T13:29:30Z</time>
      </trkpt>
      <trkpt lat="45.12912" lon="6.0915">
        <ele>2102.9</ele>
        <time>2024-07-08T13:29:31Z</time>
      </trkpt>
      <trkpt lat="45.12912" lon="6.0915">
        <ele>2102.8</ele>
        <time>2024-07-08T13:29:32Z</time>
      </trkpt>
      <trkpt lat="45.1291" lon="6.0915">
        <ele>2102.8</ele>
        <time>2024-07-08T13:29:33Z</time>
      </trkpt>
      <trkpt lat="45.12909" lon="6.0915">
        <ele>2102.8</ele>
        <time>2024-07-08T13:29:34Z</time>
      </trkpt>
      <trkpt lat="45.12908" lon="6.09149">
        <ele>2102.8</ele>
        <time>2024-07-08T13:29:35Z</time>
      </trkpt>
      <trkpt lat="45.12907" lon="6.09148">
        <ele>2102.8</ele>
        <time>2024-07-08T13:29:36Z</time>
      </trkpt>
      <trkpt lat="45.12906" lon="6.09148">
        <ele>2102.8</ele>
        <time>2024-07-08T13:29:37Z</time>
      </trkpt>
      <trkpt lat="45.12904" lon="6.09147">
        <ele>2102.8</ele>
        <time>2024-07-08T13:29:38Z</time>
      </trkpt>
      <trkpt lat="45.12903" lon="6.09147">
        <ele>2102.8</ele>
        <time>2024-07-08T13:29:39Z</time>
      </trkpt>
      <trkpt lat="45.12902" lon="6.09146">
        <ele>2102.8</ele>
        <time>2024-07-08T13:29:40Z</time>
      </trkpt>
      <trkpt lat="45.129" lon="6.09145">
        <ele>2102.8</ele>
        <time>2024-07-08T13:29:41Z</time>
      </trkpt>
      <trkpt lat="45.12899" lon="6.09145">
        <ele>2102.8</ele>
        <time>2024-07-08T13:29:42Z</time>
      </trkpt>
      <trkpt lat="45.12899" lon="6.09144">
        <ele>2102.8</ele>
        <time>2024-07-08T13:29:43Z</time>
      </trkpt>
      <trkpt lat="45.12897" lon="6.09144">
        <ele>2102.8</ele>
        <time>2024-07-08T13:29:44Z</time>
      </trkpt>
      <trkpt lat="45.12896" lon="6.09144">
        <ele>2102.8</ele>
        <time>2024-07-08T13:29:45Z</time>
      </trkpt>
      <trkpt lat="45.12895" lon="6.09144">
        <ele>2102.8</ele>
        <time>2024-07-08T13:29:46Z</time>
      </trkpt>
      <trkpt lat="45.12894" lon="6.09144">
        <ele>2102.8</ele>
        <time>2024-07-08T13:29:47Z</time>
      </trkpt>
      <trkpt lat="45.12892" lon="6.09144">
        <ele>2102.8</ele>
        <time>2024-07-08T13:29:48Z</time>
      </trkpt>
      <trkpt lat="45.12891" lon="6.09144">
        <ele>2102.8</ele>
        <time>2024-07-08T13:29:49Z</time>
      </trkpt>
      <trkpt lat="45.12889" lon="6.09144">
        <ele>2102.8</ele>
        <time>2024-07-08T13:29:50Z</time>
      </trkpt>
      <trkpt lat="45.12888" lon="6.09144">
        <ele>2102.8</ele>
        <time>2024-07-08T13:29:51Z</time>
      </trkpt>
      <trkpt lat="45.12888" lon="6.09144">
        <ele>2102.8</ele>
        <time>2024-07-08T13:29:52Z</time>
      </trkpt>
      <trkpt lat="45.12885" lon="6.09144">
        <ele>2102.7</ele>
        <time>2024-07-08T13:29:53Z</time>
      </trkpt>
      <trkpt lat="45.12885" lon="6.09144">
        <ele>2102.7</ele>
        <time>2024-07-08T13:29:54Z</time>
      </trkpt>
      <trkpt lat="45.12884" lon="6.09143">
        <ele>2102.7</ele>
        <time>2024-07-08T13:29:55Z</time>
      </trkpt>
      <trkpt lat="45.12883" lon="6.09143">
        <ele>2102.7</ele>
        <time>2024-07-08T13:29:56Z</time>
      </trkpt>
      <trkpt lat="45.12881" lon="6.09143">
        <ele>2102.7</ele>
        <time>2024-07-08T13:29:57Z</time>
      </trkpt>
      <trkpt lat="45.1288" lon="6.09142">
        <ele>2102.7</ele>
        <time>2024-07-08T13:29:58Z</time>
      </trkpt>
      <trkpt lat="45.12878" lon="6.09142">
        <ele>2102.6</ele>
        <time>2024-07-08T13:29:59Z</time>
      </trkpt>
      <trkpt lat="45.12877" lon="6.09141">
        <ele>2102.6</ele>
        <time>2024-07-08T13:30:00Z</time>
      </trkpt>
      <trkpt lat="45.12877" lon="6.09141">
        <ele>2102.6</ele>
        <time>2024-07-08T13:30:01Z</time>
      </trkpt>
      <trkpt lat="45.12876" lon="6.0914">
        <ele>2102.6</ele>
        <time>2024-07-08T13:30:02Z</time>
      </trkpt>
      <trkpt lat="45.12874" lon="6.0914">
        <ele>2102.5</ele>
        <time>2024-07-08T13:30:03Z</time>
      </trkpt>
      <trkpt lat="45.12873" lon="6.0914">
        <ele>2102.5</ele>
        <time>2024-07-08T13:30:04Z</time>
      </trkpt>
      <trkpt lat="45.12872" lon="6.09139">
        <ele>2102.5</ele>
        <time>2024-07-08T13:30:05Z</time>
      </trkpt>
      <trkpt lat="45.12871" lon="6.09138">
        <ele>2102.4</ele>
        <time>2024-07-08T13:30:06Z</time>
      </trkpt>
      <trkpt lat="45.12869" lon="6.09138">
        <ele>2102.4</ele>
        <time>2024-07-08T13:30:07Z</time>
      </trkpt>
      <trkpt lat="45.12868" lon="6.09138">
        <ele>2102.3</ele>
        <time>2024-07-08T13:30:08Z</time>
      </trkpt>
      <trkpt lat="45.12867" lon="6.09137">
        <ele>2102.3</ele>
        <time>2024-07-08T13:30:09Z</time>
      </trkpt>
      <trkpt lat="45.12866" lon="6.09137">
        <ele>2102.2</ele>
        <time>2024-07-08T13:30:10Z</time>
      </trkpt>
      <trkpt lat="45.12864" lon="6.09137">
        <ele>2102.2</ele>
        <time>2024-07-08T13:30:11Z</time>
      </trkpt>
      <trkpt lat="45.12863" lon="6.09137">
        <ele>2102.1</ele>
        <time>2024-07-08T13:30:12Z</time>
      </trkpt>
      <trkpt lat="45.12862" lon="6.09137">
        <ele>2102.1</ele>
        <time>2024-07-08T13:30:13Z</time>
      </trkpt>
      <trkpt lat="45.12861" lon="6.09137">
        <ele>2102</ele>
        <time>2024-07-08T13:30:14Z</time>
      </trkpt>
      <trkpt lat="45.1286" lon="6.09138">
        <ele>2102</ele>
        <time>2024-07-08T13:30:15Z</time>
      </trkpt>
      <trkpt lat="45.12858" lon="6.09138">
        <ele>2101.9</ele>
        <time>2024-07-08T13:30:16Z</time>
      </trkpt>
      <trkpt lat="45.12857" lon="6.09138">
        <ele>2101.9</ele>
        <time>2024-07-08T13:30:17Z</time>
      </trkpt>
      <trkpt lat="45.12855" lon="6.09137">
        <ele>2101.8</ele>
        <time>2024-07-08T13:30:18Z</time>
      </trkpt>
      <trkpt lat="45.12855" lon="6.09136">
        <ele>2101.8</ele>
        <time>2024-07-08T13:30:19Z</time>
      </trkpt>
      <trkpt lat="45.12854" lon="6.09135">
        <ele>2101.8</ele>
        <time>2024-07-08T13:30:20Z</time>
      </trkpt>
      <trkpt lat="45.12852" lon="6.09134">
        <ele>2101.7</ele>
        <time>2024-07-08T13:30:21Z</time>
      </trkpt>
      <trkpt lat="45.12852" lon="6.09133">
        <ele>2101.7</ele>
        <time>2024-07-08T13:30:22Z</time>
      </trkpt>
      <trkpt lat="45.1285" lon="6.09133">
        <ele>2101.6</ele>
        <time>2024-07-08T13:30:23Z</time>
      </trkpt>
      <trkpt lat="45.12849" lon="6.09132">
        <ele>2101.6</ele>
        <time>2024-07-08T13:30:24Z</time>
      </trkpt>
      <trkpt lat="45.12848" lon="6.09132">
        <ele>2101.5</ele>
        <time>2024-07-08T13:30:25Z</time>
      </trkpt>
      <trkpt lat="45.12846" lon="6.09132">
        <ele>2101.5</ele>
        <time>2024-07-08T13:30:26Z</time>
      </trkpt>
      <trkpt lat="45.12845" lon="6.09132">
        <ele>2101.4</ele>
        <time>2024-07-08T13:30:27Z</time>
      </trkpt>
      <trkpt lat="45.12844" lon="6.09132">
        <ele>2101.4</ele>
        <time>2024-07-08T13:30:28Z</time>
      </trkpt>
      <trkpt lat="45.12842" lon="6.09132">
        <ele>2101.3</ele>
        <time>2024-07-08T13:30:29Z</time>
      </trkpt>
      <trkpt lat="45.12841" lon="6.09132">
        <ele>2101.3</ele>
        <time>2024-07-08T13:30:30Z</time>
      </trkpt>
      <trkpt lat="45.1284" lon="6.09131">
        <ele>2101.3</ele>
        <time>2024-07-08T13:30:31Z</time>
      </trkpt>
      <trkpt lat="45.12838" lon="6.0913">
        <ele>2101.2</ele>
        <time>2024-07-08T13:30:32Z</time>
      </trkpt>
      <trkpt lat="45.12838" lon="6.0913">
        <ele>2101.1</ele>
        <time>2024-07-08T13:30:33Z</time>
      </trkpt>
      <trkpt lat="45.12837" lon="6.0913">
        <ele>2101.1</ele>
        <time>2024-07-08T13:30:34Z</time>
      </trkpt>
      <trkpt lat="45.12835" lon="6.09129">
        <ele>2101.1</ele>
        <time>2024-07-08T13:30:35Z</time>
      </trkpt>
      <trkpt lat="45.12834" lon="6.09129">
        <ele>2101</ele>
        <time>2024-07-08T13:30:36Z</time>
      </trkpt>
      <trkpt lat="45.12832" lon="6.09128">
        <ele>2100.9</ele>
        <time>2024-07-08T13:30:37Z</time>
      </trkpt>
      <trkpt lat="45.12831" lon="6.09128">
        <ele>2100.8</ele>
        <time>2024-07-08T13:30:38Z</time>
      </trkpt>
      <trkpt lat="45.1283" lon="6.09128">
        <ele>2100.8</ele>
        <time>2024-07-08T13:30:39Z</time>
      </trkpt>
      <trkpt lat="45.12829" lon="6.09128">
        <ele>2100.7</ele>
        <time>2024-07-08T13:30:40Z</time>
      </trkpt>
      <trkpt lat="45.12827" lon="6.09128">
        <ele>2100.6</ele>
        <time>2024-07-08T13:30:41Z</time>
      </trkpt>
      <trkpt lat="45.12826" lon="6.09128">
        <ele>2100.6</ele>
        <time>2024-07-08T13:30:42Z</time>
      </trkpt>
      <trkpt lat="45.12825" lon="6.09128">
        <ele>2100.5</ele>
        <time>2024-07-08T13:30:43Z</time>
      </trkpt>
      <trkpt lat="45.12824" lon="6.09128">
        <ele>2100.4</ele>
        <time>2024-07-08T13:30:44Z</time>
      </trkpt>
      <trkpt lat="45.12823" lon="6.09127">
        <ele>2100.3</ele>
        <time>2024-07-08T13:30:45Z</time>
      </trkpt>
      <trkpt lat="45.12821" lon="6.09125">
        <ele>2100.2</ele>
        <time>2024-07-08T13:30:46Z</time>
      </trkpt>
      <trkpt lat="45.1282" lon="6.09124">
        <ele>2100.1</ele>
        <time>2024-07-08T13:30:47Z</time>
      </trkpt>
      <trkpt lat="45.12819" lon="6.09124">
        <ele>2100.1</ele>
        <time>2024-07-08T13:30:48Z</time>
      </trkpt>
      <trkpt lat="45.12818" lon="6.09123">
        <ele>2100</ele>
        <time>2024-07-08T13:30:49Z</time>
      </trkpt>
      <trkpt lat="45.12817" lon="6.09123">
        <ele>2099.9</ele>
        <time>2024-07-08T13:30:50Z</time>
      </trkpt>
      <trkpt lat="45.12815" lon="6.09122">
        <ele>2099.8</ele>
        <time>2024-07-08T13:30:51Z</time>
      </trkpt>
      <trkpt lat="45.12813" lon="6.09122">
        <ele>2099.7</ele>
        <time>2024-07-08T13:30:52Z</time>
      </trkpt>
      <trkpt lat="45.12812" lon="6.09122">
        <ele>2099.6</ele>
        <time>2024-07-08T13:30:53Z</time>
      </trkpt>
      <trkpt lat="45.12811" lon="6.09122">
        <ele>2099.6</ele>
        <time>2024-07-08T13:30:54Z</time>
      </trkpt>
      <trkpt lat="45.1281" lon="6.09122">
        <ele>2099.5</ele>
        <time>2024-07-08T13:30:55Z</time>
      </trkpt>
      <trkpt lat="45.12808" lon="6.09123">
        <ele>2099.4</ele>
        <time>2024-07-08T13:30:56Z</time>
      </trkpt>
      <trkpt lat="45.12808" lon="6.09123">
        <ele>2099.4</ele>
        <time>2024-07-08T13:30:57Z</time>
      </trkpt>
      <trkpt lat="45.12807" lon="6.09124">
        <ele>2099.3</ele>
        <time>2024-07-08T13:30:58Z</time>
      </trkpt>
      <trkpt lat="45.12805" lon="6.09124">
        <ele>2099.3</ele>
        <time>2024-07-08T13:30:59Z</time>
      </trkpt>
      <trkpt lat="45.12804" lon="6.09124">
        <ele>2099.2</ele>
        <time>2024-07-08T13:31:00Z</time>
      </trkpt>
      <trkpt lat="45.12803" lon="6.09124">
        <ele>2099.1</ele>
        <time>2024-07-08T13:31:01Z</time>
      </trkpt>
      <trkpt lat="45.12802" lon="6.09124">
        <ele>2099.1</ele>
        <time>2024-07-08T13:31:02Z</time>
      </trkpt>
      <trkpt lat="45.128" lon="6.09123">
        <ele>2099</ele>
        <time>2024-07-08T13:31:03Z</time>
      </trkpt>
      <trkpt lat="45.12799" lon="6.09122">
        <ele>2099</ele>
        <time>2024-07-08T13:31:04Z</time>
      </trkpt>
      <trkpt lat="45.12798" lon="6.09122">
        <ele>2098.9</ele>
        <time>2024-07-08T13:31:05Z</time>
      </trkpt>
      <trkpt lat="45.12796" lon="6.0912">
        <ele>2098.9</ele>
        <time>2024-07-08T13:31:06Z</time>
      </trkpt>
      <trkpt lat="45.12795" lon="6.0912">
        <ele>2098.8</ele>
        <time>2024-07-08T13:31:07Z</time>
      </trkpt>
      <trkpt lat="45.12794" lon="6.09119">
        <ele>2098.8</ele>
        <time>2024-07-08T13:31:08Z</time>
      </trkpt>
      <trkpt lat="45.12793" lon="6.09118">
        <ele>2098.8</ele>
        <time>2024-07-08T13:31:09Z</time>
      </trkpt>
      <trkpt lat="45.12791" lon="6.09117">
        <ele>2098.7</ele>
        <time>2024-07-08T13:31:10Z</time>
      </trkpt>
      <trkpt lat="45.1279" lon="6.09116">
        <ele>2098.7</ele>
        <time>2024-07-08T13:31:11Z</time>
      </trkpt>
      <trkpt lat="45.12789" lon="6.09115">
        <ele>2098.7</ele>
        <time>2024-07-08T13:31:12Z</time>
      </trkpt>
      <trkpt lat="45.12788" lon="6.09115">
        <ele>2098.7</ele>
        <time>2024-07-08T13:31:13Z</time>
      </trkpt>
      <trkpt lat="45.12786" lon="6.09114">
        <ele>2098.6</ele>
        <time>2024-07-08T13:31:14Z</time>
      </trkpt>
      <trkpt lat="45.12785" lon="6.09114">
        <ele>2098.6</ele>
        <time>2024-07-08T13:31:15Z</time>
      </trkpt>
      <trkpt lat="45.12783" lon="6.09112">
        <ele>2098.6</ele>
        <time>2024-07-08T13:31:16Z</time>
      </trkpt>
      <trkpt lat="45.12782" lon="6.09111">
        <ele>2098.6</ele>
        <time>2024-07-08T13:31:17Z</time>
      </trkpt>
      <trkpt lat="45.12782" lon="6.09109">
        <ele>2098.7</ele>
        <time>2024-07-08T13:31:18Z</time>
      </trkpt>
      <trkpt lat="45.12781" lon="6.09107">
        <ele>2098.7</ele>
        <time>2024-07-08T13:31:19Z</time>
      </trkpt>
      <trkpt lat="45.1278" lon="6.09105">
        <ele>2098.7</ele>
        <time>2024-07-08T13:31:20Z</time>
      </trkpt>
      <trkpt lat="45.12779" lon="6.09104">
        <ele>2098.7</ele>
        <time>2024-07-08T13:31:21Z</time>
      </trkpt>
      <trkpt lat="45.12777" lon="6.09102">
        <ele>2098.8</ele>
        <time>2024-07-08T13:31:22Z</time>
      </trkpt>
      <trkpt lat="45.12776" lon="6.09102">
        <ele>2098.8</ele>
        <time>2024-07-08T13:31:23Z</time>
      </trkpt>
      <trkpt lat="45.12776" lon="6.09101">
        <ele>2098.8</ele>
        <time>2024-07-08T13:31:24Z</time>
      </trkpt>
      <trkpt lat="45.12774" lon="6.09101">
        <ele>2098.9</ele>
        <time>2024-07-08T13:31:25Z</time>
      </trkpt>
      <trkpt lat="45.12772" lon="6.09101">
        <ele>2098.9</ele>
        <time>2024-07-08T13:31:26Z</time>
      </trkpt>
      <trkpt lat="45.12771" lon="6.09101">
        <ele>2099</ele>
        <time>2024-07-08T13:31:27Z</time>
      </trkpt>
      <trkpt lat="45.1277" lon="6.091">
        <ele>2099</ele>
        <time>2024-07-08T13:31:28Z</time>
      </trkpt>
      <trkpt lat="45.12769" lon="6.091">
        <ele>2099</ele>
        <time>2024-07-08T13:31:29Z</time>
      </trkpt>
      <trkpt lat="45.12768" lon="6.09099">
        <ele>2099.1</ele>
        <time>2024-07-08T13:31:30Z</time>
      </trkpt>
      <trkpt lat="45.12766" lon="6.09099">
        <ele>2099.1</ele>
        <time>2024-07-08T13:31:31Z</time>
      </trkpt>
      <trkpt lat="45.12765" lon="6.09099">
        <ele>2099.2</ele>
        <time>2024-07-08T13:31:32Z</time>
      </trkpt>
      <trkpt lat="45.12765" lon="6.091">
        <ele>2099.2</ele>
        <time>2024-07-08T13:31:33Z</time>
      </trkpt>
      <trkpt lat="45.12764" lon="6.09101">
        <ele>2099.2</ele>
        <time>2024-07-08T13:31:34Z</time>
      </trkpt>
      <trkpt lat="45.12763" lon="6.09103">
        <ele>2099.2</ele>
        <time>2024-07-08T13:31:35Z</time>
      </trkpt>
      <trkpt lat="45.12762" lon="6.09103">
        <ele>2099.3</ele>
        <time>2024-07-08T13:31:36Z</time>
      </trkpt>
      <trkpt lat="45.1276" lon="6.09104">
        <ele>2099.3</ele>
        <time>2024-07-08T13:31:37Z</time>
      </trkpt>
      <trkpt lat="45.12759" lon="6.09104">
        <ele>2099.3</ele>
        <time>2024-07-08T13:31:38Z</time>
      </trkpt>
      <trkpt lat="45.12758" lon="6.09104">
        <ele>2099.2</ele>
        <time>2024-07-08T13:31:39Z</time>
      </trkpt>
      <trkpt lat="45.12757" lon="6.09103">
        <ele>2099.2</ele>
        <time>2024-07-08T13:31:40Z</time>
      </trkpt>
      <trkpt lat="45.12755" lon="6.09101">
        <ele>2099.2</ele>
        <time>2024-07-08T13:31:41Z</time>
      </trkpt>
      <trkpt lat="45.12754" lon="6.091">
        <ele>2099.1</ele>
        <time>2024-07-08T13:31:42Z</time>
      </trkpt>
      <trkpt lat="45.12753" lon="6.091">
        <ele>2099.1</ele>
        <time>2024-07-08T13:31:43Z</time>
      </trkpt>
      <trkpt lat="45.12752" lon="6.09099">
        <ele>2099</ele>
        <time>2024-07-08T13:31:44Z</time>
      </trkpt>
      <trkpt lat="45.12751" lon="6.09098">
        <ele>2099</ele>
        <time>2024-07-08T13:31:45Z</time>
      </trkpt>
      <trkpt lat="45.1275" lon="6.09097">
        <ele>2098.9</ele>
        <time>2024-07-08T13:31:46Z</time>
      </trkpt>
      <trkpt lat="45.12749" lon="6.09096">
        <ele>2098.8</ele>
        <time>2024-07-08T13:31:47Z</time>
      </trkpt>
      <trkpt lat="45.12747" lon="6.09094">
        <ele>2098.7</ele>
        <time>2024-07-08T13:31:48Z</time>
      </trkpt>
      <trkpt lat="45.12747" lon="6.09094">
        <ele>2098.6</ele>
        <time>2024-07-08T13:31:49Z</time>
      </trkpt>
      <trkpt lat="45.12746" lon="6.09094">
        <ele>2098.5</ele>
        <time>2024-07-08T13:31:50Z</time>
      </trkpt>
      <trkpt lat="45.12745" lon="6.09093">
        <ele>2098.4</ele>
        <time>2024-07-08T13:31:51Z</time>
      </trkpt>
      <trkpt lat="45.12744" lon="6.09093">
        <ele>2098.4</ele>
        <time>2024-07-08T13:31:52Z</time>
      </trkpt>
      <trkpt lat="45.12743" lon="6.09092">
        <ele>2098.3</ele>
        <time>2024-07-08T13:31:53Z</time>
      </trkpt>
      <trkpt lat="45.12741" lon="6.09092">
        <ele>2098.1</ele>
        <time>2024-07-08T13:31:54Z</time>
      </trkpt>
      <trkpt lat="45.1274" lon="6.09091">
        <ele>2098</ele>
        <time>2024-07-08T13:31:55Z</time>
      </trkpt>
      <trkpt lat="45.12739" lon="6.09091">
        <ele>2097.9</ele>
        <time>2024-07-08T13:31:56Z</time>
      </trkpt>
      <trkpt lat="45.12739" lon="6.09091">
        <ele>2097.9</ele>
        <time>2024-07-08T13:31:57Z</time>
      </trkpt>
      <trkpt lat="45.12737" lon="6.0909">
        <ele>2097.7</ele>
        <time>2024-07-08T13:31:58Z</time>
      </trkpt>
      <trkpt lat="45.12736" lon="6.0909">
        <ele>2097.6</ele>
        <time>2024-07-08T13:31:59Z</time>
      </trkpt>
      <trkpt lat="45.12734" lon="6.09089">
        <ele>2097.5</ele>
        <time>2024-07-08T13:32:00Z</time>
      </trkpt>
      <trkpt lat="45.12733" lon="6.09089">
        <ele>2097.4</ele>
        <time>2024-07-08T13:32:01Z</time>
      </trkpt>
      <trkpt lat="45.12733" lon="6.09089">
        <ele>2097.3</ele>
        <time>2024-07-08T13:32:02Z</time>
      </trkpt>
      <trkpt lat="45.12731" lon="6.09088">
        <ele>2097.2</ele>
        <time>2024-07-08T13:32:03Z</time>
      </trkpt>
      <trkpt lat="45.1273" lon="6.09088">
        <ele>2097.1</ele>
        <time>2024-07-08T13:32:04Z</time>
      </trkpt>
      <trkpt lat="45.12729" lon="6.09088">
        <ele>2097</ele>
        <time>2024-07-08T13:32:05Z</time>
      </trkpt>
      <trkpt lat="45.12727" lon="6.0909">
        <ele>2096.8</ele>
        <time>2024-07-08T13:32:06Z</time>
      </trkpt>
      <trkpt lat="45.12727" lon="6.0909">
        <ele>2096.8</ele>
        <time>2024-07-08T13:32:07Z</time>
      </trkpt>
      <trkpt lat="45.12726" lon="6.09091">
        <ele>2096.7</ele>
        <time>2024-07-08T13:32:08Z</time>
      </trkpt>
      <trkpt lat="45.12724" lon="6.09091">
        <ele>2096.6</ele>
        <time>2024-07-08T13:32:09Z</time>
      </trkpt>
      <trkpt lat="45.12723" lon="6.09091">
        <ele>2096.6</ele>
        <time>2024-07-08T13:32:10Z</time>
      </trkpt>
      <trkpt lat="45.12722" lon="6.0909">
        <ele>2096.5</ele>
        <time>2024-07-08T13:32:11Z</time>
      </trkpt>
      <trkpt lat="45.12721" lon="6.0909">
        <ele>2096.5</ele>
        <time>2024-07-08T13:32:12Z</time>
      </trkpt>
      <trkpt lat="45.1272" lon="6.09091">
        <ele>2096.4</ele>
        <time>2024-07-08T13:32:13Z</time>
      </trkpt>
      <trkpt lat="45.12719" lon="6.09091">
        <ele>2096.4</ele>
        <time>2024-07-08T13:32:14Z</time>
      </trkpt>
      <trkpt lat="45.12717" lon="6.09092">
        <ele>2096.4</ele>
        <time>2024-07-08T13:32:15Z</time>
      </trkpt>
      <trkpt lat="45.12716" lon="6.09092">
        <ele>2096.4</ele>
        <time>2024-07-08T13:32:16Z</time>
      </trkpt>
      <trkpt lat="45.12715" lon="6.09092">
        <ele>2096.4</ele>
        <time>2024-07-08T13:32:17Z</time>
      </trkpt>
      <trkpt lat="45.12714" lon="6.09093">
        <ele>2096.4</ele>
        <time>2024-07-08T13:32:18Z</time>
      </trkpt>
      <trkpt lat="45.12713" lon="6.09094">
        <ele>2096.4</ele>
        <time>2024-07-08T13:32:19Z</time>
      </trkpt>
      <trkpt lat="45.12712" lon="6.09095">
        <ele>2096.4</ele>
        <time>2024-07-08T13:32:20Z</time>
      </trkpt>
      <trkpt lat="45.12711" lon="6.09096">
        <ele>2096.4</ele>
        <time>2024-07-08T13:32:21Z</time>
      </trkpt>
      <trkpt lat="45.1271" lon="6.09096">
        <ele>2096.4</ele>
        <time>2024-07-08T13:32:22Z</time>
      </trkpt>
      <trkpt lat="45.12709" lon="6.09096">
        <ele>2096.5</ele>
        <time>2024-07-08T13:32:23Z</time>
      </trkpt>
      <trkpt lat="45.12706" lon="6.09095">
        <ele>2096.5</ele>
        <time>2024-07-08T13:32:24Z</time>
      </trkpt>
      <trkpt lat="45.12706" lon="6.09095">
        <ele>2096.6</ele>
        <time>2024-07-08T13:32:25Z</time>
      </trkpt>
      <trkpt lat="45.12705" lon="6.09094">
        <ele>2096.6</ele>
        <time>2024-07-08T13:32:26Z</time>
      </trkpt>
      <trkpt lat="45.12704" lon="6.09093">
        <ele>2096.7</ele>
        <time>2024-07-08T13:32:27Z</time>
      </trkpt>
      <trkpt lat="45.12702" lon="6.09092">
        <ele>2096.8</ele>
        <time>2024-07-08T13:32:28Z</time>
      </trkpt>
      <trkpt lat="45.12701" lon="6.09091">
        <ele>2096.9</ele>
        <time>2024-07-08T13:32:29Z</time>
      </trkpt>
      <trkpt lat="45.127" lon="6.0909">
        <ele>2097</ele>
        <time>2024-07-08T13:32:30Z</time>
      </trkpt>
      <trkpt lat="45.12698" lon="6.09089">
        <ele>2097.1</ele>
        <time>2024-07-08T13:32:31Z</time>
      </trkpt>
      <trkpt lat="45.12697" lon="6.09088">
        <ele>2097.2</ele>
        <time>2024-07-08T13:32:32Z</time>
      </trkpt>
      <trkpt lat="45.12696" lon="6.09088">
        <ele>2097.2</ele>
        <time>2024-07-08T13:32:33Z</time>
      </trkpt>
      <trkpt lat="45.12695" lon="6.09088">
        <ele>2097.3</ele>
        <time>2024-07-08T13:32:34Z</time>
      </trkpt>
      <trkpt lat="45.12694" lon="6.09088">
        <ele>2097.4</ele>
        <time>2024-07-08T13:32:35Z</time>
      </trkpt>
      <trkpt lat="45.12693" lon="6.09088">
        <ele>2097.4</ele>
        <time>2024-07-08T13:32:36Z</time>
      </trkpt>
      <trkpt lat="45.12691" lon="6.09088">
        <ele>2097.6</ele>
        <time>2024-07-08T13:32:37Z</time>
      </trkpt>
      <trkpt lat="45.1269" lon="6.09089">
        <ele>2097.6</ele>
        <time>2024-07-08T13:32:38Z</time>
      </trkpt>
      <trkpt lat="45.12689" lon="6.09089">
        <ele>2097.6</ele>
        <time>2024-07-08T13:32:39Z</time>
      </trkpt>
      <trkpt lat="45.12687" lon="6.0909">
        <ele>2097.7</ele>
        <time>2024-07-08T13:32:40Z</time>
      </trkpt>
      <trkpt lat="45.12686" lon="6.09091">
        <ele>2097.8</ele>
        <time>2024-07-08T13:32:41Z</time>
      </trkpt>
      <trkpt lat="45.12686" lon="6.09091">
        <ele>2097.8</ele>
        <time>2024-07-08T13:32:42Z</time>
      </trkpt>
      <trkpt lat="45.12685" lon="6.09091">
        <ele>2097.8</ele>
        <time>2024-07-08T13:32:43Z</time>
      </trkpt>
      <trkpt lat="45.12683" lon="6.0909">
        <ele>2097.8</ele>
        <time>2024-07-08T13:32:44Z</time>
      </trkpt>
      <trkpt lat="45.12682" lon="6.0909">
        <ele>2097.9</ele>
        <time>2024-07-08T13:32:45Z</time>
      </trkpt>
      <trkpt lat="45.12681" lon="6.09089">
        <ele>2097.9</ele>
        <time>2024-07-08T13:32:46Z</time>
      </trkpt>
      <trkpt lat="45.1268" lon="6.09089">
        <ele>2097.9</ele>
        <time>2024-07-08T13:32:47Z</time>
      </trkpt>
      <trkpt lat="45.12679" lon="6.09089">
        <ele>2097.9</ele>
        <time>2024-07-08T13:32:48Z</time>
      </trkpt>
      <trkpt lat="45.12677" lon="6.09088">
        <ele>2097.9</ele>
        <time>2024-07-08T13:32:49Z</time>
      </trkpt>
      <trkpt lat="45.12676" lon="6.09088">
        <ele>2097.9</ele>
        <time>2024-07-08T13:32:50Z</time>
      </trkpt>
      <trkpt lat="45.12675" lon="6.09088">
        <ele>2097.9</ele>
        <time>2024-07-08T13:32:51Z</time>
      </trkpt>
      <trkpt lat="45.12673" lon="6.09087">
        <ele>2097.8</ele>
        <time>2024-07-08T13:32:52Z</time>
      </trkpt>
      <trkpt lat="45.12672" lon="6.09087">
        <ele>2097.8</ele>
        <time>2024-07-08T13:32:53Z</time>
      </trkpt>
      <trkpt lat="45.12672" lon="6.09087">
        <ele>2097.8</ele>
        <time>2024-07-08T13:32:54Z</time>
      </trkpt>
      <trkpt lat="45.1267" lon="6.09085">
        <ele>2097.7</ele>
        <time>2024-07-08T13:32:55Z</time>
      </trkpt>
      <trkpt lat="45.12669" lon="6.09084">
        <ele>2097.7</ele>
        <time>2024-07-08T13:32:56Z</time>
      </trkpt>
      <trkpt lat="45.12669" lon="6.09083">
        <ele>2097.6</ele>
        <time>2024-07-08T13:32:57Z</time>
      </trkpt>
      <trkpt lat="45.12667" lon="6.09081">
        <ele>2097.5</ele>
        <time>2024-07-08T13:32:58Z</time>
      </trkpt>
      <trkpt lat="45.12667" lon="6.0908">
        <ele>2097.5</ele>
        <time>2024-07-08T13:32:59Z</time>
      </trkpt>
      <trkpt lat="45.12666" lon="6.09079">
        <ele>2097.4</ele>
        <time>2024-07-08T13:33:00Z</time>
      </trkpt>
      <trkpt lat="45.12665" lon="6.09077">
        <ele>2097.4</ele>
        <time>2024-07-08T13:33:01Z</time>
      </trkpt>
      <trkpt lat="45.12664" lon="6.09077">
        <ele>2097.3</ele>
        <time>2024-07-08T13:33:02Z</time>
      </trkpt>
      <trkpt lat="45.12663" lon="6.09076">
        <ele>2097.3</ele>
        <time>2024-07-08T13:33:03Z</time>
      </trkpt>
      <trkpt lat="45.12662" lon="6.09077">
        <ele>2097.2</ele>
        <time>2024-07-08T13:33:04Z</time>
      </trkpt>
      <trkpt lat="45.12661" lon="6.09076">
        <ele>2097.1</ele>
        <time>2024-07-08T13:33:05Z</time>
      </trkpt>
      <trkpt lat="45.1266" lon="6.09076">
        <ele>2097.1</ele>
        <time>2024-07-08T13:33:06Z</time>
      </trkpt>
      <trkpt lat="45.1266" lon="6.09076">
        <ele>2097.1</ele>
        <time>2024-07-08T13:33:07Z</time>
      </trkpt>
      <trkpt lat="45.1266" lon="6.09076">
        <ele>2097</ele>
        <time>2024-07-08T13:33:08Z</time>
      </trkpt>
      <trkpt lat="45.1266" lon="6.09077">
        <ele>2097</ele>
        <time>2024-07-08T13:33:09Z</time>
      </trkpt>
      <trkpt lat="45.12661" lon="6.09077">
        <ele>2097</ele>
        <time>2024-07-08T13:33:10Z</time>
      </trkpt>
      <trkpt lat="45.12661" lon="6.09077">
        <ele>2097</ele>
        <time>2024-07-08T13:33:11Z</time>
      </trkpt>
      <trkpt lat="45.12661" lon="6.09077">
        <ele>2097</ele>
        <time>2024-07-08T13:33:12Z</time>
      </trkpt>
      <trkpt lat="45.1266" lon="6.09078">
        <ele>2097</ele>
        <time>2024-07-08T13:33:13Z</time>
      </trkpt>
      <trkpt lat="45.1266" lon="6.09078">
        <ele>2096.9</ele>
        <time>2024-07-08T13:33:14Z</time>
      </trkpt>
      <trkpt lat="45.12659" lon="6.09079">
        <ele>2096.9</ele>
        <time>2024-07-08T13:33:15Z</time>
      </trkpt>
      <trkpt lat="45.12658" lon="6.0908">
        <ele>2096.8</ele>
        <time>2024-07-08T13:33:17Z</time>
      </trkpt>
      <trkpt lat="45.12658" lon="6.09078">
        <ele>2096.7</ele>
        <time>2024-07-08T13:33:18Z</time>
      </trkpt>
      <trkpt lat="45.12657" lon="6.09077">
        <ele>2096.7</ele>
        <time>2024-07-08T13:33:19Z</time>
      </trkpt>
      <trkpt lat="45.12656" lon="6.09076">
        <ele>2096.6</ele>
        <time>2024-07-08T13:33:20Z</time>
      </trkpt>
      <trkpt lat="45.12655" lon="6.09077">
        <ele>2096.6</ele>
        <time>2024-07-08T13:33:21Z</time>
      </trkpt>
      <trkpt lat="45.12655" lon="6.09078">
        <ele>2096.6</ele>
        <time>2024-07-08T13:33:22Z</time>
      </trkpt>
      <trkpt lat="45.12654" lon="6.0908">
        <ele>2096.5</ele>
        <time>2024-07-08T13:33:23Z</time>
      </trkpt>
      <trkpt lat="45.12654" lon="6.0908">
        <ele>2096.5</ele>
        <time>2024-07-08T13:33:24Z</time>
      </trkpt>
      <trkpt lat="45.12652" lon="6.0908">
        <ele>2096.5</ele>
        <time>2024-07-08T13:33:25Z</time>
      </trkpt>
      <trkpt lat="45.12651" lon="6.09079">
        <ele>2096.5</ele>
        <time>2024-07-08T13:33:26Z</time>
      </trkpt>
      <trkpt lat="45.12651" lon="6.09078">
        <ele>2096.5</ele>
        <time>2024-07-08T13:33:27Z</time>
      </trkpt>
      <trkpt lat="45.1265" lon="6.09077">
        <ele>2096.5</ele>
        <time>2024-07-08T13:33:28Z</time>
      </trkpt>
      <trkpt lat="45.12649" lon="6.09077">
        <ele>2096.5</ele>
        <time>2024-07-08T13:33:29Z</time>
      </trkpt>
      <trkpt lat="45.12648" lon="6.09076">
        <ele>2096.5</ele>
        <time>2024-07-08T13:33:30Z</time>
      </trkpt>
      <trkpt lat="45.12646" lon="6.09075">
        <ele>2096.5</ele>
        <time>2024-07-08T13:33:31Z</time>
      </trkpt>
      <trkpt lat="45.12646" lon="6.09074">
        <ele>2096.5</ele>
        <time>2024-07-08T13:33:32Z</time>
      </trkpt>
      <trkpt lat="45.12645" lon="6.09073">
        <ele>2096.6</ele>
        <time>2024-07-08T13:33:33Z</time>
      </trkpt>
      <trkpt lat="45.12644" lon="6.09073">
        <ele>2096.6</ele>
        <time>2024-07-08T13:33:34Z</time>
      </trkpt>
      <trkpt lat="45.12643" lon="6.09073">
        <ele>2096.6</ele>
        <time>2024-07-08T13:33:35Z</time>
      </trkpt>
      <trkpt lat="45.12642" lon="6.09074">
        <ele>2096.7</ele>
        <time>2024-07-08T13:33:36Z</time>
      </trkpt>
      <trkpt lat="45.12641" lon="6.09078">
        <ele>2096.8</ele>
        <time>2024-07-08T13:33:37Z</time>
      </trkpt>
      <trkpt lat="45.1264" lon="6.09079">
        <ele>2096.8</ele>
        <time>2024-07-08T13:33:38Z</time>
      </trkpt>
      <trkpt lat="45.1264" lon="6.09083">
        <ele>2096.9</ele>
        <time>2024-07-08T13:33:39Z</time>
      </trkpt>
      <trkpt lat="45.1264" lon="6.09084">
        <ele>2097</ele>
        <time>2024-07-08T13:33:40Z</time>
      </trkpt>
      <trkpt lat="45.12639" lon="6.09087">
        <ele>2097.1</ele>
        <time>2024-07-08T13:33:41Z</time>
      </trkpt>
      <trkpt lat="45.12638" lon="6.09088">
        <ele>2097.1</ele>
        <time>2024-07-08T13:33:42Z</time>
      </trkpt>
      <trkpt lat="45.12638" lon="6.09089">
        <ele>2097.2</ele>
        <time>2024-07-08T13:33:43Z</time>
      </trkpt>
      <trkpt lat="45.12637" lon="6.0909">
        <ele>2097.2</ele>
        <time>2024-07-08T13:33:44Z</time>
      </trkpt>
      <trkpt lat="45.12637" lon="6.09092">
        <ele>2097.3</ele>
        <time>2024-07-08T13:33:45Z</time>
      </trkpt>
      <trkpt lat="45.12636" lon="6.09093">
        <ele>2097.4</ele>
        <time>2024-07-08T13:33:46Z</time>
      </trkpt>
      <trkpt lat="45.12635" lon="6.09095">
        <ele>2097.4</ele>
        <time>2024-07-08T13:33:47Z</time>
      </trkpt>
      <trkpt lat="45.12635" lon="6.09096">
        <ele>2097.5</ele>
        <time>2024-07-08T13:33:48Z</time>
      </trkpt>
      <trkpt lat="45.12634" lon="6.09097">
        <ele>2097.6</ele>
        <time>2024-07-08T13:33:49Z</time>
      </trkpt>
      <trkpt lat="45.12634" lon="6.09098">
        <ele>2097.6</ele>
        <time>2024-07-08T13:33:50Z</time>
      </trkpt>
      <trkpt lat="45.12633" lon="6.091">
        <ele>2097.7</ele>
        <time>2024-07-08T13:33:51Z</time>
      </trkpt>
      <trkpt lat="45.12632" lon="6.091">
        <ele>2097.7</ele>
        <time>2024-07-08T13:33:52Z</time>
      </trkpt>
      <trkpt lat="45.12631" lon="6.09101">
        <ele>2097.8</ele>
        <time>2024-07-08T13:33:53Z</time>
      </trkpt>
      <trkpt lat="45.1263" lon="6.09101">
        <ele>2097.8</ele>
        <time>2024-07-08T13:33:54Z</time>
      </trkpt>
      <trkpt lat="45.12629" lon="6.09101">
        <ele>2097.9</ele>
        <time>2024-07-08T13:33:55Z</time>
      </trkpt>
      <trkpt lat="45.12628" lon="6.09101">
        <ele>2098</ele>
        <time>2024-07-08T13:33:56Z</time>
      </trkpt>
      <trkpt lat="45.12626" lon="6.091">
        <ele>2098.1</ele>
        <time>2024-07-08T13:33:57Z</time>
      </trkpt>
      <trkpt lat="45.12625" lon="6.091">
        <ele>2098.2</ele>
        <time>2024-07-08T13:33:58Z</time>
      </trkpt>
      <trkpt lat="45.12624" lon="6.09101">
        <ele>2098.3</ele>
        <time>2024-07-08T13:33:59Z</time>
      </trkpt>
      <trkpt lat="45.12623" lon="6.09102">
        <ele>2098.3</ele>
        <time>2024-07-08T13:34:00Z</time>
      </trkpt>
      <trkpt lat="45.12622" lon="6.09103">
        <ele>2098.4</ele>
        <time>2024-07-08T13:34:01Z</time>
      </trkpt>
      <trkpt lat="45.12621" lon="6.09103">
        <ele>2098.5</ele>
        <time>2024-07-08T13:34:02Z</time>
      </trkpt>
      <trkpt lat="45.1262" lon="6.09104">
        <ele>2098.6</ele>
        <time>2024-07-08T13:34:03Z</time>
      </trkpt>
      <trkpt lat="45.12619" lon="6.09104">
        <ele>2098.7</ele>
        <time>2024-07-08T13:34:04Z</time>
      </trkpt>
      <trkpt lat="45.12618" lon="6.09105">
        <ele>2098.8</ele>
        <time>2024-07-08T13:34:05Z</time>
      </trkpt>
      <trkpt lat="45.12617" lon="6.09105">
        <ele>2098.9</ele>
        <time>2024-07-08T13:34:06Z</time>
      </trkpt>
      <trkpt lat="45.12615" lon="6.09106">
        <ele>2099</ele>
        <time>2024-07-08T13:34:07Z</time>
      </trkpt>
      <trkpt lat="45.12614" lon="6.09107">
        <ele>2099.1</ele>
        <time>2024-07-08T13:34:08Z</time>
      </trkpt>
      <trkpt lat="45.12613" lon="6.09107">
        <ele>2099.2</ele>
        <time>2024-07-08T13:34:09Z</time>
      </trkpt>
      <trkpt lat="45.12613" lon="6.09108">
        <ele>2099.3</ele>
        <time>2024-07-08T13:34:10Z</time>
      </trkpt>
      <trkpt lat="45.12611" lon="6.09109">
        <ele>2099.4</ele>
        <time>2024-07-08T13:34:11Z</time>
      </trkpt>
      <trkpt lat="45.12611" lon="6.09109">
        <ele>2099.4</ele>
        <time>2024-07-08T13:34:12Z</time>
      </trkpt>
      <trkpt lat="45.12609" lon="6.0911">
        <ele>2099.5</ele>
        <time>2024-07-08T13:34:13Z</time>
      </trkpt>
      <trkpt lat="45.12608" lon="6.09111">
        <ele>2099.6</ele>
        <time>2024-07-08T13:34:14Z</time>
      </trkpt>
      <trkpt lat="45.12608" lon="6.09111">
        <ele>2099.7</ele>
        <time>2024-07-08T13:34:15Z</time>
      </trkpt>
      <trkpt lat="45.12607" lon="6.09111">
        <ele>2099.7</ele>
        <time>2024-07-08T13:34:16Z</time>
      </trkpt>
      <trkpt lat="45.12605" lon="6.09111">
        <ele>2099.8</ele>
        <time>2024-07-08T13:34:17Z</time>
      </trkpt>
      <trkpt lat="45.12604" lon="6.0911">
        <ele>2099.9</ele>
        <time>2024-07-08T13:34:18Z</time>
      </trkpt>
      <trkpt lat="45.12603" lon="6.0911">
        <ele>2100</ele>
        <time>2024-07-08T13:34:19Z</time>
      </trkpt>
      <trkpt lat="45.12602" lon="6.09109">
        <ele>2100.1</ele>
        <time>2024-07-08T13:34:20Z</time>
      </trkpt>
      <trkpt lat="45.12601" lon="6.09109">
        <ele>2100.1</ele>
        <time>2024-07-08T13:34:21Z</time>
      </trkpt>
      <trkpt lat="45.12599" lon="6.09109">
        <ele>2100.2</ele>
        <time>2024-07-08T13:34:22Z</time>
      </trkpt>
      <trkpt lat="45.12598" lon="6.09109">
        <ele>2100.2</ele>
        <time>2024-07-08T13:34:23Z</time>
      </trkpt>
      <trkpt lat="45.12597" lon="6.09108">
        <ele>2100.3</ele>
        <time>2024-07-08T13:34:24Z</time>
      </trkpt>
      <trkpt lat="45.12596" lon="6.09108">
        <ele>2100.3</ele>
        <time>2024-07-08T13:34:25Z</time>
      </trkpt>
      <trkpt lat="45.12595" lon="6.09108">
        <ele>2100.4</ele>
        <time>2024-07-08T13:34:26Z</time>
      </trkpt>
      <trkpt lat="45.12594" lon="6.09107">
        <ele>2100.4</ele>
        <time>2024-07-08T13:34:27Z</time>
      </trkpt>
      <trkpt lat="45.12593" lon="6.09107">
        <ele>2100.4</ele>
        <time>2024-07-08T13:34:28Z</time>
      </trkpt>
      <trkpt lat="45.12591" lon="6.09107">
        <ele>2100.4</ele>
        <time>2024-07-08T13:34:29Z</time>
      </trkpt>
      <trkpt lat="45.1259" lon="6.09107">
        <ele>2100.4</ele>
        <time>2024-07-08T13:34:30Z</time>
      </trkpt>
      <trkpt lat="45.12588" lon="6.09107">
        <ele>2100.5</ele>
        <time>2024-07-08T13:34:31Z</time>
      </trkpt>
      <trkpt lat="45.12588" lon="6.09108">
        <ele>2100.5</ele>
        <time>2024-07-08T13:34:32Z</time>
      </trkpt>
      <trkpt lat="45.12587" lon="6.09108">
        <ele>2100.5</ele>
        <time>2024-07-08T13:34:33Z</time>
      </trkpt>
      <trkpt lat="45.12585" lon="6.09108">
        <ele>2100.5</ele>
        <time>2024-07-08T13:34:34Z</time>
      </trkpt>
      <trkpt lat="45.12584" lon="6.09108">
        <ele>2100.4</ele>
        <time>2024-07-08T13:34:35Z</time>
      </trkpt>
      <trkpt lat="45.12583" lon="6.09109">
        <ele>2100.4</ele>
        <time>2024-07-08T13:34:36Z</time>
      </trkpt>
      <trkpt lat="45.12581" lon="6.09109">
        <ele>2100.4</ele>
        <time>2024-07-08T13:34:37Z</time>
      </trkpt>
      <trkpt lat="45.1258" lon="6.09109">
        <ele>2100.4</ele>
        <time>2024-07-08T13:34:38Z</time>
      </trkpt>
      <trkpt lat="45.1258" lon="6.09109">
        <ele>2100.4</ele>
        <time>2024-07-08T13:34:39Z</time>
      </trkpt>
      <trkpt lat="45.12577" lon="6.09108">
        <ele>2100.4</ele>
        <time>2024-07-08T13:34:40Z</time>
      </trkpt>
      <trkpt lat="45.12576" lon="6.09108">
        <ele>2100.4</ele>
        <time>2024-07-08T13:34:41Z</time>
      </trkpt>
      <trkpt lat="45.12576" lon="6.09108">
        <ele>2100.3</ele>
        <time>2024-07-08T13:34:42Z</time>
      </trkpt>
      <trkpt lat="45.12574" lon="6.09107">
        <ele>2100.3</ele>
        <time>2024-07-08T13:34:43Z</time>
      </trkpt>
      <trkpt lat="45.12573" lon="6.09107">
        <ele>2100.3</ele>
        <time>2024-07-08T13:34:44Z</time>
      </trkpt>
      <trkpt lat="45.12572" lon="6.09107">
        <ele>2100.3</ele>
        <time>2024-07-08T13:34:45Z</time>
      </trkpt>
      <trkpt lat="45.1257" lon="6.09107">
        <ele>2100.2</ele>
        <time>2024-07-08T13:34:46Z</time>
      </trkpt>
      <trkpt lat="45.12569" lon="6.09107">
        <ele>2100.2</ele>
        <time>2024-07-08T13:34:47Z</time>
      </trkpt>
      <trkpt lat="45.12568" lon="6.09107">
        <ele>2100.2</ele>
        <time>2024-07-08T13:34:48Z</time>
      </trkpt>
      <trkpt lat="45.12566" lon="6.09105">
        <ele>2100.2</ele>
        <time>2024-07-08T13:34:49Z</time>
      </trkpt>
      <trkpt lat="45.12566" lon="6.09105">
        <ele>2100.1</ele>
        <time>2024-07-08T13:34:50Z</time>
      </trkpt>
      <trkpt lat="45.12565" lon="6.09104">
        <ele>2100.1</ele>
        <time>2024-07-08T13:34:51Z</time>
      </trkpt>
      <trkpt lat="45.12564" lon="6.09103">
        <ele>2100.1</ele>
        <time>2024-07-08T13:34:52Z</time>
      </trkpt>
      <trkpt lat="45.12563" lon="6.091">
        <ele>2100</ele>
        <time>2024-07-08T13:34:53Z</time>
      </trkpt>
      <trkpt lat="45.12562" lon="6.09097">
        <ele>2100</ele>
        <time>2024-07-08T13:34:54Z</time>
      </trkpt>
      <trkpt lat="45.12562" lon="6.09096">
        <ele>2099.9</ele>
        <time>2024-07-08T13:34:55Z</time>
      </trkpt>
      <trkpt lat="45.12562" lon="6.09095">
        <ele>2099.9</ele>
        <time>2024-07-08T13:34:56Z</time>
      </trkpt>
      <trkpt lat="45.12562" lon="6.09093">
        <ele>2099.8</ele>
        <time>2024-07-08T13:34:57Z</time>
      </trkpt>
      <trkpt lat="45.12561" lon="6.09091">
        <ele>2099.8</ele>
        <time>2024-07-08T13:34:58Z</time>
      </trkpt>
      <trkpt lat="45.12559" lon="6.09089">
        <ele>2099.7</ele>
        <time>2024-07-08T13:34:59Z</time>
      </trkpt>
      <trkpt lat="45.12558" lon="6.09089">
        <ele>2099.6</ele>
        <time>2024-07-08T13:35:00Z</time>
      </trkpt>
      <trkpt lat="45.12557" lon="6.09088">
        <ele>2099.6</ele>
        <time>2024-07-08T13:35:01Z</time>
      </trkpt>
      <trkpt lat="45.12556" lon="6.09088">
        <ele>2099.5</ele>
        <time>2024-07-08T13:35:02Z</time>
      </trkpt>
      <trkpt lat="45.12555" lon="6.09087">
        <ele>2099.4</ele>
        <time>2024-07-08T13:35:03Z</time>
      </trkpt>
      <trkpt lat="45.12552" lon="6.09087">
        <ele>2099.2</ele>
        <time>2024-07-08T13:35:04Z</time>
      </trkpt>
      <trkpt lat="45.12552" lon="6.09087">
        <ele>2099.2</ele>
        <time>2024-07-08T13:35:05Z</time>
      </trkpt>
      <trkpt lat="45.12551" lon="6.09087">
        <ele>2099.1</ele>
        <time>2024-07-08T13:35:06Z</time>
      </trkpt>
      <trkpt lat="45.1255" lon="6.09086">
        <ele>2099</ele>
        <time>2024-07-08T13:35:07Z</time>
      </trkpt>
      <trkpt lat="45.12548" lon="6.09086">
        <ele>2098.9</ele>
        <time>2024-07-08T13:35:08Z</time>
      </trkpt>
      <trkpt lat="45.12548" lon="6.09085">
        <ele>2098.9</ele>
        <time>2024-07-08T13:35:09Z</time>
      </trkpt>
      <trkpt lat="45.12546" lon="6.09084">
        <ele>2098.7</ele>
        <time>2024-07-08T13:35:10Z</time>
      </trkpt>
      <trkpt lat="45.12545" lon="6.09084">
        <ele>2098.7</ele>
        <time>2024-07-08T13:35:11Z</time>
      </trkpt>
      <trkpt lat="45.12544" lon="6.09084">
        <ele>2098.6</ele>
        <time>2024-07-08T13:35:12Z</time>
      </trkpt>
      <trkpt lat="45.12542" lon="6.09085">
        <ele>2098.4</ele>
        <time>2024-07-08T13:35:13Z</time>
      </trkpt>
      <trkpt lat="45.12541" lon="6.09086">
        <ele>2098.3</ele>
        <time>2024-07-08T13:35:14Z</time>
      </trkpt>
      <trkpt lat="45.12541" lon="6.09086">
        <ele>2098.3</ele>
        <time>2024-07-08T13:35:15Z</time>
      </trkpt>
      <trkpt lat="45.1254" lon="6.09086">
        <ele>2098.2</ele>
        <time>2024-07-08T13:35:16Z</time>
      </trkpt>
      <trkpt lat="45.12539" lon="6.09087">
        <ele>2098.1</ele>
        <time>2024-07-08T13:35:17Z</time>
      </trkpt>
      <trkpt lat="45.12537" lon="6.09087">
        <ele>2098</ele>
        <time>2024-07-08T13:35:18Z</time>
      </trkpt>
      <trkpt lat="45.12537" lon="6.09087">
        <ele>2097.9</ele>
        <time>2024-07-08T13:35:19Z</time>
      </trkpt>
      <trkpt lat="45.12535" lon="6.09087">
        <ele>2097.8</ele>
        <time>2024-07-08T13:35:20Z</time>
      </trkpt>
      <trkpt lat="45.12534" lon="6.09088">
        <ele>2097.7</ele>
        <time>2024-07-08T13:35:21Z</time>
      </trkpt>
      <trkpt lat="45.12533" lon="6.09089">
        <ele>2097.7</ele>
        <time>2024-07-08T13:35:22Z</time>
      </trkpt>
      <trkpt lat="45.12531" lon="6.09089">
        <ele>2097.5</ele>
        <time>2024-07-08T13:35:23Z</time>
      </trkpt>
      <trkpt lat="45.12531" lon="6.0909">
        <ele>2097.5</ele>
        <time>2024-07-08T13:35:24Z</time>
      </trkpt>
      <trkpt lat="45.1253" lon="6.0909">
        <ele>2097.4</ele>
        <time>2024-07-08T13:35:25Z</time>
      </trkpt>
      <trkpt lat="45.12529" lon="6.09091">
        <ele>2097.3</ele>
        <time>2024-07-08T13:35:26Z</time>
      </trkpt>
      <trkpt lat="45.12528" lon="6.09091">
        <ele>2097.2</ele>
        <time>2024-07-08T13:35:27Z</time>
      </trkpt>
      <trkpt lat="45.12526" lon="6.09091">
        <ele>2097.1</ele>
        <time>2024-07-08T13:35:28Z</time>
      </trkpt>
      <trkpt lat="45.12525" lon="6.09092">
        <ele>2097.1</ele>
        <time>2024-07-08T13:35:29Z</time>
      </trkpt>
      <trkpt lat="45.12524" lon="6.09092">
        <ele>2097</ele>
        <time>2024-07-08T13:35:30Z</time>
      </trkpt>
      <trkpt lat="45.12523" lon="6.09093">
        <ele>2097</ele>
        <time>2024-07-08T13:35:31Z</time>
      </trkpt>
      <trkpt lat="45.12522" lon="6.09093">
        <ele>2096.9</ele>
        <time>2024-07-08T13:35:32Z</time>
      </trkpt>
      <trkpt lat="45.1252" lon="6.09094">
        <ele>2096.8</ele>
        <time>2024-07-08T13:35:33Z</time>
      </trkpt>
      <trkpt lat="45.1252" lon="6.09093">
        <ele>2096.8</ele>
        <time>2024-07-08T13:35:34Z</time>
      </trkpt>
      <trkpt lat="45.12519" lon="6.09094">
        <ele>2096.7</ele>
        <time>2024-07-08T13:35:35Z</time>
      </trkpt>
      <trkpt lat="45.12517" lon="6.09095">
        <ele>2096.6</ele>
        <time>2024-07-08T13:35:36Z</time>
      </trkpt>
      <trkpt lat="45.12516" lon="6.09095">
        <ele>2096.6</ele>
        <time>2024-07-08T13:35:37Z</time>
      </trkpt>
      <trkpt lat="45.12515" lon="6.09096">
        <ele>2096.6</ele>
        <time>2024-07-08T13:35:38Z</time>
      </trkpt>
      <trkpt lat="45.12515" lon="6.09096">
        <ele>2096.5</ele>
        <time>2024-07-08T13:35:39Z</time>
      </trkpt>
      <trkpt lat="45.12514" lon="6.09096">
        <ele>2096.5</ele>
        <time>2024-07-08T13:35:40Z</time>
      </trkpt>
      <trkpt lat="45.12512" lon="6.09096">
        <ele>2096.5</ele>
        <time>2024-07-08T13:35:41Z</time>
      </trkpt>
      <trkpt lat="45.12512" lon="6.09097">
        <ele>2096.4</ele>
        <time>2024-07-08T13:35:42Z</time>
      </trkpt>
      <trkpt lat="45.12511" lon="6.09099">
        <ele>2096.4</ele>
        <time>2024-07-08T13:35:43Z</time>
      </trkpt>
      <trkpt lat="45.1251" lon="6.091">
        <ele>2096.4</ele>
        <time>2024-07-08T13:35:44Z</time>
      </trkpt>
      <trkpt lat="45.12509" lon="6.091">
        <ele>2096.4</ele>
        <time>2024-07-08T13:35:45Z</time>
      </trkpt>
      <trkpt lat="45.12507" lon="6.09101">
        <ele>2096.3</ele>
        <time>2024-07-08T13:35:46Z</time>
      </trkpt>
      <trkpt lat="45.12507" lon="6.09102">
        <ele>2096.3</ele>
        <time>2024-07-08T13:35:47Z</time>
      </trkpt>
      <trkpt lat="45.12506" lon="6.09102">
        <ele>2096.3</ele>
        <time>2024-07-08T13:35:48Z</time>
      </trkpt>
      <trkpt lat="45.12506" lon="6.09103">
        <ele>2096.3</ele>
        <time>2024-07-08T13:35:49Z</time>
      </trkpt>
      <trkpt lat="45.12505" lon="6.09104">
        <ele>2096.3</ele>
        <time>2024-07-08T13:35:50Z</time>
      </trkpt>
      <trkpt lat="45.12504" lon="6.09105">
        <ele>2096.3</ele>
        <time>2024-07-08T13:35:51Z</time>
      </trkpt>
      <trkpt lat="45.12502" lon="6.09105">
        <ele>2096.2</ele>
        <time>2024-07-08T13:35:52Z</time>
      </trkpt>
      <trkpt lat="45.12501" lon="6.09105">
        <ele>2096.2</ele>
        <time>2024-07-08T13:35:53Z</time>
      </trkpt>
      <trkpt lat="45.125" lon="6.09105">
        <ele>2096.2</ele>
        <time>2024-07-08T13:35:54Z</time>
      </trkpt>
      <trkpt lat="45.12499" lon="6.09105">
        <ele>2096.2</ele>
        <time>2024-07-08T13:35:55Z</time>
      </trkpt>
      <trkpt lat="45.12498" lon="6.09105">
        <ele>2096.2</ele>
        <time>2024-07-08T13:35:56Z</time>
      </trkpt>
      <trkpt lat="45.12497" lon="6.09105">
        <ele>2096.2</ele>
        <time>2024-07-08T13:35:57Z</time>
      </trkpt>
      <trkpt lat="45.12495" lon="6.09105">
        <ele>2096.2</ele>
        <time>2024-07-08T13:35:58Z</time>
      </trkpt>
      <trkpt lat="45.12494" lon="6.09105">
        <ele>2096.2</ele>
        <time>2024-07-08T13:35:59Z</time>
      </trkpt>
      <trkpt lat="45.12493" lon="6.09104">
        <ele>2096.2</ele>
        <time>2024-07-08T13:36:00Z</time>
      </trkpt>
      <trkpt lat="45.12493" lon="6.09104">
        <ele>2096.2</ele>
        <time>2024-07-08T13:36:01Z</time>
      </trkpt>
      <trkpt lat="45.12492" lon="6.09103">
        <ele>2096.2</ele>
        <time>2024-07-08T13:36:02Z</time>
      </trkpt>
      <trkpt lat="45.12491" lon="6.09103">
        <ele>2096.3</ele>
        <time>2024-07-08T13:36:03Z</time>
      </trkpt>
      <trkpt lat="45.12489" lon="6.09103">
        <ele>2096.3</ele>
        <time>2024-07-08T13:36:04Z</time>
      </trkpt>
      <trkpt lat="45.12488" lon="6.09103">
        <ele>2096.3</ele>
        <time>2024-07-08T13:36:05Z</time>
      </trkpt>
      <trkpt lat="45.12487" lon="6.09103">
        <ele>2096.3</ele>
        <time>2024-07-08T13:36:06Z</time>
      </trkpt>
      <trkpt lat="45.12487" lon="6.09103">
        <ele>2096.3</ele>
        <time>2024-07-08T13:36:07Z</time>
      </trkpt>
      <trkpt lat="45.12485" lon="6.09103">
        <ele>2096.3</ele>
        <time>2024-07-08T13:36:08Z</time>
      </trkpt>
      <trkpt lat="45.12485" lon="6.09103">
        <ele>2096.3</ele>
        <time>2024-07-08T13:36:09Z</time>
      </trkpt>
      <trkpt lat="45.12484" lon="6.09103">
        <ele>2096.3</ele>
        <time>2024-07-08T13:36:10Z</time>
      </trkpt>
      <trkpt lat="45.12483" lon="6.09103">
        <ele>2096.3</ele>
        <time>2024-07-08T13:36:11Z</time>
      </trkpt>
      <trkpt lat="45.12482" lon="6.09104">
        <ele>2096.3</ele>
        <time>2024-07-08T13:36:12Z</time>
      </trkpt>
      <trkpt lat="45.12481" lon="6.09104">
        <ele>2096.3</ele>
        <time>2024-07-08T13:36:13Z</time>
      </trkpt>
      <trkpt lat="45.1248" lon="6.09104">
        <ele>2096.3</ele>
        <time>2024-07-08T13:36:14Z</time>
      </trkpt>
      <trkpt lat="45.12479" lon="6.09104">
        <ele>2096.3</ele>
        <time>2024-07-08T13:36:15Z</time>
      </trkpt>
      <trkpt lat="45.12478" lon="6.09104">
        <ele>2096.3</ele>
        <time>2024-07-08T13:36:16Z</time>
      </trkpt>
      <trkpt lat="45.12477" lon="6.09104">
        <ele>2096.3</ele>
        <time>2024-07-08T13:36:17Z</time>
      </trkpt>
      <trkpt lat="45.12476" lon="6.091">
        <ele>2096.3</ele>
        <time>2024-07-08T13:36:18Z</time>
      </trkpt>
      <trkpt lat="45.12477" lon="6.09099">
        <ele>2096.3</ele>
        <time>2024-07-08T13:36:19Z</time>
      </trkpt>
      <trkpt lat="45.12477" lon="6.09098">
        <ele>2096.3</ele>
        <time>2024-07-08T13:36:20Z</time>
      </trkpt>
      <trkpt lat="45.12477" lon="6.09095">
        <ele>2096.3</ele>
        <time>2024-07-08T13:36:21Z</time>
      </trkpt>
      <trkpt lat="45.12477" lon="6.09094">
        <ele>2096.3</ele>
        <time>2024-07-08T13:36:22Z</time>
      </trkpt>
      <trkpt lat="45.12478" lon="6.09093">
        <ele>2096.3</ele>
        <time>2024-07-08T13:36:23Z</time>
      </trkpt>
      <trkpt lat="45.12478" lon="6.0909">
        <ele>2096.3</ele>
        <time>2024-07-08T13:36:24Z</time>
      </trkpt>
      <trkpt lat="45.12478" lon="6.09089">
        <ele>2096.2</ele>
        <time>2024-07-08T13:36:25Z</time>
      </trkpt>
      <trkpt lat="45.12479" lon="6.09088">
        <ele>2096.2</ele>
        <time>2024-07-08T13:36:26Z</time>
      </trkpt>
      <trkpt lat="45.12479" lon="6.09086">
        <ele>2096.2</ele>
        <time>2024-07-08T13:36:27Z</time>
      </trkpt>
      <trkpt lat="45.12479" lon="6.09085">
        <ele>2096.2</ele>
        <time>2024-07-08T13:36:28Z</time>
      </trkpt>
      <trkpt lat="45.12479" lon="6.09083">
        <ele>2096.2</ele>
        <time>2024-07-08T13:36:29Z</time>
      </trkpt>
      <trkpt lat="45.12478" lon="6.09081">
        <ele>2096.2</ele>
        <time>2024-07-08T13:36:30Z</time>
      </trkpt>
      <trkpt lat="45.12477" lon="6.0908">
        <ele>2096.2</ele>
        <time>2024-07-08T13:36:31Z</time>
      </trkpt>
      <trkpt lat="45.12476" lon="6.0908">
        <ele>2096.2</ele>
        <time>2024-07-08T13:36:32Z</time>
      </trkpt>
      <trkpt lat="45.12475" lon="6.09079">
        <ele>2096.2</ele>
        <time>2024-07-08T13:36:33Z</time>
      </trkpt>
      <trkpt lat="45.12474" lon="6.09078">
        <ele>2096.2</ele>
        <time>2024-07-08T13:36:34Z</time>
      </trkpt>
      <trkpt lat="45.12473" lon="6.09076">
        <ele>2096.2</ele>
        <time>2024-07-08T13:36:35Z</time>
      </trkpt>
      <trkpt lat="45.12473" lon="6.09075">
        <ele>2096.2</ele>
        <time>2024-07-08T13:36:36Z</time>
      </trkpt>
      <trkpt lat="45.12472" lon="6.09074">
        <ele>2096.2</ele>
        <time>2024-07-08T13:36:37Z</time>
      </trkpt>
      <trkpt lat="45.12471" lon="6.09073">
        <ele>2096.2</ele>
        <time>2024-07-08T13:36:38Z</time>
      </trkpt>
      <trkpt lat="45.1247" lon="6.09072">
        <ele>2096.2</ele>
        <time>2024-07-08T13:36:39Z</time>
      </trkpt>
      <trkpt lat="45.1247" lon="6.09071">
        <ele>2096.2</ele>
        <time>2024-07-08T13:36:40Z</time>
      </trkpt>
      <trkpt lat="45.12469" lon="6.0907">
        <ele>2096.2</ele>
        <time>2024-07-08T13:36:41Z</time>
      </trkpt>
      <trkpt lat="45.12469" lon="6.09068">
        <ele>2096.2</ele>
        <time>2024-07-08T13:36:42Z</time>
      </trkpt>
      <trkpt lat="45.12468" lon="6.09067">
        <ele>2096.2</ele>
        <time>2024-07-08T13:36:43Z</time>
      </trkpt>
      <trkpt lat="45.12468" lon="6.09066">
        <ele>2096.2</ele>
        <time>2024-07-08T13:36:44Z</time>
      </trkpt>
      <trkpt lat="45.12467" lon="6.09065">
        <ele>2096.2</ele>
        <time>2024-07-08T13:36:45Z</time>
      </trkpt>
      <trkpt lat="45.12467" lon="6.09064">
        <ele>2096.2</ele>
        <time>2024-07-08T13:36:46Z</time>
      </trkpt>
      <trkpt lat="45.12467" lon="6.09062">
        <ele>2096.2</ele>
        <time>2024-07-08T13:36:47Z</time>
      </trkpt>
      <trkpt lat="45.12466" lon="6.0906">
        <ele>2096.1</ele>
        <time>2024-07-08T13:36:48Z</time>
      </trkpt>
      <trkpt lat="45.12466" lon="6.09059">
        <ele>2096.1</ele>
        <time>2024-07-08T13:36:49Z</time>
      </trkpt>
      <trkpt lat="45.12465" lon="6.09058">
        <ele>2096</ele>
        <time>2024-07-08T13:36:50Z</time>
      </trkpt>
      <trkpt lat="45.12464" lon="6.09057">
        <ele>2096</ele>
        <time>2024-07-08T13:36:51Z</time>
      </trkpt>
      <trkpt lat="45.12463" lon="6.09056">
        <ele>2095.9</ele>
        <time>2024-07-08T13:36:52Z</time>
      </trkpt>
      <trkpt lat="45.12462" lon="6.09056">
        <ele>2095.8</ele>
        <time>2024-07-08T13:36:53Z</time>
      </trkpt>
      <trkpt lat="45.12461" lon="6.09053">
        <ele>2095.6</ele>
        <time>2024-07-08T13:36:54Z</time>
      </trkpt>
      <trkpt lat="45.12461" lon="6.09052">
        <ele>2095.6</ele>
        <time>2024-07-08T13:36:55Z</time>
      </trkpt>
      <trkpt lat="45.12461" lon="6.09051">
        <ele>2095.5</ele>
        <time>2024-07-08T13:36:56Z</time>
      </trkpt>
      <trkpt lat="45.1246" lon="6.09048">
        <ele>2095.2</ele>
        <time>2024-07-08T13:36:57Z</time>
      </trkpt>
      <trkpt lat="45.12459" lon="6.09047">
        <ele>2095.1</ele>
        <time>2024-07-08T13:36:58Z</time>
      </trkpt>
      <trkpt lat="45.12459" lon="6.09046">
        <ele>2095</ele>
        <time>2024-07-08T13:36:59Z</time>
      </trkpt>
      <trkpt lat="45.12459" lon="6.09044">
        <ele>2094.8</ele>
        <time>2024-07-08T13:37:00Z</time>
      </trkpt>
      <trkpt lat="45.12459" lon="6.09042">
        <ele>2094.6</ele>
        <time>2024-07-08T13:37:01Z</time>
      </trkpt>
      <trkpt lat="45.12458" lon="6.0904">
        <ele>2094.4</ele>
        <time>2024-07-08T13:37:02Z</time>
      </trkpt>
      <trkpt lat="45.12457" lon="6.09038">
        <ele>2094.2</ele>
        <time>2024-07-08T13:37:03Z</time>
      </trkpt>
      <trkpt lat="45.12456" lon="6.09037">
        <ele>2093.9</ele>
        <time>2024-07-08T13:37:04Z</time>
      </trkpt>
      <trkpt lat="45.12455" lon="6.09036">
        <ele>2093.7</ele>
        <time>2024-07-08T13:37:05Z</time>
      </trkpt>
      <trkpt lat="45.12454" lon="6.09034">
        <ele>2093.4</ele>
        <time>2024-07-08T13:37:06Z</time>
      </trkpt>
      <trkpt lat="45.12453" lon="6.09033">
        <ele>2093.3</ele>
        <time>2024-07-08T13:37:07Z</time>
      </trkpt>
      <trkpt lat="45.12453" lon="6.09032">
        <ele>2093.2</ele>
        <time>2024-07-08T13:37:08Z</time>
      </trkpt>
      <trkpt lat="45.12452" lon="6.09031">
        <ele>2093.1</ele>
        <time>2024-07-08T13:37:09Z</time>
      </trkpt>
      <trkpt lat="45.12451" lon="6.0903">
        <ele>2092.9</ele>
        <time>2024-07-08T13:37:10Z</time>
      </trkpt>
      <trkpt lat="45.1245" lon="6.09028">
        <ele>2092.7</ele>
        <time>2024-07-08T13:37:11Z</time>
      </trkpt>
      <trkpt lat="45.12449" lon="6.09027">
        <ele>2092.6</ele>
        <time>2024-07-08T13:37:12Z</time>
      </trkpt>
      <trkpt lat="45.12449" lon="6.09026">
        <ele>2092.4</ele>
        <time>2024-07-08T13:37:13Z</time>
      </trkpt>
      <trkpt lat="45.12448" lon="6.09025">
        <ele>2092.3</ele>
        <time>2024-07-08T13:37:14Z</time>
      </trkpt>
      <trkpt lat="45.12446" lon="6.09025">
        <ele>2092</ele>
        <time>2024-07-08T13:37:15Z</time>
      </trkpt>
      <trkpt lat="45.12445" lon="6.09025">
        <ele>2091.9</ele>
        <time>2024-07-08T13:37:16Z</time>
      </trkpt>
      <trkpt lat="45.12444" lon="6.09025">
        <ele>2091.9</ele>
        <time>2024-07-08T13:37:17Z</time>
      </trkpt>
      <trkpt lat="45.12442" lon="6.09026">
        <ele>2091.8</ele>
        <time>2024-07-08T13:37:18Z</time>
      </trkpt>
      <trkpt lat="45.12442" lon="6.09027">
        <ele>2091.7</ele>
        <time>2024-07-08T13:37:19Z</time>
      </trkpt>
      <trkpt lat="45.12441" lon="6.09028">
        <ele>2091.6</ele>
        <time>2024-07-08T13:37:20Z</time>
      </trkpt>
      <trkpt lat="45.1244" lon="6.09029">
        <ele>2091.6</ele>
        <time>2024-07-08T13:37:21Z</time>
      </trkpt>
      <trkpt lat="45.1244" lon="6.09031">
        <ele>2091.5</ele>
        <time>2024-07-08T13:37:22Z</time>
      </trkpt>
      <trkpt lat="45.12439" lon="6.09033">
        <ele>2091.4</ele>
        <time>2024-07-08T13:37:23Z</time>
      </trkpt>
      <trkpt lat="45.12439" lon="6.09034">
        <ele>2091.4</ele>
        <time>2024-07-08T13:37:24Z</time>
      </trkpt>
      <trkpt lat="45.12438" lon="6.09035">
        <ele>2091.4</ele>
        <time>2024-07-08T13:37:25Z</time>
      </trkpt>
      <trkpt lat="45.12437" lon="6.09038">
        <ele>2091.3</ele>
        <time>2024-07-08T13:37:26Z</time>
      </trkpt>
      <trkpt lat="45.12437" lon="6.09039">
        <ele>2091.2</ele>
        <time>2024-07-08T13:37:27Z</time>
      </trkpt>
      <trkpt lat="45.12436" lon="6.0904">
        <ele>2091.2</ele>
        <time>2024-07-08T13:37:28Z</time>
      </trkpt>
      <trkpt lat="45.12435" lon="6.09041">
        <ele>2091.2</ele>
        <time>2024-07-08T13:37:29Z</time>
      </trkpt>
      <trkpt lat="45.12434" lon="6.09042">
        <ele>2091.1</ele>
        <time>2024-07-08T13:37:30Z</time>
      </trkpt>
      <trkpt lat="45.12433" lon="6.09043">
        <ele>2091.1</ele>
        <time>2024-07-08T13:37:31Z</time>
      </trkpt>
      <trkpt lat="45.12432" lon="6.09043">
        <ele>2091.1</ele>
        <time>2024-07-08T13:37:32Z</time>
      </trkpt>
      <trkpt lat="45.12431" lon="6.09044">
        <ele>2091.1</ele>
        <time>2024-07-08T13:37:33Z</time>
      </trkpt>
      <trkpt lat="45.12429" lon="6.09044">
        <ele>2091</ele>
        <time>2024-07-08T13:37:34Z</time>
      </trkpt>
      <trkpt lat="45.12428" lon="6.09044">
        <ele>2091</ele>
        <time>2024-07-08T13:37:35Z</time>
      </trkpt>
      <trkpt lat="45.12426" lon="6.09044">
        <ele>2091</ele>
        <time>2024-07-08T13:37:36Z</time>
      </trkpt>
      <trkpt lat="45.12426" lon="6.09044">
        <ele>2091</ele>
        <time>2024-07-08T13:37:37Z</time>
      </trkpt>
      <trkpt lat="45.12425" lon="6.09045">
        <ele>2091</ele>
        <time>2024-07-08T13:37:38Z</time>
      </trkpt>
      <trkpt lat="45.12424" lon="6.09046">
        <ele>2091</ele>
        <time>2024-07-08T13:37:39Z</time>
      </trkpt>
      <trkpt lat="45.12423" lon="6.09046">
        <ele>2091</ele>
        <time>2024-07-08T13:37:40Z</time>
      </trkpt>
      <trkpt lat="45.12422" lon="6.09046">
        <ele>2091</ele>
        <time>2024-07-08T13:37:41Z</time>
      </trkpt>
      <trkpt lat="45.1242" lon="6.09047">
        <ele>2091</ele>
        <time>2024-07-08T13:37:42Z</time>
      </trkpt>
      <trkpt lat="45.1242" lon="6.09046">
        <ele>2091</ele>
        <time>2024-07-08T13:37:43Z</time>
      </trkpt>
      <trkpt lat="45.12419" lon="6.09046">
        <ele>2091.1</ele>
        <time>2024-07-08T13:37:44Z</time>
      </trkpt>
      <trkpt lat="45.12418" lon="6.09046">
        <ele>2091.1</ele>
        <time>2024-07-08T13:37:45Z</time>
      </trkpt>
      <trkpt lat="45.12417" lon="6.09046">
        <ele>2091.1</ele>
        <time>2024-07-08T13:37:46Z</time>
      </trkpt>
      <trkpt lat="45.12415" lon="6.09045">
        <ele>2091.1</ele>
        <time>2024-07-08T13:37:47Z</time>
      </trkpt>
      <trkpt lat="45.12414" lon="6.09044">
        <ele>2091.1</ele>
        <time>2024-07-08T13:37:48Z</time>
      </trkpt>
      <trkpt lat="45.12413" lon="6.09043">
        <ele>2091.2</ele>
        <time>2024-07-08T13:37:49Z</time>
      </trkpt>
      <trkpt lat="45.12413" lon="6.09042">
        <ele>2091.2</ele>
        <time>2024-07-08T13:37:50Z</time>
      </trkpt>
      <trkpt lat="45.12412" lon="6.09041">
        <ele>2091.2</ele>
        <time>2024-07-08T13:37:51Z</time>
      </trkpt>
      <trkpt lat="45.12411" lon="6.0904">
        <ele>2091.2</ele>
        <time>2024-07-08T13:37:52Z</time>
      </trkpt>
      <trkpt lat="45.1241" lon="6.09039">
        <ele>2091.3</ele>
        <time>2024-07-08T13:37:53Z</time>
      </trkpt>
      <trkpt lat="45.12409" lon="6.09038">
        <ele>2091.3</ele>
        <time>2024-07-08T13:37:54Z</time>
      </trkpt>
      <trkpt lat="45.12409" lon="6.09036">
        <ele>2091.3</ele>
        <time>2024-07-08T13:37:55Z</time>
      </trkpt>
      <trkpt lat="45.12408" lon="6.09035">
        <ele>2091.3</ele>
        <time>2024-07-08T13:37:56Z</time>
      </trkpt>
      <trkpt lat="45.12407" lon="6.09033">
        <ele>2091.4</ele>
        <time>2024-07-08T13:37:57Z</time>
      </trkpt>
      <trkpt lat="45.12406" lon="6.09033">
        <ele>2091.4</ele>
        <time>2024-07-08T13:37:58Z</time>
      </trkpt>
      <trkpt lat="45.12405" lon="6.09033">
        <ele>2091.4</ele>
        <time>2024-07-08T13:37:59Z</time>
      </trkpt>
      <trkpt lat="45.12404" lon="6.09032">
        <ele>2091.4</ele>
        <time>2024-07-08T13:38:00Z</time>
      </trkpt>
      <trkpt lat="45.12404" lon="6.09031">
        <ele>2091.5</ele>
        <time>2024-07-08T13:38:01Z</time>
      </trkpt>
      <trkpt lat="45.12403" lon="6.09028">
        <ele>2091.5</ele>
        <time>2024-07-08T13:38:02Z</time>
      </trkpt>
      <trkpt lat="45.12403" lon="6.09027">
        <ele>2091.5</ele>
        <time>2024-07-08T13:38:03Z</time>
      </trkpt>
      <trkpt lat="45.12403" lon="6.09026">
        <ele>2091.5</ele>
        <time>2024-07-08T13:38:04Z</time>
      </trkpt>
      <trkpt lat="45.12404" lon="6.09023">
        <ele>2091.6</ele>
        <time>2024-07-08T13:38:05Z</time>
      </trkpt>
      <trkpt lat="45.12404" lon="6.09022">
        <ele>2091.6</ele>
        <time>2024-07-08T13:38:06Z</time>
      </trkpt>
      <trkpt lat="45.12404" lon="6.09021">
        <ele>2091.6</ele>
        <time>2024-07-08T13:38:07Z</time>
      </trkpt>
      <trkpt lat="45.12404" lon="6.09019">
        <ele>2091.6</ele>
        <time>2024-07-08T13:38:08Z</time>
      </trkpt>
      <trkpt lat="45.12404" lon="6.09018">
        <ele>2091.6</ele>
        <time>2024-07-08T13:38:09Z</time>
      </trkpt>
      <trkpt lat="45.12405" lon="6.09017">
        <ele>2091.6</ele>
        <time>2024-07-08T13:38:10Z</time>
      </trkpt>
      <trkpt lat="45.12406" lon="6.09016">
        <ele>2091.6</ele>
        <time>2024-07-08T13:38:11Z</time>
      </trkpt>
      <trkpt lat="45.12406" lon="6.09014">
        <ele>2091.7</ele>
        <time>2024-07-08T13:38:12Z</time>
      </trkpt>
      <trkpt lat="45.12407" lon="6.09012">
        <ele>2091.7</ele>
        <time>2024-07-08T13:38:13Z</time>
      </trkpt>
      <trkpt lat="45.12406" lon="6.0901">
        <ele>2091.7</ele>
        <time>2024-07-08T13:38:14Z</time>
      </trkpt>
      <trkpt lat="45.12405" lon="6.0901">
        <ele>2091.7</ele>
        <time>2024-07-08T13:38:15Z</time>
      </trkpt>
      <trkpt lat="45.12405" lon="6.09009">
        <ele>2091.7</ele>
        <time>2024-07-08T13:38:16Z</time>
      </trkpt>
      <trkpt lat="45.12404" lon="6.09008">
        <ele>2091.7</ele>
        <time>2024-07-08T13:38:17Z</time>
      </trkpt>
      <trkpt lat="45.12403" lon="6.09007">
        <ele>2091.8</ele>
        <time>2024-07-08T13:38:18Z</time>
      </trkpt>
      <trkpt lat="45.12403" lon="6.09006">
        <ele>2091.8</ele>
        <time>2024-07-08T13:38:19Z</time>
      </trkpt>
      <trkpt lat="45.12403" lon="6.09004">
        <ele>2091.8</ele>
        <time>2024-07-08T13:38:20Z</time>
      </trkpt>
      <trkpt lat="45.12403" lon="6.09003">
        <ele>2091.8</ele>
        <time>2024-07-08T13:38:21Z</time>
      </trkpt>
      <trkpt lat="45.12403" lon="6.09002">
        <ele>2091.8</ele>
        <time>2024-07-08T13:38:22Z</time>
      </trkpt>
      <trkpt lat="45.12402" lon="6.09001">
        <ele>2091.8</ele>
        <time>2024-07-08T13:38:23Z</time>
      </trkpt>
      <trkpt lat="45.12402" lon="6.09">
        <ele>2091.9</ele>
        <time>2024-07-08T13:38:24Z</time>
      </trkpt>
      <trkpt lat="45.12401" lon="6.08999">
        <ele>2091.9</ele>
        <time>2024-07-08T13:38:25Z</time>
      </trkpt>
      <trkpt lat="45.124" lon="6.08998">
        <ele>2091.9</ele>
        <time>2024-07-08T13:38:26Z</time>
      </trkpt>
      <trkpt lat="45.124" lon="6.08997">
        <ele>2091.9</ele>
        <time>2024-07-08T13:38:27Z</time>
      </trkpt>
      <trkpt lat="45.124" lon="6.08995">
        <ele>2091.9</ele>
        <time>2024-07-08T13:38:28Z</time>
      </trkpt>
      <trkpt lat="45.12401" lon="6.08994">
        <ele>2091.9</ele>
        <time>2024-07-08T13:38:29Z</time>
      </trkpt>
      <trkpt lat="45.12401" lon="6.08993">
        <ele>2092</ele>
        <time>2024-07-08T13:38:30Z</time>
      </trkpt>
      <trkpt lat="45.12401" lon="6.08994">
        <ele>2092</ele>
        <time>2024-07-08T13:38:31Z</time>
      </trkpt>
      <trkpt lat="45.12401" lon="6.08994">
        <ele>2092</ele>
        <time>2024-07-08T13:38:32Z</time>
      </trkpt>
      <trkpt lat="45.12401" lon="6.08994">
        <ele>2092</ele>
        <time>2024-07-08T13:38:33Z</time>
      </trkpt>
      <trkpt lat="45.12401" lon="6.08995">
        <ele>2092</ele>
        <time>2024-07-08T13:38:34Z</time>
      </trkpt>
      <trkpt lat="45.12401" lon="6.08995">
        <ele>2092</ele>
        <time>2024-07-08T13:38:35Z</time>
      </trkpt>
      <trkpt lat="45.12401" lon="6.08995">
        <ele>2092</ele>
        <time>2024-07-08T13:38:36Z</time>
      </trkpt>
      <trkpt lat="45.12401" lon="6.08995">
        <ele>2092</ele>
        <time>2024-07-08T13:38:37Z</time>
      </trkpt>
      <trkpt lat="45.12401" lon="6.08995">
        <ele>2092</ele>
        <time>2024-07-08T13:38:38Z</time>
      </trkpt>
      <trkpt lat="45.12401" lon="6.08995">
        <ele>2092</ele>
        <time>2024-07-08T13:38:39Z</time>
      </trkpt>
      <trkpt lat="45.12401" lon="6.08995">
        <ele>2092</ele>
        <time>2024-07-08T13:38:40Z</time>
      </trkpt>
      <trkpt lat="45.12401" lon="6.08995">
        <ele>2092</ele>
        <time>2024-07-08T13:38:41Z</time>
      </trkpt>
      <trkpt lat="45.12401" lon="6.08995">
        <ele>2092</ele>
        <time>2024-07-08T13:38:42Z</time>
      </trkpt>
      <trkpt lat="45.12401" lon="6.08995">
        <ele>2092</ele>
        <time>2024-07-08T13:38:43Z</time>
      </trkpt>
      <trkpt lat="45.12401" lon="6.08995">
        <ele>2092</ele>
        <time>2024-07-08T13:38:44Z</time>
      </trkpt>
      <trkpt lat="45.12401" lon="6.08995">
        <ele>2092</ele>
        <time>2024-07-08T13:38:45Z</time>
      </trkpt>
      <trkpt lat="45.12401" lon="6.08995">
        <ele>2092</ele>
        <time>2024-07-08T13:38:46Z</time>
      </trkpt>
      <trkpt lat="45.12401" lon="6.08995">
        <ele>2092</ele>
        <time>2024-07-08T13:38:47Z</time>
      </trkpt>
      <trkpt lat="45.12401" lon="6.08995">
        <ele>2092</ele>
        <time>2024-07-08T13:38:48Z</time>
      </trkpt>
      <trkpt lat="45.12401" lon="6.08995">
        <ele>2092</ele>
        <time>2024-07-08T13:38:49Z</time>
      </trkpt>
      <trkpt lat="45.12401" lon="6.08995">
        <ele>2092</ele>
        <time>2024-07-08T13:38:50Z</time>
      </trkpt>
      <trkpt lat="45.12401" lon="6.08995">
        <ele>2092</ele>
        <time>2024-07-08T13:38:51Z</time>
      </trkpt>
      <trkpt lat="45.12401" lon="6.08995">
        <ele>2092</ele>
        <time>2024-07-08T13:38:52Z</time>
      </trkpt>
      <trkpt lat="45.12401" lon="6.08995">
        <ele>2092</ele>
        <time>2024-07-08T13:38:53Z</time>
      </trkpt>
      <trkpt lat="45.12401" lon="6.08995">
        <ele>2092</ele>
        <time>2024-07-08T13:38:54Z</time>
      </trkpt>
      <trkpt lat="45.12401" lon="6.08995">
        <ele>2092</ele>
        <time>2024-07-08T13:38:55Z</time>
      </trkpt>
      <trkpt lat="45.12401" lon="6.08995">
        <ele>2092</ele>
        <time>2024-07-08T13:38:56Z</time>
      </trkpt>
      <trkpt lat="45.124" lon="6.08995">
        <ele>2092</ele>
        <time>2024-07-08T13:38:57Z</time>
      </trkpt>
      <trkpt lat="45.12399" lon="6.08995">
        <ele>2092</ele>
        <time>2024-07-08T13:38:58Z</time>
      </trkpt>
      <trkpt lat="45.12399" lon="6.08995">
        <ele>2092</ele>
        <time>2024-07-08T13:38:59Z</time>
      </trkpt>
      <trkpt lat="45.12398" lon="6.08995">
        <ele>2092</ele>
        <time>2024-07-08T13:39:00Z</time>
      </trkpt>
      <trkpt lat="45.12398" lon="6.08994">
        <ele>2092</ele>
        <time>2024-07-08T13:39:01Z</time>
      </trkpt>
      <trkpt lat="45.12398" lon="6.08992">
        <ele>2092</ele>
        <time>2024-07-08T13:39:02Z</time>
      </trkpt>
      <trkpt lat="45.12397" lon="6.08991">
        <ele>2092</ele>
        <time>2024-07-08T13:39:03Z</time>
      </trkpt>
      <trkpt lat="45.12397" lon="6.0899">
        <ele>2092</ele>
        <time>2024-07-08T13:39:04Z</time>
      </trkpt>
      <trkpt lat="45.124" lon="6.08991">
        <ele>2092</ele>
        <time>2024-07-08T13:39:05Z</time>
      </trkpt>
      <trkpt lat="45.124" lon="6.08991">
        <ele>2092</ele>
        <time>2024-07-08T13:39:06Z</time>
      </trkpt>
      <trkpt lat="45.12401" lon="6.08985">
        <ele>2092</ele>
        <time>2024-07-08T13:39:07Z</time>
      </trkpt>
      <trkpt lat="45.12401" lon="6.08979">
        <ele>2092</ele>
        <time>2024-07-08T13:39:08Z</time>
      </trkpt>
      <trkpt lat="45.124" lon="6.08977">
        <ele>2092</ele>
        <time>2024-07-08T13:39:09Z</time>
      </trkpt>
      <trkpt lat="45.124" lon="6.08976">
        <ele>2091.9</ele>
        <time>2024-07-08T13:39:10Z</time>
      </trkpt>
      <trkpt lat="45.12399" lon="6.08975">
        <ele>2091.9</ele>
        <time>2024-07-08T13:39:11Z</time>
      </trkpt>
      <trkpt lat="45.12397" lon="6.08974">
        <ele>2091.9</ele>
        <time>2024-07-08T13:39:12Z</time>
      </trkpt>
      <trkpt lat="45.12395" lon="6.08973">
        <ele>2091.9</ele>
        <time>2024-07-08T13:39:13Z</time>
      </trkpt>
      <trkpt lat="45.12392" lon="6.08973">
        <ele>2091.9</ele>
        <time>2024-07-08T13:39:14Z</time>
      </trkpt>
      <trkpt lat="45.12391" lon="6.08973">
        <ele>2091.9</ele>
        <time>2024-07-08T13:39:15Z</time>
      </trkpt>
      <trkpt lat="45.1239" lon="6.08973">
        <ele>2091.8</ele>
        <time>2024-07-08T13:39:16Z</time>
      </trkpt>
      <trkpt lat="45.12389" lon="6.08973">
        <ele>2091.8</ele>
        <time>2024-07-08T13:39:17Z</time>
      </trkpt>
      <trkpt lat="45.12387" lon="6.08974">
        <ele>2091.7</ele>
        <time>2024-07-08T13:39:18Z</time>
      </trkpt>
      <trkpt lat="45.12385" lon="6.08975">
        <ele>2091.7</ele>
        <time>2024-07-08T13:39:19Z</time>
      </trkpt>
      <trkpt lat="45.12384" lon="6.08977">
        <ele>2091.6</ele>
        <time>2024-07-08T13:39:20Z</time>
      </trkpt>
      <trkpt lat="45.12383" lon="6.08977">
        <ele>2091.6</ele>
        <time>2024-07-08T13:39:21Z</time>
      </trkpt>
      <trkpt lat="45.12382" lon="6.08978">
        <ele>2091.5</ele>
        <time>2024-07-08T13:39:22Z</time>
      </trkpt>
      <trkpt lat="45.12381" lon="6.08979">
        <ele>2091.5</ele>
        <time>2024-07-08T13:39:23Z</time>
      </trkpt>
      <trkpt lat="45.1238" lon="6.08979">
        <ele>2091.4</ele>
        <time>2024-07-08T13:39:24Z</time>
      </trkpt>
      <trkpt lat="45.12379" lon="6.08979">
        <ele>2091.4</ele>
        <time>2024-07-08T13:39:25Z</time>
      </trkpt>
      <trkpt lat="45.12377" lon="6.08979">
        <ele>2091.3</ele>
        <time>2024-07-08T13:39:26Z</time>
      </trkpt>
      <trkpt lat="45.12376" lon="6.08979">
        <ele>2091.2</ele>
        <time>2024-07-08T13:39:27Z</time>
      </trkpt>
      <trkpt lat="45.12375" lon="6.0898">
        <ele>2091.2</ele>
        <time>2024-07-08T13:39:28Z</time>
      </trkpt>
      <trkpt lat="45.12373" lon="6.0898">
        <ele>2091</ele>
        <time>2024-07-08T13:39:29Z</time>
      </trkpt>
      <trkpt lat="45.12372" lon="6.08981">
        <ele>2091</ele>
        <time>2024-07-08T13:39:30Z</time>
      </trkpt>
      <trkpt lat="45.12371" lon="6.08982">
        <ele>2090.9</ele>
        <time>2024-07-08T13:39:31Z</time>
      </trkpt>
      <trkpt lat="45.12371" lon="6.08984">
        <ele>2090.8</ele>
        <time>2024-07-08T13:39:32Z</time>
      </trkpt>
      <trkpt lat="45.12371" lon="6.08986">
        <ele>2090.8</ele>
        <time>2024-07-08T13:39:33Z</time>
      </trkpt>
      <trkpt lat="45.1237" lon="6.08988">
        <ele>2090.7</ele>
        <time>2024-07-08T13:39:34Z</time>
      </trkpt>
      <trkpt lat="45.12369" lon="6.08989">
        <ele>2090.6</ele>
        <time>2024-07-08T13:39:35Z</time>
      </trkpt>
      <trkpt lat="45.12368" lon="6.08991">
        <ele>2090.5</ele>
        <time>2024-07-08T13:39:36Z</time>
      </trkpt>
      <trkpt lat="45.12367" lon="6.08991">
        <ele>2090.4</ele>
        <time>2024-07-08T13:39:37Z</time>
      </trkpt>
      <trkpt lat="45.12366" lon="6.08991">
        <ele>2090.4</ele>
        <time>2024-07-08T13:39:38Z</time>
      </trkpt>
      <trkpt lat="45.12364" lon="6.08992">
        <ele>2090.3</ele>
        <time>2024-07-08T13:39:39Z</time>
      </trkpt>
      <trkpt lat="45.12363" lon="6.08991">
        <ele>2090.2</ele>
        <time>2024-07-08T13:39:40Z</time>
      </trkpt>
      <trkpt lat="45.12362" lon="6.08989">
        <ele>2090.1</ele>
        <time>2024-07-08T13:39:41Z</time>
      </trkpt>
      <trkpt lat="45.12362" lon="6.08987">
        <ele>2090.1</ele>
        <time>2024-07-08T13:39:42Z</time>
      </trkpt>
      <trkpt lat="45.12361" lon="6.08984">
        <ele>2090</ele>
        <time>2024-07-08T13:39:43Z</time>
      </trkpt>
      <trkpt lat="45.1236" lon="6.08983">
        <ele>2090</ele>
        <time>2024-07-08T13:39:44Z</time>
      </trkpt>
      <trkpt lat="45.1236" lon="6.08982">
        <ele>2089.9</ele>
        <time>2024-07-08T13:39:45Z</time>
      </trkpt>
      <trkpt lat="45.12359" lon="6.08982">
        <ele>2089.9</ele>
        <time>2024-07-08T13:39:46Z</time>
      </trkpt>
      <trkpt lat="45.12359" lon="6.08982">
        <ele>2089.9</ele>
        <time>2024-07-08T13:39:47Z</time>
      </trkpt>
      <trkpt lat="45.12359" lon="6.08982">
        <ele>2089.9</ele>
        <time>2024-07-08T13:39:48Z</time>
      </trkpt>
      <trkpt lat="45.12358" lon="6.08981">
        <ele>2089.9</ele>
        <time>2024-07-08T13:39:49Z</time>
      </trkpt>
      <trkpt lat="45.12357" lon="6.08981">
        <ele>2089.9</ele>
        <time>2024-07-08T13:39:50Z</time>
      </trkpt>
      <trkpt lat="45.12356" lon="6.08979">
        <ele>2089.9</ele>
        <time>2024-07-08T13:39:51Z</time>
      </trkpt>
      <trkpt lat="45.12355" lon="6.08978">
        <ele>2089.9</ele>
        <time>2024-07-08T13:39:52Z</time>
      </trkpt>
      <trkpt lat="45.12354" lon="6.08978">
        <ele>2089.9</ele>
        <time>2024-07-08T13:39:53Z</time>
      </trkpt>
      <trkpt lat="45.12352" lon="6.08979">
        <ele>2090</ele>
        <time>2024-07-08T13:39:54Z</time>
      </trkpt>
      <trkpt lat="45.12351" lon="6.0898">
        <ele>2090</ele>
        <time>2024-07-08T13:39:55Z</time>
      </trkpt>
      <trkpt lat="45.12349" lon="6.08981">
        <ele>2090.1</ele>
        <time>2024-07-08T13:39:56Z</time>
      </trkpt>
      <trkpt lat="45.12347" lon="6.08982">
        <ele>2090.1</ele>
        <time>2024-07-08T13:39:57Z</time>
      </trkpt>
      <trkpt lat="45.12346" lon="6.08982">
        <ele>2090.2</ele>
        <time>2024-07-08T13:39:58Z</time>
      </trkpt>
      <trkpt lat="45.12346" lon="6.08982">
        <ele>2090.2</ele>
        <time>2024-07-08T13:39:59Z</time>
      </trkpt>
      <trkpt lat="45.12344" lon="6.08984">
        <ele>2090.3</ele>
        <time>2024-07-08T13:40:00Z</time>
      </trkpt>
      <trkpt lat="45.12343" lon="6.08984">
        <ele>2090.3</ele>
        <time>2024-07-08T13:40:01Z</time>
      </trkpt>
      <trkpt lat="45.12342" lon="6.08985">
        <ele>2090.4</ele>
        <time>2024-07-08T13:40:02Z</time>
      </trkpt>
      <trkpt lat="45.12341" lon="6.08986">
        <ele>2090.4</ele>
        <time>2024-07-08T13:40:03Z</time>
      </trkpt>
      <trkpt lat="45.12341" lon="6.08986">
        <ele>2090.5</ele>
        <time>2024-07-08T13:40:04Z</time>
      </trkpt>
      <trkpt lat="45.1234" lon="6.08987">
        <ele>2090.6</ele>
        <time>2024-07-08T13:40:05Z</time>
      </trkpt>
      <trkpt lat="45.12338" lon="6.08988">
        <ele>2090.7</ele>
        <time>2024-07-08T13:40:06Z</time>
      </trkpt>
      <trkpt lat="45.12337" lon="6.08989">
        <ele>2090.7</ele>
        <time>2024-07-08T13:40:07Z</time>
      </trkpt>
      <trkpt lat="45.12337" lon="6.0899">
        <ele>2090.8</ele>
        <time>2024-07-08T13:40:08Z</time>
      </trkpt>
      <trkpt lat="45.12336" lon="6.08991">
        <ele>2090.9</ele>
        <time>2024-07-08T13:40:09Z</time>
      </trkpt>
      <trkpt lat="45.12335" lon="6.08992">
        <ele>2090.9</ele>
        <time>2024-07-08T13:40:10Z</time>
      </trkpt>
      <trkpt lat="45.12333" lon="6.08994">
        <ele>2091</ele>
        <time>2024-07-08T13:40:11Z</time>
      </trkpt>
      <trkpt lat="45.12333" lon="6.08994">
        <ele>2091.1</ele>
        <time>2024-07-08T13:40:12Z</time>
      </trkpt>
      <trkpt lat="45.12332" lon="6.08994">
        <ele>2091.1</ele>
        <time>2024-07-08T13:40:13Z</time>
      </trkpt>
      <trkpt lat="45.12331" lon="6.08994">
        <ele>2091.2</ele>
        <time>2024-07-08T13:40:14Z</time>
      </trkpt>
      <trkpt lat="45.1233" lon="6.08994">
        <ele>2091.2</ele>
        <time>2024-07-08T13:40:15Z</time>
      </trkpt>
      <trkpt lat="45.12329" lon="6.08994">
        <ele>2091.3</ele>
        <time>2024-07-08T13:40:16Z</time>
      </trkpt>
      <trkpt lat="45.12329" lon="6.08993">
        <ele>2091.4</ele>
        <time>2024-07-08T13:40:17Z</time>
      </trkpt>
      <trkpt lat="45.12328" lon="6.08992">
        <ele>2091.4</ele>
        <time>2024-07-08T13:40:18Z</time>
      </trkpt>
      <trkpt lat="45.12327" lon="6.08991">
        <ele>2091.5</ele>
        <time>2024-07-08T13:40:19Z</time>
      </trkpt>
      <trkpt lat="45.12326" lon="6.08991">
        <ele>2091.6</ele>
        <time>2024-07-08T13:40:20Z</time>
      </trkpt>
      <trkpt lat="45.12325" lon="6.08991">
        <ele>2091.6</ele>
        <time>2024-07-08T13:40:21Z</time>
      </trkpt>
      <trkpt lat="45.12323" lon="6.08993">
        <ele>2091.8</ele>
        <time>2024-07-08T13:40:22Z</time>
      </trkpt>
      <trkpt lat="45.12323" lon="6.08994">
        <ele>2091.8</ele>
        <time>2024-07-08T13:40:23Z</time>
      </trkpt>
      <trkpt lat="45.12323" lon="6.08995">
        <ele>2091.9</ele>
        <time>2024-07-08T13:40:24Z</time>
      </trkpt>
      <trkpt lat="45.12323" lon="6.08999">
        <ele>2092.1</ele>
        <time>2024-07-08T13:40:25Z</time>
      </trkpt>
      <trkpt lat="45.12323" lon="6.09">
        <ele>2092.2</ele>
        <time>2024-07-08T13:40:26Z</time>
      </trkpt>
      <trkpt lat="45.12323" lon="6.09002">
        <ele>2092.3</ele>
        <time>2024-07-08T13:40:27Z</time>
      </trkpt>
      <trkpt lat="45.12323" lon="6.09003">
        <ele>2092.3</ele>
        <time>2024-07-08T13:40:28Z</time>
      </trkpt>
      <trkpt lat="45.12322" lon="6.09005">
        <ele>2092.4</ele>
        <time>2024-07-08T13:40:29Z</time>
      </trkpt>
      <trkpt lat="45.12322" lon="6.09006">
        <ele>2092.5</ele>
        <time>2024-07-08T13:40:30Z</time>
      </trkpt>
      <trkpt lat="45.12321" lon="6.09008">
        <ele>2092.6</ele>
        <time>2024-07-08T13:40:31Z</time>
      </trkpt>
      <trkpt lat="45.12321" lon="6.09009">
        <ele>2092.7</ele>
        <time>2024-07-08T13:40:32Z</time>
      </trkpt>
      <trkpt lat="45.1232" lon="6.0901">
        <ele>2092.8</ele>
        <time>2024-07-08T13:40:33Z</time>
      </trkpt>
      <trkpt lat="45.1232" lon="6.09012">
        <ele>2092.9</ele>
        <time>2024-07-08T13:40:34Z</time>
      </trkpt>
      <trkpt lat="45.1232" lon="6.09013">
        <ele>2092.9</ele>
        <time>2024-07-08T13:40:35Z</time>
      </trkpt>
      <trkpt lat="45.1232" lon="6.09014">
        <ele>2093</ele>
        <time>2024-07-08T13:40:36Z</time>
      </trkpt>
      <trkpt lat="45.12319" lon="6.09016">
        <ele>2093.2</ele>
        <time>2024-07-08T13:40:37Z</time>
      </trkpt>
      <trkpt lat="45.12318" lon="6.09018">
        <ele>2093.2</ele>
        <time>2024-07-08T13:40:38Z</time>
      </trkpt>
      <trkpt lat="45.12318" lon="6.09018">
        <ele>2093.3</ele>
        <time>2024-07-08T13:40:39Z</time>
      </trkpt>
      <trkpt lat="45.12317" lon="6.09019">
        <ele>2093.4</ele>
        <time>2024-07-08T13:40:40Z</time>
      </trkpt>
      <trkpt lat="45.12315" lon="6.09019">
        <ele>2093.5</ele>
        <time>2024-07-08T13:40:41Z</time>
      </trkpt>
      <trkpt lat="45.12314" lon="6.09019">
        <ele>2093.6</ele>
        <time>2024-07-08T13:40:42Z</time>
      </trkpt>
      <trkpt lat="45.12312" lon="6.09017">
        <ele>2093.8</ele>
        <time>2024-07-08T13:40:44Z</time>
      </trkpt>
      <trkpt lat="45.12311" lon="6.09017">
        <ele>2093.8</ele>
        <time>2024-07-08T13:40:45Z</time>
      </trkpt>
      <trkpt lat="45.1231" lon="6.09016">
        <ele>2093.9</ele>
        <time>2024-07-08T13:40:46Z</time>
      </trkpt>
      <trkpt lat="45.12309" lon="6.09015">
        <ele>2094</ele>
        <time>2024-07-08T13:40:47Z</time>
      </trkpt>
      <trkpt lat="45.12309" lon="6.09014">
        <ele>2094.1</ele>
        <time>2024-07-08T13:40:48Z</time>
      </trkpt>
      <trkpt lat="45.12308" lon="6.09014">
        <ele>2094.1</ele>
        <time>2024-07-08T13:40:49Z</time>
      </trkpt>
      <trkpt lat="45.12308" lon="6.09014">
        <ele>2094.2</ele>
        <time>2024-07-08T13:40:50Z</time>
      </trkpt>
      <trkpt lat="45.12307" lon="6.09013">
        <ele>2094.2</ele>
        <time>2024-07-08T13:40:51Z</time>
      </trkpt>
      <trkpt lat="45.12305" lon="6.09013">
        <ele>2094.3</ele>
        <time>2024-07-08T13:40:52Z</time>
      </trkpt>
      <trkpt lat="45.12305" lon="6.09013">
        <ele>2094.4</ele>
        <time>2024-07-08T13:40:53Z</time>
      </trkpt>
      <trkpt lat="45.12304" lon="6.09014">
        <ele>2094.4</ele>
        <time>2024-07-08T13:40:54Z</time>
      </trkpt>
      <trkpt lat="45.12303" lon="6.09013">
        <ele>2094.6</ele>
        <time>2024-07-08T13:40:55Z</time>
      </trkpt>
      <trkpt lat="45.12302" lon="6.09013">
        <ele>2094.6</ele>
        <time>2024-07-08T13:40:56Z</time>
      </trkpt>
      <trkpt lat="45.123" lon="6.09011">
        <ele>2094.8</ele>
        <time>2024-07-08T13:40:57Z</time>
      </trkpt>
      <trkpt lat="45.123" lon="6.09011">
        <ele>2094.8</ele>
        <time>2024-07-08T13:40:58Z</time>
      </trkpt>
      <trkpt lat="45.12299" lon="6.0901">
        <ele>2094.9</ele>
        <time>2024-07-08T13:40:59Z</time>
      </trkpt>
      <trkpt lat="45.12299" lon="6.0901">
        <ele>2094.9</ele>
        <time>2024-07-08T13:41:00Z</time>
      </trkpt>
      <trkpt lat="45.12298" lon="6.09009">
        <ele>2095</ele>
        <time>2024-07-08T13:41:01Z</time>
      </trkpt>
      <trkpt lat="45.12297" lon="6.09009">
        <ele>2095.1</ele>
        <time>2024-07-08T13:41:02Z</time>
      </trkpt>
      <trkpt lat="45.12296" lon="6.09009">
        <ele>2095.2</ele>
        <time>2024-07-08T13:41:03Z</time>
      </trkpt>
      <trkpt lat="45.12295" lon="6.09009">
        <ele>2095.3</ele>
        <time>2024-07-08T13:41:04Z</time>
      </trkpt>
      <trkpt lat="45.12293" lon="6.09008">
        <ele>2095.4</ele>
        <time>2024-07-08T13:41:05Z</time>
      </trkpt>
      <trkpt lat="45.12293" lon="6.09008">
        <ele>2095.5</ele>
        <time>2024-07-08T13:41:06Z</time>
      </trkpt>
      <trkpt lat="45.12291" lon="6.09008">
        <ele>2095.7</ele>
        <time>2024-07-08T13:41:07Z</time>
      </trkpt>
      <trkpt lat="45.12291" lon="6.09008">
        <ele>2095.7</ele>
        <time>2024-07-08T13:41:08Z</time>
      </trkpt>
      <trkpt lat="45.1229" lon="6.09007">
        <ele>2095.9</ele>
        <time>2024-07-08T13:41:09Z</time>
      </trkpt>
      <trkpt lat="45.12288" lon="6.09007">
        <ele>2096</ele>
        <time>2024-07-08T13:41:10Z</time>
      </trkpt>
      <trkpt lat="45.12288" lon="6.09007">
        <ele>2096.1</ele>
        <time>2024-07-08T13:41:11Z</time>
      </trkpt>
      <trkpt lat="45.12287" lon="6.09007">
        <ele>2096.2</ele>
        <time>2024-07-08T13:41:12Z</time>
      </trkpt>
      <trkpt lat="45.12286" lon="6.09008">
        <ele>2096.3</ele>
        <time>2024-07-08T13:41:13Z</time>
      </trkpt>
      <trkpt lat="45.12285" lon="6.09008">
        <ele>2096.4</ele>
        <time>2024-07-08T13:41:14Z</time>
      </trkpt>
      <trkpt lat="45.12284" lon="6.09009">
        <ele>2096.5</ele>
        <time>2024-07-08T13:41:15Z</time>
      </trkpt>
      <trkpt lat="45.12283" lon="6.09009">
        <ele>2096.6</ele>
        <time>2024-07-08T13:41:16Z</time>
      </trkpt>
      <trkpt lat="45.12281" lon="6.09009">
        <ele>2096.9</ele>
        <time>2024-07-08T13:41:17Z</time>
      </trkpt>
      <trkpt lat="45.12281" lon="6.09008">
        <ele>2097</ele>
        <time>2024-07-08T13:41:18Z</time>
      </trkpt>
      <trkpt lat="45.1228" lon="6.09008">
        <ele>2097</ele>
        <time>2024-07-08T13:41:19Z</time>
      </trkpt>
      <trkpt lat="45.1228" lon="6.09008">
        <ele>2097.1</ele>
        <time>2024-07-08T13:41:20Z</time>
      </trkpt>
      <trkpt lat="45.1228" lon="6.09007">
        <ele>2097.2</ele>
        <time>2024-07-08T13:41:21Z</time>
      </trkpt>
      <trkpt lat="45.12279" lon="6.09005">
        <ele>2097.4</ele>
        <time>2024-07-08T13:41:22Z</time>
      </trkpt>
      <trkpt lat="45.12278" lon="6.09005">
        <ele>2097.5</ele>
        <time>2024-07-08T13:41:23Z</time>
      </trkpt>
      <trkpt lat="45.12277" lon="6.09005">
        <ele>2097.6</ele>
        <time>2024-07-08T13:41:24Z</time>
      </trkpt>
      <trkpt lat="45.12277" lon="6.09006">
        <ele>2097.7</ele>
        <time>2024-07-08T13:41:25Z</time>
      </trkpt>
      <trkpt lat="45.12276" lon="6.09006">
        <ele>2097.8</ele>
        <time>2024-07-08T13:41:26Z</time>
      </trkpt>
      <trkpt lat="45.12275" lon="6.09007">
        <ele>2098</ele>
        <time>2024-07-08T13:41:27Z</time>
      </trkpt>
      <trkpt lat="45.12274" lon="6.09007">
        <ele>2098.1</ele>
        <time>2024-07-08T13:41:28Z</time>
      </trkpt>
      <trkpt lat="45.12274" lon="6.09008">
        <ele>2098.2</ele>
        <time>2024-07-08T13:41:29Z</time>
      </trkpt>
      <trkpt lat="45.12273" lon="6.09008">
        <ele>2098.4</ele>
        <time>2024-07-08T13:41:30Z</time>
      </trkpt>
      <trkpt lat="45.12272" lon="6.09009">
        <ele>2098.5</ele>
        <time>2024-07-08T13:41:31Z</time>
      </trkpt>
      <trkpt lat="45.12272" lon="6.0901">
        <ele>2098.7</ele>
        <time>2024-07-08T13:41:32Z</time>
      </trkpt>
      <trkpt lat="45.12271" lon="6.09011">
        <ele>2098.8</ele>
        <time>2024-07-08T13:41:33Z</time>
      </trkpt>
      <trkpt lat="45.1227" lon="6.09011">
        <ele>2098.9</ele>
        <time>2024-07-08T13:41:34Z</time>
      </trkpt>
      <trkpt lat="45.12269" lon="6.09011">
        <ele>2099.1</ele>
        <time>2024-07-08T13:41:35Z</time>
      </trkpt>
      <trkpt lat="45.12268" lon="6.09012">
        <ele>2099.2</ele>
        <time>2024-07-08T13:41:36Z</time>
      </trkpt>
      <trkpt lat="45.12267" lon="6.09012">
        <ele>2099.4</ele>
        <time>2024-07-08T13:41:37Z</time>
      </trkpt>
      <trkpt lat="45.12266" lon="6.09012">
        <ele>2099.5</ele>
        <time>2024-07-08T13:41:38Z</time>
      </trkpt>
      <trkpt lat="45.12266" lon="6.09012">
        <ele>2099.6</ele>
        <time>2024-07-08T13:41:39Z</time>
      </trkpt>
      <trkpt lat="45.12265" lon="6.09012">
        <ele>2099.7</ele>
        <time>2024-07-08T13:41:40Z</time>
      </trkpt>
      <trkpt lat="45.12264" lon="6.09012">
        <ele>2099.9</ele>
        <time>2024-07-08T13:41:41Z</time>
      </trkpt>
      <trkpt lat="45.12263" lon="6.09012">
        <ele>2100</ele>
        <time>2024-07-08T13:41:42Z</time>
      </trkpt>
      <trkpt lat="45.12262" lon="6.09012">
        <ele>2100.1</ele>
        <time>2024-07-08T13:41:43Z</time>
      </trkpt>
      <trkpt lat="45.12261" lon="6.09011">
        <ele>2100.3</ele>
        <time>2024-07-08T13:41:44Z</time>
      </trkpt>
      <trkpt lat="45.1226" lon="6.09011">
        <ele>2100.4</ele>
        <time>2024-07-08T13:41:45Z</time>
      </trkpt>
      <trkpt lat="45.12259" lon="6.0901">
        <ele>2100.6</ele>
        <time>2024-07-08T13:41:46Z</time>
      </trkpt>
      <trkpt lat="45.12258" lon="6.0901">
        <ele>2100.7</ele>
        <time>2024-07-08T13:41:47Z</time>
      </trkpt>
      <trkpt lat="45.12257" lon="6.09009">
        <ele>2100.8</ele>
        <time>2024-07-08T13:41:48Z</time>
      </trkpt>
      <trkpt lat="45.12257" lon="6.09008">
        <ele>2100.9</ele>
        <time>2024-07-08T13:41:49Z</time>
      </trkpt>
      <trkpt lat="45.12257" lon="6.09007">
        <ele>2101</ele>
        <time>2024-07-08T13:41:50Z</time>
      </trkpt>
      <trkpt lat="45.12257" lon="6.09005">
        <ele>2101.1</ele>
        <time>2024-07-08T13:41:51Z</time>
      </trkpt>
      <trkpt lat="45.12257" lon="6.09003">
        <ele>2101.3</ele>
        <time>2024-07-08T13:41:52Z</time>
      </trkpt>
      <trkpt lat="45.12257" lon="6.09002">
        <ele>2101.4</ele>
        <time>2024-07-08T13:41:53Z</time>
      </trkpt>
      <trkpt lat="45.12257" lon="6.09001">
        <ele>2101.4</ele>
        <time>2024-07-08T13:41:54Z</time>
      </trkpt>
      <trkpt lat="45.12256" lon="6.09">
        <ele>2101.6</ele>
        <time>2024-07-08T13:41:55Z</time>
      </trkpt>
      <trkpt lat="45.12256" lon="6.08998">
        <ele>2101.7</ele>
        <time>2024-07-08T13:41:56Z</time>
      </trkpt>
      <trkpt lat="45.12255" lon="6.08997">
        <ele>2101.8</ele>
        <time>2024-07-08T13:41:57Z</time>
      </trkpt>
      <trkpt lat="45.12254" lon="6.08997">
        <ele>2101.8</ele>
        <time>2024-07-08T13:41:58Z</time>
      </trkpt>
      <trkpt lat="45.12253" lon="6.08996">
        <ele>2101.9</ele>
        <time>2024-07-08T13:41:59Z</time>
      </trkpt>
      <trkpt lat="45.12252" lon="6.08996">
        <ele>2102</ele>
        <time>2024-07-08T13:42:00Z</time>
      </trkpt>
      <trkpt lat="45.12251" lon="6.08996">
        <ele>2102.1</ele>
        <time>2024-07-08T13:42:01Z</time>
      </trkpt>
      <trkpt lat="45.1225" lon="6.08998">
        <ele>2102.2</ele>
        <time>2024-07-08T13:42:02Z</time>
      </trkpt>
      <trkpt lat="45.12249" lon="6.08998">
        <ele>2102.3</ele>
        <time>2024-07-08T13:42:03Z</time>
      </trkpt>
      <trkpt lat="45.12248" lon="6.08999">
        <ele>2102.3</ele>
        <time>2024-07-08T13:42:04Z</time>
      </trkpt>
      <trkpt lat="45.12247" lon="6.09">
        <ele>2102.4</ele>
        <time>2024-07-08T13:42:05Z</time>
      </trkpt>
      <trkpt lat="45.12246" lon="6.09">
        <ele>2102.5</ele>
        <time>2024-07-08T13:42:06Z</time>
      </trkpt>
      <trkpt lat="45.12245" lon="6.09001">
        <ele>2102.6</ele>
        <time>2024-07-08T13:42:07Z</time>
      </trkpt>
      <trkpt lat="45.12244" lon="6.09001">
        <ele>2102.6</ele>
        <time>2024-07-08T13:42:08Z</time>
      </trkpt>
      <trkpt lat="45.12243" lon="6.09002">
        <ele>2102.7</ele>
        <time>2024-07-08T13:42:09Z</time>
      </trkpt>
      <trkpt lat="45.12242" lon="6.09002">
        <ele>2102.7</ele>
        <time>2024-07-08T13:42:10Z</time>
      </trkpt>
      <trkpt lat="45.12241" lon="6.09002">
        <ele>2102.8</ele>
        <time>2024-07-08T13:42:11Z</time>
      </trkpt>
      <trkpt lat="45.1224" lon="6.09002">
        <ele>2102.8</ele>
        <time>2024-07-08T13:42:12Z</time>
      </trkpt>
      <trkpt lat="45.12239" lon="6.09002">
        <ele>2102.9</ele>
        <time>2024-07-08T13:42:13Z</time>
      </trkpt>
      <trkpt lat="45.12238" lon="6.09003">
        <ele>2102.9</ele>
        <time>2024-07-08T13:42:14Z</time>
      </trkpt>
      <trkpt lat="45.12238" lon="6.09004">
        <ele>2103</ele>
        <time>2024-07-08T13:42:15Z</time>
      </trkpt>
      <trkpt lat="45.12239" lon="6.09005">
        <ele>2103</ele>
        <time>2024-07-08T13:42:16Z</time>
      </trkpt>
      <trkpt lat="45.12239" lon="6.09005">
        <ele>2103</ele>
        <time>2024-07-08T13:42:17Z</time>
      </trkpt>
      <trkpt lat="45.12239" lon="6.09005">
        <ele>2103</ele>
        <time>2024-07-08T13:42:18Z</time>
      </trkpt>
      <trkpt lat="45.12239" lon="6.09005">
        <ele>2103</ele>
        <time>2024-07-08T13:42:19Z</time>
      </trkpt>
      <trkpt lat="45.12239" lon="6.09005">
        <ele>2103</ele>
        <time>2024-07-08T13:42:20Z</time>
      </trkpt>
      <trkpt lat="45.12239" lon="6.09004">
        <ele>2103.1</ele>
        <time>2024-07-08T13:42:21Z</time>
      </trkpt>
      <trkpt lat="45.12239" lon="6.09005">
        <ele>2103.1</ele>
        <time>2024-07-08T13:42:22Z</time>
      </trkpt>
      <trkpt lat="45.12238" lon="6.09005">
        <ele>2103.1</ele>
        <time>2024-07-08T13:42:23Z</time>
      </trkpt>
      <trkpt lat="45.12237" lon="6.09005">
        <ele>2103.2</ele>
        <time>2024-07-08T13:42:24Z</time>
      </trkpt>
      <trkpt lat="45.12236" lon="6.09005">
        <ele>2103.3</ele>
        <time>2024-07-08T13:42:25Z</time>
      </trkpt>
      <trkpt lat="45.12234" lon="6.09006">
        <ele>2103.3</ele>
        <time>2024-07-08T13:42:26Z</time>
      </trkpt>
      <trkpt lat="45.12233" lon="6.09006">
        <ele>2103.4</ele>
        <time>2024-07-08T13:42:27Z</time>
      </trkpt>
      <trkpt lat="45.12232" lon="6.09006">
        <ele>2103.5</ele>
        <time>2024-07-08T13:42:28Z</time>
      </trkpt>
      <trkpt lat="45.12232" lon="6.09006">
        <ele>2103.5</ele>
        <time>2024-07-08T13:42:29Z</time>
      </trkpt>
      <trkpt lat="45.12231" lon="6.09006">
        <ele>2103.6</ele>
        <time>2024-07-08T13:42:30Z</time>
      </trkpt>
      <trkpt lat="45.1223" lon="6.09005">
        <ele>2103.6</ele>
        <time>2024-07-08T13:42:31Z</time>
      </trkpt>
      <trkpt lat="45.1223" lon="6.09005">
        <ele>2103.7</ele>
        <time>2024-07-08T13:42:32Z</time>
      </trkpt>
      <trkpt lat="45.12229" lon="6.09005">
        <ele>2103.7</ele>
        <time>2024-07-08T13:42:33Z</time>
      </trkpt>
      <trkpt lat="45.12228" lon="6.09005">
        <ele>2103.8</ele>
        <time>2024-07-08T13:42:34Z</time>
      </trkpt>
      <trkpt lat="45.12228" lon="6.09004">
        <ele>2103.8</ele>
        <time>2024-07-08T13:42:35Z</time>
      </trkpt>
      <trkpt lat="45.12227" lon="6.09004">
        <ele>2103.9</ele>
        <time>2024-07-08T13:42:36Z</time>
      </trkpt>
      <trkpt lat="45.12227" lon="6.09004">
        <ele>2103.9</ele>
        <time>2024-07-08T13:42:37Z</time>
      </trkpt>
      <trkpt lat="45.12226" lon="6.09005">
        <ele>2104</ele>
        <time>2024-07-08T13:42:38Z</time>
      </trkpt>
      <trkpt lat="45.12227" lon="6.09005">
        <ele>2104</ele>
        <time>2024-07-08T13:42:39Z</time>
      </trkpt>
      <trkpt lat="45.12227" lon="6.09005">
        <ele>2104</ele>
        <time>2024-07-08T13:42:40Z</time>
      </trkpt>
      <trkpt lat="45.12227" lon="6.09005">
        <ele>2104</ele>
        <time>2024-07-08T13:42:41Z</time>
      </trkpt>
      <trkpt lat="45.12227" lon="6.09005">
        <ele>2104</ele>
        <time>2024-07-08T13:42:42Z</time>
      </trkpt>
      <trkpt lat="45.12227" lon="6.09005">
        <ele>2104</ele>
        <time>2024-07-08T13:42:43Z</time>
      </trkpt>
      <trkpt lat="45.12227" lon="6.09005">
        <ele>2104</ele>
        <time>2024-07-08T13:42:44Z</time>
      </trkpt>
      <trkpt lat="45.12227" lon="6.09005">
        <ele>2104</ele>
        <time>2024-07-08T13:42:45Z</time>
      </trkpt>
      <trkpt lat="45.12227" lon="6.09005">
        <ele>2104</ele>
        <time>2024-07-08T13:42:46Z</time>
      </trkpt>
      <trkpt lat="45.12227" lon="6.09005">
        <ele>2104.1</ele>
        <time>2024-07-08T13:42:47Z</time>
      </trkpt>
      <trkpt lat="45.12227" lon="6.09005">
        <ele>2104.1</ele>
        <time>2024-07-08T13:42:48Z</time>
      </trkpt>
      <trkpt lat="45.12227" lon="6.09005">
        <ele>2104.1</ele>
        <time>2024-07-08T13:42:49Z</time>
      </trkpt>
      <trkpt lat="45.12227" lon="6.09005">
        <ele>2104.1</ele>
        <time>2024-07-08T13:42:50Z</time>
      </trkpt>
      <trkpt lat="45.12227" lon="6.09005">
        <ele>2104.1</ele>
        <time>2024-07-08T13:42:51Z</time>
      </trkpt>
      <trkpt lat="45.12227" lon="6.09005">
        <ele>2104.1</ele>
        <time>2024-07-08T13:42:52Z</time>
      </trkpt>
      <trkpt lat="45.12227" lon="6.09005">
        <ele>2104.1</ele>
        <time>2024-07-08T13:42:53Z</time>
      </trkpt>
      <trkpt lat="45.12227" lon="6.09005">
        <ele>2104.1</ele>
        <time>2024-07-08T13:42:54Z</time>
      </trkpt>
      <trkpt lat="45.12227" lon="6.09005">
        <ele>2104.1</ele>
        <time>2024-07-08T13:42:55Z</time>
      </trkpt>
      <trkpt lat="45.12227" lon="6.09005">
        <ele>2104.1</ele>
        <time>2024-07-08T13:42:56Z</time>
      </trkpt>
      <trkpt lat="45.12227" lon="6.09005">
        <ele>2104.1</ele>
        <time>2024-07-08T13:42:57Z</time>
      </trkpt>
      <trkpt lat="45.12227" lon="6.09005">
        <ele>2104.1</ele>
        <time>2024-07-08T13:42:58Z</time>
      </trkpt>
      <trkpt lat="45.12226" lon="6.09005">
        <ele>2104.2</ele>
        <time>2024-07-08T13:42:59Z</time>
      </trkpt>
      <trkpt lat="45.12226" lon="6.09004">
        <ele>2104.2</ele>
        <time>2024-07-08T13:43:00Z</time>
      </trkpt>
      <trkpt lat="45.12226" lon="6.09004">
        <ele>2104.3</ele>
        <time>2024-07-08T13:43:01Z</time>
      </trkpt>
      <trkpt lat="45.12226" lon="6.09004">
        <ele>2104.3</ele>
        <time>2024-07-08T13:43:02Z</time>
      </trkpt>
      <trkpt lat="45.12225" lon="6.09004">
        <ele>2104.3</ele>
        <time>2024-07-08T13:43:03Z</time>
      </trkpt>
      <trkpt lat="45.12225" lon="6.09004">
        <ele>2104.4</ele>
        <time>2024-07-08T13:43:04Z</time>
      </trkpt>
      <trkpt lat="45.12225" lon="6.09004">
        <ele>2104.4</ele>
        <time>2024-07-08T13:43:05Z</time>
      </trkpt>
      <trkpt lat="45.12224" lon="6.09004">
        <ele>2104.4</ele>
        <time>2024-07-08T13:43:06Z</time>
      </trkpt>
      <trkpt lat="45.12224" lon="6.09004">
        <ele>2104.4</ele>
        <time>2024-07-08T13:43:07Z</time>
      </trkpt>
      <trkpt lat="45.12224" lon="6.09004">
        <ele>2104.4</ele>
        <time>2024-07-08T13:43:08Z</time>
      </trkpt>
      <trkpt lat="45.12224" lon="6.09004">
        <ele>2104.4</ele>
        <time>2024-07-08T13:43:09Z</time>
      </trkpt>
      <trkpt lat="45.12224" lon="6.09004">
        <ele>2104.4</ele>
        <time>2024-07-08T13:43:10Z</time>
      </trkpt>
      <trkpt lat="45.12224" lon="6.09004">
        <ele>2104.5</ele>
        <time>2024-07-08T13:43:11Z</time>
      </trkpt>
      <trkpt lat="45.12224" lon="6.09004">
        <ele>2104.5</ele>
        <time>2024-07-08T13:43:12Z</time>
      </trkpt>
      <trkpt lat="45.12224" lon="6.09004">
        <ele>2104.5</ele>
        <time>2024-07-08T13:43:13Z</time>
      </trkpt>
      <trkpt lat="45.12224" lon="6.09004">
        <ele>2104.5</ele>
        <time>2024-07-08T13:43:14Z</time>
      </trkpt>
      <trkpt lat="45.12224" lon="6.09004">
        <ele>2104.5</ele>
        <time>2024-07-08T13:43:15Z</time>
      </trkpt>
      <trkpt lat="45.12224" lon="6.09004">
        <ele>2104.5</ele>
        <time>2024-07-08T13:43:16Z</time>
      </trkpt>
      <trkpt lat="45.12224" lon="6.09004">
        <ele>2104.5</ele>
        <time>2024-07-08T13:43:17Z</time>
      </trkpt>
      <trkpt lat="45.12224" lon="6.09004">
        <ele>2104.5</ele>
        <time>2024-07-08T13:43:18Z</time>
      </trkpt>
      <trkpt lat="45.12224" lon="6.09004">
        <ele>2104.5</ele>
        <time>2024-07-08T13:43:19Z</time>
      </trkpt>
      <trkpt lat="45.12225" lon="6.09003">
        <ele>2104.5</ele>
        <time>2024-07-08T13:43:20Z</time>
      </trkpt>
      <trkpt lat="45.12225" lon="6.09003">
        <ele>2104.5</ele>
        <time>2024-07-08T13:43:21Z</time>
      </trkpt>
      <trkpt lat="45.12225" lon="6.09003">
        <ele>2104.5</ele>
        <time>2024-07-08T13:43:22Z</time>
      </trkpt>
      <trkpt lat="45.12225" lon="6.09003">
        <ele>2104.6</ele>
        <time>2024-07-08T13:43:23Z</time>
      </trkpt>
      <trkpt lat="45.12225" lon="6.09003">
        <ele>2104.6</ele>
        <time>2024-07-08T13:43:24Z</time>
      </trkpt>
      <trkpt lat="45.12225" lon="6.09003">
        <ele>2104.6</ele>
        <time>2024-07-08T13:43:25Z</time>
      </trkpt>
      <trkpt lat="45.12225" lon="6.09003">
        <ele>2104.6</ele>
        <time>2024-07-08T13:43:26Z</time>
      </trkpt>
      <trkpt lat="45.12225" lon="6.09003">
        <ele>2104.6</ele>
        <time>2024-07-08T13:43:27Z</time>
      </trkpt>
      <trkpt lat="45.12225" lon="6.09003">
        <ele>2104.6</ele>
        <time>2024-07-08T13:43:28Z</time>
      </trkpt>
      <trkpt lat="45.12225" lon="6.09003">
        <ele>2104.6</ele>
        <time>2024-07-08T13:43:29Z</time>
      </trkpt>
      <trkpt lat="45.12225" lon="6.09003">
        <ele>2104.6</ele>
        <time>2024-07-08T13:43:30Z</time>
      </trkpt>
      <trkpt lat="45.12225" lon="6.09003">
        <ele>2104.6</ele>
        <time>2024-07-08T13:43:31Z</time>
      </trkpt>
      <trkpt lat="45.12225" lon="6.09003">
        <ele>2104.6</ele>
        <time>2024-07-08T13:43:32Z</time>
      </trkpt>
      <trkpt lat="45.12225" lon="6.09003">
        <ele>2104.6</ele>
        <time>2024-07-08T13:43:33Z</time>
      </trkpt>
      <trkpt lat="45.12226" lon="6.09003">
        <ele>2104.6</ele>
        <time>2024-07-08T13:43:34Z</time>
      </trkpt>
      <trkpt lat="45.12226" lon="6.09003">
        <ele>2104.7</ele>
        <time>2024-07-08T13:43:35Z</time>
      </trkpt>
      <trkpt lat="45.12226" lon="6.09003">
        <ele>2104.7</ele>
        <time>2024-07-08T13:43:36Z</time>
      </trkpt>
      <trkpt lat="45.12226" lon="6.09003">
        <ele>2104.7</ele>
        <time>2024-07-08T13:43:37Z</time>
      </trkpt>
      <trkpt lat="45.12226" lon="6.09003">
        <ele>2104.7</ele>
        <time>2024-07-08T13:43:38Z</time>
      </trkpt>
      <trkpt lat="45.12226" lon="6.09003">
        <ele>2104.7</ele>
        <time>2024-07-08T13:43:39Z</time>
      </trkpt>
      <trkpt lat="45.12226" lon="6.09003">
        <ele>2104.7</ele>
        <time>2024-07-08T13:43:40Z</time>
      </trkpt>
      <trkpt lat="45.12226" lon="6.09003">
        <ele>2104.7</ele>
        <time>2024-07-08T13:43:41Z</time>
      </trkpt>
      <trkpt lat="45.12226" lon="6.09003">
        <ele>2104.7</ele>
        <time>2024-07-08T13:43:42Z</time>
      </trkpt>
      <trkpt lat="45.12226" lon="6.09003">
        <ele>2104.7</ele>
        <time>2024-07-08T13:43:43Z</time>
      </trkpt>
      <trkpt lat="45.12226" lon="6.09003">
        <ele>2104.7</ele>
        <time>2024-07-08T13:43:44Z</time>
      </trkpt>
      <trkpt lat="45.12226" lon="6.09003">
        <ele>2104.7</ele>
        <time>2024-07-08T13:43:45Z</time>
      </trkpt>
      <trkpt lat="45.12226" lon="6.09003">
        <ele>2104.7</ele>
        <time>2024-07-08T13:43:46Z</time>
      </trkpt>
      <trkpt lat="45.12226" lon="6.09003">
        <ele>2104.7</ele>
        <time>2024-07-08T13:43:47Z</time>
      </trkpt>
      <trkpt lat="45.12226" lon="6.09003">
        <ele>2104.7</ele>
        <time>2024-07-08T13:43:48Z</time>
      </trkpt>
      <trkpt lat="45.12226" lon="6.09003">
        <ele>2104.7</ele>
        <time>2024-07-08T13:43:49Z</time>
      </trkpt>
      <trkpt lat="45.12226" lon="6.09003">
        <ele>2104.7</ele>
        <time>2024-07-08T13:43:50Z</time>
      </trkpt>
      <trkpt lat="45.12226" lon="6.09003">
        <ele>2104.7</ele>
        <time>2024-07-08T13:43:51Z</time>
      </trkpt>
      <trkpt lat="45.12226" lon="6.09003">
        <ele>2104.7</ele>
        <time>2024-07-08T13:43:52Z</time>
      </trkpt>
      <trkpt lat="45.12226" lon="6.09003">
        <ele>2104.7</ele>
        <time>2024-07-08T13:43:53Z</time>
      </trkpt>
      <trkpt lat="45.12226" lon="6.09003">
        <ele>2104.7</ele>
        <time>2024-07-08T13:43:54Z</time>
      </trkpt>
      <trkpt lat="45.12226" lon="6.09003">
        <ele>2104.7</ele>
        <time>2024-07-08T13:43:55Z</time>
      </trkpt>
      <trkpt lat="45.12226" lon="6.09003">
        <ele>2104.7</ele>
        <time>2024-07-08T13:43:56Z</time>
      </trkpt>
      <trkpt lat="45.12226" lon="6.09003">
        <ele>2104.7</ele>
        <time>2024-07-08T13:43:57Z</time>
      </trkpt>
      <trkpt lat="45.12226" lon="6.09003">
        <ele>2104.7</ele>
        <time>2024-07-08T13:43:58Z</time>
      </trkpt>
      <trkpt lat="45.12226" lon="6.09003">
        <ele>2104.7</ele>
        <time>2024-07-08T13:43:59Z</time>
      </trkpt>
      <trkpt lat="45.12226" lon="6.09003">
        <ele>2104.7</ele>
        <time>2024-07-08T13:44:00Z</time>
      </trkpt>
      <trkpt lat="45.12226" lon="6.09003">
        <ele>2104.7</ele>
        <time>2024-07-08T13:44:01Z</time>
      </trkpt>
      <trkpt lat="45.12226" lon="6.09003">
        <ele>2104.7</ele>
        <time>2024-07-08T13:44:02Z</time>
      </trkpt>
      <trkpt lat="45.12226" lon="6.09003">
        <ele>2104.7</ele>
        <time>2024-07-08T13:44:03Z</time>
      </trkpt>
      <trkpt lat="45.12226" lon="6.09003">
        <ele>2104.8</ele>
        <time>2024-07-08T13:44:04Z</time>
      </trkpt>
      <trkpt lat="45.12226" lon="6.09003">
        <ele>2104.8</ele>
        <time>2024-07-08T13:44:05Z</time>
      </trkpt>
      <trkpt lat="45.12226" lon="6.09003">
        <ele>2104.8</ele>
        <time>2024-07-08T13:44:06Z</time>
      </trkpt>
      <trkpt lat="45.12226" lon="6.09003">
        <ele>2104.8</ele>
        <time>2024-07-08T13:44:07Z</time>
      </trkpt>
      <trkpt lat="45.12226" lon="6.09003">
        <ele>2104.8</ele>
        <time>2024-07-08T13:44:08Z</time>
      </trkpt>
      <trkpt lat="45.12226" lon="6.09003">
        <ele>2104.8</ele>
        <time>2024-07-08T13:44:09Z</time>
      </trkpt>
      <trkpt lat="45.12226" lon="6.09003">
        <ele>2104.8</ele>
        <time>2024-07-08T13:44:10Z</time>
      </trkpt>
      <trkpt lat="45.12226" lon="6.09003">
        <ele>2104.8</ele>
        <time>2024-07-08T13:44:11Z</time>
      </trkpt>
      <trkpt lat="45.12226" lon="6.09003">
        <ele>2104.8</ele>
        <time>2024-07-08T13:44:12Z</time>
      </trkpt>
      <trkpt lat="45.12226" lon="6.09003">
        <ele>2104.8</ele>
        <time>2024-07-08T13:44:13Z</time>
      </trkpt>
      <trkpt lat="45.12226" lon="6.09">
        <ele>2104.9</ele>
        <time>2024-07-08T13:44:14Z</time>
      </trkpt>
      <trkpt lat="45.12225" lon="6.08998">
        <ele>2105.1</ele>
        <time>2024-07-08T13:44:15Z</time>
      </trkpt>
      <trkpt lat="45.12225" lon="6.08997">
        <ele>2105.1</ele>
        <time>2024-07-08T13:44:16Z</time>
      </trkpt>
      <trkpt lat="45.12226" lon="6.08997">
        <ele>2105.2</ele>
        <time>2024-07-08T13:44:17Z</time>
      </trkpt>
      <trkpt lat="45.12226" lon="6.08997">
        <ele>2105.2</ele>
        <time>2024-07-08T13:44:18Z</time>
      </trkpt>
      <trkpt lat="45.12226" lon="6.08997">
        <ele>2105.2</ele>
        <time>2024-07-08T13:44:19Z</time>
      </trkpt>
      <trkpt lat="45.12226" lon="6.08996">
        <ele>2105.3</ele>
        <time>2024-07-08T13:44:20Z</time>
      </trkpt>
      <trkpt lat="45.12226" lon="6.08997">
        <ele>2105.3</ele>
        <time>2024-07-08T13:44:21Z</time>
      </trkpt>
      <trkpt lat="45.12226" lon="6.08998">
        <ele>2105.3</ele>
        <time>2024-07-08T13:44:22Z</time>
      </trkpt>
      <trkpt lat="45.12226" lon="6.08998">
        <ele>2105.4</ele>
        <time>2024-07-08T13:44:23Z</time>
      </trkpt>
      <trkpt lat="45.12226" lon="6.08998">
        <ele>2105.4</ele>
        <time>2024-07-08T13:44:24Z</time>
      </trkpt>
      <trkpt lat="45.12226" lon="6.08998">
        <ele>2105.4</ele>
        <time>2024-07-08T13:44:25Z</time>
      </trkpt>
      <trkpt lat="45.12226" lon="6.08998">
        <ele>2105.4</ele>
        <time>2024-07-08T13:44:26Z</time>
      </trkpt>
      <trkpt lat="45.12226" lon="6.08998">
        <ele>2105.4</ele>
        <time>2024-07-08T13:44:27Z</time>
      </trkpt>
      <trkpt lat="45.12226" lon="6.08998">
        <ele>2105.4</ele>
        <time>2024-07-08T13:44:28Z</time>
      </trkpt>
      <trkpt lat="45.12226" lon="6.08998">
        <ele>2105.4</ele>
        <time>2024-07-08T13:44:29Z</time>
      </trkpt>
      <trkpt lat="45.12226" lon="6.08998">
        <ele>2105.4</ele>
        <time>2024-07-08T13:44:30Z</time>
      </trkpt>
      <trkpt lat="45.12226" lon="6.08998">
        <ele>2105.4</ele>
        <time>2024-07-08T13:44:31Z</time>
      </trkpt>
      <trkpt lat="45.12226" lon="6.08998">
        <ele>2105.4</ele>
        <time>2024-07-08T13:44:32Z</time>
      </trkpt>
      <trkpt lat="45.12226" lon="6.08999">
        <ele>2105.4</ele>
        <time>2024-07-08T13:44:33Z</time>
      </trkpt>
      <trkpt lat="45.12226" lon="6.08999">
        <ele>2105.4</ele>
        <time>2024-07-08T13:44:34Z</time>
      </trkpt>
      <trkpt lat="45.12226" lon="6.08999">
        <ele>2105.4</ele>
        <time>2024-07-08T13:44:35Z</time>
      </trkpt>
      <trkpt lat="45.12226" lon="6.08999">
        <ele>2105.4</ele>
        <time>2024-07-08T13:44:38Z</time>
      </trkpt>
      <trkpt lat="45.12226" lon="6.08999">
        <ele>2105.4</ele>
        <time>2024-07-08T13:44:39Z</time>
      </trkpt>
      <trkpt lat="45.12226" lon="6.08999">
        <ele>2105.5</ele>
        <time>2024-07-08T13:44:40Z</time>
      </trkpt>
      <trkpt lat="45.12226" lon="6.08999">
        <ele>2105.5</ele>
        <time>2024-07-08T13:44:41Z</time>
      </trkpt>
      <trkpt lat="45.12227" lon="6.08999">
        <ele>2105.5</ele>
        <time>2024-07-08T13:44:42Z</time>
      </trkpt>
      <trkpt lat="45.12227" lon="6.08999">
        <ele>2105.5</ele>
        <time>2024-07-08T13:44:43Z</time>
      </trkpt>
      <trkpt lat="45.12227" lon="6.08999">
        <ele>2105.5</ele>
        <time>2024-07-08T13:44:44Z</time>
      </trkpt>
      <trkpt lat="45.12227" lon="6.08999">
        <ele>2105.5</ele>
        <time>2024-07-08T13:44:45Z</time>
      </trkpt>
      <trkpt lat="45.12227" lon="6.08999">
        <ele>2105.5</ele>
        <time>2024-07-08T13:44:46Z</time>
      </trkpt>
      <trkpt lat="45.12227" lon="6.08999">
        <ele>2105.5</ele>
        <time>2024-07-08T13:44:47Z</time>
      </trkpt>
      <trkpt lat="45.1157" lon="6.08708">
        <ele>2078.4</ele>
        <time>2024-07-08T13:58:19Z</time>
      </trkpt>
      <trkpt lat="45.11571" lon="6.0871">
        <ele>2078.3</ele>
        <time>2024-07-08T13:58:20Z</time>
      </trkpt>
      <trkpt lat="45.11573" lon="6.0871">
        <ele>2078.3</ele>
        <time>2024-07-08T13:58:21Z</time>
      </trkpt>
    </trkseg>
  </trk>
</gpx>